52090 lines
1.7 MiB
Plaintext
52090 lines
1.7 MiB
Plaintext
<?xml version='1.0' encoding='UTF-8'?>
|
|
<gpx version="1.1" creator="https://www.komoot.de" xmlns="http://www.topografix.com/GPX/1/1" xmlns:xsi="http://www.w3.org/2001/XMLSchema-instance" xsi:schemaLocation="http://www.topografix.com/GPX/1/1 http://www.topografix.com/GPX/1/1/gpx.xsd">
|
|
<metadata>
|
|
<name>Klanxbüll to Ribe</name>
|
|
<author>
|
|
<link href="https://www.komoot.de">
|
|
<text>komoot</text>
|
|
<type>text/html</type>
|
|
</link>
|
|
</author>
|
|
</metadata>
|
|
<trk>
|
|
<name>Klanxbüll to Ribe</name>
|
|
<type>racebike</type>
|
|
<trkseg>
|
|
<trkpt lat="54.861755" lon="8.677373">
|
|
<ele>-32.615124</ele>
|
|
<time>2026-07-10T10:50:11.000Z</time>
|
|
</trkpt>
|
|
<trkpt lat="54.861757" lon="8.677379">
|
|
<ele>-32.615124</ele>
|
|
<time>2026-07-10T10:50:28.000Z</time>
|
|
</trkpt>
|
|
<trkpt lat="54.861759" lon="8.677400">
|
|
<ele>-32.615124</ele>
|
|
<time>2026-07-10T10:50:29.000Z</time>
|
|
</trkpt>
|
|
<trkpt lat="54.861757" lon="8.677427">
|
|
<ele>-32.615124</ele>
|
|
<time>2026-07-10T10:50:30.000Z</time>
|
|
</trkpt>
|
|
<trkpt lat="54.861748" lon="8.677452">
|
|
<ele>-32.615124</ele>
|
|
<time>2026-07-10T10:50:31.000Z</time>
|
|
</trkpt>
|
|
<trkpt lat="54.861735" lon="8.677475">
|
|
<ele>-32.615124</ele>
|
|
<time>2026-07-10T10:50:32.000Z</time>
|
|
</trkpt>
|
|
<trkpt lat="54.861707" lon="8.677506">
|
|
<ele>-32.615124</ele>
|
|
<time>2026-07-10T10:50:33.000Z</time>
|
|
</trkpt>
|
|
<trkpt lat="54.861681" lon="8.677529">
|
|
<ele>-32.615124</ele>
|
|
<time>2026-07-10T10:50:34.000Z</time>
|
|
</trkpt>
|
|
<trkpt lat="54.861658" lon="8.677553">
|
|
<ele>-32.615124</ele>
|
|
<time>2026-07-10T10:50:35.000Z</time>
|
|
</trkpt>
|
|
<trkpt lat="54.861634" lon="8.677577">
|
|
<ele>-32.615124</ele>
|
|
<time>2026-07-10T10:50:36.000Z</time>
|
|
</trkpt>
|
|
<trkpt lat="54.861610" lon="8.677599">
|
|
<ele>-32.615124</ele>
|
|
<time>2026-07-10T10:50:37.000Z</time>
|
|
</trkpt>
|
|
<trkpt lat="54.861586" lon="8.677626">
|
|
<ele>-32.615124</ele>
|
|
<time>2026-07-10T10:50:38.000Z</time>
|
|
</trkpt>
|
|
<trkpt lat="54.861565" lon="8.677652">
|
|
<ele>-32.615124</ele>
|
|
<time>2026-07-10T10:50:39.000Z</time>
|
|
</trkpt>
|
|
<trkpt lat="54.861547" lon="8.677678">
|
|
<ele>-32.615124</ele>
|
|
<time>2026-07-10T10:50:40.000Z</time>
|
|
</trkpt>
|
|
<trkpt lat="54.861521" lon="8.677703">
|
|
<ele>-32.615124</ele>
|
|
<time>2026-07-10T10:50:41.000Z</time>
|
|
</trkpt>
|
|
<trkpt lat="54.861516" lon="8.677708">
|
|
<ele>-32.615124</ele>
|
|
<time>2026-07-10T10:50:42.000Z</time>
|
|
</trkpt>
|
|
<trkpt lat="54.861514" lon="8.677714">
|
|
<ele>-32.615124</ele>
|
|
<time>2026-07-10T10:50:43.000Z</time>
|
|
</trkpt>
|
|
<trkpt lat="54.861510" lon="8.677717">
|
|
<ele>-32.615124</ele>
|
|
<time>2026-07-10T10:50:44.000Z</time>
|
|
</trkpt>
|
|
<trkpt lat="54.861506" lon="8.677723">
|
|
<ele>-32.615124</ele>
|
|
<time>2026-07-10T10:50:45.000Z</time>
|
|
</trkpt>
|
|
<trkpt lat="54.861501" lon="8.677728">
|
|
<ele>-32.615124</ele>
|
|
<time>2026-07-10T10:50:46.000Z</time>
|
|
</trkpt>
|
|
<trkpt lat="54.861496" lon="8.677730">
|
|
<ele>-32.615124</ele>
|
|
<time>2026-07-10T10:50:47.000Z</time>
|
|
</trkpt>
|
|
<trkpt lat="54.861491" lon="8.677779">
|
|
<ele>-32.615124</ele>
|
|
<time>2026-07-10T10:51:17.000Z</time>
|
|
</trkpt>
|
|
<trkpt lat="54.861486" lon="8.677800">
|
|
<ele>-32.615124</ele>
|
|
<time>2026-07-10T10:51:18.000Z</time>
|
|
</trkpt>
|
|
<trkpt lat="54.861472" lon="8.677832">
|
|
<ele>-32.615124</ele>
|
|
<time>2026-07-10T10:51:19.000Z</time>
|
|
</trkpt>
|
|
<trkpt lat="54.861455" lon="8.677863">
|
|
<ele>-32.615124</ele>
|
|
<time>2026-07-10T10:51:20.000Z</time>
|
|
</trkpt>
|
|
<trkpt lat="54.861435" lon="8.677896">
|
|
<ele>-32.615124</ele>
|
|
<time>2026-07-10T10:51:21.000Z</time>
|
|
</trkpt>
|
|
<trkpt lat="54.861419" lon="8.677930">
|
|
<ele>-32.615124</ele>
|
|
<time>2026-07-10T10:51:22.000Z</time>
|
|
</trkpt>
|
|
<trkpt lat="54.861405" lon="8.677962">
|
|
<ele>-32.615124</ele>
|
|
<time>2026-07-10T10:51:23.000Z</time>
|
|
</trkpt>
|
|
<trkpt lat="54.861393" lon="8.677998">
|
|
<ele>-32.615124</ele>
|
|
<time>2026-07-10T10:51:24.000Z</time>
|
|
</trkpt>
|
|
<trkpt lat="54.861383" lon="8.678036">
|
|
<ele>-32.615124</ele>
|
|
<time>2026-07-10T10:51:25.000Z</time>
|
|
</trkpt>
|
|
<trkpt lat="54.861377" lon="8.678075">
|
|
<ele>-32.615124</ele>
|
|
<time>2026-07-10T10:51:26.000Z</time>
|
|
</trkpt>
|
|
<trkpt lat="54.861374" lon="8.678117">
|
|
<ele>-32.615124</ele>
|
|
<time>2026-07-10T10:51:27.000Z</time>
|
|
</trkpt>
|
|
<trkpt lat="54.861375" lon="8.678164">
|
|
<ele>-32.615124</ele>
|
|
<time>2026-07-10T10:51:28.000Z</time>
|
|
</trkpt>
|
|
<trkpt lat="54.861379" lon="8.678212">
|
|
<ele>-32.615124</ele>
|
|
<time>2026-07-10T10:51:29.000Z</time>
|
|
</trkpt>
|
|
<trkpt lat="54.861386" lon="8.678274">
|
|
<ele>-32.615124</ele>
|
|
<time>2026-07-10T10:51:30.000Z</time>
|
|
</trkpt>
|
|
<trkpt lat="54.861401" lon="8.678333">
|
|
<ele>-32.615124</ele>
|
|
<time>2026-07-10T10:51:31.000Z</time>
|
|
</trkpt>
|
|
<trkpt lat="54.861421" lon="8.678392">
|
|
<ele>-32.615124</ele>
|
|
<time>2026-07-10T10:51:32.000Z</time>
|
|
</trkpt>
|
|
<trkpt lat="54.861450" lon="8.678442">
|
|
<ele>-32.615124</ele>
|
|
<time>2026-07-10T10:51:33.000Z</time>
|
|
</trkpt>
|
|
<trkpt lat="54.861479" lon="8.678489">
|
|
<ele>-32.615124</ele>
|
|
<time>2026-07-10T10:51:34.000Z</time>
|
|
</trkpt>
|
|
<trkpt lat="54.861513" lon="8.678531">
|
|
<ele>-32.614961</ele>
|
|
<time>2026-07-10T10:51:35.000Z</time>
|
|
</trkpt>
|
|
<trkpt lat="54.861549" lon="8.678562">
|
|
<ele>-32.609227</ele>
|
|
<time>2026-07-10T10:51:36.000Z</time>
|
|
</trkpt>
|
|
<trkpt lat="54.861587" lon="8.678587">
|
|
<ele>-32.603427</ele>
|
|
<time>2026-07-10T10:51:37.000Z</time>
|
|
</trkpt>
|
|
<trkpt lat="54.861626" lon="8.678609">
|
|
<ele>-32.597575</ele>
|
|
<time>2026-07-10T10:51:38.000Z</time>
|
|
</trkpt>
|
|
<trkpt lat="54.861669" lon="8.678632">
|
|
<ele>-32.591153</ele>
|
|
<time>2026-07-10T10:51:39.000Z</time>
|
|
</trkpt>
|
|
<trkpt lat="54.861710" lon="8.678655">
|
|
<ele>-32.585004</ele>
|
|
<time>2026-07-10T10:51:40.000Z</time>
|
|
</trkpt>
|
|
<trkpt lat="54.861751" lon="8.678677">
|
|
<ele>-32.578880</ele>
|
|
<time>2026-07-10T10:51:41.000Z</time>
|
|
</trkpt>
|
|
<trkpt lat="54.861790" lon="8.678694">
|
|
<ele>-32.573141</ele>
|
|
<time>2026-07-10T10:51:42.000Z</time>
|
|
</trkpt>
|
|
<trkpt lat="54.861833" lon="8.678716">
|
|
<ele>-32.566743</ele>
|
|
<time>2026-07-10T10:51:43.000Z</time>
|
|
</trkpt>
|
|
<trkpt lat="54.861878" lon="8.678741">
|
|
<ele>-32.560000</ele>
|
|
<time>2026-07-10T10:51:44.000Z</time>
|
|
</trkpt>
|
|
<trkpt lat="54.861920" lon="8.678770">
|
|
<ele>-32.553550</ele>
|
|
<time>2026-07-10T10:51:45.000Z</time>
|
|
</trkpt>
|
|
<trkpt lat="54.861962" lon="8.678803">
|
|
<ele>-32.546971</ele>
|
|
<time>2026-07-10T10:51:46.000Z</time>
|
|
</trkpt>
|
|
<trkpt lat="54.862002" lon="8.678839">
|
|
<ele>-32.540541</ele>
|
|
<time>2026-07-10T10:51:47.000Z</time>
|
|
</trkpt>
|
|
<trkpt lat="54.862041" lon="8.678880">
|
|
<ele>-32.534035</ele>
|
|
<time>2026-07-10T10:51:48.000Z</time>
|
|
</trkpt>
|
|
<trkpt lat="54.862079" lon="8.678923">
|
|
<ele>-32.527563</ele>
|
|
<time>2026-07-10T10:51:49.000Z</time>
|
|
</trkpt>
|
|
<trkpt lat="54.862115" lon="8.678967">
|
|
<ele>-32.521281</ele>
|
|
<time>2026-07-10T10:51:50.000Z</time>
|
|
</trkpt>
|
|
<trkpt lat="54.862144" lon="8.679014">
|
|
<ele>-32.515621</ele>
|
|
<time>2026-07-10T10:51:51.000Z</time>
|
|
</trkpt>
|
|
<trkpt lat="54.862171" lon="8.679065">
|
|
<ele>-32.509928</ele>
|
|
<time>2026-07-10T10:51:52.000Z</time>
|
|
</trkpt>
|
|
<trkpt lat="54.862197" lon="8.679119">
|
|
<ele>-32.504145</ele>
|
|
<time>2026-07-10T10:51:53.000Z</time>
|
|
</trkpt>
|
|
<trkpt lat="54.862224" lon="8.679179">
|
|
<ele>-32.497889</ele>
|
|
<time>2026-07-10T10:51:54.000Z</time>
|
|
</trkpt>
|
|
<trkpt lat="54.862245" lon="8.679245">
|
|
<ele>-32.491694</ele>
|
|
<time>2026-07-10T10:51:55.000Z</time>
|
|
</trkpt>
|
|
<trkpt lat="54.862266" lon="8.679312">
|
|
<ele>-32.485427</ele>
|
|
<time>2026-07-10T10:51:56.000Z</time>
|
|
</trkpt>
|
|
<trkpt lat="54.862286" lon="8.679380">
|
|
<ele>-32.479154</ele>
|
|
<time>2026-07-10T10:51:57.000Z</time>
|
|
</trkpt>
|
|
<trkpt lat="54.862303" lon="8.679452">
|
|
<ele>-32.472761</ele>
|
|
<time>2026-07-10T10:51:58.000Z</time>
|
|
</trkpt>
|
|
<trkpt lat="54.862321" lon="8.679526">
|
|
<ele>-32.466162</ele>
|
|
<time>2026-07-10T10:51:59.000Z</time>
|
|
</trkpt>
|
|
<trkpt lat="54.862339" lon="8.679602">
|
|
<ele>-32.459411</ele>
|
|
<time>2026-07-10T10:52:00.000Z</time>
|
|
</trkpt>
|
|
<trkpt lat="54.862351" lon="8.679678">
|
|
<ele>-32.452937</ele>
|
|
<time>2026-07-10T10:52:01.000Z</time>
|
|
</trkpt>
|
|
<trkpt lat="54.862366" lon="8.679755">
|
|
<ele>-32.446259</ele>
|
|
<time>2026-07-10T10:52:02.000Z</time>
|
|
</trkpt>
|
|
<trkpt lat="54.862382" lon="8.679828">
|
|
<ele>-32.439843</ele>
|
|
<time>2026-07-10T10:52:03.000Z</time>
|
|
</trkpt>
|
|
<trkpt lat="54.862400" lon="8.679901">
|
|
<ele>-32.433319</ele>
|
|
<time>2026-07-10T10:52:04.000Z</time>
|
|
</trkpt>
|
|
<trkpt lat="54.862415" lon="8.679967">
|
|
<ele>-32.427490</ele>
|
|
<time>2026-07-10T10:52:05.000Z</time>
|
|
</trkpt>
|
|
<trkpt lat="54.862430" lon="8.680035">
|
|
<ele>-32.421508</ele>
|
|
<time>2026-07-10T10:52:06.000Z</time>
|
|
</trkpt>
|
|
<trkpt lat="54.862441" lon="8.680098">
|
|
<ele>-32.416100</ele>
|
|
<time>2026-07-10T10:52:07.000Z</time>
|
|
</trkpt>
|
|
<trkpt lat="54.862452" lon="8.680158">
|
|
<ele>-32.410927</ele>
|
|
<time>2026-07-10T10:52:08.000Z</time>
|
|
</trkpt>
|
|
<trkpt lat="54.862461" lon="8.680204">
|
|
<ele>-32.406936</ele>
|
|
<time>2026-07-10T10:52:09.000Z</time>
|
|
</trkpt>
|
|
<trkpt lat="54.862471" lon="8.680240">
|
|
<ele>-32.403652</ele>
|
|
<time>2026-07-10T10:52:10.000Z</time>
|
|
</trkpt>
|
|
<trkpt lat="54.862481" lon="8.680272">
|
|
<ele>-32.400661</ele>
|
|
<time>2026-07-10T10:52:11.000Z</time>
|
|
</trkpt>
|
|
<trkpt lat="54.862498" lon="8.680303">
|
|
<ele>-32.397144</ele>
|
|
<time>2026-07-10T10:52:12.000Z</time>
|
|
</trkpt>
|
|
<trkpt lat="54.862521" lon="8.680327">
|
|
<ele>-32.393315</ele>
|
|
<time>2026-07-10T10:52:13.000Z</time>
|
|
</trkpt>
|
|
<trkpt lat="54.862543" lon="8.680333">
|
|
<ele>-32.390136</ele>
|
|
<time>2026-07-10T10:52:14.000Z</time>
|
|
</trkpt>
|
|
<trkpt lat="54.862569" lon="8.680323">
|
|
<ele>-32.386336</ele>
|
|
<time>2026-07-10T10:52:15.000Z</time>
|
|
</trkpt>
|
|
<trkpt lat="54.862601" lon="8.680307">
|
|
<ele>-32.381583</ele>
|
|
<time>2026-07-10T10:52:16.000Z</time>
|
|
</trkpt>
|
|
<trkpt lat="54.862636" lon="8.680288">
|
|
<ele>-32.376349</ele>
|
|
<time>2026-07-10T10:52:17.000Z</time>
|
|
</trkpt>
|
|
<trkpt lat="54.862675" lon="8.680270">
|
|
<ele>-32.370590</ele>
|
|
<time>2026-07-10T10:52:18.000Z</time>
|
|
</trkpt>
|
|
<trkpt lat="54.862718" lon="8.680255">
|
|
<ele>-32.364330</ele>
|
|
<time>2026-07-10T10:52:19.000Z</time>
|
|
</trkpt>
|
|
<trkpt lat="54.862762" lon="8.680240">
|
|
<ele>-32.358428</ele>
|
|
<time>2026-07-10T10:52:20.000Z</time>
|
|
</trkpt>
|
|
<trkpt lat="54.862804" lon="8.680217">
|
|
<ele>-32.358656</ele>
|
|
<time>2026-07-10T10:52:21.000Z</time>
|
|
</trkpt>
|
|
<trkpt lat="54.862852" lon="8.680187">
|
|
<ele>-32.358920</ele>
|
|
<time>2026-07-10T10:52:22.000Z</time>
|
|
</trkpt>
|
|
<trkpt lat="54.862897" lon="8.680158">
|
|
<ele>-32.359169</ele>
|
|
<time>2026-07-10T10:52:23.000Z</time>
|
|
</trkpt>
|
|
<trkpt lat="54.862943" lon="8.680127">
|
|
<ele>-32.359424</ele>
|
|
<time>2026-07-10T10:52:24.000Z</time>
|
|
</trkpt>
|
|
<trkpt lat="54.862992" lon="8.680099">
|
|
<ele>-32.359691</ele>
|
|
<time>2026-07-10T10:52:25.000Z</time>
|
|
</trkpt>
|
|
<trkpt lat="54.863046" lon="8.680068">
|
|
<ele>-32.359986</ele>
|
|
<time>2026-07-10T10:52:26.000Z</time>
|
|
</trkpt>
|
|
<trkpt lat="54.863099" lon="8.680039">
|
|
<ele>-32.360273</ele>
|
|
<time>2026-07-10T10:52:27.000Z</time>
|
|
</trkpt>
|
|
<trkpt lat="54.863153" lon="8.680012">
|
|
<ele>-32.360564</ele>
|
|
<time>2026-07-10T10:52:28.000Z</time>
|
|
</trkpt>
|
|
<trkpt lat="54.863210" lon="8.679983">
|
|
<ele>-32.360872</ele>
|
|
<time>2026-07-10T10:52:29.000Z</time>
|
|
</trkpt>
|
|
<trkpt lat="54.863266" lon="8.679954">
|
|
<ele>-32.361174</ele>
|
|
<time>2026-07-10T10:52:30.000Z</time>
|
|
</trkpt>
|
|
<trkpt lat="54.863320" lon="8.679923">
|
|
<ele>-32.361468</ele>
|
|
<time>2026-07-10T10:52:31.000Z</time>
|
|
</trkpt>
|
|
<trkpt lat="54.863374" lon="8.679893">
|
|
<ele>-32.361762</ele>
|
|
<time>2026-07-10T10:52:32.000Z</time>
|
|
</trkpt>
|
|
<trkpt lat="54.863427" lon="8.679861">
|
|
<ele>-32.362052</ele>
|
|
<time>2026-07-10T10:52:33.000Z</time>
|
|
</trkpt>
|
|
<trkpt lat="54.863477" lon="8.679827">
|
|
<ele>-32.362330</ele>
|
|
<time>2026-07-10T10:52:34.000Z</time>
|
|
</trkpt>
|
|
<trkpt lat="54.863528" lon="8.679792">
|
|
<ele>-32.362614</ele>
|
|
<time>2026-07-10T10:52:35.000Z</time>
|
|
</trkpt>
|
|
<trkpt lat="54.863577" lon="8.679761">
|
|
<ele>-32.362884</ele>
|
|
<time>2026-07-10T10:52:36.000Z</time>
|
|
</trkpt>
|
|
<trkpt lat="54.863625" lon="8.679733">
|
|
<ele>-32.363146</ele>
|
|
<time>2026-07-10T10:52:37.000Z</time>
|
|
</trkpt>
|
|
<trkpt lat="54.863680" lon="8.679701">
|
|
<ele>-32.363446</ele>
|
|
<time>2026-07-10T10:52:38.000Z</time>
|
|
</trkpt>
|
|
<trkpt lat="54.863729" lon="8.679669">
|
|
<ele>-32.363717</ele>
|
|
<time>2026-07-10T10:52:39.000Z</time>
|
|
</trkpt>
|
|
<trkpt lat="54.863783" lon="8.679635">
|
|
<ele>-32.364014</ele>
|
|
<time>2026-07-10T10:52:40.000Z</time>
|
|
</trkpt>
|
|
<trkpt lat="54.863839" lon="8.679599">
|
|
<ele>-32.364324</ele>
|
|
<time>2026-07-10T10:52:41.000Z</time>
|
|
</trkpt>
|
|
<trkpt lat="54.863892" lon="8.679564">
|
|
<ele>-32.364617</ele>
|
|
<time>2026-07-10T10:52:42.000Z</time>
|
|
</trkpt>
|
|
<trkpt lat="54.863948" lon="8.679530">
|
|
<ele>-32.364924</ele>
|
|
<time>2026-07-10T10:52:43.000Z</time>
|
|
</trkpt>
|
|
<trkpt lat="54.864003" lon="8.679497">
|
|
<ele>-32.365225</ele>
|
|
<time>2026-07-10T10:52:44.000Z</time>
|
|
</trkpt>
|
|
<trkpt lat="54.864057" lon="8.679465">
|
|
<ele>-32.365521</ele>
|
|
<time>2026-07-10T10:52:45.000Z</time>
|
|
</trkpt>
|
|
<trkpt lat="54.864114" lon="8.679431">
|
|
<ele>-32.365833</ele>
|
|
<time>2026-07-10T10:52:46.000Z</time>
|
|
</trkpt>
|
|
<trkpt lat="54.864170" lon="8.679402">
|
|
<ele>-32.366135</ele>
|
|
<time>2026-07-10T10:52:47.000Z</time>
|
|
</trkpt>
|
|
<trkpt lat="54.864223" lon="8.679370">
|
|
<ele>-32.366425</ele>
|
|
<time>2026-07-10T10:52:48.000Z</time>
|
|
</trkpt>
|
|
<trkpt lat="54.864275" lon="8.679336">
|
|
<ele>-32.366713</ele>
|
|
<time>2026-07-10T10:52:49.000Z</time>
|
|
</trkpt>
|
|
<trkpt lat="54.864330" lon="8.679300">
|
|
<ele>-32.367017</ele>
|
|
<time>2026-07-10T10:52:50.000Z</time>
|
|
</trkpt>
|
|
<trkpt lat="54.864392" lon="8.679260">
|
|
<ele>-32.367360</ele>
|
|
<time>2026-07-10T10:52:51.000Z</time>
|
|
</trkpt>
|
|
<trkpt lat="54.864448" lon="8.679228">
|
|
<ele>-32.367665</ele>
|
|
<time>2026-07-10T10:52:52.000Z</time>
|
|
</trkpt>
|
|
<trkpt lat="54.864504" lon="8.679201">
|
|
<ele>-32.371698</ele>
|
|
<time>2026-07-10T10:52:53.000Z</time>
|
|
</trkpt>
|
|
<trkpt lat="54.864568" lon="8.679174">
|
|
<ele>-32.377246</ele>
|
|
<time>2026-07-10T10:52:54.000Z</time>
|
|
</trkpt>
|
|
<trkpt lat="54.864627" lon="8.679148">
|
|
<ele>-32.382373</ele>
|
|
<time>2026-07-10T10:52:55.000Z</time>
|
|
</trkpt>
|
|
<trkpt lat="54.864679" lon="8.679122">
|
|
<ele>-32.386931</ele>
|
|
<time>2026-07-10T10:52:56.000Z</time>
|
|
</trkpt>
|
|
<trkpt lat="54.864734" lon="8.679095">
|
|
<ele>-32.391745</ele>
|
|
<time>2026-07-10T10:52:57.000Z</time>
|
|
</trkpt>
|
|
<trkpt lat="54.864789" lon="8.679065">
|
|
<ele>-32.396600</ele>
|
|
<time>2026-07-10T10:52:58.000Z</time>
|
|
</trkpt>
|
|
<trkpt lat="54.864846" lon="8.679036">
|
|
<ele>-32.401603</ele>
|
|
<time>2026-07-10T10:52:59.000Z</time>
|
|
</trkpt>
|
|
<trkpt lat="54.864905" lon="8.679007">
|
|
<ele>-32.406768</ele>
|
|
<time>2026-07-10T10:53:00.000Z</time>
|
|
</trkpt>
|
|
<trkpt lat="54.864963" lon="8.678980">
|
|
<ele>-32.411825</ele>
|
|
<time>2026-07-10T10:53:01.000Z</time>
|
|
</trkpt>
|
|
<trkpt lat="54.865016" lon="8.678948">
|
|
<ele>-32.416552</ele>
|
|
<time>2026-07-10T10:53:02.000Z</time>
|
|
</trkpt>
|
|
<trkpt lat="54.865064" lon="8.678915">
|
|
<ele>-32.420900</ele>
|
|
<time>2026-07-10T10:53:03.000Z</time>
|
|
</trkpt>
|
|
<trkpt lat="54.865113" lon="8.678884">
|
|
<ele>-32.425292</ele>
|
|
<time>2026-07-10T10:53:04.000Z</time>
|
|
</trkpt>
|
|
<trkpt lat="54.865161" lon="8.678857">
|
|
<ele>-32.429542</ele>
|
|
<time>2026-07-10T10:53:05.000Z</time>
|
|
</trkpt>
|
|
<trkpt lat="54.865213" lon="8.678825">
|
|
<ele>-32.434188</ele>
|
|
<time>2026-07-10T10:53:06.000Z</time>
|
|
</trkpt>
|
|
<trkpt lat="54.865256" lon="8.678799">
|
|
<ele>-32.438023</ele>
|
|
<time>2026-07-10T10:53:07.000Z</time>
|
|
</trkpt>
|
|
<trkpt lat="54.865294" lon="8.678773">
|
|
<ele>-32.441463</ele>
|
|
<time>2026-07-10T10:53:08.000Z</time>
|
|
</trkpt>
|
|
<trkpt lat="54.865325" lon="8.678757">
|
|
<ele>-32.444187</ele>
|
|
<time>2026-07-10T10:53:09.000Z</time>
|
|
</trkpt>
|
|
<trkpt lat="54.865346" lon="8.678756">
|
|
<ele>-32.445957</ele>
|
|
<time>2026-07-10T10:53:10.000Z</time>
|
|
</trkpt>
|
|
<trkpt lat="54.865367" lon="8.678768">
|
|
<ele>-32.447819</ele>
|
|
<time>2026-07-10T10:53:11.000Z</time>
|
|
</trkpt>
|
|
<trkpt lat="54.865391" lon="8.678772">
|
|
<ele>-32.449850</ele>
|
|
<time>2026-07-10T10:53:12.000Z</time>
|
|
</trkpt>
|
|
<trkpt lat="54.865418" lon="8.678767">
|
|
<ele>-32.452137</ele>
|
|
<time>2026-07-10T10:53:13.000Z</time>
|
|
</trkpt>
|
|
<trkpt lat="54.865447" lon="8.678757">
|
|
<ele>-32.454627</ele>
|
|
<time>2026-07-10T10:53:14.000Z</time>
|
|
</trkpt>
|
|
<trkpt lat="54.865482" lon="8.678750">
|
|
<ele>-32.457595</ele>
|
|
<time>2026-07-10T10:53:15.000Z</time>
|
|
</trkpt>
|
|
<trkpt lat="54.865520" lon="8.678747">
|
|
<ele>-32.460799</ele>
|
|
<time>2026-07-10T10:53:16.000Z</time>
|
|
</trkpt>
|
|
<trkpt lat="54.865557" lon="8.678752">
|
|
<ele>-32.463925</ele>
|
|
<time>2026-07-10T10:53:17.000Z</time>
|
|
</trkpt>
|
|
<trkpt lat="54.865598" lon="8.678762">
|
|
<ele>-32.467412</ele>
|
|
<time>2026-07-10T10:53:18.000Z</time>
|
|
</trkpt>
|
|
<trkpt lat="54.865639" lon="8.678772">
|
|
<ele>-32.470900</ele>
|
|
<time>2026-07-10T10:53:19.000Z</time>
|
|
</trkpt>
|
|
<trkpt lat="54.865678" lon="8.678787">
|
|
<ele>-32.474264</ele>
|
|
<time>2026-07-10T10:53:20.000Z</time>
|
|
</trkpt>
|
|
<trkpt lat="54.865720" lon="8.678807">
|
|
<ele>-32.477932</ele>
|
|
<time>2026-07-10T10:53:21.000Z</time>
|
|
</trkpt>
|
|
<trkpt lat="54.865760" lon="8.678828">
|
|
<ele>-32.481452</ele>
|
|
<time>2026-07-10T10:53:22.000Z</time>
|
|
</trkpt>
|
|
<trkpt lat="54.865799" lon="8.678850">
|
|
<ele>-32.484906</ele>
|
|
<time>2026-07-10T10:53:23.000Z</time>
|
|
</trkpt>
|
|
<trkpt lat="54.865846" lon="8.678875">
|
|
<ele>-32.489046</ele>
|
|
<time>2026-07-10T10:53:24.000Z</time>
|
|
</trkpt>
|
|
<trkpt lat="54.865888" lon="8.678898">
|
|
<ele>-32.492755</ele>
|
|
<time>2026-07-10T10:53:25.000Z</time>
|
|
</trkpt>
|
|
<trkpt lat="54.865931" lon="8.678920">
|
|
<ele>-32.496531</ele>
|
|
<time>2026-07-10T10:53:26.000Z</time>
|
|
</trkpt>
|
|
<trkpt lat="54.865977" lon="8.678945">
|
|
<ele>-32.500591</ele>
|
|
<time>2026-07-10T10:53:27.000Z</time>
|
|
</trkpt>
|
|
<trkpt lat="54.866028" lon="8.678974">
|
|
<ele>-32.505111</ele>
|
|
<time>2026-07-10T10:53:28.000Z</time>
|
|
</trkpt>
|
|
<trkpt lat="54.866082" lon="8.679000">
|
|
<ele>-32.509830</ele>
|
|
<time>2026-07-10T10:53:29.000Z</time>
|
|
</trkpt>
|
|
<trkpt lat="54.866135" lon="8.679030">
|
|
<ele>-32.514526</ele>
|
|
<time>2026-07-10T10:53:30.000Z</time>
|
|
</trkpt>
|
|
<trkpt lat="54.866188" lon="8.679060">
|
|
<ele>-32.519221</ele>
|
|
<time>2026-07-10T10:53:31.000Z</time>
|
|
</trkpt>
|
|
<trkpt lat="54.866241" lon="8.679087">
|
|
<ele>-32.522621</ele>
|
|
<time>2026-07-10T10:53:32.000Z</time>
|
|
</trkpt>
|
|
<trkpt lat="54.866294" lon="8.679112">
|
|
<ele>-32.526001</ele>
|
|
<time>2026-07-10T10:53:33.000Z</time>
|
|
</trkpt>
|
|
<trkpt lat="54.866347" lon="8.679140">
|
|
<ele>-32.529410</ele>
|
|
<time>2026-07-10T10:53:34.000Z</time>
|
|
</trkpt>
|
|
<trkpt lat="54.866401" lon="8.679170">
|
|
<ele>-32.532899</ele>
|
|
<time>2026-07-10T10:53:35.000Z</time>
|
|
</trkpt>
|
|
<trkpt lat="54.866452" lon="8.679199">
|
|
<ele>-32.536202</ele>
|
|
<time>2026-07-10T10:53:36.000Z</time>
|
|
</trkpt>
|
|
<trkpt lat="54.866509" lon="8.679232">
|
|
<ele>-32.539899</ele>
|
|
<time>2026-07-10T10:53:37.000Z</time>
|
|
</trkpt>
|
|
<trkpt lat="54.866571" lon="8.679267">
|
|
<ele>-32.543911</ele>
|
|
<time>2026-07-10T10:53:38.000Z</time>
|
|
</trkpt>
|
|
<trkpt lat="54.866627" lon="8.679297">
|
|
<ele>-32.547518</ele>
|
|
<time>2026-07-10T10:53:39.000Z</time>
|
|
</trkpt>
|
|
<trkpt lat="54.866683" lon="8.679323">
|
|
<ele>-32.551085</ele>
|
|
<time>2026-07-10T10:53:40.000Z</time>
|
|
</trkpt>
|
|
<trkpt lat="54.866736" lon="8.679346">
|
|
<ele>-32.554447</ele>
|
|
<time>2026-07-10T10:53:41.000Z</time>
|
|
</trkpt>
|
|
<trkpt lat="54.866788" lon="8.679367">
|
|
<ele>-32.557733</ele>
|
|
<time>2026-07-10T10:53:42.000Z</time>
|
|
</trkpt>
|
|
<trkpt lat="54.866838" lon="8.679387">
|
|
<ele>-32.560891</ele>
|
|
<time>2026-07-10T10:53:43.000Z</time>
|
|
</trkpt>
|
|
<trkpt lat="54.866891" lon="8.679412">
|
|
<ele>-32.564271</ele>
|
|
<time>2026-07-10T10:53:44.000Z</time>
|
|
</trkpt>
|
|
<trkpt lat="54.866939" lon="8.679435">
|
|
<ele>-32.567335</ele>
|
|
<time>2026-07-10T10:53:45.000Z</time>
|
|
</trkpt>
|
|
<trkpt lat="54.866999" lon="8.679464">
|
|
<ele>-32.571168</ele>
|
|
<time>2026-07-10T10:53:46.000Z</time>
|
|
</trkpt>
|
|
<trkpt lat="54.867056" lon="8.679486">
|
|
<ele>-32.574761</ele>
|
|
<time>2026-07-10T10:53:47.000Z</time>
|
|
</trkpt>
|
|
<trkpt lat="54.867113" lon="8.679509">
|
|
<ele>-32.578363</ele>
|
|
<time>2026-07-10T10:53:48.000Z</time>
|
|
</trkpt>
|
|
<trkpt lat="54.867170" lon="8.679535">
|
|
<ele>-32.581990</ele>
|
|
<time>2026-07-10T10:53:49.000Z</time>
|
|
</trkpt>
|
|
<trkpt lat="54.867230" lon="8.679564">
|
|
<ele>-32.585822</ele>
|
|
<time>2026-07-10T10:53:50.000Z</time>
|
|
</trkpt>
|
|
<trkpt lat="54.867291" lon="8.679594">
|
|
<ele>-32.589724</ele>
|
|
<time>2026-07-10T10:53:51.000Z</time>
|
|
</trkpt>
|
|
<trkpt lat="54.867349" lon="8.679623">
|
|
<ele>-32.593439</ele>
|
|
<time>2026-07-10T10:53:52.000Z</time>
|
|
</trkpt>
|
|
<trkpt lat="54.867411" lon="8.679653">
|
|
<ele>-32.597399</ele>
|
|
<time>2026-07-10T10:53:53.000Z</time>
|
|
</trkpt>
|
|
<trkpt lat="54.867469" lon="8.679678">
|
|
<ele>-32.601077</ele>
|
|
<time>2026-07-10T10:53:54.000Z</time>
|
|
</trkpt>
|
|
<trkpt lat="54.867529" lon="8.679702">
|
|
<ele>-32.604866</ele>
|
|
<time>2026-07-10T10:53:55.000Z</time>
|
|
</trkpt>
|
|
<trkpt lat="54.867587" lon="8.679727">
|
|
<ele>-32.608544</ele>
|
|
<time>2026-07-10T10:53:56.000Z</time>
|
|
</trkpt>
|
|
<trkpt lat="54.867646" lon="8.679752">
|
|
<ele>-32.612282</ele>
|
|
<time>2026-07-10T10:53:57.000Z</time>
|
|
</trkpt>
|
|
<trkpt lat="54.867703" lon="8.679778">
|
|
<ele>-32.615909</ele>
|
|
<time>2026-07-10T10:53:58.000Z</time>
|
|
</trkpt>
|
|
<trkpt lat="54.867763" lon="8.679805">
|
|
<ele>-32.619723</ele>
|
|
<time>2026-07-10T10:53:59.000Z</time>
|
|
</trkpt>
|
|
<trkpt lat="54.867821" lon="8.679834">
|
|
<ele>-32.623437</ele>
|
|
<time>2026-07-10T10:54:00.000Z</time>
|
|
</trkpt>
|
|
<trkpt lat="54.867883" lon="8.679864">
|
|
<ele>-32.627398</ele>
|
|
<time>2026-07-10T10:54:01.000Z</time>
|
|
</trkpt>
|
|
<trkpt lat="54.867941" lon="8.679891">
|
|
<ele>-32.629376</ele>
|
|
<time>2026-07-10T10:54:02.000Z</time>
|
|
</trkpt>
|
|
<trkpt lat="54.868001" lon="8.679919">
|
|
<ele>-32.627604</ele>
|
|
<time>2026-07-10T10:54:03.000Z</time>
|
|
</trkpt>
|
|
<trkpt lat="54.868061" lon="8.679945">
|
|
<ele>-32.625840</ele>
|
|
<time>2026-07-10T10:54:04.000Z</time>
|
|
</trkpt>
|
|
<trkpt lat="54.868121" lon="8.679972">
|
|
<ele>-32.624073</ele>
|
|
<time>2026-07-10T10:54:05.000Z</time>
|
|
</trkpt>
|
|
<trkpt lat="54.868181" lon="8.680002">
|
|
<ele>-32.622292</ele>
|
|
<time>2026-07-10T10:54:06.000Z</time>
|
|
</trkpt>
|
|
<trkpt lat="54.868242" lon="8.680031">
|
|
<ele>-32.620488</ele>
|
|
<time>2026-07-10T10:54:07.000Z</time>
|
|
</trkpt>
|
|
<trkpt lat="54.868302" lon="8.680061">
|
|
<ele>-32.618707</ele>
|
|
<time>2026-07-10T10:54:08.000Z</time>
|
|
</trkpt>
|
|
<trkpt lat="54.868360" lon="8.680088">
|
|
<ele>-32.616994</ele>
|
|
<time>2026-07-10T10:54:09.000Z</time>
|
|
</trkpt>
|
|
<trkpt lat="54.868419" lon="8.680115">
|
|
<ele>-32.615254</ele>
|
|
<time>2026-07-10T10:54:10.000Z</time>
|
|
</trkpt>
|
|
<trkpt lat="54.868477" lon="8.680142">
|
|
<ele>-32.613541</ele>
|
|
<time>2026-07-10T10:54:11.000Z</time>
|
|
</trkpt>
|
|
<trkpt lat="54.868532" lon="8.680170">
|
|
<ele>-32.611906</ele>
|
|
<time>2026-07-10T10:54:12.000Z</time>
|
|
</trkpt>
|
|
<trkpt lat="54.868593" lon="8.680199">
|
|
<ele>-32.610102</ele>
|
|
<time>2026-07-10T10:54:13.000Z</time>
|
|
</trkpt>
|
|
<trkpt lat="54.868655" lon="8.680229">
|
|
<ele>-32.608266</ele>
|
|
<time>2026-07-10T10:54:14.000Z</time>
|
|
</trkpt>
|
|
<trkpt lat="54.868713" lon="8.680258">
|
|
<ele>-32.606545</ele>
|
|
<time>2026-07-10T10:54:15.000Z</time>
|
|
</trkpt>
|
|
<trkpt lat="54.868771" lon="8.680287">
|
|
<ele>-32.604823</ele>
|
|
<time>2026-07-10T10:54:16.000Z</time>
|
|
</trkpt>
|
|
<trkpt lat="54.868830" lon="8.680317">
|
|
<ele>-32.603070</ele>
|
|
<time>2026-07-10T10:54:17.000Z</time>
|
|
</trkpt>
|
|
<trkpt lat="54.868890" lon="8.680345">
|
|
<ele>-32.601297</ele>
|
|
<time>2026-07-10T10:54:18.000Z</time>
|
|
</trkpt>
|
|
<trkpt lat="54.868948" lon="8.680371">
|
|
<ele>-32.599589</ele>
|
|
<time>2026-07-10T10:54:19.000Z</time>
|
|
</trkpt>
|
|
<trkpt lat="54.869008" lon="8.680398">
|
|
<ele>-32.597821</ele>
|
|
<time>2026-07-10T10:54:20.000Z</time>
|
|
</trkpt>
|
|
<trkpt lat="54.869070" lon="8.680426">
|
|
<ele>-32.595994</ele>
|
|
<time>2026-07-10T10:54:21.000Z</time>
|
|
</trkpt>
|
|
<trkpt lat="54.869131" lon="8.680454">
|
|
<ele>-32.594194</ele>
|
|
<time>2026-07-10T10:54:22.000Z</time>
|
|
</trkpt>
|
|
<trkpt lat="54.869190" lon="8.680483">
|
|
<ele>-32.592445</ele>
|
|
<time>2026-07-10T10:54:23.000Z</time>
|
|
</trkpt>
|
|
<trkpt lat="54.869250" lon="8.680514">
|
|
<ele>-32.590659</ele>
|
|
<time>2026-07-10T10:54:24.000Z</time>
|
|
</trkpt>
|
|
<trkpt lat="54.869311" lon="8.680544">
|
|
<ele>-32.588851</ele>
|
|
<time>2026-07-10T10:54:25.000Z</time>
|
|
</trkpt>
|
|
<trkpt lat="54.869372" lon="8.680574">
|
|
<ele>-32.587043</ele>
|
|
<time>2026-07-10T10:54:26.000Z</time>
|
|
</trkpt>
|
|
<trkpt lat="54.869433" lon="8.680603">
|
|
<ele>-32.585239</ele>
|
|
<time>2026-07-10T10:54:27.000Z</time>
|
|
</trkpt>
|
|
<trkpt lat="54.869493" lon="8.680628">
|
|
<ele>-32.583479</ele>
|
|
<time>2026-07-10T10:54:28.000Z</time>
|
|
</trkpt>
|
|
<trkpt lat="54.869552" lon="8.680654">
|
|
<ele>-32.581743</ele>
|
|
<time>2026-07-10T10:54:29.000Z</time>
|
|
</trkpt>
|
|
<trkpt lat="54.869614" lon="8.680683">
|
|
<ele>-32.579911</ele>
|
|
<time>2026-07-10T10:54:30.000Z</time>
|
|
</trkpt>
|
|
<trkpt lat="54.869670" lon="8.680714">
|
|
<ele>-32.578269</ele>
|
|
<time>2026-07-10T10:54:31.000Z</time>
|
|
</trkpt>
|
|
<trkpt lat="54.869728" lon="8.680748">
|
|
<ele>-32.576681</ele>
|
|
<time>2026-07-10T10:54:32.000Z</time>
|
|
</trkpt>
|
|
<trkpt lat="54.869786" lon="8.680783">
|
|
<ele>-32.575087</ele>
|
|
<time>2026-07-10T10:54:33.000Z</time>
|
|
</trkpt>
|
|
<trkpt lat="54.869844" lon="8.680819">
|
|
<ele>-32.573489</ele>
|
|
<time>2026-07-10T10:54:34.000Z</time>
|
|
</trkpt>
|
|
<trkpt lat="54.869901" lon="8.680856">
|
|
<ele>-32.571910</ele>
|
|
<time>2026-07-10T10:54:35.000Z</time>
|
|
</trkpt>
|
|
<trkpt lat="54.869958" lon="8.680895">
|
|
<ele>-32.570321</ele>
|
|
<time>2026-07-10T10:54:36.000Z</time>
|
|
</trkpt>
|
|
<trkpt lat="54.870011" lon="8.680932">
|
|
<ele>-32.568839</ele>
|
|
<time>2026-07-10T10:54:37.000Z</time>
|
|
</trkpt>
|
|
<trkpt lat="54.870067" lon="8.680970">
|
|
<ele>-32.567279</ele>
|
|
<time>2026-07-10T10:54:38.000Z</time>
|
|
</trkpt>
|
|
<trkpt lat="54.870125" lon="8.681008">
|
|
<ele>-32.565670</ele>
|
|
<time>2026-07-10T10:54:39.000Z</time>
|
|
</trkpt>
|
|
<trkpt lat="54.870183" lon="8.681046">
|
|
<ele>-32.564062</ele>
|
|
<time>2026-07-10T10:54:40.000Z</time>
|
|
</trkpt>
|
|
<trkpt lat="54.870239" lon="8.681084">
|
|
<ele>-32.562502</ele>
|
|
<time>2026-07-10T10:54:41.000Z</time>
|
|
</trkpt>
|
|
<trkpt lat="54.870293" lon="8.681124">
|
|
<ele>-32.560979</ele>
|
|
<time>2026-07-10T10:54:42.000Z</time>
|
|
</trkpt>
|
|
<trkpt lat="54.870350" lon="8.681164">
|
|
<ele>-32.559384</ele>
|
|
<time>2026-07-10T10:54:43.000Z</time>
|
|
</trkpt>
|
|
<trkpt lat="54.870402" lon="8.681196">
|
|
<ele>-32.557952</ele>
|
|
<time>2026-07-10T10:54:44.000Z</time>
|
|
</trkpt>
|
|
<trkpt lat="54.870451" lon="8.681225">
|
|
<ele>-32.556609</ele>
|
|
<time>2026-07-10T10:54:45.000Z</time>
|
|
</trkpt>
|
|
<trkpt lat="54.870507" lon="8.681260">
|
|
<ele>-32.555065</ele>
|
|
<time>2026-07-10T10:54:46.000Z</time>
|
|
</trkpt>
|
|
<trkpt lat="54.870562" lon="8.681300">
|
|
<ele>-32.553518</ele>
|
|
<time>2026-07-10T10:54:47.000Z</time>
|
|
</trkpt>
|
|
<trkpt lat="54.870615" lon="8.681339">
|
|
<ele>-32.552024</ele>
|
|
<time>2026-07-10T10:54:48.000Z</time>
|
|
</trkpt>
|
|
<trkpt lat="54.870671" lon="8.681379">
|
|
<ele>-32.550453</ele>
|
|
<time>2026-07-10T10:54:49.000Z</time>
|
|
</trkpt>
|
|
<trkpt lat="54.870728" lon="8.681419">
|
|
<ele>-32.548858</ele>
|
|
<time>2026-07-10T10:54:50.000Z</time>
|
|
</trkpt>
|
|
<trkpt lat="54.870791" lon="8.681459">
|
|
<ele>-32.547118</ele>
|
|
<time>2026-07-10T10:54:51.000Z</time>
|
|
</trkpt>
|
|
<trkpt lat="54.870850" lon="8.681498">
|
|
<ele>-32.545480</ele>
|
|
<time>2026-07-10T10:54:52.000Z</time>
|
|
</trkpt>
|
|
<trkpt lat="54.870908" lon="8.681536">
|
|
<ele>-32.543871</ele>
|
|
<time>2026-07-10T10:54:53.000Z</time>
|
|
</trkpt>
|
|
<trkpt lat="54.870965" lon="8.681571">
|
|
<ele>-32.542302</ele>
|
|
<time>2026-07-10T10:54:54.000Z</time>
|
|
</trkpt>
|
|
<trkpt lat="54.871024" lon="8.681611">
|
|
<ele>-32.540659</ele>
|
|
<time>2026-07-10T10:54:55.000Z</time>
|
|
</trkpt>
|
|
<trkpt lat="54.871079" lon="8.681646">
|
|
<ele>-32.539139</ele>
|
|
<time>2026-07-10T10:54:56.000Z</time>
|
|
</trkpt>
|
|
<trkpt lat="54.871136" lon="8.681679">
|
|
<ele>-32.537580</ele>
|
|
<time>2026-07-10T10:54:57.000Z</time>
|
|
</trkpt>
|
|
<trkpt lat="54.871192" lon="8.681715">
|
|
<ele>-32.536031</ele>
|
|
<time>2026-07-10T10:54:58.000Z</time>
|
|
</trkpt>
|
|
<trkpt lat="54.871250" lon="8.681751">
|
|
<ele>-32.534433</ele>
|
|
<time>2026-07-10T10:54:59.000Z</time>
|
|
</trkpt>
|
|
<trkpt lat="54.871308" lon="8.681787">
|
|
<ele>-32.532835</ele>
|
|
<time>2026-07-10T10:55:00.000Z</time>
|
|
</trkpt>
|
|
<trkpt lat="54.871366" lon="8.681821">
|
|
<ele>-32.534846</ele>
|
|
<time>2026-07-10T10:55:01.000Z</time>
|
|
</trkpt>
|
|
<trkpt lat="54.871425" lon="8.681854">
|
|
<ele>-32.541556</ele>
|
|
<time>2026-07-10T10:55:02.000Z</time>
|
|
</trkpt>
|
|
<trkpt lat="54.871488" lon="8.681884">
|
|
<ele>-32.548628</ele>
|
|
<time>2026-07-10T10:55:03.000Z</time>
|
|
</trkpt>
|
|
<trkpt lat="54.871550" lon="8.681915">
|
|
<ele>-32.555613</ele>
|
|
<time>2026-07-10T10:55:04.000Z</time>
|
|
</trkpt>
|
|
<trkpt lat="54.871609" lon="8.681947">
|
|
<ele>-32.562305</ele>
|
|
<time>2026-07-10T10:55:05.000Z</time>
|
|
</trkpt>
|
|
<trkpt lat="54.871674" lon="8.681986">
|
|
<ele>-32.569750</ele>
|
|
<time>2026-07-10T10:55:06.000Z</time>
|
|
</trkpt>
|
|
<trkpt lat="54.871733" lon="8.682023">
|
|
<ele>-32.576541</ele>
|
|
<time>2026-07-10T10:55:07.000Z</time>
|
|
</trkpt>
|
|
<trkpt lat="54.871793" lon="8.682055">
|
|
<ele>-32.583336</ele>
|
|
<time>2026-07-10T10:55:08.000Z</time>
|
|
</trkpt>
|
|
<trkpt lat="54.871854" lon="8.682085">
|
|
<ele>-32.590200</ele>
|
|
<time>2026-07-10T10:55:09.000Z</time>
|
|
</trkpt>
|
|
<trkpt lat="54.871917" lon="8.682115">
|
|
<ele>-32.597273</ele>
|
|
<time>2026-07-10T10:55:10.000Z</time>
|
|
</trkpt>
|
|
<trkpt lat="54.871974" lon="8.682141">
|
|
<ele>-32.603653</ele>
|
|
<time>2026-07-10T10:55:11.000Z</time>
|
|
</trkpt>
|
|
<trkpt lat="54.872025" lon="8.682165">
|
|
<ele>-32.609373</ele>
|
|
<time>2026-07-10T10:55:12.000Z</time>
|
|
</trkpt>
|
|
<trkpt lat="54.872092" lon="8.682196">
|
|
<ele>-32.616880</ele>
|
|
<time>2026-07-10T10:55:13.000Z</time>
|
|
</trkpt>
|
|
<trkpt lat="54.872152" lon="8.682221">
|
|
<ele>-32.623560</ele>
|
|
<time>2026-07-10T10:55:14.000Z</time>
|
|
</trkpt>
|
|
<trkpt lat="54.872212" lon="8.682244">
|
|
<ele>-32.630213</ele>
|
|
<time>2026-07-10T10:55:15.000Z</time>
|
|
</trkpt>
|
|
<trkpt lat="54.872274" lon="8.682265">
|
|
<ele>-32.637052</ele>
|
|
<time>2026-07-10T10:55:16.000Z</time>
|
|
</trkpt>
|
|
<trkpt lat="54.872335" lon="8.682288">
|
|
<ele>-32.643810</ele>
|
|
<time>2026-07-10T10:55:17.000Z</time>
|
|
</trkpt>
|
|
<trkpt lat="54.872400" lon="8.682311">
|
|
<ele>-32.650992</ele>
|
|
<time>2026-07-10T10:55:18.000Z</time>
|
|
</trkpt>
|
|
<trkpt lat="54.872461" lon="8.682333">
|
|
<ele>-32.657737</ele>
|
|
<time>2026-07-10T10:55:19.000Z</time>
|
|
</trkpt>
|
|
<trkpt lat="54.872522" lon="8.682356">
|
|
<ele>-32.664495</ele>
|
|
<time>2026-07-10T10:55:20.000Z</time>
|
|
</trkpt>
|
|
<trkpt lat="54.872582" lon="8.682377">
|
|
<ele>-32.671121</ele>
|
|
<time>2026-07-10T10:55:21.000Z</time>
|
|
</trkpt>
|
|
<trkpt lat="54.872642" lon="8.682397">
|
|
<ele>-32.677736</ele>
|
|
<time>2026-07-10T10:55:22.000Z</time>
|
|
</trkpt>
|
|
<trkpt lat="54.872706" lon="8.682416">
|
|
<ele>-32.684765</ele>
|
|
<time>2026-07-10T10:55:23.000Z</time>
|
|
</trkpt>
|
|
<trkpt lat="54.872767" lon="8.682435">
|
|
<ele>-32.691475</ele>
|
|
<time>2026-07-10T10:55:24.000Z</time>
|
|
</trkpt>
|
|
<trkpt lat="54.872831" lon="8.682456">
|
|
<ele>-32.698527</ele>
|
|
<time>2026-07-10T10:55:25.000Z</time>
|
|
</trkpt>
|
|
<trkpt lat="54.872893" lon="8.682476">
|
|
<ele>-32.705354</ele>
|
|
<time>2026-07-10T10:55:26.000Z</time>
|
|
</trkpt>
|
|
<trkpt lat="54.872954" lon="8.682496">
|
|
<ele>-32.712075</ele>
|
|
<time>2026-07-10T10:55:27.000Z</time>
|
|
</trkpt>
|
|
<trkpt lat="54.873014" lon="8.682513">
|
|
<ele>-32.718657</ele>
|
|
<time>2026-07-10T10:55:28.000Z</time>
|
|
</trkpt>
|
|
<trkpt lat="54.873076" lon="8.682529">
|
|
<ele>-32.725443</ele>
|
|
<time>2026-07-10T10:55:29.000Z</time>
|
|
</trkpt>
|
|
<trkpt lat="54.873141" lon="8.682547">
|
|
<ele>-32.726231</ele>
|
|
<time>2026-07-10T10:55:30.000Z</time>
|
|
</trkpt>
|
|
<trkpt lat="54.873201" lon="8.682565">
|
|
<ele>-32.725730</ele>
|
|
<time>2026-07-10T10:55:31.000Z</time>
|
|
</trkpt>
|
|
<trkpt lat="54.873262" lon="8.682583">
|
|
<ele>-32.725221</ele>
|
|
<time>2026-07-10T10:55:32.000Z</time>
|
|
</trkpt>
|
|
<trkpt lat="54.873322" lon="8.682601">
|
|
<ele>-32.724719</ele>
|
|
<time>2026-07-10T10:55:33.000Z</time>
|
|
</trkpt>
|
|
<trkpt lat="54.873383" lon="8.682617">
|
|
<ele>-32.724211</ele>
|
|
<time>2026-07-10T10:55:34.000Z</time>
|
|
</trkpt>
|
|
<trkpt lat="54.873444" lon="8.682634">
|
|
<ele>-32.723702</ele>
|
|
<time>2026-07-10T10:55:35.000Z</time>
|
|
</trkpt>
|
|
<trkpt lat="54.873510" lon="8.682651">
|
|
<ele>-32.723153</ele>
|
|
<time>2026-07-10T10:55:36.000Z</time>
|
|
</trkpt>
|
|
<trkpt lat="54.873569" lon="8.682667">
|
|
<ele>-32.722661</ele>
|
|
<time>2026-07-10T10:55:37.000Z</time>
|
|
</trkpt>
|
|
<trkpt lat="54.873632" lon="8.682683">
|
|
<ele>-32.722137</ele>
|
|
<time>2026-07-10T10:55:38.000Z</time>
|
|
</trkpt>
|
|
<trkpt lat="54.873693" lon="8.682700">
|
|
<ele>-32.721628</ele>
|
|
<time>2026-07-10T10:55:39.000Z</time>
|
|
</trkpt>
|
|
<trkpt lat="54.873754" lon="8.682715">
|
|
<ele>-32.721121</ele>
|
|
<time>2026-07-10T10:55:40.000Z</time>
|
|
</trkpt>
|
|
<trkpt lat="54.873810" lon="8.682729">
|
|
<ele>-32.720655</ele>
|
|
<time>2026-07-10T10:55:41.000Z</time>
|
|
</trkpt>
|
|
<trkpt lat="54.873864" lon="8.682742">
|
|
<ele>-32.720206</ele>
|
|
<time>2026-07-10T10:55:42.000Z</time>
|
|
</trkpt>
|
|
<trkpt lat="54.873917" lon="8.682759">
|
|
<ele>-32.719762</ele>
|
|
<time>2026-07-10T10:55:43.000Z</time>
|
|
</trkpt>
|
|
<trkpt lat="54.873976" lon="8.682774">
|
|
<ele>-32.719271</ele>
|
|
<time>2026-07-10T10:55:44.000Z</time>
|
|
</trkpt>
|
|
<trkpt lat="54.874026" lon="8.682787">
|
|
<ele>-32.718855</ele>
|
|
<time>2026-07-10T10:55:45.000Z</time>
|
|
</trkpt>
|
|
<trkpt lat="54.874081" lon="8.682802">
|
|
<ele>-32.718397</ele>
|
|
<time>2026-07-10T10:55:46.000Z</time>
|
|
</trkpt>
|
|
<trkpt lat="54.874133" lon="8.682816">
|
|
<ele>-32.717963</ele>
|
|
<time>2026-07-10T10:55:47.000Z</time>
|
|
</trkpt>
|
|
<trkpt lat="54.874183" lon="8.682830">
|
|
<ele>-32.717546</ele>
|
|
<time>2026-07-10T10:55:48.000Z</time>
|
|
</trkpt>
|
|
<trkpt lat="54.874235" lon="8.682845">
|
|
<ele>-32.717112</ele>
|
|
<time>2026-07-10T10:55:49.000Z</time>
|
|
</trkpt>
|
|
<trkpt lat="54.874296" lon="8.682861">
|
|
<ele>-32.716604</ele>
|
|
<time>2026-07-10T10:55:50.000Z</time>
|
|
</trkpt>
|
|
<trkpt lat="54.874353" lon="8.682874">
|
|
<ele>-32.716131</ele>
|
|
<time>2026-07-10T10:55:51.000Z</time>
|
|
</trkpt>
|
|
<trkpt lat="54.874409" lon="8.682889">
|
|
<ele>-32.715664</ele>
|
|
<time>2026-07-10T10:55:52.000Z</time>
|
|
</trkpt>
|
|
<trkpt lat="54.874469" lon="8.682905">
|
|
<ele>-32.715164</ele>
|
|
<time>2026-07-10T10:55:53.000Z</time>
|
|
</trkpt>
|
|
<trkpt lat="54.874527" lon="8.682919">
|
|
<ele>-32.714682</ele>
|
|
<time>2026-07-10T10:55:54.000Z</time>
|
|
</trkpt>
|
|
<trkpt lat="54.874587" lon="8.682935">
|
|
<ele>-32.714182</ele>
|
|
<time>2026-07-10T10:55:55.000Z</time>
|
|
</trkpt>
|
|
<trkpt lat="54.874645" lon="8.682952">
|
|
<ele>-32.713698</ele>
|
|
<time>2026-07-10T10:55:56.000Z</time>
|
|
</trkpt>
|
|
<trkpt lat="54.874700" lon="8.682972">
|
|
<ele>-32.713235</ele>
|
|
<time>2026-07-10T10:55:57.000Z</time>
|
|
</trkpt>
|
|
<trkpt lat="54.874758" lon="8.682990">
|
|
<ele>-32.712750</ele>
|
|
<time>2026-07-10T10:55:58.000Z</time>
|
|
</trkpt>
|
|
<trkpt lat="54.874816" lon="8.683002">
|
|
<ele>-32.712269</ele>
|
|
<time>2026-07-10T10:55:59.000Z</time>
|
|
</trkpt>
|
|
<trkpt lat="54.874877" lon="8.683012">
|
|
<ele>-32.713541</ele>
|
|
<time>2026-07-10T10:56:00.000Z</time>
|
|
</trkpt>
|
|
<trkpt lat="54.874937" lon="8.683016">
|
|
<ele>-32.721517</ele>
|
|
<time>2026-07-10T10:56:01.000Z</time>
|
|
</trkpt>
|
|
<trkpt lat="54.874994" lon="8.683019">
|
|
<ele>-32.729091</ele>
|
|
<time>2026-07-10T10:56:02.000Z</time>
|
|
</trkpt>
|
|
<trkpt lat="54.875052" lon="8.683016">
|
|
<ele>-32.736798</ele>
|
|
<time>2026-07-10T10:56:03.000Z</time>
|
|
</trkpt>
|
|
<trkpt lat="54.875111" lon="8.683009">
|
|
<ele>-32.744653</ele>
|
|
<time>2026-07-10T10:56:04.000Z</time>
|
|
</trkpt>
|
|
<trkpt lat="54.875176" lon="8.683008">
|
|
<ele>-32.753287</ele>
|
|
<time>2026-07-10T10:56:05.000Z</time>
|
|
</trkpt>
|
|
<trkpt lat="54.875234" lon="8.683001">
|
|
<ele>-32.761009</ele>
|
|
<time>2026-07-10T10:56:06.000Z</time>
|
|
</trkpt>
|
|
<trkpt lat="54.875292" lon="8.682990">
|
|
<ele>-32.768759</ele>
|
|
<time>2026-07-10T10:56:07.000Z</time>
|
|
</trkpt>
|
|
<trkpt lat="54.875352" lon="8.682977">
|
|
<ele>-32.776790</ele>
|
|
<time>2026-07-10T10:56:08.000Z</time>
|
|
</trkpt>
|
|
<trkpt lat="54.875413" lon="8.682960">
|
|
<ele>-32.784996</ele>
|
|
<time>2026-07-10T10:56:09.000Z</time>
|
|
</trkpt>
|
|
<trkpt lat="54.875473" lon="8.682938">
|
|
<ele>-32.793140</ele>
|
|
<time>2026-07-10T10:56:10.000Z</time>
|
|
</trkpt>
|
|
<trkpt lat="54.875530" lon="8.682913">
|
|
<ele>-32.800949</ele>
|
|
<time>2026-07-10T10:56:11.000Z</time>
|
|
</trkpt>
|
|
<trkpt lat="54.875592" lon="8.682880">
|
|
<ele>-32.809561</ele>
|
|
<time>2026-07-10T10:56:12.000Z</time>
|
|
</trkpt>
|
|
<trkpt lat="54.875648" lon="8.682845">
|
|
<ele>-32.817466</ele>
|
|
<time>2026-07-10T10:56:13.000Z</time>
|
|
</trkpt>
|
|
<trkpt lat="54.875706" lon="8.682809">
|
|
<ele>-32.825646</ele>
|
|
<time>2026-07-10T10:56:14.000Z</time>
|
|
</trkpt>
|
|
<trkpt lat="54.875760" lon="8.682774">
|
|
<ele>-32.833301</ele>
|
|
<time>2026-07-10T10:56:15.000Z</time>
|
|
</trkpt>
|
|
<trkpt lat="54.875826" lon="8.682732">
|
|
<ele>-32.842636</ele>
|
|
<time>2026-07-10T10:56:16.000Z</time>
|
|
</trkpt>
|
|
<trkpt lat="54.875883" lon="8.682696">
|
|
<ele>-32.850692</ele>
|
|
<time>2026-07-10T10:56:17.000Z</time>
|
|
</trkpt>
|
|
<trkpt lat="54.875939" lon="8.682658">
|
|
<ele>-32.858677</ele>
|
|
<time>2026-07-10T10:56:18.000Z</time>
|
|
</trkpt>
|
|
<trkpt lat="54.875997" lon="8.682618">
|
|
<ele>-32.866965</ele>
|
|
<time>2026-07-10T10:56:19.000Z</time>
|
|
</trkpt>
|
|
<trkpt lat="54.876055" lon="8.682577">
|
|
<ele>-32.875281</ele>
|
|
<time>2026-07-10T10:56:20.000Z</time>
|
|
</trkpt>
|
|
<trkpt lat="54.876113" lon="8.682536">
|
|
<ele>-32.883598</ele>
|
|
<time>2026-07-10T10:56:21.000Z</time>
|
|
</trkpt>
|
|
<trkpt lat="54.876171" lon="8.682496">
|
|
<ele>-32.891886</ele>
|
|
<time>2026-07-10T10:56:22.000Z</time>
|
|
</trkpt>
|
|
<trkpt lat="54.876225" lon="8.682458">
|
|
<ele>-32.899624</ele>
|
|
<time>2026-07-10T10:56:23.000Z</time>
|
|
</trkpt>
|
|
<trkpt lat="54.876283" lon="8.682415">
|
|
<ele>-32.907999</ele>
|
|
<time>2026-07-10T10:56:24.000Z</time>
|
|
</trkpt>
|
|
<trkpt lat="54.876346" lon="8.682373">
|
|
<ele>-32.916961</ele>
|
|
<time>2026-07-10T10:56:25.000Z</time>
|
|
</trkpt>
|
|
<trkpt lat="54.876405" lon="8.682332">
|
|
<ele>-32.925401</ele>
|
|
<time>2026-07-10T10:56:26.000Z</time>
|
|
</trkpt>
|
|
<trkpt lat="54.876463" lon="8.682293">
|
|
<ele>-32.933661</ele>
|
|
<time>2026-07-10T10:56:27.000Z</time>
|
|
</trkpt>
|
|
<trkpt lat="54.876524" lon="8.682257">
|
|
<ele>-32.942218</ele>
|
|
<time>2026-07-10T10:56:28.000Z</time>
|
|
</trkpt>
|
|
<trkpt lat="54.876588" lon="8.682223">
|
|
<ele>-32.950681</ele>
|
|
<time>2026-07-10T10:56:29.000Z</time>
|
|
</trkpt>
|
|
<trkpt lat="54.876646" lon="8.682194">
|
|
<ele>-32.948536</ele>
|
|
<time>2026-07-10T10:56:30.000Z</time>
|
|
</trkpt>
|
|
<trkpt lat="54.876705" lon="8.682164">
|
|
<ele>-32.946352</ele>
|
|
<time>2026-07-10T10:56:31.000Z</time>
|
|
</trkpt>
|
|
<trkpt lat="54.876761" lon="8.682135">
|
|
<ele>-32.944275</ele>
|
|
<time>2026-07-10T10:56:32.000Z</time>
|
|
</trkpt>
|
|
<trkpt lat="54.876825" lon="8.682102">
|
|
<ele>-32.941903</ele>
|
|
<time>2026-07-10T10:56:33.000Z</time>
|
|
</trkpt>
|
|
<trkpt lat="54.876885" lon="8.682073">
|
|
<ele>-32.939690</ele>
|
|
<time>2026-07-10T10:56:34.000Z</time>
|
|
</trkpt>
|
|
<trkpt lat="54.876944" lon="8.682043">
|
|
<ele>-32.937506</ele>
|
|
<time>2026-07-10T10:56:35.000Z</time>
|
|
</trkpt>
|
|
<trkpt lat="54.877003" lon="8.682015">
|
|
<ele>-32.935333</ele>
|
|
<time>2026-07-10T10:56:36.000Z</time>
|
|
</trkpt>
|
|
<trkpt lat="54.877063" lon="8.681989">
|
|
<ele>-32.933136</ele>
|
|
<time>2026-07-10T10:56:37.000Z</time>
|
|
</trkpt>
|
|
<trkpt lat="54.877122" lon="8.681965">
|
|
<ele>-32.930982</ele>
|
|
<time>2026-07-10T10:56:38.000Z</time>
|
|
</trkpt>
|
|
<trkpt lat="54.877184" lon="8.681942">
|
|
<ele>-32.928730</ele>
|
|
<time>2026-07-10T10:56:39.000Z</time>
|
|
</trkpt>
|
|
<trkpt lat="54.877244" lon="8.681921">
|
|
<ele>-32.926555</ele>
|
|
<time>2026-07-10T10:56:40.000Z</time>
|
|
</trkpt>
|
|
<trkpt lat="54.877302" lon="8.681901">
|
|
<ele>-32.924454</ele>
|
|
<time>2026-07-10T10:56:41.000Z</time>
|
|
</trkpt>
|
|
<trkpt lat="54.877363" lon="8.681881">
|
|
<ele>-32.922248</ele>
|
|
<time>2026-07-10T10:56:42.000Z</time>
|
|
</trkpt>
|
|
<trkpt lat="54.877420" lon="8.681863">
|
|
<ele>-32.920190</ele>
|
|
<time>2026-07-10T10:56:43.000Z</time>
|
|
</trkpt>
|
|
<trkpt lat="54.877481" lon="8.681844">
|
|
<ele>-32.917988</ele>
|
|
<time>2026-07-10T10:56:44.000Z</time>
|
|
</trkpt>
|
|
<trkpt lat="54.877543" lon="8.681827">
|
|
<ele>-32.915757</ele>
|
|
<time>2026-07-10T10:56:45.000Z</time>
|
|
</trkpt>
|
|
<trkpt lat="54.877602" lon="8.681813">
|
|
<ele>-32.913641</ele>
|
|
<time>2026-07-10T10:56:46.000Z</time>
|
|
</trkpt>
|
|
<trkpt lat="54.877658" lon="8.681801">
|
|
<ele>-32.911636</ele>
|
|
<time>2026-07-10T10:56:47.000Z</time>
|
|
</trkpt>
|
|
<trkpt lat="54.877726" lon="8.681786">
|
|
<ele>-32.909201</ele>
|
|
<time>2026-07-10T10:56:48.000Z</time>
|
|
</trkpt>
|
|
<trkpt lat="54.877786" lon="8.681774">
|
|
<ele>-32.907055</ele>
|
|
<time>2026-07-10T10:56:49.000Z</time>
|
|
</trkpt>
|
|
<trkpt lat="54.877845" lon="8.681762">
|
|
<ele>-32.904944</ele>
|
|
<time>2026-07-10T10:56:50.000Z</time>
|
|
</trkpt>
|
|
<trkpt lat="54.877908" lon="8.681752">
|
|
<ele>-32.902696</ele>
|
|
<time>2026-07-10T10:56:51.000Z</time>
|
|
</trkpt>
|
|
<trkpt lat="54.877967" lon="8.681741">
|
|
<ele>-32.900587</ele>
|
|
<time>2026-07-10T10:56:52.000Z</time>
|
|
</trkpt>
|
|
<trkpt lat="54.878028" lon="8.681729">
|
|
<ele>-32.898406</ele>
|
|
<time>2026-07-10T10:56:53.000Z</time>
|
|
</trkpt>
|
|
<trkpt lat="54.878090" lon="8.681720">
|
|
<ele>-32.896195</ele>
|
|
<time>2026-07-10T10:56:54.000Z</time>
|
|
</trkpt>
|
|
<trkpt lat="54.878153" lon="8.681714">
|
|
<ele>-32.893953</ele>
|
|
<time>2026-07-10T10:56:55.000Z</time>
|
|
</trkpt>
|
|
<trkpt lat="54.878211" lon="8.681710">
|
|
<ele>-32.891891</ele>
|
|
<time>2026-07-10T10:56:56.000Z</time>
|
|
</trkpt>
|
|
<trkpt lat="54.878272" lon="8.681706">
|
|
<ele>-32.889722</ele>
|
|
<time>2026-07-10T10:56:57.000Z</time>
|
|
</trkpt>
|
|
<trkpt lat="54.878338" lon="8.681702">
|
|
<ele>-32.887375</ele>
|
|
<time>2026-07-10T10:56:58.000Z</time>
|
|
</trkpt>
|
|
<trkpt lat="54.878402" lon="8.681700">
|
|
<ele>-32.877694</ele>
|
|
<time>2026-07-10T10:56:59.000Z</time>
|
|
</trkpt>
|
|
<trkpt lat="54.878466" lon="8.681700">
|
|
<ele>-32.865839</ele>
|
|
<time>2026-07-10T10:57:00.000Z</time>
|
|
</trkpt>
|
|
<trkpt lat="54.878527" lon="8.681700">
|
|
<ele>-32.854539</ele>
|
|
<time>2026-07-10T10:57:01.000Z</time>
|
|
</trkpt>
|
|
<trkpt lat="54.878588" lon="8.681702">
|
|
<ele>-32.843238</ele>
|
|
<time>2026-07-10T10:57:02.000Z</time>
|
|
</trkpt>
|
|
<trkpt lat="54.878649" lon="8.681703">
|
|
<ele>-32.831938</ele>
|
|
<time>2026-07-10T10:57:03.000Z</time>
|
|
</trkpt>
|
|
<trkpt lat="54.878712" lon="8.681706">
|
|
<ele>-32.820263</ele>
|
|
<time>2026-07-10T10:57:04.000Z</time>
|
|
</trkpt>
|
|
<trkpt lat="54.878775" lon="8.681710">
|
|
<ele>-32.808586</ele>
|
|
<time>2026-07-10T10:57:05.000Z</time>
|
|
</trkpt>
|
|
<trkpt lat="54.878835" lon="8.681714">
|
|
<ele>-32.797463</ele>
|
|
<time>2026-07-10T10:57:06.000Z</time>
|
|
</trkpt>
|
|
<trkpt lat="54.878898" lon="8.681719">
|
|
<ele>-32.785781</ele>
|
|
<time>2026-07-10T10:57:07.000Z</time>
|
|
</trkpt>
|
|
<trkpt lat="54.878958" lon="8.681726">
|
|
<ele>-32.774642</ele>
|
|
<time>2026-07-10T10:57:08.000Z</time>
|
|
</trkpt>
|
|
<trkpt lat="54.879018" lon="8.681733">
|
|
<ele>-32.763503</ele>
|
|
<time>2026-07-10T10:57:09.000Z</time>
|
|
</trkpt>
|
|
<trkpt lat="54.879077" lon="8.681738">
|
|
<ele>-32.752561</ele>
|
|
<time>2026-07-10T10:57:10.000Z</time>
|
|
</trkpt>
|
|
<trkpt lat="54.879138" lon="8.681742">
|
|
<ele>-32.741253</ele>
|
|
<time>2026-07-10T10:57:11.000Z</time>
|
|
</trkpt>
|
|
<trkpt lat="54.879200" lon="8.681751">
|
|
<ele>-32.729728</ele>
|
|
<time>2026-07-10T10:57:12.000Z</time>
|
|
</trkpt>
|
|
<trkpt lat="54.879263" lon="8.681764">
|
|
<ele>-32.717976</ele>
|
|
<time>2026-07-10T10:57:13.000Z</time>
|
|
</trkpt>
|
|
<trkpt lat="54.879321" lon="8.681780">
|
|
<ele>-32.707098</ele>
|
|
<time>2026-07-10T10:57:14.000Z</time>
|
|
</trkpt>
|
|
<trkpt lat="54.879381" lon="8.681800">
|
|
<ele>-32.695781</ele>
|
|
<time>2026-07-10T10:57:15.000Z</time>
|
|
</trkpt>
|
|
<trkpt lat="54.879441" lon="8.681820">
|
|
<ele>-32.684465</ele>
|
|
<time>2026-07-10T10:57:16.000Z</time>
|
|
</trkpt>
|
|
<trkpt lat="54.879506" lon="8.681839">
|
|
<ele>-32.672255</ele>
|
|
<time>2026-07-10T10:57:17.000Z</time>
|
|
</trkpt>
|
|
<trkpt lat="54.879565" lon="8.681859">
|
|
<ele>-32.661120</ele>
|
|
<time>2026-07-10T10:57:18.000Z</time>
|
|
</trkpt>
|
|
<trkpt lat="54.879626" lon="8.681876">
|
|
<ele>-32.649677</ele>
|
|
<time>2026-07-10T10:57:19.000Z</time>
|
|
</trkpt>
|
|
<trkpt lat="54.879687" lon="8.681893">
|
|
<ele>-32.638233</ele>
|
|
<time>2026-07-10T10:57:20.000Z</time>
|
|
</trkpt>
|
|
<trkpt lat="54.879748" lon="8.681910">
|
|
<ele>-32.626789</ele>
|
|
<time>2026-07-10T10:57:21.000Z</time>
|
|
</trkpt>
|
|
<trkpt lat="54.879809" lon="8.681928">
|
|
<ele>-32.615328</ele>
|
|
<time>2026-07-10T10:57:22.000Z</time>
|
|
</trkpt>
|
|
<trkpt lat="54.879867" lon="8.681947">
|
|
<ele>-32.604395</ele>
|
|
<time>2026-07-10T10:57:23.000Z</time>
|
|
</trkpt>
|
|
<trkpt lat="54.879926" lon="8.681968">
|
|
<ele>-32.593239</ele>
|
|
<time>2026-07-10T10:57:24.000Z</time>
|
|
</trkpt>
|
|
<trkpt lat="54.879988" lon="8.681988">
|
|
<ele>-32.581558</ele>
|
|
<time>2026-07-10T10:57:25.000Z</time>
|
|
</trkpt>
|
|
<trkpt lat="54.880048" lon="8.682009">
|
|
<ele>-32.570221</ele>
|
|
<time>2026-07-10T10:57:26.000Z</time>
|
|
</trkpt>
|
|
<trkpt lat="54.880107" lon="8.682029">
|
|
<ele>-32.559086</ele>
|
|
<time>2026-07-10T10:57:27.000Z</time>
|
|
</trkpt>
|
|
<trkpt lat="54.880167" lon="8.682048">
|
|
<ele>-32.549469</ele>
|
|
<time>2026-07-10T10:57:28.000Z</time>
|
|
</trkpt>
|
|
<trkpt lat="54.880226" lon="8.682066">
|
|
<ele>-32.541537</ele>
|
|
<time>2026-07-10T10:57:29.000Z</time>
|
|
</trkpt>
|
|
<trkpt lat="54.880283" lon="8.682085">
|
|
<ele>-32.533851</ele>
|
|
<time>2026-07-10T10:57:30.000Z</time>
|
|
</trkpt>
|
|
<trkpt lat="54.880344" lon="8.682107">
|
|
<ele>-32.525601</ele>
|
|
<time>2026-07-10T10:57:31.000Z</time>
|
|
</trkpt>
|
|
<trkpt lat="54.880408" lon="8.682132">
|
|
<ele>-32.516915</ele>
|
|
<time>2026-07-10T10:57:32.000Z</time>
|
|
</trkpt>
|
|
<trkpt lat="54.880467" lon="8.682153">
|
|
<ele>-32.508940</ele>
|
|
<time>2026-07-10T10:57:33.000Z</time>
|
|
</trkpt>
|
|
<trkpt lat="54.880523" lon="8.682173">
|
|
<ele>-32.501369</ele>
|
|
<time>2026-07-10T10:57:34.000Z</time>
|
|
</trkpt>
|
|
<trkpt lat="54.880585" lon="8.682194">
|
|
<ele>-32.493004</ele>
|
|
<time>2026-07-10T10:57:35.000Z</time>
|
|
</trkpt>
|
|
<trkpt lat="54.880643" lon="8.682213">
|
|
<ele>-32.485188</ele>
|
|
<time>2026-07-10T10:57:36.000Z</time>
|
|
</trkpt>
|
|
<trkpt lat="54.880705" lon="8.682233">
|
|
<ele>-32.476838</ele>
|
|
<time>2026-07-10T10:57:37.000Z</time>
|
|
</trkpt>
|
|
<trkpt lat="54.880766" lon="8.682250">
|
|
<ele>-32.468657</ele>
|
|
<time>2026-07-10T10:57:38.000Z</time>
|
|
</trkpt>
|
|
<trkpt lat="54.880828" lon="8.682267">
|
|
<ele>-32.460345</ele>
|
|
<time>2026-07-10T10:57:39.000Z</time>
|
|
</trkpt>
|
|
<trkpt lat="54.880889" lon="8.682284">
|
|
<ele>-32.452164</ele>
|
|
<time>2026-07-10T10:57:40.000Z</time>
|
|
</trkpt>
|
|
<trkpt lat="54.880948" lon="8.682302">
|
|
<ele>-32.444231</ele>
|
|
<time>2026-07-10T10:57:41.000Z</time>
|
|
</trkpt>
|
|
<trkpt lat="54.881010" lon="8.682321">
|
|
<ele>-32.435895</ele>
|
|
<time>2026-07-10T10:57:42.000Z</time>
|
|
</trkpt>
|
|
<trkpt lat="54.881068" lon="8.682342">
|
|
<ele>-32.428049</ele>
|
|
<time>2026-07-10T10:57:43.000Z</time>
|
|
</trkpt>
|
|
<trkpt lat="54.881127" lon="8.682362">
|
|
<ele>-32.420089</ele>
|
|
<time>2026-07-10T10:57:44.000Z</time>
|
|
</trkpt>
|
|
<trkpt lat="54.881188" lon="8.682385">
|
|
<ele>-32.411823</ele>
|
|
<time>2026-07-10T10:57:45.000Z</time>
|
|
</trkpt>
|
|
<trkpt lat="54.881252" lon="8.682408">
|
|
<ele>-32.403169</ele>
|
|
<time>2026-07-10T10:57:46.000Z</time>
|
|
</trkpt>
|
|
<trkpt lat="54.881316" lon="8.682426">
|
|
<ele>-32.394583</ele>
|
|
<time>2026-07-10T10:57:47.000Z</time>
|
|
</trkpt>
|
|
<trkpt lat="54.881378" lon="8.682444">
|
|
<ele>-32.386259</ele>
|
|
<time>2026-07-10T10:57:48.000Z</time>
|
|
</trkpt>
|
|
<trkpt lat="54.881437" lon="8.682464">
|
|
<ele>-32.378299</ele>
|
|
<time>2026-07-10T10:57:49.000Z</time>
|
|
</trkpt>
|
|
<trkpt lat="54.881497" lon="8.682483">
|
|
<ele>-32.370223</ele>
|
|
<time>2026-07-10T10:57:50.000Z</time>
|
|
</trkpt>
|
|
<trkpt lat="54.881560" lon="8.682503">
|
|
<ele>-32.361742</ele>
|
|
<time>2026-07-10T10:57:51.000Z</time>
|
|
</trkpt>
|
|
<trkpt lat="54.881619" lon="8.682521">
|
|
<ele>-32.353810</ele>
|
|
<time>2026-07-10T10:57:52.000Z</time>
|
|
</trkpt>
|
|
<trkpt lat="54.881680" lon="8.682539">
|
|
<ele>-32.345616</ele>
|
|
<time>2026-07-10T10:57:53.000Z</time>
|
|
</trkpt>
|
|
<trkpt lat="54.881743" lon="8.682559">
|
|
<ele>-32.337136</ele>
|
|
<time>2026-07-10T10:57:54.000Z</time>
|
|
</trkpt>
|
|
<trkpt lat="54.881807" lon="8.682580">
|
|
<ele>-32.328511</ele>
|
|
<time>2026-07-10T10:57:55.000Z</time>
|
|
</trkpt>
|
|
<trkpt lat="54.881869" lon="8.682599">
|
|
<ele>-32.320174</ele>
|
|
<time>2026-07-10T10:57:56.000Z</time>
|
|
</trkpt>
|
|
<trkpt lat="54.881929" lon="8.682618">
|
|
<ele>-32.319114</ele>
|
|
<time>2026-07-10T10:57:57.000Z</time>
|
|
</trkpt>
|
|
<trkpt lat="54.881990" lon="8.682634">
|
|
<ele>-32.327800</ele>
|
|
<time>2026-07-10T10:57:58.000Z</time>
|
|
</trkpt>
|
|
<trkpt lat="54.882052" lon="8.682648">
|
|
<ele>-32.336604</ele>
|
|
<time>2026-07-10T10:57:59.000Z</time>
|
|
</trkpt>
|
|
<trkpt lat="54.882112" lon="8.682660">
|
|
<ele>-32.345107</ele>
|
|
<time>2026-07-10T10:58:00.000Z</time>
|
|
</trkpt>
|
|
<trkpt lat="54.882175" lon="8.682672">
|
|
<ele>-32.354031</ele>
|
|
<time>2026-07-10T10:58:01.000Z</time>
|
|
</trkpt>
|
|
<trkpt lat="54.882235" lon="8.682681">
|
|
<ele>-32.362511</ele>
|
|
<time>2026-07-10T10:58:02.000Z</time>
|
|
</trkpt>
|
|
<trkpt lat="54.882294" lon="8.682691">
|
|
<ele>-32.370857</ele>
|
|
<time>2026-07-10T10:58:03.000Z</time>
|
|
</trkpt>
|
|
<trkpt lat="54.882356" lon="8.682700">
|
|
<ele>-32.379618</ele>
|
|
<time>2026-07-10T10:58:04.000Z</time>
|
|
</trkpt>
|
|
<trkpt lat="54.882418" lon="8.682706">
|
|
<ele>-32.388361</ele>
|
|
<time>2026-07-10T10:58:05.000Z</time>
|
|
</trkpt>
|
|
<trkpt lat="54.882480" lon="8.682711">
|
|
<ele>-32.397100</ele>
|
|
<time>2026-07-10T10:58:06.000Z</time>
|
|
</trkpt>
|
|
<trkpt lat="54.882543" lon="8.682714">
|
|
<ele>-32.405974</ele>
|
|
<time>2026-07-10T10:58:07.000Z</time>
|
|
</trkpt>
|
|
<trkpt lat="54.882606" lon="8.682715">
|
|
<ele>-32.414845</ele>
|
|
<time>2026-07-10T10:58:08.000Z</time>
|
|
</trkpt>
|
|
<trkpt lat="54.882668" lon="8.682716">
|
|
<ele>-32.423575</ele>
|
|
<time>2026-07-10T10:58:09.000Z</time>
|
|
</trkpt>
|
|
<trkpt lat="54.882731" lon="8.682717">
|
|
<ele>-32.432446</ele>
|
|
<time>2026-07-10T10:58:10.000Z</time>
|
|
</trkpt>
|
|
<trkpt lat="54.882793" lon="8.682720">
|
|
<ele>-32.441179</ele>
|
|
<time>2026-07-10T10:58:11.000Z</time>
|
|
</trkpt>
|
|
<trkpt lat="54.882859" lon="8.682720">
|
|
<ele>-32.450472</ele>
|
|
<time>2026-07-10T10:58:12.000Z</time>
|
|
</trkpt>
|
|
<trkpt lat="54.882918" lon="8.682720">
|
|
<ele>-32.458779</ele>
|
|
<time>2026-07-10T10:58:13.000Z</time>
|
|
</trkpt>
|
|
<trkpt lat="54.882981" lon="8.682718">
|
|
<ele>-32.467651</ele>
|
|
<time>2026-07-10T10:58:14.000Z</time>
|
|
</trkpt>
|
|
<trkpt lat="54.883040" lon="8.682713">
|
|
<ele>-32.475968</ele>
|
|
<time>2026-07-10T10:58:15.000Z</time>
|
|
</trkpt>
|
|
<trkpt lat="54.883104" lon="8.682702">
|
|
<ele>-32.485024</ele>
|
|
<time>2026-07-10T10:58:16.000Z</time>
|
|
</trkpt>
|
|
<trkpt lat="54.883164" lon="8.682690">
|
|
<ele>-32.493528</ele>
|
|
<time>2026-07-10T10:58:17.000Z</time>
|
|
</trkpt>
|
|
<trkpt lat="54.883226" lon="8.682677">
|
|
<ele>-32.502321</ele>
|
|
<time>2026-07-10T10:58:18.000Z</time>
|
|
</trkpt>
|
|
<trkpt lat="54.883284" lon="8.682667">
|
|
<ele>-32.510527</ele>
|
|
<time>2026-07-10T10:58:19.000Z</time>
|
|
</trkpt>
|
|
<trkpt lat="54.883348" lon="8.682659">
|
|
<ele>-32.519562</ele>
|
|
<time>2026-07-10T10:58:20.000Z</time>
|
|
</trkpt>
|
|
<trkpt lat="54.883410" lon="8.682652">
|
|
<ele>-32.528310</ele>
|
|
<time>2026-07-10T10:58:21.000Z</time>
|
|
</trkpt>
|
|
<trkpt lat="54.883471" lon="8.682642">
|
|
<ele>-32.536937</ele>
|
|
<time>2026-07-10T10:58:22.000Z</time>
|
|
</trkpt>
|
|
<trkpt lat="54.883531" lon="8.682630">
|
|
<ele>-32.545441</ele>
|
|
<time>2026-07-10T10:58:23.000Z</time>
|
|
</trkpt>
|
|
<trkpt lat="54.883593" lon="8.682619">
|
|
<ele>-32.554216</ele>
|
|
<time>2026-07-10T10:58:24.000Z</time>
|
|
</trkpt>
|
|
<trkpt lat="54.883654" lon="8.682609">
|
|
<ele>-32.562843</ele>
|
|
<time>2026-07-10T10:58:25.000Z</time>
|
|
</trkpt>
|
|
<trkpt lat="54.883719" lon="8.682600">
|
|
<ele>-32.571171</ele>
|
|
<time>2026-07-10T10:58:26.000Z</time>
|
|
</trkpt>
|
|
<trkpt lat="54.883782" lon="8.682590">
|
|
<ele>-32.577757</ele>
|
|
<time>2026-07-10T10:58:27.000Z</time>
|
|
</trkpt>
|
|
<trkpt lat="54.883841" lon="8.682580">
|
|
<ele>-32.583929</ele>
|
|
<time>2026-07-10T10:58:28.000Z</time>
|
|
</trkpt>
|
|
<trkpt lat="54.883906" lon="8.682573">
|
|
<ele>-32.590708</ele>
|
|
<time>2026-07-10T10:58:29.000Z</time>
|
|
</trkpt>
|
|
<trkpt lat="54.883966" lon="8.682567">
|
|
<ele>-32.596965</ele>
|
|
<time>2026-07-10T10:58:30.000Z</time>
|
|
</trkpt>
|
|
<trkpt lat="54.884026" lon="8.682560">
|
|
<ele>-32.603225</ele>
|
|
<time>2026-07-10T10:58:31.000Z</time>
|
|
</trkpt>
|
|
<trkpt lat="54.884079" lon="8.682552">
|
|
<ele>-32.608764</ele>
|
|
<time>2026-07-10T10:58:32.000Z</time>
|
|
</trkpt>
|
|
<trkpt lat="54.884121" lon="8.682546">
|
|
<ele>-32.613151</ele>
|
|
<time>2026-07-10T10:58:33.000Z</time>
|
|
</trkpt>
|
|
<trkpt lat="54.884207" lon="8.682530">
|
|
<ele>-32.622155</ele>
|
|
<time>2026-07-10T10:58:34.000Z</time>
|
|
</trkpt>
|
|
<trkpt lat="54.884267" lon="8.682519">
|
|
<ele>-32.628436</ele>
|
|
<time>2026-07-10T10:58:35.000Z</time>
|
|
</trkpt>
|
|
<trkpt lat="54.884328" lon="8.682508">
|
|
<ele>-32.634821</ele>
|
|
<time>2026-07-10T10:58:36.000Z</time>
|
|
</trkpt>
|
|
<trkpt lat="54.884388" lon="8.682497">
|
|
<ele>-32.641102</ele>
|
|
<time>2026-07-10T10:58:37.000Z</time>
|
|
</trkpt>
|
|
<trkpt lat="54.884447" lon="8.682479">
|
|
<ele>-32.647338</ele>
|
|
<time>2026-07-10T10:58:38.000Z</time>
|
|
</trkpt>
|
|
<trkpt lat="54.884505" lon="8.682460">
|
|
<ele>-32.653482</ele>
|
|
<time>2026-07-10T10:58:39.000Z</time>
|
|
</trkpt>
|
|
<trkpt lat="54.884564" lon="8.682446">
|
|
<ele>-32.659681</ele>
|
|
<time>2026-07-10T10:58:40.000Z</time>
|
|
</trkpt>
|
|
<trkpt lat="54.884623" lon="8.682439">
|
|
<ele>-32.665838</ele>
|
|
<time>2026-07-10T10:58:41.000Z</time>
|
|
</trkpt>
|
|
<trkpt lat="54.884682" lon="8.682437">
|
|
<ele>-32.671981</ele>
|
|
<time>2026-07-10T10:58:42.000Z</time>
|
|
</trkpt>
|
|
<trkpt lat="54.884741" lon="8.682431">
|
|
<ele>-32.678134</ele>
|
|
<time>2026-07-10T10:58:43.000Z</time>
|
|
</trkpt>
|
|
<trkpt lat="54.884801" lon="8.682422">
|
|
<ele>-32.684403</ele>
|
|
<time>2026-07-10T10:58:44.000Z</time>
|
|
</trkpt>
|
|
<trkpt lat="54.884859" lon="8.682414">
|
|
<ele>-32.690460</ele>
|
|
<time>2026-07-10T10:58:45.000Z</time>
|
|
</trkpt>
|
|
<trkpt lat="54.884919" lon="8.682406">
|
|
<ele>-32.696725</ele>
|
|
<time>2026-07-10T10:58:46.000Z</time>
|
|
</trkpt>
|
|
<trkpt lat="54.884976" lon="8.682398">
|
|
<ele>-32.702678</ele>
|
|
<time>2026-07-10T10:58:47.000Z</time>
|
|
</trkpt>
|
|
<trkpt lat="54.885033" lon="8.682392">
|
|
<ele>-32.708623</ele>
|
|
<time>2026-07-10T10:58:48.000Z</time>
|
|
</trkpt>
|
|
<trkpt lat="54.885088" lon="8.682387">
|
|
<ele>-32.714357</ele>
|
|
<time>2026-07-10T10:58:49.000Z</time>
|
|
</trkpt>
|
|
<trkpt lat="54.885147" lon="8.682379">
|
|
<ele>-32.720518</ele>
|
|
<time>2026-07-10T10:58:50.000Z</time>
|
|
</trkpt>
|
|
<trkpt lat="54.885202" lon="8.682371">
|
|
<ele>-32.726263</ele>
|
|
<time>2026-07-10T10:58:51.000Z</time>
|
|
</trkpt>
|
|
<trkpt lat="54.885259" lon="8.682358">
|
|
<ele>-32.732248</ele>
|
|
<time>2026-07-10T10:58:52.000Z</time>
|
|
</trkpt>
|
|
<trkpt lat="54.885315" lon="8.682345">
|
|
<ele>-32.738130</ele>
|
|
<time>2026-07-10T10:58:53.000Z</time>
|
|
</trkpt>
|
|
<trkpt lat="54.885374" lon="8.682332">
|
|
<ele>-32.744321</ele>
|
|
<time>2026-07-10T10:58:54.000Z</time>
|
|
</trkpt>
|
|
<trkpt lat="54.885437" lon="8.682320">
|
|
<ele>-32.750919</ele>
|
|
<time>2026-07-10T10:58:55.000Z</time>
|
|
</trkpt>
|
|
<trkpt lat="54.885496" lon="8.682307">
|
|
<ele>-32.757159</ele>
|
|
<time>2026-07-10T10:58:56.000Z</time>
|
|
</trkpt>
|
|
<trkpt lat="54.885561" lon="8.682290">
|
|
<ele>-32.764298</ele>
|
|
<time>2026-07-10T10:58:57.000Z</time>
|
|
</trkpt>
|
|
<trkpt lat="54.885622" lon="8.682271">
|
|
<ele>-32.771028</ele>
|
|
<time>2026-07-10T10:58:58.000Z</time>
|
|
</trkpt>
|
|
<trkpt lat="54.885679" lon="8.682250">
|
|
<ele>-32.777356</ele>
|
|
<time>2026-07-10T10:58:59.000Z</time>
|
|
</trkpt>
|
|
<trkpt lat="54.885735" lon="8.682227">
|
|
<ele>-32.783606</ele>
|
|
<time>2026-07-10T10:59:00.000Z</time>
|
|
</trkpt>
|
|
<trkpt lat="54.885793" lon="8.682200">
|
|
<ele>-32.790127</ele>
|
|
<time>2026-07-10T10:59:01.000Z</time>
|
|
</trkpt>
|
|
<trkpt lat="54.885849" lon="8.682173">
|
|
<ele>-32.796438</ele>
|
|
<time>2026-07-10T10:59:02.000Z</time>
|
|
</trkpt>
|
|
<trkpt lat="54.885902" lon="8.682143">
|
|
<ele>-32.802492</ele>
|
|
<time>2026-07-10T10:59:03.000Z</time>
|
|
</trkpt>
|
|
<trkpt lat="54.885955" lon="8.682109">
|
|
<ele>-32.808628</ele>
|
|
<time>2026-07-10T10:59:04.000Z</time>
|
|
</trkpt>
|
|
<trkpt lat="54.886008" lon="8.682072">
|
|
<ele>-32.814831</ele>
|
|
<time>2026-07-10T10:59:05.000Z</time>
|
|
</trkpt>
|
|
<trkpt lat="54.886061" lon="8.682032">
|
|
<ele>-32.821106</ele>
|
|
<time>2026-07-10T10:59:06.000Z</time>
|
|
</trkpt>
|
|
<trkpt lat="54.886112" lon="8.681990">
|
|
<ele>-32.827235</ele>
|
|
<time>2026-07-10T10:59:07.000Z</time>
|
|
</trkpt>
|
|
<trkpt lat="54.886163" lon="8.681949">
|
|
<ele>-32.833337</ele>
|
|
<time>2026-07-10T10:59:08.000Z</time>
|
|
</trkpt>
|
|
<trkpt lat="54.886213" lon="8.681906">
|
|
<ele>-32.839396</ele>
|
|
<time>2026-07-10T10:59:09.000Z</time>
|
|
</trkpt>
|
|
<trkpt lat="54.886268" lon="8.681862">
|
|
<ele>-32.845971</ele>
|
|
<time>2026-07-10T10:59:10.000Z</time>
|
|
</trkpt>
|
|
<trkpt lat="54.886312" lon="8.681824">
|
|
<ele>-32.851307</ele>
|
|
<time>2026-07-10T10:59:11.000Z</time>
|
|
</trkpt>
|
|
<trkpt lat="54.886372" lon="8.681775">
|
|
<ele>-32.858507</ele>
|
|
<time>2026-07-10T10:59:12.000Z</time>
|
|
</trkpt>
|
|
<trkpt lat="54.886421" lon="8.681738">
|
|
<ele>-32.864309</ele>
|
|
<time>2026-07-10T10:59:13.000Z</time>
|
|
</trkpt>
|
|
<trkpt lat="54.886480" lon="8.681699">
|
|
<ele>-32.871164</ele>
|
|
<time>2026-07-10T10:59:14.000Z</time>
|
|
</trkpt>
|
|
<trkpt lat="54.886536" lon="8.681663">
|
|
<ele>-32.877649</ele>
|
|
<time>2026-07-10T10:59:15.000Z</time>
|
|
</trkpt>
|
|
<trkpt lat="54.886591" lon="8.681631">
|
|
<ele>-32.883948</ele>
|
|
<time>2026-07-10T10:59:16.000Z</time>
|
|
</trkpt>
|
|
<trkpt lat="54.886644" lon="8.681598">
|
|
<ele>-32.890062</ele>
|
|
<time>2026-07-10T10:59:17.000Z</time>
|
|
</trkpt>
|
|
<trkpt lat="54.886697" lon="8.681566">
|
|
<ele>-32.896156</ele>
|
|
<time>2026-07-10T10:59:18.000Z</time>
|
|
</trkpt>
|
|
<trkpt lat="54.886747" lon="8.681534">
|
|
<ele>-32.901942</ele>
|
|
<time>2026-07-10T10:59:19.000Z</time>
|
|
</trkpt>
|
|
<trkpt lat="54.886793" lon="8.681507">
|
|
<ele>-32.907215</ele>
|
|
<time>2026-07-10T10:59:20.000Z</time>
|
|
</trkpt>
|
|
<trkpt lat="54.886842" lon="8.681484">
|
|
<ele>-32.912728</ele>
|
|
<time>2026-07-10T10:59:21.000Z</time>
|
|
</trkpt>
|
|
<trkpt lat="54.886886" lon="8.681471">
|
|
<ele>-32.917575</ele>
|
|
<time>2026-07-10T10:59:22.000Z</time>
|
|
</trkpt>
|
|
<trkpt lat="54.886926" lon="8.681460">
|
|
<ele>-32.921973</ele>
|
|
<time>2026-07-10T10:59:23.000Z</time>
|
|
</trkpt>
|
|
<trkpt lat="54.886958" lon="8.681453">
|
|
<ele>-32.925476</ele>
|
|
<time>2026-07-10T10:59:24.000Z</time>
|
|
</trkpt>
|
|
<trkpt lat="54.886979" lon="8.681443">
|
|
<ele>-32.927841</ele>
|
|
<time>2026-07-10T10:59:25.000Z</time>
|
|
</trkpt>
|
|
<trkpt lat="54.886997" lon="8.681417">
|
|
<ele>-32.930382</ele>
|
|
<time>2026-07-10T10:59:26.000Z</time>
|
|
</trkpt>
|
|
<trkpt lat="54.887008" lon="8.681374">
|
|
<ele>-32.933322</ele>
|
|
<time>2026-07-10T10:59:27.000Z</time>
|
|
</trkpt>
|
|
<trkpt lat="54.887018" lon="8.681319">
|
|
<ele>-32.936926</ele>
|
|
<time>2026-07-10T10:59:28.000Z</time>
|
|
</trkpt>
|
|
<trkpt lat="54.887025" lon="8.681257">
|
|
<ele>-32.940873</ele>
|
|
<time>2026-07-10T10:59:29.000Z</time>
|
|
</trkpt>
|
|
<trkpt lat="54.887028" lon="8.681187">
|
|
<ele>-32.945258</ele>
|
|
<time>2026-07-10T10:59:30.000Z</time>
|
|
</trkpt>
|
|
<trkpt lat="54.887028" lon="8.681112">
|
|
<ele>-32.949943</ele>
|
|
<time>2026-07-10T10:59:31.000Z</time>
|
|
</trkpt>
|
|
<trkpt lat="54.887029" lon="8.681035">
|
|
<ele>-32.953796</ele>
|
|
<time>2026-07-10T10:59:32.000Z</time>
|
|
</trkpt>
|
|
<trkpt lat="54.887032" lon="8.680958">
|
|
<ele>-32.957262</ele>
|
|
<time>2026-07-10T10:59:33.000Z</time>
|
|
</trkpt>
|
|
<trkpt lat="54.887033" lon="8.680872">
|
|
<ele>-32.961125</ele>
|
|
<time>2026-07-10T10:59:34.000Z</time>
|
|
</trkpt>
|
|
<trkpt lat="54.887036" lon="8.680787">
|
|
<ele>-32.964949</ele>
|
|
<time>2026-07-10T10:59:35.000Z</time>
|
|
</trkpt>
|
|
<trkpt lat="54.887040" lon="8.680700">
|
|
<ele>-32.968868</ele>
|
|
<time>2026-07-10T10:59:36.000Z</time>
|
|
</trkpt>
|
|
<trkpt lat="54.887044" lon="8.680612">
|
|
<ele>-32.972832</ele>
|
|
<time>2026-07-10T10:59:37.000Z</time>
|
|
</trkpt>
|
|
<trkpt lat="54.887048" lon="8.680519">
|
|
<ele>-32.977020</ele>
|
|
<time>2026-07-10T10:59:38.000Z</time>
|
|
</trkpt>
|
|
<trkpt lat="54.887052" lon="8.680425">
|
|
<ele>-32.981253</ele>
|
|
<time>2026-07-10T10:59:39.000Z</time>
|
|
</trkpt>
|
|
<trkpt lat="54.887055" lon="8.680333">
|
|
<ele>-32.985391</ele>
|
|
<time>2026-07-10T10:59:40.000Z</time>
|
|
</trkpt>
|
|
<trkpt lat="54.887060" lon="8.680235">
|
|
<ele>-32.989809</ele>
|
|
<time>2026-07-10T10:59:41.000Z</time>
|
|
</trkpt>
|
|
<trkpt lat="54.887067" lon="8.680138">
|
|
<ele>-32.994199</ele>
|
|
<time>2026-07-10T10:59:42.000Z</time>
|
|
</trkpt>
|
|
<trkpt lat="54.887071" lon="8.680043">
|
|
<ele>-32.998476</ele>
|
|
<time>2026-07-10T10:59:43.000Z</time>
|
|
</trkpt>
|
|
<trkpt lat="54.887076" lon="8.679947">
|
|
<ele>-33.002805</ele>
|
|
<time>2026-07-10T10:59:44.000Z</time>
|
|
</trkpt>
|
|
<trkpt lat="54.887083" lon="8.679853">
|
|
<ele>-33.007061</ele>
|
|
<time>2026-07-10T10:59:45.000Z</time>
|
|
</trkpt>
|
|
<trkpt lat="54.887091" lon="8.679750">
|
|
<ele>-33.011728</ele>
|
|
<time>2026-07-10T10:59:46.000Z</time>
|
|
</trkpt>
|
|
<trkpt lat="54.887098" lon="8.679654">
|
|
<ele>-33.016074</ele>
|
|
<time>2026-07-10T10:59:47.000Z</time>
|
|
</trkpt>
|
|
<trkpt lat="54.887105" lon="8.679558">
|
|
<ele>-33.020419</ele>
|
|
<time>2026-07-10T10:59:48.000Z</time>
|
|
</trkpt>
|
|
<trkpt lat="54.887109" lon="8.679461">
|
|
<ele>-33.024786</ele>
|
|
<time>2026-07-10T10:59:49.000Z</time>
|
|
</trkpt>
|
|
<trkpt lat="54.887113" lon="8.679361">
|
|
<ele>-33.029288</ele>
|
|
<time>2026-07-10T10:59:50.000Z</time>
|
|
</trkpt>
|
|
<trkpt lat="54.887117" lon="8.679263">
|
|
<ele>-33.033699</ele>
|
|
<time>2026-07-10T10:59:51.000Z</time>
|
|
</trkpt>
|
|
<trkpt lat="54.887120" lon="8.679167">
|
|
<ele>-33.038017</ele>
|
|
<time>2026-07-10T10:59:52.000Z</time>
|
|
</trkpt>
|
|
<trkpt lat="54.887125" lon="8.679068">
|
|
<ele>-33.042479</ele>
|
|
<time>2026-07-10T10:59:53.000Z</time>
|
|
</trkpt>
|
|
<trkpt lat="54.887133" lon="8.678972">
|
|
<ele>-33.046835</ele>
|
|
<time>2026-07-10T10:59:54.000Z</time>
|
|
</trkpt>
|
|
<trkpt lat="54.887138" lon="8.678873">
|
|
<ele>-33.051298</ele>
|
|
<time>2026-07-10T10:59:55.000Z</time>
|
|
</trkpt>
|
|
<trkpt lat="54.887140" lon="8.678774">
|
|
<ele>-33.055746</ele>
|
|
<time>2026-07-10T10:59:56.000Z</time>
|
|
</trkpt>
|
|
<trkpt lat="54.887146" lon="8.678675">
|
|
<ele>-33.060217</ele>
|
|
<time>2026-07-10T10:59:57.000Z</time>
|
|
</trkpt>
|
|
<trkpt lat="54.887148" lon="8.678575">
|
|
<ele>-33.064710</ele>
|
|
<time>2026-07-10T10:59:58.000Z</time>
|
|
</trkpt>
|
|
<trkpt lat="54.887156" lon="8.678479">
|
|
<ele>-33.069066</ele>
|
|
<time>2026-07-10T10:59:59.000Z</time>
|
|
</trkpt>
|
|
<trkpt lat="54.887162" lon="8.678379">
|
|
<ele>-33.073581</ele>
|
|
<time>2026-07-10T11:00:00.000Z</time>
|
|
</trkpt>
|
|
<trkpt lat="54.887168" lon="8.678278">
|
|
<ele>-33.078140</ele>
|
|
<time>2026-07-10T11:00:01.000Z</time>
|
|
</trkpt>
|
|
<trkpt lat="54.887179" lon="8.678177">
|
|
<ele>-33.082756</ele>
|
|
<time>2026-07-10T11:00:02.000Z</time>
|
|
</trkpt>
|
|
<trkpt lat="54.887186" lon="8.678079">
|
|
<ele>-33.087191</ele>
|
|
<time>2026-07-10T11:00:03.000Z</time>
|
|
</trkpt>
|
|
<trkpt lat="54.887192" lon="8.677975">
|
|
<ele>-33.091673</ele>
|
|
<time>2026-07-10T11:00:04.000Z</time>
|
|
</trkpt>
|
|
<trkpt lat="54.887193" lon="8.677879">
|
|
<ele>-33.088131</ele>
|
|
<time>2026-07-10T11:00:05.000Z</time>
|
|
</trkpt>
|
|
<trkpt lat="54.887199" lon="8.677779">
|
|
<ele>-33.084422</ele>
|
|
<time>2026-07-10T11:00:06.000Z</time>
|
|
</trkpt>
|
|
<trkpt lat="54.887201" lon="8.677676">
|
|
<ele>-33.080620</ele>
|
|
<time>2026-07-10T11:00:07.000Z</time>
|
|
</trkpt>
|
|
<trkpt lat="54.887209" lon="8.677575">
|
|
<ele>-33.076860</ele>
|
|
<time>2026-07-10T11:00:08.000Z</time>
|
|
</trkpt>
|
|
<trkpt lat="54.887218" lon="8.677482">
|
|
<ele>-33.073381</ele>
|
|
<time>2026-07-10T11:00:09.000Z</time>
|
|
</trkpt>
|
|
<trkpt lat="54.887236" lon="8.677384">
|
|
<ele>-33.069586</ele>
|
|
<time>2026-07-10T11:00:10.000Z</time>
|
|
</trkpt>
|
|
<trkpt lat="54.887260" lon="8.677293">
|
|
<ele>-33.065893</ele>
|
|
<time>2026-07-10T11:00:11.000Z</time>
|
|
</trkpt>
|
|
<trkpt lat="54.887289" lon="8.677211">
|
|
<ele>-33.062342</ele>
|
|
<time>2026-07-10T11:00:12.000Z</time>
|
|
</trkpt>
|
|
<trkpt lat="54.887324" lon="8.677141">
|
|
<ele>-33.058921</ele>
|
|
<time>2026-07-10T11:00:13.000Z</time>
|
|
</trkpt>
|
|
<trkpt lat="54.887366" lon="8.677084">
|
|
<ele>-33.055504</ele>
|
|
<time>2026-07-10T11:00:14.000Z</time>
|
|
</trkpt>
|
|
<trkpt lat="54.887415" lon="8.677038">
|
|
<ele>-33.051932</ele>
|
|
<time>2026-07-10T11:00:15.000Z</time>
|
|
</trkpt>
|
|
<trkpt lat="54.887468" lon="8.677003">
|
|
<ele>-33.048296</ele>
|
|
<time>2026-07-10T11:00:16.000Z</time>
|
|
</trkpt>
|
|
<trkpt lat="54.887523" lon="8.676978">
|
|
<ele>-33.044650</ele>
|
|
<time>2026-07-10T11:00:17.000Z</time>
|
|
</trkpt>
|
|
<trkpt lat="54.887578" lon="8.676956">
|
|
<ele>-33.041031</ele>
|
|
<time>2026-07-10T11:00:18.000Z</time>
|
|
</trkpt>
|
|
<trkpt lat="54.887633" lon="8.676937">
|
|
<ele>-33.037435</ele>
|
|
<time>2026-07-10T11:00:19.000Z</time>
|
|
</trkpt>
|
|
<trkpt lat="54.887690" lon="8.676920">
|
|
<ele>-33.033726</ele>
|
|
<time>2026-07-10T11:00:20.000Z</time>
|
|
</trkpt>
|
|
<trkpt lat="54.887748" lon="8.676902">
|
|
<ele>-33.029947</ele>
|
|
<time>2026-07-10T11:00:21.000Z</time>
|
|
</trkpt>
|
|
<trkpt lat="54.887803" lon="8.676883">
|
|
<ele>-33.026351</ele>
|
|
<time>2026-07-10T11:00:22.000Z</time>
|
|
</trkpt>
|
|
<trkpt lat="54.887860" lon="8.676866">
|
|
<ele>-33.022642</ele>
|
|
<time>2026-07-10T11:00:23.000Z</time>
|
|
</trkpt>
|
|
<trkpt lat="54.887918" lon="8.676849">
|
|
<ele>-33.018870</ele>
|
|
<time>2026-07-10T11:00:24.000Z</time>
|
|
</trkpt>
|
|
<trkpt lat="54.887977" lon="8.676830">
|
|
<ele>-33.015022</ele>
|
|
<time>2026-07-10T11:00:25.000Z</time>
|
|
</trkpt>
|
|
<trkpt lat="54.888040" lon="8.676807">
|
|
<ele>-33.010893</ele>
|
|
<time>2026-07-10T11:00:26.000Z</time>
|
|
</trkpt>
|
|
<trkpt lat="54.888097" lon="8.676783">
|
|
<ele>-33.007132</ele>
|
|
<time>2026-07-10T11:00:27.000Z</time>
|
|
</trkpt>
|
|
<trkpt lat="54.888158" lon="8.676757">
|
|
<ele>-33.003104</ele>
|
|
<time>2026-07-10T11:00:28.000Z</time>
|
|
</trkpt>
|
|
<trkpt lat="54.888221" lon="8.676733">
|
|
<ele>-32.998968</ele>
|
|
<time>2026-07-10T11:00:29.000Z</time>
|
|
</trkpt>
|
|
<trkpt lat="54.888285" lon="8.676709">
|
|
<ele>-32.994769</ele>
|
|
<time>2026-07-10T11:00:30.000Z</time>
|
|
</trkpt>
|
|
<trkpt lat="54.888345" lon="8.676683">
|
|
<ele>-32.990803</ele>
|
|
<time>2026-07-10T11:00:31.000Z</time>
|
|
</trkpt>
|
|
<trkpt lat="54.888405" lon="8.676658">
|
|
<ele>-32.986846</ele>
|
|
<time>2026-07-10T11:00:32.000Z</time>
|
|
</trkpt>
|
|
<trkpt lat="54.888462" lon="8.676631">
|
|
<ele>-32.983057</ele>
|
|
<time>2026-07-10T11:00:33.000Z</time>
|
|
</trkpt>
|
|
<trkpt lat="54.888519" lon="8.676606">
|
|
<ele>-32.979287</ele>
|
|
<time>2026-07-10T11:00:34.000Z</time>
|
|
</trkpt>
|
|
<trkpt lat="54.888575" lon="8.676581">
|
|
<ele>-32.977357</ele>
|
|
<time>2026-07-10T11:00:35.000Z</time>
|
|
</trkpt>
|
|
<trkpt lat="54.888635" lon="8.676553">
|
|
<ele>-32.981835</ele>
|
|
<time>2026-07-10T11:00:36.000Z</time>
|
|
</trkpt>
|
|
<trkpt lat="54.888695" lon="8.676527">
|
|
<ele>-32.986292</ele>
|
|
<time>2026-07-10T11:00:37.000Z</time>
|
|
</trkpt>
|
|
<trkpt lat="54.888752" lon="8.676502">
|
|
<ele>-32.990530</ele>
|
|
<time>2026-07-10T11:00:38.000Z</time>
|
|
</trkpt>
|
|
<trkpt lat="54.888805" lon="8.676479">
|
|
<ele>-32.994467</ele>
|
|
<time>2026-07-10T11:00:39.000Z</time>
|
|
</trkpt>
|
|
<trkpt lat="54.888863" lon="8.676455">
|
|
<ele>-32.998765</ele>
|
|
<time>2026-07-10T11:00:40.000Z</time>
|
|
</trkpt>
|
|
<trkpt lat="54.888921" lon="8.676431">
|
|
<ele>-33.003063</ele>
|
|
<time>2026-07-10T11:00:41.000Z</time>
|
|
</trkpt>
|
|
<trkpt lat="54.888980" lon="8.676407">
|
|
<ele>-33.007430</ele>
|
|
<time>2026-07-10T11:00:42.000Z</time>
|
|
</trkpt>
|
|
<trkpt lat="54.889034" lon="8.676384">
|
|
<ele>-33.011438</ele>
|
|
<time>2026-07-10T11:00:43.000Z</time>
|
|
</trkpt>
|
|
<trkpt lat="54.889095" lon="8.676357">
|
|
<ele>-33.015975</ele>
|
|
<time>2026-07-10T11:00:44.000Z</time>
|
|
</trkpt>
|
|
<trkpt lat="54.889154" lon="8.676333">
|
|
<ele>-33.020343</ele>
|
|
<time>2026-07-10T11:00:45.000Z</time>
|
|
</trkpt>
|
|
<trkpt lat="54.889212" lon="8.676309">
|
|
<ele>-33.024640</ele>
|
|
<time>2026-07-10T11:00:46.000Z</time>
|
|
</trkpt>
|
|
<trkpt lat="54.889269" lon="8.676287">
|
|
<ele>-33.028849</ele>
|
|
<time>2026-07-10T11:00:47.000Z</time>
|
|
</trkpt>
|
|
<trkpt lat="54.889326" lon="8.676264">
|
|
<ele>-33.033067</ele>
|
|
<time>2026-07-10T11:00:48.000Z</time>
|
|
</trkpt>
|
|
<trkpt lat="54.889381" lon="8.676240">
|
|
<ele>-33.037155</ele>
|
|
<time>2026-07-10T11:00:49.000Z</time>
|
|
</trkpt>
|
|
<trkpt lat="54.889437" lon="8.676216">
|
|
<ele>-33.041312</ele>
|
|
<time>2026-07-10T11:00:50.000Z</time>
|
|
</trkpt>
|
|
<trkpt lat="54.889493" lon="8.676192">
|
|
<ele>-33.045469</ele>
|
|
<time>2026-07-10T11:00:51.000Z</time>
|
|
</trkpt>
|
|
<trkpt lat="54.889553" lon="8.676165">
|
|
<ele>-33.049937</ele>
|
|
<time>2026-07-10T11:00:52.000Z</time>
|
|
</trkpt>
|
|
<trkpt lat="54.889610" lon="8.676139">
|
|
<ele>-33.054185</ele>
|
|
<time>2026-07-10T11:00:53.000Z</time>
|
|
</trkpt>
|
|
<trkpt lat="54.889665" lon="8.676115">
|
|
<ele>-33.058272</ele>
|
|
<time>2026-07-10T11:00:54.000Z</time>
|
|
</trkpt>
|
|
<trkpt lat="54.889723" lon="8.676090">
|
|
<ele>-33.062579</ele>
|
|
<time>2026-07-10T11:00:55.000Z</time>
|
|
</trkpt>
|
|
<trkpt lat="54.889780" lon="8.676065">
|
|
<ele>-33.066817</ele>
|
|
<time>2026-07-10T11:00:56.000Z</time>
|
|
</trkpt>
|
|
<trkpt lat="54.889834" lon="8.676040">
|
|
<ele>-33.070845</ele>
|
|
<time>2026-07-10T11:00:57.000Z</time>
|
|
</trkpt>
|
|
<trkpt lat="54.889885" lon="8.676017">
|
|
<ele>-33.074643</ele>
|
|
<time>2026-07-10T11:00:58.000Z</time>
|
|
</trkpt>
|
|
<trkpt lat="54.889947" lon="8.675994">
|
|
<ele>-33.079213</ele>
|
|
<time>2026-07-10T11:00:59.000Z</time>
|
|
</trkpt>
|
|
<trkpt lat="54.890007" lon="8.675970">
|
|
<ele>-33.083650</ele>
|
|
<time>2026-07-10T11:01:00.000Z</time>
|
|
</trkpt>
|
|
<trkpt lat="54.890066" lon="8.675945">
|
|
<ele>-33.088028</ele>
|
|
<time>2026-07-10T11:01:01.000Z</time>
|
|
</trkpt>
|
|
<trkpt lat="54.890123" lon="8.675920">
|
|
<ele>-33.092265</ele>
|
|
<time>2026-07-10T11:01:02.000Z</time>
|
|
</trkpt>
|
|
<trkpt lat="54.890181" lon="8.675896">
|
|
<ele>-33.096563</ele>
|
|
<time>2026-07-10T11:01:03.000Z</time>
|
|
</trkpt>
|
|
<trkpt lat="54.890241" lon="8.675872">
|
|
<ele>-33.101001</ele>
|
|
<time>2026-07-10T11:01:04.000Z</time>
|
|
</trkpt>
|
|
<trkpt lat="54.890298" lon="8.675846">
|
|
<ele>-33.105248</ele>
|
|
<time>2026-07-10T11:01:05.000Z</time>
|
|
</trkpt>
|
|
<trkpt lat="54.890356" lon="8.675821">
|
|
<ele>-33.101416</ele>
|
|
<time>2026-07-10T11:01:06.000Z</time>
|
|
</trkpt>
|
|
<trkpt lat="54.890413" lon="8.675798">
|
|
<ele>-33.095794</ele>
|
|
<time>2026-07-10T11:01:07.000Z</time>
|
|
</trkpt>
|
|
<trkpt lat="54.890469" lon="8.675773">
|
|
<ele>-33.090238</ele>
|
|
<time>2026-07-10T11:01:08.000Z</time>
|
|
</trkpt>
|
|
<trkpt lat="54.890528" lon="8.675746">
|
|
<ele>-33.084376</ele>
|
|
<time>2026-07-10T11:01:09.000Z</time>
|
|
</trkpt>
|
|
<trkpt lat="54.890587" lon="8.675719">
|
|
<ele>-33.078513</ele>
|
|
<time>2026-07-10T11:01:10.000Z</time>
|
|
</trkpt>
|
|
<trkpt lat="54.890642" lon="8.675693">
|
|
<ele>-33.073036</ele>
|
|
<time>2026-07-10T11:01:11.000Z</time>
|
|
</trkpt>
|
|
<trkpt lat="54.890703" lon="8.675668">
|
|
<ele>-33.067014</ele>
|
|
<time>2026-07-10T11:01:12.000Z</time>
|
|
</trkpt>
|
|
<trkpt lat="54.890760" lon="8.675642">
|
|
<ele>-33.061352</ele>
|
|
<time>2026-07-10T11:01:13.000Z</time>
|
|
</trkpt>
|
|
<trkpt lat="54.890817" lon="8.675618">
|
|
<ele>-33.055716</ele>
|
|
<time>2026-07-10T11:01:14.000Z</time>
|
|
</trkpt>
|
|
<trkpt lat="54.890874" lon="8.675593">
|
|
<ele>-33.050068</ele>
|
|
<time>2026-07-10T11:01:15.000Z</time>
|
|
</trkpt>
|
|
<trkpt lat="54.890932" lon="8.675567">
|
|
<ele>-33.044312</ele>
|
|
<time>2026-07-10T11:01:16.000Z</time>
|
|
</trkpt>
|
|
<trkpt lat="54.890989" lon="8.675543">
|
|
<ele>-33.038677</ele>
|
|
<time>2026-07-10T11:01:17.000Z</time>
|
|
</trkpt>
|
|
<trkpt lat="54.891045" lon="8.675518">
|
|
<ele>-33.033121</ele>
|
|
<time>2026-07-10T11:01:18.000Z</time>
|
|
</trkpt>
|
|
<trkpt lat="54.891101" lon="8.675492">
|
|
<ele>-33.027552</ele>
|
|
<time>2026-07-10T11:01:19.000Z</time>
|
|
</trkpt>
|
|
<trkpt lat="54.891160" lon="8.675464">
|
|
<ele>-33.021675</ele>
|
|
<time>2026-07-10T11:01:20.000Z</time>
|
|
</trkpt>
|
|
<trkpt lat="54.891218" lon="8.675437">
|
|
<ele>-33.015905</ele>
|
|
<time>2026-07-10T11:01:21.000Z</time>
|
|
</trkpt>
|
|
<trkpt lat="54.891275" lon="8.675410">
|
|
<ele>-33.010229</ele>
|
|
<time>2026-07-10T11:01:22.000Z</time>
|
|
</trkpt>
|
|
<trkpt lat="54.891332" lon="8.675383">
|
|
<ele>-33.004552</ele>
|
|
<time>2026-07-10T11:01:23.000Z</time>
|
|
</trkpt>
|
|
<trkpt lat="54.891390" lon="8.675358">
|
|
<ele>-32.998810</ele>
|
|
<time>2026-07-10T11:01:24.000Z</time>
|
|
</trkpt>
|
|
<trkpt lat="54.891448" lon="8.675334">
|
|
<ele>-32.993081</ele>
|
|
<time>2026-07-10T11:01:25.000Z</time>
|
|
</trkpt>
|
|
<trkpt lat="54.891507" lon="8.675312">
|
|
<ele>-32.987283</ele>
|
|
<time>2026-07-10T11:01:26.000Z</time>
|
|
</trkpt>
|
|
<trkpt lat="54.891565" lon="8.675287">
|
|
<ele>-32.981541</ele>
|
|
<time>2026-07-10T11:01:27.000Z</time>
|
|
</trkpt>
|
|
<trkpt lat="54.891622" lon="8.675263">
|
|
<ele>-32.975905</ele>
|
|
<time>2026-07-10T11:01:28.000Z</time>
|
|
</trkpt>
|
|
<trkpt lat="54.891679" lon="8.675238">
|
|
<ele>-32.970257</ele>
|
|
<time>2026-07-10T11:01:29.000Z</time>
|
|
</trkpt>
|
|
<trkpt lat="54.891737" lon="8.675211">
|
|
<ele>-32.964487</ele>
|
|
<time>2026-07-10T11:01:30.000Z</time>
|
|
</trkpt>
|
|
<trkpt lat="54.891795" lon="8.675184">
|
|
<ele>-32.958718</ele>
|
|
<time>2026-07-10T11:01:31.000Z</time>
|
|
</trkpt>
|
|
<trkpt lat="54.891853" lon="8.675156">
|
|
<ele>-32.952934</ele>
|
|
<time>2026-07-10T11:01:32.000Z</time>
|
|
</trkpt>
|
|
<trkpt lat="54.891912" lon="8.675127">
|
|
<ele>-32.947042</ele>
|
|
<time>2026-07-10T11:01:33.000Z</time>
|
|
</trkpt>
|
|
<trkpt lat="54.891970" lon="8.675103">
|
|
<ele>-32.941313</ele>
|
|
<time>2026-07-10T11:01:34.000Z</time>
|
|
</trkpt>
|
|
<trkpt lat="54.892029" lon="8.675078">
|
|
<ele>-32.935478</ele>
|
|
<time>2026-07-10T11:01:35.000Z</time>
|
|
</trkpt>
|
|
<trkpt lat="54.892084" lon="8.675053">
|
|
<ele>-32.930034</ele>
|
|
<time>2026-07-10T11:01:36.000Z</time>
|
|
</trkpt>
|
|
<trkpt lat="54.892140" lon="8.675026">
|
|
<ele>-32.924481</ele>
|
|
<time>2026-07-10T11:01:37.000Z</time>
|
|
</trkpt>
|
|
<trkpt lat="54.892197" lon="8.674999">
|
|
<ele>-32.918836</ele>
|
|
<time>2026-07-10T11:01:38.000Z</time>
|
|
</trkpt>
|
|
<trkpt lat="54.892253" lon="8.674974">
|
|
<ele>-32.913312</ele>
|
|
<time>2026-07-10T11:01:39.000Z</time>
|
|
</trkpt>
|
|
<trkpt lat="54.892312" lon="8.674948">
|
|
<ele>-32.907497</ele>
|
|
<time>2026-07-10T11:01:40.000Z</time>
|
|
</trkpt>
|
|
<trkpt lat="54.892369" lon="8.674922">
|
|
<ele>-32.901866</ele>
|
|
<time>2026-07-10T11:01:41.000Z</time>
|
|
</trkpt>
|
|
<trkpt lat="54.892427" lon="8.674895">
|
|
<ele>-32.896129</ele>
|
|
<time>2026-07-10T11:01:42.000Z</time>
|
|
</trkpt>
|
|
<trkpt lat="54.892485" lon="8.674867">
|
|
<ele>-32.890378</ele>
|
|
<time>2026-07-10T11:01:43.000Z</time>
|
|
</trkpt>
|
|
<trkpt lat="54.892542" lon="8.674841">
|
|
<ele>-32.884747</ele>
|
|
<time>2026-07-10T11:01:44.000Z</time>
|
|
</trkpt>
|
|
<trkpt lat="54.892598" lon="8.674818">
|
|
<ele>-32.879249</ele>
|
|
<time>2026-07-10T11:01:45.000Z</time>
|
|
</trkpt>
|
|
<trkpt lat="54.892653" lon="8.674796">
|
|
<ele>-32.873857</ele>
|
|
<time>2026-07-10T11:01:46.000Z</time>
|
|
</trkpt>
|
|
<trkpt lat="54.892712" lon="8.674771">
|
|
<ele>-32.868055</ele>
|
|
<time>2026-07-10T11:01:47.000Z</time>
|
|
</trkpt>
|
|
<trkpt lat="54.892768" lon="8.674745">
|
|
<ele>-32.862517</ele>
|
|
<time>2026-07-10T11:01:48.000Z</time>
|
|
</trkpt>
|
|
<trkpt lat="54.892823" lon="8.674717">
|
|
<ele>-32.857041</ele>
|
|
<time>2026-07-10T11:01:49.000Z</time>
|
|
</trkpt>
|
|
<trkpt lat="54.892878" lon="8.674691">
|
|
<ele>-32.851595</ele>
|
|
<time>2026-07-10T11:01:50.000Z</time>
|
|
</trkpt>
|
|
<trkpt lat="54.892934" lon="8.674666">
|
|
<ele>-32.846071</ele>
|
|
<time>2026-07-10T11:01:51.000Z</time>
|
|
</trkpt>
|
|
<trkpt lat="54.892990" lon="8.674643">
|
|
<ele>-32.840573</ele>
|
|
<time>2026-07-10T11:01:52.000Z</time>
|
|
</trkpt>
|
|
<trkpt lat="54.893044" lon="8.674619">
|
|
<ele>-32.835248</ele>
|
|
<time>2026-07-10T11:01:53.000Z</time>
|
|
</trkpt>
|
|
<trkpt lat="54.893102" lon="8.674594">
|
|
<ele>-32.829538</ele>
|
|
<time>2026-07-10T11:01:54.000Z</time>
|
|
</trkpt>
|
|
<trkpt lat="54.893159" lon="8.674570">
|
|
<ele>-32.823934</ele>
|
|
<time>2026-07-10T11:01:55.000Z</time>
|
|
</trkpt>
|
|
<trkpt lat="54.893216" lon="8.674546">
|
|
<ele>-32.818331</ele>
|
|
<time>2026-07-10T11:01:56.000Z</time>
|
|
</trkpt>
|
|
<trkpt lat="54.893269" lon="8.674523">
|
|
<ele>-32.813111</ele>
|
|
<time>2026-07-10T11:01:57.000Z</time>
|
|
</trkpt>
|
|
<trkpt lat="54.893323" lon="8.674498">
|
|
<ele>-32.807772</ele>
|
|
<time>2026-07-10T11:01:58.000Z</time>
|
|
</trkpt>
|
|
<trkpt lat="54.893379" lon="8.674473">
|
|
<ele>-32.802248</ele>
|
|
<time>2026-07-10T11:01:59.000Z</time>
|
|
</trkpt>
|
|
<trkpt lat="54.893433" lon="8.674447">
|
|
<ele>-32.796894</ele>
|
|
<time>2026-07-10T11:02:00.000Z</time>
|
|
</trkpt>
|
|
<trkpt lat="54.893485" lon="8.674423">
|
|
<ele>-32.791754</ele>
|
|
<time>2026-07-10T11:02:01.000Z</time>
|
|
</trkpt>
|
|
<trkpt lat="54.893537" lon="8.674399">
|
|
<ele>-32.786613</ele>
|
|
<time>2026-07-10T11:02:02.000Z</time>
|
|
</trkpt>
|
|
<trkpt lat="54.893594" lon="8.674373">
|
|
<ele>-32.780983</ele>
|
|
<time>2026-07-10T11:02:03.000Z</time>
|
|
</trkpt>
|
|
<trkpt lat="54.893650" lon="8.674348">
|
|
<ele>-32.775459</ele>
|
|
<time>2026-07-10T11:02:04.000Z</time>
|
|
</trkpt>
|
|
<trkpt lat="54.893704" lon="8.674324">
|
|
<ele>-32.770133</ele>
|
|
<time>2026-07-10T11:02:05.000Z</time>
|
|
</trkpt>
|
|
<trkpt lat="54.893757" lon="8.674300">
|
|
<ele>-32.764900</ele>
|
|
<time>2026-07-10T11:02:06.000Z</time>
|
|
</trkpt>
|
|
<trkpt lat="54.893812" lon="8.674275">
|
|
<ele>-32.759492</ele>
|
|
<time>2026-07-10T11:02:07.000Z</time>
|
|
</trkpt>
|
|
<trkpt lat="54.893868" lon="8.674252">
|
|
<ele>-32.754061</ele>
|
|
<time>2026-07-10T11:02:08.000Z</time>
|
|
</trkpt>
|
|
<trkpt lat="54.893920" lon="8.674231">
|
|
<ele>-32.749023</ele>
|
|
<time>2026-07-10T11:02:09.000Z</time>
|
|
</trkpt>
|
|
<trkpt lat="54.893975" lon="8.674209">
|
|
<ele>-32.743697</ele>
|
|
<time>2026-07-10T11:02:10.000Z</time>
|
|
</trkpt>
|
|
<trkpt lat="54.894031" lon="8.674186">
|
|
<ele>-32.738267</ele>
|
|
<time>2026-07-10T11:02:11.000Z</time>
|
|
</trkpt>
|
|
<trkpt lat="54.894085" lon="8.674162">
|
|
<ele>-32.733007</ele>
|
|
<time>2026-07-10T11:02:12.000Z</time>
|
|
</trkpt>
|
|
<trkpt lat="54.894140" lon="8.674138">
|
|
<ele>-32.727655</ele>
|
|
<time>2026-07-10T11:02:13.000Z</time>
|
|
</trkpt>
|
|
<trkpt lat="54.894196" lon="8.674113">
|
|
<ele>-32.722199</ele>
|
|
<time>2026-07-10T11:02:14.000Z</time>
|
|
</trkpt>
|
|
<trkpt lat="54.894249" lon="8.674090">
|
|
<ele>-32.717043</ele>
|
|
<time>2026-07-10T11:02:15.000Z</time>
|
|
</trkpt>
|
|
<trkpt lat="54.894304" lon="8.674064">
|
|
<ele>-32.711664</ele>
|
|
<time>2026-07-10T11:02:16.000Z</time>
|
|
</trkpt>
|
|
<trkpt lat="54.894359" lon="8.674040">
|
|
<ele>-32.706313</ele>
|
|
<time>2026-07-10T11:02:17.000Z</time>
|
|
</trkpt>
|
|
<trkpt lat="54.894412" lon="8.674017">
|
|
<ele>-32.701157</ele>
|
|
<time>2026-07-10T11:02:18.000Z</time>
|
|
</trkpt>
|
|
<trkpt lat="54.894468" lon="8.673993">
|
|
<ele>-32.695714</ele>
|
|
<time>2026-07-10T11:02:19.000Z</time>
|
|
</trkpt>
|
|
<trkpt lat="54.894523" lon="8.673973">
|
|
<ele>-32.690411</ele>
|
|
<time>2026-07-10T11:02:20.000Z</time>
|
|
</trkpt>
|
|
<trkpt lat="54.894577" lon="8.673950">
|
|
<ele>-32.685164</ele>
|
|
<time>2026-07-10T11:02:21.000Z</time>
|
|
</trkpt>
|
|
<trkpt lat="54.894629" lon="8.673925">
|
|
<ele>-32.680073</ele>
|
|
<time>2026-07-10T11:02:22.000Z</time>
|
|
</trkpt>
|
|
<trkpt lat="54.894678" lon="8.673900">
|
|
<ele>-32.675253</ele>
|
|
<time>2026-07-10T11:02:23.000Z</time>
|
|
</trkpt>
|
|
<trkpt lat="54.894732" lon="8.673876">
|
|
<ele>-32.669993</ele>
|
|
<time>2026-07-10T11:02:24.000Z</time>
|
|
</trkpt>
|
|
<trkpt lat="54.894787" lon="8.673853">
|
|
<ele>-32.664655</ele>
|
|
<time>2026-07-10T11:02:25.000Z</time>
|
|
</trkpt>
|
|
<trkpt lat="54.894841" lon="8.673829">
|
|
<ele>-32.659395</ele>
|
|
<time>2026-07-10T11:02:26.000Z</time>
|
|
</trkpt>
|
|
<trkpt lat="54.894893" lon="8.673804">
|
|
<ele>-32.654303</ele>
|
|
<time>2026-07-10T11:02:27.000Z</time>
|
|
</trkpt>
|
|
<trkpt lat="54.894944" lon="8.673782">
|
|
<ele>-32.649344</ele>
|
|
<time>2026-07-10T11:02:28.000Z</time>
|
|
</trkpt>
|
|
<trkpt lat="54.894996" lon="8.673762">
|
|
<ele>-32.644318</ele>
|
|
<time>2026-07-10T11:02:29.000Z</time>
|
|
</trkpt>
|
|
<trkpt lat="54.895046" lon="8.673743">
|
|
<ele>-32.639488</ele>
|
|
<time>2026-07-10T11:02:30.000Z</time>
|
|
</trkpt>
|
|
<trkpt lat="54.895098" lon="8.673724">
|
|
<ele>-32.634473</ele>
|
|
<time>2026-07-10T11:02:31.000Z</time>
|
|
</trkpt>
|
|
<trkpt lat="54.895153" lon="8.673702">
|
|
<ele>-32.629147</ele>
|
|
<time>2026-07-10T11:02:32.000Z</time>
|
|
</trkpt>
|
|
<trkpt lat="54.895200" lon="8.673681">
|
|
<ele>-32.624567</ele>
|
|
<time>2026-07-10T11:02:33.000Z</time>
|
|
</trkpt>
|
|
<trkpt lat="54.895247" lon="8.673660">
|
|
<ele>-32.619987</ele>
|
|
<time>2026-07-10T11:02:34.000Z</time>
|
|
</trkpt>
|
|
<trkpt lat="54.895299" lon="8.673636">
|
|
<ele>-32.614910</ele>
|
|
<time>2026-07-10T11:02:35.000Z</time>
|
|
</trkpt>
|
|
<trkpt lat="54.895355" lon="8.673615">
|
|
<ele>-32.609504</ele>
|
|
<time>2026-07-10T11:02:36.000Z</time>
|
|
</trkpt>
|
|
<trkpt lat="54.895409" lon="8.673596">
|
|
<ele>-32.604304</ele>
|
|
<time>2026-07-10T11:02:37.000Z</time>
|
|
</trkpt>
|
|
<trkpt lat="54.895462" lon="8.673576">
|
|
<ele>-32.599186</ele>
|
|
<time>2026-07-10T11:02:38.000Z</time>
|
|
</trkpt>
|
|
<trkpt lat="54.895515" lon="8.673554">
|
|
<ele>-32.594043</ele>
|
|
<time>2026-07-10T11:02:39.000Z</time>
|
|
</trkpt>
|
|
<trkpt lat="54.895568" lon="8.673532">
|
|
<ele>-32.589498</ele>
|
|
<time>2026-07-10T11:02:40.000Z</time>
|
|
</trkpt>
|
|
<trkpt lat="54.895622" lon="8.673510">
|
|
<ele>-32.585407</ele>
|
|
<time>2026-07-10T11:02:41.000Z</time>
|
|
</trkpt>
|
|
<trkpt lat="54.895674" lon="8.673487">
|
|
<ele>-32.581450</ele>
|
|
<time>2026-07-10T11:02:42.000Z</time>
|
|
</trkpt>
|
|
<trkpt lat="54.895726" lon="8.673463">
|
|
<ele>-32.577482</ele>
|
|
<time>2026-07-10T11:02:43.000Z</time>
|
|
</trkpt>
|
|
<trkpt lat="54.895779" lon="8.673439">
|
|
<ele>-32.573443</ele>
|
|
<time>2026-07-10T11:02:44.000Z</time>
|
|
</trkpt>
|
|
<trkpt lat="54.895832" lon="8.673415">
|
|
<ele>-32.569404</ele>
|
|
<time>2026-07-10T11:02:45.000Z</time>
|
|
</trkpt>
|
|
<trkpt lat="54.895886" lon="8.673392">
|
|
<ele>-32.565303</ele>
|
|
<time>2026-07-10T11:02:46.000Z</time>
|
|
</trkpt>
|
|
<trkpt lat="54.895943" lon="8.673369">
|
|
<ele>-32.560988</ele>
|
|
<time>2026-07-10T11:02:47.000Z</time>
|
|
</trkpt>
|
|
<trkpt lat="54.895996" lon="8.673346">
|
|
<ele>-32.556959</ele>
|
|
<time>2026-07-10T11:02:48.000Z</time>
|
|
</trkpt>
|
|
<trkpt lat="54.896049" lon="8.673323">
|
|
<ele>-32.552930</ele>
|
|
<time>2026-07-10T11:02:49.000Z</time>
|
|
</trkpt>
|
|
<trkpt lat="54.896102" lon="8.673299">
|
|
<ele>-32.548891</ele>
|
|
<time>2026-07-10T11:02:50.000Z</time>
|
|
</trkpt>
|
|
<trkpt lat="54.896157" lon="8.673276">
|
|
<ele>-32.544719</ele>
|
|
<time>2026-07-10T11:02:51.000Z</time>
|
|
</trkpt>
|
|
<trkpt lat="54.896210" lon="8.673254">
|
|
<ele>-32.540701</ele>
|
|
<time>2026-07-10T11:02:52.000Z</time>
|
|
</trkpt>
|
|
<trkpt lat="54.896262" lon="8.673232">
|
|
<ele>-32.536754</ele>
|
|
<time>2026-07-10T11:02:53.000Z</time>
|
|
</trkpt>
|
|
<trkpt lat="54.896313" lon="8.673208">
|
|
<ele>-32.532857</ele>
|
|
<time>2026-07-10T11:02:54.000Z</time>
|
|
</trkpt>
|
|
<trkpt lat="54.896365" lon="8.673186">
|
|
<ele>-32.528910</ele>
|
|
<time>2026-07-10T11:02:55.000Z</time>
|
|
</trkpt>
|
|
<trkpt lat="54.896419" lon="8.673164">
|
|
<ele>-32.524820</ele>
|
|
<time>2026-07-10T11:02:56.000Z</time>
|
|
</trkpt>
|
|
<trkpt lat="54.896473" lon="8.673142">
|
|
<ele>-32.520729</ele>
|
|
<time>2026-07-10T11:02:57.000Z</time>
|
|
</trkpt>
|
|
<trkpt lat="54.896527" lon="8.673118">
|
|
<ele>-32.516618</ele>
|
|
<time>2026-07-10T11:02:58.000Z</time>
|
|
</trkpt>
|
|
<trkpt lat="54.896579" lon="8.673092">
|
|
<ele>-32.512628</ele>
|
|
<time>2026-07-10T11:02:59.000Z</time>
|
|
</trkpt>
|
|
<trkpt lat="54.896633" lon="8.673068">
|
|
<ele>-32.508517</ele>
|
|
<time>2026-07-10T11:03:00.000Z</time>
|
|
</trkpt>
|
|
<trkpt lat="54.896687" lon="8.673045">
|
|
<ele>-32.504417</ele>
|
|
<time>2026-07-10T11:03:01.000Z</time>
|
|
</trkpt>
|
|
<trkpt lat="54.896741" lon="8.673022">
|
|
<ele>-32.500317</ele>
|
|
<time>2026-07-10T11:03:02.000Z</time>
|
|
</trkpt>
|
|
<trkpt lat="54.896794" lon="8.673001">
|
|
<ele>-32.496308</ele>
|
|
<time>2026-07-10T11:03:03.000Z</time>
|
|
</trkpt>
|
|
<trkpt lat="54.896847" lon="8.672979">
|
|
<ele>-32.492289</ele>
|
|
<time>2026-07-10T11:03:04.000Z</time>
|
|
</trkpt>
|
|
<trkpt lat="54.896898" lon="8.672957">
|
|
<ele>-32.488414</ele>
|
|
<time>2026-07-10T11:03:05.000Z</time>
|
|
</trkpt>
|
|
<trkpt lat="54.896951" lon="8.672935">
|
|
<ele>-32.484395</ele>
|
|
<time>2026-07-10T11:03:06.000Z</time>
|
|
</trkpt>
|
|
<trkpt lat="54.897010" lon="8.672910">
|
|
<ele>-32.479916</ele>
|
|
<time>2026-07-10T11:03:07.000Z</time>
|
|
</trkpt>
|
|
<trkpt lat="54.897063" lon="8.672888">
|
|
<ele>-32.475898</ele>
|
|
<time>2026-07-10T11:03:08.000Z</time>
|
|
</trkpt>
|
|
<trkpt lat="54.897119" lon="8.672865">
|
|
<ele>-32.471654</ele>
|
|
<time>2026-07-10T11:03:09.000Z</time>
|
|
</trkpt>
|
|
<trkpt lat="54.897175" lon="8.672842">
|
|
<ele>-32.467410</ele>
|
|
<time>2026-07-10T11:03:10.000Z</time>
|
|
</trkpt>
|
|
<trkpt lat="54.897229" lon="8.672820">
|
|
<ele>-32.463320</ele>
|
|
<time>2026-07-10T11:03:11.000Z</time>
|
|
</trkpt>
|
|
<trkpt lat="54.897284" lon="8.672796">
|
|
<ele>-32.459138</ele>
|
|
<time>2026-07-10T11:03:12.000Z</time>
|
|
</trkpt>
|
|
<trkpt lat="54.897336" lon="8.672772">
|
|
<ele>-32.464745</ele>
|
|
<time>2026-07-10T11:03:13.000Z</time>
|
|
</trkpt>
|
|
<trkpt lat="54.897391" lon="8.672749">
|
|
<ele>-32.471062</ele>
|
|
<time>2026-07-10T11:03:14.000Z</time>
|
|
</trkpt>
|
|
<trkpt lat="54.897444" lon="8.672726">
|
|
<ele>-32.477162</ele>
|
|
<time>2026-07-10T11:03:15.000Z</time>
|
|
</trkpt>
|
|
<trkpt lat="54.897500" lon="8.672704">
|
|
<ele>-32.483573</ele>
|
|
<time>2026-07-10T11:03:16.000Z</time>
|
|
</trkpt>
|
|
<trkpt lat="54.897556" lon="8.672682">
|
|
<ele>-32.489984</ele>
|
|
<time>2026-07-10T11:03:17.000Z</time>
|
|
</trkpt>
|
|
<trkpt lat="54.897610" lon="8.672661">
|
|
<ele>-32.496163</ele>
|
|
<time>2026-07-10T11:03:18.000Z</time>
|
|
</trkpt>
|
|
<trkpt lat="54.897668" lon="8.672639">
|
|
<ele>-32.502792</ele>
|
|
<time>2026-07-10T11:03:19.000Z</time>
|
|
</trkpt>
|
|
<trkpt lat="54.897721" lon="8.672619">
|
|
<ele>-32.508848</ele>
|
|
<time>2026-07-10T11:03:20.000Z</time>
|
|
</trkpt>
|
|
<trkpt lat="54.897777" lon="8.672600">
|
|
<ele>-32.515220</ele>
|
|
<time>2026-07-10T11:03:21.000Z</time>
|
|
</trkpt>
|
|
<trkpt lat="54.897831" lon="8.672576">
|
|
<ele>-32.521444</ele>
|
|
<time>2026-07-10T11:03:22.000Z</time>
|
|
</trkpt>
|
|
<trkpt lat="54.897884" lon="8.672550">
|
|
<ele>-32.527593</ele>
|
|
<time>2026-07-10T11:03:23.000Z</time>
|
|
</trkpt>
|
|
<trkpt lat="54.897938" lon="8.672526">
|
|
<ele>-32.533817</ele>
|
|
<time>2026-07-10T11:03:24.000Z</time>
|
|
</trkpt>
|
|
<trkpt lat="54.897993" lon="8.672504">
|
|
<ele>-32.540119</ele>
|
|
<time>2026-07-10T11:03:25.000Z</time>
|
|
</trkpt>
|
|
<trkpt lat="54.898048" lon="8.672482">
|
|
<ele>-32.546421</ele>
|
|
<time>2026-07-10T11:03:26.000Z</time>
|
|
</trkpt>
|
|
<trkpt lat="54.898102" lon="8.672458">
|
|
<ele>-32.552645</ele>
|
|
<time>2026-07-10T11:03:27.000Z</time>
|
|
</trkpt>
|
|
<trkpt lat="54.898157" lon="8.672435">
|
|
<ele>-32.558962</ele>
|
|
<time>2026-07-10T11:03:28.000Z</time>
|
|
</trkpt>
|
|
<trkpt lat="54.898215" lon="8.672412">
|
|
<ele>-32.565605</ele>
|
|
<time>2026-07-10T11:03:29.000Z</time>
|
|
</trkpt>
|
|
<trkpt lat="54.898273" lon="8.672389">
|
|
<ele>-32.572248</ele>
|
|
<time>2026-07-10T11:03:30.000Z</time>
|
|
</trkpt>
|
|
<trkpt lat="54.898327" lon="8.672367">
|
|
<ele>-32.578441</ele>
|
|
<time>2026-07-10T11:03:31.000Z</time>
|
|
</trkpt>
|
|
<trkpt lat="54.898384" lon="8.672344">
|
|
<ele>-32.584975</ele>
|
|
<time>2026-07-10T11:03:32.000Z</time>
|
|
</trkpt>
|
|
<trkpt lat="54.898441" lon="8.672320">
|
|
<ele>-32.591524</ele>
|
|
<time>2026-07-10T11:03:33.000Z</time>
|
|
</trkpt>
|
|
<trkpt lat="54.898498" lon="8.672294">
|
|
<ele>-32.598105</ele>
|
|
<time>2026-07-10T11:03:34.000Z</time>
|
|
</trkpt>
|
|
<trkpt lat="54.898554" lon="8.672269">
|
|
<ele>-32.604561</ele>
|
|
<time>2026-07-10T11:03:35.000Z</time>
|
|
</trkpt>
|
|
<trkpt lat="54.898609" lon="8.672244">
|
|
<ele>-32.610909</ele>
|
|
<time>2026-07-10T11:03:36.000Z</time>
|
|
</trkpt>
|
|
<trkpt lat="54.898663" lon="8.672219">
|
|
<ele>-32.617149</ele>
|
|
<time>2026-07-10T11:03:37.000Z</time>
|
|
</trkpt>
|
|
<trkpt lat="54.898721" lon="8.672195">
|
|
<ele>-32.623806</ele>
|
|
<time>2026-07-10T11:03:38.000Z</time>
|
|
</trkpt>
|
|
<trkpt lat="54.898776" lon="8.672173">
|
|
<ele>-32.630109</ele>
|
|
<time>2026-07-10T11:03:39.000Z</time>
|
|
</trkpt>
|
|
<trkpt lat="54.898829" lon="8.672151">
|
|
<ele>-32.636193</ele>
|
|
<time>2026-07-10T11:03:40.000Z</time>
|
|
</trkpt>
|
|
<trkpt lat="54.898889" lon="8.672127">
|
|
<ele>-32.643068</ele>
|
|
<time>2026-07-10T11:03:41.000Z</time>
|
|
</trkpt>
|
|
<trkpt lat="54.898947" lon="8.672103">
|
|
<ele>-32.649726</ele>
|
|
<time>2026-07-10T11:03:42.000Z</time>
|
|
</trkpt>
|
|
<trkpt lat="54.899004" lon="8.672081">
|
|
<ele>-32.656246</ele>
|
|
<time>2026-07-10T11:03:43.000Z</time>
|
|
</trkpt>
|
|
<trkpt lat="54.899060" lon="8.672054">
|
|
<ele>-32.662095</ele>
|
|
<time>2026-07-10T11:03:44.000Z</time>
|
|
</trkpt>
|
|
<trkpt lat="54.899112" lon="8.672028">
|
|
<ele>-32.666805</ele>
|
|
<time>2026-07-10T11:03:45.000Z</time>
|
|
</trkpt>
|
|
<trkpt lat="54.899169" lon="8.672003">
|
|
<ele>-32.671922</ele>
|
|
<time>2026-07-10T11:03:46.000Z</time>
|
|
</trkpt>
|
|
<trkpt lat="54.899227" lon="8.671979">
|
|
<ele>-32.677112</ele>
|
|
<time>2026-07-10T11:03:47.000Z</time>
|
|
</trkpt>
|
|
<trkpt lat="54.899286" lon="8.671955">
|
|
<ele>-32.682387</ele>
|
|
<time>2026-07-10T11:03:48.000Z</time>
|
|
</trkpt>
|
|
<trkpt lat="54.899346" lon="8.671932">
|
|
<ele>-32.687736</ele>
|
|
<time>2026-07-10T11:03:49.000Z</time>
|
|
</trkpt>
|
|
<trkpt lat="54.899403" lon="8.671910">
|
|
<ele>-32.692819</ele>
|
|
<time>2026-07-10T11:03:50.000Z</time>
|
|
</trkpt>
|
|
<trkpt lat="54.899460" lon="8.671888">
|
|
<ele>-32.697902</ele>
|
|
<time>2026-07-10T11:03:51.000Z</time>
|
|
</trkpt>
|
|
<trkpt lat="54.899516" lon="8.671867">
|
|
<ele>-32.702889</ele>
|
|
<time>2026-07-10T11:03:52.000Z</time>
|
|
</trkpt>
|
|
<trkpt lat="54.899575" lon="8.671844">
|
|
<ele>-32.708153</ele>
|
|
<time>2026-07-10T11:03:53.000Z</time>
|
|
</trkpt>
|
|
<trkpt lat="54.899633" lon="8.671821">
|
|
<ele>-32.713331</ele>
|
|
<time>2026-07-10T11:03:54.000Z</time>
|
|
</trkpt>
|
|
<trkpt lat="54.899692" lon="8.671796">
|
|
<ele>-32.718618</ele>
|
|
<time>2026-07-10T11:03:55.000Z</time>
|
|
</trkpt>
|
|
<trkpt lat="54.899751" lon="8.671772">
|
|
<ele>-32.723893</ele>
|
|
<time>2026-07-10T11:03:56.000Z</time>
|
|
</trkpt>
|
|
<trkpt lat="54.899806" lon="8.671747">
|
|
<ele>-32.728842</ele>
|
|
<time>2026-07-10T11:03:57.000Z</time>
|
|
</trkpt>
|
|
<trkpt lat="54.899865" lon="8.671723">
|
|
<ele>-32.734117</ele>
|
|
<time>2026-07-10T11:03:58.000Z</time>
|
|
</trkpt>
|
|
<trkpt lat="54.899922" lon="8.671699">
|
|
<ele>-32.739222</ele>
|
|
<time>2026-07-10T11:03:59.000Z</time>
|
|
</trkpt>
|
|
<trkpt lat="54.899982" lon="8.671674">
|
|
<ele>-32.744593</ele>
|
|
<time>2026-07-10T11:04:00.000Z</time>
|
|
</trkpt>
|
|
<trkpt lat="54.900040" lon="8.671647">
|
|
<ele>-32.749820</ele>
|
|
<time>2026-07-10T11:04:01.000Z</time>
|
|
</trkpt>
|
|
<trkpt lat="54.900099" lon="8.671623">
|
|
<ele>-32.755095</ele>
|
|
<time>2026-07-10T11:04:02.000Z</time>
|
|
</trkpt>
|
|
<trkpt lat="54.900159" lon="8.671600">
|
|
<ele>-32.760444</ele>
|
|
<time>2026-07-10T11:04:03.000Z</time>
|
|
</trkpt>
|
|
<trkpt lat="54.900215" lon="8.671575">
|
|
<ele>-32.765477</ele>
|
|
<time>2026-07-10T11:04:04.000Z</time>
|
|
</trkpt>
|
|
<trkpt lat="54.900274" lon="8.671551">
|
|
<ele>-32.770752</ele>
|
|
<time>2026-07-10T11:04:05.000Z</time>
|
|
</trkpt>
|
|
<trkpt lat="54.900335" lon="8.671527">
|
|
<ele>-32.776196</ele>
|
|
<time>2026-07-10T11:04:06.000Z</time>
|
|
</trkpt>
|
|
<trkpt lat="54.900392" lon="8.671502">
|
|
<ele>-32.781314</ele>
|
|
<time>2026-07-10T11:04:07.000Z</time>
|
|
</trkpt>
|
|
<trkpt lat="54.900449" lon="8.671476">
|
|
<ele>-32.786444</ele>
|
|
<time>2026-07-10T11:04:08.000Z</time>
|
|
</trkpt>
|
|
<trkpt lat="54.900504" lon="8.671452">
|
|
<ele>-32.791380</ele>
|
|
<time>2026-07-10T11:04:09.000Z</time>
|
|
</trkpt>
|
|
<trkpt lat="54.900563" lon="8.671428">
|
|
<ele>-32.796655</ele>
|
|
<time>2026-07-10T11:04:10.000Z</time>
|
|
</trkpt>
|
|
<trkpt lat="54.900620" lon="8.671403">
|
|
<ele>-32.801772</ele>
|
|
<time>2026-07-10T11:04:11.000Z</time>
|
|
</trkpt>
|
|
<trkpt lat="54.900679" lon="8.671379">
|
|
<ele>-32.807047</ele>
|
|
<time>2026-07-10T11:04:12.000Z</time>
|
|
</trkpt>
|
|
<trkpt lat="54.900739" lon="8.671353">
|
|
<ele>-32.812430</ele>
|
|
<time>2026-07-10T11:04:13.000Z</time>
|
|
</trkpt>
|
|
<trkpt lat="54.900797" lon="8.671328">
|
|
<ele>-32.815095</ele>
|
|
<time>2026-07-10T11:04:14.000Z</time>
|
|
</trkpt>
|
|
<trkpt lat="54.900857" lon="8.671303">
|
|
<ele>-32.809312</ele>
|
|
<time>2026-07-10T11:04:15.000Z</time>
|
|
</trkpt>
|
|
<trkpt lat="54.900913" lon="8.671278">
|
|
<ele>-32.803893</ele>
|
|
<time>2026-07-10T11:04:16.000Z</time>
|
|
</trkpt>
|
|
<trkpt lat="54.900973" lon="8.671251">
|
|
<ele>-32.798084</ele>
|
|
<time>2026-07-10T11:04:17.000Z</time>
|
|
</trkpt>
|
|
<trkpt lat="54.901033" lon="8.671226">
|
|
<ele>-32.792301</ele>
|
|
<time>2026-07-10T11:04:18.000Z</time>
|
|
</trkpt>
|
|
<trkpt lat="54.901091" lon="8.671202">
|
|
<ele>-32.786713</ele>
|
|
<time>2026-07-10T11:04:19.000Z</time>
|
|
</trkpt>
|
|
<trkpt lat="54.901149" lon="8.671179">
|
|
<ele>-32.781137</ele>
|
|
<time>2026-07-10T11:04:20.000Z</time>
|
|
</trkpt>
|
|
<trkpt lat="54.901209" lon="8.671156">
|
|
<ele>-32.775379</ele>
|
|
<time>2026-07-10T11:04:21.000Z</time>
|
|
</trkpt>
|
|
<trkpt lat="54.901268" lon="8.671133">
|
|
<ele>-32.769711</ele>
|
|
<time>2026-07-10T11:04:22.000Z</time>
|
|
</trkpt>
|
|
<trkpt lat="54.901326" lon="8.671108">
|
|
<ele>-32.764111</ele>
|
|
<time>2026-07-10T11:04:23.000Z</time>
|
|
</trkpt>
|
|
<trkpt lat="54.901382" lon="8.671084">
|
|
<ele>-32.758705</ele>
|
|
<time>2026-07-10T11:04:24.000Z</time>
|
|
</trkpt>
|
|
<trkpt lat="54.901442" lon="8.671059">
|
|
<ele>-32.752922</ele>
|
|
<time>2026-07-10T11:04:25.000Z</time>
|
|
</trkpt>
|
|
<trkpt lat="54.901501" lon="8.671031">
|
|
<ele>-32.747190</ele>
|
|
<time>2026-07-10T11:04:26.000Z</time>
|
|
</trkpt>
|
|
<trkpt lat="54.901557" lon="8.671003">
|
|
<ele>-32.741729</ele>
|
|
<time>2026-07-10T11:04:27.000Z</time>
|
|
</trkpt>
|
|
<trkpt lat="54.901617" lon="8.670975">
|
|
<ele>-32.735906</ele>
|
|
<time>2026-07-10T11:04:28.000Z</time>
|
|
</trkpt>
|
|
<trkpt lat="54.901672" lon="8.670948">
|
|
<ele>-32.730549</ele>
|
|
<time>2026-07-10T11:04:29.000Z</time>
|
|
</trkpt>
|
|
<trkpt lat="54.901728" lon="8.670924">
|
|
<ele>-32.725144</ele>
|
|
<time>2026-07-10T11:04:30.000Z</time>
|
|
</trkpt>
|
|
<trkpt lat="54.901788" lon="8.670898">
|
|
<ele>-32.719348</ele>
|
|
<time>2026-07-10T11:04:31.000Z</time>
|
|
</trkpt>
|
|
<trkpt lat="54.901846" lon="8.670874">
|
|
<ele>-32.713760</ele>
|
|
<time>2026-07-10T11:04:32.000Z</time>
|
|
</trkpt>
|
|
<trkpt lat="54.901903" lon="8.670851">
|
|
<ele>-32.708276</ele>
|
|
<time>2026-07-10T11:04:33.000Z</time>
|
|
</trkpt>
|
|
<trkpt lat="54.901960" lon="8.670830">
|
|
<ele>-32.702815</ele>
|
|
<time>2026-07-10T11:04:34.000Z</time>
|
|
</trkpt>
|
|
<trkpt lat="54.902017" lon="8.670809">
|
|
<ele>-32.697354</ele>
|
|
<time>2026-07-10T11:04:35.000Z</time>
|
|
</trkpt>
|
|
<trkpt lat="54.902074" lon="8.670786">
|
|
<ele>-32.691869</ele>
|
|
<time>2026-07-10T11:04:36.000Z</time>
|
|
</trkpt>
|
|
<trkpt lat="54.902132" lon="8.670760">
|
|
<ele>-32.686255</ele>
|
|
<time>2026-07-10T11:04:37.000Z</time>
|
|
</trkpt>
|
|
<trkpt lat="54.902192" lon="8.670735">
|
|
<ele>-32.680472</ele>
|
|
<time>2026-07-10T11:04:38.000Z</time>
|
|
</trkpt>
|
|
<trkpt lat="54.902249" lon="8.670709">
|
|
<ele>-32.674949</ele>
|
|
<time>2026-07-10T11:04:39.000Z</time>
|
|
</trkpt>
|
|
<trkpt lat="54.902308" lon="8.670684">
|
|
<ele>-32.669257</ele>
|
|
<time>2026-07-10T11:04:40.000Z</time>
|
|
</trkpt>
|
|
<trkpt lat="54.902368" lon="8.670659">
|
|
<ele>-32.663475</ele>
|
|
<time>2026-07-10T11:04:41.000Z</time>
|
|
</trkpt>
|
|
<trkpt lat="54.902423" lon="8.670633">
|
|
<ele>-32.658133</ele>
|
|
<time>2026-07-10T11:04:42.000Z</time>
|
|
</trkpt>
|
|
<trkpt lat="54.902482" lon="8.670607">
|
|
<ele>-32.652428</ele>
|
|
<time>2026-07-10T11:04:43.000Z</time>
|
|
</trkpt>
|
|
<trkpt lat="54.902543" lon="8.670584">
|
|
<ele>-32.649502</ele>
|
|
<time>2026-07-10T11:04:44.000Z</time>
|
|
</trkpt>
|
|
<trkpt lat="54.902600" lon="8.670560">
|
|
<ele>-32.656878</ele>
|
|
<time>2026-07-10T11:04:45.000Z</time>
|
|
</trkpt>
|
|
<trkpt lat="54.902657" lon="8.670535">
|
|
<ele>-32.664270</ele>
|
|
<time>2026-07-10T11:04:46.000Z</time>
|
|
</trkpt>
|
|
<trkpt lat="54.902719" lon="8.670510">
|
|
<ele>-32.672274</ele>
|
|
<time>2026-07-10T11:04:47.000Z</time>
|
|
</trkpt>
|
|
<trkpt lat="54.902776" lon="8.670484">
|
|
<ele>-32.679685</ele>
|
|
<time>2026-07-10T11:04:48.000Z</time>
|
|
</trkpt>
|
|
<trkpt lat="54.902834" lon="8.670459">
|
|
<ele>-32.687200</ele>
|
|
<time>2026-07-10T11:04:49.000Z</time>
|
|
</trkpt>
|
|
<trkpt lat="54.902894" lon="8.670432">
|
|
<ele>-32.694994</ele>
|
|
<time>2026-07-10T11:04:50.000Z</time>
|
|
</trkpt>
|
|
<trkpt lat="54.902952" lon="8.670405">
|
|
<ele>-32.702544</ele>
|
|
<time>2026-07-10T11:04:51.000Z</time>
|
|
</trkpt>
|
|
<trkpt lat="54.903009" lon="8.670378">
|
|
<ele>-32.709974</ele>
|
|
<time>2026-07-10T11:04:52.000Z</time>
|
|
</trkpt>
|
|
<trkpt lat="54.903067" lon="8.670353">
|
|
<ele>-32.717488</ele>
|
|
<time>2026-07-10T11:04:53.000Z</time>
|
|
</trkpt>
|
|
<trkpt lat="54.903127" lon="8.670328">
|
|
<ele>-32.725247</ele>
|
|
<time>2026-07-10T11:04:54.000Z</time>
|
|
</trkpt>
|
|
<trkpt lat="54.903190" lon="8.670303">
|
|
<ele>-32.733374</ele>
|
|
<time>2026-07-10T11:04:55.000Z</time>
|
|
</trkpt>
|
|
<trkpt lat="54.903249" lon="8.670278">
|
|
<ele>-32.741010</ele>
|
|
<time>2026-07-10T11:04:56.000Z</time>
|
|
</trkpt>
|
|
<trkpt lat="54.903306" lon="8.670253">
|
|
<ele>-32.748403</ele>
|
|
<time>2026-07-10T11:04:57.000Z</time>
|
|
</trkpt>
|
|
<trkpt lat="54.903367" lon="8.670227">
|
|
<ele>-32.756301</ele>
|
|
<time>2026-07-10T11:04:58.000Z</time>
|
|
</trkpt>
|
|
<trkpt lat="54.903429" lon="8.670200">
|
|
<ele>-32.764339</ele>
|
|
<time>2026-07-10T11:04:59.000Z</time>
|
|
</trkpt>
|
|
<trkpt lat="54.903487" lon="8.670173">
|
|
<ele>-32.771890</ele>
|
|
<time>2026-07-10T11:05:00.000Z</time>
|
|
</trkpt>
|
|
<trkpt lat="54.903547" lon="8.670148">
|
|
<ele>-32.779649</ele>
|
|
<time>2026-07-10T11:05:01.000Z</time>
|
|
</trkpt>
|
|
<trkpt lat="54.903605" lon="8.670125">
|
|
<ele>-32.787130</ele>
|
|
<time>2026-07-10T11:05:02.000Z</time>
|
|
</trkpt>
|
|
<trkpt lat="54.903664" lon="8.670103">
|
|
<ele>-32.794718</ele>
|
|
<time>2026-07-10T11:05:03.000Z</time>
|
|
</trkpt>
|
|
<trkpt lat="54.903719" lon="8.670080">
|
|
<ele>-32.801832</ele>
|
|
<time>2026-07-10T11:05:04.000Z</time>
|
|
</trkpt>
|
|
<trkpt lat="54.903779" lon="8.670056">
|
|
<ele>-32.809575</ele>
|
|
<time>2026-07-10T11:05:05.000Z</time>
|
|
</trkpt>
|
|
<trkpt lat="54.903838" lon="8.670034">
|
|
<ele>-32.817163</ele>
|
|
<time>2026-07-10T11:05:06.000Z</time>
|
|
</trkpt>
|
|
<trkpt lat="54.903901" lon="8.670012">
|
|
<ele>-32.825244</ele>
|
|
<time>2026-07-10T11:05:07.000Z</time>
|
|
</trkpt>
|
|
<trkpt lat="54.903958" lon="8.669988">
|
|
<ele>-32.832619</ele>
|
|
<time>2026-07-10T11:05:08.000Z</time>
|
|
</trkpt>
|
|
<trkpt lat="54.904020" lon="8.669963">
|
|
<ele>-32.840623</ele>
|
|
<time>2026-07-10T11:05:09.000Z</time>
|
|
</trkpt>
|
|
<trkpt lat="54.904079" lon="8.669939">
|
|
<ele>-32.848243</ele>
|
|
<time>2026-07-10T11:05:10.000Z</time>
|
|
</trkpt>
|
|
<trkpt lat="54.904141" lon="8.669915">
|
|
<ele>-32.856231</ele>
|
|
<time>2026-07-10T11:05:11.000Z</time>
|
|
</trkpt>
|
|
<trkpt lat="54.904199" lon="8.669890">
|
|
<ele>-32.863745</ele>
|
|
<time>2026-07-10T11:05:12.000Z</time>
|
|
</trkpt>
|
|
<trkpt lat="54.904259" lon="8.669864">
|
|
<ele>-32.871521</ele>
|
|
<time>2026-07-10T11:05:13.000Z</time>
|
|
</trkpt>
|
|
<trkpt lat="54.904319" lon="8.669839">
|
|
<ele>-32.867800</ele>
|
|
<time>2026-07-10T11:05:14.000Z</time>
|
|
</trkpt>
|
|
<trkpt lat="54.904379" lon="8.669816">
|
|
<ele>-32.858660</ele>
|
|
<time>2026-07-10T11:05:15.000Z</time>
|
|
</trkpt>
|
|
<trkpt lat="54.904443" lon="8.669793">
|
|
<ele>-32.848938</ele>
|
|
<time>2026-07-10T11:05:16.000Z</time>
|
|
</trkpt>
|
|
<trkpt lat="54.904500" lon="8.669771">
|
|
<ele>-32.840253</ele>
|
|
<time>2026-07-10T11:05:17.000Z</time>
|
|
</trkpt>
|
|
<trkpt lat="54.904557" lon="8.669748">
|
|
<ele>-32.831548</ele>
|
|
<time>2026-07-10T11:05:18.000Z</time>
|
|
</trkpt>
|
|
<trkpt lat="54.904617" lon="8.669723">
|
|
<ele>-32.822370</ele>
|
|
<time>2026-07-10T11:05:19.000Z</time>
|
|
</trkpt>
|
|
<trkpt lat="54.904675" lon="8.669696">
|
|
<ele>-32.813439</ele>
|
|
<time>2026-07-10T11:05:20.000Z</time>
|
|
</trkpt>
|
|
<trkpt lat="54.904734" lon="8.669671">
|
|
<ele>-32.804405</ele>
|
|
<time>2026-07-10T11:05:21.000Z</time>
|
|
</trkpt>
|
|
<trkpt lat="54.904794" lon="8.669645">
|
|
<ele>-32.795207</ele>
|
|
<time>2026-07-10T11:05:22.000Z</time>
|
|
</trkpt>
|
|
<trkpt lat="54.904856" lon="8.669618">
|
|
<ele>-32.785699</ele>
|
|
<time>2026-07-10T11:05:23.000Z</time>
|
|
</trkpt>
|
|
<trkpt lat="54.904916" lon="8.669592">
|
|
<ele>-32.776501</ele>
|
|
<time>2026-07-10T11:05:24.000Z</time>
|
|
</trkpt>
|
|
<trkpt lat="54.904975" lon="8.669568">
|
|
<ele>-32.767487</ele>
|
|
<time>2026-07-10T11:05:25.000Z</time>
|
|
</trkpt>
|
|
<trkpt lat="54.905037" lon="8.669546">
|
|
<ele>-32.758074</ele>
|
|
<time>2026-07-10T11:05:26.000Z</time>
|
|
</trkpt>
|
|
<trkpt lat="54.905101" lon="8.669522">
|
|
<ele>-32.748335</ele>
|
|
<time>2026-07-10T11:05:27.000Z</time>
|
|
</trkpt>
|
|
<trkpt lat="54.905161" lon="8.669500">
|
|
<ele>-32.739213</ele>
|
|
<time>2026-07-10T11:05:28.000Z</time>
|
|
</trkpt>
|
|
<trkpt lat="54.905222" lon="8.669474">
|
|
<ele>-32.729870</ele>
|
|
<time>2026-07-10T11:05:29.000Z</time>
|
|
</trkpt>
|
|
<trkpt lat="54.905281" lon="8.669448">
|
|
<ele>-32.720816</ele>
|
|
<time>2026-07-10T11:05:30.000Z</time>
|
|
</trkpt>
|
|
<trkpt lat="54.905340" lon="8.669423">
|
|
<ele>-32.711782</ele>
|
|
<time>2026-07-10T11:05:31.000Z</time>
|
|
</trkpt>
|
|
<trkpt lat="54.905402" lon="8.669398">
|
|
<ele>-32.702315</ele>
|
|
<time>2026-07-10T11:05:32.000Z</time>
|
|
</trkpt>
|
|
<trkpt lat="54.905462" lon="8.669374">
|
|
<ele>-32.693156</ele>
|
|
<time>2026-07-10T11:05:33.000Z</time>
|
|
</trkpt>
|
|
<trkpt lat="54.905524" lon="8.669350">
|
|
<ele>-32.683708</ele>
|
|
<time>2026-07-10T11:05:34.000Z</time>
|
|
</trkpt>
|
|
<trkpt lat="54.905584" lon="8.669328">
|
|
<ele>-32.674586</ele>
|
|
<time>2026-07-10T11:05:35.000Z</time>
|
|
</trkpt>
|
|
<trkpt lat="54.905646" lon="8.669309">
|
|
<ele>-32.665221</ele>
|
|
<time>2026-07-10T11:05:36.000Z</time>
|
|
</trkpt>
|
|
<trkpt lat="54.905711" lon="8.669292">
|
|
<ele>-32.655443</ele>
|
|
<time>2026-07-10T11:05:37.000Z</time>
|
|
</trkpt>
|
|
<trkpt lat="54.905771" lon="8.669281">
|
|
<ele>-32.646468</ele>
|
|
<time>2026-07-10T11:05:38.000Z</time>
|
|
</trkpt>
|
|
<trkpt lat="54.905835" lon="8.669274">
|
|
<ele>-32.636928</ele>
|
|
<time>2026-07-10T11:05:39.000Z</time>
|
|
</trkpt>
|
|
<trkpt lat="54.905898" lon="8.669269">
|
|
<ele>-32.627547</ele>
|
|
<time>2026-07-10T11:05:40.000Z</time>
|
|
</trkpt>
|
|
<trkpt lat="54.905959" lon="8.669269">
|
|
<ele>-32.618472</ele>
|
|
<time>2026-07-10T11:05:41.000Z</time>
|
|
</trkpt>
|
|
<trkpt lat="54.906020" lon="8.669273">
|
|
<ele>-32.609392</ele>
|
|
<time>2026-07-10T11:05:42.000Z</time>
|
|
</trkpt>
|
|
<trkpt lat="54.906081" lon="8.669277">
|
|
<ele>-32.603250</ele>
|
|
<time>2026-07-10T11:05:43.000Z</time>
|
|
</trkpt>
|
|
<trkpt lat="54.906146" lon="8.669283">
|
|
<ele>-32.598198</ele>
|
|
<time>2026-07-10T11:05:44.000Z</time>
|
|
</trkpt>
|
|
<trkpt lat="54.906206" lon="8.669292">
|
|
<ele>-32.593524</ele>
|
|
<time>2026-07-10T11:05:45.000Z</time>
|
|
</trkpt>
|
|
<trkpt lat="54.906267" lon="8.669303">
|
|
<ele>-32.588764</ele>
|
|
<time>2026-07-10T11:05:46.000Z</time>
|
|
</trkpt>
|
|
<trkpt lat="54.906329" lon="8.669316">
|
|
<ele>-32.583918</ele>
|
|
<time>2026-07-10T11:05:47.000Z</time>
|
|
</trkpt>
|
|
<trkpt lat="54.906390" lon="8.669331">
|
|
<ele>-32.579136</ele>
|
|
<time>2026-07-10T11:05:48.000Z</time>
|
|
</trkpt>
|
|
<trkpt lat="54.906450" lon="8.669347">
|
|
<ele>-32.574425</ele>
|
|
<time>2026-07-10T11:05:49.000Z</time>
|
|
</trkpt>
|
|
<trkpt lat="54.906510" lon="8.669362">
|
|
<ele>-32.569720</ele>
|
|
<time>2026-07-10T11:05:50.000Z</time>
|
|
</trkpt>
|
|
<trkpt lat="54.906573" lon="8.669378">
|
|
<ele>-32.564779</ele>
|
|
<time>2026-07-10T11:05:51.000Z</time>
|
|
</trkpt>
|
|
<trkpt lat="54.906634" lon="8.669396">
|
|
<ele>-32.559977</ele>
|
|
<time>2026-07-10T11:05:52.000Z</time>
|
|
</trkpt>
|
|
<trkpt lat="54.906694" lon="8.669418">
|
|
<ele>-32.555218</ele>
|
|
<time>2026-07-10T11:05:53.000Z</time>
|
|
</trkpt>
|
|
<trkpt lat="54.906756" lon="8.669440">
|
|
<ele>-32.550307</ele>
|
|
<time>2026-07-10T11:05:54.000Z</time>
|
|
</trkpt>
|
|
<trkpt lat="54.906813" lon="8.669459">
|
|
<ele>-32.545802</ele>
|
|
<time>2026-07-10T11:05:55.000Z</time>
|
|
</trkpt>
|
|
<trkpt lat="54.906872" lon="8.669478">
|
|
<ele>-32.541145</ele>
|
|
<time>2026-07-10T11:05:56.000Z</time>
|
|
</trkpt>
|
|
<trkpt lat="54.906931" lon="8.669496">
|
|
<ele>-32.536496</ele>
|
|
<time>2026-07-10T11:05:57.000Z</time>
|
|
</trkpt>
|
|
<trkpt lat="54.906990" lon="8.669511">
|
|
<ele>-32.531869</ele>
|
|
<time>2026-07-10T11:05:58.000Z</time>
|
|
</trkpt>
|
|
<trkpt lat="54.907048" lon="8.669528">
|
|
<ele>-32.527304</ele>
|
|
<time>2026-07-10T11:05:59.000Z</time>
|
|
</trkpt>
|
|
<trkpt lat="54.907106" lon="8.669545">
|
|
<ele>-32.522739</ele>
|
|
<time>2026-07-10T11:06:00.000Z</time>
|
|
</trkpt>
|
|
<trkpt lat="54.907165" lon="8.669562">
|
|
<ele>-32.518097</ele>
|
|
<time>2026-07-10T11:06:01.000Z</time>
|
|
</trkpt>
|
|
<trkpt lat="54.907225" lon="8.669579">
|
|
<ele>-32.513379</ele>
|
|
<time>2026-07-10T11:06:02.000Z</time>
|
|
</trkpt>
|
|
<trkpt lat="54.907285" lon="8.669591">
|
|
<ele>-32.508692</ele>
|
|
<time>2026-07-10T11:06:03.000Z</time>
|
|
</trkpt>
|
|
<trkpt lat="54.907346" lon="8.669602">
|
|
<ele>-32.503932</ele>
|
|
<time>2026-07-10T11:06:04.000Z</time>
|
|
</trkpt>
|
|
<trkpt lat="54.907409" lon="8.669611">
|
|
<ele>-32.499026</ele>
|
|
<time>2026-07-10T11:06:05.000Z</time>
|
|
</trkpt>
|
|
<trkpt lat="54.907468" lon="8.669619">
|
|
<ele>-32.494433</ele>
|
|
<time>2026-07-10T11:06:06.000Z</time>
|
|
</trkpt>
|
|
<trkpt lat="54.907527" lon="8.669629">
|
|
<ele>-32.489832</ele>
|
|
<time>2026-07-10T11:06:07.000Z</time>
|
|
</trkpt>
|
|
<trkpt lat="54.907588" lon="8.669639">
|
|
<ele>-32.485077</ele>
|
|
<time>2026-07-10T11:06:08.000Z</time>
|
|
</trkpt>
|
|
<trkpt lat="54.907648" lon="8.669648">
|
|
<ele>-32.480403</ele>
|
|
<time>2026-07-10T11:06:09.000Z</time>
|
|
</trkpt>
|
|
<trkpt lat="54.907706" lon="8.669655">
|
|
<ele>-32.475890</ele>
|
|
<time>2026-07-10T11:06:10.000Z</time>
|
|
</trkpt>
|
|
<trkpt lat="54.907765" lon="8.669659">
|
|
<ele>-32.471308</ele>
|
|
<time>2026-07-10T11:06:11.000Z</time>
|
|
</trkpt>
|
|
<trkpt lat="54.907824" lon="8.669658">
|
|
<ele>-32.466926</ele>
|
|
<time>2026-07-10T11:06:12.000Z</time>
|
|
</trkpt>
|
|
<trkpt lat="54.907878" lon="8.669656">
|
|
<ele>-32.469058</ele>
|
|
<time>2026-07-10T11:06:13.000Z</time>
|
|
</trkpt>
|
|
<trkpt lat="54.907945" lon="8.669655">
|
|
<ele>-32.471703</ele>
|
|
<time>2026-07-10T11:06:14.000Z</time>
|
|
</trkpt>
|
|
<trkpt lat="54.908003" lon="8.669655">
|
|
<ele>-32.473992</ele>
|
|
<time>2026-07-10T11:06:15.000Z</time>
|
|
</trkpt>
|
|
<trkpt lat="54.908063" lon="8.669654">
|
|
<ele>-32.476361</ele>
|
|
<time>2026-07-10T11:06:16.000Z</time>
|
|
</trkpt>
|
|
<trkpt lat="54.908120" lon="8.669652">
|
|
<ele>-32.478611</ele>
|
|
<time>2026-07-10T11:06:17.000Z</time>
|
|
</trkpt>
|
|
<trkpt lat="54.908181" lon="8.669649">
|
|
<ele>-32.481020</ele>
|
|
<time>2026-07-10T11:06:18.000Z</time>
|
|
</trkpt>
|
|
<trkpt lat="54.908239" lon="8.669645">
|
|
<ele>-32.483311</ele>
|
|
<time>2026-07-10T11:06:19.000Z</time>
|
|
</trkpt>
|
|
<trkpt lat="54.908300" lon="8.669641">
|
|
<ele>-32.485721</ele>
|
|
<time>2026-07-10T11:06:20.000Z</time>
|
|
</trkpt>
|
|
<trkpt lat="54.908358" lon="8.669639">
|
|
<ele>-32.488011</ele>
|
|
<time>2026-07-10T11:06:21.000Z</time>
|
|
</trkpt>
|
|
<trkpt lat="54.908418" lon="8.669638">
|
|
<ele>-32.490379</ele>
|
|
<time>2026-07-10T11:06:22.000Z</time>
|
|
</trkpt>
|
|
<trkpt lat="54.908475" lon="8.669634">
|
|
<ele>-32.492631</ele>
|
|
<time>2026-07-10T11:06:23.000Z</time>
|
|
</trkpt>
|
|
<trkpt lat="54.908537" lon="8.669630">
|
|
<ele>-32.495080</ele>
|
|
<time>2026-07-10T11:06:24.000Z</time>
|
|
</trkpt>
|
|
<trkpt lat="54.908594" lon="8.669626">
|
|
<ele>-32.497332</ele>
|
|
<time>2026-07-10T11:06:25.000Z</time>
|
|
</trkpt>
|
|
<trkpt lat="54.908654" lon="8.669625">
|
|
<ele>-32.499701</ele>
|
|
<time>2026-07-10T11:06:26.000Z</time>
|
|
</trkpt>
|
|
<trkpt lat="54.908712" lon="8.669622">
|
|
<ele>-32.501991</ele>
|
|
<time>2026-07-10T11:06:27.000Z</time>
|
|
</trkpt>
|
|
<trkpt lat="54.908774" lon="8.669618">
|
|
<ele>-32.504440</ele>
|
|
<time>2026-07-10T11:06:28.000Z</time>
|
|
</trkpt>
|
|
<trkpt lat="54.908834" lon="8.669614">
|
|
<ele>-32.506810</ele>
|
|
<time>2026-07-10T11:06:29.000Z</time>
|
|
</trkpt>
|
|
<trkpt lat="54.908892" lon="8.669612">
|
|
<ele>-32.509100</ele>
|
|
<time>2026-07-10T11:06:30.000Z</time>
|
|
</trkpt>
|
|
<trkpt lat="54.908951" lon="8.669609">
|
|
<ele>-32.511430</ele>
|
|
<time>2026-07-10T11:06:31.000Z</time>
|
|
</trkpt>
|
|
<trkpt lat="54.909010" lon="8.669605">
|
|
<ele>-32.513761</ele>
|
|
<time>2026-07-10T11:06:32.000Z</time>
|
|
</trkpt>
|
|
<trkpt lat="54.909071" lon="8.669601">
|
|
<ele>-32.516170</ele>
|
|
<time>2026-07-10T11:06:33.000Z</time>
|
|
</trkpt>
|
|
<trkpt lat="54.909128" lon="8.669600">
|
|
<ele>-32.518421</ele>
|
|
<time>2026-07-10T11:06:34.000Z</time>
|
|
</trkpt>
|
|
<trkpt lat="54.909185" lon="8.669605">
|
|
<ele>-32.520673</ele>
|
|
<time>2026-07-10T11:06:35.000Z</time>
|
|
</trkpt>
|
|
<trkpt lat="54.909245" lon="8.669612">
|
|
<ele>-32.523047</ele>
|
|
<time>2026-07-10T11:06:36.000Z</time>
|
|
</trkpt>
|
|
<trkpt lat="54.909303" lon="8.669623">
|
|
<ele>-32.525350</ele>
|
|
<time>2026-07-10T11:06:37.000Z</time>
|
|
</trkpt>
|
|
<trkpt lat="54.909359" lon="8.669636">
|
|
<ele>-32.527580</ele>
|
|
<time>2026-07-10T11:06:38.000Z</time>
|
|
</trkpt>
|
|
<trkpt lat="54.909418" lon="8.669647">
|
|
<ele>-32.529923</ele>
|
|
<time>2026-07-10T11:06:39.000Z</time>
|
|
</trkpt>
|
|
<trkpt lat="54.909473" lon="8.669660">
|
|
<ele>-32.532114</ele>
|
|
<time>2026-07-10T11:06:40.000Z</time>
|
|
</trkpt>
|
|
<trkpt lat="54.909523" lon="8.669678">
|
|
<ele>-32.534129</ele>
|
|
<time>2026-07-10T11:06:41.000Z</time>
|
|
</trkpt>
|
|
<trkpt lat="54.909575" lon="8.669698">
|
|
<ele>-32.536231</ele>
|
|
<time>2026-07-10T11:06:42.000Z</time>
|
|
</trkpt>
|
|
<trkpt lat="54.909625" lon="8.669718">
|
|
<ele>-32.526866</ele>
|
|
<time>2026-07-10T11:06:43.000Z</time>
|
|
</trkpt>
|
|
<trkpt lat="54.909675" lon="8.669741">
|
|
<ele>-32.470527</ele>
|
|
<time>2026-07-10T11:06:44.000Z</time>
|
|
</trkpt>
|
|
<trkpt lat="54.909725" lon="8.669770">
|
|
<ele>-32.413112</ele>
|
|
<time>2026-07-10T11:06:45.000Z</time>
|
|
</trkpt>
|
|
<trkpt lat="54.909775" lon="8.669800">
|
|
<ele>-32.355496</ele>
|
|
<time>2026-07-10T11:06:46.000Z</time>
|
|
</trkpt>
|
|
<trkpt lat="54.909823" lon="8.669837">
|
|
<ele>-32.298303</ele>
|
|
<time>2026-07-10T11:06:47.000Z</time>
|
|
</trkpt>
|
|
<trkpt lat="54.909872" lon="8.669875">
|
|
<ele>-32.239861</ele>
|
|
<time>2026-07-10T11:06:48.000Z</time>
|
|
</trkpt>
|
|
<trkpt lat="54.909921" lon="8.669914">
|
|
<ele>-32.181162</ele>
|
|
<time>2026-07-10T11:06:49.000Z</time>
|
|
</trkpt>
|
|
<trkpt lat="54.909971" lon="8.669954">
|
|
<ele>-32.121211</ele>
|
|
<time>2026-07-10T11:06:50.000Z</time>
|
|
</trkpt>
|
|
<trkpt lat="54.910018" lon="8.669996">
|
|
<ele>-32.063651</ele>
|
|
<time>2026-07-10T11:06:51.000Z</time>
|
|
</trkpt>
|
|
<trkpt lat="54.910067" lon="8.670040">
|
|
<ele>-32.003581</ele>
|
|
<time>2026-07-10T11:06:52.000Z</time>
|
|
</trkpt>
|
|
<trkpt lat="54.910112" lon="8.670088">
|
|
<ele>-31.946078</ele>
|
|
<time>2026-07-10T11:06:53.000Z</time>
|
|
</trkpt>
|
|
<trkpt lat="54.910158" lon="8.670133">
|
|
<ele>-31.888588</ele>
|
|
<time>2026-07-10T11:06:54.000Z</time>
|
|
</trkpt>
|
|
<trkpt lat="54.910204" lon="8.670175">
|
|
<ele>-31.831996</ele>
|
|
<time>2026-07-10T11:06:55.000Z</time>
|
|
</trkpt>
|
|
<trkpt lat="54.910252" lon="8.670218">
|
|
<ele>-31.773181</ele>
|
|
<time>2026-07-10T11:06:56.000Z</time>
|
|
</trkpt>
|
|
<trkpt lat="54.910303" lon="8.670260">
|
|
<ele>-31.711713</ele>
|
|
<time>2026-07-10T11:06:57.000Z</time>
|
|
</trkpt>
|
|
<trkpt lat="54.910350" lon="8.670291">
|
|
<ele>-31.656957</ele>
|
|
<time>2026-07-10T11:06:58.000Z</time>
|
|
</trkpt>
|
|
<trkpt lat="54.910401" lon="8.670313">
|
|
<ele>-31.599718</ele>
|
|
<time>2026-07-10T11:06:59.000Z</time>
|
|
</trkpt>
|
|
<trkpt lat="54.910452" lon="8.670319">
|
|
<ele>-31.544035</ele>
|
|
<time>2026-07-10T11:07:00.000Z</time>
|
|
</trkpt>
|
|
<trkpt lat="54.910503" lon="8.670317">
|
|
<ele>-31.488464</ele>
|
|
<time>2026-07-10T11:07:01.000Z</time>
|
|
</trkpt>
|
|
<trkpt lat="54.910557" lon="8.670308">
|
|
<ele>-31.429370</ele>
|
|
<time>2026-07-10T11:07:02.000Z</time>
|
|
</trkpt>
|
|
<trkpt lat="54.910610" lon="8.670296">
|
|
<ele>-31.371148</ele>
|
|
<time>2026-07-10T11:07:03.000Z</time>
|
|
</trkpt>
|
|
<trkpt lat="54.910662" lon="8.670282">
|
|
<ele>-31.313827</ele>
|
|
<time>2026-07-10T11:07:04.000Z</time>
|
|
</trkpt>
|
|
<trkpt lat="54.910712" lon="8.670262">
|
|
<ele>-31.257939</ele>
|
|
<time>2026-07-10T11:07:05.000Z</time>
|
|
</trkpt>
|
|
<trkpt lat="54.910761" lon="8.670236">
|
|
<ele>-31.202133</ele>
|
|
<time>2026-07-10T11:07:06.000Z</time>
|
|
</trkpt>
|
|
<trkpt lat="54.910806" lon="8.670206">
|
|
<ele>-31.149636</ele>
|
|
<time>2026-07-10T11:07:07.000Z</time>
|
|
</trkpt>
|
|
<trkpt lat="54.910852" lon="8.670173">
|
|
<ele>-31.095433</ele>
|
|
<time>2026-07-10T11:07:08.000Z</time>
|
|
</trkpt>
|
|
<trkpt lat="54.910897" lon="8.670137">
|
|
<ele>-31.041477</ele>
|
|
<time>2026-07-10T11:07:09.000Z</time>
|
|
</trkpt>
|
|
<trkpt lat="54.910937" lon="8.670100">
|
|
<ele>-30.992126</ele>
|
|
<time>2026-07-10T11:07:10.000Z</time>
|
|
</trkpt>
|
|
<trkpt lat="54.910979" lon="8.670060">
|
|
<ele>-30.939966</ele>
|
|
<time>2026-07-10T11:07:11.000Z</time>
|
|
</trkpt>
|
|
<trkpt lat="54.911018" lon="8.670020">
|
|
<ele>-30.890647</ele>
|
|
<time>2026-07-10T11:07:12.000Z</time>
|
|
</trkpt>
|
|
<trkpt lat="54.911054" lon="8.669982">
|
|
<ele>-30.844776</ele>
|
|
<time>2026-07-10T11:07:13.000Z</time>
|
|
</trkpt>
|
|
<trkpt lat="54.911085" lon="8.669944">
|
|
<ele>-30.803464</ele>
|
|
<time>2026-07-10T11:07:14.000Z</time>
|
|
</trkpt>
|
|
<trkpt lat="54.911118" lon="8.669905">
|
|
<ele>-30.760005</ele>
|
|
<time>2026-07-10T11:07:15.000Z</time>
|
|
</trkpt>
|
|
<trkpt lat="54.911146" lon="8.669871">
|
|
<ele>-30.722807</ele>
|
|
<time>2026-07-10T11:07:16.000Z</time>
|
|
</trkpt>
|
|
<trkpt lat="54.911180" lon="8.669840">
|
|
<ele>-30.680991</ele>
|
|
<time>2026-07-10T11:07:17.000Z</time>
|
|
</trkpt>
|
|
<trkpt lat="54.911208" lon="8.669808">
|
|
<ele>-30.644496</ele>
|
|
<time>2026-07-10T11:07:18.000Z</time>
|
|
</trkpt>
|
|
<trkpt lat="54.911232" lon="8.669776">
|
|
<ele>-30.611555</ele>
|
|
<time>2026-07-10T11:07:19.000Z</time>
|
|
</trkpt>
|
|
<trkpt lat="54.911258" lon="8.669743">
|
|
<ele>-30.577907</ele>
|
|
<time>2026-07-10T11:07:20.000Z</time>
|
|
</trkpt>
|
|
<trkpt lat="54.911278" lon="8.669709">
|
|
<ele>-30.568724</ele>
|
|
<time>2026-07-10T11:07:21.000Z</time>
|
|
</trkpt>
|
|
<trkpt lat="54.911290" lon="8.669672">
|
|
<ele>-30.560704</ele>
|
|
<time>2026-07-10T11:07:22.000Z</time>
|
|
</trkpt>
|
|
<trkpt lat="54.911294" lon="8.669630">
|
|
<ele>-30.552667</ele>
|
|
<time>2026-07-10T11:07:23.000Z</time>
|
|
</trkpt>
|
|
<trkpt lat="54.911298" lon="8.669589">
|
|
<ele>-30.544816</ele>
|
|
<time>2026-07-10T11:07:24.000Z</time>
|
|
</trkpt>
|
|
<trkpt lat="54.911302" lon="8.669545">
|
|
<ele>-30.536406</ele>
|
|
<time>2026-07-10T11:07:25.000Z</time>
|
|
</trkpt>
|
|
<trkpt lat="54.911306" lon="8.669499">
|
|
<ele>-30.527624</ele>
|
|
<time>2026-07-10T11:07:26.000Z</time>
|
|
</trkpt>
|
|
<trkpt lat="54.911308" lon="8.669448">
|
|
<ele>-30.517973</ele>
|
|
<time>2026-07-10T11:07:27.000Z</time>
|
|
</trkpt>
|
|
<trkpt lat="54.911308" lon="8.669397">
|
|
<ele>-30.508345</ele>
|
|
<time>2026-07-10T11:07:28.000Z</time>
|
|
</trkpt>
|
|
<trkpt lat="54.911308" lon="8.669347">
|
|
<ele>-30.498906</ele>
|
|
<time>2026-07-10T11:07:29.000Z</time>
|
|
</trkpt>
|
|
<trkpt lat="54.911309" lon="8.669294">
|
|
<ele>-30.488895</ele>
|
|
<time>2026-07-10T11:07:30.000Z</time>
|
|
</trkpt>
|
|
<trkpt lat="54.911313" lon="8.669239">
|
|
<ele>-30.478430</ele>
|
|
<time>2026-07-10T11:07:31.000Z</time>
|
|
</trkpt>
|
|
<trkpt lat="54.911317" lon="8.669186">
|
|
<ele>-30.468338</ele>
|
|
<time>2026-07-10T11:07:32.000Z</time>
|
|
</trkpt>
|
|
<trkpt lat="54.911320" lon="8.669131">
|
|
<ele>-30.457909</ele>
|
|
<time>2026-07-10T11:07:33.000Z</time>
|
|
</trkpt>
|
|
<trkpt lat="54.911320" lon="8.669080">
|
|
<ele>-30.448281</ele>
|
|
<time>2026-07-10T11:07:34.000Z</time>
|
|
</trkpt>
|
|
<trkpt lat="54.911320" lon="8.669027">
|
|
<ele>-30.438275</ele>
|
|
<time>2026-07-10T11:07:35.000Z</time>
|
|
</trkpt>
|
|
<trkpt lat="54.911320" lon="8.668972">
|
|
<ele>-30.427892</ele>
|
|
<time>2026-07-10T11:07:36.000Z</time>
|
|
</trkpt>
|
|
<trkpt lat="54.911320" lon="8.668916">
|
|
<ele>-30.417320</ele>
|
|
<time>2026-07-10T11:07:37.000Z</time>
|
|
</trkpt>
|
|
<trkpt lat="54.911321" lon="8.668861">
|
|
<ele>-30.406932</ele>
|
|
<time>2026-07-10T11:07:38.000Z</time>
|
|
</trkpt>
|
|
<trkpt lat="54.911322" lon="8.668805">
|
|
<ele>-30.396355</ele>
|
|
<time>2026-07-10T11:07:39.000Z</time>
|
|
</trkpt>
|
|
<trkpt lat="54.911320" lon="8.668752">
|
|
<ele>-30.386328</ele>
|
|
<time>2026-07-10T11:07:40.000Z</time>
|
|
</trkpt>
|
|
<trkpt lat="54.911319" lon="8.668703">
|
|
<ele>-30.377072</ele>
|
|
<time>2026-07-10T11:07:41.000Z</time>
|
|
</trkpt>
|
|
<trkpt lat="54.911315" lon="8.668658">
|
|
<ele>-30.368476</ele>
|
|
<time>2026-07-10T11:07:42.000Z</time>
|
|
</trkpt>
|
|
<trkpt lat="54.911312" lon="8.668620">
|
|
<ele>-30.361235</ele>
|
|
<time>2026-07-10T11:07:43.000Z</time>
|
|
</trkpt>
|
|
<trkpt lat="54.911311" lon="8.668591">
|
|
<ele>-30.355750</ele>
|
|
<time>2026-07-10T11:07:44.000Z</time>
|
|
</trkpt>
|
|
<trkpt lat="54.911308" lon="8.668568">
|
|
<ele>-30.351298</ele>
|
|
<time>2026-07-10T11:07:45.000Z</time>
|
|
</trkpt>
|
|
<trkpt lat="54.911307" lon="8.668554">
|
|
<ele>-30.348635</ele>
|
|
<time>2026-07-10T11:07:46.000Z</time>
|
|
</trkpt>
|
|
<trkpt lat="54.911298" lon="8.668534">
|
|
<ele>-30.343840</ele>
|
|
<time>2026-07-10T11:08:34.000Z</time>
|
|
</trkpt>
|
|
<trkpt lat="54.911277" lon="8.668482">
|
|
<ele>-30.331843</ele>
|
|
<time>2026-07-10T11:08:35.000Z</time>
|
|
</trkpt>
|
|
<trkpt lat="54.911263" lon="8.668437">
|
|
<ele>-30.322183</ele>
|
|
<time>2026-07-10T11:08:36.000Z</time>
|
|
</trkpt>
|
|
<trkpt lat="54.911251" lon="8.668389">
|
|
<ele>-30.312302</ele>
|
|
<time>2026-07-10T11:08:37.000Z</time>
|
|
</trkpt>
|
|
<trkpt lat="54.911234" lon="8.668333">
|
|
<ele>-30.300346</ele>
|
|
<time>2026-07-10T11:08:38.000Z</time>
|
|
</trkpt>
|
|
<trkpt lat="54.911215" lon="8.668269">
|
|
<ele>-30.286748</ele>
|
|
<time>2026-07-10T11:08:39.000Z</time>
|
|
</trkpt>
|
|
<trkpt lat="54.911196" lon="8.668200">
|
|
<ele>-30.272304</ele>
|
|
<time>2026-07-10T11:08:40.000Z</time>
|
|
</trkpt>
|
|
<trkpt lat="54.911175" lon="8.668118">
|
|
<ele>-30.255357</ele>
|
|
<time>2026-07-10T11:08:41.000Z</time>
|
|
</trkpt>
|
|
<trkpt lat="54.911148" lon="8.668028">
|
|
<ele>-30.236192</ele>
|
|
<time>2026-07-10T11:08:42.000Z</time>
|
|
</trkpt>
|
|
<trkpt lat="54.911121" lon="8.667932">
|
|
<ele>-30.216016</ele>
|
|
<time>2026-07-10T11:08:43.000Z</time>
|
|
</trkpt>
|
|
<trkpt lat="54.911095" lon="8.667835">
|
|
<ele>-30.195811</ele>
|
|
<time>2026-07-10T11:08:44.000Z</time>
|
|
</trkpt>
|
|
<trkpt lat="54.911068" lon="8.667736">
|
|
<ele>-30.175125</ele>
|
|
<time>2026-07-10T11:08:45.000Z</time>
|
|
</trkpt>
|
|
<trkpt lat="54.911041" lon="8.667642">
|
|
<ele>-30.155287</ele>
|
|
<time>2026-07-10T11:08:46.000Z</time>
|
|
</trkpt>
|
|
<trkpt lat="54.911011" lon="8.667543">
|
|
<ele>-30.134160</ele>
|
|
<time>2026-07-10T11:08:47.000Z</time>
|
|
</trkpt>
|
|
<trkpt lat="54.910983" lon="8.667448">
|
|
<ele>-30.114006</ele>
|
|
<time>2026-07-10T11:08:48.000Z</time>
|
|
</trkpt>
|
|
<trkpt lat="54.910952" lon="8.667349">
|
|
<ele>-30.092723</ele>
|
|
<time>2026-07-10T11:08:49.000Z</time>
|
|
</trkpt>
|
|
<trkpt lat="54.910923" lon="8.667252">
|
|
<ele>-30.072082</ele>
|
|
<time>2026-07-10T11:08:50.000Z</time>
|
|
</trkpt>
|
|
<trkpt lat="54.910896" lon="8.667157">
|
|
<ele>-30.052076</ele>
|
|
<time>2026-07-10T11:08:51.000Z</time>
|
|
</trkpt>
|
|
<trkpt lat="54.910865" lon="8.667060">
|
|
<ele>-30.031124</ele>
|
|
<time>2026-07-10T11:08:52.000Z</time>
|
|
</trkpt>
|
|
<trkpt lat="54.910834" lon="8.666964">
|
|
<ele>-30.010337</ele>
|
|
<time>2026-07-10T11:08:53.000Z</time>
|
|
</trkpt>
|
|
<trkpt lat="54.910804" lon="8.666868">
|
|
<ele>-29.989709</ele>
|
|
<time>2026-07-10T11:08:54.000Z</time>
|
|
</trkpt>
|
|
<trkpt lat="54.910773" lon="8.666773">
|
|
<ele>-29.999471</ele>
|
|
<time>2026-07-10T11:08:55.000Z</time>
|
|
</trkpt>
|
|
<trkpt lat="54.910744" lon="8.666682">
|
|
<ele>-30.011669</ele>
|
|
<time>2026-07-10T11:08:56.000Z</time>
|
|
</trkpt>
|
|
<trkpt lat="54.910712" lon="8.666583">
|
|
<ele>-30.024985</ele>
|
|
<time>2026-07-10T11:08:57.000Z</time>
|
|
</trkpt>
|
|
<trkpt lat="54.910682" lon="8.666487">
|
|
<ele>-30.037796</ele>
|
|
<time>2026-07-10T11:08:58.000Z</time>
|
|
</trkpt>
|
|
<trkpt lat="54.910655" lon="8.666392">
|
|
<ele>-30.050220</ele>
|
|
<time>2026-07-10T11:08:59.000Z</time>
|
|
</trkpt>
|
|
<trkpt lat="54.910624" lon="8.666299">
|
|
<ele>-30.062824</ele>
|
|
<time>2026-07-10T11:09:00.000Z</time>
|
|
</trkpt>
|
|
<trkpt lat="54.910595" lon="8.666209">
|
|
<ele>-30.074920</ele>
|
|
<time>2026-07-10T11:09:01.000Z</time>
|
|
</trkpt>
|
|
<trkpt lat="54.910569" lon="8.666117">
|
|
<ele>-30.086939</ele>
|
|
<time>2026-07-10T11:09:02.000Z</time>
|
|
</trkpt>
|
|
<trkpt lat="54.910540" lon="8.666019">
|
|
<ele>-30.099862</ele>
|
|
<time>2026-07-10T11:09:03.000Z</time>
|
|
</trkpt>
|
|
<trkpt lat="54.910511" lon="8.665923">
|
|
<ele>-30.112576</ele>
|
|
<time>2026-07-10T11:09:04.000Z</time>
|
|
</trkpt>
|
|
<trkpt lat="54.910484" lon="8.665830">
|
|
<ele>-30.124791</ele>
|
|
<time>2026-07-10T11:09:05.000Z</time>
|
|
</trkpt>
|
|
<trkpt lat="54.910457" lon="8.665738">
|
|
<ele>-30.136902</ele>
|
|
<time>2026-07-10T11:09:06.000Z</time>
|
|
</trkpt>
|
|
<trkpt lat="54.910427" lon="8.665642">
|
|
<ele>-30.149712</ele>
|
|
<time>2026-07-10T11:09:07.000Z</time>
|
|
</trkpt>
|
|
<trkpt lat="54.910401" lon="8.665549">
|
|
<ele>-30.161836</ele>
|
|
<time>2026-07-10T11:09:08.000Z</time>
|
|
</trkpt>
|
|
<trkpt lat="54.910374" lon="8.665454">
|
|
<ele>-30.174261</ele>
|
|
<time>2026-07-10T11:09:09.000Z</time>
|
|
</trkpt>
|
|
<trkpt lat="54.910346" lon="8.665363">
|
|
<ele>-30.186362</ele>
|
|
<time>2026-07-10T11:09:10.000Z</time>
|
|
</trkpt>
|
|
<trkpt lat="54.910316" lon="8.665272">
|
|
<ele>-30.198661</ele>
|
|
<time>2026-07-10T11:09:11.000Z</time>
|
|
</trkpt>
|
|
<trkpt lat="54.910286" lon="8.665179">
|
|
<ele>-30.211164</ele>
|
|
<time>2026-07-10T11:09:12.000Z</time>
|
|
</trkpt>
|
|
<trkpt lat="54.910258" lon="8.665088">
|
|
<ele>-30.223265</ele>
|
|
<time>2026-07-10T11:09:13.000Z</time>
|
|
</trkpt>
|
|
<trkpt lat="54.910229" lon="8.664994">
|
|
<ele>-30.235772</ele>
|
|
<time>2026-07-10T11:09:14.000Z</time>
|
|
</trkpt>
|
|
<trkpt lat="54.910202" lon="8.664901">
|
|
<ele>-30.247987</ele>
|
|
<time>2026-07-10T11:09:15.000Z</time>
|
|
</trkpt>
|
|
<trkpt lat="54.910175" lon="8.664811">
|
|
<ele>-30.259889</ele>
|
|
<time>2026-07-10T11:09:16.000Z</time>
|
|
</trkpt>
|
|
<trkpt lat="54.910140" lon="8.664714">
|
|
<ele>-30.273316</ele>
|
|
<time>2026-07-10T11:09:17.000Z</time>
|
|
</trkpt>
|
|
<trkpt lat="54.910110" lon="8.664622">
|
|
<ele>-30.285717</ele>
|
|
<time>2026-07-10T11:09:18.000Z</time>
|
|
</trkpt>
|
|
<trkpt lat="54.910079" lon="8.664524">
|
|
<ele>-30.298831</ele>
|
|
<time>2026-07-10T11:09:19.000Z</time>
|
|
</trkpt>
|
|
<trkpt lat="54.910050" lon="8.664429">
|
|
<ele>-30.311442</ele>
|
|
<time>2026-07-10T11:09:20.000Z</time>
|
|
</trkpt>
|
|
<trkpt lat="54.910022" lon="8.664331">
|
|
<ele>-30.324273</ele>
|
|
<time>2026-07-10T11:09:21.000Z</time>
|
|
</trkpt>
|
|
<trkpt lat="54.909992" lon="8.664237">
|
|
<ele>-30.336878</ele>
|
|
<time>2026-07-10T11:09:22.000Z</time>
|
|
</trkpt>
|
|
<trkpt lat="54.909966" lon="8.664142">
|
|
<ele>-30.349214</ele>
|
|
<time>2026-07-10T11:09:23.000Z</time>
|
|
</trkpt>
|
|
<trkpt lat="54.909937" lon="8.664044">
|
|
<ele>-30.351943</ele>
|
|
<time>2026-07-10T11:09:24.000Z</time>
|
|
</trkpt>
|
|
<trkpt lat="54.909907" lon="8.663949">
|
|
<ele>-30.347327</ele>
|
|
<time>2026-07-10T11:09:25.000Z</time>
|
|
</trkpt>
|
|
<trkpt lat="54.909878" lon="8.663858">
|
|
<ele>-30.342897</ele>
|
|
<time>2026-07-10T11:09:26.000Z</time>
|
|
</trkpt>
|
|
<trkpt lat="54.909847" lon="8.663763">
|
|
<ele>-30.338245</ele>
|
|
<time>2026-07-10T11:09:27.000Z</time>
|
|
</trkpt>
|
|
<trkpt lat="54.909821" lon="8.663668">
|
|
<ele>-30.333765</ele>
|
|
<time>2026-07-10T11:09:28.000Z</time>
|
|
</trkpt>
|
|
<trkpt lat="54.909794" lon="8.663572">
|
|
<ele>-30.329214</ele>
|
|
<time>2026-07-10T11:09:29.000Z</time>
|
|
</trkpt>
|
|
<trkpt lat="54.909766" lon="8.663478">
|
|
<ele>-30.324706</ele>
|
|
<time>2026-07-10T11:09:30.000Z</time>
|
|
</trkpt>
|
|
<trkpt lat="54.909736" lon="8.663386">
|
|
<ele>-30.320203</ele>
|
|
<time>2026-07-10T11:09:31.000Z</time>
|
|
</trkpt>
|
|
<trkpt lat="54.909707" lon="8.663298">
|
|
<ele>-30.315884</ele>
|
|
<time>2026-07-10T11:09:32.000Z</time>
|
|
</trkpt>
|
|
<trkpt lat="54.909676" lon="8.663200">
|
|
<ele>-30.311121</ele>
|
|
<time>2026-07-10T11:09:33.000Z</time>
|
|
</trkpt>
|
|
<trkpt lat="54.909649" lon="8.663109">
|
|
<ele>-30.306760</ele>
|
|
<time>2026-07-10T11:09:34.000Z</time>
|
|
</trkpt>
|
|
<trkpt lat="54.909618" lon="8.663014">
|
|
<ele>-30.302109</ele>
|
|
<time>2026-07-10T11:09:35.000Z</time>
|
|
</trkpt>
|
|
<trkpt lat="54.909587" lon="8.662920">
|
|
<ele>-30.297494</ele>
|
|
<time>2026-07-10T11:09:36.000Z</time>
|
|
</trkpt>
|
|
<trkpt lat="54.909557" lon="8.662823">
|
|
<ele>-30.292804</ele>
|
|
<time>2026-07-10T11:09:37.000Z</time>
|
|
</trkpt>
|
|
<trkpt lat="54.909531" lon="8.662728">
|
|
<ele>-30.288324</ele>
|
|
<time>2026-07-10T11:09:38.000Z</time>
|
|
</trkpt>
|
|
<trkpt lat="54.909505" lon="8.662634">
|
|
<ele>-30.283882</ele>
|
|
<time>2026-07-10T11:09:39.000Z</time>
|
|
</trkpt>
|
|
<trkpt lat="54.909477" lon="8.662538">
|
|
<ele>-30.279298</ele>
|
|
<time>2026-07-10T11:09:40.000Z</time>
|
|
</trkpt>
|
|
<trkpt lat="54.909447" lon="8.662446">
|
|
<ele>-30.274794</ele>
|
|
<time>2026-07-10T11:09:41.000Z</time>
|
|
</trkpt>
|
|
<trkpt lat="54.909419" lon="8.662351">
|
|
<ele>-30.270248</ele>
|
|
<time>2026-07-10T11:09:42.000Z</time>
|
|
</trkpt>
|
|
<trkpt lat="54.909389" lon="8.662260">
|
|
<ele>-30.265782</ele>
|
|
<time>2026-07-10T11:09:43.000Z</time>
|
|
</trkpt>
|
|
<trkpt lat="54.909359" lon="8.662168">
|
|
<ele>-30.261278</ele>
|
|
<time>2026-07-10T11:09:44.000Z</time>
|
|
</trkpt>
|
|
<trkpt lat="54.909333" lon="8.662079">
|
|
<ele>-30.257027</ele>
|
|
<time>2026-07-10T11:09:45.000Z</time>
|
|
</trkpt>
|
|
<trkpt lat="54.909305" lon="8.661988">
|
|
<ele>-30.252632</ele>
|
|
<time>2026-07-10T11:09:46.000Z</time>
|
|
</trkpt>
|
|
<trkpt lat="54.909275" lon="8.661894">
|
|
<ele>-30.248054</ele>
|
|
<time>2026-07-10T11:09:47.000Z</time>
|
|
</trkpt>
|
|
<trkpt lat="54.909247" lon="8.661802">
|
|
<ele>-30.243621</ele>
|
|
<time>2026-07-10T11:09:48.000Z</time>
|
|
</trkpt>
|
|
<trkpt lat="54.909219" lon="8.661707">
|
|
<ele>-30.239075</ele>
|
|
<time>2026-07-10T11:09:49.000Z</time>
|
|
</trkpt>
|
|
<trkpt lat="54.909195" lon="8.661616">
|
|
<ele>-30.234812</ele>
|
|
<time>2026-07-10T11:09:50.000Z</time>
|
|
</trkpt>
|
|
<trkpt lat="54.909163" lon="8.661523">
|
|
<ele>-30.230197</ele>
|
|
<time>2026-07-10T11:09:51.000Z</time>
|
|
</trkpt>
|
|
<trkpt lat="54.909133" lon="8.661433">
|
|
<ele>-30.225767</ele>
|
|
<time>2026-07-10T11:09:52.000Z</time>
|
|
</trkpt>
|
|
<trkpt lat="54.909104" lon="8.661342">
|
|
<ele>-30.222279</ele>
|
|
<time>2026-07-10T11:09:53.000Z</time>
|
|
</trkpt>
|
|
<trkpt lat="54.909076" lon="8.661251">
|
|
<ele>-30.261366</ele>
|
|
<time>2026-07-10T11:09:54.000Z</time>
|
|
</trkpt>
|
|
<trkpt lat="54.909046" lon="8.661161">
|
|
<ele>-30.300765</ele>
|
|
<time>2026-07-10T11:09:55.000Z</time>
|
|
</trkpt>
|
|
<trkpt lat="54.909015" lon="8.661071">
|
|
<ele>-30.340497</ele>
|
|
<time>2026-07-10T11:09:56.000Z</time>
|
|
</trkpt>
|
|
<trkpt lat="54.908984" lon="8.660976">
|
|
<ele>-30.381865</ele>
|
|
<time>2026-07-10T11:09:57.000Z</time>
|
|
</trkpt>
|
|
<trkpt lat="54.908955" lon="8.660884">
|
|
<ele>-30.421600</ele>
|
|
<time>2026-07-10T11:09:58.000Z</time>
|
|
</trkpt>
|
|
<trkpt lat="54.908928" lon="8.660787">
|
|
<ele>-30.462413</ele>
|
|
<time>2026-07-10T11:09:59.000Z</time>
|
|
</trkpt>
|
|
<trkpt lat="54.908901" lon="8.660693">
|
|
<ele>-30.502207</ele>
|
|
<time>2026-07-10T11:10:00.000Z</time>
|
|
</trkpt>
|
|
<trkpt lat="54.908871" lon="8.660600">
|
|
<ele>-30.542592</ele>
|
|
<time>2026-07-10T11:10:01.000Z</time>
|
|
</trkpt>
|
|
<trkpt lat="54.908843" lon="8.660504">
|
|
<ele>-30.583359</ele>
|
|
<time>2026-07-10T11:10:02.000Z</time>
|
|
</trkpt>
|
|
<trkpt lat="54.908812" lon="8.660410">
|
|
<ele>-30.624399</ele>
|
|
<time>2026-07-10T11:10:03.000Z</time>
|
|
</trkpt>
|
|
<trkpt lat="54.908783" lon="8.660315">
|
|
<ele>-30.665133</ele>
|
|
<time>2026-07-10T11:10:04.000Z</time>
|
|
</trkpt>
|
|
<trkpt lat="54.908759" lon="8.660214">
|
|
<ele>-30.706521</ele>
|
|
<time>2026-07-10T11:10:05.000Z</time>
|
|
</trkpt>
|
|
<trkpt lat="54.908742" lon="8.660109">
|
|
<ele>-30.747831</ele>
|
|
<time>2026-07-10T11:10:06.000Z</time>
|
|
</trkpt>
|
|
<trkpt lat="54.908732" lon="8.660004">
|
|
<ele>-30.788137</ele>
|
|
<time>2026-07-10T11:10:07.000Z</time>
|
|
</trkpt>
|
|
<trkpt lat="54.908730" lon="8.659899">
|
|
<ele>-30.827923</ele>
|
|
<time>2026-07-10T11:10:08.000Z</time>
|
|
</trkpt>
|
|
<trkpt lat="54.908731" lon="8.659793">
|
|
<ele>-30.868071</ele>
|
|
<time>2026-07-10T11:10:09.000Z</time>
|
|
</trkpt>
|
|
<trkpt lat="54.908736" lon="8.659689">
|
|
<ele>-30.907593</ele>
|
|
<time>2026-07-10T11:10:10.000Z</time>
|
|
</trkpt>
|
|
<trkpt lat="54.908748" lon="8.659582">
|
|
<ele>-30.948878</ele>
|
|
<time>2026-07-10T11:10:11.000Z</time>
|
|
</trkpt>
|
|
<trkpt lat="54.908760" lon="8.659476">
|
|
<ele>-30.989792</ele>
|
|
<time>2026-07-10T11:10:12.000Z</time>
|
|
</trkpt>
|
|
<trkpt lat="54.908771" lon="8.659373">
|
|
<ele>-31.029465</ele>
|
|
<time>2026-07-10T11:10:13.000Z</time>
|
|
</trkpt>
|
|
<trkpt lat="54.908783" lon="8.659267">
|
|
<ele>-31.070379</ele>
|
|
<time>2026-07-10T11:10:14.000Z</time>
|
|
</trkpt>
|
|
<trkpt lat="54.908798" lon="8.659162">
|
|
<ele>-31.111352</ele>
|
|
<time>2026-07-10T11:10:15.000Z</time>
|
|
</trkpt>
|
|
<trkpt lat="54.908809" lon="8.659057">
|
|
<ele>-31.151771</ele>
|
|
<time>2026-07-10T11:10:16.000Z</time>
|
|
</trkpt>
|
|
<trkpt lat="54.908819" lon="8.658952">
|
|
<ele>-31.192076</ele>
|
|
<time>2026-07-10T11:10:17.000Z</time>
|
|
</trkpt>
|
|
<trkpt lat="54.908829" lon="8.658846">
|
|
<ele>-31.232756</ele>
|
|
<time>2026-07-10T11:10:18.000Z</time>
|
|
</trkpt>
|
|
<trkpt lat="54.908843" lon="8.658742">
|
|
<ele>-31.273206</ele>
|
|
<time>2026-07-10T11:10:19.000Z</time>
|
|
</trkpt>
|
|
<trkpt lat="54.908856" lon="8.658640">
|
|
<ele>-31.312772</ele>
|
|
<time>2026-07-10T11:10:20.000Z</time>
|
|
</trkpt>
|
|
<trkpt lat="54.908870" lon="8.658541">
|
|
<ele>-31.351381</ele>
|
|
<time>2026-07-10T11:10:21.000Z</time>
|
|
</trkpt>
|
|
<trkpt lat="54.908882" lon="8.658437">
|
|
<ele>-31.391551</ele>
|
|
<time>2026-07-10T11:10:22.000Z</time>
|
|
</trkpt>
|
|
<trkpt lat="54.908897" lon="8.658333">
|
|
<ele>-31.415612</ele>
|
|
<time>2026-07-10T11:10:23.000Z</time>
|
|
</trkpt>
|
|
<trkpt lat="54.908908" lon="8.658233">
|
|
<ele>-31.429509</ele>
|
|
<time>2026-07-10T11:10:24.000Z</time>
|
|
</trkpt>
|
|
<trkpt lat="54.908920" lon="8.658129">
|
|
<ele>-31.443988</ele>
|
|
<time>2026-07-10T11:10:25.000Z</time>
|
|
</trkpt>
|
|
<trkpt lat="54.908931" lon="8.658027">
|
|
<ele>-31.458153</ele>
|
|
<time>2026-07-10T11:10:26.000Z</time>
|
|
</trkpt>
|
|
<trkpt lat="54.908943" lon="8.657926">
|
|
<ele>-31.472230</ele>
|
|
<time>2026-07-10T11:10:27.000Z</time>
|
|
</trkpt>
|
|
<trkpt lat="54.908955" lon="8.657826">
|
|
<ele>-31.486173</ele>
|
|
<time>2026-07-10T11:10:28.000Z</time>
|
|
</trkpt>
|
|
<trkpt lat="54.908969" lon="8.657725">
|
|
<ele>-31.500354</ele>
|
|
<time>2026-07-10T11:10:29.000Z</time>
|
|
</trkpt>
|
|
<trkpt lat="54.908980" lon="8.657624">
|
|
<ele>-31.514385</ele>
|
|
<time>2026-07-10T11:10:30.000Z</time>
|
|
</trkpt>
|
|
<trkpt lat="54.908992" lon="8.657519">
|
|
<ele>-31.528997</ele>
|
|
<time>2026-07-10T11:10:31.000Z</time>
|
|
</trkpt>
|
|
<trkpt lat="54.909006" lon="8.657416">
|
|
<ele>-31.543444</ele>
|
|
<time>2026-07-10T11:10:32.000Z</time>
|
|
</trkpt>
|
|
<trkpt lat="54.909022" lon="8.657321">
|
|
<ele>-31.556955</ele>
|
|
<time>2026-07-10T11:10:33.000Z</time>
|
|
</trkpt>
|
|
<trkpt lat="54.909035" lon="8.657208">
|
|
<ele>-31.572685</ele>
|
|
<time>2026-07-10T11:10:34.000Z</time>
|
|
</trkpt>
|
|
<trkpt lat="54.909049" lon="8.657102">
|
|
<ele>-31.587530</ele>
|
|
<time>2026-07-10T11:10:35.000Z</time>
|
|
</trkpt>
|
|
<trkpt lat="54.909061" lon="8.656998">
|
|
<ele>-31.602008</ele>
|
|
<time>2026-07-10T11:10:36.000Z</time>
|
|
</trkpt>
|
|
<trkpt lat="54.909072" lon="8.656889">
|
|
<ele>-31.617113</ele>
|
|
<time>2026-07-10T11:10:37.000Z</time>
|
|
</trkpt>
|
|
<trkpt lat="54.909084" lon="8.656783">
|
|
<ele>-31.631859</ele>
|
|
<time>2026-07-10T11:10:38.000Z</time>
|
|
</trkpt>
|
|
<trkpt lat="54.909095" lon="8.656677">
|
|
<ele>-31.646561</ele>
|
|
<time>2026-07-10T11:10:39.000Z</time>
|
|
</trkpt>
|
|
<trkpt lat="54.909107" lon="8.656570">
|
|
<ele>-31.661441</ele>
|
|
<time>2026-07-10T11:10:40.000Z</time>
|
|
</trkpt>
|
|
<trkpt lat="54.909119" lon="8.656465">
|
|
<ele>-31.676054</ele>
|
|
<time>2026-07-10T11:10:41.000Z</time>
|
|
</trkpt>
|
|
<trkpt lat="54.909133" lon="8.656358">
|
|
<ele>-31.691032</ele>
|
|
<time>2026-07-10T11:10:42.000Z</time>
|
|
</trkpt>
|
|
<trkpt lat="54.909146" lon="8.656253">
|
|
<ele>-31.705692</ele>
|
|
<time>2026-07-10T11:10:43.000Z</time>
|
|
</trkpt>
|
|
<trkpt lat="54.909160" lon="8.656147">
|
|
<ele>-31.720537</ele>
|
|
<time>2026-07-10T11:10:44.000Z</time>
|
|
</trkpt>
|
|
<trkpt lat="54.909172" lon="8.656039">
|
|
<ele>-31.735551</ele>
|
|
<time>2026-07-10T11:10:45.000Z</time>
|
|
</trkpt>
|
|
<trkpt lat="54.909182" lon="8.655935">
|
|
<ele>-31.749943</ele>
|
|
<time>2026-07-10T11:10:46.000Z</time>
|
|
</trkpt>
|
|
<trkpt lat="54.909191" lon="8.655830">
|
|
<ele>-31.764433</ele>
|
|
<time>2026-07-10T11:10:47.000Z</time>
|
|
</trkpt>
|
|
<trkpt lat="54.909203" lon="8.655728">
|
|
<ele>-31.778644</ele>
|
|
<time>2026-07-10T11:10:48.000Z</time>
|
|
</trkpt>
|
|
<trkpt lat="54.909216" lon="8.655627">
|
|
<ele>-31.792771</ele>
|
|
<time>2026-07-10T11:10:49.000Z</time>
|
|
</trkpt>
|
|
<trkpt lat="54.909224" lon="8.655527">
|
|
<ele>-31.806552</ele>
|
|
<time>2026-07-10T11:10:50.000Z</time>
|
|
</trkpt>
|
|
<trkpt lat="54.909232" lon="8.655427">
|
|
<ele>-31.820332</ele>
|
|
<time>2026-07-10T11:10:51.000Z</time>
|
|
</trkpt>
|
|
<trkpt lat="54.909240" lon="8.655327">
|
|
<ele>-31.833599</ele>
|
|
<time>2026-07-10T11:10:52.000Z</time>
|
|
</trkpt>
|
|
<trkpt lat="54.909252" lon="8.655227">
|
|
<ele>-31.838272</ele>
|
|
<time>2026-07-10T11:10:53.000Z</time>
|
|
</trkpt>
|
|
<trkpt lat="54.909264" lon="8.655127">
|
|
<ele>-31.842946</ele>
|
|
<time>2026-07-10T11:10:54.000Z</time>
|
|
</trkpt>
|
|
<trkpt lat="54.909277" lon="8.655025">
|
|
<ele>-31.847726</ele>
|
|
<time>2026-07-10T11:10:55.000Z</time>
|
|
</trkpt>
|
|
<trkpt lat="54.909286" lon="8.654924">
|
|
<ele>-31.852401</ele>
|
|
<time>2026-07-10T11:10:56.000Z</time>
|
|
</trkpt>
|
|
<trkpt lat="54.909297" lon="8.654822">
|
|
<ele>-31.857149</ele>
|
|
<time>2026-07-10T11:10:57.000Z</time>
|
|
</trkpt>
|
|
<trkpt lat="54.909309" lon="8.654720">
|
|
<ele>-31.861913</ele>
|
|
<time>2026-07-10T11:10:58.000Z</time>
|
|
</trkpt>
|
|
<trkpt lat="54.909321" lon="8.654617">
|
|
<ele>-31.866721</ele>
|
|
<time>2026-07-10T11:10:59.000Z</time>
|
|
</trkpt>
|
|
<trkpt lat="54.909337" lon="8.654514">
|
|
<ele>-31.871602</ele>
|
|
<time>2026-07-10T11:11:00.000Z</time>
|
|
</trkpt>
|
|
<trkpt lat="54.909352" lon="8.654410">
|
|
<ele>-31.876507</ele>
|
|
<time>2026-07-10T11:11:01.000Z</time>
|
|
</trkpt>
|
|
<trkpt lat="54.909368" lon="8.654307">
|
|
<ele>-31.881388</ele>
|
|
<time>2026-07-10T11:11:02.000Z</time>
|
|
</trkpt>
|
|
<trkpt lat="54.909385" lon="8.654204">
|
|
<ele>-31.886291</ele>
|
|
<time>2026-07-10T11:11:03.000Z</time>
|
|
</trkpt>
|
|
<trkpt lat="54.909398" lon="8.654098">
|
|
<ele>-31.891250</ele>
|
|
<time>2026-07-10T11:11:04.000Z</time>
|
|
</trkpt>
|
|
<trkpt lat="54.909412" lon="8.653995">
|
|
<ele>-31.896092</ele>
|
|
<time>2026-07-10T11:11:05.000Z</time>
|
|
</trkpt>
|
|
<trkpt lat="54.909423" lon="8.653890">
|
|
<ele>-31.900974</ele>
|
|
<time>2026-07-10T11:11:06.000Z</time>
|
|
</trkpt>
|
|
<trkpt lat="54.909436" lon="8.653784">
|
|
<ele>-31.905933</ele>
|
|
<time>2026-07-10T11:11:07.000Z</time>
|
|
</trkpt>
|
|
<trkpt lat="54.909450" lon="8.653680">
|
|
<ele>-31.910820</ele>
|
|
<time>2026-07-10T11:11:08.000Z</time>
|
|
</trkpt>
|
|
<trkpt lat="54.909463" lon="8.653576">
|
|
<ele>-31.915689</ele>
|
|
<time>2026-07-10T11:11:09.000Z</time>
|
|
</trkpt>
|
|
<trkpt lat="54.909477" lon="8.653474">
|
|
<ele>-31.920486</ele>
|
|
<time>2026-07-10T11:11:10.000Z</time>
|
|
</trkpt>
|
|
<trkpt lat="54.909487" lon="8.653371">
|
|
<ele>-31.925265</ele>
|
|
<time>2026-07-10T11:11:11.000Z</time>
|
|
</trkpt>
|
|
<trkpt lat="54.909495" lon="8.653269">
|
|
<ele>-31.929975</ele>
|
|
<time>2026-07-10T11:11:12.000Z</time>
|
|
</trkpt>
|
|
<trkpt lat="54.909503" lon="8.653168">
|
|
<ele>-31.934639</ele>
|
|
<time>2026-07-10T11:11:13.000Z</time>
|
|
</trkpt>
|
|
<trkpt lat="54.909516" lon="8.653068">
|
|
<ele>-31.939330</ele>
|
|
<time>2026-07-10T11:11:14.000Z</time>
|
|
</trkpt>
|
|
<trkpt lat="54.909530" lon="8.652966">
|
|
<ele>-31.944127</ele>
|
|
<time>2026-07-10T11:11:15.000Z</time>
|
|
</trkpt>
|
|
<trkpt lat="54.909543" lon="8.652863">
|
|
<ele>-31.948952</ele>
|
|
<time>2026-07-10T11:11:16.000Z</time>
|
|
</trkpt>
|
|
<trkpt lat="54.909558" lon="8.652762">
|
|
<ele>-31.953724</ele>
|
|
<time>2026-07-10T11:11:17.000Z</time>
|
|
</trkpt>
|
|
<trkpt lat="54.909572" lon="8.652657">
|
|
<ele>-31.958655</ele>
|
|
<time>2026-07-10T11:11:18.000Z</time>
|
|
</trkpt>
|
|
<trkpt lat="54.909584" lon="8.652553">
|
|
<ele>-31.963508</ele>
|
|
<time>2026-07-10T11:11:19.000Z</time>
|
|
</trkpt>
|
|
<trkpt lat="54.909599" lon="8.652448">
|
|
<ele>-31.968458</ele>
|
|
<time>2026-07-10T11:11:20.000Z</time>
|
|
</trkpt>
|
|
<trkpt lat="54.909610" lon="8.652341">
|
|
<ele>-31.973431</ele>
|
|
<time>2026-07-10T11:11:21.000Z</time>
|
|
</trkpt>
|
|
<trkpt lat="54.909623" lon="8.652238">
|
|
<ele>-31.975462</ele>
|
|
<time>2026-07-10T11:11:22.000Z</time>
|
|
</trkpt>
|
|
<trkpt lat="54.909637" lon="8.652135">
|
|
<ele>-31.972689</ele>
|
|
<time>2026-07-10T11:11:23.000Z</time>
|
|
</trkpt>
|
|
<trkpt lat="54.909649" lon="8.652030">
|
|
<ele>-31.969885</ele>
|
|
<time>2026-07-10T11:11:24.000Z</time>
|
|
</trkpt>
|
|
<trkpt lat="54.909661" lon="8.651926">
|
|
<ele>-31.967106</ele>
|
|
<time>2026-07-10T11:11:25.000Z</time>
|
|
</trkpt>
|
|
<trkpt lat="54.909675" lon="8.651822">
|
|
<ele>-31.964307</ele>
|
|
<time>2026-07-10T11:11:26.000Z</time>
|
|
</trkpt>
|
|
<trkpt lat="54.909685" lon="8.651717">
|
|
<ele>-31.961519</ele>
|
|
<time>2026-07-10T11:11:27.000Z</time>
|
|
</trkpt>
|
|
<trkpt lat="54.909694" lon="8.651612">
|
|
<ele>-31.958738</ele>
|
|
<time>2026-07-10T11:11:28.000Z</time>
|
|
</trkpt>
|
|
<trkpt lat="54.909706" lon="8.651507">
|
|
<ele>-31.955933</ele>
|
|
<time>2026-07-10T11:11:29.000Z</time>
|
|
</trkpt>
|
|
<trkpt lat="54.909717" lon="8.651402">
|
|
<ele>-31.953137</ele>
|
|
<time>2026-07-10T11:11:30.000Z</time>
|
|
</trkpt>
|
|
<trkpt lat="54.909730" lon="8.651299">
|
|
<ele>-31.950374</ele>
|
|
<time>2026-07-10T11:11:31.000Z</time>
|
|
</trkpt>
|
|
<trkpt lat="54.909745" lon="8.651195">
|
|
<ele>-31.947565</ele>
|
|
<time>2026-07-10T11:11:32.000Z</time>
|
|
</trkpt>
|
|
<trkpt lat="54.909760" lon="8.651092">
|
|
<ele>-31.944781</ele>
|
|
<time>2026-07-10T11:11:33.000Z</time>
|
|
</trkpt>
|
|
<trkpt lat="54.909776" lon="8.650986">
|
|
<ele>-31.941910</ele>
|
|
<time>2026-07-10T11:11:34.000Z</time>
|
|
</trkpt>
|
|
<trkpt lat="54.909791" lon="8.650881">
|
|
<ele>-31.939075</ele>
|
|
<time>2026-07-10T11:11:35.000Z</time>
|
|
</trkpt>
|
|
<trkpt lat="54.909804" lon="8.650775">
|
|
<ele>-31.936236</ele>
|
|
<time>2026-07-10T11:11:36.000Z</time>
|
|
</trkpt>
|
|
<trkpt lat="54.909813" lon="8.650670">
|
|
<ele>-31.933455</ele>
|
|
<time>2026-07-10T11:11:37.000Z</time>
|
|
</trkpt>
|
|
<trkpt lat="54.909825" lon="8.650566">
|
|
<ele>-31.930676</ele>
|
|
<time>2026-07-10T11:11:38.000Z</time>
|
|
</trkpt>
|
|
<trkpt lat="54.909839" lon="8.650464">
|
|
<ele>-31.927928</ele>
|
|
<time>2026-07-10T11:11:39.000Z</time>
|
|
</trkpt>
|
|
<trkpt lat="54.909851" lon="8.650361">
|
|
<ele>-31.925175</ele>
|
|
<time>2026-07-10T11:11:40.000Z</time>
|
|
</trkpt>
|
|
<trkpt lat="54.909862" lon="8.650258">
|
|
<ele>-31.922430</ele>
|
|
<time>2026-07-10T11:11:41.000Z</time>
|
|
</trkpt>
|
|
<trkpt lat="54.909874" lon="8.650153">
|
|
<ele>-31.919626</ele>
|
|
<time>2026-07-10T11:11:42.000Z</time>
|
|
</trkpt>
|
|
<trkpt lat="54.909886" lon="8.650049">
|
|
<ele>-31.916847</ele>
|
|
<time>2026-07-10T11:11:43.000Z</time>
|
|
</trkpt>
|
|
<trkpt lat="54.909900" lon="8.649946">
|
|
<ele>-31.914074</ele>
|
|
<time>2026-07-10T11:11:44.000Z</time>
|
|
</trkpt>
|
|
<trkpt lat="54.909912" lon="8.649839">
|
|
<ele>-31.911218</ele>
|
|
<time>2026-07-10T11:11:45.000Z</time>
|
|
</trkpt>
|
|
<trkpt lat="54.909923" lon="8.649734">
|
|
<ele>-31.908421</ele>
|
|
<time>2026-07-10T11:11:46.000Z</time>
|
|
</trkpt>
|
|
<trkpt lat="54.909933" lon="8.649628">
|
|
<ele>-31.905607</ele>
|
|
<time>2026-07-10T11:11:47.000Z</time>
|
|
</trkpt>
|
|
<trkpt lat="54.909942" lon="8.649522">
|
|
<ele>-31.902800</ele>
|
|
<time>2026-07-10T11:11:48.000Z</time>
|
|
</trkpt>
|
|
<trkpt lat="54.909955" lon="8.649418">
|
|
<ele>-31.900012</ele>
|
|
<time>2026-07-10T11:11:49.000Z</time>
|
|
</trkpt>
|
|
<trkpt lat="54.909969" lon="8.649312">
|
|
<ele>-31.897162</ele>
|
|
<time>2026-07-10T11:11:50.000Z</time>
|
|
</trkpt>
|
|
<trkpt lat="54.909981" lon="8.649208">
|
|
<ele>-31.894756</ele>
|
|
<time>2026-07-10T11:11:51.000Z</time>
|
|
</trkpt>
|
|
<trkpt lat="54.909996" lon="8.649104">
|
|
<ele>-31.900305</ele>
|
|
<time>2026-07-10T11:11:52.000Z</time>
|
|
</trkpt>
|
|
<trkpt lat="54.910007" lon="8.649000">
|
|
<ele>-31.905777</ele>
|
|
<time>2026-07-10T11:11:53.000Z</time>
|
|
</trkpt>
|
|
<trkpt lat="54.910018" lon="8.648895">
|
|
<ele>-31.911301</ele>
|
|
<time>2026-07-10T11:11:54.000Z</time>
|
|
</trkpt>
|
|
<trkpt lat="54.910031" lon="8.648791">
|
|
<ele>-31.916809</ele>
|
|
<time>2026-07-10T11:11:55.000Z</time>
|
|
</trkpt>
|
|
<trkpt lat="54.910045" lon="8.648687">
|
|
<ele>-31.922336</ele>
|
|
<time>2026-07-10T11:11:56.000Z</time>
|
|
</trkpt>
|
|
<trkpt lat="54.910058" lon="8.648580">
|
|
<ele>-31.927996</ele>
|
|
<time>2026-07-10T11:11:57.000Z</time>
|
|
</trkpt>
|
|
<trkpt lat="54.910072" lon="8.648476">
|
|
<ele>-31.933524</ele>
|
|
<time>2026-07-10T11:11:58.000Z</time>
|
|
</trkpt>
|
|
<trkpt lat="54.910083" lon="8.648371">
|
|
<ele>-31.939047</ele>
|
|
<time>2026-07-10T11:11:59.000Z</time>
|
|
</trkpt>
|
|
<trkpt lat="54.910095" lon="8.648269">
|
|
<ele>-31.944435</ele>
|
|
<time>2026-07-10T11:12:00.000Z</time>
|
|
</trkpt>
|
|
<trkpt lat="54.910106" lon="8.648166">
|
|
<ele>-31.949857</ele>
|
|
<time>2026-07-10T11:12:01.000Z</time>
|
|
</trkpt>
|
|
<trkpt lat="54.910117" lon="8.648065">
|
|
<ele>-31.955177</ele>
|
|
<time>2026-07-10T11:12:02.000Z</time>
|
|
</trkpt>
|
|
<trkpt lat="54.910129" lon="8.647960">
|
|
<ele>-31.960717</ele>
|
|
<time>2026-07-10T11:12:03.000Z</time>
|
|
</trkpt>
|
|
<trkpt lat="54.910141" lon="8.647855">
|
|
<ele>-31.966257</ele>
|
|
<time>2026-07-10T11:12:04.000Z</time>
|
|
</trkpt>
|
|
<trkpt lat="54.910152" lon="8.647750">
|
|
<ele>-31.971781</ele>
|
|
<time>2026-07-10T11:12:05.000Z</time>
|
|
</trkpt>
|
|
<trkpt lat="54.910165" lon="8.647646">
|
|
<ele>-31.977289</ele>
|
|
<time>2026-07-10T11:12:06.000Z</time>
|
|
</trkpt>
|
|
<trkpt lat="54.910179" lon="8.647543">
|
|
<ele>-31.982766</ele>
|
|
<time>2026-07-10T11:12:07.000Z</time>
|
|
</trkpt>
|
|
<trkpt lat="54.910191" lon="8.647440">
|
|
<ele>-31.988205</ele>
|
|
<time>2026-07-10T11:12:08.000Z</time>
|
|
</trkpt>
|
|
<trkpt lat="54.910205" lon="8.647335">
|
|
<ele>-31.993783</ele>
|
|
<time>2026-07-10T11:12:09.000Z</time>
|
|
</trkpt>
|
|
<trkpt lat="54.910217" lon="8.647231">
|
|
<ele>-31.999272</ele>
|
|
<time>2026-07-10T11:12:10.000Z</time>
|
|
</trkpt>
|
|
<trkpt lat="54.910228" lon="8.647126">
|
|
<ele>-32.004796</ele>
|
|
<time>2026-07-10T11:12:11.000Z</time>
|
|
</trkpt>
|
|
<trkpt lat="54.910240" lon="8.647021">
|
|
<ele>-32.010336</ele>
|
|
<time>2026-07-10T11:12:12.000Z</time>
|
|
</trkpt>
|
|
<trkpt lat="54.910255" lon="8.646911">
|
|
<ele>-32.016187</ele>
|
|
<time>2026-07-10T11:12:13.000Z</time>
|
|
</trkpt>
|
|
<trkpt lat="54.910268" lon="8.646801">
|
|
<ele>-32.021998</ele>
|
|
<time>2026-07-10T11:12:14.000Z</time>
|
|
</trkpt>
|
|
<trkpt lat="54.910282" lon="8.646693">
|
|
<ele>-32.027728</ele>
|
|
<time>2026-07-10T11:12:15.000Z</time>
|
|
</trkpt>
|
|
<trkpt lat="54.910293" lon="8.646586">
|
|
<ele>-32.033353</ele>
|
|
<time>2026-07-10T11:12:16.000Z</time>
|
|
</trkpt>
|
|
<trkpt lat="54.910305" lon="8.646478">
|
|
<ele>-32.039045</ele>
|
|
<time>2026-07-10T11:12:17.000Z</time>
|
|
</trkpt>
|
|
<trkpt lat="54.910316" lon="8.646369">
|
|
<ele>-32.044773</ele>
|
|
<time>2026-07-10T11:12:18.000Z</time>
|
|
</trkpt>
|
|
<trkpt lat="54.910329" lon="8.646262">
|
|
<ele>-32.050432</ele>
|
|
<time>2026-07-10T11:12:19.000Z</time>
|
|
</trkpt>
|
|
<trkpt lat="54.910343" lon="8.646153">
|
|
<ele>-32.056212</ele>
|
|
<time>2026-07-10T11:12:20.000Z</time>
|
|
</trkpt>
|
|
<trkpt lat="54.910355" lon="8.646050">
|
|
<ele>-32.060638</ele>
|
|
<time>2026-07-10T11:12:21.000Z</time>
|
|
</trkpt>
|
|
<trkpt lat="54.910368" lon="8.645952">
|
|
<ele>-32.064833</ele>
|
|
<time>2026-07-10T11:12:22.000Z</time>
|
|
</trkpt>
|
|
<trkpt lat="54.910382" lon="8.645830">
|
|
<ele>-32.070022</ele>
|
|
<time>2026-07-10T11:12:23.000Z</time>
|
|
</trkpt>
|
|
<trkpt lat="54.910396" lon="8.645722">
|
|
<ele>-32.074640</ele>
|
|
<time>2026-07-10T11:12:24.000Z</time>
|
|
</trkpt>
|
|
<trkpt lat="54.910408" lon="8.645614">
|
|
<ele>-32.079228</ele>
|
|
<time>2026-07-10T11:12:25.000Z</time>
|
|
</trkpt>
|
|
<trkpt lat="54.910419" lon="8.645506">
|
|
<ele>-32.083803</ele>
|
|
<time>2026-07-10T11:12:26.000Z</time>
|
|
</trkpt>
|
|
<trkpt lat="54.910430" lon="8.645400">
|
|
<ele>-32.088296</ele>
|
|
<time>2026-07-10T11:12:27.000Z</time>
|
|
</trkpt>
|
|
<trkpt lat="54.910443" lon="8.645293">
|
|
<ele>-32.092858</ele>
|
|
<time>2026-07-10T11:12:28.000Z</time>
|
|
</trkpt>
|
|
<trkpt lat="54.910457" lon="8.645188">
|
|
<ele>-32.097354</ele>
|
|
<time>2026-07-10T11:12:29.000Z</time>
|
|
</trkpt>
|
|
<trkpt lat="54.910468" lon="8.645082">
|
|
<ele>-32.101846</ele>
|
|
<time>2026-07-10T11:12:30.000Z</time>
|
|
</trkpt>
|
|
<trkpt lat="54.910480" lon="8.644974">
|
|
<ele>-32.106435</ele>
|
|
<time>2026-07-10T11:12:31.000Z</time>
|
|
</trkpt>
|
|
<trkpt lat="54.910493" lon="8.644866">
|
|
<ele>-32.111037</ele>
|
|
<time>2026-07-10T11:12:32.000Z</time>
|
|
</trkpt>
|
|
<trkpt lat="54.910507" lon="8.644758">
|
|
<ele>-32.115655</ele>
|
|
<time>2026-07-10T11:12:33.000Z</time>
|
|
</trkpt>
|
|
<trkpt lat="54.910518" lon="8.644651">
|
|
<ele>-32.120189</ele>
|
|
<time>2026-07-10T11:12:34.000Z</time>
|
|
</trkpt>
|
|
<trkpt lat="54.910530" lon="8.644545">
|
|
<ele>-32.124695</ele>
|
|
<time>2026-07-10T11:12:35.000Z</time>
|
|
</trkpt>
|
|
<trkpt lat="54.910541" lon="8.644439">
|
|
<ele>-32.129188</ele>
|
|
<time>2026-07-10T11:12:36.000Z</time>
|
|
</trkpt>
|
|
<trkpt lat="54.910553" lon="8.644333">
|
|
<ele>-32.133694</ele>
|
|
<time>2026-07-10T11:12:37.000Z</time>
|
|
</trkpt>
|
|
<trkpt lat="54.910563" lon="8.644226">
|
|
<ele>-32.138216</ele>
|
|
<time>2026-07-10T11:12:38.000Z</time>
|
|
</trkpt>
|
|
<trkpt lat="54.910573" lon="8.644120">
|
|
<ele>-32.142696</ele>
|
|
<time>2026-07-10T11:12:39.000Z</time>
|
|
</trkpt>
|
|
<trkpt lat="54.910587" lon="8.644014">
|
|
<ele>-32.147233</ele>
|
|
<time>2026-07-10T11:12:40.000Z</time>
|
|
</trkpt>
|
|
<trkpt lat="54.910598" lon="8.643908">
|
|
<ele>-32.151725</ele>
|
|
<time>2026-07-10T11:12:41.000Z</time>
|
|
</trkpt>
|
|
<trkpt lat="54.910611" lon="8.643799">
|
|
<ele>-32.156369</ele>
|
|
<time>2026-07-10T11:12:42.000Z</time>
|
|
</trkpt>
|
|
<trkpt lat="54.910625" lon="8.643695">
|
|
<ele>-32.160824</ele>
|
|
<time>2026-07-10T11:12:43.000Z</time>
|
|
</trkpt>
|
|
<trkpt lat="54.910638" lon="8.643588">
|
|
<ele>-32.165386</ele>
|
|
<time>2026-07-10T11:12:44.000Z</time>
|
|
</trkpt>
|
|
<trkpt lat="54.910652" lon="8.643482">
|
|
<ele>-32.169922</ele>
|
|
<time>2026-07-10T11:12:45.000Z</time>
|
|
</trkpt>
|
|
<trkpt lat="54.910664" lon="8.643377">
|
|
<ele>-32.174387</ele>
|
|
<time>2026-07-10T11:12:46.000Z</time>
|
|
</trkpt>
|
|
<trkpt lat="54.910678" lon="8.643270">
|
|
<ele>-32.178965</ele>
|
|
<time>2026-07-10T11:12:47.000Z</time>
|
|
</trkpt>
|
|
<trkpt lat="54.910690" lon="8.643165">
|
|
<ele>-32.183430</ele>
|
|
<time>2026-07-10T11:12:48.000Z</time>
|
|
</trkpt>
|
|
<trkpt lat="54.910701" lon="8.643061">
|
|
<ele>-32.186829</ele>
|
|
<time>2026-07-10T11:12:49.000Z</time>
|
|
</trkpt>
|
|
<trkpt lat="54.910714" lon="8.642955">
|
|
<ele>-32.186286</ele>
|
|
<time>2026-07-10T11:12:50.000Z</time>
|
|
</trkpt>
|
|
<trkpt lat="54.910728" lon="8.642849">
|
|
<ele>-32.185741</ele>
|
|
<time>2026-07-10T11:12:51.000Z</time>
|
|
</trkpt>
|
|
<trkpt lat="54.910739" lon="8.642744">
|
|
<ele>-32.185206</ele>
|
|
<time>2026-07-10T11:12:52.000Z</time>
|
|
</trkpt>
|
|
<trkpt lat="54.910751" lon="8.642638">
|
|
<ele>-32.184665</ele>
|
|
<time>2026-07-10T11:12:53.000Z</time>
|
|
</trkpt>
|
|
<trkpt lat="54.910762" lon="8.642540">
|
|
<ele>-32.184164</ele>
|
|
<time>2026-07-10T11:12:54.000Z</time>
|
|
</trkpt>
|
|
<trkpt lat="54.910770" lon="8.642459">
|
|
<ele>-32.183753</ele>
|
|
<time>2026-07-10T11:12:55.000Z</time>
|
|
</trkpt>
|
|
<trkpt lat="54.910785" lon="8.642328">
|
|
<ele>-32.183083</ele>
|
|
<time>2026-07-10T11:12:56.000Z</time>
|
|
</trkpt>
|
|
<trkpt lat="54.910798" lon="8.642222">
|
|
<ele>-32.182540</ele>
|
|
<time>2026-07-10T11:12:57.000Z</time>
|
|
</trkpt>
|
|
<trkpt lat="54.910812" lon="8.642118">
|
|
<ele>-32.182005</ele>
|
|
<time>2026-07-10T11:12:58.000Z</time>
|
|
</trkpt>
|
|
<trkpt lat="54.910823" lon="8.642016">
|
|
<ele>-32.181485</ele>
|
|
<time>2026-07-10T11:12:59.000Z</time>
|
|
</trkpt>
|
|
<trkpt lat="54.910835" lon="8.641910">
|
|
<ele>-32.180944</ele>
|
|
<time>2026-07-10T11:13:00.000Z</time>
|
|
</trkpt>
|
|
<trkpt lat="54.910846" lon="8.641806">
|
|
<ele>-32.180414</ele>
|
|
<time>2026-07-10T11:13:01.000Z</time>
|
|
</trkpt>
|
|
<trkpt lat="54.910858" lon="8.641699">
|
|
<ele>-32.179868</ele>
|
|
<time>2026-07-10T11:13:02.000Z</time>
|
|
</trkpt>
|
|
<trkpt lat="54.910869" lon="8.641596">
|
|
<ele>-32.179343</ele>
|
|
<time>2026-07-10T11:13:03.000Z</time>
|
|
</trkpt>
|
|
<trkpt lat="54.910880" lon="8.641495">
|
|
<ele>-32.178828</ele>
|
|
<time>2026-07-10T11:13:04.000Z</time>
|
|
</trkpt>
|
|
<trkpt lat="54.910892" lon="8.641386">
|
|
<ele>-32.178272</ele>
|
|
<time>2026-07-10T11:13:05.000Z</time>
|
|
</trkpt>
|
|
<trkpt lat="54.910904" lon="8.641283">
|
|
<ele>-32.177745</ele>
|
|
<time>2026-07-10T11:13:06.000Z</time>
|
|
</trkpt>
|
|
<trkpt lat="54.910916" lon="8.641178">
|
|
<ele>-32.177209</ele>
|
|
<time>2026-07-10T11:13:07.000Z</time>
|
|
</trkpt>
|
|
<trkpt lat="54.910930" lon="8.641074">
|
|
<ele>-32.176674</ele>
|
|
<time>2026-07-10T11:13:08.000Z</time>
|
|
</trkpt>
|
|
<trkpt lat="54.910942" lon="8.640971">
|
|
<ele>-32.176147</ele>
|
|
<time>2026-07-10T11:13:09.000Z</time>
|
|
</trkpt>
|
|
<trkpt lat="54.910953" lon="8.640869">
|
|
<ele>-32.175627</ele>
|
|
<time>2026-07-10T11:13:10.000Z</time>
|
|
</trkpt>
|
|
<trkpt lat="54.910965" lon="8.640766">
|
|
<ele>-32.175101</ele>
|
|
<time>2026-07-10T11:13:11.000Z</time>
|
|
</trkpt>
|
|
<trkpt lat="54.910979" lon="8.640668">
|
|
<ele>-32.174595</ele>
|
|
<time>2026-07-10T11:13:12.000Z</time>
|
|
</trkpt>
|
|
<trkpt lat="54.910990" lon="8.640559">
|
|
<ele>-32.174040</ele>
|
|
<time>2026-07-10T11:13:13.000Z</time>
|
|
</trkpt>
|
|
<trkpt lat="54.910999" lon="8.640456">
|
|
<ele>-32.173518</ele>
|
|
<time>2026-07-10T11:13:14.000Z</time>
|
|
</trkpt>
|
|
<trkpt lat="54.911010" lon="8.640355">
|
|
<ele>-32.173003</ele>
|
|
<time>2026-07-10T11:13:15.000Z</time>
|
|
</trkpt>
|
|
<trkpt lat="54.911023" lon="8.640256">
|
|
<ele>-32.172495</ele>
|
|
<time>2026-07-10T11:13:16.000Z</time>
|
|
</trkpt>
|
|
<trkpt lat="54.911037" lon="8.640150">
|
|
<ele>-32.171950</ele>
|
|
<time>2026-07-10T11:13:17.000Z</time>
|
|
</trkpt>
|
|
<trkpt lat="54.911048" lon="8.640048">
|
|
<ele>-32.171430</ele>
|
|
<time>2026-07-10T11:13:18.000Z</time>
|
|
</trkpt>
|
|
<trkpt lat="54.911060" lon="8.639948">
|
|
<ele>-32.102558</ele>
|
|
<time>2026-07-10T11:13:19.000Z</time>
|
|
</trkpt>
|
|
<trkpt lat="54.911071" lon="8.639846">
|
|
<ele>-31.998343</ele>
|
|
<time>2026-07-10T11:13:20.000Z</time>
|
|
</trkpt>
|
|
<trkpt lat="54.911083" lon="8.639744">
|
|
<ele>-31.893792</ele>
|
|
<time>2026-07-10T11:13:21.000Z</time>
|
|
</trkpt>
|
|
<trkpt lat="54.911093" lon="8.639642">
|
|
<ele>-31.789886</ele>
|
|
<time>2026-07-10T11:13:22.000Z</time>
|
|
</trkpt>
|
|
<trkpt lat="54.911102" lon="8.639544">
|
|
<ele>-31.690227</ele>
|
|
<time>2026-07-10T11:13:23.000Z</time>
|
|
</trkpt>
|
|
<trkpt lat="54.911114" lon="8.639447">
|
|
<ele>-31.590590</ele>
|
|
<time>2026-07-10T11:13:24.000Z</time>
|
|
</trkpt>
|
|
<trkpt lat="54.911128" lon="8.639353">
|
|
<ele>-31.493079</ele>
|
|
<time>2026-07-10T11:13:25.000Z</time>
|
|
</trkpt>
|
|
<trkpt lat="54.911139" lon="8.639261">
|
|
<ele>-31.398716</ele>
|
|
<time>2026-07-10T11:13:26.000Z</time>
|
|
</trkpt>
|
|
<trkpt lat="54.911150" lon="8.639167">
|
|
<ele>-31.302386</ele>
|
|
<time>2026-07-10T11:13:27.000Z</time>
|
|
</trkpt>
|
|
<trkpt lat="54.911158" lon="8.639078">
|
|
<ele>-31.211927</ele>
|
|
<time>2026-07-10T11:13:28.000Z</time>
|
|
</trkpt>
|
|
<trkpt lat="54.911167" lon="8.638993">
|
|
<ele>-31.125135</ele>
|
|
<time>2026-07-10T11:13:29.000Z</time>
|
|
</trkpt>
|
|
<trkpt lat="54.911177" lon="8.638913">
|
|
<ele>-31.042922</ele>
|
|
<time>2026-07-10T11:13:30.000Z</time>
|
|
</trkpt>
|
|
<trkpt lat="54.911186" lon="8.638841">
|
|
<ele>-30.968931</ele>
|
|
<time>2026-07-10T11:13:31.000Z</time>
|
|
</trkpt>
|
|
<trkpt lat="54.911196" lon="8.638782">
|
|
<ele>-30.907162</ele>
|
|
<time>2026-07-10T11:13:32.000Z</time>
|
|
</trkpt>
|
|
<trkpt lat="54.911203" lon="8.638730">
|
|
<ele>-30.853531</ele>
|
|
<time>2026-07-10T11:13:33.000Z</time>
|
|
</trkpt>
|
|
<trkpt lat="54.911204" lon="8.638684">
|
|
<ele>-30.807306</ele>
|
|
<time>2026-07-10T11:13:34.000Z</time>
|
|
</trkpt>
|
|
<trkpt lat="54.911198" lon="8.638650">
|
|
<ele>-30.771591</ele>
|
|
<time>2026-07-10T11:13:35.000Z</time>
|
|
</trkpt>
|
|
<trkpt lat="54.911180" lon="8.638625">
|
|
<ele>-30.731354</ele>
|
|
<time>2026-07-10T11:13:36.000Z</time>
|
|
</trkpt>
|
|
<trkpt lat="54.911163" lon="8.638613">
|
|
<ele>-30.699305</ele>
|
|
<time>2026-07-10T11:13:37.000Z</time>
|
|
</trkpt>
|
|
<trkpt lat="54.911151" lon="8.638608">
|
|
<ele>-30.677750</ele>
|
|
<time>2026-07-10T11:13:38.000Z</time>
|
|
</trkpt>
|
|
<trkpt lat="54.911140" lon="8.638607">
|
|
<ele>-30.658508</ele>
|
|
<time>2026-07-10T11:14:59.000Z</time>
|
|
</trkpt>
|
|
<trkpt lat="54.911140" lon="8.638607">
|
|
<ele>-30.658508</ele>
|
|
<time>2026-07-10T11:15:01.000Z</time>
|
|
</trkpt>
|
|
<trkpt lat="54.911153" lon="8.638593">
|
|
<ele>-30.631799</ele>
|
|
<time>2026-07-10T11:15:13.000Z</time>
|
|
</trkpt>
|
|
<trkpt lat="54.911191" lon="8.638544">
|
|
<ele>-30.549169</ele>
|
|
<time>2026-07-10T11:15:14.000Z</time>
|
|
</trkpt>
|
|
<trkpt lat="54.911195" lon="8.638513">
|
|
<ele>-30.517264</ele>
|
|
<time>2026-07-10T11:15:15.000Z</time>
|
|
</trkpt>
|
|
<trkpt lat="54.911199" lon="8.638486">
|
|
<ele>-30.489265</ele>
|
|
<time>2026-07-10T11:15:16.000Z</time>
|
|
</trkpt>
|
|
<trkpt lat="54.911201" lon="8.638459">
|
|
<ele>-30.461928</ele>
|
|
<time>2026-07-10T11:15:17.000Z</time>
|
|
</trkpt>
|
|
<trkpt lat="54.911201" lon="8.638432">
|
|
<ele>-30.434815</ele>
|
|
<time>2026-07-10T11:15:18.000Z</time>
|
|
</trkpt>
|
|
<trkpt lat="54.911201" lon="8.638413">
|
|
<ele>-30.415735</ele>
|
|
<time>2026-07-10T11:15:19.000Z</time>
|
|
</trkpt>
|
|
<trkpt lat="54.911203" lon="8.638400">
|
|
<ele>-30.402221</ele>
|
|
<time>2026-07-10T11:15:20.000Z</time>
|
|
</trkpt>
|
|
<trkpt lat="54.911204" lon="8.638386">
|
|
<ele>-30.388054</ele>
|
|
<time>2026-07-10T11:15:21.000Z</time>
|
|
</trkpt>
|
|
<trkpt lat="54.911203" lon="8.638365">
|
|
<ele>-30.366894</ele>
|
|
<time>2026-07-10T11:15:22.000Z</time>
|
|
</trkpt>
|
|
<trkpt lat="54.911204" lon="8.638345">
|
|
<ele>-30.346735</ele>
|
|
<time>2026-07-10T11:15:23.000Z</time>
|
|
</trkpt>
|
|
<trkpt lat="54.911201" lon="8.638332">
|
|
<ele>-30.332668</ele>
|
|
<time>2026-07-10T11:15:24.000Z</time>
|
|
</trkpt>
|
|
<trkpt lat="54.911200" lon="8.638322">
|
|
<ele>-30.322475</ele>
|
|
<time>2026-07-10T11:15:25.000Z</time>
|
|
</trkpt>
|
|
<trkpt lat="54.911198" lon="8.638313">
|
|
<ele>-30.312785</ele>
|
|
<time>2026-07-10T11:15:26.000Z</time>
|
|
</trkpt>
|
|
<trkpt lat="54.911198" lon="8.638313">
|
|
<ele>-30.312785</ele>
|
|
<time>2026-07-10T11:15:28.000Z</time>
|
|
</trkpt>
|
|
<trkpt lat="54.911150" lon="8.638647">
|
|
<ele>-29.967063</ele>
|
|
<time>2026-07-10T11:17:40.000Z</time>
|
|
</trkpt>
|
|
<trkpt lat="54.911158" lon="8.638680">
|
|
<ele>-29.931098</ele>
|
|
<time>2026-07-10T11:17:41.000Z</time>
|
|
</trkpt>
|
|
<trkpt lat="54.911163" lon="8.638719">
|
|
<ele>-29.890973</ele>
|
|
<time>2026-07-10T11:17:42.000Z</time>
|
|
</trkpt>
|
|
<trkpt lat="54.911162" lon="8.638762">
|
|
<ele>-29.847757</ele>
|
|
<time>2026-07-10T11:17:43.000Z</time>
|
|
</trkpt>
|
|
<trkpt lat="54.911160" lon="8.638812">
|
|
<ele>-29.797426</ele>
|
|
<time>2026-07-10T11:17:44.000Z</time>
|
|
</trkpt>
|
|
<trkpt lat="54.911157" lon="8.638865">
|
|
<ele>-29.743947</ele>
|
|
<time>2026-07-10T11:17:45.000Z</time>
|
|
</trkpt>
|
|
<trkpt lat="54.911151" lon="8.638919">
|
|
<ele>-29.688717</ele>
|
|
<time>2026-07-10T11:17:46.000Z</time>
|
|
</trkpt>
|
|
<trkpt lat="54.911146" lon="8.638975">
|
|
<ele>-29.631808</ele>
|
|
<time>2026-07-10T11:17:47.000Z</time>
|
|
</trkpt>
|
|
<trkpt lat="54.911138" lon="8.639035">
|
|
<ele>-29.569957</ele>
|
|
<time>2026-07-10T11:17:48.000Z</time>
|
|
</trkpt>
|
|
<trkpt lat="54.911131" lon="8.639096">
|
|
<ele>-29.507492</ele>
|
|
<time>2026-07-10T11:17:49.000Z</time>
|
|
</trkpt>
|
|
<trkpt lat="54.911122" lon="8.639162">
|
|
<ele>-29.439376</ele>
|
|
<time>2026-07-10T11:17:50.000Z</time>
|
|
</trkpt>
|
|
<trkpt lat="54.911112" lon="8.639229">
|
|
<ele>-29.369865</ele>
|
|
<time>2026-07-10T11:17:51.000Z</time>
|
|
</trkpt>
|
|
<trkpt lat="54.911103" lon="8.639298">
|
|
<ele>-29.298814</ele>
|
|
<time>2026-07-10T11:17:52.000Z</time>
|
|
</trkpt>
|
|
<trkpt lat="54.911091" lon="8.639372">
|
|
<ele>-29.221604</ele>
|
|
<time>2026-07-10T11:17:53.000Z</time>
|
|
</trkpt>
|
|
<trkpt lat="54.911081" lon="8.639447">
|
|
<ele>-29.144290</ele>
|
|
<time>2026-07-10T11:17:54.000Z</time>
|
|
</trkpt>
|
|
<trkpt lat="54.911074" lon="8.639528">
|
|
<ele>-29.062036</ele>
|
|
<time>2026-07-10T11:17:55.000Z</time>
|
|
</trkpt>
|
|
<trkpt lat="54.911070" lon="8.639609">
|
|
<ele>-29.029441</ele>
|
|
<time>2026-07-10T11:17:56.000Z</time>
|
|
</trkpt>
|
|
<trkpt lat="54.911061" lon="8.639691">
|
|
<ele>-29.029800</ele>
|
|
<time>2026-07-10T11:17:57.000Z</time>
|
|
</trkpt>
|
|
<trkpt lat="54.911050" lon="8.639773">
|
|
<ele>-29.030162</ele>
|
|
<time>2026-07-10T11:17:58.000Z</time>
|
|
</trkpt>
|
|
<trkpt lat="54.911041" lon="8.639856">
|
|
<ele>-29.030525</ele>
|
|
<time>2026-07-10T11:17:59.000Z</time>
|
|
</trkpt>
|
|
<trkpt lat="54.911026" lon="8.639939">
|
|
<ele>-29.030899</ele>
|
|
<time>2026-07-10T11:18:00.000Z</time>
|
|
</trkpt>
|
|
<trkpt lat="54.911015" lon="8.640022">
|
|
<ele>-29.031265</ele>
|
|
<time>2026-07-10T11:18:01.000Z</time>
|
|
</trkpt>
|
|
<trkpt lat="54.911002" lon="8.640107">
|
|
<ele>-29.031643</ele>
|
|
<time>2026-07-10T11:18:02.000Z</time>
|
|
</trkpt>
|
|
<trkpt lat="54.910989" lon="8.640194">
|
|
<ele>-29.032030</ele>
|
|
<time>2026-07-10T11:18:03.000Z</time>
|
|
</trkpt>
|
|
<trkpt lat="54.910981" lon="8.640285">
|
|
<ele>-29.032425</ele>
|
|
<time>2026-07-10T11:18:04.000Z</time>
|
|
</trkpt>
|
|
<trkpt lat="54.910969" lon="8.640374">
|
|
<ele>-29.032818</ele>
|
|
<time>2026-07-10T11:18:05.000Z</time>
|
|
</trkpt>
|
|
<trkpt lat="54.910959" lon="8.640466">
|
|
<ele>-29.033221</ele>
|
|
<time>2026-07-10T11:18:06.000Z</time>
|
|
</trkpt>
|
|
<trkpt lat="54.910949" lon="8.640558">
|
|
<ele>-29.033623</ele>
|
|
<time>2026-07-10T11:18:07.000Z</time>
|
|
</trkpt>
|
|
<trkpt lat="54.910936" lon="8.640652">
|
|
<ele>-29.034039</ele>
|
|
<time>2026-07-10T11:18:08.000Z</time>
|
|
</trkpt>
|
|
<trkpt lat="54.910927" lon="8.640745">
|
|
<ele>-29.034444</ele>
|
|
<time>2026-07-10T11:18:09.000Z</time>
|
|
</trkpt>
|
|
<trkpt lat="54.910917" lon="8.640842">
|
|
<ele>-29.034868</ele>
|
|
<time>2026-07-10T11:18:10.000Z</time>
|
|
</trkpt>
|
|
<trkpt lat="54.910908" lon="8.640939">
|
|
<ele>-29.035290</ele>
|
|
<time>2026-07-10T11:18:11.000Z</time>
|
|
</trkpt>
|
|
<trkpt lat="54.910896" lon="8.641037">
|
|
<ele>-29.035721</ele>
|
|
<time>2026-07-10T11:18:12.000Z</time>
|
|
</trkpt>
|
|
<trkpt lat="54.910881" lon="8.641134">
|
|
<ele>-29.036152</ele>
|
|
<time>2026-07-10T11:18:13.000Z</time>
|
|
</trkpt>
|
|
<trkpt lat="54.910870" lon="8.641234">
|
|
<ele>-29.036590</ele>
|
|
<time>2026-07-10T11:18:14.000Z</time>
|
|
</trkpt>
|
|
<trkpt lat="54.910859" lon="8.641335">
|
|
<ele>-29.037032</ele>
|
|
<time>2026-07-10T11:18:15.000Z</time>
|
|
</trkpt>
|
|
<trkpt lat="54.910847" lon="8.641436">
|
|
<ele>-29.037475</ele>
|
|
<time>2026-07-10T11:18:16.000Z</time>
|
|
</trkpt>
|
|
<trkpt lat="54.910834" lon="8.641537">
|
|
<ele>-29.037920</ele>
|
|
<time>2026-07-10T11:18:17.000Z</time>
|
|
</trkpt>
|
|
<trkpt lat="54.910820" lon="8.641641">
|
|
<ele>-29.038379</ele>
|
|
<time>2026-07-10T11:18:18.000Z</time>
|
|
</trkpt>
|
|
<trkpt lat="54.910809" lon="8.641744">
|
|
<ele>-29.038829</ele>
|
|
<time>2026-07-10T11:18:19.000Z</time>
|
|
</trkpt>
|
|
<trkpt lat="54.910797" lon="8.641848">
|
|
<ele>-29.039285</ele>
|
|
<time>2026-07-10T11:18:20.000Z</time>
|
|
</trkpt>
|
|
<trkpt lat="54.910786" lon="8.641950">
|
|
<ele>-29.039731</ele>
|
|
<time>2026-07-10T11:18:21.000Z</time>
|
|
</trkpt>
|
|
<trkpt lat="54.910775" lon="8.642052">
|
|
<ele>-29.040177</ele>
|
|
<time>2026-07-10T11:18:22.000Z</time>
|
|
</trkpt>
|
|
<trkpt lat="54.910763" lon="8.642157">
|
|
<ele>-29.040638</ele>
|
|
<time>2026-07-10T11:18:23.000Z</time>
|
|
</trkpt>
|
|
<trkpt lat="54.910751" lon="8.642264">
|
|
<ele>-29.041106</ele>
|
|
<time>2026-07-10T11:18:24.000Z</time>
|
|
</trkpt>
|
|
<trkpt lat="54.910738" lon="8.642369">
|
|
<ele>-29.041568</ele>
|
|
<time>2026-07-10T11:18:25.000Z</time>
|
|
</trkpt>
|
|
<trkpt lat="54.910728" lon="8.642475">
|
|
<ele>-29.042030</ele>
|
|
<time>2026-07-10T11:18:26.000Z</time>
|
|
</trkpt>
|
|
<trkpt lat="54.910714" lon="8.642582">
|
|
<ele>-29.042501</ele>
|
|
<time>2026-07-10T11:18:27.000Z</time>
|
|
</trkpt>
|
|
<trkpt lat="54.910701" lon="8.642687">
|
|
<ele>-29.043332</ele>
|
|
<time>2026-07-10T11:18:28.000Z</time>
|
|
</trkpt>
|
|
<trkpt lat="54.910686" lon="8.642793">
|
|
<ele>-29.044416</ele>
|
|
<time>2026-07-10T11:18:29.000Z</time>
|
|
</trkpt>
|
|
<trkpt lat="54.910672" lon="8.642903">
|
|
<ele>-29.045535</ele>
|
|
<time>2026-07-10T11:18:30.000Z</time>
|
|
</trkpt>
|
|
<trkpt lat="54.910660" lon="8.643011">
|
|
<ele>-29.046627</ele>
|
|
<time>2026-07-10T11:18:31.000Z</time>
|
|
</trkpt>
|
|
<trkpt lat="54.910649" lon="8.643120">
|
|
<ele>-29.047726</ele>
|
|
<time>2026-07-10T11:18:32.000Z</time>
|
|
</trkpt>
|
|
<trkpt lat="54.910637" lon="8.643228">
|
|
<ele>-29.048819</ele>
|
|
<time>2026-07-10T11:18:33.000Z</time>
|
|
</trkpt>
|
|
<trkpt lat="54.910626" lon="8.643337">
|
|
<ele>-29.049918</ele>
|
|
<time>2026-07-10T11:18:34.000Z</time>
|
|
</trkpt>
|
|
<trkpt lat="54.910614" lon="8.643446">
|
|
<ele>-29.051020</ele>
|
|
<time>2026-07-10T11:18:35.000Z</time>
|
|
</trkpt>
|
|
<trkpt lat="54.910599" lon="8.643557">
|
|
<ele>-29.052152</ele>
|
|
<time>2026-07-10T11:18:36.000Z</time>
|
|
</trkpt>
|
|
<trkpt lat="54.910588" lon="8.643669">
|
|
<ele>-29.053280</ele>
|
|
<time>2026-07-10T11:18:37.000Z</time>
|
|
</trkpt>
|
|
<trkpt lat="54.910575" lon="8.643778">
|
|
<ele>-29.054386</ele>
|
|
<time>2026-07-10T11:18:38.000Z</time>
|
|
</trkpt>
|
|
<trkpt lat="54.910560" lon="8.643888">
|
|
<ele>-29.055508</ele>
|
|
<time>2026-07-10T11:18:39.000Z</time>
|
|
</trkpt>
|
|
<trkpt lat="54.910546" lon="8.644000">
|
|
<ele>-29.056647</ele>
|
|
<time>2026-07-10T11:18:40.000Z</time>
|
|
</trkpt>
|
|
<trkpt lat="54.910534" lon="8.644111">
|
|
<ele>-29.057768</ele>
|
|
<time>2026-07-10T11:18:41.000Z</time>
|
|
</trkpt>
|
|
<trkpt lat="54.910522" lon="8.644222">
|
|
<ele>-29.058890</ele>
|
|
<time>2026-07-10T11:18:42.000Z</time>
|
|
</trkpt>
|
|
<trkpt lat="54.910506" lon="8.644333">
|
|
<ele>-29.060026</ele>
|
|
<time>2026-07-10T11:18:43.000Z</time>
|
|
</trkpt>
|
|
<trkpt lat="54.910492" lon="8.644443">
|
|
<ele>-29.061145</ele>
|
|
<time>2026-07-10T11:18:44.000Z</time>
|
|
</trkpt>
|
|
<trkpt lat="54.910481" lon="8.644554">
|
|
<ele>-29.062263</ele>
|
|
<time>2026-07-10T11:18:45.000Z</time>
|
|
</trkpt>
|
|
<trkpt lat="54.910470" lon="8.644664">
|
|
<ele>-29.063372</ele>
|
|
<time>2026-07-10T11:18:46.000Z</time>
|
|
</trkpt>
|
|
<trkpt lat="54.910458" lon="8.644777">
|
|
<ele>-29.064513</ele>
|
|
<time>2026-07-10T11:18:47.000Z</time>
|
|
</trkpt>
|
|
<trkpt lat="54.910447" lon="8.644887">
|
|
<ele>-29.065622</ele>
|
|
<time>2026-07-10T11:18:48.000Z</time>
|
|
</trkpt>
|
|
<trkpt lat="54.910434" lon="8.644999">
|
|
<ele>-29.066757</ele>
|
|
<time>2026-07-10T11:18:49.000Z</time>
|
|
</trkpt>
|
|
<trkpt lat="54.910419" lon="8.645109">
|
|
<ele>-29.067879</ele>
|
|
<time>2026-07-10T11:18:50.000Z</time>
|
|
</trkpt>
|
|
<trkpt lat="54.910405" lon="8.645219">
|
|
<ele>-29.068998</ele>
|
|
<time>2026-07-10T11:18:51.000Z</time>
|
|
</trkpt>
|
|
<trkpt lat="54.910392" lon="8.645330">
|
|
<ele>-29.070123</ele>
|
|
<time>2026-07-10T11:18:52.000Z</time>
|
|
</trkpt>
|
|
<trkpt lat="54.910377" lon="8.645442">
|
|
<ele>-29.071265</ele>
|
|
<time>2026-07-10T11:18:53.000Z</time>
|
|
</trkpt>
|
|
<trkpt lat="54.910363" lon="8.645552">
|
|
<ele>-29.072384</ele>
|
|
<time>2026-07-10T11:18:54.000Z</time>
|
|
</trkpt>
|
|
<trkpt lat="54.910350" lon="8.645664">
|
|
<ele>-29.073518</ele>
|
|
<time>2026-07-10T11:18:55.000Z</time>
|
|
</trkpt>
|
|
<trkpt lat="54.910336" lon="8.645775">
|
|
<ele>-29.072505</ele>
|
|
<time>2026-07-10T11:18:56.000Z</time>
|
|
</trkpt>
|
|
<trkpt lat="54.910325" lon="8.645886">
|
|
<ele>-29.070948</ele>
|
|
<time>2026-07-10T11:18:57.000Z</time>
|
|
</trkpt>
|
|
<trkpt lat="54.910313" lon="8.645997">
|
|
<ele>-29.069387</ele>
|
|
<time>2026-07-10T11:18:58.000Z</time>
|
|
</trkpt>
|
|
<trkpt lat="54.910301" lon="8.646107">
|
|
<ele>-29.067840</ele>
|
|
<time>2026-07-10T11:18:59.000Z</time>
|
|
</trkpt>
|
|
<trkpt lat="54.910286" lon="8.646219">
|
|
<ele>-29.066250</ele>
|
|
<time>2026-07-10T11:19:00.000Z</time>
|
|
</trkpt>
|
|
<trkpt lat="54.910275" lon="8.646332">
|
|
<ele>-29.064666</ele>
|
|
<time>2026-07-10T11:19:01.000Z</time>
|
|
</trkpt>
|
|
<trkpt lat="54.910264" lon="8.646445">
|
|
<ele>-29.063082</ele>
|
|
<time>2026-07-10T11:19:02.000Z</time>
|
|
</trkpt>
|
|
<trkpt lat="54.910252" lon="8.646560">
|
|
<ele>-29.061466</ele>
|
|
<time>2026-07-10T11:19:03.000Z</time>
|
|
</trkpt>
|
|
<trkpt lat="54.910241" lon="8.646676">
|
|
<ele>-29.059841</ele>
|
|
<time>2026-07-10T11:19:04.000Z</time>
|
|
</trkpt>
|
|
<trkpt lat="54.910228" lon="8.646791">
|
|
<ele>-29.058222</ele>
|
|
<time>2026-07-10T11:19:05.000Z</time>
|
|
</trkpt>
|
|
<trkpt lat="54.910214" lon="8.646905">
|
|
<ele>-29.056610</ele>
|
|
<time>2026-07-10T11:19:06.000Z</time>
|
|
</trkpt>
|
|
<trkpt lat="54.910201" lon="8.647021">
|
|
<ele>-29.054977</ele>
|
|
<time>2026-07-10T11:19:07.000Z</time>
|
|
</trkpt>
|
|
<trkpt lat="54.910186" lon="8.647135">
|
|
<ele>-29.053360</ele>
|
|
<time>2026-07-10T11:19:08.000Z</time>
|
|
</trkpt>
|
|
<trkpt lat="54.910171" lon="8.647249">
|
|
<ele>-29.051744</ele>
|
|
<time>2026-07-10T11:19:09.000Z</time>
|
|
</trkpt>
|
|
<trkpt lat="54.910155" lon="8.647367">
|
|
<ele>-29.050068</ele>
|
|
<time>2026-07-10T11:19:10.000Z</time>
|
|
</trkpt>
|
|
<trkpt lat="54.910141" lon="8.647484">
|
|
<ele>-29.048416</ele>
|
|
<time>2026-07-10T11:19:11.000Z</time>
|
|
</trkpt>
|
|
<trkpt lat="54.910129" lon="8.647602">
|
|
<ele>-29.046760</ele>
|
|
<time>2026-07-10T11:19:12.000Z</time>
|
|
</trkpt>
|
|
<trkpt lat="54.910115" lon="8.647719">
|
|
<ele>-29.045108</ele>
|
|
<time>2026-07-10T11:19:13.000Z</time>
|
|
</trkpt>
|
|
<trkpt lat="54.910103" lon="8.647836">
|
|
<ele>-29.043465</ele>
|
|
<time>2026-07-10T11:19:14.000Z</time>
|
|
</trkpt>
|
|
<trkpt lat="54.910091" lon="8.647953">
|
|
<ele>-29.041823</ele>
|
|
<time>2026-07-10T11:19:15.000Z</time>
|
|
</trkpt>
|
|
<trkpt lat="54.910076" lon="8.648074">
|
|
<ele>-29.040112</ele>
|
|
<time>2026-07-10T11:19:16.000Z</time>
|
|
</trkpt>
|
|
<trkpt lat="54.910064" lon="8.648190">
|
|
<ele>-29.038483</ele>
|
|
<time>2026-07-10T11:19:17.000Z</time>
|
|
</trkpt>
|
|
<trkpt lat="54.910050" lon="8.648306">
|
|
<ele>-29.036844</ele>
|
|
<time>2026-07-10T11:19:18.000Z</time>
|
|
</trkpt>
|
|
<trkpt lat="54.910037" lon="8.648423">
|
|
<ele>-29.035197</ele>
|
|
<time>2026-07-10T11:19:19.000Z</time>
|
|
</trkpt>
|
|
<trkpt lat="54.910023" lon="8.648540">
|
|
<ele>-29.033546</ele>
|
|
<time>2026-07-10T11:19:20.000Z</time>
|
|
</trkpt>
|
|
<trkpt lat="54.910012" lon="8.648656">
|
|
<ele>-29.031921</ele>
|
|
<time>2026-07-10T11:19:21.000Z</time>
|
|
</trkpt>
|
|
<trkpt lat="54.909999" lon="8.648773">
|
|
<ele>-29.029464</ele>
|
|
<time>2026-07-10T11:19:22.000Z</time>
|
|
</trkpt>
|
|
<trkpt lat="54.909985" lon="8.648892">
|
|
<ele>-29.021916</ele>
|
|
<time>2026-07-10T11:19:23.000Z</time>
|
|
</trkpt>
|
|
<trkpt lat="54.909972" lon="8.649008">
|
|
<ele>-29.014572</ele>
|
|
<time>2026-07-10T11:19:24.000Z</time>
|
|
</trkpt>
|
|
<trkpt lat="54.909958" lon="8.649125">
|
|
<ele>-29.007146</ele>
|
|
<time>2026-07-10T11:19:25.000Z</time>
|
|
</trkpt>
|
|
<trkpt lat="54.909946" lon="8.649243">
|
|
<ele>-28.999700</ele>
|
|
<time>2026-07-10T11:19:26.000Z</time>
|
|
</trkpt>
|
|
<trkpt lat="54.909932" lon="8.649362">
|
|
<ele>-28.992152</ele>
|
|
<time>2026-07-10T11:19:27.000Z</time>
|
|
</trkpt>
|
|
<trkpt lat="54.909919" lon="8.649482">
|
|
<ele>-28.984564</ele>
|
|
<time>2026-07-10T11:19:28.000Z</time>
|
|
</trkpt>
|
|
<trkpt lat="54.909905" lon="8.649600">
|
|
<ele>-28.977077</ele>
|
|
<time>2026-07-10T11:19:29.000Z</time>
|
|
</trkpt>
|
|
<trkpt lat="54.909892" lon="8.649719">
|
|
<ele>-28.969551</ele>
|
|
<time>2026-07-10T11:19:30.000Z</time>
|
|
</trkpt>
|
|
<trkpt lat="54.909878" lon="8.649839">
|
|
<ele>-28.961942</ele>
|
|
<time>2026-07-10T11:19:31.000Z</time>
|
|
</trkpt>
|
|
<trkpt lat="54.909866" lon="8.649956">
|
|
<ele>-28.954557</ele>
|
|
<time>2026-07-10T11:19:32.000Z</time>
|
|
</trkpt>
|
|
<trkpt lat="54.909851" lon="8.650076">
|
|
<ele>-28.946926</ele>
|
|
<time>2026-07-10T11:19:33.000Z</time>
|
|
</trkpt>
|
|
<trkpt lat="54.909839" lon="8.650196">
|
|
<ele>-28.939357</ele>
|
|
<time>2026-07-10T11:19:34.000Z</time>
|
|
</trkpt>
|
|
<trkpt lat="54.909825" lon="8.650312">
|
|
<ele>-28.931992</ele>
|
|
<time>2026-07-10T11:19:35.000Z</time>
|
|
</trkpt>
|
|
<trkpt lat="54.909812" lon="8.650428">
|
|
<ele>-28.924648</ele>
|
|
<time>2026-07-10T11:19:36.000Z</time>
|
|
</trkpt>
|
|
<trkpt lat="54.909797" lon="8.650546">
|
|
<ele>-28.917139</ele>
|
|
<time>2026-07-10T11:19:37.000Z</time>
|
|
</trkpt>
|
|
<trkpt lat="54.909782" lon="8.650663">
|
|
<ele>-28.909690</ele>
|
|
<time>2026-07-10T11:19:38.000Z</time>
|
|
</trkpt>
|
|
<trkpt lat="54.909766" lon="8.650780">
|
|
<ele>-28.902217</ele>
|
|
<time>2026-07-10T11:19:39.000Z</time>
|
|
</trkpt>
|
|
<trkpt lat="54.909751" lon="8.650898">
|
|
<ele>-28.894707</ele>
|
|
<time>2026-07-10T11:19:40.000Z</time>
|
|
</trkpt>
|
|
<trkpt lat="54.909736" lon="8.651017">
|
|
<ele>-28.887137</ele>
|
|
<time>2026-07-10T11:19:41.000Z</time>
|
|
</trkpt>
|
|
<trkpt lat="54.909721" lon="8.651132">
|
|
<ele>-28.879810</ele>
|
|
<time>2026-07-10T11:19:42.000Z</time>
|
|
</trkpt>
|
|
<trkpt lat="54.909705" lon="8.651249">
|
|
<ele>-28.872336</ele>
|
|
<time>2026-07-10T11:19:43.000Z</time>
|
|
</trkpt>
|
|
<trkpt lat="54.909690" lon="8.651365">
|
|
<ele>-28.864948</ele>
|
|
<time>2026-07-10T11:19:44.000Z</time>
|
|
</trkpt>
|
|
<trkpt lat="54.909675" lon="8.651479">
|
|
<ele>-28.857681</ele>
|
|
<time>2026-07-10T11:19:45.000Z</time>
|
|
</trkpt>
|
|
<trkpt lat="54.909661" lon="8.651594">
|
|
<ele>-28.850377</ele>
|
|
<time>2026-07-10T11:19:46.000Z</time>
|
|
</trkpt>
|
|
<trkpt lat="54.909648" lon="8.651711">
|
|
<ele>-28.842972</ele>
|
|
<time>2026-07-10T11:19:47.000Z</time>
|
|
</trkpt>
|
|
<trkpt lat="54.909634" lon="8.651826">
|
|
<ele>-28.835828</ele>
|
|
<time>2026-07-10T11:19:48.000Z</time>
|
|
</trkpt>
|
|
<trkpt lat="54.909622" lon="8.651941">
|
|
<ele>-28.831354</ele>
|
|
<time>2026-07-10T11:19:49.000Z</time>
|
|
</trkpt>
|
|
<trkpt lat="54.909606" lon="8.652057">
|
|
<ele>-28.826788</ele>
|
|
<time>2026-07-10T11:19:50.000Z</time>
|
|
</trkpt>
|
|
<trkpt lat="54.909592" lon="8.652174">
|
|
<ele>-28.822214</ele>
|
|
<time>2026-07-10T11:19:51.000Z</time>
|
|
</trkpt>
|
|
<trkpt lat="54.909581" lon="8.652291">
|
|
<ele>-28.817677</ele>
|
|
<time>2026-07-10T11:19:52.000Z</time>
|
|
</trkpt>
|
|
<trkpt lat="54.909569" lon="8.652407">
|
|
<ele>-28.813166</ele>
|
|
<time>2026-07-10T11:19:53.000Z</time>
|
|
</trkpt>
|
|
<trkpt lat="54.909557" lon="8.652525">
|
|
<ele>-28.808579</ele>
|
|
<time>2026-07-10T11:19:54.000Z</time>
|
|
</trkpt>
|
|
<trkpt lat="54.909543" lon="8.652641">
|
|
<ele>-28.804043</ele>
|
|
<time>2026-07-10T11:19:55.000Z</time>
|
|
</trkpt>
|
|
<trkpt lat="54.909530" lon="8.652757">
|
|
<ele>-28.799519</ele>
|
|
<time>2026-07-10T11:19:56.000Z</time>
|
|
</trkpt>
|
|
<trkpt lat="54.909515" lon="8.652875">
|
|
<ele>-28.794894</ele>
|
|
<time>2026-07-10T11:19:57.000Z</time>
|
|
</trkpt>
|
|
<trkpt lat="54.909499" lon="8.652992">
|
|
<ele>-28.790291</ele>
|
|
<time>2026-07-10T11:19:58.000Z</time>
|
|
</trkpt>
|
|
<trkpt lat="54.909485" lon="8.653109">
|
|
<ele>-28.785717</ele>
|
|
<time>2026-07-10T11:19:59.000Z</time>
|
|
</trkpt>
|
|
<trkpt lat="54.909473" lon="8.653227">
|
|
<ele>-28.781130</ele>
|
|
<time>2026-07-10T11:20:00.000Z</time>
|
|
</trkpt>
|
|
<trkpt lat="54.909459" lon="8.653343">
|
|
<ele>-28.776594</ele>
|
|
<time>2026-07-10T11:20:01.000Z</time>
|
|
</trkpt>
|
|
<trkpt lat="54.909446" lon="8.653460">
|
|
<ele>-28.772033</ele>
|
|
<time>2026-07-10T11:20:02.000Z</time>
|
|
</trkpt>
|
|
<trkpt lat="54.909431" lon="8.653576">
|
|
<ele>-28.767482</ele>
|
|
<time>2026-07-10T11:20:03.000Z</time>
|
|
</trkpt>
|
|
<trkpt lat="54.909417" lon="8.653694">
|
|
<ele>-28.762870</ele>
|
|
<time>2026-07-10T11:20:04.000Z</time>
|
|
</trkpt>
|
|
<trkpt lat="54.909404" lon="8.653814">
|
|
<ele>-28.758196</ele>
|
|
<time>2026-07-10T11:20:05.000Z</time>
|
|
</trkpt>
|
|
<trkpt lat="54.909390" lon="8.653931">
|
|
<ele>-28.753622</ele>
|
|
<time>2026-07-10T11:20:06.000Z</time>
|
|
</trkpt>
|
|
<trkpt lat="54.909377" lon="8.654049">
|
|
<ele>-28.749024</ele>
|
|
<time>2026-07-10T11:20:07.000Z</time>
|
|
</trkpt>
|
|
<trkpt lat="54.909362" lon="8.654167">
|
|
<ele>-28.744398</ele>
|
|
<time>2026-07-10T11:20:08.000Z</time>
|
|
</trkpt>
|
|
<trkpt lat="54.909347" lon="8.654285">
|
|
<ele>-28.739773</ele>
|
|
<time>2026-07-10T11:20:09.000Z</time>
|
|
</trkpt>
|
|
<trkpt lat="54.909333" lon="8.654399">
|
|
<ele>-28.735311</ele>
|
|
<time>2026-07-10T11:20:10.000Z</time>
|
|
</trkpt>
|
|
<trkpt lat="54.909320" lon="8.654513">
|
|
<ele>-28.730863</ele>
|
|
<time>2026-07-10T11:20:11.000Z</time>
|
|
</trkpt>
|
|
<trkpt lat="54.909306" lon="8.654625">
|
|
<ele>-28.726476</ele>
|
|
<time>2026-07-10T11:20:12.000Z</time>
|
|
</trkpt>
|
|
<trkpt lat="54.909293" lon="8.654739">
|
|
<ele>-28.722028</ele>
|
|
<time>2026-07-10T11:20:13.000Z</time>
|
|
</trkpt>
|
|
<trkpt lat="54.909278" lon="8.654854">
|
|
<ele>-28.717514</ele>
|
|
<time>2026-07-10T11:20:14.000Z</time>
|
|
</trkpt>
|
|
<trkpt lat="54.909264" lon="8.654965">
|
|
<ele>-28.712655</ele>
|
|
<time>2026-07-10T11:20:15.000Z</time>
|
|
</trkpt>
|
|
<trkpt lat="54.909252" lon="8.655076">
|
|
<ele>-28.707637</ele>
|
|
<time>2026-07-10T11:20:16.000Z</time>
|
|
</trkpt>
|
|
<trkpt lat="54.909237" lon="8.655193">
|
|
<ele>-28.702311</ele>
|
|
<time>2026-07-10T11:20:17.000Z</time>
|
|
</trkpt>
|
|
<trkpt lat="54.909226" lon="8.655308">
|
|
<ele>-28.697132</ele>
|
|
<time>2026-07-10T11:20:18.000Z</time>
|
|
</trkpt>
|
|
<trkpt lat="54.909214" lon="8.655422">
|
|
<ele>-28.691983</ele>
|
|
<time>2026-07-10T11:20:19.000Z</time>
|
|
</trkpt>
|
|
<trkpt lat="54.909203" lon="8.655535">
|
|
<ele>-28.686891</ele>
|
|
<time>2026-07-10T11:20:20.000Z</time>
|
|
</trkpt>
|
|
<trkpt lat="54.909190" lon="8.655646">
|
|
<ele>-28.681858</ele>
|
|
<time>2026-07-10T11:20:21.000Z</time>
|
|
</trkpt>
|
|
<trkpt lat="54.909176" lon="8.655759">
|
|
<ele>-28.676722</ele>
|
|
<time>2026-07-10T11:20:22.000Z</time>
|
|
</trkpt>
|
|
<trkpt lat="54.909165" lon="8.655872">
|
|
<ele>-28.671630</ele>
|
|
<time>2026-07-10T11:20:23.000Z</time>
|
|
</trkpt>
|
|
<trkpt lat="54.909152" lon="8.655986">
|
|
<ele>-28.666467</ele>
|
|
<time>2026-07-10T11:20:24.000Z</time>
|
|
</trkpt>
|
|
<trkpt lat="54.909138" lon="8.656099">
|
|
<ele>-28.661331</ele>
|
|
<time>2026-07-10T11:20:25.000Z</time>
|
|
</trkpt>
|
|
<trkpt lat="54.909125" lon="8.656213">
|
|
<ele>-28.656167</ele>
|
|
<time>2026-07-10T11:20:26.000Z</time>
|
|
</trkpt>
|
|
<trkpt lat="54.909111" lon="8.656326">
|
|
<ele>-28.651031</ele>
|
|
<time>2026-07-10T11:20:27.000Z</time>
|
|
</trkpt>
|
|
<trkpt lat="54.909099" lon="8.656440">
|
|
<ele>-28.645882</ele>
|
|
<time>2026-07-10T11:20:28.000Z</time>
|
|
</trkpt>
|
|
<trkpt lat="54.909084" lon="8.656554">
|
|
<ele>-28.640686</ele>
|
|
<time>2026-07-10T11:20:29.000Z</time>
|
|
</trkpt>
|
|
<trkpt lat="54.909068" lon="8.656671">
|
|
<ele>-28.635343</ele>
|
|
<time>2026-07-10T11:20:30.000Z</time>
|
|
</trkpt>
|
|
<trkpt lat="54.909054" lon="8.656787">
|
|
<ele>-28.630077</ele>
|
|
<time>2026-07-10T11:20:31.000Z</time>
|
|
</trkpt>
|
|
<trkpt lat="54.909043" lon="8.656902">
|
|
<ele>-28.624897</ele>
|
|
<time>2026-07-10T11:20:32.000Z</time>
|
|
</trkpt>
|
|
<trkpt lat="54.909031" lon="8.657020">
|
|
<ele>-28.619573</ele>
|
|
<time>2026-07-10T11:20:33.000Z</time>
|
|
</trkpt>
|
|
<trkpt lat="54.909019" lon="8.657137">
|
|
<ele>-28.614293</ele>
|
|
<time>2026-07-10T11:20:34.000Z</time>
|
|
</trkpt>
|
|
<trkpt lat="54.909004" lon="8.657251">
|
|
<ele>-28.609097</ele>
|
|
<time>2026-07-10T11:20:35.000Z</time>
|
|
</trkpt>
|
|
<trkpt lat="54.908989" lon="8.657366">
|
|
<ele>-28.603858</ele>
|
|
<time>2026-07-10T11:20:36.000Z</time>
|
|
</trkpt>
|
|
<trkpt lat="54.908974" lon="8.657482">
|
|
<ele>-28.598575</ele>
|
|
<time>2026-07-10T11:20:37.000Z</time>
|
|
</trkpt>
|
|
<trkpt lat="54.908962" lon="8.657597">
|
|
<ele>-28.593382</ele>
|
|
<time>2026-07-10T11:20:38.000Z</time>
|
|
</trkpt>
|
|
<trkpt lat="54.908949" lon="8.657713">
|
|
<ele>-28.588132</ele>
|
|
<time>2026-07-10T11:20:39.000Z</time>
|
|
</trkpt>
|
|
<trkpt lat="54.908940" lon="8.657830">
|
|
<ele>-28.582887</ele>
|
|
<time>2026-07-10T11:20:40.000Z</time>
|
|
</trkpt>
|
|
<trkpt lat="54.908928" lon="8.657947">
|
|
<ele>-28.577607</ele>
|
|
<time>2026-07-10T11:20:41.000Z</time>
|
|
</trkpt>
|
|
<trkpt lat="54.908916" lon="8.658064">
|
|
<ele>-28.570342</ele>
|
|
<time>2026-07-10T11:20:42.000Z</time>
|
|
</trkpt>
|
|
<trkpt lat="54.908901" lon="8.658181">
|
|
<ele>-28.562902</ele>
|
|
<time>2026-07-10T11:20:43.000Z</time>
|
|
</trkpt>
|
|
<trkpt lat="54.908885" lon="8.658296">
|
|
<ele>-28.555559</ele>
|
|
<time>2026-07-10T11:20:44.000Z</time>
|
|
</trkpt>
|
|
<trkpt lat="54.908870" lon="8.658414">
|
|
<ele>-28.548058</ele>
|
|
<time>2026-07-10T11:20:45.000Z</time>
|
|
</trkpt>
|
|
<trkpt lat="54.908855" lon="8.658530">
|
|
<ele>-28.540678</ele>
|
|
<time>2026-07-10T11:20:46.000Z</time>
|
|
</trkpt>
|
|
<trkpt lat="54.908841" lon="8.658647">
|
|
<ele>-28.533261</ele>
|
|
<time>2026-07-10T11:20:47.000Z</time>
|
|
</trkpt>
|
|
<trkpt lat="54.908829" lon="8.658765">
|
|
<ele>-28.525823</ele>
|
|
<time>2026-07-10T11:20:48.000Z</time>
|
|
</trkpt>
|
|
<trkpt lat="54.908818" lon="8.658881">
|
|
<ele>-28.518526</ele>
|
|
<time>2026-07-10T11:20:49.000Z</time>
|
|
</trkpt>
|
|
<trkpt lat="54.908806" lon="8.658995">
|
|
<ele>-28.511333</ele>
|
|
<time>2026-07-10T11:20:50.000Z</time>
|
|
</trkpt>
|
|
<trkpt lat="54.908794" lon="8.659109">
|
|
<ele>-28.504140</ele>
|
|
<time>2026-07-10T11:20:51.000Z</time>
|
|
</trkpt>
|
|
<trkpt lat="54.908778" lon="8.659223">
|
|
<ele>-28.496857</ele>
|
|
<time>2026-07-10T11:20:52.000Z</time>
|
|
</trkpt>
|
|
<trkpt lat="54.908763" lon="8.659337">
|
|
<ele>-28.489598</ele>
|
|
<time>2026-07-10T11:20:53.000Z</time>
|
|
</trkpt>
|
|
<trkpt lat="54.908749" lon="8.659452">
|
|
<ele>-28.482302</ele>
|
|
<time>2026-07-10T11:20:54.000Z</time>
|
|
</trkpt>
|
|
<trkpt lat="54.908737" lon="8.659566">
|
|
<ele>-28.475109</ele>
|
|
<time>2026-07-10T11:20:55.000Z</time>
|
|
</trkpt>
|
|
<trkpt lat="54.908723" lon="8.659682">
|
|
<ele>-28.467753</ele>
|
|
<time>2026-07-10T11:20:56.000Z</time>
|
|
</trkpt>
|
|
<trkpt lat="54.908716" lon="8.659798">
|
|
<ele>-28.460513</ele>
|
|
<time>2026-07-10T11:20:57.000Z</time>
|
|
</trkpt>
|
|
<trkpt lat="54.908709" lon="8.659915">
|
|
<ele>-28.453212</ele>
|
|
<time>2026-07-10T11:20:58.000Z</time>
|
|
</trkpt>
|
|
<trkpt lat="54.908708" lon="8.660031">
|
|
<ele>-28.446012</ele>
|
|
<time>2026-07-10T11:20:59.000Z</time>
|
|
</trkpt>
|
|
<trkpt lat="54.908714" lon="8.660148">
|
|
<ele>-28.438721</ele>
|
|
<time>2026-07-10T11:21:00.000Z</time>
|
|
</trkpt>
|
|
<trkpt lat="54.908728" lon="8.660263">
|
|
<ele>-28.431425</ele>
|
|
<time>2026-07-10T11:21:01.000Z</time>
|
|
</trkpt>
|
|
<trkpt lat="54.908749" lon="8.660374">
|
|
<ele>-28.424173</ele>
|
|
<time>2026-07-10T11:21:02.000Z</time>
|
|
</trkpt>
|
|
<trkpt lat="54.908777" lon="8.660482">
|
|
<ele>-28.416819</ele>
|
|
<time>2026-07-10T11:21:03.000Z</time>
|
|
</trkpt>
|
|
<trkpt lat="54.908806" lon="8.660590">
|
|
<ele>-28.409421</ele>
|
|
<time>2026-07-10T11:21:04.000Z</time>
|
|
</trkpt>
|
|
<trkpt lat="54.908835" lon="8.660696">
|
|
<ele>-28.402135</ele>
|
|
<time>2026-07-10T11:21:05.000Z</time>
|
|
</trkpt>
|
|
<trkpt lat="54.908868" lon="8.660801">
|
|
<ele>-28.394708</ele>
|
|
<time>2026-07-10T11:21:06.000Z</time>
|
|
</trkpt>
|
|
<trkpt lat="54.908900" lon="8.660906">
|
|
<ele>-28.387332</ele>
|
|
<time>2026-07-10T11:21:07.000Z</time>
|
|
</trkpt>
|
|
<trkpt lat="54.908933" lon="8.661010">
|
|
<ele>-28.380256</ele>
|
|
<time>2026-07-10T11:21:08.000Z</time>
|
|
</trkpt>
|
|
<trkpt lat="54.908965" lon="8.661113">
|
|
<ele>-28.373669</ele>
|
|
<time>2026-07-10T11:21:09.000Z</time>
|
|
</trkpt>
|
|
<trkpt lat="54.908999" lon="8.661216">
|
|
<ele>-28.366987</ele>
|
|
<time>2026-07-10T11:21:10.000Z</time>
|
|
</trkpt>
|
|
<trkpt lat="54.909032" lon="8.661318">
|
|
<ele>-28.360401</ele>
|
|
<time>2026-07-10T11:21:11.000Z</time>
|
|
</trkpt>
|
|
<trkpt lat="54.909064" lon="8.661421">
|
|
<ele>-28.353814</ele>
|
|
<time>2026-07-10T11:21:12.000Z</time>
|
|
</trkpt>
|
|
<trkpt lat="54.909097" lon="8.661522">
|
|
<ele>-28.347278</ele>
|
|
<time>2026-07-10T11:21:13.000Z</time>
|
|
</trkpt>
|
|
<trkpt lat="54.909128" lon="8.661623">
|
|
<ele>-28.340837</ele>
|
|
<time>2026-07-10T11:21:14.000Z</time>
|
|
</trkpt>
|
|
<trkpt lat="54.909159" lon="8.661724">
|
|
<ele>-28.334395</ele>
|
|
<time>2026-07-10T11:21:15.000Z</time>
|
|
</trkpt>
|
|
<trkpt lat="54.909191" lon="8.661825">
|
|
<ele>-28.327907</ele>
|
|
<time>2026-07-10T11:21:16.000Z</time>
|
|
</trkpt>
|
|
<trkpt lat="54.909220" lon="8.661928">
|
|
<ele>-28.321454</ele>
|
|
<time>2026-07-10T11:21:17.000Z</time>
|
|
</trkpt>
|
|
<trkpt lat="54.909254" lon="8.662030">
|
|
<ele>-28.314820</ele>
|
|
<time>2026-07-10T11:21:18.000Z</time>
|
|
</trkpt>
|
|
<trkpt lat="54.909285" lon="8.662132">
|
|
<ele>-28.308329</ele>
|
|
<time>2026-07-10T11:21:19.000Z</time>
|
|
</trkpt>
|
|
<trkpt lat="54.909319" lon="8.662234">
|
|
<ele>-28.301696</ele>
|
|
<time>2026-07-10T11:21:20.000Z</time>
|
|
</trkpt>
|
|
<trkpt lat="54.909349" lon="8.662338">
|
|
<ele>-28.295149</ele>
|
|
<time>2026-07-10T11:21:21.000Z</time>
|
|
</trkpt>
|
|
<trkpt lat="54.909380" lon="8.662440">
|
|
<ele>-28.288658</ele>
|
|
<time>2026-07-10T11:21:22.000Z</time>
|
|
</trkpt>
|
|
<trkpt lat="54.909411" lon="8.662541">
|
|
<ele>-28.282216</ele>
|
|
<time>2026-07-10T11:21:23.000Z</time>
|
|
</trkpt>
|
|
<trkpt lat="54.909444" lon="8.662642">
|
|
<ele>-28.275680</ele>
|
|
<time>2026-07-10T11:21:24.000Z</time>
|
|
</trkpt>
|
|
<trkpt lat="54.909476" lon="8.662743">
|
|
<ele>-28.269192</ele>
|
|
<time>2026-07-10T11:21:25.000Z</time>
|
|
</trkpt>
|
|
<trkpt lat="54.909509" lon="8.662846">
|
|
<ele>-28.262558</ele>
|
|
<time>2026-07-10T11:21:26.000Z</time>
|
|
</trkpt>
|
|
<trkpt lat="54.909540" lon="8.662950">
|
|
<ele>-28.255967</ele>
|
|
<time>2026-07-10T11:21:27.000Z</time>
|
|
</trkpt>
|
|
<trkpt lat="54.909570" lon="8.663052">
|
|
<ele>-28.249521</ele>
|
|
<time>2026-07-10T11:21:28.000Z</time>
|
|
</trkpt>
|
|
<trkpt lat="54.909602" lon="8.663155">
|
|
<ele>-28.242934</ele>
|
|
<time>2026-07-10T11:21:29.000Z</time>
|
|
</trkpt>
|
|
<trkpt lat="54.909635" lon="8.663258">
|
|
<ele>-28.236300</ele>
|
|
<time>2026-07-10T11:21:30.000Z</time>
|
|
</trkpt>
|
|
<trkpt lat="54.909667" lon="8.663360">
|
|
<ele>-28.229762</ele>
|
|
<time>2026-07-10T11:21:31.000Z</time>
|
|
</trkpt>
|
|
<trkpt lat="54.909699" lon="8.663461">
|
|
<ele>-28.223274</ele>
|
|
<time>2026-07-10T11:21:32.000Z</time>
|
|
</trkpt>
|
|
<trkpt lat="54.909730" lon="8.663566">
|
|
<ele>-28.216633</ele>
|
|
<time>2026-07-10T11:21:33.000Z</time>
|
|
</trkpt>
|
|
<trkpt lat="54.909762" lon="8.663668">
|
|
<ele>-28.210095</ele>
|
|
<time>2026-07-10T11:21:34.000Z</time>
|
|
</trkpt>
|
|
<trkpt lat="54.909795" lon="8.663770">
|
|
<ele>-28.205518</ele>
|
|
<time>2026-07-10T11:21:35.000Z</time>
|
|
</trkpt>
|
|
<trkpt lat="54.909828" lon="8.663873">
|
|
<ele>-28.202587</ele>
|
|
<time>2026-07-10T11:21:36.000Z</time>
|
|
</trkpt>
|
|
<trkpt lat="54.909864" lon="8.663975">
|
|
<ele>-28.199612</ele>
|
|
<time>2026-07-10T11:21:37.000Z</time>
|
|
</trkpt>
|
|
<trkpt lat="54.909895" lon="8.664079">
|
|
<ele>-28.196701</ele>
|
|
<time>2026-07-10T11:21:38.000Z</time>
|
|
</trkpt>
|
|
<trkpt lat="54.909925" lon="8.664184">
|
|
<ele>-28.193786</ele>
|
|
<time>2026-07-10T11:21:39.000Z</time>
|
|
</trkpt>
|
|
<trkpt lat="54.909955" lon="8.664289">
|
|
<ele>-28.190872</ele>
|
|
<time>2026-07-10T11:21:40.000Z</time>
|
|
</trkpt>
|
|
<trkpt lat="54.909987" lon="8.664392">
|
|
<ele>-28.187961</ele>
|
|
<time>2026-07-10T11:21:41.000Z</time>
|
|
</trkpt>
|
|
<trkpt lat="54.910020" lon="8.664493">
|
|
<ele>-28.185074</ele>
|
|
<time>2026-07-10T11:21:42.000Z</time>
|
|
</trkpt>
|
|
<trkpt lat="54.910052" lon="8.664596">
|
|
<ele>-28.182164</ele>
|
|
<time>2026-07-10T11:21:43.000Z</time>
|
|
</trkpt>
|
|
<trkpt lat="54.910085" lon="8.664699">
|
|
<ele>-28.179233</ele>
|
|
<time>2026-07-10T11:21:44.000Z</time>
|
|
</trkpt>
|
|
<trkpt lat="54.910116" lon="8.664802">
|
|
<ele>-28.176343</ele>
|
|
<time>2026-07-10T11:21:45.000Z</time>
|
|
</trkpt>
|
|
<trkpt lat="54.910146" lon="8.664905">
|
|
<ele>-28.173473</ele>
|
|
<time>2026-07-10T11:21:46.000Z</time>
|
|
</trkpt>
|
|
<trkpt lat="54.910176" lon="8.665004">
|
|
<ele>-28.170691</ele>
|
|
<time>2026-07-10T11:21:47.000Z</time>
|
|
</trkpt>
|
|
<trkpt lat="54.910209" lon="8.665106">
|
|
<ele>-28.167782</ele>
|
|
<time>2026-07-10T11:21:48.000Z</time>
|
|
</trkpt>
|
|
<trkpt lat="54.910242" lon="8.665207">
|
|
<ele>-28.164894</ele>
|
|
<time>2026-07-10T11:21:49.000Z</time>
|
|
</trkpt>
|
|
<trkpt lat="54.910272" lon="8.665309">
|
|
<ele>-28.162046</ele>
|
|
<time>2026-07-10T11:21:50.000Z</time>
|
|
</trkpt>
|
|
<trkpt lat="54.910303" lon="8.665408">
|
|
<ele>-28.159244</ele>
|
|
<time>2026-07-10T11:21:51.000Z</time>
|
|
</trkpt>
|
|
<trkpt lat="54.910333" lon="8.665508">
|
|
<ele>-28.156440</ele>
|
|
<time>2026-07-10T11:21:52.000Z</time>
|
|
</trkpt>
|
|
<trkpt lat="54.910365" lon="8.665610">
|
|
<ele>-28.153552</ele>
|
|
<time>2026-07-10T11:21:53.000Z</time>
|
|
</trkpt>
|
|
<trkpt lat="54.910398" lon="8.665712">
|
|
<ele>-28.150643</ele>
|
|
<time>2026-07-10T11:21:54.000Z</time>
|
|
</trkpt>
|
|
<trkpt lat="54.910429" lon="8.665812">
|
|
<ele>-28.147819</ele>
|
|
<time>2026-07-10T11:21:55.000Z</time>
|
|
</trkpt>
|
|
<trkpt lat="54.910460" lon="8.665913">
|
|
<ele>-28.144973</ele>
|
|
<time>2026-07-10T11:21:56.000Z</time>
|
|
</trkpt>
|
|
<trkpt lat="54.910493" lon="8.666015">
|
|
<ele>-28.142064</ele>
|
|
<time>2026-07-10T11:21:57.000Z</time>
|
|
</trkpt>
|
|
<trkpt lat="54.910524" lon="8.666116">
|
|
<ele>-28.139218</ele>
|
|
<time>2026-07-10T11:21:58.000Z</time>
|
|
</trkpt>
|
|
<trkpt lat="54.910555" lon="8.666214">
|
|
<ele>-28.136438</ele>
|
|
<time>2026-07-10T11:21:59.000Z</time>
|
|
</trkpt>
|
|
<trkpt lat="54.910588" lon="8.666313">
|
|
<ele>-28.133593</ele>
|
|
<time>2026-07-10T11:22:00.000Z</time>
|
|
</trkpt>
|
|
<trkpt lat="54.910619" lon="8.666416">
|
|
<ele>-28.130703</ele>
|
|
<time>2026-07-10T11:22:01.000Z</time>
|
|
</trkpt>
|
|
<trkpt lat="54.910649" lon="8.666517">
|
|
<ele>-28.093342</ele>
|
|
<time>2026-07-10T11:22:02.000Z</time>
|
|
</trkpt>
|
|
<trkpt lat="54.910680" lon="8.666618">
|
|
<ele>-28.023160</ele>
|
|
<time>2026-07-10T11:22:03.000Z</time>
|
|
</trkpt>
|
|
<trkpt lat="54.910712" lon="8.666719">
|
|
<ele>-27.952470</ele>
|
|
<time>2026-07-10T11:22:04.000Z</time>
|
|
</trkpt>
|
|
<trkpt lat="54.910745" lon="8.666818">
|
|
<ele>-27.882322</ele>
|
|
<time>2026-07-10T11:22:05.000Z</time>
|
|
</trkpt>
|
|
<trkpt lat="54.910775" lon="8.666917">
|
|
<ele>-27.813723</ele>
|
|
<time>2026-07-10T11:22:06.000Z</time>
|
|
</trkpt>
|
|
<trkpt lat="54.910806" lon="8.667016">
|
|
<ele>-27.744620</ele>
|
|
<time>2026-07-10T11:22:07.000Z</time>
|
|
</trkpt>
|
|
<trkpt lat="54.910836" lon="8.667114">
|
|
<ele>-27.676563</ele>
|
|
<time>2026-07-10T11:22:08.000Z</time>
|
|
</trkpt>
|
|
<trkpt lat="54.910867" lon="8.667215">
|
|
<ele>-27.606381</ele>
|
|
<time>2026-07-10T11:22:09.000Z</time>
|
|
</trkpt>
|
|
<trkpt lat="54.910899" lon="8.667314">
|
|
<ele>-27.536762</ele>
|
|
<time>2026-07-10T11:22:10.000Z</time>
|
|
</trkpt>
|
|
<trkpt lat="54.910932" lon="8.667411">
|
|
<ele>-27.467672</ele>
|
|
<time>2026-07-10T11:22:11.000Z</time>
|
|
</trkpt>
|
|
<trkpt lat="54.910962" lon="8.667510">
|
|
<ele>-27.399073</ele>
|
|
<time>2026-07-10T11:22:12.000Z</time>
|
|
</trkpt>
|
|
<trkpt lat="54.910992" lon="8.667612">
|
|
<ele>-27.328843</ele>
|
|
<time>2026-07-10T11:22:13.000Z</time>
|
|
</trkpt>
|
|
<trkpt lat="54.911020" lon="8.667713">
|
|
<ele>-27.260110</ele>
|
|
<time>2026-07-10T11:22:14.000Z</time>
|
|
</trkpt>
|
|
<trkpt lat="54.911050" lon="8.667815">
|
|
<ele>-27.189879</ele>
|
|
<time>2026-07-10T11:22:15.000Z</time>
|
|
</trkpt>
|
|
<trkpt lat="54.911079" lon="8.667918">
|
|
<ele>-27.119578</ele>
|
|
<time>2026-07-10T11:22:16.000Z</time>
|
|
</trkpt>
|
|
<trkpt lat="54.911107" lon="8.668024">
|
|
<ele>-27.048073</ele>
|
|
<time>2026-07-10T11:22:17.000Z</time>
|
|
</trkpt>
|
|
<trkpt lat="54.911138" lon="8.668126">
|
|
<ele>-26.977350</ele>
|
|
<time>2026-07-10T11:22:18.000Z</time>
|
|
</trkpt>
|
|
<trkpt lat="54.911169" lon="8.668220">
|
|
<ele>-26.910923</ele>
|
|
<time>2026-07-10T11:22:19.000Z</time>
|
|
</trkpt>
|
|
<trkpt lat="54.911199" lon="8.668309">
|
|
<ele>-26.847682</ele>
|
|
<time>2026-07-10T11:22:20.000Z</time>
|
|
</trkpt>
|
|
<trkpt lat="54.911228" lon="8.668394">
|
|
<ele>-26.787095</ele>
|
|
<time>2026-07-10T11:22:21.000Z</time>
|
|
</trkpt>
|
|
<trkpt lat="54.911254" lon="8.668479">
|
|
<ele>-26.728076</ele>
|
|
<time>2026-07-10T11:22:22.000Z</time>
|
|
</trkpt>
|
|
<trkpt lat="54.911273" lon="8.668566">
|
|
<ele>-26.671030</ele>
|
|
<time>2026-07-10T11:22:23.000Z</time>
|
|
</trkpt>
|
|
<trkpt lat="54.911286" lon="8.668654">
|
|
<ele>-26.615337</ele>
|
|
<time>2026-07-10T11:22:24.000Z</time>
|
|
</trkpt>
|
|
<trkpt lat="54.911300" lon="8.668745">
|
|
<ele>-26.557594</ele>
|
|
<time>2026-07-10T11:22:25.000Z</time>
|
|
</trkpt>
|
|
<trkpt lat="54.911309" lon="8.668836">
|
|
<ele>-26.500996</ele>
|
|
<time>2026-07-10T11:22:26.000Z</time>
|
|
</trkpt>
|
|
<trkpt lat="54.911312" lon="8.668924">
|
|
<ele>-26.446960</ele>
|
|
<time>2026-07-10T11:22:27.000Z</time>
|
|
</trkpt>
|
|
<trkpt lat="54.911312" lon="8.669007">
|
|
<ele>-26.396085</ele>
|
|
<time>2026-07-10T11:22:28.000Z</time>
|
|
</trkpt>
|
|
<trkpt lat="54.911313" lon="8.669085">
|
|
<ele>-26.348262</ele>
|
|
<time>2026-07-10T11:22:29.000Z</time>
|
|
</trkpt>
|
|
<trkpt lat="54.911317" lon="8.669161">
|
|
<ele>-26.301482</ele>
|
|
<time>2026-07-10T11:22:30.000Z</time>
|
|
</trkpt>
|
|
<trkpt lat="54.911322" lon="8.669232">
|
|
<ele>-26.257637</ele>
|
|
<time>2026-07-10T11:22:31.000Z</time>
|
|
</trkpt>
|
|
<trkpt lat="54.911330" lon="8.669292">
|
|
<ele>-26.219883</ele>
|
|
<time>2026-07-10T11:22:32.000Z</time>
|
|
</trkpt>
|
|
<trkpt lat="54.911338" lon="8.669345">
|
|
<ele>-26.202032</ele>
|
|
<time>2026-07-10T11:22:33.000Z</time>
|
|
</trkpt>
|
|
<trkpt lat="54.911350" lon="8.669389">
|
|
<ele>-26.190869</ele>
|
|
<time>2026-07-10T11:22:34.000Z</time>
|
|
</trkpt>
|
|
<trkpt lat="54.911360" lon="8.669426">
|
|
<ele>-26.181497</ele>
|
|
<time>2026-07-10T11:22:35.000Z</time>
|
|
</trkpt>
|
|
<trkpt lat="54.911368" lon="8.669458">
|
|
<ele>-26.173498</ele>
|
|
<time>2026-07-10T11:22:36.000Z</time>
|
|
</trkpt>
|
|
<trkpt lat="54.911374" lon="8.669473">
|
|
<ele>-26.169309</ele>
|
|
<time>2026-07-10T11:22:37.000Z</time>
|
|
</trkpt>
|
|
<trkpt lat="54.911417" lon="8.669580">
|
|
<ele>-26.139383</ele>
|
|
<time>2026-07-10T11:23:33.000Z</time>
|
|
</trkpt>
|
|
<trkpt lat="54.911387" lon="8.669563">
|
|
<ele>-26.126801</ele>
|
|
<time>2026-07-10T11:23:34.000Z</time>
|
|
</trkpt>
|
|
<trkpt lat="54.911379" lon="8.669561">
|
|
<ele>-26.123579</ele>
|
|
<time>2026-07-10T11:23:35.000Z</time>
|
|
</trkpt>
|
|
<trkpt lat="54.911363" lon="8.669561">
|
|
<ele>-26.117198</ele>
|
|
<time>2026-07-10T11:23:36.000Z</time>
|
|
</trkpt>
|
|
<trkpt lat="54.911353" lon="8.669561">
|
|
<ele>-26.113211</ele>
|
|
<time>2026-07-10T11:23:37.000Z</time>
|
|
</trkpt>
|
|
<trkpt lat="54.911348" lon="8.669561">
|
|
<ele>-26.111217</ele>
|
|
<time>2026-07-10T11:23:38.000Z</time>
|
|
</trkpt>
|
|
<trkpt lat="54.911335" lon="8.669556">
|
|
<ele>-26.105908</ele>
|
|
<time>2026-07-10T11:23:39.000Z</time>
|
|
</trkpt>
|
|
<trkpt lat="54.911335" lon="8.669547">
|
|
<ele>-26.103845</ele>
|
|
<time>2026-07-10T11:23:40.000Z</time>
|
|
</trkpt>
|
|
<trkpt lat="54.911335" lon="8.669538">
|
|
<ele>-26.101782</ele>
|
|
<time>2026-07-10T11:23:41.000Z</time>
|
|
</trkpt>
|
|
<trkpt lat="54.911335" lon="8.669538">
|
|
<ele>-26.101782</ele>
|
|
<time>2026-07-10T11:23:44.000Z</time>
|
|
</trkpt>
|
|
<trkpt lat="54.911335" lon="8.669538">
|
|
<ele>-26.101782</ele>
|
|
<time>2026-07-10T11:25:19.000Z</time>
|
|
</trkpt>
|
|
<trkpt lat="54.911334" lon="8.669543">
|
|
<ele>-26.100568</ele>
|
|
<time>2026-07-10T11:25:20.000Z</time>
|
|
</trkpt>
|
|
<trkpt lat="54.911335" lon="8.669565">
|
|
<ele>-26.095510</ele>
|
|
<time>2026-07-10T11:25:21.000Z</time>
|
|
</trkpt>
|
|
<trkpt lat="54.911345" lon="8.669578">
|
|
<ele>-26.090532</ele>
|
|
<time>2026-07-10T11:25:22.000Z</time>
|
|
</trkpt>
|
|
<trkpt lat="54.911353" lon="8.669585">
|
|
<ele>-26.086961</ele>
|
|
<time>2026-07-10T11:25:23.000Z</time>
|
|
</trkpt>
|
|
<trkpt lat="54.911372" lon="8.669588">
|
|
<ele>-26.079353</ele>
|
|
<time>2026-07-10T11:25:24.000Z</time>
|
|
</trkpt>
|
|
<trkpt lat="54.911380" lon="8.669586">
|
|
<ele>-26.076130</ele>
|
|
<time>2026-07-10T11:25:25.000Z</time>
|
|
</trkpt>
|
|
<trkpt lat="54.911389" lon="8.669583">
|
|
<ele>-26.072476</ele>
|
|
<time>2026-07-10T11:25:26.000Z</time>
|
|
</trkpt>
|
|
<trkpt lat="54.911392" lon="8.669580">
|
|
<ele>-26.071096</ele>
|
|
<time>2026-07-10T11:25:27.000Z</time>
|
|
</trkpt>
|
|
<trkpt lat="54.911392" lon="8.669580">
|
|
<ele>-26.071096</ele>
|
|
<time>2026-07-10T11:25:33.000Z</time>
|
|
</trkpt>
|
|
<trkpt lat="54.911403" lon="8.669575">
|
|
<ele>-26.066563</ele>
|
|
<time>2026-07-10T11:25:34.000Z</time>
|
|
</trkpt>
|
|
<trkpt lat="54.911436" lon="8.669562">
|
|
<ele>-26.053071</ele>
|
|
<time>2026-07-10T11:25:35.000Z</time>
|
|
</trkpt>
|
|
<trkpt lat="54.911454" lon="8.669568">
|
|
<ele>-26.045762</ele>
|
|
<time>2026-07-10T11:25:36.000Z</time>
|
|
</trkpt>
|
|
<trkpt lat="54.911475" lon="8.669583">
|
|
<ele>-26.036710</ele>
|
|
<time>2026-07-10T11:25:37.000Z</time>
|
|
</trkpt>
|
|
<trkpt lat="54.911496" lon="8.669597">
|
|
<ele>-26.027742</ele>
|
|
<time>2026-07-10T11:25:38.000Z</time>
|
|
</trkpt>
|
|
<trkpt lat="54.911513" lon="8.669611">
|
|
<ele>-26.020242</ele>
|
|
<time>2026-07-10T11:25:39.000Z</time>
|
|
</trkpt>
|
|
<trkpt lat="54.911535" lon="8.669630">
|
|
<ele>-26.010448</ele>
|
|
<time>2026-07-10T11:25:40.000Z</time>
|
|
</trkpt>
|
|
<trkpt lat="54.911555" lon="8.669652">
|
|
<ele>-26.001012</ele>
|
|
<time>2026-07-10T11:25:41.000Z</time>
|
|
</trkpt>
|
|
<trkpt lat="54.911576" lon="8.669677">
|
|
<ele>-25.990865</ele>
|
|
<time>2026-07-10T11:25:42.000Z</time>
|
|
</trkpt>
|
|
<trkpt lat="54.911605" lon="8.669707">
|
|
<ele>-25.977411</ele>
|
|
<time>2026-07-10T11:25:43.000Z</time>
|
|
</trkpt>
|
|
<trkpt lat="54.911633" lon="8.669739">
|
|
<ele>-25.964051</ele>
|
|
<time>2026-07-10T11:25:44.000Z</time>
|
|
</trkpt>
|
|
<trkpt lat="54.911664" lon="8.669774">
|
|
<ele>-25.949315</ele>
|
|
<time>2026-07-10T11:25:45.000Z</time>
|
|
</trkpt>
|
|
<trkpt lat="54.911694" lon="8.669811">
|
|
<ele>-25.934650</ele>
|
|
<time>2026-07-10T11:25:46.000Z</time>
|
|
</trkpt>
|
|
<trkpt lat="54.911731" lon="8.669850">
|
|
<ele>-25.917399</ele>
|
|
<time>2026-07-10T11:25:47.000Z</time>
|
|
</trkpt>
|
|
<trkpt lat="54.911768" lon="8.669889">
|
|
<ele>-25.900148</ele>
|
|
<time>2026-07-10T11:25:48.000Z</time>
|
|
</trkpt>
|
|
<trkpt lat="54.911802" lon="8.669929">
|
|
<ele>-25.883781</ele>
|
|
<time>2026-07-10T11:25:49.000Z</time>
|
|
</trkpt>
|
|
<trkpt lat="54.911838" lon="8.669972">
|
|
<ele>-25.866368</ele>
|
|
<time>2026-07-10T11:25:50.000Z</time>
|
|
</trkpt>
|
|
<trkpt lat="54.911876" lon="8.670012">
|
|
<ele>-25.848657</ele>
|
|
<time>2026-07-10T11:25:51.000Z</time>
|
|
</trkpt>
|
|
<trkpt lat="54.911914" lon="8.670052">
|
|
<ele>-25.830946</ele>
|
|
<time>2026-07-10T11:25:52.000Z</time>
|
|
</trkpt>
|
|
<trkpt lat="54.911952" lon="8.670095">
|
|
<ele>-25.812869</ele>
|
|
<time>2026-07-10T11:25:53.000Z</time>
|
|
</trkpt>
|
|
<trkpt lat="54.911990" lon="8.670139">
|
|
<ele>-25.794667</ele>
|
|
<time>2026-07-10T11:25:54.000Z</time>
|
|
</trkpt>
|
|
<trkpt lat="54.912030" lon="8.670185">
|
|
<ele>-25.775546</ele>
|
|
<time>2026-07-10T11:25:55.000Z</time>
|
|
</trkpt>
|
|
<trkpt lat="54.912072" lon="8.670229">
|
|
<ele>-25.755996</ele>
|
|
<time>2026-07-10T11:25:56.000Z</time>
|
|
</trkpt>
|
|
<trkpt lat="54.912113" lon="8.670273">
|
|
<ele>-25.736786</ele>
|
|
<time>2026-07-10T11:25:57.000Z</time>
|
|
</trkpt>
|
|
<trkpt lat="54.912151" lon="8.670316">
|
|
<ele>-25.718710</ele>
|
|
<time>2026-07-10T11:25:58.000Z</time>
|
|
</trkpt>
|
|
<trkpt lat="54.912193" lon="8.670363">
|
|
<ele>-25.698796</ele>
|
|
<time>2026-07-10T11:25:59.000Z</time>
|
|
</trkpt>
|
|
<trkpt lat="54.912239" lon="8.670415">
|
|
<ele>-25.676920</ele>
|
|
<time>2026-07-10T11:26:00.000Z</time>
|
|
</trkpt>
|
|
<trkpt lat="54.912282" lon="8.670466">
|
|
<ele>-25.656168</ele>
|
|
<time>2026-07-10T11:26:01.000Z</time>
|
|
</trkpt>
|
|
<trkpt lat="54.912325" lon="8.670514">
|
|
<ele>-25.635795</ele>
|
|
<time>2026-07-10T11:26:02.000Z</time>
|
|
</trkpt>
|
|
<trkpt lat="54.912374" lon="8.670565">
|
|
<ele>-25.613025</ele>
|
|
<time>2026-07-10T11:26:03.000Z</time>
|
|
</trkpt>
|
|
<trkpt lat="54.912419" lon="8.670615">
|
|
<ele>-25.591734</ele>
|
|
<time>2026-07-10T11:26:04.000Z</time>
|
|
</trkpt>
|
|
<trkpt lat="54.912465" lon="8.670667">
|
|
<ele>-25.569858</ele>
|
|
<time>2026-07-10T11:26:05.000Z</time>
|
|
</trkpt>
|
|
<trkpt lat="54.912512" lon="8.670717">
|
|
<ele>-25.547890</ele>
|
|
<time>2026-07-10T11:26:06.000Z</time>
|
|
</trkpt>
|
|
<trkpt lat="54.912559" lon="8.670769">
|
|
<ele>-25.525679</ele>
|
|
<time>2026-07-10T11:26:07.000Z</time>
|
|
</trkpt>
|
|
<trkpt lat="54.912603" lon="8.670818">
|
|
<ele>-25.504847</ele>
|
|
<time>2026-07-10T11:26:08.000Z</time>
|
|
</trkpt>
|
|
<trkpt lat="54.912654" lon="8.670873">
|
|
<ele>-25.495092</ele>
|
|
<time>2026-07-10T11:26:09.000Z</time>
|
|
</trkpt>
|
|
<trkpt lat="54.912704" lon="8.670927">
|
|
<ele>-25.496656</ele>
|
|
<time>2026-07-10T11:26:10.000Z</time>
|
|
</trkpt>
|
|
<trkpt lat="54.912754" lon="8.670979">
|
|
<ele>-25.498204</ele>
|
|
<time>2026-07-10T11:26:11.000Z</time>
|
|
</trkpt>
|
|
<trkpt lat="54.912802" lon="8.671031">
|
|
<ele>-25.499707</ele>
|
|
<time>2026-07-10T11:26:12.000Z</time>
|
|
</trkpt>
|
|
<trkpt lat="54.912846" lon="8.671083">
|
|
<ele>-25.501121</ele>
|
|
<time>2026-07-10T11:26:13.000Z</time>
|
|
</trkpt>
|
|
<trkpt lat="54.912888" lon="8.671131">
|
|
<ele>-25.502456</ele>
|
|
<time>2026-07-10T11:26:14.000Z</time>
|
|
</trkpt>
|
|
<trkpt lat="54.912942" lon="8.671186">
|
|
<ele>-25.504120</ele>
|
|
<time>2026-07-10T11:26:15.000Z</time>
|
|
</trkpt>
|
|
<trkpt lat="54.912993" lon="8.671241">
|
|
<ele>-25.505714</ele>
|
|
<time>2026-07-10T11:26:16.000Z</time>
|
|
</trkpt>
|
|
<trkpt lat="54.913041" lon="8.671293">
|
|
<ele>-25.507217</ele>
|
|
<time>2026-07-10T11:26:17.000Z</time>
|
|
</trkpt>
|
|
<trkpt lat="54.913089" lon="8.671346">
|
|
<ele>-25.508728</ele>
|
|
<time>2026-07-10T11:26:18.000Z</time>
|
|
</trkpt>
|
|
<trkpt lat="54.913136" lon="8.671397">
|
|
<ele>-25.510200</ele>
|
|
<time>2026-07-10T11:26:19.000Z</time>
|
|
</trkpt>
|
|
<trkpt lat="54.913184" lon="8.671449">
|
|
<ele>-25.511703</ele>
|
|
<time>2026-07-10T11:26:20.000Z</time>
|
|
</trkpt>
|
|
<trkpt lat="54.913233" lon="8.671501">
|
|
<ele>-25.513228</ele>
|
|
<time>2026-07-10T11:26:21.000Z</time>
|
|
</trkpt>
|
|
<trkpt lat="54.913280" lon="8.671552">
|
|
<ele>-25.514701</ele>
|
|
<time>2026-07-10T11:26:22.000Z</time>
|
|
</trkpt>
|
|
<trkpt lat="54.913329" lon="8.671603">
|
|
<ele>-25.516218</ele>
|
|
<time>2026-07-10T11:26:23.000Z</time>
|
|
</trkpt>
|
|
<trkpt lat="54.913375" lon="8.671654">
|
|
<ele>-25.517668</ele>
|
|
<time>2026-07-10T11:26:24.000Z</time>
|
|
</trkpt>
|
|
<trkpt lat="54.913424" lon="8.671706">
|
|
<ele>-25.519193</ele>
|
|
<time>2026-07-10T11:26:25.000Z</time>
|
|
</trkpt>
|
|
<trkpt lat="54.913471" lon="8.671758">
|
|
<ele>-25.520674</ele>
|
|
<time>2026-07-10T11:26:26.000Z</time>
|
|
</trkpt>
|
|
<trkpt lat="54.913519" lon="8.671808">
|
|
<ele>-25.522160</ele>
|
|
<time>2026-07-10T11:26:27.000Z</time>
|
|
</trkpt>
|
|
<trkpt lat="54.913565" lon="8.671859">
|
|
<ele>-25.523610</ele>
|
|
<time>2026-07-10T11:26:28.000Z</time>
|
|
</trkpt>
|
|
<trkpt lat="54.913612" lon="8.671908">
|
|
<ele>-25.525066</ele>
|
|
<time>2026-07-10T11:26:29.000Z</time>
|
|
</trkpt>
|
|
<trkpt lat="54.913660" lon="8.671958">
|
|
<ele>-25.526553</ele>
|
|
<time>2026-07-10T11:26:30.000Z</time>
|
|
</trkpt>
|
|
<trkpt lat="54.913706" lon="8.672006">
|
|
<ele>-25.527979</ele>
|
|
<time>2026-07-10T11:26:31.000Z</time>
|
|
</trkpt>
|
|
<trkpt lat="54.913752" lon="8.672055">
|
|
<ele>-25.529412</ele>
|
|
<time>2026-07-10T11:26:32.000Z</time>
|
|
</trkpt>
|
|
<trkpt lat="54.913797" lon="8.672105">
|
|
<ele>-25.530831</ele>
|
|
<time>2026-07-10T11:26:33.000Z</time>
|
|
</trkpt>
|
|
<trkpt lat="54.913844" lon="8.672155">
|
|
<ele>-25.532295</ele>
|
|
<time>2026-07-10T11:26:34.000Z</time>
|
|
</trkpt>
|
|
<trkpt lat="54.913893" lon="8.672206">
|
|
<ele>-25.533813</ele>
|
|
<time>2026-07-10T11:26:35.000Z</time>
|
|
</trkpt>
|
|
<trkpt lat="54.913940" lon="8.672257">
|
|
<ele>-25.535285</ele>
|
|
<time>2026-07-10T11:26:36.000Z</time>
|
|
</trkpt>
|
|
<trkpt lat="54.913988" lon="8.672309">
|
|
<ele>-25.536788</ele>
|
|
<time>2026-07-10T11:26:37.000Z</time>
|
|
</trkpt>
|
|
<trkpt lat="54.914034" lon="8.672359">
|
|
<ele>-25.538229</ele>
|
|
<time>2026-07-10T11:26:38.000Z</time>
|
|
</trkpt>
|
|
<trkpt lat="54.914080" lon="8.672405">
|
|
<ele>-25.539640</ele>
|
|
<time>2026-07-10T11:26:39.000Z</time>
|
|
</trkpt>
|
|
<trkpt lat="54.914128" lon="8.672457">
|
|
<ele>-25.541142</ele>
|
|
<time>2026-07-10T11:26:40.000Z</time>
|
|
</trkpt>
|
|
<trkpt lat="54.914177" lon="8.672508">
|
|
<ele>-25.550274</ele>
|
|
<time>2026-07-10T11:26:41.000Z</time>
|
|
</trkpt>
|
|
<trkpt lat="54.914226" lon="8.672558">
|
|
<ele>-25.569435</ele>
|
|
<time>2026-07-10T11:26:42.000Z</time>
|
|
</trkpt>
|
|
<trkpt lat="54.914274" lon="8.672608">
|
|
<ele>-25.588306</ele>
|
|
<time>2026-07-10T11:26:43.000Z</time>
|
|
</trkpt>
|
|
<trkpt lat="54.914320" lon="8.672660">
|
|
<ele>-25.606809</ele>
|
|
<time>2026-07-10T11:26:44.000Z</time>
|
|
</trkpt>
|
|
<trkpt lat="54.914366" lon="8.672712">
|
|
<ele>-25.625313</ele>
|
|
<time>2026-07-10T11:26:45.000Z</time>
|
|
</trkpt>
|
|
<trkpt lat="54.914415" lon="8.672765">
|
|
<ele>-25.644775</ele>
|
|
<time>2026-07-10T11:26:46.000Z</time>
|
|
</trkpt>
|
|
<trkpt lat="54.914461" lon="8.672817">
|
|
<ele>-25.663279</ele>
|
|
<time>2026-07-10T11:26:47.000Z</time>
|
|
</trkpt>
|
|
<trkpt lat="54.914508" lon="8.672868">
|
|
<ele>-25.681963</ele>
|
|
<time>2026-07-10T11:26:48.000Z</time>
|
|
</trkpt>
|
|
<trkpt lat="54.914557" lon="8.672917">
|
|
<ele>-25.701027</ele>
|
|
<time>2026-07-10T11:26:49.000Z</time>
|
|
</trkpt>
|
|
<trkpt lat="54.914606" lon="8.672968">
|
|
<ele>-25.720286</ele>
|
|
<time>2026-07-10T11:26:50.000Z</time>
|
|
</trkpt>
|
|
<trkpt lat="54.914652" lon="8.673016">
|
|
<ele>-25.738379</ele>
|
|
<time>2026-07-10T11:26:51.000Z</time>
|
|
</trkpt>
|
|
<trkpt lat="54.914700" lon="8.673066">
|
|
<ele>-25.757250</ele>
|
|
<time>2026-07-10T11:26:52.000Z</time>
|
|
</trkpt>
|
|
<trkpt lat="54.914749" lon="8.673119">
|
|
<ele>-25.776712</ele>
|
|
<time>2026-07-10T11:26:53.000Z</time>
|
|
</trkpt>
|
|
<trkpt lat="54.914797" lon="8.673171">
|
|
<ele>-25.795785</ele>
|
|
<time>2026-07-10T11:26:54.000Z</time>
|
|
</trkpt>
|
|
<trkpt lat="54.914842" lon="8.673221">
|
|
<ele>-25.813795</ele>
|
|
<time>2026-07-10T11:26:55.000Z</time>
|
|
</trkpt>
|
|
<trkpt lat="54.914890" lon="8.673274">
|
|
<ele>-25.832971</ele>
|
|
<time>2026-07-10T11:26:56.000Z</time>
|
|
</trkpt>
|
|
<trkpt lat="54.914938" lon="8.673327">
|
|
<ele>-25.852147</ele>
|
|
<time>2026-07-10T11:26:57.000Z</time>
|
|
</trkpt>
|
|
<trkpt lat="54.914984" lon="8.673378">
|
|
<ele>-25.870546</ele>
|
|
<time>2026-07-10T11:26:58.000Z</time>
|
|
</trkpt>
|
|
<trkpt lat="54.915033" lon="8.673431">
|
|
<ele>-25.890008</ele>
|
|
<time>2026-07-10T11:26:59.000Z</time>
|
|
</trkpt>
|
|
<trkpt lat="54.915079" lon="8.673483">
|
|
<ele>-25.908511</ele>
|
|
<time>2026-07-10T11:27:00.000Z</time>
|
|
</trkpt>
|
|
<trkpt lat="54.915127" lon="8.673534">
|
|
<ele>-25.927482</ele>
|
|
<time>2026-07-10T11:27:01.000Z</time>
|
|
</trkpt>
|
|
<trkpt lat="54.915176" lon="8.673588">
|
|
<ele>-25.947047</ele>
|
|
<time>2026-07-10T11:27:02.000Z</time>
|
|
</trkpt>
|
|
<trkpt lat="54.915225" lon="8.673642">
|
|
<ele>-25.966612</ele>
|
|
<time>2026-07-10T11:27:03.000Z</time>
|
|
</trkpt>
|
|
<trkpt lat="54.915275" lon="8.673694">
|
|
<ele>-25.986261</ele>
|
|
<time>2026-07-10T11:27:04.000Z</time>
|
|
</trkpt>
|
|
<trkpt lat="54.915324" lon="8.673747">
|
|
<ele>-26.005722</ele>
|
|
<time>2026-07-10T11:27:05.000Z</time>
|
|
</trkpt>
|
|
<trkpt lat="54.915374" lon="8.673801">
|
|
<ele>-26.025573</ele>
|
|
<time>2026-07-10T11:27:06.000Z</time>
|
|
</trkpt>
|
|
<trkpt lat="54.915424" lon="8.673854">
|
|
<ele>-26.045322</ele>
|
|
<time>2026-07-10T11:27:07.000Z</time>
|
|
</trkpt>
|
|
<trkpt lat="54.915473" lon="8.673905">
|
|
<ele>-26.064582</ele>
|
|
<time>2026-07-10T11:27:08.000Z</time>
|
|
</trkpt>
|
|
<trkpt lat="54.915520" lon="8.673956">
|
|
<ele>-26.083266</ele>
|
|
<time>2026-07-10T11:27:09.000Z</time>
|
|
</trkpt>
|
|
<trkpt lat="54.915563" lon="8.674005">
|
|
<ele>-26.100604</ele>
|
|
<time>2026-07-10T11:27:10.000Z</time>
|
|
</trkpt>
|
|
<trkpt lat="54.915609" lon="8.674053">
|
|
<ele>-26.118697</ele>
|
|
<time>2026-07-10T11:27:11.000Z</time>
|
|
</trkpt>
|
|
<trkpt lat="54.915654" lon="8.674097">
|
|
<ele>-26.136108</ele>
|
|
<time>2026-07-10T11:27:12.000Z</time>
|
|
</trkpt>
|
|
<trkpt lat="54.915701" lon="8.674141">
|
|
<ele>-26.181689</ele>
|
|
<time>2026-07-10T11:27:13.000Z</time>
|
|
</trkpt>
|
|
<trkpt lat="54.915749" lon="8.674180">
|
|
<ele>-26.290591</ele>
|
|
<time>2026-07-10T11:27:14.000Z</time>
|
|
</trkpt>
|
|
<trkpt lat="54.915802" lon="8.674213">
|
|
<ele>-26.406308</ele>
|
|
<time>2026-07-10T11:27:15.000Z</time>
|
|
</trkpt>
|
|
<trkpt lat="54.915856" lon="8.674242">
|
|
<ele>-26.522482</ele>
|
|
<time>2026-07-10T11:27:16.000Z</time>
|
|
</trkpt>
|
|
<trkpt lat="54.915910" lon="8.674270">
|
|
<ele>-26.638313</ele>
|
|
<time>2026-07-10T11:27:17.000Z</time>
|
|
</trkpt>
|
|
<trkpt lat="54.915967" lon="8.674298">
|
|
<ele>-26.760066</ele>
|
|
<time>2026-07-10T11:27:18.000Z</time>
|
|
</trkpt>
|
|
<trkpt lat="54.916026" lon="8.674331">
|
|
<ele>-26.887464</ele>
|
|
<time>2026-07-10T11:27:19.000Z</time>
|
|
</trkpt>
|
|
<trkpt lat="54.916089" lon="8.674360">
|
|
<ele>-27.021427</ele>
|
|
<time>2026-07-10T11:27:20.000Z</time>
|
|
</trkpt>
|
|
<trkpt lat="54.916153" lon="8.674386">
|
|
<ele>-27.156528</ele>
|
|
<time>2026-07-10T11:27:21.000Z</time>
|
|
</trkpt>
|
|
<trkpt lat="54.916217" lon="8.674412">
|
|
<ele>-27.291630</ele>
|
|
<time>2026-07-10T11:27:22.000Z</time>
|
|
</trkpt>
|
|
<trkpt lat="54.916284" lon="8.674439">
|
|
<ele>-27.433006</ele>
|
|
<time>2026-07-10T11:27:23.000Z</time>
|
|
</trkpt>
|
|
<trkpt lat="54.916357" lon="8.674473">
|
|
<ele>-27.588353</ele>
|
|
<time>2026-07-10T11:27:24.000Z</time>
|
|
</trkpt>
|
|
<trkpt lat="54.916429" lon="8.674504">
|
|
<ele>-27.740826</ele>
|
|
<time>2026-07-10T11:27:25.000Z</time>
|
|
</trkpt>
|
|
<trkpt lat="54.916496" lon="8.674538">
|
|
<ele>-27.884294</ele>
|
|
<time>2026-07-10T11:27:26.000Z</time>
|
|
</trkpt>
|
|
<trkpt lat="54.916566" lon="8.674572">
|
|
<ele>-28.033693</ele>
|
|
<time>2026-07-10T11:27:27.000Z</time>
|
|
</trkpt>
|
|
<trkpt lat="54.916637" lon="8.674606">
|
|
<ele>-28.185072</ele>
|
|
<time>2026-07-10T11:27:28.000Z</time>
|
|
</trkpt>
|
|
<trkpt lat="54.916703" lon="8.674636">
|
|
<ele>-28.325300</ele>
|
|
<time>2026-07-10T11:27:29.000Z</time>
|
|
</trkpt>
|
|
<trkpt lat="54.916772" lon="8.674665">
|
|
<ele>-28.471221</ele>
|
|
<time>2026-07-10T11:27:30.000Z</time>
|
|
</trkpt>
|
|
<trkpt lat="54.916840" lon="8.674693">
|
|
<ele>-28.614867</ele>
|
|
<time>2026-07-10T11:27:31.000Z</time>
|
|
</trkpt>
|
|
<trkpt lat="54.916904" lon="8.674721">
|
|
<ele>-28.750525</ele>
|
|
<time>2026-07-10T11:27:32.000Z</time>
|
|
</trkpt>
|
|
<trkpt lat="54.916969" lon="8.674749">
|
|
<ele>-28.888178</ele>
|
|
<time>2026-07-10T11:27:33.000Z</time>
|
|
</trkpt>
|
|
<trkpt lat="54.917031" lon="8.674780">
|
|
<ele>-29.020788</ele>
|
|
<time>2026-07-10T11:27:34.000Z</time>
|
|
</trkpt>
|
|
<trkpt lat="54.917093" lon="8.674811">
|
|
<ele>-29.153397</ele>
|
|
<time>2026-07-10T11:27:35.000Z</time>
|
|
</trkpt>
|
|
<trkpt lat="54.917155" lon="8.674844">
|
|
<ele>-29.286679</ele>
|
|
<time>2026-07-10T11:27:36.000Z</time>
|
|
</trkpt>
|
|
<trkpt lat="54.917218" lon="8.674874">
|
|
<ele>-29.420949</ele>
|
|
<time>2026-07-10T11:27:37.000Z</time>
|
|
</trkpt>
|
|
<trkpt lat="54.917280" lon="8.674904">
|
|
<ele>-29.553237</ele>
|
|
<time>2026-07-10T11:27:38.000Z</time>
|
|
</trkpt>
|
|
<trkpt lat="54.917338" lon="8.674933">
|
|
<ele>-29.677291</ele>
|
|
<time>2026-07-10T11:27:39.000Z</time>
|
|
</trkpt>
|
|
<trkpt lat="54.917403" lon="8.674964">
|
|
<ele>-29.815838</ele>
|
|
<time>2026-07-10T11:27:40.000Z</time>
|
|
</trkpt>
|
|
<trkpt lat="54.917463" lon="8.674994">
|
|
<ele>-29.843013</ele>
|
|
<time>2026-07-10T11:27:41.000Z</time>
|
|
</trkpt>
|
|
<trkpt lat="54.917520" lon="8.675025">
|
|
<ele>-29.839145</ele>
|
|
<time>2026-07-10T11:27:42.000Z</time>
|
|
</trkpt>
|
|
<trkpt lat="54.917578" lon="8.675052">
|
|
<ele>-29.835257</ele>
|
|
<time>2026-07-10T11:27:43.000Z</time>
|
|
</trkpt>
|
|
<trkpt lat="54.917639" lon="8.675075">
|
|
<ele>-29.831215</ele>
|
|
<time>2026-07-10T11:27:44.000Z</time>
|
|
</trkpt>
|
|
<trkpt lat="54.917695" lon="8.675100">
|
|
<ele>-29.827471</ele>
|
|
<time>2026-07-10T11:27:45.000Z</time>
|
|
</trkpt>
|
|
<trkpt lat="54.917753" lon="8.675128">
|
|
<ele>-29.823573</ele>
|
|
<time>2026-07-10T11:27:46.000Z</time>
|
|
</trkpt>
|
|
<trkpt lat="54.917812" lon="8.675159">
|
|
<ele>-29.819581</ele>
|
|
<time>2026-07-10T11:27:47.000Z</time>
|
|
</trkpt>
|
|
<trkpt lat="54.917871" lon="8.675189">
|
|
<ele>-29.815601</ele>
|
|
<time>2026-07-10T11:27:48.000Z</time>
|
|
</trkpt>
|
|
<trkpt lat="54.917928" lon="8.675217">
|
|
<ele>-29.811765</ele>
|
|
<time>2026-07-10T11:27:49.000Z</time>
|
|
</trkpt>
|
|
<trkpt lat="54.917991" lon="8.675245">
|
|
<ele>-29.807554</ele>
|
|
<time>2026-07-10T11:27:50.000Z</time>
|
|
</trkpt>
|
|
<trkpt lat="54.918052" lon="8.675272">
|
|
<ele>-29.803478</ele>
|
|
<time>2026-07-10T11:27:51.000Z</time>
|
|
</trkpt>
|
|
<trkpt lat="54.918115" lon="8.675299">
|
|
<ele>-29.799276</ele>
|
|
<time>2026-07-10T11:27:52.000Z</time>
|
|
</trkpt>
|
|
<trkpt lat="54.918176" lon="8.675324">
|
|
<ele>-29.795218</ele>
|
|
<time>2026-07-10T11:27:53.000Z</time>
|
|
</trkpt>
|
|
<trkpt lat="54.918237" lon="8.675351">
|
|
<ele>-29.791142</ele>
|
|
<time>2026-07-10T11:27:54.000Z</time>
|
|
</trkpt>
|
|
<trkpt lat="54.918299" lon="8.675381">
|
|
<ele>-29.786974</ele>
|
|
<time>2026-07-10T11:27:55.000Z</time>
|
|
</trkpt>
|
|
<trkpt lat="54.918360" lon="8.675411">
|
|
<ele>-29.782869</ele>
|
|
<time>2026-07-10T11:27:56.000Z</time>
|
|
</trkpt>
|
|
<trkpt lat="54.918421" lon="8.675442">
|
|
<ele>-29.778753</ele>
|
|
<time>2026-07-10T11:27:57.000Z</time>
|
|
</trkpt>
|
|
<trkpt lat="54.918482" lon="8.675473">
|
|
<ele>-29.774638</ele>
|
|
<time>2026-07-10T11:27:58.000Z</time>
|
|
</trkpt>
|
|
<trkpt lat="54.918544" lon="8.675504">
|
|
<ele>-29.770460</ele>
|
|
<time>2026-07-10T11:27:59.000Z</time>
|
|
</trkpt>
|
|
<trkpt lat="54.918609" lon="8.675533">
|
|
<ele>-29.766115</ele>
|
|
<time>2026-07-10T11:28:00.000Z</time>
|
|
</trkpt>
|
|
<trkpt lat="54.918669" lon="8.675559">
|
|
<ele>-29.762110</ele>
|
|
<time>2026-07-10T11:28:01.000Z</time>
|
|
</trkpt>
|
|
<trkpt lat="54.918732" lon="8.675587">
|
|
<ele>-29.757900</ele>
|
|
<time>2026-07-10T11:28:02.000Z</time>
|
|
</trkpt>
|
|
<trkpt lat="54.918795" lon="8.675617">
|
|
<ele>-29.753670</ele>
|
|
<time>2026-07-10T11:28:03.000Z</time>
|
|
</trkpt>
|
|
<trkpt lat="54.918855" lon="8.675646">
|
|
<ele>-29.749637</ele>
|
|
<time>2026-07-10T11:28:04.000Z</time>
|
|
</trkpt>
|
|
<trkpt lat="54.918917" lon="8.675676">
|
|
<ele>-29.745469</ele>
|
|
<time>2026-07-10T11:28:05.000Z</time>
|
|
</trkpt>
|
|
<trkpt lat="54.918982" lon="8.675704">
|
|
<ele>-29.741133</ele>
|
|
<time>2026-07-10T11:28:06.000Z</time>
|
|
</trkpt>
|
|
<trkpt lat="54.919044" lon="8.675731">
|
|
<ele>-29.736994</ele>
|
|
<time>2026-07-10T11:28:07.000Z</time>
|
|
</trkpt>
|
|
<trkpt lat="54.919106" lon="8.675758">
|
|
<ele>-29.732855</ele>
|
|
<time>2026-07-10T11:28:08.000Z</time>
|
|
</trkpt>
|
|
<trkpt lat="54.919170" lon="8.675787">
|
|
<ele>-29.726430</ele>
|
|
<time>2026-07-10T11:28:09.000Z</time>
|
|
</trkpt>
|
|
<trkpt lat="54.919230" lon="8.675817">
|
|
<ele>-29.714135</ele>
|
|
<time>2026-07-10T11:28:10.000Z</time>
|
|
</trkpt>
|
|
<trkpt lat="54.919292" lon="8.675847">
|
|
<ele>-29.701462</ele>
|
|
<time>2026-07-10T11:28:11.000Z</time>
|
|
</trkpt>
|
|
<trkpt lat="54.919355" lon="8.675877">
|
|
<ele>-29.688598</ele>
|
|
<time>2026-07-10T11:28:12.000Z</time>
|
|
</trkpt>
|
|
<trkpt lat="54.919414" lon="8.675907">
|
|
<ele>-29.676493</ele>
|
|
<time>2026-07-10T11:28:13.000Z</time>
|
|
</trkpt>
|
|
<trkpt lat="54.919476" lon="8.675937">
|
|
<ele>-29.663819</ele>
|
|
<time>2026-07-10T11:28:14.000Z</time>
|
|
</trkpt>
|
|
<trkpt lat="54.919539" lon="8.675965">
|
|
<ele>-29.651014</ele>
|
|
<time>2026-07-10T11:28:15.000Z</time>
|
|
</trkpt>
|
|
<trkpt lat="54.919601" lon="8.675993">
|
|
<ele>-29.638399</ele>
|
|
<time>2026-07-10T11:28:16.000Z</time>
|
|
</trkpt>
|
|
<trkpt lat="54.919665" lon="8.676022">
|
|
<ele>-29.625375</ele>
|
|
<time>2026-07-10T11:28:17.000Z</time>
|
|
</trkpt>
|
|
<trkpt lat="54.919727" lon="8.676052">
|
|
<ele>-29.612701</ele>
|
|
<time>2026-07-10T11:28:18.000Z</time>
|
|
</trkpt>
|
|
<trkpt lat="54.919792" lon="8.676080">
|
|
<ele>-29.599513</ele>
|
|
<time>2026-07-10T11:28:19.000Z</time>
|
|
</trkpt>
|
|
<trkpt lat="54.919855" lon="8.676108">
|
|
<ele>-29.586708</ele>
|
|
<time>2026-07-10T11:28:20.000Z</time>
|
|
</trkpt>
|
|
<trkpt lat="54.919916" lon="8.676136">
|
|
<ele>-29.574284</ele>
|
|
<time>2026-07-10T11:28:21.000Z</time>
|
|
</trkpt>
|
|
<trkpt lat="54.919979" lon="8.676164">
|
|
<ele>-29.561478</ele>
|
|
<time>2026-07-10T11:28:22.000Z</time>
|
|
</trkpt>
|
|
<trkpt lat="54.920043" lon="8.676192">
|
|
<ele>-29.548482</ele>
|
|
<time>2026-07-10T11:28:23.000Z</time>
|
|
</trkpt>
|
|
<trkpt lat="54.920104" lon="8.676222">
|
|
<ele>-29.535998</ele>
|
|
<time>2026-07-10T11:28:24.000Z</time>
|
|
</trkpt>
|
|
<trkpt lat="54.920165" lon="8.676250">
|
|
<ele>-29.523573</ele>
|
|
<time>2026-07-10T11:28:25.000Z</time>
|
|
</trkpt>
|
|
<trkpt lat="54.920226" lon="8.676277">
|
|
<ele>-29.511178</ele>
|
|
<time>2026-07-10T11:28:26.000Z</time>
|
|
</trkpt>
|
|
<trkpt lat="54.920286" lon="8.676303">
|
|
<ele>-29.499000</ele>
|
|
<time>2026-07-10T11:28:27.000Z</time>
|
|
</trkpt>
|
|
<trkpt lat="54.920347" lon="8.676330">
|
|
<ele>-29.486604</ele>
|
|
<time>2026-07-10T11:28:28.000Z</time>
|
|
</trkpt>
|
|
<trkpt lat="54.920405" lon="8.676356">
|
|
<ele>-29.474809</ele>
|
|
<time>2026-07-10T11:28:29.000Z</time>
|
|
</trkpt>
|
|
<trkpt lat="54.920468" lon="8.676384">
|
|
<ele>-29.462003</ele>
|
|
<time>2026-07-10T11:28:30.000Z</time>
|
|
</trkpt>
|
|
<trkpt lat="54.920530" lon="8.676414">
|
|
<ele>-29.449330</ele>
|
|
<time>2026-07-10T11:28:31.000Z</time>
|
|
</trkpt>
|
|
<trkpt lat="54.920589" lon="8.676445">
|
|
<ele>-29.437192</ele>
|
|
<time>2026-07-10T11:28:32.000Z</time>
|
|
</trkpt>
|
|
<trkpt lat="54.920653" lon="8.676476">
|
|
<ele>-29.424109</ele>
|
|
<time>2026-07-10T11:28:33.000Z</time>
|
|
</trkpt>
|
|
<trkpt lat="54.920713" lon="8.676507">
|
|
<ele>-29.411783</ele>
|
|
<time>2026-07-10T11:28:34.000Z</time>
|
|
</trkpt>
|
|
<trkpt lat="54.920773" lon="8.676536">
|
|
<ele>-29.399519</ele>
|
|
<time>2026-07-10T11:28:35.000Z</time>
|
|
</trkpt>
|
|
<trkpt lat="54.920835" lon="8.676566">
|
|
<ele>-29.386845</ele>
|
|
<time>2026-07-10T11:28:36.000Z</time>
|
|
</trkpt>
|
|
<trkpt lat="54.920892" lon="8.676594">
|
|
<ele>-29.375299</ele>
|
|
<time>2026-07-10T11:28:37.000Z</time>
|
|
</trkpt>
|
|
<trkpt lat="54.920949" lon="8.676618">
|
|
<ele>-29.370034</ele>
|
|
<time>2026-07-10T11:28:38.000Z</time>
|
|
</trkpt>
|
|
<trkpt lat="54.921002" lon="8.676638">
|
|
<ele>-29.365166</ele>
|
|
<time>2026-07-10T11:28:39.000Z</time>
|
|
</trkpt>
|
|
<trkpt lat="54.921054" lon="8.676659">
|
|
<ele>-29.360374</ele>
|
|
<time>2026-07-10T11:28:40.000Z</time>
|
|
</trkpt>
|
|
<trkpt lat="54.921101" lon="8.676680">
|
|
<ele>-29.356017</ele>
|
|
<time>2026-07-10T11:28:41.000Z</time>
|
|
</trkpt>
|
|
<trkpt lat="54.921146" lon="8.676700">
|
|
<ele>-29.351848</ele>
|
|
<time>2026-07-10T11:28:42.000Z</time>
|
|
</trkpt>
|
|
<trkpt lat="54.921189" lon="8.676719">
|
|
<ele>-29.347865</ele>
|
|
<time>2026-07-10T11:28:43.000Z</time>
|
|
</trkpt>
|
|
<trkpt lat="54.921229" lon="8.676738">
|
|
<ele>-29.344143</ele>
|
|
<time>2026-07-10T11:28:44.000Z</time>
|
|
</trkpt>
|
|
<trkpt lat="54.921260" lon="8.676754">
|
|
<ele>-29.341240</ele>
|
|
<time>2026-07-10T11:28:45.000Z</time>
|
|
</trkpt>
|
|
<trkpt lat="54.921288" lon="8.676770">
|
|
<ele>-29.338594</ele>
|
|
<time>2026-07-10T11:29:22.000Z</time>
|
|
</trkpt>
|
|
<trkpt lat="54.921307" lon="8.676778">
|
|
<ele>-29.336839</ele>
|
|
<time>2026-07-10T11:29:26.000Z</time>
|
|
</trkpt>
|
|
<trkpt lat="54.921361" lon="8.676799">
|
|
<ele>-29.331872</ele>
|
|
<time>2026-07-10T11:29:27.000Z</time>
|
|
</trkpt>
|
|
<trkpt lat="54.921393" lon="8.676806">
|
|
<ele>-29.328977</ele>
|
|
<time>2026-07-10T11:29:28.000Z</time>
|
|
</trkpt>
|
|
<trkpt lat="54.921427" lon="8.676815">
|
|
<ele>-29.325889</ele>
|
|
<time>2026-07-10T11:29:29.000Z</time>
|
|
</trkpt>
|
|
<trkpt lat="54.921462" lon="8.676828">
|
|
<ele>-29.322676</ele>
|
|
<time>2026-07-10T11:29:30.000Z</time>
|
|
</trkpt>
|
|
<trkpt lat="54.921505" lon="8.676845">
|
|
<ele>-29.318718</ele>
|
|
<time>2026-07-10T11:29:31.000Z</time>
|
|
</trkpt>
|
|
<trkpt lat="54.921543" lon="8.676863">
|
|
<ele>-29.315182</ele>
|
|
<time>2026-07-10T11:29:32.000Z</time>
|
|
</trkpt>
|
|
<trkpt lat="54.921582" lon="8.676884">
|
|
<ele>-29.311517</ele>
|
|
<time>2026-07-10T11:29:33.000Z</time>
|
|
</trkpt>
|
|
<trkpt lat="54.921625" lon="8.676904">
|
|
<ele>-29.307522</ele>
|
|
<time>2026-07-10T11:29:34.000Z</time>
|
|
</trkpt>
|
|
<trkpt lat="54.921665" lon="8.676927">
|
|
<ele>-29.303740</ele>
|
|
<time>2026-07-10T11:29:35.000Z</time>
|
|
</trkpt>
|
|
<trkpt lat="54.921704" lon="8.676950">
|
|
<ele>-29.300043</ele>
|
|
<time>2026-07-10T11:29:36.000Z</time>
|
|
</trkpt>
|
|
<trkpt lat="54.921753" lon="8.676980">
|
|
<ele>-29.295380</ele>
|
|
<time>2026-07-10T11:29:37.000Z</time>
|
|
</trkpt>
|
|
<trkpt lat="54.921801" lon="8.677006">
|
|
<ele>-29.290867</ele>
|
|
<time>2026-07-10T11:29:38.000Z</time>
|
|
</trkpt>
|
|
<trkpt lat="54.921851" lon="8.677029">
|
|
<ele>-29.286224</ele>
|
|
<time>2026-07-10T11:29:39.000Z</time>
|
|
</trkpt>
|
|
<trkpt lat="54.921901" lon="8.677051">
|
|
<ele>-29.281594</ele>
|
|
<time>2026-07-10T11:29:40.000Z</time>
|
|
</trkpt>
|
|
<trkpt lat="54.921950" lon="8.677071">
|
|
<ele>-29.277076</ele>
|
|
<time>2026-07-10T11:29:41.000Z</time>
|
|
</trkpt>
|
|
<trkpt lat="54.922000" lon="8.677095">
|
|
<ele>-29.272419</ele>
|
|
<time>2026-07-10T11:29:42.000Z</time>
|
|
</trkpt>
|
|
<trkpt lat="54.922049" lon="8.677119">
|
|
<ele>-29.267849</ele>
|
|
<time>2026-07-10T11:29:43.000Z</time>
|
|
</trkpt>
|
|
<trkpt lat="54.922100" lon="8.677146">
|
|
<ele>-29.263064</ele>
|
|
<time>2026-07-10T11:29:44.000Z</time>
|
|
</trkpt>
|
|
<trkpt lat="54.922152" lon="8.677171">
|
|
<ele>-29.258221</ele>
|
|
<time>2026-07-10T11:29:45.000Z</time>
|
|
</trkpt>
|
|
<trkpt lat="54.922202" lon="8.677193">
|
|
<ele>-29.253591</ele>
|
|
<time>2026-07-10T11:29:46.000Z</time>
|
|
</trkpt>
|
|
<trkpt lat="54.922252" lon="8.677215">
|
|
<ele>-29.248961</ele>
|
|
<time>2026-07-10T11:29:47.000Z</time>
|
|
</trkpt>
|
|
<trkpt lat="54.922302" lon="8.677241">
|
|
<ele>-29.244276</ele>
|
|
<time>2026-07-10T11:29:48.000Z</time>
|
|
</trkpt>
|
|
<trkpt lat="54.922353" lon="8.677267">
|
|
<ele>-29.239505</ele>
|
|
<time>2026-07-10T11:29:49.000Z</time>
|
|
</trkpt>
|
|
<trkpt lat="54.922405" lon="8.677295">
|
|
<ele>-29.234619</ele>
|
|
<time>2026-07-10T11:29:50.000Z</time>
|
|
</trkpt>
|
|
<trkpt lat="54.922458" lon="8.677320">
|
|
<ele>-29.229689</ele>
|
|
<time>2026-07-10T11:29:51.000Z</time>
|
|
</trkpt>
|
|
<trkpt lat="54.922507" lon="8.677342">
|
|
<ele>-29.225146</ele>
|
|
<time>2026-07-10T11:29:52.000Z</time>
|
|
</trkpt>
|
|
<trkpt lat="54.922557" lon="8.677363">
|
|
<ele>-29.220528</ele>
|
|
<time>2026-07-10T11:29:53.000Z</time>
|
|
</trkpt>
|
|
<trkpt lat="54.922606" lon="8.677386">
|
|
<ele>-29.215972</ele>
|
|
<time>2026-07-10T11:29:54.000Z</time>
|
|
</trkpt>
|
|
<trkpt lat="54.922656" lon="8.677411">
|
|
<ele>-29.214836</ele>
|
|
<time>2026-07-10T11:29:55.000Z</time>
|
|
</trkpt>
|
|
<trkpt lat="54.922706" lon="8.677435">
|
|
<ele>-29.216446</ele>
|
|
<time>2026-07-10T11:29:56.000Z</time>
|
|
</trkpt>
|
|
<trkpt lat="54.922753" lon="8.677458">
|
|
<ele>-29.217961</ele>
|
|
<time>2026-07-10T11:29:57.000Z</time>
|
|
</trkpt>
|
|
<trkpt lat="54.922802" lon="8.677482">
|
|
<ele>-29.219541</ele>
|
|
<time>2026-07-10T11:29:58.000Z</time>
|
|
</trkpt>
|
|
<trkpt lat="54.922855" lon="8.677505">
|
|
<ele>-29.221236</ele>
|
|
<time>2026-07-10T11:29:59.000Z</time>
|
|
</trkpt>
|
|
<trkpt lat="54.922909" lon="8.677532">
|
|
<ele>-29.222979</ele>
|
|
<time>2026-07-10T11:30:00.000Z</time>
|
|
</trkpt>
|
|
<trkpt lat="54.922963" lon="8.677559">
|
|
<ele>-29.224723</ele>
|
|
<time>2026-07-10T11:30:01.000Z</time>
|
|
</trkpt>
|
|
<trkpt lat="54.923016" lon="8.677583">
|
|
<ele>-29.226422</ele>
|
|
<time>2026-07-10T11:30:02.000Z</time>
|
|
</trkpt>
|
|
<trkpt lat="54.923069" lon="8.677606">
|
|
<ele>-29.228117</ele>
|
|
<time>2026-07-10T11:30:03.000Z</time>
|
|
</trkpt>
|
|
<trkpt lat="54.923124" lon="8.677632">
|
|
<ele>-29.229886</ele>
|
|
<time>2026-07-10T11:30:04.000Z</time>
|
|
</trkpt>
|
|
<trkpt lat="54.923181" lon="8.677658">
|
|
<ele>-29.231714</ele>
|
|
<time>2026-07-10T11:30:05.000Z</time>
|
|
</trkpt>
|
|
<trkpt lat="54.923239" lon="8.677684">
|
|
<ele>-29.233573</ele>
|
|
<time>2026-07-10T11:30:06.000Z</time>
|
|
</trkpt>
|
|
<trkpt lat="54.923294" lon="8.677709">
|
|
<ele>-29.235337</ele>
|
|
<time>2026-07-10T11:30:07.000Z</time>
|
|
</trkpt>
|
|
<trkpt lat="54.923348" lon="8.677734">
|
|
<ele>-29.237071</ele>
|
|
<time>2026-07-10T11:30:08.000Z</time>
|
|
</trkpt>
|
|
<trkpt lat="54.923402" lon="8.677759">
|
|
<ele>-29.238805</ele>
|
|
<time>2026-07-10T11:30:09.000Z</time>
|
|
</trkpt>
|
|
<trkpt lat="54.923458" lon="8.677785">
|
|
<ele>-29.240603</ele>
|
|
<time>2026-07-10T11:30:10.000Z</time>
|
|
</trkpt>
|
|
<trkpt lat="54.923512" lon="8.677809">
|
|
<ele>-29.242333</ele>
|
|
<time>2026-07-10T11:30:11.000Z</time>
|
|
</trkpt>
|
|
<trkpt lat="54.923570" lon="8.677834">
|
|
<ele>-29.244187</ele>
|
|
<time>2026-07-10T11:30:12.000Z</time>
|
|
</trkpt>
|
|
<trkpt lat="54.923627" lon="8.677860">
|
|
<ele>-29.246016</ele>
|
|
<time>2026-07-10T11:30:13.000Z</time>
|
|
</trkpt>
|
|
<trkpt lat="54.923681" lon="8.677887">
|
|
<ele>-29.247759</ele>
|
|
<time>2026-07-10T11:30:14.000Z</time>
|
|
</trkpt>
|
|
<trkpt lat="54.923738" lon="8.677916">
|
|
<ele>-29.249602</ele>
|
|
<time>2026-07-10T11:30:15.000Z</time>
|
|
</trkpt>
|
|
<trkpt lat="54.923794" lon="8.677944">
|
|
<ele>-29.251410</ele>
|
|
<time>2026-07-10T11:30:16.000Z</time>
|
|
</trkpt>
|
|
<trkpt lat="54.923850" lon="8.677971">
|
|
<ele>-29.253213</ele>
|
|
<time>2026-07-10T11:30:17.000Z</time>
|
|
</trkpt>
|
|
<trkpt lat="54.923909" lon="8.677996">
|
|
<ele>-29.255098</ele>
|
|
<time>2026-07-10T11:30:18.000Z</time>
|
|
</trkpt>
|
|
<trkpt lat="54.923965" lon="8.678022">
|
|
<ele>-29.256896</ele>
|
|
<time>2026-07-10T11:30:19.000Z</time>
|
|
</trkpt>
|
|
<trkpt lat="54.924023" lon="8.678050">
|
|
<ele>-29.258764</ele>
|
|
<time>2026-07-10T11:30:20.000Z</time>
|
|
</trkpt>
|
|
<trkpt lat="54.924080" lon="8.678076">
|
|
<ele>-29.260593</ele>
|
|
<time>2026-07-10T11:30:21.000Z</time>
|
|
</trkpt>
|
|
<trkpt lat="54.924138" lon="8.678102">
|
|
<ele>-29.262451</ele>
|
|
<time>2026-07-10T11:30:22.000Z</time>
|
|
</trkpt>
|
|
<trkpt lat="54.924195" lon="8.678127">
|
|
<ele>-29.264275</ele>
|
|
<time>2026-07-10T11:30:23.000Z</time>
|
|
</trkpt>
|
|
<trkpt lat="54.924251" lon="8.678153">
|
|
<ele>-29.266074</ele>
|
|
<time>2026-07-10T11:30:24.000Z</time>
|
|
</trkpt>
|
|
<trkpt lat="54.924309" lon="8.678180">
|
|
<ele>-29.267937</ele>
|
|
<time>2026-07-10T11:30:25.000Z</time>
|
|
</trkpt>
|
|
<trkpt lat="54.924365" lon="8.678207">
|
|
<ele>-29.269740</ele>
|
|
<time>2026-07-10T11:30:26.000Z</time>
|
|
</trkpt>
|
|
<trkpt lat="54.924424" lon="8.678236">
|
|
<ele>-29.271088</ele>
|
|
<time>2026-07-10T11:30:27.000Z</time>
|
|
</trkpt>
|
|
<trkpt lat="54.924482" lon="8.678263">
|
|
<ele>-29.272406</ele>
|
|
<time>2026-07-10T11:30:28.000Z</time>
|
|
</trkpt>
|
|
<trkpt lat="54.924539" lon="8.678290">
|
|
<ele>-29.273703</ele>
|
|
<time>2026-07-10T11:30:29.000Z</time>
|
|
</trkpt>
|
|
<trkpt lat="54.924596" lon="8.678315">
|
|
<ele>-29.274994</ele>
|
|
<time>2026-07-10T11:30:30.000Z</time>
|
|
</trkpt>
|
|
<trkpt lat="54.924650" lon="8.678337">
|
|
<ele>-29.276212</ele>
|
|
<time>2026-07-10T11:30:31.000Z</time>
|
|
</trkpt>
|
|
<trkpt lat="54.924707" lon="8.678360">
|
|
<ele>-29.277497</ele>
|
|
<time>2026-07-10T11:30:32.000Z</time>
|
|
</trkpt>
|
|
<trkpt lat="54.924763" lon="8.678383">
|
|
<ele>-29.278761</ele>
|
|
<time>2026-07-10T11:30:33.000Z</time>
|
|
</trkpt>
|
|
<trkpt lat="54.924820" lon="8.678408">
|
|
<ele>-29.280052</ele>
|
|
<time>2026-07-10T11:30:34.000Z</time>
|
|
</trkpt>
|
|
<trkpt lat="54.924874" lon="8.678435">
|
|
<ele>-29.281286</ele>
|
|
<time>2026-07-10T11:30:35.000Z</time>
|
|
</trkpt>
|
|
<trkpt lat="54.924931" lon="8.678462">
|
|
<ele>-29.282583</ele>
|
|
<time>2026-07-10T11:30:36.000Z</time>
|
|
</trkpt>
|
|
<trkpt lat="54.924988" lon="8.678486">
|
|
<ele>-29.283871</ele>
|
|
<time>2026-07-10T11:30:37.000Z</time>
|
|
</trkpt>
|
|
<trkpt lat="54.925046" lon="8.678514">
|
|
<ele>-29.285193</ele>
|
|
<time>2026-07-10T11:30:38.000Z</time>
|
|
</trkpt>
|
|
<trkpt lat="54.925100" lon="8.678542">
|
|
<ele>-29.286431</ele>
|
|
<time>2026-07-10T11:30:39.000Z</time>
|
|
</trkpt>
|
|
<trkpt lat="54.925157" lon="8.678568">
|
|
<ele>-29.287725</ele>
|
|
<time>2026-07-10T11:30:40.000Z</time>
|
|
</trkpt>
|
|
<trkpt lat="54.925214" lon="8.678593">
|
|
<ele>-29.289016</ele>
|
|
<time>2026-07-10T11:30:41.000Z</time>
|
|
</trkpt>
|
|
<trkpt lat="54.925269" lon="8.678617">
|
|
<ele>-29.290261</ele>
|
|
<time>2026-07-10T11:30:42.000Z</time>
|
|
</trkpt>
|
|
<trkpt lat="54.925323" lon="8.678644">
|
|
<ele>-29.291495</ele>
|
|
<time>2026-07-10T11:30:43.000Z</time>
|
|
</trkpt>
|
|
<trkpt lat="54.925377" lon="8.678671">
|
|
<ele>-29.292729</ele>
|
|
<time>2026-07-10T11:30:44.000Z</time>
|
|
</trkpt>
|
|
<trkpt lat="54.925431" lon="8.678697">
|
|
<ele>-29.293959</ele>
|
|
<time>2026-07-10T11:30:45.000Z</time>
|
|
</trkpt>
|
|
<trkpt lat="54.925489" lon="8.678725">
|
|
<ele>-29.295281</ele>
|
|
<time>2026-07-10T11:30:46.000Z</time>
|
|
</trkpt>
|
|
<trkpt lat="54.925546" lon="8.678753">
|
|
<ele>-29.296582</ele>
|
|
<time>2026-07-10T11:30:47.000Z</time>
|
|
</trkpt>
|
|
<trkpt lat="54.925602" lon="8.678777">
|
|
<ele>-29.297849</ele>
|
|
<time>2026-07-10T11:30:48.000Z</time>
|
|
</trkpt>
|
|
<trkpt lat="54.925656" lon="8.678799">
|
|
<ele>-29.299067</ele>
|
|
<time>2026-07-10T11:30:49.000Z</time>
|
|
</trkpt>
|
|
<trkpt lat="54.925708" lon="8.678822">
|
|
<ele>-29.300245</ele>
|
|
<time>2026-07-10T11:30:50.000Z</time>
|
|
</trkpt>
|
|
<trkpt lat="54.925762" lon="8.678846">
|
|
<ele>-29.301469</ele>
|
|
<time>2026-07-10T11:30:51.000Z</time>
|
|
</trkpt>
|
|
<trkpt lat="54.925819" lon="8.678873">
|
|
<ele>-29.302766</ele>
|
|
<time>2026-07-10T11:30:52.000Z</time>
|
|
</trkpt>
|
|
<trkpt lat="54.925873" lon="8.678900">
|
|
<ele>-29.304000</ele>
|
|
<time>2026-07-10T11:30:53.000Z</time>
|
|
</trkpt>
|
|
<trkpt lat="54.925930" lon="8.678928">
|
|
<ele>-29.305301</ele>
|
|
<time>2026-07-10T11:30:54.000Z</time>
|
|
</trkpt>
|
|
<trkpt lat="54.925984" lon="8.678956">
|
|
<ele>-29.306538</ele>
|
|
<time>2026-07-10T11:30:55.000Z</time>
|
|
</trkpt>
|
|
<trkpt lat="54.926038" lon="8.678981">
|
|
<ele>-29.307766</ele>
|
|
<time>2026-07-10T11:30:56.000Z</time>
|
|
</trkpt>
|
|
<trkpt lat="54.926094" lon="8.679004">
|
|
<ele>-29.309029</ele>
|
|
<time>2026-07-10T11:30:57.000Z</time>
|
|
</trkpt>
|
|
<trkpt lat="54.926149" lon="8.679029">
|
|
<ele>-29.303667</ele>
|
|
<time>2026-07-10T11:30:58.000Z</time>
|
|
</trkpt>
|
|
<trkpt lat="54.926206" lon="8.679059">
|
|
<ele>-29.296607</ele>
|
|
<time>2026-07-10T11:30:59.000Z</time>
|
|
</trkpt>
|
|
<trkpt lat="54.926263" lon="8.679089">
|
|
<ele>-29.289547</ele>
|
|
<time>2026-07-10T11:31:00.000Z</time>
|
|
</trkpt>
|
|
<trkpt lat="54.926317" lon="8.679119">
|
|
<ele>-29.282826</ele>
|
|
<time>2026-07-10T11:31:01.000Z</time>
|
|
</trkpt>
|
|
<trkpt lat="54.926373" lon="8.679150">
|
|
<ele>-29.275859</ele>
|
|
<time>2026-07-10T11:31:02.000Z</time>
|
|
</trkpt>
|
|
<trkpt lat="54.926428" lon="8.679177">
|
|
<ele>-29.269084</ele>
|
|
<time>2026-07-10T11:31:03.000Z</time>
|
|
</trkpt>
|
|
<trkpt lat="54.926484" lon="8.679203">
|
|
<ele>-29.262212</ele>
|
|
<time>2026-07-10T11:31:04.000Z</time>
|
|
</trkpt>
|
|
<trkpt lat="54.926541" lon="8.679229">
|
|
<ele>-29.255226</ele>
|
|
<time>2026-07-10T11:31:05.000Z</time>
|
|
</trkpt>
|
|
<trkpt lat="54.926599" lon="8.679254">
|
|
<ele>-29.248142</ele>
|
|
<time>2026-07-10T11:31:06.000Z</time>
|
|
</trkpt>
|
|
<trkpt lat="54.926656" lon="8.679277">
|
|
<ele>-29.241205</ele>
|
|
<time>2026-07-10T11:31:07.000Z</time>
|
|
</trkpt>
|
|
<trkpt lat="54.926712" lon="8.679303">
|
|
<ele>-29.234333</ele>
|
|
<time>2026-07-10T11:31:08.000Z</time>
|
|
</trkpt>
|
|
<trkpt lat="54.926767" lon="8.679332">
|
|
<ele>-29.227519</ele>
|
|
<time>2026-07-10T11:31:09.000Z</time>
|
|
</trkpt>
|
|
<trkpt lat="54.926824" lon="8.679361">
|
|
<ele>-29.220479</ele>
|
|
<time>2026-07-10T11:31:10.000Z</time>
|
|
</trkpt>
|
|
<trkpt lat="54.926880" lon="8.679388">
|
|
<ele>-29.213589</ele>
|
|
<time>2026-07-10T11:31:11.000Z</time>
|
|
</trkpt>
|
|
<trkpt lat="54.926937" lon="8.679414">
|
|
<ele>-29.206603</ele>
|
|
<time>2026-07-10T11:31:12.000Z</time>
|
|
</trkpt>
|
|
<trkpt lat="54.926994" lon="8.679439">
|
|
<ele>-29.199634</ele>
|
|
<time>2026-07-10T11:31:13.000Z</time>
|
|
</trkpt>
|
|
<trkpt lat="54.927049" lon="8.679464">
|
|
<ele>-29.192894</ele>
|
|
<time>2026-07-10T11:31:14.000Z</time>
|
|
</trkpt>
|
|
<trkpt lat="54.927107" lon="8.679490">
|
|
<ele>-29.185793</ele>
|
|
<time>2026-07-10T11:31:15.000Z</time>
|
|
</trkpt>
|
|
<trkpt lat="54.927163" lon="8.679517">
|
|
<ele>-29.178904</ele>
|
|
<time>2026-07-10T11:31:16.000Z</time>
|
|
</trkpt>
|
|
<trkpt lat="54.927223" lon="8.679544">
|
|
<ele>-29.171556</ele>
|
|
<time>2026-07-10T11:31:17.000Z</time>
|
|
</trkpt>
|
|
<trkpt lat="54.927280" lon="8.679571">
|
|
<ele>-29.164553</ele>
|
|
<time>2026-07-10T11:31:18.000Z</time>
|
|
</trkpt>
|
|
<trkpt lat="54.927333" lon="8.679598">
|
|
<ele>-29.158005</ele>
|
|
<time>2026-07-10T11:31:19.000Z</time>
|
|
</trkpt>
|
|
<trkpt lat="54.927395" lon="8.679625">
|
|
<ele>-29.150428</ele>
|
|
<time>2026-07-10T11:31:20.000Z</time>
|
|
</trkpt>
|
|
<trkpt lat="54.927451" lon="8.679652">
|
|
<ele>-29.143539</ele>
|
|
<time>2026-07-10T11:31:21.000Z</time>
|
|
</trkpt>
|
|
<trkpt lat="54.927506" lon="8.679679">
|
|
<ele>-29.136763</ele>
|
|
<time>2026-07-10T11:31:22.000Z</time>
|
|
</trkpt>
|
|
<trkpt lat="54.927563" lon="8.679704">
|
|
<ele>-29.129794</ele>
|
|
<time>2026-07-10T11:31:23.000Z</time>
|
|
</trkpt>
|
|
<trkpt lat="54.927619" lon="8.679729">
|
|
<ele>-29.122940</ele>
|
|
<time>2026-07-10T11:31:24.000Z</time>
|
|
</trkpt>
|
|
<trkpt lat="54.927673" lon="8.679756">
|
|
<ele>-29.116279</ele>
|
|
<time>2026-07-10T11:31:25.000Z</time>
|
|
</trkpt>
|
|
<trkpt lat="54.927728" lon="8.679782">
|
|
<ele>-29.109522</ele>
|
|
<time>2026-07-10T11:31:26.000Z</time>
|
|
</trkpt>
|
|
<trkpt lat="54.927784" lon="8.679807">
|
|
<ele>-29.102667</ele>
|
|
<time>2026-07-10T11:31:27.000Z</time>
|
|
</trkpt>
|
|
<trkpt lat="54.927838" lon="8.679834">
|
|
<ele>-29.096006</ele>
|
|
<time>2026-07-10T11:31:28.000Z</time>
|
|
</trkpt>
|
|
<trkpt lat="54.927894" lon="8.679859">
|
|
<ele>-29.095200</ele>
|
|
<time>2026-07-10T11:31:29.000Z</time>
|
|
</trkpt>
|
|
<trkpt lat="54.927947" lon="8.679885">
|
|
<ele>-29.094438</ele>
|
|
<time>2026-07-10T11:31:30.000Z</time>
|
|
</trkpt>
|
|
<trkpt lat="54.928002" lon="8.679910">
|
|
<ele>-29.093652</ele>
|
|
<time>2026-07-10T11:31:31.000Z</time>
|
|
</trkpt>
|
|
<trkpt lat="54.928059" lon="8.679936">
|
|
<ele>-29.092838</ele>
|
|
<time>2026-07-10T11:31:32.000Z</time>
|
|
</trkpt>
|
|
<trkpt lat="54.928112" lon="8.679960">
|
|
<ele>-29.092080</ele>
|
|
<time>2026-07-10T11:31:33.000Z</time>
|
|
</trkpt>
|
|
<trkpt lat="54.928164" lon="8.679983">
|
|
<ele>-29.091339</ele>
|
|
<time>2026-07-10T11:31:34.000Z</time>
|
|
</trkpt>
|
|
<trkpt lat="54.928215" lon="8.680007">
|
|
<ele>-29.090608</ele>
|
|
<time>2026-07-10T11:31:35.000Z</time>
|
|
</trkpt>
|
|
<trkpt lat="54.928268" lon="8.680030">
|
|
<ele>-29.089853</ele>
|
|
<time>2026-07-10T11:31:36.000Z</time>
|
|
</trkpt>
|
|
<trkpt lat="54.928321" lon="8.680053">
|
|
<ele>-29.089098</ele>
|
|
<time>2026-07-10T11:31:37.000Z</time>
|
|
</trkpt>
|
|
<trkpt lat="54.928375" lon="8.680076">
|
|
<ele>-29.088329</ele>
|
|
<time>2026-07-10T11:31:38.000Z</time>
|
|
</trkpt>
|
|
<trkpt lat="54.928427" lon="8.680098">
|
|
<ele>-29.087589</ele>
|
|
<time>2026-07-10T11:31:39.000Z</time>
|
|
</trkpt>
|
|
<trkpt lat="54.928482" lon="8.680121">
|
|
<ele>-29.086807</ele>
|
|
<time>2026-07-10T11:31:40.000Z</time>
|
|
</trkpt>
|
|
<trkpt lat="54.928535" lon="8.680145">
|
|
<ele>-29.086050</ele>
|
|
<time>2026-07-10T11:31:41.000Z</time>
|
|
</trkpt>
|
|
<trkpt lat="54.928589" lon="8.680168">
|
|
<ele>-29.085281</ele>
|
|
<time>2026-07-10T11:31:42.000Z</time>
|
|
</trkpt>
|
|
<trkpt lat="54.928643" lon="8.680191">
|
|
<ele>-29.084512</ele>
|
|
<time>2026-07-10T11:31:43.000Z</time>
|
|
</trkpt>
|
|
<trkpt lat="54.928695" lon="8.680216">
|
|
<ele>-29.083767</ele>
|
|
<time>2026-07-10T11:31:44.000Z</time>
|
|
</trkpt>
|
|
<trkpt lat="54.928749" lon="8.680241">
|
|
<ele>-29.082994</ele>
|
|
<time>2026-07-10T11:31:45.000Z</time>
|
|
</trkpt>
|
|
<trkpt lat="54.928807" lon="8.680267">
|
|
<ele>-29.082166</ele>
|
|
<time>2026-07-10T11:31:46.000Z</time>
|
|
</trkpt>
|
|
<trkpt lat="54.928860" lon="8.680291">
|
|
<ele>-29.081409</ele>
|
|
<time>2026-07-10T11:31:47.000Z</time>
|
|
</trkpt>
|
|
<trkpt lat="54.928917" lon="8.680319">
|
|
<ele>-29.080590</ele>
|
|
<time>2026-07-10T11:31:48.000Z</time>
|
|
</trkpt>
|
|
<trkpt lat="54.928977" lon="8.680348">
|
|
<ele>-29.079729</ele>
|
|
<time>2026-07-10T11:31:49.000Z</time>
|
|
</trkpt>
|
|
<trkpt lat="54.929032" lon="8.680376">
|
|
<ele>-29.078936</ele>
|
|
<time>2026-07-10T11:31:50.000Z</time>
|
|
</trkpt>
|
|
<trkpt lat="54.929090" lon="8.680406">
|
|
<ele>-29.078100</ele>
|
|
<time>2026-07-10T11:31:51.000Z</time>
|
|
</trkpt>
|
|
<trkpt lat="54.929147" lon="8.680433">
|
|
<ele>-29.077283</ele>
|
|
<time>2026-07-10T11:31:52.000Z</time>
|
|
</trkpt>
|
|
<trkpt lat="54.929204" lon="8.680460">
|
|
<ele>-29.076466</ele>
|
|
<time>2026-07-10T11:31:53.000Z</time>
|
|
</trkpt>
|
|
<trkpt lat="54.929261" lon="8.680489">
|
|
<ele>-29.075645</ele>
|
|
<time>2026-07-10T11:31:54.000Z</time>
|
|
</trkpt>
|
|
<trkpt lat="54.929316" lon="8.680517">
|
|
<ele>-29.074853</ele>
|
|
<time>2026-07-10T11:31:55.000Z</time>
|
|
</trkpt>
|
|
<trkpt lat="54.929376" lon="8.680543">
|
|
<ele>-29.073998</ele>
|
|
<time>2026-07-10T11:31:56.000Z</time>
|
|
</trkpt>
|
|
<trkpt lat="54.929434" lon="8.680567">
|
|
<ele>-29.073174</ele>
|
|
<time>2026-07-10T11:31:57.000Z</time>
|
|
</trkpt>
|
|
<trkpt lat="54.929491" lon="8.680589">
|
|
<ele>-29.072366</ele>
|
|
<time>2026-07-10T11:31:58.000Z</time>
|
|
</trkpt>
|
|
<trkpt lat="54.929549" lon="8.680612">
|
|
<ele>-29.071544</ele>
|
|
<time>2026-07-10T11:31:59.000Z</time>
|
|
</trkpt>
|
|
<trkpt lat="54.929605" lon="8.680641">
|
|
<ele>-29.074485</ele>
|
|
<time>2026-07-10T11:32:00.000Z</time>
|
|
</trkpt>
|
|
<trkpt lat="54.929664" lon="8.680669">
|
|
<ele>-29.081703</ele>
|
|
<time>2026-07-10T11:32:01.000Z</time>
|
|
</trkpt>
|
|
<trkpt lat="54.929722" lon="8.680699">
|
|
<ele>-29.088844</ele>
|
|
<time>2026-07-10T11:32:02.000Z</time>
|
|
</trkpt>
|
|
<trkpt lat="54.929785" lon="8.680730">
|
|
<ele>-29.096571</ele>
|
|
<time>2026-07-10T11:32:03.000Z</time>
|
|
</trkpt>
|
|
<trkpt lat="54.929847" lon="8.680758">
|
|
<ele>-29.104130</ele>
|
|
<time>2026-07-10T11:32:04.000Z</time>
|
|
</trkpt>
|
|
<trkpt lat="54.929909" lon="8.680786">
|
|
<ele>-29.111690</ele>
|
|
<time>2026-07-10T11:32:05.000Z</time>
|
|
</trkpt>
|
|
<trkpt lat="54.929970" lon="8.680816">
|
|
<ele>-29.119171</ele>
|
|
<time>2026-07-10T11:32:06.000Z</time>
|
|
</trkpt>
|
|
<trkpt lat="54.930030" lon="8.680845">
|
|
<ele>-29.126520</ele>
|
|
<time>2026-07-10T11:32:07.000Z</time>
|
|
</trkpt>
|
|
<trkpt lat="54.930090" lon="8.680873">
|
|
<ele>-29.133852</ele>
|
|
<time>2026-07-10T11:32:08.000Z</time>
|
|
</trkpt>
|
|
<trkpt lat="54.930147" lon="8.680900">
|
|
<ele>-29.140823</ele>
|
|
<time>2026-07-10T11:32:09.000Z</time>
|
|
</trkpt>
|
|
<trkpt lat="54.930206" lon="8.680925">
|
|
<ele>-29.147990</ele>
|
|
<time>2026-07-10T11:32:10.000Z</time>
|
|
</trkpt>
|
|
<trkpt lat="54.930264" lon="8.680950">
|
|
<ele>-29.155042</ele>
|
|
<time>2026-07-10T11:32:11.000Z</time>
|
|
</trkpt>
|
|
<trkpt lat="54.930324" lon="8.680975">
|
|
<ele>-29.162323</ele>
|
|
<time>2026-07-10T11:32:12.000Z</time>
|
|
</trkpt>
|
|
<trkpt lat="54.930383" lon="8.681002">
|
|
<ele>-29.169523</ele>
|
|
<time>2026-07-10T11:32:13.000Z</time>
|
|
</trkpt>
|
|
<trkpt lat="54.930444" lon="8.681027">
|
|
<ele>-29.176919</ele>
|
|
<time>2026-07-10T11:32:14.000Z</time>
|
|
</trkpt>
|
|
<trkpt lat="54.930503" lon="8.681055">
|
|
<ele>-29.184137</ele>
|
|
<time>2026-07-10T11:32:15.000Z</time>
|
|
</trkpt>
|
|
<trkpt lat="54.930562" lon="8.681084">
|
|
<ele>-29.191372</ele>
|
|
<time>2026-07-10T11:32:16.000Z</time>
|
|
</trkpt>
|
|
<trkpt lat="54.930619" lon="8.681112">
|
|
<ele>-29.198362</ele>
|
|
<time>2026-07-10T11:32:17.000Z</time>
|
|
</trkpt>
|
|
<trkpt lat="54.930680" lon="8.681141">
|
|
<ele>-29.205825</ele>
|
|
<time>2026-07-10T11:32:18.000Z</time>
|
|
</trkpt>
|
|
<trkpt lat="54.930740" lon="8.681170">
|
|
<ele>-29.213174</ele>
|
|
<time>2026-07-10T11:32:19.000Z</time>
|
|
</trkpt>
|
|
<trkpt lat="54.930799" lon="8.681197">
|
|
<ele>-29.220374</ele>
|
|
<time>2026-07-10T11:32:20.000Z</time>
|
|
</trkpt>
|
|
<trkpt lat="54.930860" lon="8.681224">
|
|
<ele>-29.227803</ele>
|
|
<time>2026-07-10T11:32:21.000Z</time>
|
|
</trkpt>
|
|
<trkpt lat="54.930918" lon="8.681253">
|
|
<ele>-29.234925</ele>
|
|
<time>2026-07-10T11:32:22.000Z</time>
|
|
</trkpt>
|
|
<trkpt lat="54.930979" lon="8.681281">
|
|
<ele>-29.242370</ele>
|
|
<time>2026-07-10T11:32:23.000Z</time>
|
|
</trkpt>
|
|
<trkpt lat="54.931036" lon="8.681311">
|
|
<ele>-29.249398</ele>
|
|
<time>2026-07-10T11:32:24.000Z</time>
|
|
</trkpt>
|
|
<trkpt lat="54.931096" lon="8.681338">
|
|
<ele>-29.256712</ele>
|
|
<time>2026-07-10T11:32:25.000Z</time>
|
|
</trkpt>
|
|
<trkpt lat="54.931157" lon="8.681363">
|
|
<ele>-29.264108</ele>
|
|
<time>2026-07-10T11:32:26.000Z</time>
|
|
</trkpt>
|
|
<trkpt lat="54.931217" lon="8.681387">
|
|
<ele>-29.271374</ele>
|
|
<time>2026-07-10T11:32:27.000Z</time>
|
|
</trkpt>
|
|
<trkpt lat="54.931280" lon="8.681412">
|
|
<ele>-29.279000</ele>
|
|
<time>2026-07-10T11:32:28.000Z</time>
|
|
</trkpt>
|
|
<trkpt lat="54.931338" lon="8.681437">
|
|
<ele>-29.287180</ele>
|
|
<time>2026-07-10T11:32:29.000Z</time>
|
|
</trkpt>
|
|
<trkpt lat="54.931401" lon="8.681463">
|
|
<ele>-29.298076</ele>
|
|
<time>2026-07-10T11:32:30.000Z</time>
|
|
</trkpt>
|
|
<trkpt lat="54.931462" lon="8.681488">
|
|
<ele>-29.308623</ele>
|
|
<time>2026-07-10T11:32:31.000Z</time>
|
|
</trkpt>
|
|
<trkpt lat="54.931524" lon="8.681513">
|
|
<ele>-29.319334</ele>
|
|
<time>2026-07-10T11:32:32.000Z</time>
|
|
</trkpt>
|
|
<trkpt lat="54.931582" lon="8.681538">
|
|
<ele>-29.329390</ele>
|
|
<time>2026-07-10T11:32:33.000Z</time>
|
|
</trkpt>
|
|
<trkpt lat="54.931641" lon="8.681564">
|
|
<ele>-29.339633</ele>
|
|
<time>2026-07-10T11:32:34.000Z</time>
|
|
</trkpt>
|
|
<trkpt lat="54.931698" lon="8.681591">
|
|
<ele>-29.349575</ele>
|
|
<time>2026-07-10T11:32:35.000Z</time>
|
|
</trkpt>
|
|
<trkpt lat="54.931758" lon="8.681619">
|
|
<ele>-29.360029</ele>
|
|
<time>2026-07-10T11:32:36.000Z</time>
|
|
</trkpt>
|
|
<trkpt lat="54.931822" lon="8.681648">
|
|
<ele>-29.371159</ele>
|
|
<time>2026-07-10T11:32:37.000Z</time>
|
|
</trkpt>
|
|
<trkpt lat="54.931883" lon="8.681677">
|
|
<ele>-29.381802</ele>
|
|
<time>2026-07-10T11:32:38.000Z</time>
|
|
</trkpt>
|
|
<trkpt lat="54.931945" lon="8.681706">
|
|
<ele>-29.392606</ele>
|
|
<time>2026-07-10T11:32:39.000Z</time>
|
|
</trkpt>
|
|
<trkpt lat="54.932008" lon="8.681733">
|
|
<ele>-29.403526</ele>
|
|
<time>2026-07-10T11:32:40.000Z</time>
|
|
</trkpt>
|
|
<trkpt lat="54.932067" lon="8.681765">
|
|
<ele>-29.413926</ele>
|
|
<time>2026-07-10T11:32:41.000Z</time>
|
|
</trkpt>
|
|
<trkpt lat="54.932126" lon="8.681796">
|
|
<ele>-29.424298</ele>
|
|
<time>2026-07-10T11:32:42.000Z</time>
|
|
</trkpt>
|
|
<trkpt lat="54.932188" lon="8.681826">
|
|
<ele>-29.435128</ele>
|
|
<time>2026-07-10T11:32:43.000Z</time>
|
|
</trkpt>
|
|
<trkpt lat="54.932249" lon="8.681855">
|
|
<ele>-29.445771</ele>
|
|
<time>2026-07-10T11:32:44.000Z</time>
|
|
</trkpt>
|
|
<trkpt lat="54.932311" lon="8.681883">
|
|
<ele>-29.456551</ele>
|
|
<time>2026-07-10T11:32:45.000Z</time>
|
|
</trkpt>
|
|
<trkpt lat="54.932370" lon="8.681911">
|
|
<ele>-29.466843</ele>
|
|
<time>2026-07-10T11:32:46.000Z</time>
|
|
</trkpt>
|
|
<trkpt lat="54.932431" lon="8.681941">
|
|
<ele>-29.477511</ele>
|
|
<time>2026-07-10T11:32:47.000Z</time>
|
|
</trkpt>
|
|
<trkpt lat="54.932487" lon="8.681969">
|
|
<ele>-29.487317</ele>
|
|
<time>2026-07-10T11:32:48.000Z</time>
|
|
</trkpt>
|
|
<trkpt lat="54.932549" lon="8.681997">
|
|
<ele>-29.498097</ele>
|
|
<time>2026-07-10T11:32:49.000Z</time>
|
|
</trkpt>
|
|
<trkpt lat="54.932607" lon="8.682024">
|
|
<ele>-29.508201</ele>
|
|
<time>2026-07-10T11:32:50.000Z</time>
|
|
</trkpt>
|
|
<trkpt lat="54.932670" lon="8.682054">
|
|
<ele>-29.519193</ele>
|
|
<time>2026-07-10T11:32:51.000Z</time>
|
|
</trkpt>
|
|
<trkpt lat="54.932729" lon="8.682082">
|
|
<ele>-29.529485</ele>
|
|
<time>2026-07-10T11:32:52.000Z</time>
|
|
</trkpt>
|
|
<trkpt lat="54.932785" lon="8.682109">
|
|
<ele>-29.539265</ele>
|
|
<time>2026-07-10T11:32:53.000Z</time>
|
|
</trkpt>
|
|
<trkpt lat="54.932846" lon="8.682139">
|
|
<ele>-29.549933</ele>
|
|
<time>2026-07-10T11:32:54.000Z</time>
|
|
</trkpt>
|
|
<trkpt lat="54.932906" lon="8.682168">
|
|
<ele>-29.560413</ele>
|
|
<time>2026-07-10T11:32:55.000Z</time>
|
|
</trkpt>
|
|
<trkpt lat="54.932967" lon="8.682197">
|
|
<ele>-29.571055</ele>
|
|
<time>2026-07-10T11:32:56.000Z</time>
|
|
</trkpt>
|
|
<trkpt lat="54.933026" lon="8.682224">
|
|
<ele>-29.581322</ele>
|
|
<time>2026-07-10T11:32:57.000Z</time>
|
|
</trkpt>
|
|
<trkpt lat="54.933085" lon="8.682248">
|
|
<ele>-29.588403</ele>
|
|
<time>2026-07-10T11:32:58.000Z</time>
|
|
</trkpt>
|
|
<trkpt lat="54.933144" lon="8.682273">
|
|
<ele>-29.592732</ele>
|
|
<time>2026-07-10T11:32:59.000Z</time>
|
|
</trkpt>
|
|
<trkpt lat="54.933202" lon="8.682300">
|
|
<ele>-29.597013</ele>
|
|
<time>2026-07-10T11:33:00.000Z</time>
|
|
</trkpt>
|
|
<trkpt lat="54.933260" lon="8.682327">
|
|
<ele>-29.601293</ele>
|
|
<time>2026-07-10T11:33:01.000Z</time>
|
|
</trkpt>
|
|
<trkpt lat="54.933318" lon="8.682355">
|
|
<ele>-29.605585</ele>
|
|
<time>2026-07-10T11:33:02.000Z</time>
|
|
</trkpt>
|
|
<trkpt lat="54.933377" lon="8.682382">
|
|
<ele>-29.609934</ele>
|
|
<time>2026-07-10T11:33:03.000Z</time>
|
|
</trkpt>
|
|
<trkpt lat="54.933435" lon="8.682409">
|
|
<ele>-29.614215</ele>
|
|
<time>2026-07-10T11:33:04.000Z</time>
|
|
</trkpt>
|
|
<trkpt lat="54.933495" lon="8.682436">
|
|
<ele>-29.618633</ele>
|
|
<time>2026-07-10T11:33:05.000Z</time>
|
|
</trkpt>
|
|
<trkpt lat="54.933554" lon="8.682461">
|
|
<ele>-29.622963</ele>
|
|
<time>2026-07-10T11:33:06.000Z</time>
|
|
</trkpt>
|
|
<trkpt lat="54.933613" lon="8.682485">
|
|
<ele>-29.627282</ele>
|
|
<time>2026-07-10T11:33:07.000Z</time>
|
|
</trkpt>
|
|
<trkpt lat="54.933672" lon="8.682513">
|
|
<ele>-29.631643</ele>
|
|
<time>2026-07-10T11:33:08.000Z</time>
|
|
</trkpt>
|
|
<trkpt lat="54.933732" lon="8.682541">
|
|
<ele>-29.636071</ele>
|
|
<time>2026-07-10T11:33:09.000Z</time>
|
|
</trkpt>
|
|
<trkpt lat="54.933789" lon="8.682569">
|
|
<ele>-29.640294</ele>
|
|
<time>2026-07-10T11:33:10.000Z</time>
|
|
</trkpt>
|
|
<trkpt lat="54.933848" lon="8.682593">
|
|
<ele>-29.644614</ele>
|
|
<time>2026-07-10T11:33:11.000Z</time>
|
|
</trkpt>
|
|
<trkpt lat="54.933909" lon="8.682618">
|
|
<ele>-29.649082</ele>
|
|
<time>2026-07-10T11:33:12.000Z</time>
|
|
</trkpt>
|
|
<trkpt lat="54.933967" lon="8.682646">
|
|
<ele>-29.653373</ele>
|
|
<time>2026-07-10T11:33:13.000Z</time>
|
|
</trkpt>
|
|
<trkpt lat="54.934027" lon="8.682675">
|
|
<ele>-29.657813</ele>
|
|
<time>2026-07-10T11:33:14.000Z</time>
|
|
</trkpt>
|
|
<trkpt lat="54.934089" lon="8.682705">
|
|
<ele>-29.662401</ele>
|
|
<time>2026-07-10T11:33:15.000Z</time>
|
|
</trkpt>
|
|
<trkpt lat="54.934148" lon="8.682733">
|
|
<ele>-29.666761</ele>
|
|
<time>2026-07-10T11:33:16.000Z</time>
|
|
</trkpt>
|
|
<trkpt lat="54.934205" lon="8.682761">
|
|
<ele>-29.670984</ele>
|
|
<time>2026-07-10T11:33:17.000Z</time>
|
|
</trkpt>
|
|
<trkpt lat="54.934269" lon="8.682788">
|
|
<ele>-29.675679</ele>
|
|
<time>2026-07-10T11:33:18.000Z</time>
|
|
</trkpt>
|
|
<trkpt lat="54.934333" lon="8.682815">
|
|
<ele>-29.680374</ele>
|
|
<time>2026-07-10T11:33:19.000Z</time>
|
|
</trkpt>
|
|
<trkpt lat="54.934392" lon="8.682842">
|
|
<ele>-29.684724</ele>
|
|
<time>2026-07-10T11:33:20.000Z</time>
|
|
</trkpt>
|
|
<trkpt lat="54.934452" lon="8.682870">
|
|
<ele>-29.689153</ele>
|
|
<time>2026-07-10T11:33:21.000Z</time>
|
|
</trkpt>
|
|
<trkpt lat="54.934515" lon="8.682899">
|
|
<ele>-29.693799</ele>
|
|
<time>2026-07-10T11:33:22.000Z</time>
|
|
</trkpt>
|
|
<trkpt lat="54.934580" lon="8.682926">
|
|
<ele>-29.698563</ele>
|
|
<time>2026-07-10T11:33:23.000Z</time>
|
|
</trkpt>
|
|
<trkpt lat="54.934638" lon="8.682953">
|
|
<ele>-29.702844</ele>
|
|
<time>2026-07-10T11:33:24.000Z</time>
|
|
</trkpt>
|
|
<trkpt lat="54.934702" lon="8.682980">
|
|
<ele>-29.707539</ele>
|
|
<time>2026-07-10T11:33:25.000Z</time>
|
|
</trkpt>
|
|
<trkpt lat="54.934762" lon="8.683006">
|
|
<ele>-29.711947</ele>
|
|
<time>2026-07-10T11:33:26.000Z</time>
|
|
</trkpt>
|
|
<trkpt lat="54.934823" lon="8.683032">
|
|
<ele>-29.712568</ele>
|
|
<time>2026-07-10T11:33:27.000Z</time>
|
|
</trkpt>
|
|
<trkpt lat="54.934887" lon="8.683060">
|
|
<ele>-29.708525</ele>
|
|
<time>2026-07-10T11:33:28.000Z</time>
|
|
</trkpt>
|
|
<trkpt lat="54.934949" lon="8.683089">
|
|
<ele>-29.704592</ele>
|
|
<time>2026-07-10T11:33:29.000Z</time>
|
|
</trkpt>
|
|
<trkpt lat="54.935011" lon="8.683119">
|
|
<ele>-29.700649</ele>
|
|
<time>2026-07-10T11:33:30.000Z</time>
|
|
</trkpt>
|
|
<trkpt lat="54.935072" lon="8.683148">
|
|
<ele>-29.696775</ele>
|
|
<time>2026-07-10T11:33:31.000Z</time>
|
|
</trkpt>
|
|
<trkpt lat="54.935133" lon="8.683179">
|
|
<ele>-29.692882</ele>
|
|
<time>2026-07-10T11:33:32.000Z</time>
|
|
</trkpt>
|
|
<trkpt lat="54.935194" lon="8.683209">
|
|
<ele>-29.688999</ele>
|
|
<time>2026-07-10T11:33:33.000Z</time>
|
|
</trkpt>
|
|
<trkpt lat="54.935255" lon="8.683241">
|
|
<ele>-29.685096</ele>
|
|
<time>2026-07-10T11:33:34.000Z</time>
|
|
</trkpt>
|
|
<trkpt lat="54.935316" lon="8.683273">
|
|
<ele>-29.681193</ele>
|
|
<time>2026-07-10T11:33:35.000Z</time>
|
|
</trkpt>
|
|
<trkpt lat="54.935376" lon="8.683304">
|
|
<ele>-29.677358</ele>
|
|
<time>2026-07-10T11:33:36.000Z</time>
|
|
</trkpt>
|
|
<trkpt lat="54.935432" lon="8.683331">
|
|
<ele>-29.673798</ele>
|
|
<time>2026-07-10T11:33:37.000Z</time>
|
|
</trkpt>
|
|
<trkpt lat="54.935495" lon="8.683358">
|
|
<ele>-29.669823</ele>
|
|
<time>2026-07-10T11:33:38.000Z</time>
|
|
</trkpt>
|
|
<trkpt lat="54.935559" lon="8.683386">
|
|
<ele>-29.665781</ele>
|
|
<time>2026-07-10T11:33:39.000Z</time>
|
|
</trkpt>
|
|
<trkpt lat="54.935617" lon="8.683413">
|
|
<ele>-29.662103</ele>
|
|
<time>2026-07-10T11:33:40.000Z</time>
|
|
</trkpt>
|
|
<trkpt lat="54.935679" lon="8.683442">
|
|
<ele>-29.658169</ele>
|
|
<time>2026-07-10T11:33:41.000Z</time>
|
|
</trkpt>
|
|
<trkpt lat="54.935739" lon="8.683471">
|
|
<ele>-29.654355</ele>
|
|
<time>2026-07-10T11:33:42.000Z</time>
|
|
</trkpt>
|
|
<trkpt lat="54.935800" lon="8.683500">
|
|
<ele>-29.650481</ele>
|
|
<time>2026-07-10T11:33:43.000Z</time>
|
|
</trkpt>
|
|
<trkpt lat="54.935860" lon="8.683528">
|
|
<ele>-29.646675</ele>
|
|
<time>2026-07-10T11:33:44.000Z</time>
|
|
</trkpt>
|
|
<trkpt lat="54.935918" lon="8.683555">
|
|
<ele>-29.642997</ele>
|
|
<time>2026-07-10T11:33:45.000Z</time>
|
|
</trkpt>
|
|
<trkpt lat="54.935980" lon="8.683582">
|
|
<ele>-29.639081</ele>
|
|
<time>2026-07-10T11:33:46.000Z</time>
|
|
</trkpt>
|
|
<trkpt lat="54.936038" lon="8.683609">
|
|
<ele>-29.635403</ele>
|
|
<time>2026-07-10T11:33:47.000Z</time>
|
|
</trkpt>
|
|
<trkpt lat="54.936097" lon="8.683638">
|
|
<ele>-29.631647</ele>
|
|
<time>2026-07-10T11:33:48.000Z</time>
|
|
</trkpt>
|
|
<trkpt lat="54.936155" lon="8.683666">
|
|
<ele>-29.627960</ele>
|
|
<time>2026-07-10T11:33:49.000Z</time>
|
|
</trkpt>
|
|
<trkpt lat="54.936216" lon="8.683695">
|
|
<ele>-29.624086</ele>
|
|
<time>2026-07-10T11:33:50.000Z</time>
|
|
</trkpt>
|
|
<trkpt lat="54.936277" lon="8.683725">
|
|
<ele>-29.620203</ele>
|
|
<time>2026-07-10T11:33:51.000Z</time>
|
|
</trkpt>
|
|
<trkpt lat="54.936336" lon="8.683753">
|
|
<ele>-29.616456</ele>
|
|
<time>2026-07-10T11:33:52.000Z</time>
|
|
</trkpt>
|
|
<trkpt lat="54.936396" lon="8.683783">
|
|
<ele>-29.612632</ele>
|
|
<time>2026-07-10T11:33:53.000Z</time>
|
|
</trkpt>
|
|
<trkpt lat="54.936458" lon="8.683812">
|
|
<ele>-29.608699</ele>
|
|
<time>2026-07-10T11:33:54.000Z</time>
|
|
</trkpt>
|
|
<trkpt lat="54.936517" lon="8.683839">
|
|
<ele>-29.604961</ele>
|
|
<time>2026-07-10T11:33:55.000Z</time>
|
|
</trkpt>
|
|
<trkpt lat="54.936575" lon="8.683866">
|
|
<ele>-29.605258</ele>
|
|
<time>2026-07-10T11:33:56.000Z</time>
|
|
</trkpt>
|
|
<trkpt lat="54.936633" lon="8.683893">
|
|
<ele>-29.606663</ele>
|
|
<time>2026-07-10T11:33:57.000Z</time>
|
|
</trkpt>
|
|
<trkpt lat="54.936694" lon="8.683920">
|
|
<ele>-29.608136</ele>
|
|
<time>2026-07-10T11:33:58.000Z</time>
|
|
</trkpt>
|
|
<trkpt lat="54.936756" lon="8.683947">
|
|
<ele>-29.609632</ele>
|
|
<time>2026-07-10T11:33:59.000Z</time>
|
|
</trkpt>
|
|
<trkpt lat="54.936815" lon="8.683977">
|
|
<ele>-29.611070</ele>
|
|
<time>2026-07-10T11:34:00.000Z</time>
|
|
</trkpt>
|
|
<trkpt lat="54.936875" lon="8.684008">
|
|
<ele>-29.612535</ele>
|
|
<time>2026-07-10T11:34:01.000Z</time>
|
|
</trkpt>
|
|
<trkpt lat="54.936939" lon="8.684040">
|
|
<ele>-29.614094</ele>
|
|
<time>2026-07-10T11:34:02.000Z</time>
|
|
</trkpt>
|
|
<trkpt lat="54.937001" lon="8.684069">
|
|
<ele>-29.615596</ele>
|
|
<time>2026-07-10T11:34:03.000Z</time>
|
|
</trkpt>
|
|
<trkpt lat="54.937062" lon="8.684096">
|
|
<ele>-29.617069</ele>
|
|
<time>2026-07-10T11:34:04.000Z</time>
|
|
</trkpt>
|
|
<trkpt lat="54.937124" lon="8.684123">
|
|
<ele>-29.618565</ele>
|
|
<time>2026-07-10T11:34:05.000Z</time>
|
|
</trkpt>
|
|
<trkpt lat="54.937185" lon="8.684152">
|
|
<ele>-29.620045</ele>
|
|
<time>2026-07-10T11:34:06.000Z</time>
|
|
</trkpt>
|
|
<trkpt lat="54.937246" lon="8.684182">
|
|
<ele>-29.621529</ele>
|
|
<time>2026-07-10T11:34:07.000Z</time>
|
|
</trkpt>
|
|
<trkpt lat="54.937306" lon="8.684212">
|
|
<ele>-29.622990</ele>
|
|
<time>2026-07-10T11:34:08.000Z</time>
|
|
</trkpt>
|
|
<trkpt lat="54.937365" lon="8.684241">
|
|
<ele>-29.624425</ele>
|
|
<time>2026-07-10T11:34:09.000Z</time>
|
|
</trkpt>
|
|
<trkpt lat="54.937424" lon="8.684268">
|
|
<ele>-29.625853</ele>
|
|
<time>2026-07-10T11:34:10.000Z</time>
|
|
</trkpt>
|
|
<trkpt lat="54.937485" lon="8.684295">
|
|
<ele>-29.627326</ele>
|
|
<time>2026-07-10T11:34:11.000Z</time>
|
|
</trkpt>
|
|
<trkpt lat="54.937543" lon="8.684323">
|
|
<ele>-29.628734</ele>
|
|
<time>2026-07-10T11:34:12.000Z</time>
|
|
</trkpt>
|
|
<trkpt lat="54.937605" lon="8.684355">
|
|
<ele>-29.630248</ele>
|
|
<time>2026-07-10T11:34:13.000Z</time>
|
|
</trkpt>
|
|
<trkpt lat="54.937665" lon="8.684384">
|
|
<ele>-29.631705</ele>
|
|
<time>2026-07-10T11:34:14.000Z</time>
|
|
</trkpt>
|
|
<trkpt lat="54.937722" lon="8.684407">
|
|
<ele>-29.633075</ele>
|
|
<time>2026-07-10T11:34:15.000Z</time>
|
|
</trkpt>
|
|
<trkpt lat="54.937779" lon="8.684430">
|
|
<ele>-29.634444</ele>
|
|
<time>2026-07-10T11:34:16.000Z</time>
|
|
</trkpt>
|
|
<trkpt lat="54.937836" lon="8.684454">
|
|
<ele>-29.635817</ele>
|
|
<time>2026-07-10T11:34:17.000Z</time>
|
|
</trkpt>
|
|
<trkpt lat="54.937892" lon="8.684481">
|
|
<ele>-29.637177</ele>
|
|
<time>2026-07-10T11:34:18.000Z</time>
|
|
</trkpt>
|
|
<trkpt lat="54.937946" lon="8.684509">
|
|
<ele>-29.638496</ele>
|
|
<time>2026-07-10T11:34:19.000Z</time>
|
|
</trkpt>
|
|
<trkpt lat="54.938008" lon="8.684538">
|
|
<ele>-29.639998</ele>
|
|
<time>2026-07-10T11:34:20.000Z</time>
|
|
</trkpt>
|
|
<trkpt lat="54.938064" lon="8.684564">
|
|
<ele>-29.641355</ele>
|
|
<time>2026-07-10T11:34:21.000Z</time>
|
|
</trkpt>
|
|
<trkpt lat="54.938118" lon="8.684589">
|
|
<ele>-29.642662</ele>
|
|
<time>2026-07-10T11:34:22.000Z</time>
|
|
</trkpt>
|
|
<trkpt lat="54.938174" lon="8.684616">
|
|
<ele>-29.644022</ele>
|
|
<time>2026-07-10T11:34:23.000Z</time>
|
|
</trkpt>
|
|
<trkpt lat="54.938226" lon="8.684641">
|
|
<ele>-29.645285</ele>
|
|
<time>2026-07-10T11:34:24.000Z</time>
|
|
</trkpt>
|
|
<trkpt lat="54.938288" lon="8.684670">
|
|
<ele>-29.650790</ele>
|
|
<time>2026-07-10T11:34:25.000Z</time>
|
|
</trkpt>
|
|
<trkpt lat="54.938347" lon="8.684697">
|
|
<ele>-29.662965</ele>
|
|
<time>2026-07-10T11:34:26.000Z</time>
|
|
</trkpt>
|
|
<trkpt lat="54.938406" lon="8.684725">
|
|
<ele>-29.675169</ele>
|
|
<time>2026-07-10T11:34:27.000Z</time>
|
|
</trkpt>
|
|
<trkpt lat="54.938462" lon="8.684752">
|
|
<ele>-29.686766</ele>
|
|
<time>2026-07-10T11:34:28.000Z</time>
|
|
</trkpt>
|
|
<trkpt lat="54.938518" lon="8.684778">
|
|
<ele>-29.698332</ele>
|
|
<time>2026-07-10T11:34:29.000Z</time>
|
|
</trkpt>
|
|
<trkpt lat="54.938576" lon="8.684802">
|
|
<ele>-29.710230</ele>
|
|
<time>2026-07-10T11:34:30.000Z</time>
|
|
</trkpt>
|
|
<trkpt lat="54.938634" lon="8.684827">
|
|
<ele>-29.722155</ele>
|
|
<time>2026-07-10T11:34:31.000Z</time>
|
|
</trkpt>
|
|
<trkpt lat="54.938691" lon="8.684852">
|
|
<ele>-29.733886</ele>
|
|
<time>2026-07-10T11:34:32.000Z</time>
|
|
</trkpt>
|
|
<trkpt lat="54.938749" lon="8.684879">
|
|
<ele>-29.745867</ele>
|
|
<time>2026-07-10T11:34:33.000Z</time>
|
|
</trkpt>
|
|
<trkpt lat="54.938807" lon="8.684907">
|
|
<ele>-29.757879</ele>
|
|
<time>2026-07-10T11:34:34.000Z</time>
|
|
</trkpt>
|
|
<trkpt lat="54.938862" lon="8.684934">
|
|
<ele>-29.769284</ele>
|
|
<time>2026-07-10T11:34:35.000Z</time>
|
|
</trkpt>
|
|
<trkpt lat="54.938920" lon="8.684960">
|
|
<ele>-29.781237</ele>
|
|
<time>2026-07-10T11:34:36.000Z</time>
|
|
</trkpt>
|
|
<trkpt lat="54.938983" lon="8.684986">
|
|
<ele>-29.794158</ele>
|
|
<time>2026-07-10T11:34:37.000Z</time>
|
|
</trkpt>
|
|
<trkpt lat="54.939043" lon="8.685013">
|
|
<ele>-29.806526</ele>
|
|
<time>2026-07-10T11:34:38.000Z</time>
|
|
</trkpt>
|
|
<trkpt lat="54.939103" lon="8.685042">
|
|
<ele>-29.818953</ele>
|
|
<time>2026-07-10T11:34:39.000Z</time>
|
|
</trkpt>
|
|
<trkpt lat="54.939162" lon="8.685070">
|
|
<ele>-29.831157</ele>
|
|
<time>2026-07-10T11:34:40.000Z</time>
|
|
</trkpt>
|
|
<trkpt lat="54.939223" lon="8.685098">
|
|
<ele>-29.843747</ele>
|
|
<time>2026-07-10T11:34:41.000Z</time>
|
|
</trkpt>
|
|
<trkpt lat="54.939284" lon="8.685127">
|
|
<ele>-29.856367</ele>
|
|
<time>2026-07-10T11:34:42.000Z</time>
|
|
</trkpt>
|
|
<trkpt lat="54.939345" lon="8.685152">
|
|
<ele>-29.868874</ele>
|
|
<time>2026-07-10T11:34:43.000Z</time>
|
|
</trkpt>
|
|
<trkpt lat="54.939405" lon="8.685178">
|
|
<ele>-29.881213</ele>
|
|
<time>2026-07-10T11:34:44.000Z</time>
|
|
</trkpt>
|
|
<trkpt lat="54.939461" lon="8.685204">
|
|
<ele>-29.892780</ele>
|
|
<time>2026-07-10T11:34:45.000Z</time>
|
|
</trkpt>
|
|
<trkpt lat="54.939517" lon="8.685230">
|
|
<ele>-29.904347</ele>
|
|
<time>2026-07-10T11:34:46.000Z</time>
|
|
</trkpt>
|
|
<trkpt lat="54.939582" lon="8.685262">
|
|
<ele>-29.917827</ele>
|
|
<time>2026-07-10T11:34:47.000Z</time>
|
|
</trkpt>
|
|
<trkpt lat="54.939641" lon="8.685289">
|
|
<ele>-29.930002</ele>
|
|
<time>2026-07-10T11:34:48.000Z</time>
|
|
</trkpt>
|
|
<trkpt lat="54.939698" lon="8.685315">
|
|
<ele>-29.941762</ele>
|
|
<time>2026-07-10T11:34:49.000Z</time>
|
|
</trkpt>
|
|
<trkpt lat="54.939761" lon="8.685343">
|
|
<ele>-29.954738</ele>
|
|
<time>2026-07-10T11:34:50.000Z</time>
|
|
</trkpt>
|
|
<trkpt lat="54.939821" lon="8.685370">
|
|
<ele>-29.967106</ele>
|
|
<time>2026-07-10T11:34:51.000Z</time>
|
|
</trkpt>
|
|
<trkpt lat="54.939879" lon="8.685398">
|
|
<ele>-29.979118</ele>
|
|
<time>2026-07-10T11:34:52.000Z</time>
|
|
</trkpt>
|
|
<trkpt lat="54.939940" lon="8.685424">
|
|
<ele>-29.991651</ele>
|
|
<time>2026-07-10T11:34:53.000Z</time>
|
|
</trkpt>
|
|
<trkpt lat="54.939999" lon="8.685450">
|
|
<ele>-30.003797</ele>
|
|
<time>2026-07-10T11:34:54.000Z</time>
|
|
</trkpt>
|
|
<trkpt lat="54.940057" lon="8.685475">
|
|
<ele>-30.007890</ele>
|
|
<time>2026-07-10T11:34:55.000Z</time>
|
|
</trkpt>
|
|
<trkpt lat="54.940114" lon="8.685500">
|
|
<ele>-30.010879</ele>
|
|
<time>2026-07-10T11:34:56.000Z</time>
|
|
</trkpt>
|
|
<trkpt lat="54.940172" lon="8.685528">
|
|
<ele>-30.013939</ele>
|
|
<time>2026-07-10T11:34:57.000Z</time>
|
|
</trkpt>
|
|
<trkpt lat="54.940231" lon="8.685556">
|
|
<ele>-30.017049</ele>
|
|
<time>2026-07-10T11:34:58.000Z</time>
|
|
</trkpt>
|
|
<trkpt lat="54.940288" lon="8.685585">
|
|
<ele>-30.020069</ele>
|
|
<time>2026-07-10T11:34:59.000Z</time>
|
|
</trkpt>
|
|
<trkpt lat="54.940347" lon="8.685611">
|
|
<ele>-30.023163</ele>
|
|
<time>2026-07-10T11:35:00.000Z</time>
|
|
</trkpt>
|
|
<trkpt lat="54.940405" lon="8.685642">
|
|
<ele>-30.026248</ele>
|
|
<time>2026-07-10T11:35:01.000Z</time>
|
|
</trkpt>
|
|
<trkpt lat="54.940461" lon="8.685673">
|
|
<ele>-30.029236</ele>
|
|
<time>2026-07-10T11:35:02.000Z</time>
|
|
</trkpt>
|
|
<trkpt lat="54.940519" lon="8.685701">
|
|
<ele>-30.032297</ele>
|
|
<time>2026-07-10T11:35:03.000Z</time>
|
|
</trkpt>
|
|
<trkpt lat="54.940580" lon="8.685728">
|
|
<ele>-30.035497</ele>
|
|
<time>2026-07-10T11:35:04.000Z</time>
|
|
</trkpt>
|
|
<trkpt lat="54.940637" lon="8.685753">
|
|
<ele>-30.038486</ele>
|
|
<time>2026-07-10T11:35:05.000Z</time>
|
|
</trkpt>
|
|
<trkpt lat="54.940692" lon="8.685780">
|
|
<ele>-30.041392</ele>
|
|
<time>2026-07-10T11:35:06.000Z</time>
|
|
</trkpt>
|
|
<trkpt lat="54.940750" lon="8.685806">
|
|
<ele>-30.044437</ele>
|
|
<time>2026-07-10T11:35:07.000Z</time>
|
|
</trkpt>
|
|
<trkpt lat="54.940812" lon="8.685833">
|
|
<ele>-30.047687</ele>
|
|
<time>2026-07-10T11:35:08.000Z</time>
|
|
</trkpt>
|
|
<trkpt lat="54.940866" lon="8.685857">
|
|
<ele>-30.050521</ele>
|
|
<time>2026-07-10T11:35:09.000Z</time>
|
|
</trkpt>
|
|
<trkpt lat="54.940919" lon="8.685879">
|
|
<ele>-30.053291</ele>
|
|
<time>2026-07-10T11:35:10.000Z</time>
|
|
</trkpt>
|
|
<trkpt lat="54.940992" lon="8.685911">
|
|
<ele>-30.057119</ele>
|
|
<time>2026-07-10T11:35:11.000Z</time>
|
|
</trkpt>
|
|
<trkpt lat="54.941048" lon="8.685940">
|
|
<ele>-30.060090</ele>
|
|
<time>2026-07-10T11:35:12.000Z</time>
|
|
</trkpt>
|
|
<trkpt lat="54.941101" lon="8.685969">
|
|
<ele>-30.062915</ele>
|
|
<time>2026-07-10T11:35:13.000Z</time>
|
|
</trkpt>
|
|
<trkpt lat="54.941158" lon="8.685997">
|
|
<ele>-30.065927</ele>
|
|
<time>2026-07-10T11:35:14.000Z</time>
|
|
</trkpt>
|
|
<trkpt lat="54.941210" lon="8.686021">
|
|
<ele>-30.068662</ele>
|
|
<time>2026-07-10T11:35:15.000Z</time>
|
|
</trkpt>
|
|
<trkpt lat="54.941266" lon="8.686044">
|
|
<ele>-30.071588</ele>
|
|
<time>2026-07-10T11:35:16.000Z</time>
|
|
</trkpt>
|
|
<trkpt lat="54.941322" lon="8.686067">
|
|
<ele>-30.074513</ele>
|
|
<time>2026-07-10T11:35:17.000Z</time>
|
|
</trkpt>
|
|
<trkpt lat="54.941378" lon="8.686091">
|
|
<ele>-30.077446</ele>
|
|
<time>2026-07-10T11:35:18.000Z</time>
|
|
</trkpt>
|
|
<trkpt lat="54.941437" lon="8.686118">
|
|
<ele>-30.080548</ele>
|
|
<time>2026-07-10T11:35:19.000Z</time>
|
|
</trkpt>
|
|
<trkpt lat="54.941491" lon="8.686146">
|
|
<ele>-30.083413</ele>
|
|
<time>2026-07-10T11:35:20.000Z</time>
|
|
</trkpt>
|
|
<trkpt lat="54.941548" lon="8.686174">
|
|
<ele>-30.086424</ele>
|
|
<time>2026-07-10T11:35:21.000Z</time>
|
|
</trkpt>
|
|
<trkpt lat="54.941609" lon="8.686201">
|
|
<ele>-30.089625</ele>
|
|
<time>2026-07-10T11:35:22.000Z</time>
|
|
</trkpt>
|
|
<trkpt lat="54.941666" lon="8.686226">
|
|
<ele>-30.092614</ele>
|
|
<time>2026-07-10T11:35:23.000Z</time>
|
|
</trkpt>
|
|
<trkpt lat="54.941724" lon="8.686253">
|
|
<ele>-30.095667</ele>
|
|
<time>2026-07-10T11:35:24.000Z</time>
|
|
</trkpt>
|
|
<trkpt lat="54.941781" lon="8.686281">
|
|
<ele>-30.097457</ele>
|
|
<time>2026-07-10T11:35:25.000Z</time>
|
|
</trkpt>
|
|
<trkpt lat="54.941843" lon="8.686307">
|
|
<ele>-30.098728</ele>
|
|
<time>2026-07-10T11:35:26.000Z</time>
|
|
</trkpt>
|
|
<trkpt lat="54.941902" lon="8.686333">
|
|
<ele>-30.099942</ele>
|
|
<time>2026-07-10T11:35:27.000Z</time>
|
|
</trkpt>
|
|
<trkpt lat="54.941960" lon="8.686360">
|
|
<ele>-30.101138</ele>
|
|
<time>2026-07-10T11:35:28.000Z</time>
|
|
</trkpt>
|
|
<trkpt lat="54.942020" lon="8.686387">
|
|
<ele>-30.102373</ele>
|
|
<time>2026-07-10T11:35:29.000Z</time>
|
|
</trkpt>
|
|
<trkpt lat="54.942078" lon="8.686415">
|
|
<ele>-30.103573</ele>
|
|
<time>2026-07-10T11:35:30.000Z</time>
|
|
</trkpt>
|
|
<trkpt lat="54.942136" lon="8.686443">
|
|
<ele>-30.104773</ele>
|
|
<time>2026-07-10T11:35:31.000Z</time>
|
|
</trkpt>
|
|
<trkpt lat="54.942193" lon="8.686472">
|
|
<ele>-30.105957</ele>
|
|
<time>2026-07-10T11:35:32.000Z</time>
|
|
</trkpt>
|
|
<trkpt lat="54.942251" lon="8.686500">
|
|
<ele>-30.107156</ele>
|
|
<time>2026-07-10T11:35:33.000Z</time>
|
|
</trkpt>
|
|
<trkpt lat="54.942312" lon="8.686524">
|
|
<ele>-30.108403</ele>
|
|
<time>2026-07-10T11:35:34.000Z</time>
|
|
</trkpt>
|
|
<trkpt lat="54.942370" lon="8.686549">
|
|
<ele>-30.109594</ele>
|
|
<time>2026-07-10T11:35:35.000Z</time>
|
|
</trkpt>
|
|
<trkpt lat="54.942428" lon="8.686575">
|
|
<ele>-30.110788</ele>
|
|
<time>2026-07-10T11:35:36.000Z</time>
|
|
</trkpt>
|
|
<trkpt lat="54.942485" lon="8.686602">
|
|
<ele>-30.111965</ele>
|
|
<time>2026-07-10T11:35:37.000Z</time>
|
|
</trkpt>
|
|
<trkpt lat="54.942548" lon="8.686633">
|
|
<ele>-30.113270</ele>
|
|
<time>2026-07-10T11:35:38.000Z</time>
|
|
</trkpt>
|
|
<trkpt lat="54.942605" lon="8.686661">
|
|
<ele>-30.114450</ele>
|
|
<time>2026-07-10T11:35:39.000Z</time>
|
|
</trkpt>
|
|
<trkpt lat="54.942662" lon="8.686688">
|
|
<ele>-30.115628</ele>
|
|
<time>2026-07-10T11:35:40.000Z</time>
|
|
</trkpt>
|
|
<trkpt lat="54.942719" lon="8.686715">
|
|
<ele>-30.116805</ele>
|
|
<time>2026-07-10T11:35:41.000Z</time>
|
|
</trkpt>
|
|
<trkpt lat="54.942777" lon="8.686741">
|
|
<ele>-30.117999</ele>
|
|
<time>2026-07-10T11:35:42.000Z</time>
|
|
</trkpt>
|
|
<trkpt lat="54.942834" lon="8.686767">
|
|
<ele>-30.119173</ele>
|
|
<time>2026-07-10T11:35:43.000Z</time>
|
|
</trkpt>
|
|
<trkpt lat="54.942890" lon="8.686791">
|
|
<ele>-30.120323</ele>
|
|
<time>2026-07-10T11:35:44.000Z</time>
|
|
</trkpt>
|
|
<trkpt lat="54.942953" lon="8.686820">
|
|
<ele>-30.121622</ele>
|
|
<time>2026-07-10T11:35:45.000Z</time>
|
|
</trkpt>
|
|
<trkpt lat="54.943011" lon="8.686852">
|
|
<ele>-30.122835</ele>
|
|
<time>2026-07-10T11:35:46.000Z</time>
|
|
</trkpt>
|
|
<trkpt lat="54.943070" lon="8.686883">
|
|
<ele>-30.124063</ele>
|
|
<time>2026-07-10T11:35:47.000Z</time>
|
|
</trkpt>
|
|
<trkpt lat="54.943129" lon="8.686910">
|
|
<ele>-30.125279</ele>
|
|
<time>2026-07-10T11:35:48.000Z</time>
|
|
</trkpt>
|
|
<trkpt lat="54.943191" lon="8.686937">
|
|
<ele>-30.126553</ele>
|
|
<time>2026-07-10T11:35:49.000Z</time>
|
|
</trkpt>
|
|
<trkpt lat="54.943250" lon="8.686963">
|
|
<ele>-30.127766</ele>
|
|
<time>2026-07-10T11:35:50.000Z</time>
|
|
</trkpt>
|
|
<trkpt lat="54.943307" lon="8.686988">
|
|
<ele>-30.128938</ele>
|
|
<time>2026-07-10T11:35:51.000Z</time>
|
|
</trkpt>
|
|
<trkpt lat="54.943364" lon="8.687016">
|
|
<ele>-30.130118</ele>
|
|
<time>2026-07-10T11:35:52.000Z</time>
|
|
</trkpt>
|
|
<trkpt lat="54.943420" lon="8.687043">
|
|
<ele>-30.131276</ele>
|
|
<time>2026-07-10T11:35:53.000Z</time>
|
|
</trkpt>
|
|
<trkpt lat="54.943483" lon="8.687071">
|
|
<ele>-30.132388</ele>
|
|
<time>2026-07-10T11:35:54.000Z</time>
|
|
</trkpt>
|
|
<trkpt lat="54.943539" lon="8.687095">
|
|
<ele>-30.129379</ele>
|
|
<time>2026-07-10T11:35:55.000Z</time>
|
|
</trkpt>
|
|
<trkpt lat="54.943596" lon="8.687123">
|
|
<ele>-30.126289</ele>
|
|
<time>2026-07-10T11:35:56.000Z</time>
|
|
</trkpt>
|
|
<trkpt lat="54.943654" lon="8.687153">
|
|
<ele>-30.123133</ele>
|
|
<time>2026-07-10T11:35:57.000Z</time>
|
|
</trkpt>
|
|
<trkpt lat="54.943711" lon="8.687181">
|
|
<ele>-30.120043</ele>
|
|
<time>2026-07-10T11:35:58.000Z</time>
|
|
</trkpt>
|
|
<trkpt lat="54.943770" lon="8.687209">
|
|
<ele>-30.116853</ele>
|
|
<time>2026-07-10T11:35:59.000Z</time>
|
|
</trkpt>
|
|
<trkpt lat="54.943830" lon="8.687235">
|
|
<ele>-30.113628</ele>
|
|
<time>2026-07-10T11:36:00.000Z</time>
|
|
</trkpt>
|
|
<trkpt lat="54.943888" lon="8.687262">
|
|
<ele>-30.110496</ele>
|
|
<time>2026-07-10T11:36:01.000Z</time>
|
|
</trkpt>
|
|
<trkpt lat="54.943948" lon="8.687288">
|
|
<ele>-30.107270</ele>
|
|
<time>2026-07-10T11:36:02.000Z</time>
|
|
</trkpt>
|
|
<trkpt lat="54.944005" lon="8.687317">
|
|
<ele>-30.104172</ele>
|
|
<time>2026-07-10T11:36:03.000Z</time>
|
|
</trkpt>
|
|
<trkpt lat="54.944064" lon="8.687347">
|
|
<ele>-30.100966</ele>
|
|
<time>2026-07-10T11:36:04.000Z</time>
|
|
</trkpt>
|
|
<trkpt lat="54.944123" lon="8.687376">
|
|
<ele>-30.097768</ele>
|
|
<time>2026-07-10T11:36:05.000Z</time>
|
|
</trkpt>
|
|
<trkpt lat="54.944180" lon="8.687403">
|
|
<ele>-30.094686</ele>
|
|
<time>2026-07-10T11:36:06.000Z</time>
|
|
</trkpt>
|
|
<trkpt lat="54.944236" lon="8.687428">
|
|
<ele>-30.091670</ele>
|
|
<time>2026-07-10T11:36:07.000Z</time>
|
|
</trkpt>
|
|
<trkpt lat="54.944290" lon="8.687451">
|
|
<ele>-30.088770</ele>
|
|
<time>2026-07-10T11:36:08.000Z</time>
|
|
</trkpt>
|
|
<trkpt lat="54.944349" lon="8.687478">
|
|
<ele>-30.085588</ele>
|
|
<time>2026-07-10T11:36:09.000Z</time>
|
|
</trkpt>
|
|
<trkpt lat="54.944406" lon="8.687503">
|
|
<ele>-30.082521</ele>
|
|
<time>2026-07-10T11:36:10.000Z</time>
|
|
</trkpt>
|
|
<trkpt lat="54.944462" lon="8.687530">
|
|
<ele>-30.079490</ele>
|
|
<time>2026-07-10T11:36:11.000Z</time>
|
|
</trkpt>
|
|
<trkpt lat="54.944520" lon="8.687560">
|
|
<ele>-30.076334</ele>
|
|
<time>2026-07-10T11:36:12.000Z</time>
|
|
</trkpt>
|
|
<trkpt lat="54.944578" lon="8.687590">
|
|
<ele>-30.073177</ele>
|
|
<time>2026-07-10T11:36:13.000Z</time>
|
|
</trkpt>
|
|
<trkpt lat="54.944634" lon="8.687616">
|
|
<ele>-30.070154</ele>
|
|
<time>2026-07-10T11:36:14.000Z</time>
|
|
</trkpt>
|
|
<trkpt lat="54.944690" lon="8.687642">
|
|
<ele>-30.067130</ele>
|
|
<time>2026-07-10T11:36:15.000Z</time>
|
|
</trkpt>
|
|
<trkpt lat="54.944745" lon="8.687668">
|
|
<ele>-30.064157</ele>
|
|
<time>2026-07-10T11:36:16.000Z</time>
|
|
</trkpt>
|
|
<trkpt lat="54.944803" lon="8.687694">
|
|
<ele>-30.061033</ele>
|
|
<time>2026-07-10T11:36:17.000Z</time>
|
|
</trkpt>
|
|
<trkpt lat="54.944858" lon="8.687716">
|
|
<ele>-30.058089</ele>
|
|
<time>2026-07-10T11:36:18.000Z</time>
|
|
</trkpt>
|
|
<trkpt lat="54.944912" lon="8.687741">
|
|
<ele>-30.055174</ele>
|
|
<time>2026-07-10T11:36:19.000Z</time>
|
|
</trkpt>
|
|
<trkpt lat="54.944966" lon="8.687765">
|
|
<ele>-30.052267</ele>
|
|
<time>2026-07-10T11:36:20.000Z</time>
|
|
</trkpt>
|
|
<trkpt lat="54.945023" lon="8.687788">
|
|
<ele>-30.049214</ele>
|
|
<time>2026-07-10T11:36:21.000Z</time>
|
|
</trkpt>
|
|
<trkpt lat="54.945079" lon="8.687814">
|
|
<ele>-30.046191</ele>
|
|
<time>2026-07-10T11:36:22.000Z</time>
|
|
</trkpt>
|
|
<trkpt lat="54.945134" lon="8.687839">
|
|
<ele>-30.043226</ele>
|
|
<time>2026-07-10T11:36:23.000Z</time>
|
|
</trkpt>
|
|
<trkpt lat="54.945189" lon="8.687863">
|
|
<ele>-30.040268</ele>
|
|
<time>2026-07-10T11:36:24.000Z</time>
|
|
</trkpt>
|
|
<trkpt lat="54.945239" lon="8.687884">
|
|
<ele>-30.039645</ele>
|
|
<time>2026-07-10T11:36:25.000Z</time>
|
|
</trkpt>
|
|
<trkpt lat="54.945301" lon="8.687914">
|
|
<ele>-30.042538</ele>
|
|
<time>2026-07-10T11:36:26.000Z</time>
|
|
</trkpt>
|
|
<trkpt lat="54.945358" lon="8.687940">
|
|
<ele>-30.045187</ele>
|
|
<time>2026-07-10T11:36:27.000Z</time>
|
|
</trkpt>
|
|
<trkpt lat="54.945415" lon="8.687966">
|
|
<ele>-30.047835</ele>
|
|
<time>2026-07-10T11:36:28.000Z</time>
|
|
</trkpt>
|
|
<trkpt lat="54.945466" lon="8.687991">
|
|
<ele>-30.050217</ele>
|
|
<time>2026-07-10T11:36:29.000Z</time>
|
|
</trkpt>
|
|
<trkpt lat="54.945508" lon="8.688013">
|
|
<ele>-30.052189</ele>
|
|
<time>2026-07-10T11:36:30.000Z</time>
|
|
</trkpt>
|
|
<trkpt lat="54.945570" lon="8.688043">
|
|
<ele>-30.055082</ele>
|
|
<time>2026-07-10T11:36:31.000Z</time>
|
|
</trkpt>
|
|
<trkpt lat="54.945623" lon="8.688066">
|
|
<ele>-30.057537</ele>
|
|
<time>2026-07-10T11:36:32.000Z</time>
|
|
</trkpt>
|
|
<trkpt lat="54.945678" lon="8.688090">
|
|
<ele>-30.060086</ele>
|
|
<time>2026-07-10T11:36:33.000Z</time>
|
|
</trkpt>
|
|
<trkpt lat="54.945735" lon="8.688114">
|
|
<ele>-30.062722</ele>
|
|
<time>2026-07-10T11:36:34.000Z</time>
|
|
</trkpt>
|
|
<trkpt lat="54.945784" lon="8.688137">
|
|
<ele>-30.065003</ele>
|
|
<time>2026-07-10T11:36:35.000Z</time>
|
|
</trkpt>
|
|
<trkpt lat="54.945845" lon="8.688164">
|
|
<ele>-30.067833</ele>
|
|
<time>2026-07-10T11:36:36.000Z</time>
|
|
</trkpt>
|
|
<trkpt lat="54.945901" lon="8.688189">
|
|
<ele>-30.070432</ele>
|
|
<time>2026-07-10T11:36:37.000Z</time>
|
|
</trkpt>
|
|
<trkpt lat="54.945959" lon="8.688213">
|
|
<ele>-30.073111</ele>
|
|
<time>2026-07-10T11:36:38.000Z</time>
|
|
</trkpt>
|
|
<trkpt lat="54.946016" lon="8.688237">
|
|
<ele>-30.075748</ele>
|
|
<time>2026-07-10T11:36:39.000Z</time>
|
|
</trkpt>
|
|
<trkpt lat="54.946074" lon="8.688263">
|
|
<ele>-30.078440</ele>
|
|
<time>2026-07-10T11:36:40.000Z</time>
|
|
</trkpt>
|
|
<trkpt lat="54.946131" lon="8.688290">
|
|
<ele>-30.081095</ele>
|
|
<time>2026-07-10T11:36:41.000Z</time>
|
|
</trkpt>
|
|
<trkpt lat="54.946188" lon="8.688318">
|
|
<ele>-30.083758</ele>
|
|
<time>2026-07-10T11:36:42.000Z</time>
|
|
</trkpt>
|
|
<trkpt lat="54.946245" lon="8.688344">
|
|
<ele>-30.086407</ele>
|
|
<time>2026-07-10T11:36:43.000Z</time>
|
|
</trkpt>
|
|
<trkpt lat="54.946302" lon="8.688371">
|
|
<ele>-30.089062</ele>
|
|
<time>2026-07-10T11:36:44.000Z</time>
|
|
</trkpt>
|
|
<trkpt lat="54.946359" lon="8.688398">
|
|
<ele>-30.091718</ele>
|
|
<time>2026-07-10T11:36:45.000Z</time>
|
|
</trkpt>
|
|
<trkpt lat="54.946416" lon="8.688424">
|
|
<ele>-30.094366</ele>
|
|
<time>2026-07-10T11:36:46.000Z</time>
|
|
</trkpt>
|
|
<trkpt lat="54.946473" lon="8.688448">
|
|
<ele>-30.097003</ele>
|
|
<time>2026-07-10T11:36:47.000Z</time>
|
|
</trkpt>
|
|
<trkpt lat="54.946534" lon="8.688475">
|
|
<ele>-30.099832</ele>
|
|
<time>2026-07-10T11:36:48.000Z</time>
|
|
</trkpt>
|
|
<trkpt lat="54.946592" lon="8.688499">
|
|
<ele>-30.102512</ele>
|
|
<time>2026-07-10T11:36:49.000Z</time>
|
|
</trkpt>
|
|
<trkpt lat="54.946649" lon="8.688525">
|
|
<ele>-30.105161</ele>
|
|
<time>2026-07-10T11:36:50.000Z</time>
|
|
</trkpt>
|
|
<trkpt lat="54.946706" lon="8.688552">
|
|
<ele>-30.107816</ele>
|
|
<time>2026-07-10T11:36:51.000Z</time>
|
|
</trkpt>
|
|
<trkpt lat="54.946763" lon="8.688581">
|
|
<ele>-30.110486</ele>
|
|
<time>2026-07-10T11:36:52.000Z</time>
|
|
</trkpt>
|
|
<trkpt lat="54.946817" lon="8.688609">
|
|
<ele>-30.113018</ele>
|
|
<time>2026-07-10T11:36:53.000Z</time>
|
|
</trkpt>
|
|
<trkpt lat="54.946874" lon="8.688636">
|
|
<ele>-30.115674</ele>
|
|
<time>2026-07-10T11:36:54.000Z</time>
|
|
</trkpt>
|
|
<trkpt lat="54.946928" lon="8.688661">
|
|
<ele>-30.118186</ele>
|
|
<time>2026-07-10T11:36:55.000Z</time>
|
|
</trkpt>
|
|
<trkpt lat="54.946973" lon="8.688680">
|
|
<ele>-30.121069</ele>
|
|
<time>2026-07-10T11:36:56.000Z</time>
|
|
</trkpt>
|
|
<trkpt lat="54.947040" lon="8.688716">
|
|
<ele>-30.127727</ele>
|
|
<time>2026-07-10T11:36:57.000Z</time>
|
|
</trkpt>
|
|
<trkpt lat="54.947098" lon="8.688745">
|
|
<ele>-30.133456</ele>
|
|
<time>2026-07-10T11:36:58.000Z</time>
|
|
</trkpt>
|
|
<trkpt lat="54.947157" lon="8.688772">
|
|
<ele>-30.139248</ele>
|
|
<time>2026-07-10T11:36:59.000Z</time>
|
|
</trkpt>
|
|
<trkpt lat="54.947213" lon="8.688798">
|
|
<ele>-30.144751</ele>
|
|
<time>2026-07-10T11:37:00.000Z</time>
|
|
</trkpt>
|
|
<trkpt lat="54.947270" lon="8.688822">
|
|
<ele>-30.150319</ele>
|
|
<time>2026-07-10T11:37:01.000Z</time>
|
|
</trkpt>
|
|
<trkpt lat="54.947328" lon="8.688848">
|
|
<ele>-30.156005</ele>
|
|
<time>2026-07-10T11:37:02.000Z</time>
|
|
</trkpt>
|
|
<trkpt lat="54.947385" lon="8.688875">
|
|
<ele>-30.161614</ele>
|
|
<time>2026-07-10T11:37:03.000Z</time>
|
|
</trkpt>
|
|
<trkpt lat="54.947442" lon="8.688904">
|
|
<ele>-30.167252</ele>
|
|
<time>2026-07-10T11:37:04.000Z</time>
|
|
</trkpt>
|
|
<trkpt lat="54.947499" lon="8.688927">
|
|
<ele>-30.172808</ele>
|
|
<time>2026-07-10T11:37:05.000Z</time>
|
|
</trkpt>
|
|
<trkpt lat="54.947555" lon="8.688949">
|
|
<ele>-30.178258</ele>
|
|
<time>2026-07-10T11:37:06.000Z</time>
|
|
</trkpt>
|
|
<trkpt lat="54.947609" lon="8.688972">
|
|
<ele>-30.183537</ele>
|
|
<time>2026-07-10T11:37:07.000Z</time>
|
|
</trkpt>
|
|
<trkpt lat="54.947668" lon="8.688997">
|
|
<ele>-30.189302</ele>
|
|
<time>2026-07-10T11:37:08.000Z</time>
|
|
</trkpt>
|
|
<trkpt lat="54.947725" lon="8.689023">
|
|
<ele>-30.194896</ele>
|
|
<time>2026-07-10T11:37:09.000Z</time>
|
|
</trkpt>
|
|
<trkpt lat="54.947782" lon="8.689050">
|
|
<ele>-30.200505</ele>
|
|
<time>2026-07-10T11:37:10.000Z</time>
|
|
</trkpt>
|
|
<trkpt lat="54.947839" lon="8.689079">
|
|
<ele>-30.206143</ele>
|
|
<time>2026-07-10T11:37:11.000Z</time>
|
|
</trkpt>
|
|
<trkpt lat="54.947896" lon="8.689108">
|
|
<ele>-30.211782</ele>
|
|
<time>2026-07-10T11:37:12.000Z</time>
|
|
</trkpt>
|
|
<trkpt lat="54.947954" lon="8.689136">
|
|
<ele>-30.217496</ele>
|
|
<time>2026-07-10T11:37:13.000Z</time>
|
|
</trkpt>
|
|
<trkpt lat="54.948014" lon="8.689164">
|
|
<ele>-30.223394</ele>
|
|
<time>2026-07-10T11:37:14.000Z</time>
|
|
</trkpt>
|
|
<trkpt lat="54.948073" lon="8.689193">
|
|
<ele>-30.229215</ele>
|
|
<time>2026-07-10T11:37:15.000Z</time>
|
|
</trkpt>
|
|
<trkpt lat="54.948133" lon="8.689222">
|
|
<ele>-30.235127</ele>
|
|
<time>2026-07-10T11:37:16.000Z</time>
|
|
</trkpt>
|
|
<trkpt lat="54.948190" lon="8.689251">
|
|
<ele>-30.240765</ele>
|
|
<time>2026-07-10T11:37:17.000Z</time>
|
|
</trkpt>
|
|
<trkpt lat="54.948248" lon="8.689277">
|
|
<ele>-30.246452</ele>
|
|
<time>2026-07-10T11:37:18.000Z</time>
|
|
</trkpt>
|
|
<trkpt lat="54.948306" lon="8.689303">
|
|
<ele>-30.252138</ele>
|
|
<time>2026-07-10T11:37:19.000Z</time>
|
|
</trkpt>
|
|
<trkpt lat="54.948366" lon="8.689329">
|
|
<ele>-30.258009</ele>
|
|
<time>2026-07-10T11:37:20.000Z</time>
|
|
</trkpt>
|
|
<trkpt lat="54.948429" lon="8.689357">
|
|
<ele>-30.264182</ele>
|
|
<time>2026-07-10T11:37:21.000Z</time>
|
|
</trkpt>
|
|
<trkpt lat="54.948494" lon="8.689385">
|
|
<ele>-30.270540</ele>
|
|
<time>2026-07-10T11:37:22.000Z</time>
|
|
</trkpt>
|
|
<trkpt lat="54.948556" lon="8.689415">
|
|
<ele>-30.276650</ele>
|
|
<time>2026-07-10T11:37:23.000Z</time>
|
|
</trkpt>
|
|
<trkpt lat="54.948615" lon="8.689446">
|
|
<ele>-30.282501</ele>
|
|
<time>2026-07-10T11:37:24.000Z</time>
|
|
</trkpt>
|
|
<trkpt lat="54.948679" lon="8.689477">
|
|
<ele>-30.288808</ele>
|
|
<time>2026-07-10T11:37:25.000Z</time>
|
|
</trkpt>
|
|
<trkpt lat="54.948740" lon="8.689506">
|
|
<ele>-30.285448</ele>
|
|
<time>2026-07-10T11:37:26.000Z</time>
|
|
</trkpt>
|
|
<trkpt lat="54.948800" lon="8.689537">
|
|
<ele>-30.279000</ele>
|
|
<time>2026-07-10T11:37:27.000Z</time>
|
|
</trkpt>
|
|
<trkpt lat="54.948868" lon="8.689571">
|
|
<ele>-30.271712</ele>
|
|
<time>2026-07-10T11:37:28.000Z</time>
|
|
</trkpt>
|
|
<trkpt lat="54.948933" lon="8.689601">
|
|
<ele>-30.264784</ele>
|
|
<time>2026-07-10T11:37:29.000Z</time>
|
|
</trkpt>
|
|
<trkpt lat="54.948997" lon="8.689629">
|
|
<ele>-30.257985</ele>
|
|
<time>2026-07-10T11:37:30.000Z</time>
|
|
</trkpt>
|
|
<trkpt lat="54.949057" lon="8.689659">
|
|
<ele>-30.251554</ele>
|
|
<time>2026-07-10T11:37:31.000Z</time>
|
|
</trkpt>
|
|
<trkpt lat="54.949116" lon="8.689689">
|
|
<ele>-30.245222</ele>
|
|
<time>2026-07-10T11:37:32.000Z</time>
|
|
</trkpt>
|
|
<trkpt lat="54.949179" lon="8.689719">
|
|
<ele>-30.238493</ele>
|
|
<time>2026-07-10T11:37:33.000Z</time>
|
|
</trkpt>
|
|
<trkpt lat="54.949235" lon="8.689747">
|
|
<ele>-30.232491</ele>
|
|
<time>2026-07-10T11:37:34.000Z</time>
|
|
</trkpt>
|
|
<trkpt lat="54.949291" lon="8.689770">
|
|
<ele>-30.226563</ele>
|
|
<time>2026-07-10T11:37:35.000Z</time>
|
|
</trkpt>
|
|
<trkpt lat="54.949354" lon="8.689798">
|
|
<ele>-30.219865</ele>
|
|
<time>2026-07-10T11:37:36.000Z</time>
|
|
</trkpt>
|
|
<trkpt lat="54.949414" lon="8.689826">
|
|
<ele>-30.213465</ele>
|
|
<time>2026-07-10T11:37:37.000Z</time>
|
|
</trkpt>
|
|
<trkpt lat="54.949472" lon="8.689853">
|
|
<ele>-30.207280</ele>
|
|
<time>2026-07-10T11:37:38.000Z</time>
|
|
</trkpt>
|
|
<trkpt lat="54.949530" lon="8.689879">
|
|
<ele>-30.201110</ele>
|
|
<time>2026-07-10T11:37:39.000Z</time>
|
|
</trkpt>
|
|
<trkpt lat="54.949590" lon="8.689907">
|
|
<ele>-30.194711</ele>
|
|
<time>2026-07-10T11:37:40.000Z</time>
|
|
</trkpt>
|
|
<trkpt lat="54.949648" lon="8.689935">
|
|
<ele>-30.188510</ele>
|
|
<time>2026-07-10T11:37:41.000Z</time>
|
|
</trkpt>
|
|
<trkpt lat="54.949708" lon="8.689960">
|
|
<ele>-30.182154</ele>
|
|
<time>2026-07-10T11:37:42.000Z</time>
|
|
</trkpt>
|
|
<trkpt lat="54.949766" lon="8.689984">
|
|
<ele>-30.176012</ele>
|
|
<time>2026-07-10T11:37:43.000Z</time>
|
|
</trkpt>
|
|
<trkpt lat="54.949826" lon="8.690009">
|
|
<ele>-30.169657</ele>
|
|
<time>2026-07-10T11:37:44.000Z</time>
|
|
</trkpt>
|
|
<trkpt lat="54.949881" lon="8.690035">
|
|
<ele>-30.163785</ele>
|
|
<time>2026-07-10T11:37:45.000Z</time>
|
|
</trkpt>
|
|
<trkpt lat="54.949941" lon="8.690061">
|
|
<ele>-30.157415</ele>
|
|
<time>2026-07-10T11:37:46.000Z</time>
|
|
</trkpt>
|
|
<trkpt lat="54.949998" lon="8.690086">
|
|
<ele>-30.151360</ele>
|
|
<time>2026-07-10T11:37:47.000Z</time>
|
|
</trkpt>
|
|
<trkpt lat="54.950057" lon="8.690112">
|
|
<ele>-30.145090</ele>
|
|
<time>2026-07-10T11:37:48.000Z</time>
|
|
</trkpt>
|
|
<trkpt lat="54.950117" lon="8.690140">
|
|
<ele>-30.138690</ele>
|
|
<time>2026-07-10T11:37:49.000Z</time>
|
|
</trkpt>
|
|
<trkpt lat="54.950177" lon="8.690168">
|
|
<ele>-30.132291</ele>
|
|
<time>2026-07-10T11:37:50.000Z</time>
|
|
</trkpt>
|
|
<trkpt lat="54.950235" lon="8.690197">
|
|
<ele>-30.126074</ele>
|
|
<time>2026-07-10T11:37:51.000Z</time>
|
|
</trkpt>
|
|
<trkpt lat="54.950296" lon="8.690229">
|
|
<ele>-30.119511</ele>
|
|
<time>2026-07-10T11:37:52.000Z</time>
|
|
</trkpt>
|
|
<trkpt lat="54.950355" lon="8.690258">
|
|
<ele>-30.113195</ele>
|
|
<time>2026-07-10T11:37:53.000Z</time>
|
|
</trkpt>
|
|
<trkpt lat="54.950416" lon="8.690284">
|
|
<ele>-30.106725</ele>
|
|
<time>2026-07-10T11:37:54.000Z</time>
|
|
</trkpt>
|
|
<trkpt lat="54.950476" lon="8.690313">
|
|
<ele>-30.106031</ele>
|
|
<time>2026-07-10T11:37:55.000Z</time>
|
|
</trkpt>
|
|
<trkpt lat="54.950534" lon="8.690344">
|
|
<ele>-30.107371</ele>
|
|
<time>2026-07-10T11:37:56.000Z</time>
|
|
</trkpt>
|
|
<trkpt lat="54.950593" lon="8.690373">
|
|
<ele>-30.108726</ele>
|
|
<time>2026-07-10T11:37:57.000Z</time>
|
|
</trkpt>
|
|
<trkpt lat="54.950652" lon="8.690399">
|
|
<ele>-30.110070</ele>
|
|
<time>2026-07-10T11:37:58.000Z</time>
|
|
</trkpt>
|
|
<trkpt lat="54.950712" lon="8.690426">
|
|
<ele>-30.111440</ele>
|
|
<time>2026-07-10T11:37:59.000Z</time>
|
|
</trkpt>
|
|
<trkpt lat="54.950769" lon="8.690452">
|
|
<ele>-30.112741</ele>
|
|
<time>2026-07-10T11:38:00.000Z</time>
|
|
</trkpt>
|
|
<trkpt lat="54.950826" lon="8.690480">
|
|
<ele>-30.114050</ele>
|
|
<time>2026-07-10T11:38:01.000Z</time>
|
|
</trkpt>
|
|
<trkpt lat="54.950884" lon="8.690507">
|
|
<ele>-30.115377</ele>
|
|
<time>2026-07-10T11:38:02.000Z</time>
|
|
</trkpt>
|
|
<trkpt lat="54.950949" lon="8.690536">
|
|
<ele>-30.116859</ele>
|
|
<time>2026-07-10T11:38:03.000Z</time>
|
|
</trkpt>
|
|
<trkpt lat="54.951006" lon="8.690562">
|
|
<ele>-30.118161</ele>
|
|
<time>2026-07-10T11:38:04.000Z</time>
|
|
</trkpt>
|
|
<trkpt lat="54.951063" lon="8.690588">
|
|
<ele>-30.119463</ele>
|
|
<time>2026-07-10T11:38:05.000Z</time>
|
|
</trkpt>
|
|
<trkpt lat="54.951120" lon="8.690615">
|
|
<ele>-30.120768</ele>
|
|
<time>2026-07-10T11:38:06.000Z</time>
|
|
</trkpt>
|
|
<trkpt lat="54.951177" lon="8.690640">
|
|
<ele>-30.122067</ele>
|
|
<time>2026-07-10T11:38:07.000Z</time>
|
|
</trkpt>
|
|
<trkpt lat="54.951234" lon="8.690661">
|
|
<ele>-30.123354</ele>
|
|
<time>2026-07-10T11:38:08.000Z</time>
|
|
</trkpt>
|
|
<trkpt lat="54.951291" lon="8.690683">
|
|
<ele>-30.124644</ele>
|
|
<time>2026-07-10T11:38:09.000Z</time>
|
|
</trkpt>
|
|
<trkpt lat="54.951349" lon="8.690703">
|
|
<ele>-30.125951</ele>
|
|
<time>2026-07-10T11:38:10.000Z</time>
|
|
</trkpt>
|
|
<trkpt lat="54.951405" lon="8.690726">
|
|
<ele>-30.127222</ele>
|
|
<time>2026-07-10T11:38:11.000Z</time>
|
|
</trkpt>
|
|
<trkpt lat="54.951460" lon="8.690752">
|
|
<ele>-30.128481</ele>
|
|
<time>2026-07-10T11:38:12.000Z</time>
|
|
</trkpt>
|
|
<trkpt lat="54.951512" lon="8.690778">
|
|
<ele>-30.129676</ele>
|
|
<time>2026-07-10T11:38:13.000Z</time>
|
|
</trkpt>
|
|
<trkpt lat="54.951572" lon="8.690802">
|
|
<ele>-30.131037</ele>
|
|
<time>2026-07-10T11:38:14.000Z</time>
|
|
</trkpt>
|
|
<trkpt lat="54.951630" lon="8.690826">
|
|
<ele>-30.132354</ele>
|
|
<time>2026-07-10T11:38:15.000Z</time>
|
|
</trkpt>
|
|
<trkpt lat="54.951686" lon="8.690851">
|
|
<ele>-30.133631</ele>
|
|
<time>2026-07-10T11:38:16.000Z</time>
|
|
</trkpt>
|
|
<trkpt lat="54.951739" lon="8.690878">
|
|
<ele>-30.134851</ele>
|
|
<time>2026-07-10T11:38:17.000Z</time>
|
|
</trkpt>
|
|
<trkpt lat="54.951795" lon="8.690906">
|
|
<ele>-30.136139</ele>
|
|
<time>2026-07-10T11:38:18.000Z</time>
|
|
</trkpt>
|
|
<trkpt lat="54.951850" lon="8.690933">
|
|
<ele>-30.137401</ele>
|
|
<time>2026-07-10T11:38:19.000Z</time>
|
|
</trkpt>
|
|
<trkpt lat="54.951900" lon="8.690957">
|
|
<ele>-30.138547</ele>
|
|
<time>2026-07-10T11:38:20.000Z</time>
|
|
</trkpt>
|
|
<trkpt lat="54.951953" lon="8.690983">
|
|
<ele>-30.139764</ele>
|
|
<time>2026-07-10T11:38:21.000Z</time>
|
|
</trkpt>
|
|
<trkpt lat="54.952006" lon="8.691011">
|
|
<ele>-30.140987</ele>
|
|
<time>2026-07-10T11:38:22.000Z</time>
|
|
</trkpt>
|
|
<trkpt lat="54.952060" lon="8.691040">
|
|
<ele>-30.142236</ele>
|
|
<time>2026-07-10T11:38:23.000Z</time>
|
|
</trkpt>
|
|
<trkpt lat="54.952117" lon="8.691068">
|
|
<ele>-30.143545</ele>
|
|
<time>2026-07-10T11:38:24.000Z</time>
|
|
</trkpt>
|
|
<trkpt lat="54.952173" lon="8.691091">
|
|
<ele>-30.143741</ele>
|
|
<time>2026-07-10T11:38:25.000Z</time>
|
|
</trkpt>
|
|
<trkpt lat="54.952229" lon="8.691116">
|
|
<ele>-30.119860</ele>
|
|
<time>2026-07-10T11:38:26.000Z</time>
|
|
</trkpt>
|
|
<trkpt lat="54.952284" lon="8.691139">
|
|
<ele>-30.096494</ele>
|
|
<time>2026-07-10T11:38:27.000Z</time>
|
|
</trkpt>
|
|
<trkpt lat="54.952343" lon="8.691163">
|
|
<ele>-30.071466</ele>
|
|
<time>2026-07-10T11:38:28.000Z</time>
|
|
</trkpt>
|
|
<trkpt lat="54.952401" lon="8.691189">
|
|
<ele>-30.046726</ele>
|
|
<time>2026-07-10T11:38:29.000Z</time>
|
|
</trkpt>
|
|
<trkpt lat="54.952455" lon="8.691215">
|
|
<ele>-30.023583</ele>
|
|
<time>2026-07-10T11:38:30.000Z</time>
|
|
</trkpt>
|
|
<trkpt lat="54.952512" lon="8.691242">
|
|
<ele>-29.999182</ele>
|
|
<time>2026-07-10T11:38:31.000Z</time>
|
|
</trkpt>
|
|
<trkpt lat="54.952568" lon="8.691268">
|
|
<ele>-29.975241</ele>
|
|
<time>2026-07-10T11:38:32.000Z</time>
|
|
</trkpt>
|
|
<trkpt lat="54.952627" lon="8.691295">
|
|
<ele>-29.950041</ele>
|
|
<time>2026-07-10T11:38:33.000Z</time>
|
|
</trkpt>
|
|
<trkpt lat="54.952684" lon="8.691322">
|
|
<ele>-29.925640</ele>
|
|
<time>2026-07-10T11:38:34.000Z</time>
|
|
</trkpt>
|
|
<trkpt lat="54.952741" lon="8.691347">
|
|
<ele>-29.901359</ele>
|
|
<time>2026-07-10T11:38:35.000Z</time>
|
|
</trkpt>
|
|
<trkpt lat="54.952799" lon="8.691371">
|
|
<ele>-29.876733</ele>
|
|
<time>2026-07-10T11:38:36.000Z</time>
|
|
</trkpt>
|
|
<trkpt lat="54.952856" lon="8.691396">
|
|
<ele>-29.852452</ele>
|
|
<time>2026-07-10T11:38:37.000Z</time>
|
|
</trkpt>
|
|
<trkpt lat="54.952910" lon="8.691422">
|
|
<ele>-29.829308</ele>
|
|
<time>2026-07-10T11:38:38.000Z</time>
|
|
</trkpt>
|
|
<trkpt lat="54.952951" lon="8.691444">
|
|
<ele>-29.811586</ele>
|
|
<time>2026-07-10T11:38:39.000Z</time>
|
|
</trkpt>
|
|
<trkpt lat="54.953027" lon="8.691481">
|
|
<ele>-29.778988</ele>
|
|
<time>2026-07-10T11:38:40.000Z</time>
|
|
</trkpt>
|
|
<trkpt lat="54.953084" lon="8.691509">
|
|
<ele>-29.754523</ele>
|
|
<time>2026-07-10T11:38:41.000Z</time>
|
|
</trkpt>
|
|
<trkpt lat="54.953140" lon="8.691535">
|
|
<ele>-29.730583</ele>
|
|
<time>2026-07-10T11:38:42.000Z</time>
|
|
</trkpt>
|
|
<trkpt lat="54.953193" lon="8.691560">
|
|
<ele>-29.707900</ele>
|
|
<time>2026-07-10T11:38:43.000Z</time>
|
|
</trkpt>
|
|
<trkpt lat="54.953252" lon="8.691587">
|
|
<ele>-29.682701</ele>
|
|
<time>2026-07-10T11:38:44.000Z</time>
|
|
</trkpt>
|
|
<trkpt lat="54.953309" lon="8.691613">
|
|
<ele>-29.658361</ele>
|
|
<time>2026-07-10T11:38:45.000Z</time>
|
|
</trkpt>
|
|
<trkpt lat="54.953366" lon="8.691638">
|
|
<ele>-29.634080</ele>
|
|
<time>2026-07-10T11:38:46.000Z</time>
|
|
</trkpt>
|
|
<trkpt lat="54.953423" lon="8.691665">
|
|
<ele>-29.609678</ele>
|
|
<time>2026-07-10T11:38:47.000Z</time>
|
|
</trkpt>
|
|
<trkpt lat="54.953478" lon="8.691692">
|
|
<ele>-29.586073</ele>
|
|
<time>2026-07-10T11:38:48.000Z</time>
|
|
</trkpt>
|
|
<trkpt lat="54.953536" lon="8.691718">
|
|
<ele>-29.561333</ele>
|
|
<time>2026-07-10T11:38:49.000Z</time>
|
|
</trkpt>
|
|
<trkpt lat="54.953591" lon="8.691743">
|
|
<ele>-29.537852</ele>
|
|
<time>2026-07-10T11:38:50.000Z</time>
|
|
</trkpt>
|
|
<trkpt lat="54.953647" lon="8.691768">
|
|
<ele>-29.513972</ele>
|
|
<time>2026-07-10T11:38:51.000Z</time>
|
|
</trkpt>
|
|
<trkpt lat="54.953701" lon="8.691791">
|
|
<ele>-29.491008</ele>
|
|
<time>2026-07-10T11:38:52.000Z</time>
|
|
</trkpt>
|
|
<trkpt lat="54.953758" lon="8.691817">
|
|
<ele>-29.466668</ele>
|
|
<time>2026-07-10T11:38:53.000Z</time>
|
|
</trkpt>
|
|
<trkpt lat="54.953811" lon="8.691844">
|
|
<ele>-29.443857</ele>
|
|
<time>2026-07-10T11:38:54.000Z</time>
|
|
</trkpt>
|
|
<trkpt lat="54.953864" lon="8.691873">
|
|
<ele>-29.420908</ele>
|
|
<time>2026-07-10T11:38:55.000Z</time>
|
|
</trkpt>
|
|
<trkpt lat="54.953914" lon="8.691902">
|
|
<ele>-29.401186</ele>
|
|
<time>2026-07-10T11:38:56.000Z</time>
|
|
</trkpt>
|
|
<trkpt lat="54.953963" lon="8.691931">
|
|
<ele>-29.396434</ele>
|
|
<time>2026-07-10T11:38:57.000Z</time>
|
|
</trkpt>
|
|
<trkpt lat="54.954013" lon="8.691960">
|
|
<ele>-29.391594</ele>
|
|
<time>2026-07-10T11:38:58.000Z</time>
|
|
</trkpt>
|
|
<trkpt lat="54.954062" lon="8.691987">
|
|
<ele>-29.386875</ele>
|
|
<time>2026-07-10T11:38:59.000Z</time>
|
|
</trkpt>
|
|
<trkpt lat="54.954110" lon="8.692011">
|
|
<ele>-29.382290</ele>
|
|
<time>2026-07-10T11:39:00.000Z</time>
|
|
</trkpt>
|
|
<trkpt lat="54.954156" lon="8.692030">
|
|
<ele>-29.377949</ele>
|
|
<time>2026-07-10T11:39:01.000Z</time>
|
|
</trkpt>
|
|
<trkpt lat="54.954201" lon="8.692049">
|
|
<ele>-29.373697</ele>
|
|
<time>2026-07-10T11:39:02.000Z</time>
|
|
</trkpt>
|
|
<trkpt lat="54.954243" lon="8.692070">
|
|
<ele>-29.369684</ele>
|
|
<time>2026-07-10T11:39:03.000Z</time>
|
|
</trkpt>
|
|
<trkpt lat="54.954281" lon="8.692091">
|
|
<ele>-29.366024</ele>
|
|
<time>2026-07-10T11:39:04.000Z</time>
|
|
</trkpt>
|
|
<trkpt lat="54.954310" lon="8.692109">
|
|
<ele>-29.363197</ele>
|
|
<time>2026-07-10T11:39:05.000Z</time>
|
|
</trkpt>
|
|
<trkpt lat="54.954359" lon="8.692139">
|
|
<ele>-29.358427</ele>
|
|
<time>2026-07-10T11:39:06.000Z</time>
|
|
</trkpt>
|
|
<trkpt lat="54.954400" lon="8.692164">
|
|
<ele>-29.354438</ele>
|
|
<time>2026-07-10T11:39:07.000Z</time>
|
|
</trkpt>
|
|
<trkpt lat="54.954439" lon="8.692187">
|
|
<ele>-29.350657</ele>
|
|
<time>2026-07-10T11:39:08.000Z</time>
|
|
</trkpt>
|
|
<trkpt lat="54.954475" lon="8.692204">
|
|
<ele>-29.347232</ele>
|
|
<time>2026-07-10T11:39:09.000Z</time>
|
|
</trkpt>
|
|
<trkpt lat="54.954512" lon="8.692221">
|
|
<ele>-29.343719</ele>
|
|
<time>2026-07-10T11:39:10.000Z</time>
|
|
</trkpt>
|
|
<trkpt lat="54.954550" lon="8.692236">
|
|
<ele>-29.340141</ele>
|
|
<time>2026-07-10T11:39:11.000Z</time>
|
|
</trkpt>
|
|
<trkpt lat="54.954588" lon="8.692251">
|
|
<ele>-29.336563</ele>
|
|
<time>2026-07-10T11:39:12.000Z</time>
|
|
</trkpt>
|
|
<trkpt lat="54.954621" lon="8.692268">
|
|
<ele>-29.333403</ele>
|
|
<time>2026-07-10T11:39:13.000Z</time>
|
|
</trkpt>
|
|
<trkpt lat="54.954651" lon="8.692293">
|
|
<ele>-29.330349</ele>
|
|
<time>2026-07-10T11:39:14.000Z</time>
|
|
</trkpt>
|
|
<trkpt lat="54.954673" lon="8.692312">
|
|
<ele>-29.328094</ele>
|
|
<time>2026-07-10T11:39:15.000Z</time>
|
|
</trkpt>
|
|
<trkpt lat="54.954688" lon="8.692330">
|
|
<ele>-29.326421</ele>
|
|
<time>2026-07-10T11:40:10.000Z</time>
|
|
</trkpt>
|
|
<trkpt lat="54.954699" lon="8.692337">
|
|
<ele>-29.325346</ele>
|
|
<time>2026-07-10T11:40:11.000Z</time>
|
|
</trkpt>
|
|
<trkpt lat="54.954721" lon="8.692337">
|
|
<ele>-29.323326</ele>
|
|
<time>2026-07-10T11:40:12.000Z</time>
|
|
</trkpt>
|
|
<trkpt lat="54.954740" lon="8.692339">
|
|
<ele>-29.321578</ele>
|
|
<time>2026-07-10T11:40:13.000Z</time>
|
|
</trkpt>
|
|
<trkpt lat="54.954763" lon="8.692344">
|
|
<ele>-29.319450</ele>
|
|
<time>2026-07-10T11:40:14.000Z</time>
|
|
</trkpt>
|
|
<trkpt lat="54.954791" lon="8.692355">
|
|
<ele>-29.316814</ele>
|
|
<time>2026-07-10T11:40:15.000Z</time>
|
|
</trkpt>
|
|
<trkpt lat="54.954818" lon="8.692372">
|
|
<ele>-29.314178</ele>
|
|
<time>2026-07-10T11:40:16.000Z</time>
|
|
</trkpt>
|
|
<trkpt lat="54.954848" lon="8.692387">
|
|
<ele>-29.311312</ele>
|
|
<time>2026-07-10T11:40:17.000Z</time>
|
|
</trkpt>
|
|
<trkpt lat="54.954877" lon="8.692397">
|
|
<ele>-29.308597</ele>
|
|
<time>2026-07-10T11:40:18.000Z</time>
|
|
</trkpt>
|
|
<trkpt lat="54.954906" lon="8.692404">
|
|
<ele>-29.305909</ele>
|
|
<time>2026-07-10T11:40:19.000Z</time>
|
|
</trkpt>
|
|
<trkpt lat="54.954941" lon="8.692414">
|
|
<ele>-29.302652</ele>
|
|
<time>2026-07-10T11:40:20.000Z</time>
|
|
</trkpt>
|
|
<trkpt lat="54.954973" lon="8.692428">
|
|
<ele>-29.299622</ele>
|
|
<time>2026-07-10T11:40:21.000Z</time>
|
|
</trkpt>
|
|
<trkpt lat="54.955006" lon="8.692444">
|
|
<ele>-29.296477</ele>
|
|
<time>2026-07-10T11:40:22.000Z</time>
|
|
</trkpt>
|
|
<trkpt lat="54.955038" lon="8.692460">
|
|
<ele>-29.293420</ele>
|
|
<time>2026-07-10T11:40:23.000Z</time>
|
|
</trkpt>
|
|
<trkpt lat="54.955072" lon="8.692475">
|
|
<ele>-29.290199</ele>
|
|
<time>2026-07-10T11:40:24.000Z</time>
|
|
</trkpt>
|
|
<trkpt lat="54.955103" lon="8.692487">
|
|
<ele>-29.287283</ele>
|
|
<time>2026-07-10T11:40:25.000Z</time>
|
|
</trkpt>
|
|
<trkpt lat="54.955139" lon="8.692501">
|
|
<ele>-29.283896</ele>
|
|
<time>2026-07-10T11:40:26.000Z</time>
|
|
</trkpt>
|
|
<trkpt lat="54.955176" lon="8.692516">
|
|
<ele>-29.280408</ele>
|
|
<time>2026-07-10T11:40:27.000Z</time>
|
|
</trkpt>
|
|
<trkpt lat="54.955215" lon="8.692535">
|
|
<ele>-29.276689</ele>
|
|
<time>2026-07-10T11:40:28.000Z</time>
|
|
</trkpt>
|
|
<trkpt lat="54.955251" lon="8.692555">
|
|
<ele>-29.273219</ele>
|
|
<time>2026-07-10T11:40:29.000Z</time>
|
|
</trkpt>
|
|
<trkpt lat="54.955288" lon="8.692575">
|
|
<ele>-29.269662</ele>
|
|
<time>2026-07-10T11:40:30.000Z</time>
|
|
</trkpt>
|
|
<trkpt lat="54.955332" lon="8.692596">
|
|
<ele>-29.265473</ele>
|
|
<time>2026-07-10T11:40:31.000Z</time>
|
|
</trkpt>
|
|
<trkpt lat="54.955380" lon="8.692617">
|
|
<ele>-29.260928</ele>
|
|
<time>2026-07-10T11:40:32.000Z</time>
|
|
</trkpt>
|
|
<trkpt lat="54.955424" lon="8.692638">
|
|
<ele>-29.256739</ele>
|
|
<time>2026-07-10T11:40:33.000Z</time>
|
|
</trkpt>
|
|
<trkpt lat="54.955470" lon="8.692659">
|
|
<ele>-29.252372</ele>
|
|
<time>2026-07-10T11:40:34.000Z</time>
|
|
</trkpt>
|
|
<trkpt lat="54.955515" lon="8.692679">
|
|
<ele>-29.248108</ele>
|
|
<time>2026-07-10T11:40:35.000Z</time>
|
|
</trkpt>
|
|
<trkpt lat="54.955566" lon="8.692699">
|
|
<ele>-29.243308</ele>
|
|
<time>2026-07-10T11:40:36.000Z</time>
|
|
</trkpt>
|
|
<trkpt lat="54.955615" lon="8.692719">
|
|
<ele>-29.238686</ele>
|
|
<time>2026-07-10T11:40:37.000Z</time>
|
|
</trkpt>
|
|
<trkpt lat="54.955665" lon="8.692741">
|
|
<ele>-29.250137</ele>
|
|
<time>2026-07-10T11:40:38.000Z</time>
|
|
</trkpt>
|
|
<trkpt lat="54.955714" lon="8.692761">
|
|
<ele>-29.273621</ele>
|
|
<time>2026-07-10T11:40:39.000Z</time>
|
|
</trkpt>
|
|
<trkpt lat="54.955766" lon="8.692780">
|
|
<ele>-29.298413</ele>
|
|
<time>2026-07-10T11:40:40.000Z</time>
|
|
</trkpt>
|
|
<trkpt lat="54.955818" lon="8.692801">
|
|
<ele>-29.323320</ele>
|
|
<time>2026-07-10T11:40:41.000Z</time>
|
|
</trkpt>
|
|
<trkpt lat="54.955875" lon="8.692823">
|
|
<ele>-29.350562</ele>
|
|
<time>2026-07-10T11:40:42.000Z</time>
|
|
</trkpt>
|
|
<trkpt lat="54.955931" lon="8.692845">
|
|
<ele>-29.377349</ele>
|
|
<time>2026-07-10T11:40:43.000Z</time>
|
|
</trkpt>
|
|
<trkpt lat="54.955987" lon="8.692868">
|
|
<ele>-29.404196</ele>
|
|
<time>2026-07-10T11:40:44.000Z</time>
|
|
</trkpt>
|
|
<trkpt lat="54.956041" lon="8.692889">
|
|
<ele>-29.430014</ele>
|
|
<time>2026-07-10T11:40:45.000Z</time>
|
|
</trkpt>
|
|
<trkpt lat="54.956096" lon="8.692917">
|
|
<ele>-29.456751</ele>
|
|
<time>2026-07-10T11:40:46.000Z</time>
|
|
</trkpt>
|
|
<trkpt lat="54.956148" lon="8.692945">
|
|
<ele>-29.482149</ele>
|
|
<time>2026-07-10T11:40:47.000Z</time>
|
|
</trkpt>
|
|
<trkpt lat="54.956205" lon="8.692973">
|
|
<ele>-29.509783</ele>
|
|
<time>2026-07-10T11:40:48.000Z</time>
|
|
</trkpt>
|
|
<trkpt lat="54.956262" lon="8.692999">
|
|
<ele>-29.537277</ele>
|
|
<time>2026-07-10T11:40:49.000Z</time>
|
|
</trkpt>
|
|
<trkpt lat="54.956319" lon="8.693025">
|
|
<ele>-29.564771</ele>
|
|
<time>2026-07-10T11:40:50.000Z</time>
|
|
</trkpt>
|
|
<trkpt lat="54.956374" lon="8.693050">
|
|
<ele>-29.591295</ele>
|
|
<time>2026-07-10T11:40:51.000Z</time>
|
|
</trkpt>
|
|
<trkpt lat="54.956430" lon="8.693075">
|
|
<ele>-29.618270</ele>
|
|
<time>2026-07-10T11:40:52.000Z</time>
|
|
</trkpt>
|
|
<trkpt lat="54.956489" lon="8.693099">
|
|
<ele>-29.646541</ele>
|
|
<time>2026-07-10T11:40:53.000Z</time>
|
|
</trkpt>
|
|
<trkpt lat="54.956547" lon="8.693123">
|
|
<ele>-29.674358</ele>
|
|
<time>2026-07-10T11:40:54.000Z</time>
|
|
</trkpt>
|
|
<trkpt lat="54.956602" lon="8.693150">
|
|
<ele>-29.701021</ele>
|
|
<time>2026-07-10T11:40:55.000Z</time>
|
|
</trkpt>
|
|
<trkpt lat="54.956657" lon="8.693177">
|
|
<ele>-29.727685</ele>
|
|
<time>2026-07-10T11:40:56.000Z</time>
|
|
</trkpt>
|
|
<trkpt lat="54.956709" lon="8.693203">
|
|
<ele>-29.752929</ele>
|
|
<time>2026-07-10T11:40:57.000Z</time>
|
|
</trkpt>
|
|
<trkpt lat="54.956773" lon="8.693232">
|
|
<ele>-29.783786</ele>
|
|
<time>2026-07-10T11:40:58.000Z</time>
|
|
</trkpt>
|
|
<trkpt lat="54.956826" lon="8.693254">
|
|
<ele>-29.809209</ele>
|
|
<time>2026-07-10T11:40:59.000Z</time>
|
|
</trkpt>
|
|
<trkpt lat="54.956883" lon="8.693277">
|
|
<ele>-29.836511</ele>
|
|
<time>2026-07-10T11:41:00.000Z</time>
|
|
</trkpt>
|
|
<trkpt lat="54.956945" lon="8.693306">
|
|
<ele>-29.866466</ele>
|
|
<time>2026-07-10T11:41:01.000Z</time>
|
|
</trkpt>
|
|
<trkpt lat="54.957002" lon="8.693332">
|
|
<ele>-29.893960</ele>
|
|
<time>2026-07-10T11:41:02.000Z</time>
|
|
</trkpt>
|
|
<trkpt lat="54.957060" lon="8.693360">
|
|
<ele>-29.922044</ele>
|
|
<time>2026-07-10T11:41:03.000Z</time>
|
|
</trkpt>
|
|
<trkpt lat="54.957116" lon="8.693386">
|
|
<ele>-29.949087</ele>
|
|
<time>2026-07-10T11:41:04.000Z</time>
|
|
</trkpt>
|
|
<trkpt lat="54.957170" lon="8.693411">
|
|
<ele>-29.975159</ele>
|
|
<time>2026-07-10T11:41:05.000Z</time>
|
|
</trkpt>
|
|
<trkpt lat="54.957227" lon="8.693438">
|
|
<ele>-30.002722</ele>
|
|
<time>2026-07-10T11:41:06.000Z</time>
|
|
</trkpt>
|
|
<trkpt lat="54.957284" lon="8.693467">
|
|
<ele>-30.030430</ele>
|
|
<time>2026-07-10T11:41:07.000Z</time>
|
|
</trkpt>
|
|
<trkpt lat="54.957341" lon="8.693495">
|
|
<ele>-30.058065</ele>
|
|
<time>2026-07-10T11:41:08.000Z</time>
|
|
</trkpt>
|
|
<trkpt lat="54.957396" lon="8.693524">
|
|
<ele>-30.074456</ele>
|
|
<time>2026-07-10T11:41:09.000Z</time>
|
|
</trkpt>
|
|
<trkpt lat="54.957453" lon="8.693547">
|
|
<ele>-30.070137</ele>
|
|
<time>2026-07-10T11:41:10.000Z</time>
|
|
</trkpt>
|
|
<trkpt lat="54.957509" lon="8.693570">
|
|
<ele>-30.065891</ele>
|
|
<time>2026-07-10T11:41:11.000Z</time>
|
|
</trkpt>
|
|
<trkpt lat="54.957563" lon="8.693594">
|
|
<ele>-30.061777</ele>
|
|
<time>2026-07-10T11:41:12.000Z</time>
|
|
</trkpt>
|
|
<trkpt lat="54.957619" lon="8.693620">
|
|
<ele>-30.057500</ele>
|
|
<time>2026-07-10T11:41:13.000Z</time>
|
|
</trkpt>
|
|
<trkpt lat="54.957673" lon="8.693647">
|
|
<ele>-30.053353</ele>
|
|
<time>2026-07-10T11:41:14.000Z</time>
|
|
</trkpt>
|
|
<trkpt lat="54.957731" lon="8.693674">
|
|
<ele>-30.048922</ele>
|
|
<time>2026-07-10T11:41:15.000Z</time>
|
|
</trkpt>
|
|
<trkpt lat="54.957789" lon="8.693698">
|
|
<ele>-30.044522</ele>
|
|
<time>2026-07-10T11:41:16.000Z</time>
|
|
</trkpt>
|
|
<trkpt lat="54.957846" lon="8.693722">
|
|
<ele>-30.040194</ele>
|
|
<time>2026-07-10T11:41:17.000Z</time>
|
|
</trkpt>
|
|
<trkpt lat="54.957903" lon="8.693748">
|
|
<ele>-30.035845</ele>
|
|
<time>2026-07-10T11:41:18.000Z</time>
|
|
</trkpt>
|
|
<trkpt lat="54.957960" lon="8.693776">
|
|
<ele>-30.031473</ele>
|
|
<time>2026-07-10T11:41:19.000Z</time>
|
|
</trkpt>
|
|
<trkpt lat="54.958018" lon="8.693807">
|
|
<ele>-30.026995</ele>
|
|
<time>2026-07-10T11:41:20.000Z</time>
|
|
</trkpt>
|
|
<trkpt lat="54.958078" lon="8.693837">
|
|
<ele>-30.022388</ele>
|
|
<time>2026-07-10T11:41:21.000Z</time>
|
|
</trkpt>
|
|
<trkpt lat="54.958135" lon="8.693863">
|
|
<ele>-30.018039</ele>
|
|
<time>2026-07-10T11:41:22.000Z</time>
|
|
</trkpt>
|
|
<trkpt lat="54.958193" lon="8.693891">
|
|
<ele>-30.013597</ele>
|
|
<time>2026-07-10T11:41:23.000Z</time>
|
|
</trkpt>
|
|
<trkpt lat="54.958250" lon="8.693917">
|
|
<ele>-30.009248</ele>
|
|
<time>2026-07-10T11:41:24.000Z</time>
|
|
</trkpt>
|
|
<trkpt lat="54.958308" lon="8.693943">
|
|
<ele>-30.004827</ele>
|
|
<time>2026-07-10T11:41:25.000Z</time>
|
|
</trkpt>
|
|
<trkpt lat="54.958370" lon="8.693972">
|
|
<ele>-30.000089</ele>
|
|
<time>2026-07-10T11:41:26.000Z</time>
|
|
</trkpt>
|
|
<trkpt lat="54.958429" lon="8.694000">
|
|
<ele>-29.995576</ele>
|
|
<time>2026-07-10T11:41:27.000Z</time>
|
|
</trkpt>
|
|
<trkpt lat="54.958487" lon="8.694029">
|
|
<ele>-29.991122</ele>
|
|
<time>2026-07-10T11:41:28.000Z</time>
|
|
</trkpt>
|
|
<trkpt lat="54.958544" lon="8.694056">
|
|
<ele>-29.986762</ele>
|
|
<time>2026-07-10T11:41:29.000Z</time>
|
|
</trkpt>
|
|
<trkpt lat="54.958601" lon="8.694082">
|
|
<ele>-29.982413</ele>
|
|
<time>2026-07-10T11:41:30.000Z</time>
|
|
</trkpt>
|
|
<trkpt lat="54.958657" lon="8.694107">
|
|
<ele>-29.978146</ele>
|
|
<time>2026-07-10T11:41:31.000Z</time>
|
|
</trkpt>
|
|
<trkpt lat="54.958712" lon="8.694131">
|
|
<ele>-29.973961</ele>
|
|
<time>2026-07-10T11:41:32.000Z</time>
|
|
</trkpt>
|
|
<trkpt lat="54.958768" lon="8.694156">
|
|
<ele>-29.969694</ele>
|
|
<time>2026-07-10T11:41:33.000Z</time>
|
|
</trkpt>
|
|
<trkpt lat="54.958822" lon="8.694182">
|
|
<ele>-29.965559</ele>
|
|
<time>2026-07-10T11:41:34.000Z</time>
|
|
</trkpt>
|
|
<trkpt lat="54.958879" lon="8.694205">
|
|
<ele>-29.961241</ele>
|
|
<time>2026-07-10T11:41:35.000Z</time>
|
|
</trkpt>
|
|
<trkpt lat="54.958935" lon="8.694229">
|
|
<ele>-29.956984</ele>
|
|
<time>2026-07-10T11:41:36.000Z</time>
|
|
</trkpt>
|
|
<trkpt lat="54.958990" lon="8.694254">
|
|
<ele>-29.952789</ele>
|
|
<time>2026-07-10T11:41:37.000Z</time>
|
|
</trkpt>
|
|
<trkpt lat="54.959046" lon="8.694280">
|
|
<ele>-29.948511</ele>
|
|
<time>2026-07-10T11:41:38.000Z</time>
|
|
</trkpt>
|
|
<trkpt lat="54.959098" lon="8.694303">
|
|
<ele>-29.944551</ele>
|
|
<time>2026-07-10T11:41:39.000Z</time>
|
|
</trkpt>
|
|
<trkpt lat="54.959149" lon="8.694323">
|
|
<ele>-29.934817</ele>
|
|
<time>2026-07-10T11:41:40.000Z</time>
|
|
</trkpt>
|
|
<trkpt lat="54.959201" lon="8.694339">
|
|
<ele>-29.921504</ele>
|
|
<time>2026-07-10T11:41:41.000Z</time>
|
|
</trkpt>
|
|
<trkpt lat="54.959250" lon="8.694362">
|
|
<ele>-29.908708</ele>
|
|
<time>2026-07-10T11:41:42.000Z</time>
|
|
</trkpt>
|
|
<trkpt lat="54.959297" lon="8.694383">
|
|
<ele>-29.896475</ele>
|
|
<time>2026-07-10T11:41:43.000Z</time>
|
|
</trkpt>
|
|
<trkpt lat="54.959348" lon="8.694404">
|
|
<ele>-29.883261</ele>
|
|
<time>2026-07-10T11:41:44.000Z</time>
|
|
</trkpt>
|
|
<trkpt lat="54.959400" lon="8.694426">
|
|
<ele>-29.869769</ele>
|
|
<time>2026-07-10T11:41:45.000Z</time>
|
|
</trkpt>
|
|
<trkpt lat="54.959448" lon="8.694446">
|
|
<ele>-29.857326</ele>
|
|
<time>2026-07-10T11:41:46.000Z</time>
|
|
</trkpt>
|
|
<trkpt lat="54.959497" lon="8.694467">
|
|
<ele>-29.844603</ele>
|
|
<time>2026-07-10T11:41:47.000Z</time>
|
|
</trkpt>
|
|
<trkpt lat="54.959555" lon="8.694490">
|
|
<ele>-29.829605</ele>
|
|
<time>2026-07-10T11:41:48.000Z</time>
|
|
</trkpt>
|
|
<trkpt lat="54.959612" lon="8.694511">
|
|
<ele>-29.814916</ele>
|
|
<time>2026-07-10T11:41:49.000Z</time>
|
|
</trkpt>
|
|
<trkpt lat="54.959670" lon="8.694536">
|
|
<ele>-29.799851</ele>
|
|
<time>2026-07-10T11:41:50.000Z</time>
|
|
</trkpt>
|
|
<trkpt lat="54.959731" lon="8.694563">
|
|
<ele>-29.783982</ele>
|
|
<time>2026-07-10T11:41:51.000Z</time>
|
|
</trkpt>
|
|
<trkpt lat="54.959791" lon="8.694598">
|
|
<ele>-29.768028</ele>
|
|
<time>2026-07-10T11:41:52.000Z</time>
|
|
</trkpt>
|
|
<trkpt lat="54.959849" lon="8.694629">
|
|
<ele>-29.752732</ele>
|
|
<time>2026-07-10T11:41:53.000Z</time>
|
|
</trkpt>
|
|
<trkpt lat="54.959908" lon="8.694656">
|
|
<ele>-29.737351</ele>
|
|
<time>2026-07-10T11:41:54.000Z</time>
|
|
</trkpt>
|
|
<trkpt lat="54.959967" lon="8.694685">
|
|
<ele>-29.721895</ele>
|
|
<time>2026-07-10T11:41:55.000Z</time>
|
|
</trkpt>
|
|
<trkpt lat="54.960024" lon="8.694715">
|
|
<ele>-29.706881</ele>
|
|
<time>2026-07-10T11:41:56.000Z</time>
|
|
</trkpt>
|
|
<trkpt lat="54.960078" lon="8.694742">
|
|
<ele>-29.692716</ele>
|
|
<time>2026-07-10T11:41:57.000Z</time>
|
|
</trkpt>
|
|
<trkpt lat="54.960141" lon="8.694768">
|
|
<ele>-29.676392</ele>
|
|
<time>2026-07-10T11:41:58.000Z</time>
|
|
</trkpt>
|
|
<trkpt lat="54.960195" lon="8.694792">
|
|
<ele>-29.662341</ele>
|
|
<time>2026-07-10T11:41:59.000Z</time>
|
|
</trkpt>
|
|
<trkpt lat="54.960252" lon="8.694816">
|
|
<ele>-29.647556</ele>
|
|
<time>2026-07-10T11:42:00.000Z</time>
|
|
</trkpt>
|
|
<trkpt lat="54.960310" lon="8.694841">
|
|
<ele>-29.632491</ele>
|
|
<time>2026-07-10T11:42:01.000Z</time>
|
|
</trkpt>
|
|
<trkpt lat="54.960368" lon="8.694864">
|
|
<ele>-29.617493</ele>
|
|
<time>2026-07-10T11:42:02.000Z</time>
|
|
</trkpt>
|
|
<trkpt lat="54.960424" lon="8.694888">
|
|
<ele>-29.602953</ele>
|
|
<time>2026-07-10T11:42:03.000Z</time>
|
|
</trkpt>
|
|
<trkpt lat="54.960479" lon="8.694914">
|
|
<ele>-29.588584</ele>
|
|
<time>2026-07-10T11:42:04.000Z</time>
|
|
</trkpt>
|
|
<trkpt lat="54.960527" lon="8.694937">
|
|
<ele>-29.576032</ele>
|
|
<time>2026-07-10T11:42:05.000Z</time>
|
|
</trkpt>
|
|
<trkpt lat="54.960570" lon="8.694957">
|
|
<ele>-29.564811</ele>
|
|
<time>2026-07-10T11:42:06.000Z</time>
|
|
</trkpt>
|
|
<trkpt lat="54.960644" lon="8.694998">
|
|
<ele>-29.545232</ele>
|
|
<time>2026-07-10T11:42:07.000Z</time>
|
|
</trkpt>
|
|
<trkpt lat="54.960699" lon="8.695027">
|
|
<ele>-29.530743</ele>
|
|
<time>2026-07-10T11:42:08.000Z</time>
|
|
</trkpt>
|
|
<trkpt lat="54.960755" lon="8.695054">
|
|
<ele>-29.516093</ele>
|
|
<time>2026-07-10T11:42:09.000Z</time>
|
|
</trkpt>
|
|
<trkpt lat="54.960810" lon="8.695081">
|
|
<ele>-29.501686</ele>
|
|
<time>2026-07-10T11:42:10.000Z</time>
|
|
</trkpt>
|
|
<trkpt lat="54.960866" lon="8.695106">
|
|
<ele>-29.479214</ele>
|
|
<time>2026-07-10T11:42:11.000Z</time>
|
|
</trkpt>
|
|
<trkpt lat="54.960919" lon="8.695131">
|
|
<ele>-29.422044</ele>
|
|
<time>2026-07-10T11:42:12.000Z</time>
|
|
</trkpt>
|
|
<trkpt lat="54.960973" lon="8.695157">
|
|
<ele>-29.363712</ele>
|
|
<time>2026-07-10T11:42:13.000Z</time>
|
|
</trkpt>
|
|
<trkpt lat="54.961026" lon="8.695183">
|
|
<ele>-29.306383</ele>
|
|
<time>2026-07-10T11:42:14.000Z</time>
|
|
</trkpt>
|
|
<trkpt lat="54.961078" lon="8.695207">
|
|
<ele>-29.250373</ele>
|
|
<time>2026-07-10T11:42:15.000Z</time>
|
|
</trkpt>
|
|
<trkpt lat="54.961127" lon="8.695230">
|
|
<ele>-29.197535</ele>
|
|
<time>2026-07-10T11:42:16.000Z</time>
|
|
</trkpt>
|
|
<trkpt lat="54.961176" lon="8.695250">
|
|
<ele>-29.145135</ele>
|
|
<time>2026-07-10T11:42:17.000Z</time>
|
|
</trkpt>
|
|
<trkpt lat="54.961221" lon="8.695270">
|
|
<ele>-29.096781</ele>
|
|
<time>2026-07-10T11:42:18.000Z</time>
|
|
</trkpt>
|
|
<trkpt lat="54.961261" lon="8.695289">
|
|
<ele>-29.053613</ele>
|
|
<time>2026-07-10T11:42:19.000Z</time>
|
|
</trkpt>
|
|
<trkpt lat="54.961297" lon="8.695310">
|
|
<ele>-29.014084</ele>
|
|
<time>2026-07-10T11:42:20.000Z</time>
|
|
</trkpt>
|
|
<trkpt lat="54.961327" lon="8.695339">
|
|
<ele>-28.978361</ele>
|
|
<time>2026-07-10T11:42:21.000Z</time>
|
|
</trkpt>
|
|
<trkpt lat="54.961356" lon="8.695385">
|
|
<ele>-28.937522</ele>
|
|
<time>2026-07-10T11:42:22.000Z</time>
|
|
</trkpt>
|
|
<trkpt lat="54.961379" lon="8.695425">
|
|
<ele>-28.903681</ele>
|
|
<time>2026-07-10T11:42:23.000Z</time>
|
|
</trkpt>
|
|
<trkpt lat="54.961404" lon="8.695451">
|
|
<ele>-28.873365</ele>
|
|
<time>2026-07-10T11:42:24.000Z</time>
|
|
</trkpt>
|
|
<trkpt lat="54.961434" lon="8.695458">
|
|
<ele>-28.841850</ele>
|
|
<time>2026-07-10T11:42:25.000Z</time>
|
|
</trkpt>
|
|
<trkpt lat="54.961461" lon="8.695445">
|
|
<ele>-28.812684</ele>
|
|
<time>2026-07-10T11:42:26.000Z</time>
|
|
</trkpt>
|
|
<trkpt lat="54.961491" lon="8.695422">
|
|
<ele>-28.778557</ele>
|
|
<time>2026-07-10T11:42:27.000Z</time>
|
|
</trkpt>
|
|
<trkpt lat="54.961519" lon="8.695398">
|
|
<ele>-28.746065</ele>
|
|
<time>2026-07-10T11:42:28.000Z</time>
|
|
</trkpt>
|
|
<trkpt lat="54.961548" lon="8.695377">
|
|
<ele>-28.713365</ele>
|
|
<time>2026-07-10T11:42:29.000Z</time>
|
|
</trkpt>
|
|
<trkpt lat="54.961578" lon="8.695358">
|
|
<ele>-28.680129</ele>
|
|
<time>2026-07-10T11:42:30.000Z</time>
|
|
</trkpt>
|
|
<trkpt lat="54.961614" lon="8.695338">
|
|
<ele>-28.640786</ele>
|
|
<time>2026-07-10T11:42:31.000Z</time>
|
|
</trkpt>
|
|
<trkpt lat="54.961651" lon="8.695317">
|
|
<ele>-28.600269</ele>
|
|
<time>2026-07-10T11:42:32.000Z</time>
|
|
</trkpt>
|
|
<trkpt lat="54.961688" lon="8.695297">
|
|
<ele>-28.559933</ele>
|
|
<time>2026-07-10T11:42:33.000Z</time>
|
|
</trkpt>
|
|
<trkpt lat="54.961722" lon="8.695276">
|
|
<ele>-28.522373</ele>
|
|
<time>2026-07-10T11:42:34.000Z</time>
|
|
</trkpt>
|
|
<trkpt lat="54.961754" lon="8.695254">
|
|
<ele>-28.486554</ele>
|
|
<time>2026-07-10T11:42:35.000Z</time>
|
|
</trkpt>
|
|
<trkpt lat="54.961788" lon="8.695230">
|
|
<ele>-28.448357</ele>
|
|
<time>2026-07-10T11:42:36.000Z</time>
|
|
</trkpt>
|
|
<trkpt lat="54.961824" lon="8.695210">
|
|
<ele>-28.409015</ele>
|
|
<time>2026-07-10T11:42:37.000Z</time>
|
|
</trkpt>
|
|
<trkpt lat="54.961859" lon="8.695191">
|
|
<ele>-28.370844</ele>
|
|
<time>2026-07-10T11:42:38.000Z</time>
|
|
</trkpt>
|
|
<trkpt lat="54.961893" lon="8.695169">
|
|
<ele>-28.333081</ele>
|
|
<time>2026-07-10T11:42:39.000Z</time>
|
|
</trkpt>
|
|
<trkpt lat="54.961924" lon="8.695150">
|
|
<ele>-28.298864</ele>
|
|
<time>2026-07-10T11:42:40.000Z</time>
|
|
</trkpt>
|
|
<trkpt lat="54.961958" lon="8.695134">
|
|
<ele>-28.262195</ele>
|
|
<time>2026-07-10T11:42:41.000Z</time>
|
|
</trkpt>
|
|
<trkpt lat="54.961994" lon="8.695120">
|
|
<ele>-28.223790</ele>
|
|
<time>2026-07-10T11:42:42.000Z</time>
|
|
</trkpt>
|
|
<trkpt lat="54.962032" lon="8.695107">
|
|
<ele>-28.183469</ele>
|
|
<time>2026-07-10T11:42:43.000Z</time>
|
|
</trkpt>
|
|
<trkpt lat="54.962068" lon="8.695094">
|
|
<ele>-28.145189</ele>
|
|
<time>2026-07-10T11:42:44.000Z</time>
|
|
</trkpt>
|
|
<trkpt lat="54.962099" lon="8.695081">
|
|
<ele>-28.111991</ele>
|
|
<time>2026-07-10T11:42:45.000Z</time>
|
|
</trkpt>
|
|
<trkpt lat="54.962134" lon="8.695061">
|
|
<ele>-28.073638</ele>
|
|
<time>2026-07-10T11:42:46.000Z</time>
|
|
</trkpt>
|
|
<trkpt lat="54.962165" lon="8.695043">
|
|
<ele>-28.039616</ele>
|
|
<time>2026-07-10T11:42:47.000Z</time>
|
|
</trkpt>
|
|
<trkpt lat="54.962195" lon="8.695024">
|
|
<ele>-28.006380</ele>
|
|
<time>2026-07-10T11:42:48.000Z</time>
|
|
</trkpt>
|
|
<trkpt lat="54.962228" lon="8.695010">
|
|
<ele>-27.971016</ele>
|
|
<time>2026-07-10T11:42:49.000Z</time>
|
|
</trkpt>
|
|
<trkpt lat="54.962258" lon="8.695000">
|
|
<ele>-27.939214</ele>
|
|
<time>2026-07-10T11:42:50.000Z</time>
|
|
</trkpt>
|
|
<trkpt lat="54.962289" lon="8.694992">
|
|
<ele>-27.906585</ele>
|
|
<time>2026-07-10T11:42:51.000Z</time>
|
|
</trkpt>
|
|
<trkpt lat="54.962319" lon="8.694982">
|
|
<ele>-27.874783</ele>
|
|
<time>2026-07-10T11:42:52.000Z</time>
|
|
</trkpt>
|
|
<trkpt lat="54.962344" lon="8.694968">
|
|
<ele>-27.847441</ele>
|
|
<time>2026-07-10T11:42:53.000Z</time>
|
|
</trkpt>
|
|
<trkpt lat="54.962368" lon="8.694952">
|
|
<ele>-27.820685</ele>
|
|
<time>2026-07-10T11:42:54.000Z</time>
|
|
</trkpt>
|
|
<trkpt lat="54.962394" lon="8.694939">
|
|
<ele>-27.792521</ele>
|
|
<time>2026-07-10T11:42:55.000Z</time>
|
|
</trkpt>
|
|
<trkpt lat="54.962416" lon="8.694931">
|
|
<ele>-27.769122</ele>
|
|
<time>2026-07-10T11:42:56.000Z</time>
|
|
</trkpt>
|
|
<trkpt lat="54.962439" lon="8.694923">
|
|
<ele>-27.744702</ele>
|
|
<time>2026-07-10T11:42:57.000Z</time>
|
|
</trkpt>
|
|
<trkpt lat="54.962458" lon="8.694910">
|
|
<ele>-27.723448</ele>
|
|
<time>2026-07-10T11:42:58.000Z</time>
|
|
</trkpt>
|
|
<trkpt lat="54.962481" lon="8.694892">
|
|
<ele>-27.697195</ele>
|
|
<time>2026-07-10T11:42:59.000Z</time>
|
|
</trkpt>
|
|
<trkpt lat="54.962503" lon="8.694870">
|
|
<ele>-27.670782</ele>
|
|
<time>2026-07-10T11:43:00.000Z</time>
|
|
</trkpt>
|
|
<trkpt lat="54.962521" lon="8.694846">
|
|
<ele>-27.647180</ele>
|
|
<time>2026-07-10T11:43:01.000Z</time>
|
|
</trkpt>
|
|
<trkpt lat="54.962535" lon="8.694826">
|
|
<ele>-27.628328</ele>
|
|
<time>2026-07-10T11:43:02.000Z</time>
|
|
</trkpt>
|
|
<trkpt lat="54.962547" lon="8.694813">
|
|
<ele>-27.613508</ele>
|
|
<time>2026-07-10T11:43:03.000Z</time>
|
|
</trkpt>
|
|
<trkpt lat="54.962558" lon="8.694810">
|
|
<ele>-27.601541</ele>
|
|
<time>2026-07-10T11:43:04.000Z</time>
|
|
</trkpt>
|
|
<trkpt lat="54.962624" lon="8.694838">
|
|
<ele>-27.528531</ele>
|
|
<time>2026-07-10T11:43:49.000Z</time>
|
|
</trkpt>
|
|
<trkpt lat="54.962638" lon="8.694859">
|
|
<ele>-27.508674</ele>
|
|
<time>2026-07-10T11:43:50.000Z</time>
|
|
</trkpt>
|
|
<trkpt lat="54.962651" lon="8.694881">
|
|
<ele>-27.489193</ele>
|
|
<time>2026-07-10T11:43:51.000Z</time>
|
|
</trkpt>
|
|
<trkpt lat="54.962666" lon="8.694901">
|
|
<ele>-27.468890</ele>
|
|
<time>2026-07-10T11:43:52.000Z</time>
|
|
</trkpt>
|
|
<trkpt lat="54.962680" lon="8.694922">
|
|
<ele>-27.449032</ele>
|
|
<time>2026-07-10T11:43:53.000Z</time>
|
|
</trkpt>
|
|
<trkpt lat="54.962692" lon="8.694937">
|
|
<ele>-27.433158</ele>
|
|
<time>2026-07-10T11:43:54.000Z</time>
|
|
</trkpt>
|
|
<trkpt lat="54.962703" lon="8.694944">
|
|
<ele>-27.420571</ele>
|
|
<time>2026-07-10T11:43:55.000Z</time>
|
|
</trkpt>
|
|
<trkpt lat="54.962712" lon="8.694945">
|
|
<ele>-27.410878</ele>
|
|
<time>2026-07-10T11:43:56.000Z</time>
|
|
</trkpt>
|
|
<trkpt lat="54.962716" lon="8.694940">
|
|
<ele>-27.405586</ele>
|
|
<time>2026-07-10T11:43:57.000Z</time>
|
|
</trkpt>
|
|
<trkpt lat="54.962719" lon="8.694937">
|
|
<ele>-27.401868</ele>
|
|
<time>2026-07-10T11:43:58.000Z</time>
|
|
</trkpt>
|
|
<trkpt lat="54.962842" lon="8.694996">
|
|
<ele>-27.264748</ele>
|
|
<time>2026-07-10T11:44:36.000Z</time>
|
|
</trkpt>
|
|
<trkpt lat="54.962856" lon="8.695016">
|
|
<ele>-27.245287</ele>
|
|
<time>2026-07-10T11:44:37.000Z</time>
|
|
</trkpt>
|
|
<trkpt lat="54.962871" lon="8.695034">
|
|
<ele>-27.225710</ele>
|
|
<time>2026-07-10T11:44:38.000Z</time>
|
|
</trkpt>
|
|
<trkpt lat="54.962882" lon="8.695032">
|
|
<ele>-27.213823</ele>
|
|
<time>2026-07-10T11:44:39.000Z</time>
|
|
</trkpt>
|
|
<trkpt lat="54.962892" lon="8.695011">
|
|
<ele>-27.196988</ele>
|
|
<time>2026-07-10T11:44:40.000Z</time>
|
|
</trkpt>
|
|
<trkpt lat="54.962896" lon="8.694982">
|
|
<ele>-27.178584</ele>
|
|
<time>2026-07-10T11:44:41.000Z</time>
|
|
</trkpt>
|
|
<trkpt lat="54.962898" lon="8.694946">
|
|
<ele>-27.156267</ele>
|
|
<time>2026-07-10T11:44:42.000Z</time>
|
|
</trkpt>
|
|
<trkpt lat="54.962899" lon="8.694909">
|
|
<ele>-27.133411</ele>
|
|
<time>2026-07-10T11:44:43.000Z</time>
|
|
</trkpt>
|
|
<trkpt lat="54.962903" lon="8.694872">
|
|
<ele>-27.110179</ele>
|
|
<time>2026-07-10T11:44:44.000Z</time>
|
|
</trkpt>
|
|
<trkpt lat="54.962906" lon="8.694833">
|
|
<ele>-27.085900</ele>
|
|
<time>2026-07-10T11:44:45.000Z</time>
|
|
</trkpt>
|
|
<trkpt lat="54.962908" lon="8.694794">
|
|
<ele>-27.061739</ele>
|
|
<time>2026-07-10T11:44:46.000Z</time>
|
|
</trkpt>
|
|
<trkpt lat="54.962916" lon="8.694759">
|
|
<ele>-27.038494</ele>
|
|
<time>2026-07-10T11:44:47.000Z</time>
|
|
</trkpt>
|
|
<trkpt lat="54.962923" lon="8.694723">
|
|
<ele>-27.015041</ele>
|
|
<time>2026-07-10T11:44:48.000Z</time>
|
|
</trkpt>
|
|
<trkpt lat="54.962932" lon="8.694686">
|
|
<ele>-26.990245</ele>
|
|
<time>2026-07-10T11:44:49.000Z</time>
|
|
</trkpt>
|
|
<trkpt lat="54.962941" lon="8.694648">
|
|
<ele>-26.964881</ele>
|
|
<time>2026-07-10T11:44:50.000Z</time>
|
|
</trkpt>
|
|
<trkpt lat="54.962946" lon="8.694608">
|
|
<ele>-26.939621</ele>
|
|
<time>2026-07-10T11:44:51.000Z</time>
|
|
</trkpt>
|
|
<trkpt lat="54.962953" lon="8.694568">
|
|
<ele>-26.913818</ele>
|
|
<time>2026-07-10T11:44:52.000Z</time>
|
|
</trkpt>
|
|
<trkpt lat="54.962956" lon="8.694535">
|
|
<ele>-26.893202</ele>
|
|
<time>2026-07-10T11:44:53.000Z</time>
|
|
</trkpt>
|
|
<trkpt lat="54.962960" lon="8.694502">
|
|
<ele>-26.872391</ele>
|
|
<time>2026-07-10T11:44:54.000Z</time>
|
|
</trkpt>
|
|
<trkpt lat="54.962963" lon="8.694470">
|
|
<ele>-26.852384</ele>
|
|
<time>2026-07-10T11:44:55.000Z</time>
|
|
</trkpt>
|
|
<trkpt lat="54.962964" lon="8.694441">
|
|
<ele>-26.834457</ele>
|
|
<time>2026-07-10T11:44:56.000Z</time>
|
|
</trkpt>
|
|
<trkpt lat="54.962969" lon="8.694410">
|
|
<ele>-26.814588</ele>
|
|
<time>2026-07-10T11:44:57.000Z</time>
|
|
</trkpt>
|
|
<trkpt lat="54.962974" lon="8.694382">
|
|
<ele>-26.796495</ele>
|
|
<time>2026-07-10T11:44:58.000Z</time>
|
|
</trkpt>
|
|
<trkpt lat="54.962973" lon="8.694350">
|
|
<ele>-26.776720</ele>
|
|
<time>2026-07-10T11:44:59.000Z</time>
|
|
</trkpt>
|
|
<trkpt lat="54.962982" lon="8.694316">
|
|
<ele>-26.753618</ele>
|
|
<time>2026-07-10T11:45:00.000Z</time>
|
|
</trkpt>
|
|
<trkpt lat="54.962995" lon="8.694289">
|
|
<ele>-26.731874</ele>
|
|
<time>2026-07-10T11:45:01.000Z</time>
|
|
</trkpt>
|
|
<trkpt lat="54.963016" lon="8.694277">
|
|
<ele>-26.708120</ele>
|
|
<time>2026-07-10T11:45:02.000Z</time>
|
|
</trkpt>
|
|
<trkpt lat="54.963039" lon="8.694270">
|
|
<ele>-26.683026</ele>
|
|
<time>2026-07-10T11:45:03.000Z</time>
|
|
</trkpt>
|
|
<trkpt lat="54.963063" lon="8.694265">
|
|
<ele>-26.657047</ele>
|
|
<time>2026-07-10T11:45:04.000Z</time>
|
|
</trkpt>
|
|
<trkpt lat="54.963086" lon="8.694258">
|
|
<ele>-26.631952</ele>
|
|
<time>2026-07-10T11:45:05.000Z</time>
|
|
</trkpt>
|
|
<trkpt lat="54.963106" lon="8.694250">
|
|
<ele>-26.609897</ele>
|
|
<time>2026-07-10T11:45:06.000Z</time>
|
|
</trkpt>
|
|
<trkpt lat="54.963123" lon="8.694244">
|
|
<ele>-26.591254</ele>
|
|
<time>2026-07-10T11:45:07.000Z</time>
|
|
</trkpt>
|
|
<trkpt lat="54.963138" lon="8.694245">
|
|
<ele>-26.575121</ele>
|
|
<time>2026-07-10T11:45:08.000Z</time>
|
|
</trkpt>
|
|
<trkpt lat="54.963148" lon="8.694244">
|
|
<ele>-26.564355</ele>
|
|
<time>2026-07-10T11:45:09.000Z</time>
|
|
</trkpt>
|
|
<trkpt lat="54.963155" lon="8.694240">
|
|
<ele>-26.556437</ele>
|
|
<time>2026-07-10T11:45:10.000Z</time>
|
|
</trkpt>
|
|
<trkpt lat="54.963159" lon="8.694236">
|
|
<ele>-26.551480</ele>
|
|
<time>2026-07-10T11:45:11.000Z</time>
|
|
</trkpt>
|
|
<trkpt lat="54.963161" lon="8.694234">
|
|
<ele>-26.549001</ele>
|
|
<time>2026-07-10T11:45:12.000Z</time>
|
|
</trkpt>
|
|
<trkpt lat="54.963161" lon="8.694235">
|
|
<ele>-26.548384</ele>
|
|
<time>2026-07-10T11:45:13.000Z</time>
|
|
</trkpt>
|
|
<trkpt lat="54.963168" lon="8.694239">
|
|
<ele>-26.540466</ele>
|
|
<time>2026-07-10T11:45:43.000Z</time>
|
|
</trkpt>
|
|
<trkpt lat="54.963191" lon="8.694251">
|
|
<ele>-26.514661</ele>
|
|
<time>2026-07-10T11:45:44.000Z</time>
|
|
</trkpt>
|
|
<trkpt lat="54.963202" lon="8.694247">
|
|
<ele>-26.502583</ele>
|
|
<time>2026-07-10T11:45:45.000Z</time>
|
|
</trkpt>
|
|
<trkpt lat="54.963210" lon="8.694240">
|
|
<ele>-26.492961</ele>
|
|
<time>2026-07-10T11:45:46.000Z</time>
|
|
</trkpt>
|
|
<trkpt lat="54.963222" lon="8.694225">
|
|
<ele>-26.477086</ele>
|
|
<time>2026-07-10T11:45:47.000Z</time>
|
|
</trkpt>
|
|
<trkpt lat="54.963235" lon="8.694210">
|
|
<ele>-26.460326</ele>
|
|
<time>2026-07-10T11:45:48.000Z</time>
|
|
</trkpt>
|
|
<trkpt lat="54.963251" lon="8.694202">
|
|
<ele>-26.442435</ele>
|
|
<time>2026-07-10T11:45:49.000Z</time>
|
|
</trkpt>
|
|
<trkpt lat="54.963273" lon="8.694195">
|
|
<ele>-26.418399</ele>
|
|
<time>2026-07-10T11:45:50.000Z</time>
|
|
</trkpt>
|
|
<trkpt lat="54.963294" lon="8.694185">
|
|
<ele>-26.395000</ele>
|
|
<time>2026-07-10T11:45:51.000Z</time>
|
|
</trkpt>
|
|
<trkpt lat="54.963315" lon="8.694174">
|
|
<ele>-26.371431</ele>
|
|
<time>2026-07-10T11:45:52.000Z</time>
|
|
</trkpt>
|
|
<trkpt lat="54.963333" lon="8.694166">
|
|
<ele>-26.351465</ele>
|
|
<time>2026-07-10T11:45:53.000Z</time>
|
|
</trkpt>
|
|
<trkpt lat="54.963350" lon="8.694156">
|
|
<ele>-26.332180</ele>
|
|
<time>2026-07-10T11:45:54.000Z</time>
|
|
</trkpt>
|
|
<trkpt lat="54.963382" lon="8.694142">
|
|
<ele>-26.296718</ele>
|
|
<time>2026-07-10T11:45:55.000Z</time>
|
|
</trkpt>
|
|
<trkpt lat="54.963405" lon="8.694132">
|
|
<ele>-26.271239</ele>
|
|
<time>2026-07-10T11:45:56.000Z</time>
|
|
</trkpt>
|
|
<trkpt lat="54.963431" lon="8.694122">
|
|
<ele>-26.242622</ele>
|
|
<time>2026-07-10T11:45:57.000Z</time>
|
|
</trkpt>
|
|
<trkpt lat="54.963453" lon="8.694111">
|
|
<ele>-26.218022</ele>
|
|
<time>2026-07-10T11:45:58.000Z</time>
|
|
</trkpt>
|
|
<trkpt lat="54.963473" lon="8.694101">
|
|
<ele>-26.195658</ele>
|
|
<time>2026-07-10T11:45:59.000Z</time>
|
|
</trkpt>
|
|
<trkpt lat="54.963495" lon="8.694095">
|
|
<ele>-26.171724</ele>
|
|
<time>2026-07-10T11:46:00.000Z</time>
|
|
</trkpt>
|
|
<trkpt lat="54.963514" lon="8.694089">
|
|
<ele>-26.150970</ele>
|
|
<time>2026-07-10T11:46:01.000Z</time>
|
|
</trkpt>
|
|
<trkpt lat="54.963537" lon="8.694085">
|
|
<ele>-26.126127</ele>
|
|
<time>2026-07-10T11:46:02.000Z</time>
|
|
</trkpt>
|
|
<trkpt lat="54.963561" lon="8.694074">
|
|
<ele>-26.099454</ele>
|
|
<time>2026-07-10T11:46:03.000Z</time>
|
|
</trkpt>
|
|
<trkpt lat="54.963588" lon="8.694062">
|
|
<ele>-26.069505</ele>
|
|
<time>2026-07-10T11:46:04.000Z</time>
|
|
</trkpt>
|
|
<trkpt lat="54.963614" lon="8.694048">
|
|
<ele>-26.040256</ele>
|
|
<time>2026-07-10T11:46:05.000Z</time>
|
|
</trkpt>
|
|
<trkpt lat="54.963637" lon="8.694033">
|
|
<ele>-26.013860</ele>
|
|
<time>2026-07-10T11:46:06.000Z</time>
|
|
</trkpt>
|
|
<trkpt lat="54.963660" lon="8.694022">
|
|
<ele>-25.988225</ele>
|
|
<time>2026-07-10T11:46:07.000Z</time>
|
|
</trkpt>
|
|
<trkpt lat="54.963683" lon="8.694014">
|
|
<ele>-25.963017</ele>
|
|
<time>2026-07-10T11:46:08.000Z</time>
|
|
</trkpt>
|
|
<trkpt lat="54.963704" lon="8.694011">
|
|
<ele>-25.940371</ele>
|
|
<time>2026-07-10T11:46:09.000Z</time>
|
|
</trkpt>
|
|
<trkpt lat="54.963728" lon="8.694008">
|
|
<ele>-25.914509</ele>
|
|
<time>2026-07-10T11:46:10.000Z</time>
|
|
</trkpt>
|
|
<trkpt lat="54.963751" lon="8.694011">
|
|
<ele>-25.889720</ele>
|
|
<time>2026-07-10T11:46:11.000Z</time>
|
|
</trkpt>
|
|
<trkpt lat="54.963779" lon="8.694014">
|
|
<ele>-25.859569</ele>
|
|
<time>2026-07-10T11:46:12.000Z</time>
|
|
</trkpt>
|
|
<trkpt lat="54.963807" lon="8.694018">
|
|
<ele>-25.829374</ele>
|
|
<time>2026-07-10T11:46:13.000Z</time>
|
|
</trkpt>
|
|
<trkpt lat="54.963837" lon="8.694026">
|
|
<ele>-25.796754</ele>
|
|
<time>2026-07-10T11:46:14.000Z</time>
|
|
</trkpt>
|
|
<trkpt lat="54.963865" lon="8.694036">
|
|
<ele>-25.766034</ele>
|
|
<time>2026-07-10T11:46:15.000Z</time>
|
|
</trkpt>
|
|
<trkpt lat="54.963890" lon="8.694045">
|
|
<ele>-25.738597</ele>
|
|
<time>2026-07-10T11:46:16.000Z</time>
|
|
</trkpt>
|
|
<trkpt lat="54.963913" lon="8.694054">
|
|
<ele>-25.713260</ele>
|
|
<time>2026-07-10T11:46:17.000Z</time>
|
|
</trkpt>
|
|
<trkpt lat="54.963933" lon="8.694067">
|
|
<ele>-25.690317</ele>
|
|
<time>2026-07-10T11:46:18.000Z</time>
|
|
</trkpt>
|
|
<trkpt lat="54.963951" lon="8.694081">
|
|
<ele>-25.677786</ele>
|
|
<time>2026-07-10T11:46:19.000Z</time>
|
|
</trkpt>
|
|
<trkpt lat="54.963980" lon="8.694107">
|
|
<ele>-25.663468</ele>
|
|
<time>2026-07-10T11:46:20.000Z</time>
|
|
</trkpt>
|
|
<trkpt lat="54.964004" lon="8.694126">
|
|
<ele>-25.651895</ele>
|
|
<time>2026-07-10T11:46:21.000Z</time>
|
|
</trkpt>
|
|
<trkpt lat="54.964030" lon="8.694143">
|
|
<ele>-25.639704</ele>
|
|
<time>2026-07-10T11:46:22.000Z</time>
|
|
</trkpt>
|
|
<trkpt lat="54.964052" lon="8.694161">
|
|
<ele>-25.629034</ele>
|
|
<time>2026-07-10T11:46:23.000Z</time>
|
|
</trkpt>
|
|
<trkpt lat="54.964071" lon="8.694184">
|
|
<ele>-25.618877</ele>
|
|
<time>2026-07-10T11:46:24.000Z</time>
|
|
</trkpt>
|
|
<trkpt lat="54.964091" lon="8.694209">
|
|
<ele>-25.608071</ele>
|
|
<time>2026-07-10T11:46:25.000Z</time>
|
|
</trkpt>
|
|
<trkpt lat="54.964106" lon="8.694239">
|
|
<ele>-25.598045</ele>
|
|
<time>2026-07-10T11:46:26.000Z</time>
|
|
</trkpt>
|
|
<trkpt lat="54.964120" lon="8.694270">
|
|
<ele>-25.588105</ele>
|
|
<time>2026-07-10T11:46:27.000Z</time>
|
|
</trkpt>
|
|
<trkpt lat="54.964138" lon="8.694298">
|
|
<ele>-25.577511</ele>
|
|
<time>2026-07-10T11:46:28.000Z</time>
|
|
</trkpt>
|
|
<trkpt lat="54.964151" lon="8.694322">
|
|
<ele>-25.569196</ele>
|
|
<time>2026-07-10T11:46:29.000Z</time>
|
|
</trkpt>
|
|
<trkpt lat="54.964159" lon="8.694351">
|
|
<ele>-25.561087</ele>
|
|
<time>2026-07-10T11:46:30.000Z</time>
|
|
</trkpt>
|
|
<trkpt lat="54.964167" lon="8.694375">
|
|
<ele>-25.554093</ele>
|
|
<time>2026-07-10T11:46:31.000Z</time>
|
|
</trkpt>
|
|
<trkpt lat="54.964175" lon="8.694389">
|
|
<ele>-25.549115</ele>
|
|
<time>2026-07-10T11:46:32.000Z</time>
|
|
</trkpt>
|
|
<trkpt lat="54.964188" lon="8.694389">
|
|
<ele>-25.543408</ele>
|
|
<time>2026-07-10T11:46:33.000Z</time>
|
|
</trkpt>
|
|
<trkpt lat="54.964201" lon="8.694376">
|
|
<ele>-25.536828</ele>
|
|
<time>2026-07-10T11:46:34.000Z</time>
|
|
</trkpt>
|
|
<trkpt lat="54.964207" lon="8.694354">
|
|
<ele>-25.530690</ele>
|
|
<time>2026-07-10T11:46:35.000Z</time>
|
|
</trkpt>
|
|
<trkpt lat="54.964206" lon="8.694331">
|
|
<ele>-25.524877</ele>
|
|
<time>2026-07-10T11:46:36.000Z</time>
|
|
</trkpt>
|
|
<trkpt lat="54.964200" lon="8.694311">
|
|
<ele>-25.519190</ele>
|
|
<time>2026-07-10T11:46:37.000Z</time>
|
|
</trkpt>
|
|
<trkpt lat="54.964189" lon="8.694292">
|
|
<ele>-25.512390</ele>
|
|
<time>2026-07-10T11:46:38.000Z</time>
|
|
</trkpt>
|
|
<trkpt lat="54.964178" lon="8.694273">
|
|
<ele>-25.505589</ele>
|
|
<time>2026-07-10T11:46:39.000Z</time>
|
|
</trkpt>
|
|
<trkpt lat="54.964168" lon="8.694245">
|
|
<ele>-25.497279</ele>
|
|
<time>2026-07-10T11:46:40.000Z</time>
|
|
</trkpt>
|
|
<trkpt lat="54.964165" lon="8.694218">
|
|
<ele>-25.490348</ele>
|
|
<time>2026-07-10T11:46:41.000Z</time>
|
|
</trkpt>
|
|
<trkpt lat="54.964166" lon="8.694184">
|
|
<ele>-25.481768</ele>
|
|
<time>2026-07-10T11:46:42.000Z</time>
|
|
</trkpt>
|
|
<trkpt lat="54.964169" lon="8.694156">
|
|
<ele>-25.474590</ele>
|
|
<time>2026-07-10T11:46:43.000Z</time>
|
|
</trkpt>
|
|
<trkpt lat="54.964174" lon="8.694124">
|
|
<ele>-25.466232</ele>
|
|
<time>2026-07-10T11:46:44.000Z</time>
|
|
</trkpt>
|
|
<trkpt lat="54.964181" lon="8.694104">
|
|
<ele>-25.460329</ele>
|
|
<time>2026-07-10T11:46:45.000Z</time>
|
|
</trkpt>
|
|
<trkpt lat="54.964185" lon="8.694088">
|
|
<ele>-25.455931</ele>
|
|
<time>2026-07-10T11:46:46.000Z</time>
|
|
</trkpt>
|
|
<trkpt lat="54.964214" lon="8.694112">
|
|
<ele>-25.441837</ele>
|
|
<time>2026-07-10T11:51:56.000Z</time>
|
|
</trkpt>
|
|
<trkpt lat="54.964212" lon="8.694135">
|
|
<ele>-25.435974</ele>
|
|
<time>2026-07-10T11:51:57.000Z</time>
|
|
</trkpt>
|
|
<trkpt lat="54.964204" lon="8.694158">
|
|
<ele>-25.429197</ele>
|
|
<time>2026-07-10T11:51:58.000Z</time>
|
|
</trkpt>
|
|
<trkpt lat="54.964198" lon="8.694180">
|
|
<ele>-25.423059</ele>
|
|
<time>2026-07-10T11:51:59.000Z</time>
|
|
</trkpt>
|
|
<trkpt lat="54.964195" lon="8.694204">
|
|
<ele>-25.416869</ele>
|
|
<time>2026-07-10T11:52:00.000Z</time>
|
|
</trkpt>
|
|
<trkpt lat="54.964195" lon="8.694221">
|
|
<ele>-25.412585</ele>
|
|
<time>2026-07-10T11:52:01.000Z</time>
|
|
</trkpt>
|
|
<trkpt lat="54.964196" lon="8.694245">
|
|
<ele>-25.406520</ele>
|
|
<time>2026-07-10T11:52:02.000Z</time>
|
|
</trkpt>
|
|
<trkpt lat="54.964201" lon="8.694265">
|
|
<ele>-25.401023</ele>
|
|
<time>2026-07-10T11:52:03.000Z</time>
|
|
</trkpt>
|
|
<trkpt lat="54.964208" lon="8.694286">
|
|
<ele>-25.394903</ele>
|
|
<time>2026-07-10T11:52:04.000Z</time>
|
|
</trkpt>
|
|
<trkpt lat="54.964212" lon="8.694311">
|
|
<ele>-25.388363</ele>
|
|
<time>2026-07-10T11:52:05.000Z</time>
|
|
</trkpt>
|
|
<trkpt lat="54.964213" lon="8.694339">
|
|
<ele>-25.381293</ele>
|
|
<time>2026-07-10T11:52:06.000Z</time>
|
|
</trkpt>
|
|
<trkpt lat="54.964211" lon="8.694372">
|
|
<ele>-25.372930</ele>
|
|
<time>2026-07-10T11:52:07.000Z</time>
|
|
</trkpt>
|
|
<trkpt lat="54.964210" lon="8.694411">
|
|
<ele>-25.363092</ele>
|
|
<time>2026-07-10T11:52:08.000Z</time>
|
|
</trkpt>
|
|
<trkpt lat="54.964207" lon="8.694452">
|
|
<ele>-25.352675</ele>
|
|
<time>2026-07-10T11:52:09.000Z</time>
|
|
</trkpt>
|
|
<trkpt lat="54.964206" lon="8.694495">
|
|
<ele>-25.341830</ele>
|
|
<time>2026-07-10T11:52:10.000Z</time>
|
|
</trkpt>
|
|
<trkpt lat="54.964201" lon="8.694538">
|
|
<ele>-25.330773</ele>
|
|
<time>2026-07-10T11:52:11.000Z</time>
|
|
</trkpt>
|
|
<trkpt lat="54.964194" lon="8.694584">
|
|
<ele>-25.318780</ele>
|
|
<time>2026-07-10T11:52:12.000Z</time>
|
|
</trkpt>
|
|
<trkpt lat="54.964188" lon="8.694631">
|
|
<ele>-25.306646</ele>
|
|
<time>2026-07-10T11:52:13.000Z</time>
|
|
</trkpt>
|
|
<trkpt lat="54.964177" lon="8.694678">
|
|
<ele>-25.293855</ele>
|
|
<time>2026-07-10T11:52:14.000Z</time>
|
|
</trkpt>
|
|
<trkpt lat="54.964168" lon="8.694724">
|
|
<ele>-25.281608</ele>
|
|
<time>2026-07-10T11:52:15.000Z</time>
|
|
</trkpt>
|
|
<trkpt lat="54.964161" lon="8.694775">
|
|
<ele>-25.268393</ele>
|
|
<time>2026-07-10T11:52:16.000Z</time>
|
|
</trkpt>
|
|
<trkpt lat="54.964157" lon="8.694826">
|
|
<ele>-25.255421</ele>
|
|
<time>2026-07-10T11:52:17.000Z</time>
|
|
</trkpt>
|
|
<trkpt lat="54.964150" lon="8.694875">
|
|
<ele>-25.242695</ele>
|
|
<time>2026-07-10T11:52:18.000Z</time>
|
|
</trkpt>
|
|
<trkpt lat="54.964142" lon="8.694932">
|
|
<ele>-25.227907</ele>
|
|
<time>2026-07-10T11:52:19.000Z</time>
|
|
</trkpt>
|
|
<trkpt lat="54.964135" lon="8.694978">
|
|
<ele>-25.215914</ele>
|
|
<time>2026-07-10T11:52:20.000Z</time>
|
|
</trkpt>
|
|
<trkpt lat="54.964127" lon="8.695037">
|
|
<ele>-25.200636</ele>
|
|
<time>2026-07-10T11:52:21.000Z</time>
|
|
</trkpt>
|
|
<trkpt lat="54.964112" lon="8.695096">
|
|
<ele>-25.184375</ele>
|
|
<time>2026-07-10T11:52:22.000Z</time>
|
|
</trkpt>
|
|
<trkpt lat="54.964099" lon="8.695150">
|
|
<ele>-25.169618</ele>
|
|
<time>2026-07-10T11:52:23.000Z</time>
|
|
</trkpt>
|
|
<trkpt lat="54.964085" lon="8.695197">
|
|
<ele>-25.156273</ele>
|
|
<time>2026-07-10T11:52:24.000Z</time>
|
|
</trkpt>
|
|
<trkpt lat="54.964070" lon="8.695248">
|
|
<ele>-25.141832</ele>
|
|
<time>2026-07-10T11:52:25.000Z</time>
|
|
</trkpt>
|
|
<trkpt lat="54.964054" lon="8.695302">
|
|
<ele>-25.126518</ele>
|
|
<time>2026-07-10T11:52:26.000Z</time>
|
|
</trkpt>
|
|
<trkpt lat="54.964046" lon="8.695360">
|
|
<ele>-25.111485</ele>
|
|
<time>2026-07-10T11:52:27.000Z</time>
|
|
</trkpt>
|
|
<trkpt lat="54.964037" lon="8.695408">
|
|
<ele>-25.098759</ele>
|
|
<time>2026-07-10T11:52:28.000Z</time>
|
|
</trkpt>
|
|
<trkpt lat="54.964023" lon="8.695481">
|
|
<ele>-25.079363</ele>
|
|
<time>2026-07-10T11:52:29.000Z</time>
|
|
</trkpt>
|
|
<trkpt lat="54.964017" lon="8.695528">
|
|
<ele>-25.067229</ele>
|
|
<time>2026-07-10T11:52:30.000Z</time>
|
|
</trkpt>
|
|
<trkpt lat="54.964009" lon="8.695581">
|
|
<ele>-25.053418</ele>
|
|
<time>2026-07-10T11:52:31.000Z</time>
|
|
</trkpt>
|
|
<trkpt lat="54.963991" lon="8.695638">
|
|
<ele>-25.037023</ele>
|
|
<time>2026-07-10T11:52:32.000Z</time>
|
|
</trkpt>
|
|
<trkpt lat="54.963978" lon="8.695697">
|
|
<ele>-25.021097</ele>
|
|
<time>2026-07-10T11:52:33.000Z</time>
|
|
</trkpt>
|
|
<trkpt lat="54.963970" lon="8.695751">
|
|
<ele>-25.007042</ele>
|
|
<time>2026-07-10T11:52:34.000Z</time>
|
|
</trkpt>
|
|
<trkpt lat="54.963959" lon="8.695805">
|
|
<ele>-24.992602</ele>
|
|
<time>2026-07-10T11:52:35.000Z</time>
|
|
</trkpt>
|
|
<trkpt lat="54.963952" lon="8.695851">
|
|
<ele>-24.980609</ele>
|
|
<time>2026-07-10T11:52:36.000Z</time>
|
|
</trkpt>
|
|
<trkpt lat="54.963948" lon="8.695905">
|
|
<ele>-24.966887</ele>
|
|
<time>2026-07-10T11:52:37.000Z</time>
|
|
</trkpt>
|
|
<trkpt lat="54.963944" lon="8.695959">
|
|
<ele>-24.953165</ele>
|
|
<time>2026-07-10T11:52:38.000Z</time>
|
|
</trkpt>
|
|
<trkpt lat="54.963940" lon="8.696017">
|
|
<ele>-24.938443</ele>
|
|
<time>2026-07-10T11:52:39.000Z</time>
|
|
</trkpt>
|
|
<trkpt lat="54.963931" lon="8.696073">
|
|
<ele>-24.923788</ele>
|
|
<time>2026-07-10T11:52:40.000Z</time>
|
|
</trkpt>
|
|
<trkpt lat="54.963912" lon="8.696139">
|
|
<ele>-24.905181</ele>
|
|
<time>2026-07-10T11:52:41.000Z</time>
|
|
</trkpt>
|
|
<trkpt lat="54.963898" lon="8.696208">
|
|
<ele>-24.895045</ele>
|
|
<time>2026-07-10T11:52:42.000Z</time>
|
|
</trkpt>
|
|
<trkpt lat="54.963885" lon="8.696260">
|
|
<ele>-24.896685</ele>
|
|
<time>2026-07-10T11:52:43.000Z</time>
|
|
</trkpt>
|
|
<trkpt lat="54.963870" lon="8.696322">
|
|
<ele>-24.898630</ele>
|
|
<time>2026-07-10T11:52:44.000Z</time>
|
|
</trkpt>
|
|
<trkpt lat="54.963854" lon="8.696378">
|
|
<ele>-24.900439</ele>
|
|
<time>2026-07-10T11:52:45.000Z</time>
|
|
</trkpt>
|
|
<trkpt lat="54.963838" lon="8.696432">
|
|
<ele>-24.902196</ele>
|
|
<time>2026-07-10T11:52:46.000Z</time>
|
|
</trkpt>
|
|
<trkpt lat="54.963823" lon="8.696485">
|
|
<ele>-24.903905</ele>
|
|
<time>2026-07-10T11:52:47.000Z</time>
|
|
</trkpt>
|
|
<trkpt lat="54.963805" lon="8.696536">
|
|
<ele>-24.905636</ele>
|
|
<time>2026-07-10T11:52:48.000Z</time>
|
|
</trkpt>
|
|
<trkpt lat="54.963790" lon="8.696596">
|
|
<ele>-24.907528</ele>
|
|
<time>2026-07-10T11:52:49.000Z</time>
|
|
</trkpt>
|
|
<trkpt lat="54.963780" lon="8.696652">
|
|
<ele>-24.909224</ele>
|
|
<time>2026-07-10T11:52:50.000Z</time>
|
|
</trkpt>
|
|
<trkpt lat="54.963767" lon="8.696722">
|
|
<ele>-24.911351</ele>
|
|
<time>2026-07-10T11:52:51.000Z</time>
|
|
</trkpt>
|
|
<trkpt lat="54.963752" lon="8.696779">
|
|
<ele>-24.913164</ele>
|
|
<time>2026-07-10T11:52:52.000Z</time>
|
|
</trkpt>
|
|
<trkpt lat="54.963741" lon="8.696841">
|
|
<ele>-24.915040</ele>
|
|
<time>2026-07-10T11:52:53.000Z</time>
|
|
</trkpt>
|
|
<trkpt lat="54.963730" lon="8.696906">
|
|
<ele>-24.917000</ele>
|
|
<time>2026-07-10T11:52:54.000Z</time>
|
|
</trkpt>
|
|
<trkpt lat="54.963715" lon="8.696977">
|
|
<ele>-24.919187</ele>
|
|
<time>2026-07-10T11:52:55.000Z</time>
|
|
</trkpt>
|
|
<trkpt lat="54.963706" lon="8.697040">
|
|
<ele>-24.921064</ele>
|
|
<time>2026-07-10T11:52:56.000Z</time>
|
|
</trkpt>
|
|
<trkpt lat="54.963694" lon="8.697101">
|
|
<ele>-24.922929</ele>
|
|
<time>2026-07-10T11:52:57.000Z</time>
|
|
</trkpt>
|
|
<trkpt lat="54.963682" lon="8.697161">
|
|
<ele>-24.924766</ele>
|
|
<time>2026-07-10T11:52:58.000Z</time>
|
|
</trkpt>
|
|
<trkpt lat="54.963666" lon="8.697224">
|
|
<ele>-24.926758</ele>
|
|
<time>2026-07-10T11:52:59.000Z</time>
|
|
</trkpt>
|
|
<trkpt lat="54.963648" lon="8.697290">
|
|
<ele>-24.928871</ele>
|
|
<time>2026-07-10T11:53:00.000Z</time>
|
|
</trkpt>
|
|
<trkpt lat="54.963634" lon="8.697350">
|
|
<ele>-24.930744</ele>
|
|
<time>2026-07-10T11:53:01.000Z</time>
|
|
</trkpt>
|
|
<trkpt lat="54.963622" lon="8.697400">
|
|
<ele>-24.932311</ele>
|
|
<time>2026-07-10T11:53:02.000Z</time>
|
|
</trkpt>
|
|
<trkpt lat="54.963608" lon="8.697454">
|
|
<ele>-24.934024</ele>
|
|
<time>2026-07-10T11:53:03.000Z</time>
|
|
</trkpt>
|
|
<trkpt lat="54.963593" lon="8.697510">
|
|
<ele>-24.935811</ele>
|
|
<time>2026-07-10T11:53:04.000Z</time>
|
|
</trkpt>
|
|
<trkpt lat="54.963580" lon="8.697565">
|
|
<ele>-24.937530</ele>
|
|
<time>2026-07-10T11:53:05.000Z</time>
|
|
</trkpt>
|
|
<trkpt lat="54.963566" lon="8.697619">
|
|
<ele>-24.939244</ele>
|
|
<time>2026-07-10T11:53:06.000Z</time>
|
|
</trkpt>
|
|
<trkpt lat="54.963553" lon="8.697666">
|
|
<ele>-24.940752</ele>
|
|
<time>2026-07-10T11:53:07.000Z</time>
|
|
</trkpt>
|
|
<trkpt lat="54.963547" lon="8.697707">
|
|
<ele>-24.941976</ele>
|
|
<time>2026-07-10T11:53:08.000Z</time>
|
|
</trkpt>
|
|
<trkpt lat="54.963552" lon="8.697758">
|
|
<ele>-24.943472</ele>
|
|
<time>2026-07-10T11:53:09.000Z</time>
|
|
</trkpt>
|
|
<trkpt lat="54.963559" lon="8.697773">
|
|
<ele>-24.944031</ele>
|
|
<time>2026-07-10T11:53:10.000Z</time>
|
|
</trkpt>
|
|
<trkpt lat="54.963580" lon="8.697802">
|
|
<ele>-24.945380</ele>
|
|
<time>2026-07-10T11:53:11.000Z</time>
|
|
</trkpt>
|
|
<trkpt lat="54.963589" lon="8.697814">
|
|
<ele>-24.945951</ele>
|
|
<time>2026-07-10T11:53:12.000Z</time>
|
|
</trkpt>
|
|
<trkpt lat="54.963615" lon="8.697842">
|
|
<ele>-24.947491</ele>
|
|
<time>2026-07-10T11:53:13.000Z</time>
|
|
</trkpt>
|
|
<trkpt lat="54.963629" lon="8.697854">
|
|
<ele>-24.948277</ele>
|
|
<time>2026-07-10T11:53:14.000Z</time>
|
|
</trkpt>
|
|
<trkpt lat="54.963671" lon="8.697882">
|
|
<ele>-24.950542</ele>
|
|
<time>2026-07-10T11:53:15.000Z</time>
|
|
</trkpt>
|
|
<trkpt lat="54.963699" lon="8.697897">
|
|
<ele>-24.952017</ele>
|
|
<time>2026-07-10T11:53:16.000Z</time>
|
|
</trkpt>
|
|
<trkpt lat="54.963726" lon="8.697912">
|
|
<ele>-24.953444</ele>
|
|
<time>2026-07-10T11:53:17.000Z</time>
|
|
</trkpt>
|
|
<trkpt lat="54.963753" lon="8.697924">
|
|
<ele>-24.954848</ele>
|
|
<time>2026-07-10T11:53:18.000Z</time>
|
|
</trkpt>
|
|
<trkpt lat="54.963778" lon="8.697937">
|
|
<ele>-24.956162</ele>
|
|
<time>2026-07-10T11:53:19.000Z</time>
|
|
</trkpt>
|
|
<trkpt lat="54.963798" lon="8.697948">
|
|
<ele>-24.957218</ele>
|
|
<time>2026-07-10T11:53:20.000Z</time>
|
|
</trkpt>
|
|
<trkpt lat="54.963820" lon="8.697960">
|
|
<ele>-24.958379</ele>
|
|
<time>2026-07-10T11:53:21.000Z</time>
|
|
</trkpt>
|
|
<trkpt lat="54.963840" lon="8.697970">
|
|
<ele>-24.959427</ele>
|
|
<time>2026-07-10T11:53:22.000Z</time>
|
|
</trkpt>
|
|
<trkpt lat="54.963883" lon="8.697996">
|
|
<ele>-24.961720</ele>
|
|
<time>2026-07-10T11:53:57.000Z</time>
|
|
</trkpt>
|
|
<trkpt lat="54.963898" lon="8.698001">
|
|
<ele>-24.962489</ele>
|
|
<time>2026-07-10T11:53:58.000Z</time>
|
|
</trkpt>
|
|
<trkpt lat="54.963913" lon="8.698002">
|
|
<ele>-24.963245</ele>
|
|
<time>2026-07-10T11:53:59.000Z</time>
|
|
</trkpt>
|
|
<trkpt lat="54.963929" lon="8.697992">
|
|
<ele>-24.964101</ele>
|
|
<time>2026-07-10T11:54:00.000Z</time>
|
|
</trkpt>
|
|
<trkpt lat="54.963942" lon="8.697967">
|
|
<ele>-24.965077</ele>
|
|
<time>2026-07-10T11:54:01.000Z</time>
|
|
</trkpt>
|
|
<trkpt lat="54.963950" lon="8.697928">
|
|
<ele>-24.966274</ele>
|
|
<time>2026-07-10T11:54:02.000Z</time>
|
|
</trkpt>
|
|
<trkpt lat="54.963962" lon="8.697881">
|
|
<ele>-24.967762</ele>
|
|
<time>2026-07-10T11:54:03.000Z</time>
|
|
</trkpt>
|
|
<trkpt lat="54.963972" lon="8.697832">
|
|
<ele>-24.969265</ele>
|
|
<time>2026-07-10T11:54:04.000Z</time>
|
|
</trkpt>
|
|
<trkpt lat="54.963981" lon="8.697779">
|
|
<ele>-24.970863</ele>
|
|
<time>2026-07-10T11:54:05.000Z</time>
|
|
</trkpt>
|
|
<trkpt lat="54.963991" lon="8.697724">
|
|
<ele>-24.972531</ele>
|
|
<time>2026-07-10T11:54:06.000Z</time>
|
|
</trkpt>
|
|
<trkpt lat="54.964000" lon="8.697662">
|
|
<ele>-24.974381</ele>
|
|
<time>2026-07-10T11:54:07.000Z</time>
|
|
</trkpt>
|
|
<trkpt lat="54.964012" lon="8.697599">
|
|
<ele>-24.976300</ele>
|
|
<time>2026-07-10T11:54:08.000Z</time>
|
|
</trkpt>
|
|
<trkpt lat="54.964024" lon="8.697538">
|
|
<ele>-24.978164</ele>
|
|
<time>2026-07-10T11:54:09.000Z</time>
|
|
</trkpt>
|
|
<trkpt lat="54.964038" lon="8.697473">
|
|
<ele>-24.980172</ele>
|
|
<time>2026-07-10T11:54:10.000Z</time>
|
|
</trkpt>
|
|
<trkpt lat="54.964051" lon="8.697403">
|
|
<ele>-24.982299</ele>
|
|
<time>2026-07-10T11:54:11.000Z</time>
|
|
</trkpt>
|
|
<trkpt lat="54.964065" lon="8.697331">
|
|
<ele>-24.984497</ele>
|
|
<time>2026-07-10T11:54:12.000Z</time>
|
|
</trkpt>
|
|
<trkpt lat="54.964077" lon="8.697263">
|
|
<ele>-24.984923</ele>
|
|
<time>2026-07-10T11:54:13.000Z</time>
|
|
</trkpt>
|
|
<trkpt lat="54.964093" lon="8.697188">
|
|
<ele>-24.985109</ele>
|
|
<time>2026-07-10T11:54:14.000Z</time>
|
|
</trkpt>
|
|
<trkpt lat="54.964108" lon="8.697114">
|
|
<ele>-24.985292</ele>
|
|
<time>2026-07-10T11:54:15.000Z</time>
|
|
</trkpt>
|
|
<trkpt lat="54.964123" lon="8.697041">
|
|
<ele>-24.985472</ele>
|
|
<time>2026-07-10T11:54:16.000Z</time>
|
|
</trkpt>
|
|
<trkpt lat="54.964139" lon="8.696965">
|
|
<ele>-24.985660</ele>
|
|
<time>2026-07-10T11:54:17.000Z</time>
|
|
</trkpt>
|
|
<trkpt lat="54.964153" lon="8.696896">
|
|
<ele>-24.985831</ele>
|
|
<time>2026-07-10T11:54:18.000Z</time>
|
|
</trkpt>
|
|
<trkpt lat="54.964167" lon="8.696832">
|
|
<ele>-24.985990</ele>
|
|
<time>2026-07-10T11:54:19.000Z</time>
|
|
</trkpt>
|
|
<trkpt lat="54.964183" lon="8.696754">
|
|
<ele>-24.986183</ele>
|
|
<time>2026-07-10T11:54:20.000Z</time>
|
|
</trkpt>
|
|
<trkpt lat="54.964198" lon="8.696673">
|
|
<ele>-24.986381</ele>
|
|
<time>2026-07-10T11:54:21.000Z</time>
|
|
</trkpt>
|
|
<trkpt lat="54.964213" lon="8.696598">
|
|
<ele>-24.986565</ele>
|
|
<time>2026-07-10T11:54:22.000Z</time>
|
|
</trkpt>
|
|
<trkpt lat="54.964228" lon="8.696523">
|
|
<ele>-24.986750</ele>
|
|
<time>2026-07-10T11:54:23.000Z</time>
|
|
</trkpt>
|
|
<trkpt lat="54.964241" lon="8.696457">
|
|
<ele>-24.986912</ele>
|
|
<time>2026-07-10T11:54:24.000Z</time>
|
|
</trkpt>
|
|
<trkpt lat="54.964258" lon="8.696372">
|
|
<ele>-24.987122</ele>
|
|
<time>2026-07-10T11:54:25.000Z</time>
|
|
</trkpt>
|
|
<trkpt lat="54.964271" lon="8.696305">
|
|
<ele>-24.987286</ele>
|
|
<time>2026-07-10T11:54:26.000Z</time>
|
|
</trkpt>
|
|
<trkpt lat="54.964284" lon="8.696235">
|
|
<ele>-24.987457</ele>
|
|
<time>2026-07-10T11:54:27.000Z</time>
|
|
</trkpt>
|
|
<trkpt lat="54.964296" lon="8.696153">
|
|
<ele>-24.987654</ele>
|
|
<time>2026-07-10T11:54:28.000Z</time>
|
|
</trkpt>
|
|
<trkpt lat="54.964308" lon="8.696085">
|
|
<ele>-24.987820</ele>
|
|
<time>2026-07-10T11:54:29.000Z</time>
|
|
</trkpt>
|
|
<trkpt lat="54.964322" lon="8.696013">
|
|
<ele>-24.987996</ele>
|
|
<time>2026-07-10T11:54:30.000Z</time>
|
|
</trkpt>
|
|
<trkpt lat="54.964338" lon="8.695927">
|
|
<ele>-24.988207</ele>
|
|
<time>2026-07-10T11:54:31.000Z</time>
|
|
</trkpt>
|
|
<trkpt lat="54.964353" lon="8.695846">
|
|
<ele>-24.988405</ele>
|
|
<time>2026-07-10T11:54:32.000Z</time>
|
|
</trkpt>
|
|
<trkpt lat="54.964366" lon="8.695776">
|
|
<ele>-24.988576</ele>
|
|
<time>2026-07-10T11:54:33.000Z</time>
|
|
</trkpt>
|
|
<trkpt lat="54.964380" lon="8.695702">
|
|
<ele>-24.988757</ele>
|
|
<time>2026-07-10T11:54:34.000Z</time>
|
|
</trkpt>
|
|
<trkpt lat="54.964395" lon="8.695615">
|
|
<ele>-24.988968</ele>
|
|
<time>2026-07-10T11:54:35.000Z</time>
|
|
</trkpt>
|
|
<trkpt lat="54.964414" lon="8.695509">
|
|
<ele>-24.989227</ele>
|
|
<time>2026-07-10T11:54:36.000Z</time>
|
|
</trkpt>
|
|
<trkpt lat="54.964435" lon="8.695400">
|
|
<ele>-24.989494</ele>
|
|
<time>2026-07-10T11:54:37.000Z</time>
|
|
</trkpt>
|
|
<trkpt lat="54.964449" lon="8.695324">
|
|
<ele>-24.989680</ele>
|
|
<time>2026-07-10T11:54:38.000Z</time>
|
|
</trkpt>
|
|
<trkpt lat="54.964463" lon="8.695249">
|
|
<ele>-24.989863</ele>
|
|
<time>2026-07-10T11:54:39.000Z</time>
|
|
</trkpt>
|
|
<trkpt lat="54.964478" lon="8.695175">
|
|
<ele>-24.990046</ele>
|
|
<time>2026-07-10T11:54:40.000Z</time>
|
|
</trkpt>
|
|
<trkpt lat="54.964493" lon="8.695100">
|
|
<ele>-24.990230</ele>
|
|
<time>2026-07-10T11:54:41.000Z</time>
|
|
</trkpt>
|
|
<trkpt lat="54.964508" lon="8.695025">
|
|
<ele>-24.990415</ele>
|
|
<time>2026-07-10T11:54:42.000Z</time>
|
|
</trkpt>
|
|
<trkpt lat="54.964523" lon="8.694952">
|
|
<ele>-24.990596</ele>
|
|
<time>2026-07-10T11:54:43.000Z</time>
|
|
</trkpt>
|
|
<trkpt lat="54.964538" lon="8.694881">
|
|
<ele>-24.990772</ele>
|
|
<time>2026-07-10T11:54:44.000Z</time>
|
|
</trkpt>
|
|
<trkpt lat="54.964549" lon="8.694809">
|
|
<ele>-24.990945</ele>
|
|
<time>2026-07-10T11:54:45.000Z</time>
|
|
</trkpt>
|
|
<trkpt lat="54.964562" lon="8.694737">
|
|
<ele>-24.991120</ele>
|
|
<time>2026-07-10T11:54:46.000Z</time>
|
|
</trkpt>
|
|
<trkpt lat="54.964576" lon="8.694669">
|
|
<ele>-24.991288</ele>
|
|
<time>2026-07-10T11:54:47.000Z</time>
|
|
</trkpt>
|
|
<trkpt lat="54.964587" lon="8.694597">
|
|
<ele>-24.991462</ele>
|
|
<time>2026-07-10T11:54:48.000Z</time>
|
|
</trkpt>
|
|
<trkpt lat="54.964599" lon="8.694515">
|
|
<ele>-24.991659</ele>
|
|
<time>2026-07-10T11:54:49.000Z</time>
|
|
</trkpt>
|
|
<trkpt lat="54.964610" lon="8.694436">
|
|
<ele>-24.991848</ele>
|
|
<time>2026-07-10T11:54:50.000Z</time>
|
|
</trkpt>
|
|
<trkpt lat="54.964622" lon="8.694354">
|
|
<ele>-24.992045</ele>
|
|
<time>2026-07-10T11:54:51.000Z</time>
|
|
</trkpt>
|
|
<trkpt lat="54.964637" lon="8.694272">
|
|
<ele>-25.000112</ele>
|
|
<time>2026-07-10T11:54:52.000Z</time>
|
|
</trkpt>
|
|
<trkpt lat="54.964655" lon="8.694184">
|
|
<ele>-25.010005</ele>
|
|
<time>2026-07-10T11:54:53.000Z</time>
|
|
</trkpt>
|
|
<trkpt lat="54.964672" lon="8.694103">
|
|
<ele>-25.019138</ele>
|
|
<time>2026-07-10T11:54:54.000Z</time>
|
|
</trkpt>
|
|
<trkpt lat="54.964684" lon="8.694026">
|
|
<ele>-25.027588</ele>
|
|
<time>2026-07-10T11:54:55.000Z</time>
|
|
</trkpt>
|
|
<trkpt lat="54.964699" lon="8.693950">
|
|
<ele>-25.036099</ele>
|
|
<time>2026-07-10T11:54:56.000Z</time>
|
|
</trkpt>
|
|
<trkpt lat="54.964714" lon="8.693865">
|
|
<ele>-25.045516</ele>
|
|
<time>2026-07-10T11:54:57.000Z</time>
|
|
</trkpt>
|
|
<trkpt lat="54.964726" lon="8.693782">
|
|
<ele>-25.054580</ele>
|
|
<time>2026-07-10T11:54:58.000Z</time>
|
|
</trkpt>
|
|
<trkpt lat="54.964740" lon="8.693693">
|
|
<ele>-25.064353</ele>
|
|
<time>2026-07-10T11:54:59.000Z</time>
|
|
</trkpt>
|
|
<trkpt lat="54.964752" lon="8.693602">
|
|
<ele>-25.074241</ele>
|
|
<time>2026-07-10T11:55:00.000Z</time>
|
|
</trkpt>
|
|
<trkpt lat="54.964764" lon="8.693511">
|
|
<ele>-25.084129</ele>
|
|
<time>2026-07-10T11:55:01.000Z</time>
|
|
</trkpt>
|
|
<trkpt lat="54.964781" lon="8.693423">
|
|
<ele>-25.093962</ele>
|
|
<time>2026-07-10T11:55:02.000Z</time>
|
|
</trkpt>
|
|
<trkpt lat="54.964799" lon="8.693337">
|
|
<ele>-25.103656</ele>
|
|
<time>2026-07-10T11:55:03.000Z</time>
|
|
</trkpt>
|
|
<trkpt lat="54.964818" lon="8.693246">
|
|
<ele>-25.113910</ele>
|
|
<time>2026-07-10T11:55:04.000Z</time>
|
|
</trkpt>
|
|
<trkpt lat="54.964832" lon="8.693164">
|
|
<ele>-25.122970</ele>
|
|
<time>2026-07-10T11:55:05.000Z</time>
|
|
</trkpt>
|
|
<trkpt lat="54.964847" lon="8.693084">
|
|
<ele>-25.131883</ele>
|
|
<time>2026-07-10T11:55:06.000Z</time>
|
|
</trkpt>
|
|
<trkpt lat="54.964869" lon="8.692985">
|
|
<ele>-25.143125</ele>
|
|
<time>2026-07-10T11:55:07.000Z</time>
|
|
</trkpt>
|
|
<trkpt lat="54.964886" lon="8.692899">
|
|
<ele>-25.152758</ele>
|
|
<time>2026-07-10T11:55:08.000Z</time>
|
|
</trkpt>
|
|
<trkpt lat="54.964902" lon="8.692809">
|
|
<ele>-25.162735</ele>
|
|
<time>2026-07-10T11:55:09.000Z</time>
|
|
</trkpt>
|
|
<trkpt lat="54.964918" lon="8.692721">
|
|
<ele>-25.172511</ele>
|
|
<time>2026-07-10T11:55:10.000Z</time>
|
|
</trkpt>
|
|
<trkpt lat="54.964936" lon="8.692632">
|
|
<ele>-25.182504</ele>
|
|
<time>2026-07-10T11:55:11.000Z</time>
|
|
</trkpt>
|
|
<trkpt lat="54.964952" lon="8.692542">
|
|
<ele>-25.192481</ele>
|
|
<time>2026-07-10T11:55:12.000Z</time>
|
|
</trkpt>
|
|
<trkpt lat="54.964970" lon="8.692452">
|
|
<ele>-25.202574</ele>
|
|
<time>2026-07-10T11:55:13.000Z</time>
|
|
</trkpt>
|
|
<trkpt lat="54.964987" lon="8.692364">
|
|
<ele>-25.212407</ele>
|
|
<time>2026-07-10T11:55:14.000Z</time>
|
|
</trkpt>
|
|
<trkpt lat="54.965006" lon="8.692276">
|
|
<ele>-25.222364</ele>
|
|
<time>2026-07-10T11:55:15.000Z</time>
|
|
</trkpt>
|
|
<trkpt lat="54.965025" lon="8.692189">
|
|
<ele>-25.232221</ele>
|
|
<time>2026-07-10T11:55:16.000Z</time>
|
|
</trkpt>
|
|
<trkpt lat="54.965043" lon="8.692102">
|
|
<ele>-25.242015</ele>
|
|
<time>2026-07-10T11:55:17.000Z</time>
|
|
</trkpt>
|
|
<trkpt lat="54.965058" lon="8.692015">
|
|
<ele>-25.251635</ele>
|
|
<time>2026-07-10T11:55:18.000Z</time>
|
|
</trkpt>
|
|
<trkpt lat="54.965071" lon="8.691928">
|
|
<ele>-25.261155</ele>
|
|
<time>2026-07-10T11:55:19.000Z</time>
|
|
</trkpt>
|
|
<trkpt lat="54.965081" lon="8.691841">
|
|
<ele>-25.270551</ele>
|
|
<time>2026-07-10T11:55:20.000Z</time>
|
|
</trkpt>
|
|
<trkpt lat="54.965096" lon="8.691752">
|
|
<ele>-25.280374</ele>
|
|
<time>2026-07-10T11:55:21.000Z</time>
|
|
</trkpt>
|
|
<trkpt lat="54.965112" lon="8.691665">
|
|
<ele>-25.290049</ele>
|
|
<time>2026-07-10T11:55:22.000Z</time>
|
|
</trkpt>
|
|
<trkpt lat="54.965127" lon="8.691577">
|
|
<ele>-25.299770</ele>
|
|
<time>2026-07-10T11:55:23.000Z</time>
|
|
</trkpt>
|
|
<trkpt lat="54.965141" lon="8.691487">
|
|
<ele>-25.309645</ele>
|
|
<time>2026-07-10T11:55:24.000Z</time>
|
|
</trkpt>
|
|
<trkpt lat="54.965153" lon="8.691400">
|
|
<ele>-25.319121</ele>
|
|
<time>2026-07-10T11:55:25.000Z</time>
|
|
</trkpt>
|
|
<trkpt lat="54.965169" lon="8.691313">
|
|
<ele>-25.327981</ele>
|
|
<time>2026-07-10T11:55:26.000Z</time>
|
|
</trkpt>
|
|
<trkpt lat="54.965184" lon="8.691228">
|
|
<ele>-25.335841</ele>
|
|
<time>2026-07-10T11:55:27.000Z</time>
|
|
</trkpt>
|
|
<trkpt lat="54.965198" lon="8.691141">
|
|
<ele>-25.343828</ele>
|
|
<time>2026-07-10T11:55:28.000Z</time>
|
|
</trkpt>
|
|
<trkpt lat="54.965210" lon="8.691054">
|
|
<ele>-25.351737</ele>
|
|
<time>2026-07-10T11:55:29.000Z</time>
|
|
</trkpt>
|
|
<trkpt lat="54.965221" lon="8.690967">
|
|
<ele>-25.359611</ele>
|
|
<time>2026-07-10T11:55:30.000Z</time>
|
|
</trkpt>
|
|
<trkpt lat="54.965234" lon="8.690881">
|
|
<ele>-25.367472</ele>
|
|
<time>2026-07-10T11:55:31.000Z</time>
|
|
</trkpt>
|
|
<trkpt lat="54.965249" lon="8.690795">
|
|
<ele>-25.375417</ele>
|
|
<time>2026-07-10T11:55:32.000Z</time>
|
|
</trkpt>
|
|
<trkpt lat="54.965264" lon="8.690709">
|
|
<ele>-25.383362</ele>
|
|
<time>2026-07-10T11:55:33.000Z</time>
|
|
</trkpt>
|
|
<trkpt lat="54.965279" lon="8.690622">
|
|
<ele>-25.391392</ele>
|
|
<time>2026-07-10T11:55:34.000Z</time>
|
|
</trkpt>
|
|
<trkpt lat="54.965295" lon="8.690536">
|
|
<ele>-25.399383</ele>
|
|
<time>2026-07-10T11:55:35.000Z</time>
|
|
</trkpt>
|
|
<trkpt lat="54.965311" lon="8.690449">
|
|
<ele>-25.407458</ele>
|
|
<time>2026-07-10T11:55:36.000Z</time>
|
|
</trkpt>
|
|
<trkpt lat="54.965320" lon="8.690366">
|
|
<ele>-25.414925</ele>
|
|
<time>2026-07-10T11:55:37.000Z</time>
|
|
</trkpt>
|
|
<trkpt lat="54.965333" lon="8.690281">
|
|
<ele>-25.422700</ele>
|
|
<time>2026-07-10T11:55:38.000Z</time>
|
|
</trkpt>
|
|
<trkpt lat="54.965348" lon="8.690193">
|
|
<ele>-25.430815</ele>
|
|
<time>2026-07-10T11:55:39.000Z</time>
|
|
</trkpt>
|
|
<trkpt lat="54.965363" lon="8.690107">
|
|
<ele>-25.438760</ele>
|
|
<time>2026-07-10T11:55:40.000Z</time>
|
|
</trkpt>
|
|
<trkpt lat="54.965377" lon="8.690018">
|
|
<ele>-25.446917</ele>
|
|
<time>2026-07-10T11:55:41.000Z</time>
|
|
</trkpt>
|
|
<trkpt lat="54.965391" lon="8.689929">
|
|
<ele>-25.455074</ele>
|
|
<time>2026-07-10T11:55:42.000Z</time>
|
|
</trkpt>
|
|
<trkpt lat="54.965409" lon="8.689841">
|
|
<ele>-25.463331</ele>
|
|
<time>2026-07-10T11:55:43.000Z</time>
|
|
</trkpt>
|
|
<trkpt lat="54.965424" lon="8.689752">
|
|
<ele>-25.471530</ele>
|
|
<time>2026-07-10T11:55:44.000Z</time>
|
|
</trkpt>
|
|
<trkpt lat="54.965440" lon="8.689663">
|
|
<ele>-25.479774</ele>
|
|
<time>2026-07-10T11:55:45.000Z</time>
|
|
</trkpt>
|
|
<trkpt lat="54.965455" lon="8.689574">
|
|
<ele>-25.487973</ele>
|
|
<time>2026-07-10T11:55:46.000Z</time>
|
|
</trkpt>
|
|
<trkpt lat="54.965470" lon="8.689488">
|
|
<ele>-25.495918</ele>
|
|
<time>2026-07-10T11:55:47.000Z</time>
|
|
</trkpt>
|
|
<trkpt lat="54.965485" lon="8.689400">
|
|
<ele>-25.504032</ele>
|
|
<time>2026-07-10T11:55:48.000Z</time>
|
|
</trkpt>
|
|
<trkpt lat="54.965500" lon="8.689313">
|
|
<ele>-25.512062</ele>
|
|
<time>2026-07-10T11:55:49.000Z</time>
|
|
</trkpt>
|
|
<trkpt lat="54.965515" lon="8.689225">
|
|
<ele>-25.520176</ele>
|
|
<time>2026-07-10T11:55:50.000Z</time>
|
|
</trkpt>
|
|
<trkpt lat="54.965527" lon="8.689136">
|
|
<ele>-25.528257</ele>
|
|
<time>2026-07-10T11:55:51.000Z</time>
|
|
</trkpt>
|
|
<trkpt lat="54.965540" lon="8.689051">
|
|
<ele>-25.536033</ele>
|
|
<time>2026-07-10T11:55:52.000Z</time>
|
|
</trkpt>
|
|
<trkpt lat="54.965550" lon="8.688963">
|
|
<ele>-25.543962</ele>
|
|
<time>2026-07-10T11:55:53.000Z</time>
|
|
</trkpt>
|
|
<trkpt lat="54.965564" lon="8.688876">
|
|
<ele>-25.551949</ele>
|
|
<time>2026-07-10T11:55:54.000Z</time>
|
|
</trkpt>
|
|
<trkpt lat="54.965578" lon="8.688790">
|
|
<ele>-25.559850</ele>
|
|
<time>2026-07-10T11:55:55.000Z</time>
|
|
</trkpt>
|
|
<trkpt lat="54.965596" lon="8.688705">
|
|
<ele>-25.567859</ele>
|
|
<time>2026-07-10T11:55:56.000Z</time>
|
|
</trkpt>
|
|
<trkpt lat="54.965612" lon="8.688620">
|
|
<ele>-25.575766</ele>
|
|
<time>2026-07-10T11:55:57.000Z</time>
|
|
</trkpt>
|
|
<trkpt lat="54.965631" lon="8.688534">
|
|
<ele>-25.583911</ele>
|
|
<time>2026-07-10T11:55:58.000Z</time>
|
|
</trkpt>
|
|
<trkpt lat="54.965650" lon="8.688448">
|
|
<ele>-25.592056</ele>
|
|
<time>2026-07-10T11:55:59.000Z</time>
|
|
</trkpt>
|
|
<trkpt lat="54.965669" lon="8.688362">
|
|
<ele>-25.600202</ele>
|
|
<time>2026-07-10T11:56:00.000Z</time>
|
|
</trkpt>
|
|
<trkpt lat="54.965687" lon="8.688277">
|
|
<ele>-25.632465</ele>
|
|
<time>2026-07-10T11:56:01.000Z</time>
|
|
</trkpt>
|
|
<trkpt lat="54.965704" lon="8.688191">
|
|
<ele>-25.666879</ele>
|
|
<time>2026-07-10T11:56:02.000Z</time>
|
|
</trkpt>
|
|
<trkpt lat="54.965724" lon="8.688105">
|
|
<ele>-25.701987</ele>
|
|
<time>2026-07-10T11:56:03.000Z</time>
|
|
</trkpt>
|
|
<trkpt lat="54.965745" lon="8.688019">
|
|
<ele>-25.737348</ele>
|
|
<time>2026-07-10T11:56:04.000Z</time>
|
|
</trkpt>
|
|
<trkpt lat="54.965761" lon="8.687937">
|
|
<ele>-25.770117</ele>
|
|
<time>2026-07-10T11:56:05.000Z</time>
|
|
</trkpt>
|
|
<trkpt lat="54.965780" lon="8.687855">
|
|
<ele>-25.803575</ele>
|
|
<time>2026-07-10T11:56:06.000Z</time>
|
|
</trkpt>
|
|
<trkpt lat="54.965799" lon="8.687775">
|
|
<ele>-25.836332</ele>
|
|
<time>2026-07-10T11:56:07.000Z</time>
|
|
</trkpt>
|
|
<trkpt lat="54.965818" lon="8.687696">
|
|
<ele>-25.868740</ele>
|
|
<time>2026-07-10T11:56:08.000Z</time>
|
|
</trkpt>
|
|
<trkpt lat="54.965839" lon="8.687619">
|
|
<ele>-25.900994</ele>
|
|
<time>2026-07-10T11:56:09.000Z</time>
|
|
</trkpt>
|
|
<trkpt lat="54.965863" lon="8.687542">
|
|
<ele>-25.934146</ele>
|
|
<time>2026-07-10T11:56:10.000Z</time>
|
|
</trkpt>
|
|
<trkpt lat="54.965890" lon="8.687464">
|
|
<ele>-25.968608</ele>
|
|
<time>2026-07-10T11:56:11.000Z</time>
|
|
</trkpt>
|
|
<trkpt lat="54.965920" lon="8.687388">
|
|
<ele>-26.003506</ele>
|
|
<time>2026-07-10T11:56:12.000Z</time>
|
|
</trkpt>
|
|
<trkpt lat="54.965947" lon="8.687315">
|
|
<ele>-26.036363</ele>
|
|
<time>2026-07-10T11:56:13.000Z</time>
|
|
</trkpt>
|
|
<trkpt lat="54.965976" lon="8.687246">
|
|
<ele>-26.068718</ele>
|
|
<time>2026-07-10T11:56:14.000Z</time>
|
|
</trkpt>
|
|
<trkpt lat="54.966009" lon="8.687164">
|
|
<ele>-26.106609</ele>
|
|
<time>2026-07-10T11:56:15.000Z</time>
|
|
</trkpt>
|
|
<trkpt lat="54.966040" lon="8.687087">
|
|
<ele>-26.142193</ele>
|
|
<time>2026-07-10T11:56:16.000Z</time>
|
|
</trkpt>
|
|
<trkpt lat="54.966073" lon="8.687009">
|
|
<ele>-26.178854</ele>
|
|
<time>2026-07-10T11:56:17.000Z</time>
|
|
</trkpt>
|
|
<trkpt lat="54.966104" lon="8.686937">
|
|
<ele>-26.212907</ele>
|
|
<time>2026-07-10T11:56:18.000Z</time>
|
|
</trkpt>
|
|
<trkpt lat="54.966140" lon="8.686863">
|
|
<ele>-26.249607</ele>
|
|
<time>2026-07-10T11:56:19.000Z</time>
|
|
</trkpt>
|
|
<trkpt lat="54.966174" lon="8.686793">
|
|
<ele>-26.284300</ele>
|
|
<time>2026-07-10T11:56:20.000Z</time>
|
|
</trkpt>
|
|
<trkpt lat="54.966209" lon="8.686724">
|
|
<ele>-26.319139</ele>
|
|
<time>2026-07-10T11:56:21.000Z</time>
|
|
</trkpt>
|
|
<trkpt lat="54.966248" lon="8.686654">
|
|
<ele>-26.356047</ele>
|
|
<time>2026-07-10T11:56:22.000Z</time>
|
|
</trkpt>
|
|
<trkpt lat="54.966289" lon="8.686580">
|
|
<ele>-26.394959</ele>
|
|
<time>2026-07-10T11:56:23.000Z</time>
|
|
</trkpt>
|
|
<trkpt lat="54.966328" lon="8.686509">
|
|
<ele>-26.432139</ele>
|
|
<time>2026-07-10T11:56:24.000Z</time>
|
|
</trkpt>
|
|
<trkpt lat="54.966371" lon="8.686441">
|
|
<ele>-26.470417</ele>
|
|
<time>2026-07-10T11:56:25.000Z</time>
|
|
</trkpt>
|
|
<trkpt lat="54.966412" lon="8.686375">
|
|
<ele>-26.507211</ele>
|
|
<time>2026-07-10T11:56:26.000Z</time>
|
|
</trkpt>
|
|
<trkpt lat="54.966451" lon="8.686311">
|
|
<ele>-26.542525</ele>
|
|
<time>2026-07-10T11:56:27.000Z</time>
|
|
</trkpt>
|
|
<trkpt lat="54.966492" lon="8.686247">
|
|
<ele>-26.578810</ele>
|
|
<time>2026-07-10T11:56:28.000Z</time>
|
|
</trkpt>
|
|
<trkpt lat="54.966534" lon="8.686186">
|
|
<ele>-26.614851</ele>
|
|
<time>2026-07-10T11:56:29.000Z</time>
|
|
</trkpt>
|
|
<trkpt lat="54.966577" lon="8.686128">
|
|
<ele>-26.650695</ele>
|
|
<time>2026-07-10T11:56:30.000Z</time>
|
|
</trkpt>
|
|
<trkpt lat="54.966619" lon="8.686072">
|
|
<ele>-26.685555</ele>
|
|
<time>2026-07-10T11:56:31.000Z</time>
|
|
</trkpt>
|
|
<trkpt lat="54.966662" lon="8.686017">
|
|
<ele>-26.720715</ele>
|
|
<time>2026-07-10T11:56:32.000Z</time>
|
|
</trkpt>
|
|
<trkpt lat="54.966708" lon="8.685961">
|
|
<ele>-26.757703</ele>
|
|
<time>2026-07-10T11:56:33.000Z</time>
|
|
</trkpt>
|
|
<trkpt lat="54.966752" lon="8.685905">
|
|
<ele>-26.784756</ele>
|
|
<time>2026-07-10T11:56:34.000Z</time>
|
|
</trkpt>
|
|
<trkpt lat="54.966795" lon="8.685848">
|
|
<ele>-26.777289</ele>
|
|
<time>2026-07-10T11:56:35.000Z</time>
|
|
</trkpt>
|
|
<trkpt lat="54.966841" lon="8.685791">
|
|
<ele>-26.769488</ele>
|
|
<time>2026-07-10T11:56:36.000Z</time>
|
|
</trkpt>
|
|
<trkpt lat="54.966886" lon="8.685734">
|
|
<ele>-26.761800</ele>
|
|
<time>2026-07-10T11:56:37.000Z</time>
|
|
</trkpt>
|
|
<trkpt lat="54.966929" lon="8.685681">
|
|
<ele>-26.754521</ele>
|
|
<time>2026-07-10T11:56:38.000Z</time>
|
|
</trkpt>
|
|
<trkpt lat="54.966974" lon="8.685627">
|
|
<ele>-26.746970</ele>
|
|
<time>2026-07-10T11:56:39.000Z</time>
|
|
</trkpt>
|
|
<trkpt lat="54.967015" lon="8.685574">
|
|
<ele>-26.739915</ele>
|
|
<time>2026-07-10T11:56:40.000Z</time>
|
|
</trkpt>
|
|
<trkpt lat="54.967057" lon="8.685519">
|
|
<ele>-26.732654</ele>
|
|
<time>2026-07-10T11:56:41.000Z</time>
|
|
</trkpt>
|
|
<trkpt lat="54.967100" lon="8.685464">
|
|
<ele>-26.725282</ele>
|
|
<time>2026-07-10T11:56:42.000Z</time>
|
|
</trkpt>
|
|
<trkpt lat="54.967145" lon="8.685408">
|
|
<ele>-26.717640</ele>
|
|
<time>2026-07-10T11:56:43.000Z</time>
|
|
</trkpt>
|
|
<trkpt lat="54.967186" lon="8.685354">
|
|
<ele>-26.710537</ele>
|
|
<time>2026-07-10T11:56:44.000Z</time>
|
|
</trkpt>
|
|
<trkpt lat="54.967226" lon="8.685298">
|
|
<ele>-26.703446</ele>
|
|
<time>2026-07-10T11:56:45.000Z</time>
|
|
</trkpt>
|
|
<trkpt lat="54.967270" lon="8.685242">
|
|
<ele>-26.695916</ele>
|
|
<time>2026-07-10T11:56:46.000Z</time>
|
|
</trkpt>
|
|
<trkpt lat="54.967310" lon="8.685191">
|
|
<ele>-26.689066</ele>
|
|
<time>2026-07-10T11:56:47.000Z</time>
|
|
</trkpt>
|
|
<trkpt lat="54.967355" lon="8.685142">
|
|
<ele>-26.681733</ele>
|
|
<time>2026-07-10T11:56:48.000Z</time>
|
|
</trkpt>
|
|
<trkpt lat="54.967397" lon="8.685096">
|
|
<ele>-26.674878</ele>
|
|
<time>2026-07-10T11:56:49.000Z</time>
|
|
</trkpt>
|
|
<trkpt lat="54.967438" lon="8.685053">
|
|
<ele>-26.668264</ele>
|
|
<time>2026-07-10T11:56:50.000Z</time>
|
|
</trkpt>
|
|
<trkpt lat="54.967481" lon="8.685010">
|
|
<ele>-26.661413</ele>
|
|
<time>2026-07-10T11:56:51.000Z</time>
|
|
</trkpt>
|
|
<trkpt lat="54.967522" lon="8.684965">
|
|
<ele>-26.654717</ele>
|
|
<time>2026-07-10T11:56:52.000Z</time>
|
|
</trkpt>
|
|
<trkpt lat="54.967561" lon="8.684918">
|
|
<ele>-26.648163</ele>
|
|
<time>2026-07-10T11:56:53.000Z</time>
|
|
</trkpt>
|
|
<trkpt lat="54.967602" lon="8.684868">
|
|
<ele>-26.641248</ele>
|
|
<time>2026-07-10T11:56:54.000Z</time>
|
|
</trkpt>
|
|
<trkpt lat="54.967641" lon="8.684816">
|
|
<ele>-26.634461</ele>
|
|
<time>2026-07-10T11:56:55.000Z</time>
|
|
</trkpt>
|
|
<trkpt lat="54.967682" lon="8.684763">
|
|
<ele>-26.627406</ele>
|
|
<time>2026-07-10T11:56:56.000Z</time>
|
|
</trkpt>
|
|
<trkpt lat="54.967721" lon="8.684707">
|
|
<ele>-26.620422</ele>
|
|
<time>2026-07-10T11:56:57.000Z</time>
|
|
</trkpt>
|
|
<trkpt lat="54.967763" lon="8.684649">
|
|
<ele>-26.613016</ele>
|
|
<time>2026-07-10T11:56:58.000Z</time>
|
|
</trkpt>
|
|
<trkpt lat="54.967804" lon="8.684590">
|
|
<ele>-26.605667</ele>
|
|
<time>2026-07-10T11:56:59.000Z</time>
|
|
</trkpt>
|
|
<trkpt lat="54.967842" lon="8.684527">
|
|
<ele>-26.598418</ele>
|
|
<time>2026-07-10T11:57:00.000Z</time>
|
|
</trkpt>
|
|
<trkpt lat="54.967880" lon="8.684462">
|
|
<ele>-26.591059</ele>
|
|
<time>2026-07-10T11:57:01.000Z</time>
|
|
</trkpt>
|
|
<trkpt lat="54.967918" lon="8.684395">
|
|
<ele>-26.583587</ele>
|
|
<time>2026-07-10T11:57:02.000Z</time>
|
|
</trkpt>
|
|
<trkpt lat="54.967956" lon="8.684328">
|
|
<ele>-26.576116</ele>
|
|
<time>2026-07-10T11:57:03.000Z</time>
|
|
</trkpt>
|
|
<trkpt lat="54.967995" lon="8.684261">
|
|
<ele>-26.568547</ele>
|
|
<time>2026-07-10T11:57:04.000Z</time>
|
|
</trkpt>
|
|
<trkpt lat="54.968033" lon="8.684195">
|
|
<ele>-26.561132</ele>
|
|
<time>2026-07-10T11:57:05.000Z</time>
|
|
</trkpt>
|
|
<trkpt lat="54.968070" lon="8.684129">
|
|
<ele>-26.553814</ele>
|
|
<time>2026-07-10T11:57:06.000Z</time>
|
|
</trkpt>
|
|
<trkpt lat="54.968105" lon="8.684063">
|
|
<ele>-26.546687</ele>
|
|
<time>2026-07-10T11:57:07.000Z</time>
|
|
</trkpt>
|
|
<trkpt lat="54.968143" lon="8.683995">
|
|
<ele>-26.539159</ele>
|
|
<time>2026-07-10T11:57:08.000Z</time>
|
|
</trkpt>
|
|
<trkpt lat="54.968181" lon="8.683930">
|
|
<ele>-26.531514</ele>
|
|
<time>2026-07-10T11:57:09.000Z</time>
|
|
</trkpt>
|
|
<trkpt lat="54.968220" lon="8.683865">
|
|
<ele>-26.523697</ele>
|
|
<time>2026-07-10T11:57:10.000Z</time>
|
|
</trkpt>
|
|
<trkpt lat="54.968258" lon="8.683801">
|
|
<ele>-26.516043</ele>
|
|
<time>2026-07-10T11:57:11.000Z</time>
|
|
</trkpt>
|
|
<trkpt lat="54.968296" lon="8.683736">
|
|
<ele>-26.508330</ele>
|
|
<time>2026-07-10T11:57:12.000Z</time>
|
|
</trkpt>
|
|
<trkpt lat="54.968334" lon="8.683675">
|
|
<ele>-26.500846</ele>
|
|
<time>2026-07-10T11:57:13.000Z</time>
|
|
</trkpt>
|
|
<trkpt lat="54.968373" lon="8.683615">
|
|
<ele>-26.493311</ele>
|
|
<time>2026-07-10T11:57:14.000Z</time>
|
|
</trkpt>
|
|
<trkpt lat="54.968414" lon="8.683554">
|
|
<ele>-26.485502</ele>
|
|
<time>2026-07-10T11:57:15.000Z</time>
|
|
</trkpt>
|
|
<trkpt lat="54.968453" lon="8.683495">
|
|
<ele>-26.478021</ele>
|
|
<time>2026-07-10T11:57:16.000Z</time>
|
|
</trkpt>
|
|
<trkpt lat="54.968495" lon="8.683437">
|
|
<ele>-26.470259</ele>
|
|
<time>2026-07-10T11:57:17.000Z</time>
|
|
</trkpt>
|
|
<trkpt lat="54.968538" lon="8.683380">
|
|
<ele>-26.462434</ele>
|
|
<time>2026-07-10T11:57:18.000Z</time>
|
|
</trkpt>
|
|
<trkpt lat="54.968579" lon="8.683325">
|
|
<ele>-26.454939</ele>
|
|
<time>2026-07-10T11:57:19.000Z</time>
|
|
</trkpt>
|
|
<trkpt lat="54.968623" lon="8.683268">
|
|
<ele>-26.446998</ele>
|
|
<time>2026-07-10T11:57:20.000Z</time>
|
|
</trkpt>
|
|
<trkpt lat="54.968667" lon="8.683214">
|
|
<ele>-26.439203</ele>
|
|
<time>2026-07-10T11:57:21.000Z</time>
|
|
</trkpt>
|
|
<trkpt lat="54.968709" lon="8.683161">
|
|
<ele>-26.431693</ele>
|
|
<time>2026-07-10T11:57:22.000Z</time>
|
|
</trkpt>
|
|
<trkpt lat="54.968752" lon="8.683111">
|
|
<ele>-26.424205</ele>
|
|
<time>2026-07-10T11:57:23.000Z</time>
|
|
</trkpt>
|
|
<trkpt lat="54.968798" lon="8.683065">
|
|
<ele>-26.416524</ele>
|
|
<time>2026-07-10T11:57:24.000Z</time>
|
|
</trkpt>
|
|
<trkpt lat="54.968845" lon="8.683019">
|
|
<ele>-26.408716</ele>
|
|
<time>2026-07-10T11:57:25.000Z</time>
|
|
</trkpt>
|
|
<trkpt lat="54.968892" lon="8.682971">
|
|
<ele>-26.400826</ele>
|
|
<time>2026-07-10T11:57:26.000Z</time>
|
|
</trkpt>
|
|
<trkpt lat="54.968933" lon="8.682918">
|
|
<ele>-26.393432</ele>
|
|
<time>2026-07-10T11:57:27.000Z</time>
|
|
</trkpt>
|
|
<trkpt lat="54.968971" lon="8.682864">
|
|
<ele>-26.386330</ele>
|
|
<time>2026-07-10T11:57:28.000Z</time>
|
|
</trkpt>
|
|
<trkpt lat="54.969009" lon="8.682810">
|
|
<ele>-26.379228</ele>
|
|
<time>2026-07-10T11:57:29.000Z</time>
|
|
</trkpt>
|
|
<trkpt lat="54.969049" lon="8.682759">
|
|
<ele>-26.372049</ele>
|
|
<time>2026-07-10T11:57:30.000Z</time>
|
|
</trkpt>
|
|
<trkpt lat="54.969089" lon="8.682707">
|
|
<ele>-26.364821</ele>
|
|
<time>2026-07-10T11:57:31.000Z</time>
|
|
</trkpt>
|
|
<trkpt lat="54.969128" lon="8.682653">
|
|
<ele>-26.357606</ele>
|
|
<time>2026-07-10T11:57:32.000Z</time>
|
|
</trkpt>
|
|
<trkpt lat="54.969167" lon="8.682599">
|
|
<ele>-26.350391</ele>
|
|
<time>2026-07-10T11:57:33.000Z</time>
|
|
</trkpt>
|
|
<trkpt lat="54.969208" lon="8.682546">
|
|
<ele>-26.342997</ele>
|
|
<time>2026-07-10T11:57:34.000Z</time>
|
|
</trkpt>
|
|
<trkpt lat="54.969247" lon="8.682494">
|
|
<ele>-26.335884</ele>
|
|
<time>2026-07-10T11:57:35.000Z</time>
|
|
</trkpt>
|
|
<trkpt lat="54.969289" lon="8.682438">
|
|
<ele>-26.328224</ele>
|
|
<time>2026-07-10T11:57:36.000Z</time>
|
|
</trkpt>
|
|
<trkpt lat="54.969331" lon="8.682382">
|
|
<ele>-26.320565</ele>
|
|
<time>2026-07-10T11:57:37.000Z</time>
|
|
</trkpt>
|
|
<trkpt lat="54.969372" lon="8.682324">
|
|
<ele>-26.312916</ele>
|
|
<time>2026-07-10T11:57:38.000Z</time>
|
|
</trkpt>
|
|
<trkpt lat="54.969411" lon="8.682266">
|
|
<ele>-26.305489</ele>
|
|
<time>2026-07-10T11:57:39.000Z</time>
|
|
</trkpt>
|
|
<trkpt lat="54.969452" lon="8.682205">
|
|
<ele>-26.297681</ele>
|
|
<time>2026-07-10T11:57:40.000Z</time>
|
|
</trkpt>
|
|
<trkpt lat="54.969491" lon="8.682146">
|
|
<ele>-26.290200</ele>
|
|
<time>2026-07-10T11:57:41.000Z</time>
|
|
</trkpt>
|
|
<trkpt lat="54.969533" lon="8.682088">
|
|
<ele>-26.282438</ele>
|
|
<time>2026-07-10T11:57:42.000Z</time>
|
|
</trkpt>
|
|
<trkpt lat="54.969575" lon="8.682030">
|
|
<ele>-26.275993</ele>
|
|
<time>2026-07-10T11:57:43.000Z</time>
|
|
</trkpt>
|
|
<trkpt lat="54.969617" lon="8.681973">
|
|
<ele>-26.272223</ele>
|
|
<time>2026-07-10T11:57:44.000Z</time>
|
|
</trkpt>
|
|
<trkpt lat="54.969659" lon="8.681914">
|
|
<ele>-26.268402</ele>
|
|
<time>2026-07-10T11:57:45.000Z</time>
|
|
</trkpt>
|
|
<trkpt lat="54.969701" lon="8.681855">
|
|
<ele>-26.264581</ele>
|
|
<time>2026-07-10T11:57:46.000Z</time>
|
|
</trkpt>
|
|
<trkpt lat="54.969742" lon="8.681797">
|
|
<ele>-26.260841</ele>
|
|
<time>2026-07-10T11:57:47.000Z</time>
|
|
</trkpt>
|
|
<trkpt lat="54.969781" lon="8.681740">
|
|
<ele>-26.257236</ele>
|
|
<time>2026-07-10T11:57:48.000Z</time>
|
|
</trkpt>
|
|
<trkpt lat="54.969823" lon="8.681681">
|
|
<ele>-26.253415</ele>
|
|
<time>2026-07-10T11:57:49.000Z</time>
|
|
</trkpt>
|
|
<trkpt lat="54.969864" lon="8.681622">
|
|
<ele>-26.249650</ele>
|
|
<time>2026-07-10T11:57:50.000Z</time>
|
|
</trkpt>
|
|
<trkpt lat="54.969903" lon="8.681561">
|
|
<ele>-26.245938</ele>
|
|
<time>2026-07-10T11:57:51.000Z</time>
|
|
</trkpt>
|
|
<trkpt lat="54.969944" lon="8.681501">
|
|
<ele>-26.242146</ele>
|
|
<time>2026-07-10T11:57:52.000Z</time>
|
|
</trkpt>
|
|
<trkpt lat="54.969982" lon="8.681440">
|
|
<ele>-26.238487</ele>
|
|
<time>2026-07-10T11:57:53.000Z</time>
|
|
</trkpt>
|
|
<trkpt lat="54.970019" lon="8.681375">
|
|
<ele>-26.234766</ele>
|
|
<time>2026-07-10T11:57:54.000Z</time>
|
|
</trkpt>
|
|
<trkpt lat="54.970055" lon="8.681309">
|
|
<ele>-26.231065</ele>
|
|
<time>2026-07-10T11:57:55.000Z</time>
|
|
</trkpt>
|
|
<trkpt lat="54.970092" lon="8.681241">
|
|
<ele>-26.227256</ele>
|
|
<time>2026-07-10T11:57:56.000Z</time>
|
|
</trkpt>
|
|
<trkpt lat="54.970126" lon="8.681173">
|
|
<ele>-26.223590</ele>
|
|
<time>2026-07-10T11:57:57.000Z</time>
|
|
</trkpt>
|
|
<trkpt lat="54.970159" lon="8.681104">
|
|
<ele>-26.219940</ele>
|
|
<time>2026-07-10T11:57:58.000Z</time>
|
|
</trkpt>
|
|
<trkpt lat="54.970191" lon="8.681031">
|
|
<ele>-26.216206</ele>
|
|
<time>2026-07-10T11:57:59.000Z</time>
|
|
</trkpt>
|
|
<trkpt lat="54.970224" lon="8.680960">
|
|
<ele>-26.212492</ele>
|
|
<time>2026-07-10T11:58:00.000Z</time>
|
|
</trkpt>
|
|
<trkpt lat="54.970256" lon="8.680889">
|
|
<ele>-26.208823</ele>
|
|
<time>2026-07-10T11:58:01.000Z</time>
|
|
</trkpt>
|
|
<trkpt lat="54.970289" lon="8.680817">
|
|
<ele>-26.205078</ele>
|
|
<time>2026-07-10T11:58:02.000Z</time>
|
|
</trkpt>
|
|
<trkpt lat="54.970319" lon="8.680746">
|
|
<ele>-26.201494</ele>
|
|
<time>2026-07-10T11:58:03.000Z</time>
|
|
</trkpt>
|
|
<trkpt lat="54.970351" lon="8.680673">
|
|
<ele>-26.197760</ele>
|
|
<time>2026-07-10T11:58:04.000Z</time>
|
|
</trkpt>
|
|
<trkpt lat="54.970383" lon="8.680601">
|
|
<ele>-26.194059</ele>
|
|
<time>2026-07-10T11:58:05.000Z</time>
|
|
</trkpt>
|
|
<trkpt lat="54.970412" lon="8.680528">
|
|
<ele>-26.190450</ele>
|
|
<time>2026-07-10T11:58:06.000Z</time>
|
|
</trkpt>
|
|
<trkpt lat="54.970445" lon="8.680457">
|
|
<ele>-26.186736</ele>
|
|
<time>2026-07-10T11:58:07.000Z</time>
|
|
</trkpt>
|
|
<trkpt lat="54.970476" lon="8.680385">
|
|
<ele>-26.183078</ele>
|
|
<time>2026-07-10T11:58:08.000Z</time>
|
|
</trkpt>
|
|
<trkpt lat="54.970506" lon="8.680314">
|
|
<ele>-26.179494</ele>
|
|
<time>2026-07-10T11:58:09.000Z</time>
|
|
</trkpt>
|
|
<trkpt lat="54.970537" lon="8.680242">
|
|
<ele>-26.175836</ele>
|
|
<time>2026-07-10T11:58:10.000Z</time>
|
|
</trkpt>
|
|
<trkpt lat="54.970567" lon="8.680171">
|
|
<ele>-26.172252</ele>
|
|
<time>2026-07-10T11:58:11.000Z</time>
|
|
</trkpt>
|
|
<trkpt lat="54.970599" lon="8.680101">
|
|
<ele>-26.168614</ele>
|
|
<time>2026-07-10T11:58:12.000Z</time>
|
|
</trkpt>
|
|
<trkpt lat="54.970632" lon="8.680031">
|
|
<ele>-26.164932</ele>
|
|
<time>2026-07-10T11:58:13.000Z</time>
|
|
</trkpt>
|
|
<trkpt lat="54.970663" lon="8.679959">
|
|
<ele>-26.161274</ele>
|
|
<time>2026-07-10T11:58:14.000Z</time>
|
|
</trkpt>
|
|
<trkpt lat="54.970694" lon="8.679888">
|
|
<ele>-26.157648</ele>
|
|
<time>2026-07-10T11:58:15.000Z</time>
|
|
</trkpt>
|
|
<trkpt lat="54.970727" lon="8.679817">
|
|
<ele>-26.153934</ele>
|
|
<time>2026-07-10T11:58:16.000Z</time>
|
|
</trkpt>
|
|
<trkpt lat="54.970759" lon="8.679746">
|
|
<ele>-26.150265</ele>
|
|
<time>2026-07-10T11:58:17.000Z</time>
|
|
</trkpt>
|
|
<trkpt lat="54.970792" lon="8.679674">
|
|
<ele>-26.145034</ele>
|
|
<time>2026-07-10T11:58:18.000Z</time>
|
|
</trkpt>
|
|
<trkpt lat="54.970824" lon="8.679603">
|
|
<ele>-26.139743</ele>
|
|
<time>2026-07-10T11:58:19.000Z</time>
|
|
</trkpt>
|
|
<trkpt lat="54.970858" lon="8.679532">
|
|
<ele>-26.134324</ele>
|
|
<time>2026-07-10T11:58:20.000Z</time>
|
|
</trkpt>
|
|
<trkpt lat="54.970893" lon="8.679464">
|
|
<ele>-26.128970</ele>
|
|
<time>2026-07-10T11:58:21.000Z</time>
|
|
</trkpt>
|
|
<trkpt lat="54.970928" lon="8.679399">
|
|
<ele>-26.123746</ele>
|
|
<time>2026-07-10T11:58:22.000Z</time>
|
|
</trkpt>
|
|
<trkpt lat="54.970967" lon="8.679340">
|
|
<ele>-26.118472</ele>
|
|
<time>2026-07-10T11:58:23.000Z</time>
|
|
</trkpt>
|
|
<trkpt lat="54.971008" lon="8.679284">
|
|
<ele>-26.113152</ele>
|
|
<time>2026-07-10T11:58:24.000Z</time>
|
|
</trkpt>
|
|
<trkpt lat="54.971047" lon="8.679229">
|
|
<ele>-26.108028</ele>
|
|
<time>2026-07-10T11:58:25.000Z</time>
|
|
</trkpt>
|
|
<trkpt lat="54.971089" lon="8.679174">
|
|
<ele>-26.102663</ele>
|
|
<time>2026-07-10T11:58:26.000Z</time>
|
|
</trkpt>
|
|
<trkpt lat="54.971131" lon="8.679121">
|
|
<ele>-26.097367</ele>
|
|
<time>2026-07-10T11:58:27.000Z</time>
|
|
</trkpt>
|
|
<trkpt lat="54.971173" lon="8.679067">
|
|
<ele>-26.092037</ele>
|
|
<time>2026-07-10T11:58:28.000Z</time>
|
|
</trkpt>
|
|
<trkpt lat="54.971215" lon="8.679014">
|
|
<ele>-26.086741</ele>
|
|
<time>2026-07-10T11:58:29.000Z</time>
|
|
</trkpt>
|
|
<trkpt lat="54.971257" lon="8.678961">
|
|
<ele>-26.081446</ele>
|
|
<time>2026-07-10T11:58:30.000Z</time>
|
|
</trkpt>
|
|
<trkpt lat="54.971300" lon="8.678905">
|
|
<ele>-26.075964</ele>
|
|
<time>2026-07-10T11:58:31.000Z</time>
|
|
</trkpt>
|
|
<trkpt lat="54.971345" lon="8.678850">
|
|
<ele>-26.070350</ele>
|
|
<time>2026-07-10T11:58:32.000Z</time>
|
|
</trkpt>
|
|
<trkpt lat="54.971387" lon="8.678794">
|
|
<ele>-26.064950</ele>
|
|
<time>2026-07-10T11:58:33.000Z</time>
|
|
</trkpt>
|
|
<trkpt lat="54.971430" lon="8.678737">
|
|
<ele>-26.059432</ele>
|
|
<time>2026-07-10T11:58:34.000Z</time>
|
|
</trkpt>
|
|
<trkpt lat="54.971475" lon="8.678681">
|
|
<ele>-26.053785</ele>
|
|
<time>2026-07-10T11:58:35.000Z</time>
|
|
</trkpt>
|
|
<trkpt lat="54.971518" lon="8.678625">
|
|
<ele>-26.048303</ele>
|
|
<time>2026-07-10T11:58:36.000Z</time>
|
|
</trkpt>
|
|
<trkpt lat="54.971562" lon="8.678569">
|
|
<ele>-26.042739</ele>
|
|
<time>2026-07-10T11:58:37.000Z</time>
|
|
</trkpt>
|
|
<trkpt lat="54.971605" lon="8.678516">
|
|
<ele>-26.037360</ele>
|
|
<time>2026-07-10T11:58:38.000Z</time>
|
|
</trkpt>
|
|
<trkpt lat="54.971647" lon="8.678462">
|
|
<ele>-26.032030</ele>
|
|
<time>2026-07-10T11:58:39.000Z</time>
|
|
</trkpt>
|
|
<trkpt lat="54.971688" lon="8.678409">
|
|
<ele>-26.026817</ele>
|
|
<time>2026-07-10T11:58:40.000Z</time>
|
|
</trkpt>
|
|
<trkpt lat="54.971730" lon="8.678356">
|
|
<ele>-26.021521</ele>
|
|
<time>2026-07-10T11:58:41.000Z</time>
|
|
</trkpt>
|
|
<trkpt lat="54.971772" lon="8.678302">
|
|
<ele>-26.016191</ele>
|
|
<time>2026-07-10T11:58:42.000Z</time>
|
|
</trkpt>
|
|
<trkpt lat="54.971813" lon="8.678249">
|
|
<ele>-26.010978</ele>
|
|
<time>2026-07-10T11:58:43.000Z</time>
|
|
</trkpt>
|
|
<trkpt lat="54.971851" lon="8.678194">
|
|
<ele>-26.005933</ele>
|
|
<time>2026-07-10T11:58:44.000Z</time>
|
|
</trkpt>
|
|
<trkpt lat="54.971891" lon="8.678141">
|
|
<ele>-26.000801</ele>
|
|
<time>2026-07-10T11:58:45.000Z</time>
|
|
</trkpt>
|
|
<trkpt lat="54.971931" lon="8.678090">
|
|
<ele>-25.995740</ele>
|
|
<time>2026-07-10T11:58:46.000Z</time>
|
|
</trkpt>
|
|
<trkpt lat="54.971971" lon="8.678037">
|
|
<ele>-25.990608</ele>
|
|
<time>2026-07-10T11:58:47.000Z</time>
|
|
</trkpt>
|
|
<trkpt lat="54.972011" lon="8.677985">
|
|
<ele>-25.985512</ele>
|
|
<time>2026-07-10T11:58:48.000Z</time>
|
|
</trkpt>
|
|
<trkpt lat="54.972050" lon="8.677932">
|
|
<ele>-25.980461</ele>
|
|
<time>2026-07-10T11:58:49.000Z</time>
|
|
</trkpt>
|
|
<trkpt lat="54.972093" lon="8.677879">
|
|
<ele>-25.975082</ele>
|
|
<time>2026-07-10T11:58:50.000Z</time>
|
|
</trkpt>
|
|
<trkpt lat="54.972135" lon="8.677826">
|
|
<ele>-25.969787</ele>
|
|
<time>2026-07-10T11:58:51.000Z</time>
|
|
</trkpt>
|
|
<trkpt lat="54.972177" lon="8.677773">
|
|
<ele>-25.965865</ele>
|
|
<time>2026-07-10T11:58:52.000Z</time>
|
|
</trkpt>
|
|
<trkpt lat="54.972219" lon="8.677719">
|
|
<ele>-25.964789</ele>
|
|
<time>2026-07-10T11:58:53.000Z</time>
|
|
</trkpt>
|
|
<trkpt lat="54.972261" lon="8.677666">
|
|
<ele>-25.963719</ele>
|
|
<time>2026-07-10T11:58:54.000Z</time>
|
|
</trkpt>
|
|
<trkpt lat="54.972303" lon="8.677612">
|
|
<ele>-25.962643</ele>
|
|
<time>2026-07-10T11:58:55.000Z</time>
|
|
</trkpt>
|
|
<trkpt lat="54.972345" lon="8.677560">
|
|
<ele>-25.961581</ele>
|
|
<time>2026-07-10T11:58:56.000Z</time>
|
|
</trkpt>
|
|
<trkpt lat="54.972385" lon="8.677508">
|
|
<ele>-25.960552</ele>
|
|
<time>2026-07-10T11:58:57.000Z</time>
|
|
</trkpt>
|
|
<trkpt lat="54.972424" lon="8.677455">
|
|
<ele>-25.959532</ele>
|
|
<time>2026-07-10T11:58:58.000Z</time>
|
|
</trkpt>
|
|
<trkpt lat="54.972465" lon="8.677401">
|
|
<ele>-25.958473</ele>
|
|
<time>2026-07-10T11:58:59.000Z</time>
|
|
</trkpt>
|
|
<trkpt lat="54.972504" lon="8.677348">
|
|
<ele>-25.957453</ele>
|
|
<time>2026-07-10T11:59:00.000Z</time>
|
|
</trkpt>
|
|
<trkpt lat="54.972546" lon="8.677296">
|
|
<ele>-25.956391</ele>
|
|
<time>2026-07-10T11:59:01.000Z</time>
|
|
</trkpt>
|
|
<trkpt lat="54.972589" lon="8.677245">
|
|
<ele>-25.955318</ele>
|
|
<time>2026-07-10T11:59:02.000Z</time>
|
|
</trkpt>
|
|
<trkpt lat="54.972629" lon="8.677192">
|
|
<ele>-25.954282</ele>
|
|
<time>2026-07-10T11:59:03.000Z</time>
|
|
</trkpt>
|
|
<trkpt lat="54.972668" lon="8.677137">
|
|
<ele>-25.953248</ele>
|
|
<time>2026-07-10T11:59:04.000Z</time>
|
|
</trkpt>
|
|
<trkpt lat="54.972707" lon="8.677084">
|
|
<ele>-25.952228</ele>
|
|
<time>2026-07-10T11:59:05.000Z</time>
|
|
</trkpt>
|
|
<trkpt lat="54.972749" lon="8.677036">
|
|
<ele>-25.951193</ele>
|
|
<time>2026-07-10T11:59:06.000Z</time>
|
|
</trkpt>
|
|
<trkpt lat="54.972791" lon="8.676982">
|
|
<ele>-25.950116</ele>
|
|
<time>2026-07-10T11:59:07.000Z</time>
|
|
</trkpt>
|
|
<trkpt lat="54.972832" lon="8.676928">
|
|
<ele>-25.949057</ele>
|
|
<time>2026-07-10T11:59:08.000Z</time>
|
|
</trkpt>
|
|
<trkpt lat="54.972871" lon="8.676875">
|
|
<ele>-25.948037</ele>
|
|
<time>2026-07-10T11:59:09.000Z</time>
|
|
</trkpt>
|
|
<trkpt lat="54.972914" lon="8.676822">
|
|
<ele>-25.946951</ele>
|
|
<time>2026-07-10T11:59:10.000Z</time>
|
|
</trkpt>
|
|
<trkpt lat="54.972958" lon="8.676769">
|
|
<ele>-25.945848</ele>
|
|
<time>2026-07-10T11:59:11.000Z</time>
|
|
</trkpt>
|
|
<trkpt lat="54.973000" lon="8.676714">
|
|
<ele>-25.944765</ele>
|
|
<time>2026-07-10T11:59:12.000Z</time>
|
|
</trkpt>
|
|
<trkpt lat="54.973042" lon="8.676659">
|
|
<ele>-25.943682</ele>
|
|
<time>2026-07-10T11:59:13.000Z</time>
|
|
</trkpt>
|
|
<trkpt lat="54.973084" lon="8.676603">
|
|
<ele>-25.942591</ele>
|
|
<time>2026-07-10T11:59:14.000Z</time>
|
|
</trkpt>
|
|
<trkpt lat="54.973126" lon="8.676548">
|
|
<ele>-25.941508</ele>
|
|
<time>2026-07-10T11:59:15.000Z</time>
|
|
</trkpt>
|
|
<trkpt lat="54.973168" lon="8.676491">
|
|
<ele>-25.940411</ele>
|
|
<time>2026-07-10T11:59:16.000Z</time>
|
|
</trkpt>
|
|
<trkpt lat="54.973210" lon="8.676436">
|
|
<ele>-25.939327</ele>
|
|
<time>2026-07-10T11:59:17.000Z</time>
|
|
</trkpt>
|
|
<trkpt lat="54.973252" lon="8.676381">
|
|
<ele>-25.938244</ele>
|
|
<time>2026-07-10T11:59:18.000Z</time>
|
|
</trkpt>
|
|
<trkpt lat="54.973294" lon="8.676324">
|
|
<ele>-25.937147</ele>
|
|
<time>2026-07-10T11:59:19.000Z</time>
|
|
</trkpt>
|
|
<trkpt lat="54.973336" lon="8.676265">
|
|
<ele>-25.936034</ele>
|
|
<time>2026-07-10T11:59:20.000Z</time>
|
|
</trkpt>
|
|
<trkpt lat="54.973377" lon="8.676207">
|
|
<ele>-25.934946</ele>
|
|
<time>2026-07-10T11:59:21.000Z</time>
|
|
</trkpt>
|
|
<trkpt lat="54.973416" lon="8.676149">
|
|
<ele>-25.933888</ele>
|
|
<time>2026-07-10T11:59:22.000Z</time>
|
|
</trkpt>
|
|
<trkpt lat="54.973457" lon="8.676091">
|
|
<ele>-25.932800</ele>
|
|
<time>2026-07-10T11:59:23.000Z</time>
|
|
</trkpt>
|
|
<trkpt lat="54.973496" lon="8.676031">
|
|
<ele>-25.931727</ele>
|
|
<time>2026-07-10T11:59:24.000Z</time>
|
|
</trkpt>
|
|
<trkpt lat="54.973537" lon="8.675972">
|
|
<ele>-25.930631</ele>
|
|
<time>2026-07-10T11:59:25.000Z</time>
|
|
</trkpt>
|
|
<trkpt lat="54.973575" lon="8.675912">
|
|
<ele>-25.929573</ele>
|
|
<time>2026-07-10T11:59:26.000Z</time>
|
|
</trkpt>
|
|
<trkpt lat="54.973615" lon="8.675853">
|
|
<ele>-25.932121</ele>
|
|
<time>2026-07-10T11:59:27.000Z</time>
|
|
</trkpt>
|
|
<trkpt lat="54.973656" lon="8.675793">
|
|
<ele>-25.937301</ele>
|
|
<time>2026-07-10T11:59:28.000Z</time>
|
|
</trkpt>
|
|
<trkpt lat="54.973692" lon="8.675734">
|
|
<ele>-25.942082</ele>
|
|
<time>2026-07-10T11:59:29.000Z</time>
|
|
</trkpt>
|
|
<trkpt lat="54.973729" lon="8.675676">
|
|
<ele>-25.946896</ele>
|
|
<time>2026-07-10T11:59:30.000Z</time>
|
|
</trkpt>
|
|
<trkpt lat="54.973774" lon="8.675609">
|
|
<ele>-25.952623</ele>
|
|
<time>2026-07-10T11:59:31.000Z</time>
|
|
</trkpt>
|
|
<trkpt lat="54.973813" lon="8.675549">
|
|
<ele>-25.957655</ele>
|
|
<time>2026-07-10T11:59:32.000Z</time>
|
|
</trkpt>
|
|
<trkpt lat="54.973855" lon="8.675489">
|
|
<ele>-25.962909</ele>
|
|
<time>2026-07-10T11:59:33.000Z</time>
|
|
</trkpt>
|
|
<trkpt lat="54.973896" lon="8.675429">
|
|
<ele>-25.968089</ele>
|
|
<time>2026-07-10T11:59:34.000Z</time>
|
|
</trkpt>
|
|
<trkpt lat="54.973935" lon="8.675367">
|
|
<ele>-25.973196</ele>
|
|
<time>2026-07-10T11:59:35.000Z</time>
|
|
</trkpt>
|
|
<trkpt lat="54.973976" lon="8.675303">
|
|
<ele>-25.978521</ele>
|
|
<time>2026-07-10T11:59:36.000Z</time>
|
|
</trkpt>
|
|
<trkpt lat="54.974015" lon="8.675241">
|
|
<ele>-25.983628</ele>
|
|
<time>2026-07-10T11:59:37.000Z</time>
|
|
</trkpt>
|
|
<trkpt lat="54.974057" lon="8.675179">
|
|
<ele>-25.988953</ele>
|
|
<time>2026-07-10T11:59:38.000Z</time>
|
|
</trkpt>
|
|
<trkpt lat="54.974098" lon="8.675115">
|
|
<ele>-25.994279</ele>
|
|
<time>2026-07-10T11:59:39.000Z</time>
|
|
</trkpt>
|
|
<trkpt lat="54.974137" lon="8.675051">
|
|
<ele>-25.999461</ele>
|
|
<time>2026-07-10T11:59:40.000Z</time>
|
|
</trkpt>
|
|
<trkpt lat="54.974179" lon="8.674988">
|
|
<ele>-26.004822</ele>
|
|
<time>2026-07-10T11:59:41.000Z</time>
|
|
</trkpt>
|
|
<trkpt lat="54.974221" lon="8.674925">
|
|
<ele>-26.010183</ele>
|
|
<time>2026-07-10T11:59:42.000Z</time>
|
|
</trkpt>
|
|
<trkpt lat="54.974263" lon="8.674864">
|
|
<ele>-26.015473</ele>
|
|
<time>2026-07-10T11:59:43.000Z</time>
|
|
</trkpt>
|
|
<trkpt lat="54.974305" lon="8.674803">
|
|
<ele>-26.020762</ele>
|
|
<time>2026-07-10T11:59:44.000Z</time>
|
|
</trkpt>
|
|
<trkpt lat="54.974347" lon="8.674741">
|
|
<ele>-26.026087</ele>
|
|
<time>2026-07-10T11:59:45.000Z</time>
|
|
</trkpt>
|
|
<trkpt lat="54.974388" lon="8.674678">
|
|
<ele>-26.031375</ele>
|
|
<time>2026-07-10T11:59:46.000Z</time>
|
|
</trkpt>
|
|
<trkpt lat="54.974427" lon="8.674614">
|
|
<ele>-26.036558</ele>
|
|
<time>2026-07-10T11:59:47.000Z</time>
|
|
</trkpt>
|
|
<trkpt lat="54.974468" lon="8.674552">
|
|
<ele>-26.041810</ele>
|
|
<time>2026-07-10T11:59:48.000Z</time>
|
|
</trkpt>
|
|
<trkpt lat="54.974508" lon="8.674489">
|
|
<ele>-26.047026</ele>
|
|
<time>2026-07-10T11:59:49.000Z</time>
|
|
</trkpt>
|
|
<trkpt lat="54.974548" lon="8.674428">
|
|
<ele>-26.052168</ele>
|
|
<time>2026-07-10T11:59:50.000Z</time>
|
|
</trkpt>
|
|
<trkpt lat="54.974588" lon="8.674368">
|
|
<ele>-26.057274</ele>
|
|
<time>2026-07-10T11:59:51.000Z</time>
|
|
</trkpt>
|
|
<trkpt lat="54.974633" lon="8.674310">
|
|
<ele>-26.062688</ele>
|
|
<time>2026-07-10T11:59:52.000Z</time>
|
|
</trkpt>
|
|
<trkpt lat="54.974676" lon="8.674255">
|
|
<ele>-26.067849</ele>
|
|
<time>2026-07-10T11:59:53.000Z</time>
|
|
</trkpt>
|
|
<trkpt lat="54.974722" lon="8.674206">
|
|
<ele>-26.073064</ele>
|
|
<time>2026-07-10T11:59:54.000Z</time>
|
|
</trkpt>
|
|
<trkpt lat="54.974768" lon="8.674158">
|
|
<ele>-26.078251</ele>
|
|
<time>2026-07-10T11:59:55.000Z</time>
|
|
</trkpt>
|
|
<trkpt lat="54.974814" lon="8.674113">
|
|
<ele>-26.083354</ele>
|
|
<time>2026-07-10T11:59:56.000Z</time>
|
|
</trkpt>
|
|
<trkpt lat="54.974859" lon="8.674066">
|
|
<ele>-26.088430</ele>
|
|
<time>2026-07-10T11:59:57.000Z</time>
|
|
</trkpt>
|
|
<trkpt lat="54.974906" lon="8.674019">
|
|
<ele>-26.093672</ele>
|
|
<time>2026-07-10T11:59:58.000Z</time>
|
|
</trkpt>
|
|
<trkpt lat="54.974955" lon="8.673972">
|
|
<ele>-26.099083</ele>
|
|
<time>2026-07-10T11:59:59.000Z</time>
|
|
</trkpt>
|
|
<trkpt lat="54.975001" lon="8.673926">
|
|
<ele>-26.103662</ele>
|
|
<time>2026-07-10T12:00:00.000Z</time>
|
|
</trkpt>
|
|
<trkpt lat="54.975046" lon="8.673879">
|
|
<ele>-26.106171</ele>
|
|
<time>2026-07-10T12:00:01.000Z</time>
|
|
</trkpt>
|
|
<trkpt lat="54.975092" lon="8.673831">
|
|
<ele>-26.108735</ele>
|
|
<time>2026-07-10T12:00:02.000Z</time>
|
|
</trkpt>
|
|
<trkpt lat="54.975138" lon="8.673785">
|
|
<ele>-26.111271</ele>
|
|
<time>2026-07-10T12:00:03.000Z</time>
|
|
</trkpt>
|
|
<trkpt lat="54.975184" lon="8.673739">
|
|
<ele>-26.113807</ele>
|
|
<time>2026-07-10T12:00:04.000Z</time>
|
|
</trkpt>
|
|
<trkpt lat="54.975230" lon="8.673695">
|
|
<ele>-26.116317</ele>
|
|
<time>2026-07-10T12:00:05.000Z</time>
|
|
</trkpt>
|
|
<trkpt lat="54.975275" lon="8.673649">
|
|
<ele>-26.118811</ele>
|
|
<time>2026-07-10T12:00:06.000Z</time>
|
|
</trkpt>
|
|
<trkpt lat="54.975321" lon="8.673603">
|
|
<ele>-26.121348</ele>
|
|
<time>2026-07-10T12:00:07.000Z</time>
|
|
</trkpt>
|
|
<trkpt lat="54.975367" lon="8.673558">
|
|
<ele>-26.123870</ele>
|
|
<time>2026-07-10T12:00:08.000Z</time>
|
|
</trkpt>
|
|
<trkpt lat="54.975413" lon="8.673513">
|
|
<ele>-26.126393</ele>
|
|
<time>2026-07-10T12:00:09.000Z</time>
|
|
</trkpt>
|
|
<trkpt lat="54.975458" lon="8.673469">
|
|
<ele>-26.128861</ele>
|
|
<time>2026-07-10T12:00:10.000Z</time>
|
|
</trkpt>
|
|
<trkpt lat="54.975503" lon="8.673424">
|
|
<ele>-26.131342</ele>
|
|
<time>2026-07-10T12:00:11.000Z</time>
|
|
</trkpt>
|
|
<trkpt lat="54.975546" lon="8.673377">
|
|
<ele>-26.133769</ele>
|
|
<time>2026-07-10T12:00:12.000Z</time>
|
|
</trkpt>
|
|
<trkpt lat="54.975592" lon="8.673332">
|
|
<ele>-26.136292</ele>
|
|
<time>2026-07-10T12:00:13.000Z</time>
|
|
</trkpt>
|
|
<trkpt lat="54.975638" lon="8.673287">
|
|
<ele>-26.138814</ele>
|
|
<time>2026-07-10T12:00:14.000Z</time>
|
|
</trkpt>
|
|
<trkpt lat="54.975682" lon="8.673241">
|
|
<ele>-26.141268</ele>
|
|
<time>2026-07-10T12:00:15.000Z</time>
|
|
</trkpt>
|
|
<trkpt lat="54.975726" lon="8.673197">
|
|
<ele>-26.143694</ele>
|
|
<time>2026-07-10T12:00:16.000Z</time>
|
|
</trkpt>
|
|
<trkpt lat="54.975770" lon="8.673153">
|
|
<ele>-26.146120</ele>
|
|
<time>2026-07-10T12:00:17.000Z</time>
|
|
</trkpt>
|
|
<trkpt lat="54.975813" lon="8.673110">
|
|
<ele>-26.148491</ele>
|
|
<time>2026-07-10T12:00:18.000Z</time>
|
|
</trkpt>
|
|
<trkpt lat="54.975859" lon="8.673065">
|
|
<ele>-26.151013</ele>
|
|
<time>2026-07-10T12:00:19.000Z</time>
|
|
</trkpt>
|
|
<trkpt lat="54.975904" lon="8.673021">
|
|
<ele>-26.153481</ele>
|
|
<time>2026-07-10T12:00:20.000Z</time>
|
|
</trkpt>
|
|
<trkpt lat="54.975946" lon="8.672979">
|
|
<ele>-26.155797</ele>
|
|
<time>2026-07-10T12:00:21.000Z</time>
|
|
</trkpt>
|
|
<trkpt lat="54.975989" lon="8.672935">
|
|
<ele>-26.158181</ele>
|
|
<time>2026-07-10T12:00:22.000Z</time>
|
|
</trkpt>
|
|
<trkpt lat="54.976034" lon="8.672892">
|
|
<ele>-26.160635</ele>
|
|
<time>2026-07-10T12:00:23.000Z</time>
|
|
</trkpt>
|
|
<trkpt lat="54.976077" lon="8.672851">
|
|
<ele>-26.162979</ele>
|
|
<time>2026-07-10T12:00:24.000Z</time>
|
|
</trkpt>
|
|
<trkpt lat="54.976120" lon="8.672809">
|
|
<ele>-26.165337</ele>
|
|
<time>2026-07-10T12:00:25.000Z</time>
|
|
</trkpt>
|
|
<trkpt lat="54.976159" lon="8.672768">
|
|
<ele>-26.167515</ele>
|
|
<time>2026-07-10T12:00:26.000Z</time>
|
|
</trkpt>
|
|
<trkpt lat="54.976200" lon="8.672727">
|
|
<ele>-26.169775</ele>
|
|
<time>2026-07-10T12:00:27.000Z</time>
|
|
</trkpt>
|
|
<trkpt lat="54.976239" lon="8.672683">
|
|
<ele>-26.171997</ele>
|
|
<time>2026-07-10T12:00:28.000Z</time>
|
|
</trkpt>
|
|
<trkpt lat="54.976281" lon="8.672638">
|
|
<ele>-26.174355</ele>
|
|
<time>2026-07-10T12:00:29.000Z</time>
|
|
</trkpt>
|
|
<trkpt lat="54.976324" lon="8.672593">
|
|
<ele>-26.176753</ele>
|
|
<time>2026-07-10T12:00:30.000Z</time>
|
|
</trkpt>
|
|
<trkpt lat="54.976369" lon="8.672549">
|
|
<ele>-26.179221</ele>
|
|
<time>2026-07-10T12:00:31.000Z</time>
|
|
</trkpt>
|
|
<trkpt lat="54.976413" lon="8.672505">
|
|
<ele>-26.181647</ele>
|
|
<time>2026-07-10T12:00:32.000Z</time>
|
|
</trkpt>
|
|
<trkpt lat="54.976462" lon="8.672459">
|
|
<ele>-26.184308</ele>
|
|
<time>2026-07-10T12:00:33.000Z</time>
|
|
</trkpt>
|
|
<trkpt lat="54.976508" lon="8.672414">
|
|
<ele>-26.186831</ele>
|
|
<time>2026-07-10T12:00:34.000Z</time>
|
|
</trkpt>
|
|
<trkpt lat="54.976555" lon="8.672367">
|
|
<ele>-26.188716</ele>
|
|
<time>2026-07-10T12:00:35.000Z</time>
|
|
</trkpt>
|
|
<trkpt lat="54.976603" lon="8.672319">
|
|
<ele>-26.184908</ele>
|
|
<time>2026-07-10T12:00:36.000Z</time>
|
|
</trkpt>
|
|
<trkpt lat="54.976650" lon="8.672269">
|
|
<ele>-26.181120</ele>
|
|
<time>2026-07-10T12:00:37.000Z</time>
|
|
</trkpt>
|
|
<trkpt lat="54.976698" lon="8.672220">
|
|
<ele>-26.177293</ele>
|
|
<time>2026-07-10T12:00:38.000Z</time>
|
|
</trkpt>
|
|
<trkpt lat="54.976745" lon="8.672173">
|
|
<ele>-26.173564</ele>
|
|
<time>2026-07-10T12:00:39.000Z</time>
|
|
</trkpt>
|
|
<trkpt lat="54.976793" lon="8.672126">
|
|
<ele>-26.169776</ele>
|
|
<time>2026-07-10T12:00:40.000Z</time>
|
|
</trkpt>
|
|
<trkpt lat="54.976839" lon="8.672077">
|
|
<ele>-26.166067</ele>
|
|
<time>2026-07-10T12:00:41.000Z</time>
|
|
</trkpt>
|
|
<trkpt lat="54.976886" lon="8.672029">
|
|
<ele>-26.162319</ele>
|
|
<time>2026-07-10T12:00:42.000Z</time>
|
|
</trkpt>
|
|
<trkpt lat="54.976935" lon="8.671984">
|
|
<ele>-26.158508</ele>
|
|
<time>2026-07-10T12:00:43.000Z</time>
|
|
</trkpt>
|
|
<trkpt lat="54.976979" lon="8.671939">
|
|
<ele>-26.154998</ele>
|
|
<time>2026-07-10T12:00:44.000Z</time>
|
|
</trkpt>
|
|
<trkpt lat="54.977022" lon="8.671893">
|
|
<ele>-26.151527</ele>
|
|
<time>2026-07-10T12:00:45.000Z</time>
|
|
</trkpt>
|
|
<trkpt lat="54.977068" lon="8.671846">
|
|
<ele>-26.147858</ele>
|
|
<time>2026-07-10T12:00:46.000Z</time>
|
|
</trkpt>
|
|
<trkpt lat="54.977114" lon="8.671800">
|
|
<ele>-26.144209</ele>
|
|
<time>2026-07-10T12:00:47.000Z</time>
|
|
</trkpt>
|
|
<trkpt lat="54.977159" lon="8.671754">
|
|
<ele>-26.140620</ele>
|
|
<time>2026-07-10T12:00:48.000Z</time>
|
|
</trkpt>
|
|
<trkpt lat="54.977203" lon="8.671709">
|
|
<ele>-26.137110</ele>
|
|
<time>2026-07-10T12:00:49.000Z</time>
|
|
</trkpt>
|
|
<trkpt lat="54.977251" lon="8.671666">
|
|
<ele>-26.133397</ele>
|
|
<time>2026-07-10T12:00:50.000Z</time>
|
|
</trkpt>
|
|
<trkpt lat="54.977297" lon="8.671621">
|
|
<ele>-26.129767</ele>
|
|
<time>2026-07-10T12:00:51.000Z</time>
|
|
</trkpt>
|
|
<trkpt lat="54.977343" lon="8.671575">
|
|
<ele>-26.126119</ele>
|
|
<time>2026-07-10T12:00:52.000Z</time>
|
|
</trkpt>
|
|
<trkpt lat="54.977388" lon="8.671530">
|
|
<ele>-26.122549</ele>
|
|
<time>2026-07-10T12:00:53.000Z</time>
|
|
</trkpt>
|
|
<trkpt lat="54.977434" lon="8.671485">
|
|
<ele>-26.118920</ele>
|
|
<time>2026-07-10T12:00:54.000Z</time>
|
|
</trkpt>
|
|
<trkpt lat="54.977479" lon="8.671440">
|
|
<ele>-26.115350</ele>
|
|
<time>2026-07-10T12:00:55.000Z</time>
|
|
</trkpt>
|
|
<trkpt lat="54.977522" lon="8.671394">
|
|
<ele>-26.111879</ele>
|
|
<time>2026-07-10T12:00:56.000Z</time>
|
|
</trkpt>
|
|
<trkpt lat="54.977568" lon="8.671351">
|
|
<ele>-26.108287</ele>
|
|
<time>2026-07-10T12:00:57.000Z</time>
|
|
</trkpt>
|
|
<trkpt lat="54.977612" lon="8.671309">
|
|
<ele>-26.104836</ele>
|
|
<time>2026-07-10T12:00:58.000Z</time>
|
|
</trkpt>
|
|
<trkpt lat="54.977654" lon="8.671263">
|
|
<ele>-26.101423</ele>
|
|
<time>2026-07-10T12:00:59.000Z</time>
|
|
</trkpt>
|
|
<trkpt lat="54.977698" lon="8.671215">
|
|
<ele>-26.097851</ele>
|
|
<time>2026-07-10T12:01:00.000Z</time>
|
|
</trkpt>
|
|
<trkpt lat="54.977742" lon="8.671168">
|
|
<ele>-26.094301</ele>
|
|
<time>2026-07-10T12:01:01.000Z</time>
|
|
</trkpt>
|
|
<trkpt lat="54.977784" lon="8.671120">
|
|
<ele>-26.090845</ele>
|
|
<time>2026-07-10T12:01:02.000Z</time>
|
|
</trkpt>
|
|
<trkpt lat="54.977827" lon="8.671071">
|
|
<ele>-26.087310</ele>
|
|
<time>2026-07-10T12:01:03.000Z</time>
|
|
</trkpt>
|
|
<trkpt lat="54.977872" lon="8.671024">
|
|
<ele>-26.083701</ele>
|
|
<time>2026-07-10T12:01:04.000Z</time>
|
|
</trkpt>
|
|
<trkpt lat="54.977915" lon="8.670981">
|
|
<ele>-26.080290</ele>
|
|
<time>2026-07-10T12:01:05.000Z</time>
|
|
</trkpt>
|
|
<trkpt lat="54.977961" lon="8.670937">
|
|
<ele>-26.076680</ele>
|
|
<time>2026-07-10T12:01:06.000Z</time>
|
|
</trkpt>
|
|
<trkpt lat="54.978006" lon="8.670893">
|
|
<ele>-26.073130</ele>
|
|
<time>2026-07-10T12:01:07.000Z</time>
|
|
</trkpt>
|
|
<trkpt lat="54.978046" lon="8.670849">
|
|
<ele>-26.069875</ele>
|
|
<time>2026-07-10T12:01:08.000Z</time>
|
|
</trkpt>
|
|
<trkpt lat="54.978083" lon="8.670806">
|
|
<ele>-26.066816</ele>
|
|
<time>2026-07-10T12:01:09.000Z</time>
|
|
</trkpt>
|
|
<trkpt lat="54.978120" lon="8.670768">
|
|
<ele>-26.065760</ele>
|
|
<time>2026-07-10T12:01:10.000Z</time>
|
|
</trkpt>
|
|
<trkpt lat="54.978162" lon="8.670734">
|
|
<ele>-26.066534</ele>
|
|
<time>2026-07-10T12:01:11.000Z</time>
|
|
</trkpt>
|
|
<trkpt lat="54.978204" lon="8.670703">
|
|
<ele>-26.067296</ele>
|
|
<time>2026-07-10T12:01:12.000Z</time>
|
|
</trkpt>
|
|
<trkpt lat="54.978246" lon="8.670663">
|
|
<ele>-26.068096</ele>
|
|
<time>2026-07-10T12:01:13.000Z</time>
|
|
</trkpt>
|
|
<trkpt lat="54.978292" lon="8.670617">
|
|
<ele>-26.068983</ele>
|
|
<time>2026-07-10T12:01:14.000Z</time>
|
|
</trkpt>
|
|
<trkpt lat="54.978334" lon="8.670569">
|
|
<ele>-26.069822</ele>
|
|
<time>2026-07-10T12:01:15.000Z</time>
|
|
</trkpt>
|
|
<trkpt lat="54.978377" lon="8.670522">
|
|
<ele>-26.070670</ele>
|
|
<time>2026-07-10T12:01:16.000Z</time>
|
|
</trkpt>
|
|
<trkpt lat="54.978421" lon="8.670478">
|
|
<ele>-26.071518</ele>
|
|
<time>2026-07-10T12:01:17.000Z</time>
|
|
</trkpt>
|
|
<trkpt lat="54.978464" lon="8.670437">
|
|
<ele>-26.072337</ele>
|
|
<time>2026-07-10T12:01:18.000Z</time>
|
|
</trkpt>
|
|
<trkpt lat="54.978510" lon="8.670399">
|
|
<ele>-26.073188</ele>
|
|
<time>2026-07-10T12:01:19.000Z</time>
|
|
</trkpt>
|
|
<trkpt lat="54.978556" lon="8.670357">
|
|
<ele>-26.074056</ele>
|
|
<time>2026-07-10T12:01:20.000Z</time>
|
|
</trkpt>
|
|
<trkpt lat="54.978600" lon="8.670312">
|
|
<ele>-26.074909</ele>
|
|
<time>2026-07-10T12:01:21.000Z</time>
|
|
</trkpt>
|
|
<trkpt lat="54.978645" lon="8.670265">
|
|
<ele>-26.075786</ele>
|
|
<time>2026-07-10T12:01:22.000Z</time>
|
|
</trkpt>
|
|
<trkpt lat="54.978693" lon="8.670218">
|
|
<ele>-26.076706</ele>
|
|
<time>2026-07-10T12:01:23.000Z</time>
|
|
</trkpt>
|
|
<trkpt lat="54.978740" lon="8.670172">
|
|
<ele>-26.077607</ele>
|
|
<time>2026-07-10T12:01:24.000Z</time>
|
|
</trkpt>
|
|
<trkpt lat="54.978789" lon="8.670126">
|
|
<ele>-26.078537</ele>
|
|
<time>2026-07-10T12:01:25.000Z</time>
|
|
</trkpt>
|
|
<trkpt lat="54.978834" lon="8.670080">
|
|
<ele>-26.079409</ele>
|
|
<time>2026-07-10T12:01:26.000Z</time>
|
|
</trkpt>
|
|
<trkpt lat="54.978880" lon="8.670033">
|
|
<ele>-26.080300</ele>
|
|
<time>2026-07-10T12:01:27.000Z</time>
|
|
</trkpt>
|
|
<trkpt lat="54.978926" lon="8.669986">
|
|
<ele>-26.081191</ele>
|
|
<time>2026-07-10T12:01:28.000Z</time>
|
|
</trkpt>
|
|
<trkpt lat="54.978972" lon="8.669938">
|
|
<ele>-26.082087</ele>
|
|
<time>2026-07-10T12:01:29.000Z</time>
|
|
</trkpt>
|
|
<trkpt lat="54.979018" lon="8.669891">
|
|
<ele>-26.082978</ele>
|
|
<time>2026-07-10T12:01:30.000Z</time>
|
|
</trkpt>
|
|
<trkpt lat="54.979063" lon="8.669847">
|
|
<ele>-26.083841</ele>
|
|
<time>2026-07-10T12:01:31.000Z</time>
|
|
</trkpt>
|
|
<trkpt lat="54.979110" lon="8.669802">
|
|
<ele>-26.084737</ele>
|
|
<time>2026-07-10T12:01:32.000Z</time>
|
|
</trkpt>
|
|
<trkpt lat="54.979159" lon="8.669756">
|
|
<ele>-26.085667</ele>
|
|
<time>2026-07-10T12:01:33.000Z</time>
|
|
</trkpt>
|
|
<trkpt lat="54.979205" lon="8.669709">
|
|
<ele>-26.086558</ele>
|
|
<time>2026-07-10T12:01:34.000Z</time>
|
|
</trkpt>
|
|
<trkpt lat="54.979251" lon="8.669662">
|
|
<ele>-26.087449</ele>
|
|
<time>2026-07-10T12:01:35.000Z</time>
|
|
</trkpt>
|
|
<trkpt lat="54.979296" lon="8.669614">
|
|
<ele>-26.088331</ele>
|
|
<time>2026-07-10T12:01:36.000Z</time>
|
|
</trkpt>
|
|
<trkpt lat="54.979342" lon="8.669567">
|
|
<ele>-26.089222</ele>
|
|
<time>2026-07-10T12:01:37.000Z</time>
|
|
</trkpt>
|
|
<trkpt lat="54.979389" lon="8.669520">
|
|
<ele>-26.090128</ele>
|
|
<time>2026-07-10T12:01:38.000Z</time>
|
|
</trkpt>
|
|
<trkpt lat="54.979437" lon="8.669472">
|
|
<ele>-26.091053</ele>
|
|
<time>2026-07-10T12:01:39.000Z</time>
|
|
</trkpt>
|
|
<trkpt lat="54.979483" lon="8.669421">
|
|
<ele>-26.091964</ele>
|
|
<time>2026-07-10T12:01:40.000Z</time>
|
|
</trkpt>
|
|
<trkpt lat="54.979530" lon="8.669370">
|
|
<ele>-26.092889</ele>
|
|
<time>2026-07-10T12:01:41.000Z</time>
|
|
</trkpt>
|
|
<trkpt lat="54.979578" lon="8.669318">
|
|
<ele>-26.093834</ele>
|
|
<time>2026-07-10T12:01:42.000Z</time>
|
|
</trkpt>
|
|
<trkpt lat="54.979624" lon="8.669266">
|
|
<ele>-26.094750</ele>
|
|
<time>2026-07-10T12:01:43.000Z</time>
|
|
</trkpt>
|
|
<trkpt lat="54.979670" lon="8.669213">
|
|
<ele>-26.095919</ele>
|
|
<time>2026-07-10T12:01:44.000Z</time>
|
|
</trkpt>
|
|
<trkpt lat="54.979716" lon="8.669160">
|
|
<ele>-26.097861</ele>
|
|
<time>2026-07-10T12:01:45.000Z</time>
|
|
</trkpt>
|
|
<trkpt lat="54.979764" lon="8.669108">
|
|
<ele>-26.099852</ele>
|
|
<time>2026-07-10T12:01:46.000Z</time>
|
|
</trkpt>
|
|
<trkpt lat="54.979807" lon="8.669057">
|
|
<ele>-26.101683</ele>
|
|
<time>2026-07-10T12:01:47.000Z</time>
|
|
</trkpt>
|
|
<trkpt lat="54.979852" lon="8.669008">
|
|
<ele>-26.103552</ele>
|
|
<time>2026-07-10T12:01:48.000Z</time>
|
|
</trkpt>
|
|
<trkpt lat="54.979899" lon="8.668961">
|
|
<ele>-26.105460</ele>
|
|
<time>2026-07-10T12:01:49.000Z</time>
|
|
</trkpt>
|
|
<trkpt lat="54.979945" lon="8.668914">
|
|
<ele>-26.107338</ele>
|
|
<time>2026-07-10T12:01:50.000Z</time>
|
|
</trkpt>
|
|
<trkpt lat="54.979989" lon="8.668866">
|
|
<ele>-26.109166</ele>
|
|
<time>2026-07-10T12:01:51.000Z</time>
|
|
</trkpt>
|
|
<trkpt lat="54.980032" lon="8.668819">
|
|
<ele>-26.110953</ele>
|
|
<time>2026-07-10T12:01:52.000Z</time>
|
|
</trkpt>
|
|
<trkpt lat="54.980077" lon="8.668771">
|
|
<ele>-26.112811</ele>
|
|
<time>2026-07-10T12:01:53.000Z</time>
|
|
</trkpt>
|
|
<trkpt lat="54.980119" lon="8.668725">
|
|
<ele>-26.114558</ele>
|
|
<time>2026-07-10T12:01:54.000Z</time>
|
|
</trkpt>
|
|
<trkpt lat="54.980162" lon="8.668678">
|
|
<ele>-26.116346</ele>
|
|
<time>2026-07-10T12:01:55.000Z</time>
|
|
</trkpt>
|
|
<trkpt lat="54.980208" lon="8.668632">
|
|
<ele>-26.118213</ele>
|
|
<time>2026-07-10T12:01:56.000Z</time>
|
|
</trkpt>
|
|
<trkpt lat="54.980252" lon="8.668588">
|
|
<ele>-26.120000</ele>
|
|
<time>2026-07-10T12:01:57.000Z</time>
|
|
</trkpt>
|
|
<trkpt lat="54.980295" lon="8.668541">
|
|
<ele>-26.121787</ele>
|
|
<time>2026-07-10T12:01:58.000Z</time>
|
|
</trkpt>
|
|
<trkpt lat="54.980341" lon="8.668493">
|
|
<ele>-26.123676</ele>
|
|
<time>2026-07-10T12:01:59.000Z</time>
|
|
</trkpt>
|
|
<trkpt lat="54.980386" lon="8.668446">
|
|
<ele>-26.125523</ele>
|
|
<time>2026-07-10T12:02:00.000Z</time>
|
|
</trkpt>
|
|
<trkpt lat="54.980429" lon="8.668398">
|
|
<ele>-26.127321</ele>
|
|
<time>2026-07-10T12:02:01.000Z</time>
|
|
</trkpt>
|
|
<trkpt lat="54.980474" lon="8.668351">
|
|
<ele>-26.129169</ele>
|
|
<time>2026-07-10T12:02:02.000Z</time>
|
|
</trkpt>
|
|
<trkpt lat="54.980520" lon="8.668302">
|
|
<ele>-26.131067</ele>
|
|
<time>2026-07-10T12:02:03.000Z</time>
|
|
</trkpt>
|
|
<trkpt lat="54.980566" lon="8.668253">
|
|
<ele>-26.132966</ele>
|
|
<time>2026-07-10T12:02:04.000Z</time>
|
|
</trkpt>
|
|
<trkpt lat="54.980612" lon="8.668204">
|
|
<ele>-26.134865</ele>
|
|
<time>2026-07-10T12:02:05.000Z</time>
|
|
</trkpt>
|
|
<trkpt lat="54.980657" lon="8.668156">
|
|
<ele>-26.136722</ele>
|
|
<time>2026-07-10T12:02:06.000Z</time>
|
|
</trkpt>
|
|
<trkpt lat="54.980698" lon="8.668107">
|
|
<ele>-26.138473</ele>
|
|
<time>2026-07-10T12:02:07.000Z</time>
|
|
</trkpt>
|
|
<trkpt lat="54.980742" lon="8.668060">
|
|
<ele>-26.140291</ele>
|
|
<time>2026-07-10T12:02:08.000Z</time>
|
|
</trkpt>
|
|
<trkpt lat="54.980787" lon="8.668013">
|
|
<ele>-26.142138</ele>
|
|
<time>2026-07-10T12:02:09.000Z</time>
|
|
</trkpt>
|
|
<trkpt lat="54.980832" lon="8.667966">
|
|
<ele>-26.143986</ele>
|
|
<time>2026-07-10T12:02:10.000Z</time>
|
|
</trkpt>
|
|
<trkpt lat="54.980875" lon="8.667918">
|
|
<ele>-26.145784</ele>
|
|
<time>2026-07-10T12:02:11.000Z</time>
|
|
</trkpt>
|
|
<trkpt lat="54.980921" lon="8.667870">
|
|
<ele>-26.147672</ele>
|
|
<time>2026-07-10T12:02:12.000Z</time>
|
|
</trkpt>
|
|
<trkpt lat="54.980965" lon="8.667823">
|
|
<ele>-26.149489</ele>
|
|
<time>2026-07-10T12:02:13.000Z</time>
|
|
</trkpt>
|
|
<trkpt lat="54.981007" lon="8.667774">
|
|
<ele>-26.151269</ele>
|
|
<time>2026-07-10T12:02:14.000Z</time>
|
|
</trkpt>
|
|
<trkpt lat="54.981050" lon="8.667726">
|
|
<ele>-26.153068</ele>
|
|
<time>2026-07-10T12:02:15.000Z</time>
|
|
</trkpt>
|
|
<trkpt lat="54.981096" lon="8.667677">
|
|
<ele>-26.154966</ele>
|
|
<time>2026-07-10T12:02:16.000Z</time>
|
|
</trkpt>
|
|
<trkpt lat="54.981141" lon="8.667627">
|
|
<ele>-26.156845</ele>
|
|
<time>2026-07-10T12:02:17.000Z</time>
|
|
</trkpt>
|
|
<trkpt lat="54.981184" lon="8.667578">
|
|
<ele>-26.158655</ele>
|
|
<time>2026-07-10T12:02:18.000Z</time>
|
|
</trkpt>
|
|
<trkpt lat="54.981231" lon="8.667526">
|
|
<ele>-26.160491</ele>
|
|
<time>2026-07-10T12:02:19.000Z</time>
|
|
</trkpt>
|
|
<trkpt lat="54.981280" lon="8.667475">
|
|
<ele>-26.162364</ele>
|
|
<time>2026-07-10T12:02:20.000Z</time>
|
|
</trkpt>
|
|
<trkpt lat="54.981325" lon="8.667426">
|
|
<ele>-26.164106</ele>
|
|
<time>2026-07-10T12:02:21.000Z</time>
|
|
</trkpt>
|
|
<trkpt lat="54.981371" lon="8.667375">
|
|
<ele>-26.165896</ele>
|
|
<time>2026-07-10T12:02:22.000Z</time>
|
|
</trkpt>
|
|
<trkpt lat="54.981416" lon="8.667325">
|
|
<ele>-26.167647</ele>
|
|
<time>2026-07-10T12:02:23.000Z</time>
|
|
</trkpt>
|
|
<trkpt lat="54.981462" lon="8.667274">
|
|
<ele>-26.169437</ele>
|
|
<time>2026-07-10T12:02:24.000Z</time>
|
|
</trkpt>
|
|
<trkpt lat="54.981507" lon="8.667224">
|
|
<ele>-26.171188</ele>
|
|
<time>2026-07-10T12:02:25.000Z</time>
|
|
</trkpt>
|
|
<trkpt lat="54.981552" lon="8.667174">
|
|
<ele>-26.172940</ele>
|
|
<time>2026-07-10T12:02:26.000Z</time>
|
|
</trkpt>
|
|
<trkpt lat="54.981599" lon="8.667124">
|
|
<ele>-26.174747</ele>
|
|
<time>2026-07-10T12:02:27.000Z</time>
|
|
</trkpt>
|
|
<trkpt lat="54.981642" lon="8.667074">
|
|
<ele>-26.176444</ele>
|
|
<time>2026-07-10T12:02:28.000Z</time>
|
|
</trkpt>
|
|
<trkpt lat="54.981687" lon="8.667024">
|
|
<ele>-26.178196</ele>
|
|
<time>2026-07-10T12:02:29.000Z</time>
|
|
</trkpt>
|
|
<trkpt lat="54.981728" lon="8.666976">
|
|
<ele>-26.179817</ele>
|
|
<time>2026-07-10T12:02:30.000Z</time>
|
|
</trkpt>
|
|
<trkpt lat="54.981771" lon="8.666928">
|
|
<ele>-26.181493</ele>
|
|
<time>2026-07-10T12:02:31.000Z</time>
|
|
</trkpt>
|
|
<trkpt lat="54.981816" lon="8.666879">
|
|
<ele>-26.183235</ele>
|
|
<time>2026-07-10T12:02:32.000Z</time>
|
|
</trkpt>
|
|
<trkpt lat="54.981859" lon="8.666830">
|
|
<ele>-26.184921</ele>
|
|
<time>2026-07-10T12:02:33.000Z</time>
|
|
</trkpt>
|
|
<trkpt lat="54.981904" lon="8.666780">
|
|
<ele>-26.186673</ele>
|
|
<time>2026-07-10T12:02:34.000Z</time>
|
|
</trkpt>
|
|
<trkpt lat="54.981947" lon="8.666731">
|
|
<ele>-26.188359</ele>
|
|
<time>2026-07-10T12:02:35.000Z</time>
|
|
</trkpt>
|
|
<trkpt lat="54.981993" lon="8.666682">
|
|
<ele>-26.190129</ele>
|
|
<time>2026-07-10T12:02:36.000Z</time>
|
|
</trkpt>
|
|
<trkpt lat="54.982037" lon="8.666632">
|
|
<ele>-26.191853</ele>
|
|
<time>2026-07-10T12:02:37.000Z</time>
|
|
</trkpt>
|
|
<trkpt lat="54.982082" lon="8.666582">
|
|
<ele>-26.193604</ele>
|
|
<time>2026-07-10T12:02:38.000Z</time>
|
|
</trkpt>
|
|
<trkpt lat="54.982129" lon="8.666532">
|
|
<ele>-26.195412</ele>
|
|
<time>2026-07-10T12:02:39.000Z</time>
|
|
</trkpt>
|
|
<trkpt lat="54.982173" lon="8.666482">
|
|
<ele>-26.197136</ele>
|
|
<time>2026-07-10T12:02:40.000Z</time>
|
|
</trkpt>
|
|
<trkpt lat="54.982222" lon="8.666433">
|
|
<ele>-26.198990</ele>
|
|
<time>2026-07-10T12:02:41.000Z</time>
|
|
</trkpt>
|
|
<trkpt lat="54.982268" lon="8.666383">
|
|
<ele>-26.200770</ele>
|
|
<time>2026-07-10T12:02:42.000Z</time>
|
|
</trkpt>
|
|
<trkpt lat="54.982313" lon="8.666334">
|
|
<ele>-26.202511</ele>
|
|
<time>2026-07-10T12:02:43.000Z</time>
|
|
</trkpt>
|
|
<trkpt lat="54.982359" lon="8.666285">
|
|
<ele>-26.204281</ele>
|
|
<time>2026-07-10T12:02:44.000Z</time>
|
|
</trkpt>
|
|
<trkpt lat="54.982405" lon="8.666235">
|
|
<ele>-26.206060</ele>
|
|
<time>2026-07-10T12:02:45.000Z</time>
|
|
</trkpt>
|
|
<trkpt lat="54.982450" lon="8.666184">
|
|
<ele>-26.207822</ele>
|
|
<time>2026-07-10T12:02:46.000Z</time>
|
|
</trkpt>
|
|
<trkpt lat="54.982493" lon="8.666133">
|
|
<ele>-26.209529</ele>
|
|
<time>2026-07-10T12:02:47.000Z</time>
|
|
</trkpt>
|
|
<trkpt lat="54.982538" lon="8.666084">
|
|
<ele>-26.211271</ele>
|
|
<time>2026-07-10T12:02:48.000Z</time>
|
|
</trkpt>
|
|
<trkpt lat="54.982584" lon="8.666033">
|
|
<ele>-26.213061</ele>
|
|
<time>2026-07-10T12:02:49.000Z</time>
|
|
</trkpt>
|
|
<trkpt lat="54.982629" lon="8.665983">
|
|
<ele>-26.214812</ele>
|
|
<time>2026-07-10T12:02:50.000Z</time>
|
|
</trkpt>
|
|
<trkpt lat="54.982672" lon="8.665934">
|
|
<ele>-26.216499</ele>
|
|
<time>2026-07-10T12:02:51.000Z</time>
|
|
</trkpt>
|
|
<trkpt lat="54.982717" lon="8.665885">
|
|
<ele>-26.218542</ele>
|
|
<time>2026-07-10T12:02:52.000Z</time>
|
|
</trkpt>
|
|
<trkpt lat="54.982763" lon="8.665836">
|
|
<ele>-26.221593</ele>
|
|
<time>2026-07-10T12:02:53.000Z</time>
|
|
</trkpt>
|
|
<trkpt lat="54.982805" lon="8.665788">
|
|
<ele>-26.224436</ele>
|
|
<time>2026-07-10T12:02:54.000Z</time>
|
|
</trkpt>
|
|
<trkpt lat="54.982851" lon="8.665739">
|
|
<ele>-26.227487</ele>
|
|
<time>2026-07-10T12:02:55.000Z</time>
|
|
</trkpt>
|
|
<trkpt lat="54.982896" lon="8.665690">
|
|
<ele>-26.230490</ele>
|
|
<time>2026-07-10T12:02:56.000Z</time>
|
|
</trkpt>
|
|
<trkpt lat="54.982939" lon="8.665641">
|
|
<ele>-26.233398</ele>
|
|
<time>2026-07-10T12:02:57.000Z</time>
|
|
</trkpt>
|
|
<trkpt lat="54.982984" lon="8.665592">
|
|
<ele>-26.236401</ele>
|
|
<time>2026-07-10T12:02:58.000Z</time>
|
|
</trkpt>
|
|
<trkpt lat="54.983031" lon="8.665542">
|
|
<ele>-26.239517</ele>
|
|
<time>2026-07-10T12:02:59.000Z</time>
|
|
</trkpt>
|
|
<trkpt lat="54.983076" lon="8.665494">
|
|
<ele>-26.242503</ele>
|
|
<time>2026-07-10T12:03:00.000Z</time>
|
|
</trkpt>
|
|
<trkpt lat="54.983121" lon="8.665444">
|
|
<ele>-26.245523</ele>
|
|
<time>2026-07-10T12:03:01.000Z</time>
|
|
</trkpt>
|
|
<trkpt lat="54.983164" lon="8.665394">
|
|
<ele>-26.248449</ele>
|
|
<time>2026-07-10T12:03:02.000Z</time>
|
|
</trkpt>
|
|
<trkpt lat="54.983210" lon="8.665347">
|
|
<ele>-26.251467</ele>
|
|
<time>2026-07-10T12:03:03.000Z</time>
|
|
</trkpt>
|
|
<trkpt lat="54.983256" lon="8.665300">
|
|
<ele>-26.254485</ele>
|
|
<time>2026-07-10T12:03:04.000Z</time>
|
|
</trkpt>
|
|
<trkpt lat="54.983300" lon="8.665252">
|
|
<ele>-26.257422</ele>
|
|
<time>2026-07-10T12:03:05.000Z</time>
|
|
</trkpt>
|
|
<trkpt lat="54.983342" lon="8.665201">
|
|
<ele>-26.260320</ele>
|
|
<time>2026-07-10T12:03:06.000Z</time>
|
|
</trkpt>
|
|
<trkpt lat="54.983384" lon="8.665150">
|
|
<ele>-26.263217</ele>
|
|
<time>2026-07-10T12:03:07.000Z</time>
|
|
</trkpt>
|
|
<trkpt lat="54.983427" lon="8.665099">
|
|
<ele>-26.266160</ele>
|
|
<time>2026-07-10T12:03:08.000Z</time>
|
|
</trkpt>
|
|
<trkpt lat="54.983472" lon="8.665051">
|
|
<ele>-26.269146</ele>
|
|
<time>2026-07-10T12:03:09.000Z</time>
|
|
</trkpt>
|
|
<trkpt lat="54.983515" lon="8.665002">
|
|
<ele>-26.272054</ele>
|
|
<time>2026-07-10T12:03:10.000Z</time>
|
|
</trkpt>
|
|
<trkpt lat="54.983561" lon="8.664951">
|
|
<ele>-26.275139</ele>
|
|
<time>2026-07-10T12:03:11.000Z</time>
|
|
</trkpt>
|
|
<trkpt lat="54.983606" lon="8.664900">
|
|
<ele>-26.278177</ele>
|
|
<time>2026-07-10T12:03:12.000Z</time>
|
|
</trkpt>
|
|
<trkpt lat="54.983654" lon="8.664848">
|
|
<ele>-26.281376</ele>
|
|
<time>2026-07-10T12:03:13.000Z</time>
|
|
</trkpt>
|
|
<trkpt lat="54.983702" lon="8.664794">
|
|
<ele>-26.284609</ele>
|
|
<time>2026-07-10T12:03:14.000Z</time>
|
|
</trkpt>
|
|
<trkpt lat="54.983747" lon="8.664742">
|
|
<ele>-26.287665</ele>
|
|
<time>2026-07-10T12:03:15.000Z</time>
|
|
</trkpt>
|
|
<trkpt lat="54.983794" lon="8.664691">
|
|
<ele>-26.290799</ele>
|
|
<time>2026-07-10T12:03:16.000Z</time>
|
|
</trkpt>
|
|
<trkpt lat="54.983842" lon="8.664642">
|
|
<ele>-26.293947</ele>
|
|
<time>2026-07-10T12:03:17.000Z</time>
|
|
</trkpt>
|
|
<trkpt lat="54.983885" lon="8.664590">
|
|
<ele>-26.296909</ele>
|
|
<time>2026-07-10T12:03:18.000Z</time>
|
|
</trkpt>
|
|
<trkpt lat="54.983931" lon="8.664538">
|
|
<ele>-26.300012</ele>
|
|
<time>2026-07-10T12:03:19.000Z</time>
|
|
</trkpt>
|
|
<trkpt lat="54.983976" lon="8.664487">
|
|
<ele>-26.303050</ele>
|
|
<time>2026-07-10T12:03:20.000Z</time>
|
|
</trkpt>
|
|
<trkpt lat="54.984023" lon="8.664437">
|
|
<ele>-26.306166</ele>
|
|
<time>2026-07-10T12:03:21.000Z</time>
|
|
</trkpt>
|
|
<trkpt lat="54.984072" lon="8.664387">
|
|
<ele>-26.309380</ele>
|
|
<time>2026-07-10T12:03:22.000Z</time>
|
|
</trkpt>
|
|
<trkpt lat="54.984118" lon="8.664337">
|
|
<ele>-26.312448</ele>
|
|
<time>2026-07-10T12:03:23.000Z</time>
|
|
</trkpt>
|
|
<trkpt lat="54.984162" lon="8.664289">
|
|
<ele>-26.315386</ele>
|
|
<time>2026-07-10T12:03:24.000Z</time>
|
|
</trkpt>
|
|
<trkpt lat="54.984205" lon="8.664239">
|
|
<ele>-26.318311</ele>
|
|
<time>2026-07-10T12:03:25.000Z</time>
|
|
</trkpt>
|
|
<trkpt lat="54.984250" lon="8.664189">
|
|
<ele>-26.323911</ele>
|
|
<time>2026-07-10T12:03:26.000Z</time>
|
|
</trkpt>
|
|
<trkpt lat="54.984292" lon="8.664140">
|
|
<ele>-26.331073</ele>
|
|
<time>2026-07-10T12:03:27.000Z</time>
|
|
</trkpt>
|
|
<trkpt lat="54.984334" lon="8.664092">
|
|
<ele>-26.338190</ele>
|
|
<time>2026-07-10T12:03:28.000Z</time>
|
|
</trkpt>
|
|
<trkpt lat="54.984377" lon="8.664044">
|
|
<ele>-26.345426</ele>
|
|
<time>2026-07-10T12:03:29.000Z</time>
|
|
</trkpt>
|
|
<trkpt lat="54.984422" lon="8.663996">
|
|
<ele>-26.352902</ele>
|
|
<time>2026-07-10T12:03:30.000Z</time>
|
|
</trkpt>
|
|
<trkpt lat="54.984464" lon="8.663948">
|
|
<ele>-26.360019</ele>
|
|
<time>2026-07-10T12:03:31.000Z</time>
|
|
</trkpt>
|
|
<trkpt lat="54.984506" lon="8.663901">
|
|
<ele>-26.367092</ele>
|
|
<time>2026-07-10T12:03:32.000Z</time>
|
|
</trkpt>
|
|
<trkpt lat="54.984548" lon="8.663853">
|
|
<ele>-26.374209</ele>
|
|
<time>2026-07-10T12:03:33.000Z</time>
|
|
</trkpt>
|
|
<trkpt lat="54.984590" lon="8.663803">
|
|
<ele>-26.381416</ele>
|
|
<time>2026-07-10T12:03:34.000Z</time>
|
|
</trkpt>
|
|
<trkpt lat="54.984633" lon="8.663754">
|
|
<ele>-26.388697</ele>
|
|
<time>2026-07-10T12:03:35.000Z</time>
|
|
</trkpt>
|
|
<trkpt lat="54.984677" lon="8.663704">
|
|
<ele>-26.396140</ele>
|
|
<time>2026-07-10T12:03:36.000Z</time>
|
|
</trkpt>
|
|
<trkpt lat="54.984719" lon="8.663652">
|
|
<ele>-26.403440</ele>
|
|
<time>2026-07-10T12:03:37.000Z</time>
|
|
</trkpt>
|
|
<trkpt lat="54.984762" lon="8.663598">
|
|
<ele>-26.410951</ele>
|
|
<time>2026-07-10T12:03:38.000Z</time>
|
|
</trkpt>
|
|
<trkpt lat="54.984807" lon="8.663545">
|
|
<ele>-26.418647</ele>
|
|
<time>2026-07-10T12:03:39.000Z</time>
|
|
</trkpt>
|
|
<trkpt lat="54.984850" lon="8.663494">
|
|
<ele>-26.426017</ele>
|
|
<time>2026-07-10T12:03:40.000Z</time>
|
|
</trkpt>
|
|
<trkpt lat="54.984896" lon="8.663444">
|
|
<ele>-26.433700</ele>
|
|
<time>2026-07-10T12:03:41.000Z</time>
|
|
</trkpt>
|
|
<trkpt lat="54.984941" lon="8.663394">
|
|
<ele>-26.441262</ele>
|
|
<time>2026-07-10T12:03:42.000Z</time>
|
|
</trkpt>
|
|
<trkpt lat="54.984983" lon="8.663342">
|
|
<ele>-26.448562</ele>
|
|
<time>2026-07-10T12:03:43.000Z</time>
|
|
</trkpt>
|
|
<trkpt lat="54.985028" lon="8.663291">
|
|
<ele>-26.456169</ele>
|
|
<time>2026-07-10T12:03:44.000Z</time>
|
|
</trkpt>
|
|
<trkpt lat="54.985070" lon="8.663237">
|
|
<ele>-26.463565</ele>
|
|
<time>2026-07-10T12:03:45.000Z</time>
|
|
</trkpt>
|
|
<trkpt lat="54.985113" lon="8.663183">
|
|
<ele>-26.471075</ele>
|
|
<time>2026-07-10T12:03:46.000Z</time>
|
|
</trkpt>
|
|
<trkpt lat="54.985159" lon="8.663129">
|
|
<ele>-26.478934</ele>
|
|
<time>2026-07-10T12:03:47.000Z</time>
|
|
</trkpt>
|
|
<trkpt lat="54.985204" lon="8.663077">
|
|
<ele>-26.486585</ele>
|
|
<time>2026-07-10T12:03:48.000Z</time>
|
|
</trkpt>
|
|
<trkpt lat="54.985247" lon="8.663028">
|
|
<ele>-26.493865</ele>
|
|
<time>2026-07-10T12:03:49.000Z</time>
|
|
</trkpt>
|
|
<trkpt lat="54.985293" lon="8.662978">
|
|
<ele>-26.501547</ele>
|
|
<time>2026-07-10T12:03:50.000Z</time>
|
|
</trkpt>
|
|
<trkpt lat="54.985338" lon="8.662928">
|
|
<ele>-26.509110</ele>
|
|
<time>2026-07-10T12:03:51.000Z</time>
|
|
</trkpt>
|
|
<trkpt lat="54.985384" lon="8.662879">
|
|
<ele>-26.516749</ele>
|
|
<time>2026-07-10T12:03:52.000Z</time>
|
|
</trkpt>
|
|
<trkpt lat="54.985431" lon="8.662829">
|
|
<ele>-26.524552</ele>
|
|
<time>2026-07-10T12:03:53.000Z</time>
|
|
</trkpt>
|
|
<trkpt lat="54.985481" lon="8.662779">
|
|
<ele>-26.532721</ele>
|
|
<time>2026-07-10T12:03:54.000Z</time>
|
|
</trkpt>
|
|
<trkpt lat="54.985529" lon="8.662729">
|
|
<ele>-26.540645</ele>
|
|
<time>2026-07-10T12:03:55.000Z</time>
|
|
</trkpt>
|
|
<trkpt lat="54.985575" lon="8.662678">
|
|
<ele>-26.548370</ele>
|
|
<time>2026-07-10T12:03:56.000Z</time>
|
|
</trkpt>
|
|
<trkpt lat="54.985622" lon="8.662629">
|
|
<ele>-26.556131</ele>
|
|
<time>2026-07-10T12:03:57.000Z</time>
|
|
</trkpt>
|
|
<trkpt lat="54.985670" lon="8.662581">
|
|
<ele>-26.563973</ele>
|
|
<time>2026-07-10T12:03:58.000Z</time>
|
|
</trkpt>
|
|
<trkpt lat="54.985716" lon="8.662534">
|
|
<ele>-26.571529</ele>
|
|
<time>2026-07-10T12:03:59.000Z</time>
|
|
</trkpt>
|
|
<trkpt lat="54.985762" lon="8.662488">
|
|
<ele>-26.544029</ele>
|
|
<time>2026-07-10T12:04:00.000Z</time>
|
|
</trkpt>
|
|
<trkpt lat="54.985806" lon="8.662441">
|
|
<ele>-26.495108</ele>
|
|
<time>2026-07-10T12:04:01.000Z</time>
|
|
</trkpt>
|
|
<trkpt lat="54.985850" lon="8.662393">
|
|
<ele>-26.445902</ele>
|
|
<time>2026-07-10T12:04:02.000Z</time>
|
|
</trkpt>
|
|
<trkpt lat="54.985895" lon="8.662347">
|
|
<ele>-26.396448</ele>
|
|
<time>2026-07-10T12:04:03.000Z</time>
|
|
</trkpt>
|
|
<trkpt lat="54.985941" lon="8.662301">
|
|
<ele>-26.346174</ele>
|
|
<time>2026-07-10T12:04:04.000Z</time>
|
|
</trkpt>
|
|
<trkpt lat="54.985986" lon="8.662255">
|
|
<ele>-26.296721</ele>
|
|
<time>2026-07-10T12:04:05.000Z</time>
|
|
</trkpt>
|
|
<trkpt lat="54.986029" lon="8.662210">
|
|
<ele>-26.249175</ele>
|
|
<time>2026-07-10T12:04:06.000Z</time>
|
|
</trkpt>
|
|
<trkpt lat="54.986075" lon="8.662166">
|
|
<ele>-26.199434</ele>
|
|
<time>2026-07-10T12:04:07.000Z</time>
|
|
</trkpt>
|
|
<trkpt lat="54.986119" lon="8.662130">
|
|
<ele>-26.153357</ele>
|
|
<time>2026-07-10T12:04:08.000Z</time>
|
|
</trkpt>
|
|
<trkpt lat="54.986163" lon="8.662106">
|
|
<ele>-26.109653</ele>
|
|
<time>2026-07-10T12:04:09.000Z</time>
|
|
</trkpt>
|
|
<trkpt lat="54.986213" lon="8.662089">
|
|
<ele>-26.061362</ele>
|
|
<time>2026-07-10T12:04:10.000Z</time>
|
|
</trkpt>
|
|
<trkpt lat="54.986261" lon="8.662077">
|
|
<ele>-26.015395</ele>
|
|
<time>2026-07-10T12:04:11.000Z</time>
|
|
</trkpt>
|
|
<trkpt lat="54.986308" lon="8.662069">
|
|
<ele>-25.970629</ele>
|
|
<time>2026-07-10T12:04:12.000Z</time>
|
|
</trkpt>
|
|
<trkpt lat="54.986359" lon="8.662060">
|
|
<ele>-25.922037</ele>
|
|
<time>2026-07-10T12:04:13.000Z</time>
|
|
</trkpt>
|
|
<trkpt lat="54.986411" lon="8.662050">
|
|
<ele>-25.872445</ele>
|
|
<time>2026-07-10T12:04:14.000Z</time>
|
|
</trkpt>
|
|
<trkpt lat="54.986460" lon="8.662040">
|
|
<ele>-25.825678</ele>
|
|
<time>2026-07-10T12:04:15.000Z</time>
|
|
</trkpt>
|
|
<trkpt lat="54.986507" lon="8.662029">
|
|
<ele>-25.780725</ele>
|
|
<time>2026-07-10T12:04:16.000Z</time>
|
|
</trkpt>
|
|
<trkpt lat="54.986555" lon="8.662020">
|
|
<ele>-25.734961</ele>
|
|
<time>2026-07-10T12:04:17.000Z</time>
|
|
</trkpt>
|
|
<trkpt lat="54.986601" lon="8.662018">
|
|
<ele>-25.691342</ele>
|
|
<time>2026-07-10T12:04:18.000Z</time>
|
|
</trkpt>
|
|
<trkpt lat="54.986647" lon="8.662024">
|
|
<ele>-25.647614</ele>
|
|
<time>2026-07-10T12:04:19.000Z</time>
|
|
</trkpt>
|
|
<trkpt lat="54.986692" lon="8.662030">
|
|
<ele>-25.604832</ele>
|
|
<time>2026-07-10T12:04:20.000Z</time>
|
|
</trkpt>
|
|
<trkpt lat="54.986734" lon="8.662036">
|
|
<ele>-25.564885</ele>
|
|
<time>2026-07-10T12:04:21.000Z</time>
|
|
</trkpt>
|
|
<trkpt lat="54.986778" lon="8.662040">
|
|
<ele>-25.523119</ele>
|
|
<time>2026-07-10T12:04:22.000Z</time>
|
|
</trkpt>
|
|
<trkpt lat="54.986817" lon="8.662042">
|
|
<ele>-25.486133</ele>
|
|
<time>2026-07-10T12:04:23.000Z</time>
|
|
</trkpt>
|
|
<trkpt lat="54.986859" lon="8.662045">
|
|
<ele>-25.446286</ele>
|
|
<time>2026-07-10T12:04:24.000Z</time>
|
|
</trkpt>
|
|
<trkpt lat="54.986902" lon="8.662048">
|
|
<ele>-25.405491</ele>
|
|
<time>2026-07-10T12:04:25.000Z</time>
|
|
</trkpt>
|
|
<trkpt lat="54.986947" lon="8.662053">
|
|
<ele>-25.362747</ele>
|
|
<time>2026-07-10T12:04:26.000Z</time>
|
|
</trkpt>
|
|
<trkpt lat="54.986988" lon="8.662058">
|
|
<ele>-25.323787</ele>
|
|
<time>2026-07-10T12:04:27.000Z</time>
|
|
</trkpt>
|
|
<trkpt lat="54.987026" lon="8.662062">
|
|
<ele>-25.287699</ele>
|
|
<time>2026-07-10T12:04:28.000Z</time>
|
|
</trkpt>
|
|
<trkpt lat="54.987062" lon="8.662070">
|
|
<ele>-25.253297</ele>
|
|
<time>2026-07-10T12:04:29.000Z</time>
|
|
</trkpt>
|
|
<trkpt lat="54.987091" lon="8.662082">
|
|
<ele>-25.225042</ele>
|
|
<time>2026-07-10T12:04:30.000Z</time>
|
|
</trkpt>
|
|
<trkpt lat="54.987117" lon="8.662102">
|
|
<ele>-25.198102</ele>
|
|
<time>2026-07-10T12:04:31.000Z</time>
|
|
</trkpt>
|
|
<trkpt lat="54.987137" lon="8.662133">
|
|
<ele>-25.172730</ele>
|
|
<time>2026-07-10T12:04:32.000Z</time>
|
|
</trkpt>
|
|
<trkpt lat="54.987149" lon="8.662162">
|
|
<ele>-25.153283</ele>
|
|
<time>2026-07-10T12:04:33.000Z</time>
|
|
</trkpt>
|
|
<trkpt lat="54.987171" lon="8.662227">
|
|
<ele>-25.112237</ele>
|
|
<time>2026-07-10T12:04:34.000Z</time>
|
|
</trkpt>
|
|
<trkpt lat="54.987180" lon="8.662284">
|
|
<ele>-25.080083</ele>
|
|
<time>2026-07-10T12:04:35.000Z</time>
|
|
</trkpt>
|
|
<trkpt lat="54.987181" lon="8.662349">
|
|
<ele>-25.044717</ele>
|
|
<time>2026-07-10T12:04:36.000Z</time>
|
|
</trkpt>
|
|
<trkpt lat="54.987178" lon="8.662414">
|
|
<ele>-25.009250</ele>
|
|
<time>2026-07-10T12:04:37.000Z</time>
|
|
</trkpt>
|
|
<trkpt lat="54.987175" lon="8.662480">
|
|
<ele>-24.973241</ele>
|
|
<time>2026-07-10T12:04:38.000Z</time>
|
|
</trkpt>
|
|
<trkpt lat="54.987175" lon="8.662547">
|
|
<ele>-24.936800</ele>
|
|
<time>2026-07-10T12:04:39.000Z</time>
|
|
</trkpt>
|
|
<trkpt lat="54.987176" lon="8.662613">
|
|
<ele>-24.900890</ele>
|
|
<time>2026-07-10T12:04:40.000Z</time>
|
|
</trkpt>
|
|
<trkpt lat="54.987180" lon="8.662683">
|
|
<ele>-24.865711</ele>
|
|
<time>2026-07-10T12:04:41.000Z</time>
|
|
</trkpt>
|
|
<trkpt lat="54.987183" lon="8.662754">
|
|
<ele>-24.844417</ele>
|
|
<time>2026-07-10T12:04:42.000Z</time>
|
|
</trkpt>
|
|
<trkpt lat="54.987184" lon="8.662823">
|
|
<ele>-24.823773</ele>
|
|
<time>2026-07-10T12:04:43.000Z</time>
|
|
</trkpt>
|
|
<trkpt lat="54.987186" lon="8.662894">
|
|
<ele>-24.802511</ele>
|
|
<time>2026-07-10T12:04:44.000Z</time>
|
|
</trkpt>
|
|
<trkpt lat="54.987189" lon="8.662966">
|
|
<ele>-24.780919</ele>
|
|
<time>2026-07-10T12:04:45.000Z</time>
|
|
</trkpt>
|
|
<trkpt lat="54.987195" lon="8.663038">
|
|
<ele>-24.759158</ele>
|
|
<time>2026-07-10T12:04:46.000Z</time>
|
|
</trkpt>
|
|
<trkpt lat="54.987200" lon="8.663110">
|
|
<ele>-24.737466</ele>
|
|
<time>2026-07-10T12:04:47.000Z</time>
|
|
</trkpt>
|
|
<trkpt lat="54.987207" lon="8.663182">
|
|
<ele>-24.715624</ele>
|
|
<time>2026-07-10T12:04:48.000Z</time>
|
|
</trkpt>
|
|
<trkpt lat="54.987210" lon="8.663257">
|
|
<ele>-24.693137</ele>
|
|
<time>2026-07-10T12:04:49.000Z</time>
|
|
</trkpt>
|
|
<trkpt lat="54.987215" lon="8.663332">
|
|
<ele>-24.670553</ele>
|
|
<time>2026-07-10T12:04:50.000Z</time>
|
|
</trkpt>
|
|
<trkpt lat="54.987222" lon="8.663409">
|
|
<ele>-24.647235</ele>
|
|
<time>2026-07-10T12:04:51.000Z</time>
|
|
</trkpt>
|
|
<trkpt lat="54.987226" lon="8.663487">
|
|
<ele>-24.623813</ele>
|
|
<time>2026-07-10T12:04:52.000Z</time>
|
|
</trkpt>
|
|
<trkpt lat="54.987231" lon="8.663564">
|
|
<ele>-24.600635</ele>
|
|
<time>2026-07-10T12:04:53.000Z</time>
|
|
</trkpt>
|
|
<trkpt lat="54.987237" lon="8.663641">
|
|
<ele>-24.577393</ele>
|
|
<time>2026-07-10T12:04:54.000Z</time>
|
|
</trkpt>
|
|
<trkpt lat="54.987241" lon="8.663718">
|
|
<ele>-24.554268</ele>
|
|
<time>2026-07-10T12:04:55.000Z</time>
|
|
</trkpt>
|
|
<trkpt lat="54.987244" lon="8.663796">
|
|
<ele>-24.530886</ele>
|
|
<time>2026-07-10T12:04:56.000Z</time>
|
|
</trkpt>
|
|
<trkpt lat="54.987245" lon="8.663876">
|
|
<ele>-24.506952</ele>
|
|
<time>2026-07-10T12:04:57.000Z</time>
|
|
</trkpt>
|
|
<trkpt lat="54.987249" lon="8.663955">
|
|
<ele>-24.483232</ele>
|
|
<time>2026-07-10T12:04:58.000Z</time>
|
|
</trkpt>
|
|
<trkpt lat="54.987252" lon="8.664033">
|
|
<ele>-24.459849</ele>
|
|
<time>2026-07-10T12:04:59.000Z</time>
|
|
</trkpt>
|
|
<trkpt lat="54.987256" lon="8.664109">
|
|
<ele>-24.437022</ele>
|
|
<time>2026-07-10T12:05:00.000Z</time>
|
|
</trkpt>
|
|
<trkpt lat="54.987261" lon="8.664183">
|
|
<ele>-24.414736</ele>
|
|
<time>2026-07-10T12:05:01.000Z</time>
|
|
</trkpt>
|
|
<trkpt lat="54.987269" lon="8.664254">
|
|
<ele>-24.393095</ele>
|
|
<time>2026-07-10T12:05:02.000Z</time>
|
|
</trkpt>
|
|
<trkpt lat="54.987275" lon="8.664323">
|
|
<ele>-24.372221</ele>
|
|
<time>2026-07-10T12:05:03.000Z</time>
|
|
</trkpt>
|
|
<trkpt lat="54.987278" lon="8.664390">
|
|
<ele>-24.352120</ele>
|
|
<time>2026-07-10T12:05:04.000Z</time>
|
|
</trkpt>
|
|
<trkpt lat="54.987279" lon="8.664460">
|
|
<ele>-24.331177</ele>
|
|
<time>2026-07-10T12:05:05.000Z</time>
|
|
</trkpt>
|
|
<trkpt lat="54.987283" lon="8.664528">
|
|
<ele>-24.310732</ele>
|
|
<time>2026-07-10T12:05:06.000Z</time>
|
|
</trkpt>
|
|
<trkpt lat="54.987287" lon="8.664597">
|
|
<ele>-24.289989</ele>
|
|
<time>2026-07-10T12:05:07.000Z</time>
|
|
</trkpt>
|
|
<trkpt lat="54.987291" lon="8.664666">
|
|
<ele>-24.269246</ele>
|
|
<time>2026-07-10T12:05:08.000Z</time>
|
|
</trkpt>
|
|
<trkpt lat="54.987296" lon="8.664733">
|
|
<ele>-24.249037</ele>
|
|
<time>2026-07-10T12:05:09.000Z</time>
|
|
</trkpt>
|
|
<trkpt lat="54.987303" lon="8.664799">
|
|
<ele>-24.228963</ele>
|
|
<time>2026-07-10T12:05:10.000Z</time>
|
|
</trkpt>
|
|
<trkpt lat="54.987311" lon="8.664861">
|
|
<ele>-24.209955</ele>
|
|
<time>2026-07-10T12:05:11.000Z</time>
|
|
</trkpt>
|
|
<trkpt lat="54.987320" lon="8.664920">
|
|
<ele>-24.191695</ele>
|
|
<time>2026-07-10T12:05:12.000Z</time>
|
|
</trkpt>
|
|
<trkpt lat="54.987333" lon="8.664972">
|
|
<ele>-24.174730</ele>
|
|
<time>2026-07-10T12:05:13.000Z</time>
|
|
</trkpt>
|
|
<trkpt lat="54.987355" lon="8.665013">
|
|
<ele>-24.157940</ele>
|
|
<time>2026-07-10T12:05:14.000Z</time>
|
|
</trkpt>
|
|
<trkpt lat="54.987381" lon="8.665039">
|
|
<ele>-24.142314</ele>
|
|
<time>2026-07-10T12:05:15.000Z</time>
|
|
</trkpt>
|
|
<trkpt lat="54.987409" lon="8.665048">
|
|
<ele>-24.127471</ele>
|
|
<time>2026-07-10T12:05:16.000Z</time>
|
|
</trkpt>
|
|
<trkpt lat="54.987440" lon="8.665046">
|
|
<ele>-24.111300</ele>
|
|
<time>2026-07-10T12:05:17.000Z</time>
|
|
</trkpt>
|
|
<trkpt lat="54.987471" lon="8.665041">
|
|
<ele>-24.095070</ele>
|
|
<time>2026-07-10T12:05:18.000Z</time>
|
|
</trkpt>
|
|
<trkpt lat="54.987507" lon="8.665032">
|
|
<ele>-24.076112</ele>
|
|
<time>2026-07-10T12:05:19.000Z</time>
|
|
</trkpt>
|
|
<trkpt lat="54.987544" lon="8.665021">
|
|
<ele>-24.056545</ele>
|
|
<time>2026-07-10T12:05:20.000Z</time>
|
|
</trkpt>
|
|
<trkpt lat="54.987579" lon="8.665010">
|
|
<ele>-24.038005</ele>
|
|
<time>2026-07-10T12:05:21.000Z</time>
|
|
</trkpt>
|
|
<trkpt lat="54.987617" lon="8.665002">
|
|
<ele>-24.018052</ele>
|
|
<time>2026-07-10T12:05:22.000Z</time>
|
|
</trkpt>
|
|
<trkpt lat="54.987656" lon="8.664994">
|
|
<ele>-23.997581</ele>
|
|
<time>2026-07-10T12:05:23.000Z</time>
|
|
</trkpt>
|
|
<trkpt lat="54.987698" lon="8.664984">
|
|
<ele>-23.975483</ele>
|
|
<time>2026-07-10T12:05:24.000Z</time>
|
|
</trkpt>
|
|
<trkpt lat="54.987743" lon="8.664975">
|
|
<ele>-23.951871</ele>
|
|
<time>2026-07-10T12:05:25.000Z</time>
|
|
</trkpt>
|
|
<trkpt lat="54.987791" lon="8.664965">
|
|
<ele>-23.924353</ele>
|
|
<time>2026-07-10T12:05:26.000Z</time>
|
|
</trkpt>
|
|
<trkpt lat="54.987837" lon="8.664956">
|
|
<ele>-23.889421</ele>
|
|
<time>2026-07-10T12:05:27.000Z</time>
|
|
</trkpt>
|
|
<trkpt lat="54.987883" lon="8.664949">
|
|
<ele>-23.854575</ele>
|
|
<time>2026-07-10T12:05:28.000Z</time>
|
|
</trkpt>
|
|
<trkpt lat="54.987929" lon="8.664946">
|
|
<ele>-23.819836</ele>
|
|
<time>2026-07-10T12:05:29.000Z</time>
|
|
</trkpt>
|
|
<trkpt lat="54.987973" lon="8.664943">
|
|
<ele>-23.786606</ele>
|
|
<time>2026-07-10T12:05:30.000Z</time>
|
|
</trkpt>
|
|
<trkpt lat="54.988016" lon="8.664939">
|
|
<ele>-23.754110</ele>
|
|
<time>2026-07-10T12:05:31.000Z</time>
|
|
</trkpt>
|
|
<trkpt lat="54.988061" lon="8.664930">
|
|
<ele>-23.719927</ele>
|
|
<time>2026-07-10T12:05:32.000Z</time>
|
|
</trkpt>
|
|
<trkpt lat="54.988104" lon="8.664918">
|
|
<ele>-23.687064</ele>
|
|
<time>2026-07-10T12:05:33.000Z</time>
|
|
</trkpt>
|
|
<trkpt lat="54.988149" lon="8.664904">
|
|
<ele>-23.652567</ele>
|
|
<time>2026-07-10T12:05:34.000Z</time>
|
|
</trkpt>
|
|
<trkpt lat="54.988193" lon="8.664891">
|
|
<ele>-23.618889</ele>
|
|
<time>2026-07-10T12:05:35.000Z</time>
|
|
</trkpt>
|
|
<trkpt lat="54.988239" lon="8.664877">
|
|
<ele>-23.583649</ele>
|
|
<time>2026-07-10T12:05:36.000Z</time>
|
|
</trkpt>
|
|
<trkpt lat="54.988283" lon="8.664862">
|
|
<ele>-23.549815</ele>
|
|
<time>2026-07-10T12:05:37.000Z</time>
|
|
</trkpt>
|
|
<trkpt lat="54.988329" lon="8.664845">
|
|
<ele>-23.514329</ele>
|
|
<time>2026-07-10T12:05:38.000Z</time>
|
|
</trkpt>
|
|
<trkpt lat="54.988375" lon="8.664827">
|
|
<ele>-23.478750</ele>
|
|
<time>2026-07-10T12:05:39.000Z</time>
|
|
</trkpt>
|
|
<trkpt lat="54.988420" lon="8.664807">
|
|
<ele>-23.443704</ele>
|
|
<time>2026-07-10T12:05:40.000Z</time>
|
|
</trkpt>
|
|
<trkpt lat="54.988465" lon="8.664788">
|
|
<ele>-23.408762</ele>
|
|
<time>2026-07-10T12:05:41.000Z</time>
|
|
</trkpt>
|
|
<trkpt lat="54.988507" lon="8.664769">
|
|
<ele>-23.376017</ele>
|
|
<time>2026-07-10T12:05:42.000Z</time>
|
|
</trkpt>
|
|
<trkpt lat="54.988549" lon="8.664748">
|
|
<ele>-23.343043</ele>
|
|
<time>2026-07-10T12:05:43.000Z</time>
|
|
</trkpt>
|
|
<trkpt lat="54.988592" lon="8.664726">
|
|
<ele>-23.309223</ele>
|
|
<time>2026-07-10T12:05:44.000Z</time>
|
|
</trkpt>
|
|
<trkpt lat="54.988638" lon="8.664704">
|
|
<ele>-23.273226</ele>
|
|
<time>2026-07-10T12:05:45.000Z</time>
|
|
</trkpt>
|
|
<trkpt lat="54.988684" lon="8.664682">
|
|
<ele>-23.237228</ele>
|
|
<time>2026-07-10T12:05:46.000Z</time>
|
|
</trkpt>
|
|
<trkpt lat="54.988730" lon="8.664662">
|
|
<ele>-23.201450</ele>
|
|
<time>2026-07-10T12:05:47.000Z</time>
|
|
</trkpt>
|
|
<trkpt lat="54.988773" lon="8.664641">
|
|
<ele>-23.167750</ele>
|
|
<time>2026-07-10T12:05:48.000Z</time>
|
|
</trkpt>
|
|
<trkpt lat="54.988814" lon="8.664620">
|
|
<ele>-23.135501</ele>
|
|
<time>2026-07-10T12:05:49.000Z</time>
|
|
</trkpt>
|
|
<trkpt lat="54.988858" lon="8.664596">
|
|
<ele>-23.100708</ele>
|
|
<time>2026-07-10T12:05:50.000Z</time>
|
|
</trkpt>
|
|
<trkpt lat="54.988900" lon="8.664572">
|
|
<ele>-23.067352</ele>
|
|
<time>2026-07-10T12:05:51.000Z</time>
|
|
</trkpt>
|
|
<trkpt lat="54.988942" lon="8.664551">
|
|
<ele>-23.034378</ele>
|
|
<time>2026-07-10T12:05:52.000Z</time>
|
|
</trkpt>
|
|
<trkpt lat="54.988985" lon="8.664530">
|
|
<ele>-23.000678</ele>
|
|
<time>2026-07-10T12:05:53.000Z</time>
|
|
</trkpt>
|
|
<trkpt lat="54.989029" lon="8.664509">
|
|
<ele>-22.966251</ele>
|
|
<time>2026-07-10T12:05:54.000Z</time>
|
|
</trkpt>
|
|
<trkpt lat="54.989072" lon="8.664487">
|
|
<ele>-22.932432</ele>
|
|
<time>2026-07-10T12:05:55.000Z</time>
|
|
</trkpt>
|
|
<trkpt lat="54.989114" lon="8.664465">
|
|
<ele>-22.899336</ele>
|
|
<time>2026-07-10T12:05:56.000Z</time>
|
|
</trkpt>
|
|
<trkpt lat="54.989156" lon="8.664444">
|
|
<ele>-22.866362</ele>
|
|
<time>2026-07-10T12:05:57.000Z</time>
|
|
</trkpt>
|
|
<trkpt lat="54.989197" lon="8.664424">
|
|
<ele>-22.834232</ele>
|
|
<time>2026-07-10T12:05:58.000Z</time>
|
|
</trkpt>
|
|
<trkpt lat="54.989235" lon="8.664404">
|
|
<ele>-22.804276</ele>
|
|
<time>2026-07-10T12:05:59.000Z</time>
|
|
</trkpt>
|
|
<trkpt lat="54.989273" lon="8.664383">
|
|
<ele>-22.774192</ele>
|
|
<time>2026-07-10T12:06:00.000Z</time>
|
|
</trkpt>
|
|
<trkpt lat="54.989312" lon="8.664360">
|
|
<ele>-22.743121</ele>
|
|
<time>2026-07-10T12:06:01.000Z</time>
|
|
</trkpt>
|
|
<trkpt lat="54.989355" lon="8.664339">
|
|
<ele>-22.709421</ele>
|
|
<time>2026-07-10T12:06:02.000Z</time>
|
|
</trkpt>
|
|
<trkpt lat="54.989400" lon="8.664319">
|
|
<ele>-22.674375</ele>
|
|
<time>2026-07-10T12:06:03.000Z</time>
|
|
</trkpt>
|
|
<trkpt lat="54.989441" lon="8.664302">
|
|
<ele>-22.642571</ele>
|
|
<time>2026-07-10T12:06:04.000Z</time>
|
|
</trkpt>
|
|
<trkpt lat="54.989485" lon="8.664284">
|
|
<ele>-22.608464</ele>
|
|
<time>2026-07-10T12:06:05.000Z</time>
|
|
</trkpt>
|
|
<trkpt lat="54.989529" lon="8.664267">
|
|
<ele>-22.574447</ele>
|
|
<time>2026-07-10T12:06:06.000Z</time>
|
|
</trkpt>
|
|
<trkpt lat="54.989573" lon="8.664249">
|
|
<ele>-22.534787</ele>
|
|
<time>2026-07-10T12:06:07.000Z</time>
|
|
</trkpt>
|
|
<trkpt lat="54.989619" lon="8.664227">
|
|
<ele>-22.492929</ele>
|
|
<time>2026-07-10T12:06:08.000Z</time>
|
|
</trkpt>
|
|
<trkpt lat="54.989662" lon="8.664204">
|
|
<ele>-22.453459</ele>
|
|
<time>2026-07-10T12:06:09.000Z</time>
|
|
</trkpt>
|
|
<trkpt lat="54.989701" lon="8.664183">
|
|
<ele>-22.417640</ele>
|
|
<time>2026-07-10T12:06:10.000Z</time>
|
|
</trkpt>
|
|
<trkpt lat="54.989743" lon="8.664163">
|
|
<ele>-22.379434</ele>
|
|
<time>2026-07-10T12:06:11.000Z</time>
|
|
</trkpt>
|
|
<trkpt lat="54.989786" lon="8.664145">
|
|
<ele>-22.340628</ele>
|
|
<time>2026-07-10T12:06:12.000Z</time>
|
|
</trkpt>
|
|
<trkpt lat="54.989831" lon="8.664126">
|
|
<ele>-22.299997</ele>
|
|
<time>2026-07-10T12:06:13.000Z</time>
|
|
</trkpt>
|
|
<trkpt lat="54.989874" lon="8.664107">
|
|
<ele>-22.261071</ele>
|
|
<time>2026-07-10T12:06:14.000Z</time>
|
|
</trkpt>
|
|
<trkpt lat="54.989919" lon="8.664087">
|
|
<ele>-22.220319</ele>
|
|
<time>2026-07-10T12:06:15.000Z</time>
|
|
</trkpt>
|
|
<trkpt lat="54.989961" lon="8.664065">
|
|
<ele>-22.181835</ele>
|
|
<time>2026-07-10T12:06:16.000Z</time>
|
|
</trkpt>
|
|
<trkpt lat="54.990007" lon="8.664041">
|
|
<ele>-22.139699</ele>
|
|
<time>2026-07-10T12:06:17.000Z</time>
|
|
</trkpt>
|
|
<trkpt lat="54.990053" lon="8.664019">
|
|
<ele>-22.097842</ele>
|
|
<time>2026-07-10T12:06:18.000Z</time>
|
|
</trkpt>
|
|
<trkpt lat="54.990098" lon="8.663996">
|
|
<ele>-22.056691</ele>
|
|
<time>2026-07-10T12:06:19.000Z</time>
|
|
</trkpt>
|
|
<trkpt lat="54.990141" lon="8.663972">
|
|
<ele>-22.017070</ele>
|
|
<time>2026-07-10T12:06:20.000Z</time>
|
|
</trkpt>
|
|
<trkpt lat="54.990187" lon="8.663950">
|
|
<ele>-21.975212</ele>
|
|
<time>2026-07-10T12:06:21.000Z</time>
|
|
</trkpt>
|
|
<trkpt lat="54.990233" lon="8.663927">
|
|
<ele>-21.933219</ele>
|
|
<time>2026-07-10T12:06:22.000Z</time>
|
|
</trkpt>
|
|
<trkpt lat="54.990277" lon="8.663905">
|
|
<ele>-21.893051</ele>
|
|
<time>2026-07-10T12:06:23.000Z</time>
|
|
</trkpt>
|
|
<trkpt lat="54.990320" lon="8.663883">
|
|
<ele>-21.853726</ele>
|
|
<time>2026-07-10T12:06:24.000Z</time>
|
|
</trkpt>
|
|
<trkpt lat="54.990366" lon="8.663860">
|
|
<ele>-21.811732</ele>
|
|
<time>2026-07-10T12:06:25.000Z</time>
|
|
</trkpt>
|
|
<trkpt lat="54.990411" lon="8.663839">
|
|
<ele>-21.770853</ele>
|
|
<time>2026-07-10T12:06:26.000Z</time>
|
|
</trkpt>
|
|
<trkpt lat="54.990454" lon="8.663816">
|
|
<ele>-21.731383</ele>
|
|
<time>2026-07-10T12:06:27.000Z</time>
|
|
</trkpt>
|
|
<trkpt lat="54.990499" lon="8.663794">
|
|
<ele>-21.690371</ele>
|
|
<time>2026-07-10T12:06:28.000Z</time>
|
|
</trkpt>
|
|
<trkpt lat="54.990542" lon="8.663772">
|
|
<ele>-21.651046</ele>
|
|
<time>2026-07-10T12:06:29.000Z</time>
|
|
</trkpt>
|
|
<trkpt lat="54.990588" lon="8.663749">
|
|
<ele>-21.609052</ele>
|
|
<time>2026-07-10T12:06:30.000Z</time>
|
|
</trkpt>
|
|
<trkpt lat="54.990632" lon="8.663729">
|
|
<ele>-21.569150</ele>
|
|
<time>2026-07-10T12:06:31.000Z</time>
|
|
</trkpt>
|
|
<trkpt lat="54.990675" lon="8.663709">
|
|
<ele>-21.530096</ele>
|
|
<time>2026-07-10T12:06:32.000Z</time>
|
|
</trkpt>
|
|
<trkpt lat="54.990721" lon="8.663688">
|
|
<ele>-21.488369</ele>
|
|
<time>2026-07-10T12:06:33.000Z</time>
|
|
</trkpt>
|
|
<trkpt lat="54.990767" lon="8.663668">
|
|
<ele>-21.446766</ele>
|
|
<time>2026-07-10T12:06:34.000Z</time>
|
|
</trkpt>
|
|
<trkpt lat="54.990811" lon="8.663648">
|
|
<ele>-21.406864</ele>
|
|
<time>2026-07-10T12:06:35.000Z</time>
|
|
</trkpt>
|
|
<trkpt lat="54.990854" lon="8.663627">
|
|
<ele>-21.367678</ele>
|
|
<time>2026-07-10T12:06:36.000Z</time>
|
|
</trkpt>
|
|
<trkpt lat="54.990899" lon="8.663605">
|
|
<ele>-21.326666</ele>
|
|
<time>2026-07-10T12:06:37.000Z</time>
|
|
</trkpt>
|
|
<trkpt lat="54.990941" lon="8.663585">
|
|
<ele>-21.288460</ele>
|
|
<time>2026-07-10T12:06:38.000Z</time>
|
|
</trkpt>
|
|
<trkpt lat="54.990988" lon="8.663567">
|
|
<ele>-21.246233</ele>
|
|
<time>2026-07-10T12:06:39.000Z</time>
|
|
</trkpt>
|
|
<trkpt lat="54.991033" lon="8.663549">
|
|
<ele>-21.205718</ele>
|
|
<time>2026-07-10T12:06:40.000Z</time>
|
|
</trkpt>
|
|
<trkpt lat="54.991075" lon="8.663528">
|
|
<ele>-21.167376</ele>
|
|
<time>2026-07-10T12:06:41.000Z</time>
|
|
</trkpt>
|
|
<trkpt lat="54.991117" lon="8.663505">
|
|
<ele>-21.128744</ele>
|
|
<time>2026-07-10T12:06:42.000Z</time>
|
|
</trkpt>
|
|
<trkpt lat="54.991159" lon="8.663484">
|
|
<ele>-21.090402</ele>
|
|
<time>2026-07-10T12:06:43.000Z</time>
|
|
</trkpt>
|
|
<trkpt lat="54.991200" lon="8.663462">
|
|
<ele>-21.052758</ele>
|
|
<time>2026-07-10T12:06:44.000Z</time>
|
|
</trkpt>
|
|
<trkpt lat="54.991242" lon="8.663439">
|
|
<ele>-21.014126</ele>
|
|
<time>2026-07-10T12:06:45.000Z</time>
|
|
</trkpt>
|
|
<trkpt lat="54.991284" lon="8.663413">
|
|
<ele>-20.990237</ele>
|
|
<time>2026-07-10T12:06:46.000Z</time>
|
|
</trkpt>
|
|
<trkpt lat="54.991326" lon="8.663385">
|
|
<ele>-20.979202</ele>
|
|
<time>2026-07-10T12:06:47.000Z</time>
|
|
</trkpt>
|
|
<trkpt lat="54.991368" lon="8.663356">
|
|
<ele>-20.968116</ele>
|
|
<time>2026-07-10T12:06:48.000Z</time>
|
|
</trkpt>
|
|
<trkpt lat="54.991410" lon="8.663325">
|
|
<ele>-20.956923</ele>
|
|
<time>2026-07-10T12:06:49.000Z</time>
|
|
</trkpt>
|
|
<trkpt lat="54.991453" lon="8.663297">
|
|
<ele>-20.945658</ele>
|
|
<time>2026-07-10T12:06:50.000Z</time>
|
|
</trkpt>
|
|
<trkpt lat="54.991493" lon="8.663268">
|
|
<ele>-20.935026</ele>
|
|
<time>2026-07-10T12:06:51.000Z</time>
|
|
</trkpt>
|
|
<trkpt lat="54.991532" lon="8.663239">
|
|
<ele>-20.924621</ele>
|
|
<time>2026-07-10T12:06:52.000Z</time>
|
|
</trkpt>
|
|
<trkpt lat="54.991576" lon="8.663209">
|
|
<ele>-20.913026</ele>
|
|
<time>2026-07-10T12:06:53.000Z</time>
|
|
</trkpt>
|
|
<trkpt lat="54.991620" lon="8.663179">
|
|
<ele>-20.901432</ele>
|
|
<time>2026-07-10T12:06:54.000Z</time>
|
|
</trkpt>
|
|
<trkpt lat="54.991661" lon="8.663149">
|
|
<ele>-20.890520</ele>
|
|
<time>2026-07-10T12:06:55.000Z</time>
|
|
</trkpt>
|
|
<trkpt lat="54.991703" lon="8.663116">
|
|
<ele>-20.879214</ele>
|
|
<time>2026-07-10T12:06:56.000Z</time>
|
|
</trkpt>
|
|
<trkpt lat="54.991742" lon="8.663084">
|
|
<ele>-20.868636</ele>
|
|
<time>2026-07-10T12:06:57.000Z</time>
|
|
</trkpt>
|
|
<trkpt lat="54.991782" lon="8.663052">
|
|
<ele>-20.857835</ele>
|
|
<time>2026-07-10T12:06:58.000Z</time>
|
|
</trkpt>
|
|
<trkpt lat="54.991820" lon="8.663021">
|
|
<ele>-20.847539</ele>
|
|
<time>2026-07-10T12:06:59.000Z</time>
|
|
</trkpt>
|
|
<trkpt lat="54.991859" lon="8.662986">
|
|
<ele>-20.836774</ele>
|
|
<time>2026-07-10T12:07:00.000Z</time>
|
|
</trkpt>
|
|
<trkpt lat="54.991897" lon="8.662952">
|
|
<ele>-20.826292</ele>
|
|
<time>2026-07-10T12:07:01.000Z</time>
|
|
</trkpt>
|
|
<trkpt lat="54.991936" lon="8.662920">
|
|
<ele>-20.815713</ele>
|
|
<time>2026-07-10T12:07:02.000Z</time>
|
|
</trkpt>
|
|
<trkpt lat="54.991978" lon="8.662888">
|
|
<ele>-20.804465</ele>
|
|
<time>2026-07-10T12:07:03.000Z</time>
|
|
</trkpt>
|
|
<trkpt lat="54.992016" lon="8.662855">
|
|
<ele>-20.794046</ele>
|
|
<time>2026-07-10T12:07:04.000Z</time>
|
|
</trkpt>
|
|
<trkpt lat="54.992053" lon="8.662820">
|
|
<ele>-20.783715</ele>
|
|
<time>2026-07-10T12:07:05.000Z</time>
|
|
</trkpt>
|
|
<trkpt lat="54.992092" lon="8.662786">
|
|
<ele>-20.773014</ele>
|
|
<time>2026-07-10T12:07:06.000Z</time>
|
|
</trkpt>
|
|
<trkpt lat="54.992134" lon="8.662750">
|
|
<ele>-20.761528</ele>
|
|
<time>2026-07-10T12:07:07.000Z</time>
|
|
</trkpt>
|
|
<trkpt lat="54.992172" lon="8.662717">
|
|
<ele>-20.751109</ele>
|
|
<time>2026-07-10T12:07:08.000Z</time>
|
|
</trkpt>
|
|
<trkpt lat="54.992210" lon="8.662683">
|
|
<ele>-20.740627</ele>
|
|
<time>2026-07-10T12:07:09.000Z</time>
|
|
</trkpt>
|
|
<trkpt lat="54.992248" lon="8.662648">
|
|
<ele>-20.730080</ele>
|
|
<time>2026-07-10T12:07:10.000Z</time>
|
|
</trkpt>
|
|
<trkpt lat="54.992286" lon="8.662611">
|
|
<ele>-20.719398</ele>
|
|
<time>2026-07-10T12:07:11.000Z</time>
|
|
</trkpt>
|
|
<trkpt lat="54.992325" lon="8.662575">
|
|
<ele>-20.708568</ele>
|
|
<time>2026-07-10T12:07:12.000Z</time>
|
|
</trkpt>
|
|
<trkpt lat="54.992364" lon="8.662540">
|
|
<ele>-20.697803</ele>
|
|
<time>2026-07-10T12:07:13.000Z</time>
|
|
</trkpt>
|
|
<trkpt lat="54.992405" lon="8.662506">
|
|
<ele>-20.686661</ele>
|
|
<time>2026-07-10T12:07:14.000Z</time>
|
|
</trkpt>
|
|
<trkpt lat="54.992442" lon="8.662472">
|
|
<ele>-20.676397</ele>
|
|
<time>2026-07-10T12:07:15.000Z</time>
|
|
</trkpt>
|
|
<trkpt lat="54.992481" lon="8.662438">
|
|
<ele>-20.665696</ele>
|
|
<time>2026-07-10T12:07:16.000Z</time>
|
|
</trkpt>
|
|
<trkpt lat="54.992519" lon="8.662404">
|
|
<ele>-20.655213</ele>
|
|
<time>2026-07-10T12:07:17.000Z</time>
|
|
</trkpt>
|
|
<trkpt lat="54.992557" lon="8.662370">
|
|
<ele>-20.644731</ele>
|
|
<time>2026-07-10T12:07:18.000Z</time>
|
|
</trkpt>
|
|
<trkpt lat="54.992597" lon="8.662335">
|
|
<ele>-20.633748</ele>
|
|
<time>2026-07-10T12:07:19.000Z</time>
|
|
</trkpt>
|
|
<trkpt lat="54.992637" lon="8.662302">
|
|
<ele>-20.622887</ele>
|
|
<time>2026-07-10T12:07:20.000Z</time>
|
|
</trkpt>
|
|
<trkpt lat="54.992676" lon="8.662266">
|
|
<ele>-20.612057</ele>
|
|
<time>2026-07-10T12:07:21.000Z</time>
|
|
</trkpt>
|
|
<trkpt lat="54.992717" lon="8.662231">
|
|
<ele>-20.600854</ele>
|
|
<time>2026-07-10T12:07:22.000Z</time>
|
|
</trkpt>
|
|
<trkpt lat="54.992756" lon="8.662193">
|
|
<ele>-20.589889</ele>
|
|
<time>2026-07-10T12:07:23.000Z</time>
|
|
</trkpt>
|
|
<trkpt lat="54.992794" lon="8.662155">
|
|
<ele>-20.579138</ele>
|
|
<time>2026-07-10T12:07:24.000Z</time>
|
|
</trkpt>
|
|
<trkpt lat="54.992832" lon="8.662116">
|
|
<ele>-20.568317</ele>
|
|
<time>2026-07-10T12:07:25.000Z</time>
|
|
</trkpt>
|
|
<trkpt lat="54.992870" lon="8.662081">
|
|
<ele>-20.557769</ele>
|
|
<time>2026-07-10T12:07:26.000Z</time>
|
|
</trkpt>
|
|
<trkpt lat="54.992908" lon="8.662048">
|
|
<ele>-20.571483</ele>
|
|
<time>2026-07-10T12:07:27.000Z</time>
|
|
</trkpt>
|
|
<trkpt lat="54.992945" lon="8.662018">
|
|
<ele>-20.594137</ele>
|
|
<time>2026-07-10T12:07:28.000Z</time>
|
|
</trkpt>
|
|
<trkpt lat="54.992980" lon="8.661990">
|
|
<ele>-20.615517</ele>
|
|
<time>2026-07-10T12:07:29.000Z</time>
|
|
</trkpt>
|
|
<trkpt lat="54.993017" lon="8.661959">
|
|
<ele>-20.638307</ele>
|
|
<time>2026-07-10T12:07:30.000Z</time>
|
|
</trkpt>
|
|
<trkpt lat="54.993054" lon="8.661924">
|
|
<ele>-20.661678</ele>
|
|
<time>2026-07-10T12:07:31.000Z</time>
|
|
</trkpt>
|
|
<trkpt lat="54.993096" lon="8.661888">
|
|
<ele>-20.687661</ele>
|
|
<time>2026-07-10T12:07:32.000Z</time>
|
|
</trkpt>
|
|
<trkpt lat="54.993138" lon="8.661851">
|
|
<ele>-20.713786</ele>
|
|
<time>2026-07-10T12:07:33.000Z</time>
|
|
</trkpt>
|
|
<trkpt lat="54.993180" lon="8.661816">
|
|
<ele>-20.739630</ele>
|
|
<time>2026-07-10T12:07:34.000Z</time>
|
|
</trkpt>
|
|
<trkpt lat="54.993222" lon="8.661780">
|
|
<ele>-20.765614</ele>
|
|
<time>2026-07-10T12:07:35.000Z</time>
|
|
</trkpt>
|
|
<trkpt lat="54.993264" lon="8.661744">
|
|
<ele>-20.791597</ele>
|
|
<time>2026-07-10T12:07:36.000Z</time>
|
|
</trkpt>
|
|
<trkpt lat="54.993307" lon="8.661708">
|
|
<ele>-20.818079</ele>
|
|
<time>2026-07-10T12:07:37.000Z</time>
|
|
</trkpt>
|
|
<trkpt lat="54.993352" lon="8.661672">
|
|
<ele>-20.845567</ele>
|
|
<time>2026-07-10T12:07:38.000Z</time>
|
|
</trkpt>
|
|
<trkpt lat="54.993394" lon="8.661636">
|
|
<ele>-20.871550</ele>
|
|
<time>2026-07-10T12:07:39.000Z</time>
|
|
</trkpt>
|
|
<trkpt lat="54.993436" lon="8.661601">
|
|
<ele>-20.897394</ele>
|
|
<time>2026-07-10T12:07:40.000Z</time>
|
|
</trkpt>
|
|
<trkpt lat="54.993478" lon="8.661566">
|
|
<ele>-20.923238</ele>
|
|
<time>2026-07-10T12:07:41.000Z</time>
|
|
</trkpt>
|
|
<trkpt lat="54.993521" lon="8.661529">
|
|
<ele>-20.949860</ele>
|
|
<time>2026-07-10T12:07:42.000Z</time>
|
|
</trkpt>
|
|
<trkpt lat="54.993565" lon="8.661493">
|
|
<ele>-20.976844</ele>
|
|
<time>2026-07-10T12:07:43.000Z</time>
|
|
</trkpt>
|
|
<trkpt lat="54.993608" lon="8.661455">
|
|
<ele>-21.003609</ele>
|
|
<time>2026-07-10T12:07:44.000Z</time>
|
|
</trkpt>
|
|
<trkpt lat="54.993650" lon="8.661417">
|
|
<ele>-21.029879</ele>
|
|
<time>2026-07-10T12:07:45.000Z</time>
|
|
</trkpt>
|
|
<trkpt lat="54.993693" lon="8.661377">
|
|
<ele>-21.056937</ele>
|
|
<time>2026-07-10T12:07:46.000Z</time>
|
|
</trkpt>
|
|
<trkpt lat="54.993737" lon="8.661338">
|
|
<ele>-21.084341</ele>
|
|
<time>2026-07-10T12:07:47.000Z</time>
|
|
</trkpt>
|
|
<trkpt lat="54.993779" lon="8.661298">
|
|
<ele>-21.110911</ele>
|
|
<time>2026-07-10T12:07:48.000Z</time>
|
|
</trkpt>
|
|
<trkpt lat="54.993822" lon="8.661256">
|
|
<ele>-21.138275</ele>
|
|
<time>2026-07-10T12:07:49.000Z</time>
|
|
</trkpt>
|
|
<trkpt lat="54.993867" lon="8.661216">
|
|
<ele>-21.166317</ele>
|
|
<time>2026-07-10T12:07:50.000Z</time>
|
|
</trkpt>
|
|
<trkpt lat="54.993909" lon="8.661176">
|
|
<ele>-21.192887</ele>
|
|
<time>2026-07-10T12:07:51.000Z</time>
|
|
</trkpt>
|
|
<trkpt lat="54.993951" lon="8.661137">
|
|
<ele>-21.219306</ele>
|
|
<time>2026-07-10T12:07:52.000Z</time>
|
|
</trkpt>
|
|
<trkpt lat="54.993994" lon="8.661102">
|
|
<ele>-21.245652</ele>
|
|
<time>2026-07-10T12:07:53.000Z</time>
|
|
</trkpt>
|
|
<trkpt lat="54.994038" lon="8.661066">
|
|
<ele>-21.272636</ele>
|
|
<time>2026-07-10T12:07:54.000Z</time>
|
|
</trkpt>
|
|
<trkpt lat="54.994080" lon="8.661030">
|
|
<ele>-21.298619</ele>
|
|
<time>2026-07-10T12:07:55.000Z</time>
|
|
</trkpt>
|
|
<trkpt lat="54.994121" lon="8.660992">
|
|
<ele>-21.324398</ele>
|
|
<time>2026-07-10T12:07:56.000Z</time>
|
|
</trkpt>
|
|
<trkpt lat="54.994159" lon="8.660955">
|
|
<ele>-21.348562</ele>
|
|
<time>2026-07-10T12:07:57.000Z</time>
|
|
</trkpt>
|
|
<trkpt lat="54.994199" lon="8.660920">
|
|
<ele>-21.373409</ele>
|
|
<time>2026-07-10T12:07:58.000Z</time>
|
|
</trkpt>
|
|
<trkpt lat="54.994241" lon="8.660884">
|
|
<ele>-21.399392</ele>
|
|
<time>2026-07-10T12:07:59.000Z</time>
|
|
</trkpt>
|
|
<trkpt lat="54.994283" lon="8.660847">
|
|
<ele>-21.425517</ele>
|
|
<time>2026-07-10T12:08:00.000Z</time>
|
|
</trkpt>
|
|
<trkpt lat="54.994324" lon="8.660811">
|
|
<ele>-21.451003</ele>
|
|
<time>2026-07-10T12:08:01.000Z</time>
|
|
</trkpt>
|
|
<trkpt lat="54.994368" lon="8.660773">
|
|
<ele>-21.478263</ele>
|
|
<time>2026-07-10T12:08:02.000Z</time>
|
|
</trkpt>
|
|
<trkpt lat="54.994412" lon="8.660735">
|
|
<ele>-21.505524</ele>
|
|
<time>2026-07-10T12:08:03.000Z</time>
|
|
</trkpt>
|
|
<trkpt lat="54.994454" lon="8.660694">
|
|
<ele>-21.532248</ele>
|
|
<time>2026-07-10T12:08:04.000Z</time>
|
|
</trkpt>
|
|
<trkpt lat="54.994498" lon="8.660653">
|
|
<ele>-21.560141</ele>
|
|
<time>2026-07-10T12:08:05.000Z</time>
|
|
</trkpt>
|
|
<trkpt lat="54.994542" lon="8.660614">
|
|
<ele>-21.588350</ele>
|
|
<time>2026-07-10T12:08:06.000Z</time>
|
|
</trkpt>
|
|
<trkpt lat="54.994584" lon="8.660575">
|
|
<ele>-21.615544</ele>
|
|
<time>2026-07-10T12:08:07.000Z</time>
|
|
</trkpt>
|
|
<trkpt lat="54.994626" lon="8.660536">
|
|
<ele>-21.642738</ele>
|
|
<time>2026-07-10T12:08:08.000Z</time>
|
|
</trkpt>
|
|
<trkpt lat="54.994669" lon="8.660496">
|
|
<ele>-21.670591</ele>
|
|
<time>2026-07-10T12:08:09.000Z</time>
|
|
</trkpt>
|
|
<trkpt lat="54.994713" lon="8.660457">
|
|
<ele>-21.698799</ele>
|
|
<time>2026-07-10T12:08:10.000Z</time>
|
|
</trkpt>
|
|
<trkpt lat="54.994756" lon="8.660419">
|
|
<ele>-21.726349</ele>
|
|
<time>2026-07-10T12:08:11.000Z</time>
|
|
</trkpt>
|
|
<trkpt lat="54.994798" lon="8.660381">
|
|
<ele>-21.753391</ele>
|
|
<time>2026-07-10T12:08:12.000Z</time>
|
|
</trkpt>
|
|
<trkpt lat="54.994840" lon="8.660342">
|
|
<ele>-21.780585</ele>
|
|
<time>2026-07-10T12:08:13.000Z</time>
|
|
</trkpt>
|
|
<trkpt lat="54.994883" lon="8.660304">
|
|
<ele>-21.808135</ele>
|
|
<time>2026-07-10T12:08:14.000Z</time>
|
|
</trkpt>
|
|
<trkpt lat="54.994928" lon="8.660268">
|
|
<ele>-21.836429</ele>
|
|
<time>2026-07-10T12:08:15.000Z</time>
|
|
</trkpt>
|
|
<trkpt lat="54.994970" lon="8.660230">
|
|
<ele>-21.863471</ele>
|
|
<time>2026-07-10T12:08:16.000Z</time>
|
|
</trkpt>
|
|
<trkpt lat="54.995015" lon="8.660190">
|
|
<ele>-21.892337</ele>
|
|
<time>2026-07-10T12:08:17.000Z</time>
|
|
</trkpt>
|
|
<trkpt lat="54.995058" lon="8.660150">
|
|
<ele>-21.920190</ele>
|
|
<time>2026-07-10T12:08:18.000Z</time>
|
|
</trkpt>
|
|
<trkpt lat="54.995104" lon="8.660110">
|
|
<ele>-21.949566</ele>
|
|
<time>2026-07-10T12:08:19.000Z</time>
|
|
</trkpt>
|
|
<trkpt lat="54.995148" lon="8.660075">
|
|
<ele>-21.977204</ele>
|
|
<time>2026-07-10T12:08:20.000Z</time>
|
|
</trkpt>
|
|
<trkpt lat="54.995193" lon="8.660041">
|
|
<ele>-22.005232</ele>
|
|
<time>2026-07-10T12:08:21.000Z</time>
|
|
</trkpt>
|
|
<trkpt lat="54.995241" lon="8.660009">
|
|
<ele>-22.034599</ele>
|
|
<time>2026-07-10T12:08:22.000Z</time>
|
|
</trkpt>
|
|
<trkpt lat="54.995288" lon="8.659984">
|
|
<ele>-22.062680</ele>
|
|
<time>2026-07-10T12:08:23.000Z</time>
|
|
</trkpt>
|
|
<trkpt lat="54.995339" lon="8.659966">
|
|
<ele>-22.092416</ele>
|
|
<time>2026-07-10T12:08:24.000Z</time>
|
|
</trkpt>
|
|
<trkpt lat="54.995390" lon="8.659952">
|
|
<ele>-22.121920</ele>
|
|
<time>2026-07-10T12:08:25.000Z</time>
|
|
</trkpt>
|
|
<trkpt lat="54.995437" lon="8.659943">
|
|
<ele>-22.148940</ele>
|
|
<time>2026-07-10T12:08:26.000Z</time>
|
|
</trkpt>
|
|
<trkpt lat="54.995486" lon="8.659939">
|
|
<ele>-22.176973</ele>
|
|
<time>2026-07-10T12:08:27.000Z</time>
|
|
</trkpt>
|
|
<trkpt lat="54.995536" lon="8.659939">
|
|
<ele>-22.205546</ele>
|
|
<time>2026-07-10T12:08:28.000Z</time>
|
|
</trkpt>
|
|
<trkpt lat="54.995586" lon="8.659944">
|
|
<ele>-22.234166</ele>
|
|
<time>2026-07-10T12:08:29.000Z</time>
|
|
</trkpt>
|
|
<trkpt lat="54.995635" lon="8.659952">
|
|
<ele>-22.262290</ele>
|
|
<time>2026-07-10T12:08:30.000Z</time>
|
|
</trkpt>
|
|
<trkpt lat="54.995686" lon="8.659963">
|
|
<ele>-22.291657</ele>
|
|
<time>2026-07-10T12:08:31.000Z</time>
|
|
</trkpt>
|
|
<trkpt lat="54.995738" lon="8.659974">
|
|
<ele>-22.321591</ele>
|
|
<time>2026-07-10T12:08:32.000Z</time>
|
|
</trkpt>
|
|
<trkpt lat="54.995790" lon="8.659991">
|
|
<ele>-22.351825</ele>
|
|
<time>2026-07-10T12:08:33.000Z</time>
|
|
</trkpt>
|
|
<trkpt lat="54.995847" lon="8.660012">
|
|
<ele>-22.385118</ele>
|
|
<time>2026-07-10T12:08:34.000Z</time>
|
|
</trkpt>
|
|
<trkpt lat="54.995905" lon="8.660030">
|
|
<ele>-22.418784</ele>
|
|
<time>2026-07-10T12:08:35.000Z</time>
|
|
</trkpt>
|
|
<trkpt lat="54.995961" lon="8.660050">
|
|
<ele>-22.451450</ele>
|
|
<time>2026-07-10T12:08:36.000Z</time>
|
|
</trkpt>
|
|
<trkpt lat="54.996015" lon="8.660069">
|
|
<ele>-22.482932</ele>
|
|
<time>2026-07-10T12:08:37.000Z</time>
|
|
</trkpt>
|
|
<trkpt lat="54.996073" lon="8.660088">
|
|
<ele>-22.516657</ele>
|
|
<time>2026-07-10T12:08:38.000Z</time>
|
|
</trkpt>
|
|
<trkpt lat="54.996129" lon="8.660108">
|
|
<ele>-22.549323</ele>
|
|
<time>2026-07-10T12:08:39.000Z</time>
|
|
</trkpt>
|
|
<trkpt lat="54.996182" lon="8.660130">
|
|
<ele>-22.580457</ele>
|
|
<time>2026-07-10T12:08:40.000Z</time>
|
|
</trkpt>
|
|
<trkpt lat="54.996236" lon="8.660153">
|
|
<ele>-22.589612</ele>
|
|
<time>2026-07-10T12:08:41.000Z</time>
|
|
</trkpt>
|
|
<trkpt lat="54.996292" lon="8.660172">
|
|
<ele>-22.598496</ele>
|
|
<time>2026-07-10T12:08:42.000Z</time>
|
|
</trkpt>
|
|
<trkpt lat="54.996342" lon="8.660190">
|
|
<ele>-22.606447</ele>
|
|
<time>2026-07-10T12:08:43.000Z</time>
|
|
</trkpt>
|
|
<trkpt lat="54.996395" lon="8.660209">
|
|
<ele>-22.614873</ele>
|
|
<time>2026-07-10T12:08:44.000Z</time>
|
|
</trkpt>
|
|
<trkpt lat="54.996450" lon="8.660227">
|
|
<ele>-22.623587</ele>
|
|
<time>2026-07-10T12:08:45.000Z</time>
|
|
</trkpt>
|
|
<trkpt lat="54.996506" lon="8.660244">
|
|
<ele>-22.632439</ele>
|
|
<time>2026-07-10T12:08:46.000Z</time>
|
|
</trkpt>
|
|
<trkpt lat="54.996560" lon="8.660262">
|
|
<ele>-22.641000</ele>
|
|
<time>2026-07-10T12:08:47.000Z</time>
|
|
</trkpt>
|
|
<trkpt lat="54.996613" lon="8.660281">
|
|
<ele>-22.649426</ele>
|
|
<time>2026-07-10T12:08:48.000Z</time>
|
|
</trkpt>
|
|
<trkpt lat="54.996667" lon="8.660300">
|
|
<ele>-22.658005</ele>
|
|
<time>2026-07-10T12:08:49.000Z</time>
|
|
</trkpt>
|
|
<trkpt lat="54.996724" lon="8.660320">
|
|
<ele>-22.667059</ele>
|
|
<time>2026-07-10T12:08:50.000Z</time>
|
|
</trkpt>
|
|
<trkpt lat="54.996777" lon="8.660339">
|
|
<ele>-22.675485</ele>
|
|
<time>2026-07-10T12:08:51.000Z</time>
|
|
</trkpt>
|
|
<trkpt lat="54.996831" lon="8.660354">
|
|
<ele>-22.684001</ele>
|
|
<time>2026-07-10T12:08:52.000Z</time>
|
|
</trkpt>
|
|
<trkpt lat="54.996884" lon="8.660370">
|
|
<ele>-22.692377</ele>
|
|
<time>2026-07-10T12:08:53.000Z</time>
|
|
</trkpt>
|
|
<trkpt lat="54.996939" lon="8.660384">
|
|
<ele>-22.701032</ele>
|
|
<time>2026-07-10T12:08:54.000Z</time>
|
|
</trkpt>
|
|
<trkpt lat="54.996994" lon="8.660398">
|
|
<ele>-22.709688</ele>
|
|
<time>2026-07-10T12:08:55.000Z</time>
|
|
</trkpt>
|
|
<trkpt lat="54.997047" lon="8.660415">
|
|
<ele>-22.718080</ele>
|
|
<time>2026-07-10T12:08:56.000Z</time>
|
|
</trkpt>
|
|
<trkpt lat="54.997097" lon="8.660431">
|
|
<ele>-22.725996</ele>
|
|
<time>2026-07-10T12:08:57.000Z</time>
|
|
</trkpt>
|
|
<trkpt lat="54.997150" lon="8.660445">
|
|
<ele>-22.734344</ele>
|
|
<time>2026-07-10T12:08:58.000Z</time>
|
|
</trkpt>
|
|
<trkpt lat="54.997203" lon="8.660459">
|
|
<ele>-22.742691</ele>
|
|
<time>2026-07-10T12:08:59.000Z</time>
|
|
</trkpt>
|
|
<trkpt lat="54.997254" lon="8.660471">
|
|
<ele>-22.750705</ele>
|
|
<time>2026-07-10T12:09:00.000Z</time>
|
|
</trkpt>
|
|
<trkpt lat="54.997306" lon="8.660481">
|
|
<ele>-22.758852</ele>
|
|
<time>2026-07-10T12:09:01.000Z</time>
|
|
</trkpt>
|
|
<trkpt lat="54.997356" lon="8.660491">
|
|
<ele>-22.766689</ele>
|
|
<time>2026-07-10T12:09:02.000Z</time>
|
|
</trkpt>
|
|
<trkpt lat="54.997405" lon="8.660502">
|
|
<ele>-22.774383</ele>
|
|
<time>2026-07-10T12:09:03.000Z</time>
|
|
</trkpt>
|
|
<trkpt lat="54.997455" lon="8.660514">
|
|
<ele>-22.782242</ele>
|
|
<time>2026-07-10T12:09:04.000Z</time>
|
|
</trkpt>
|
|
<trkpt lat="54.997506" lon="8.660527">
|
|
<ele>-22.790269</ele>
|
|
<time>2026-07-10T12:09:05.000Z</time>
|
|
</trkpt>
|
|
<trkpt lat="54.997559" lon="8.660542">
|
|
<ele>-22.798630</ele>
|
|
<time>2026-07-10T12:09:06.000Z</time>
|
|
</trkpt>
|
|
<trkpt lat="54.997613" lon="8.660558">
|
|
<ele>-22.807160</ele>
|
|
<time>2026-07-10T12:09:07.000Z</time>
|
|
</trkpt>
|
|
<trkpt lat="54.997666" lon="8.660572">
|
|
<ele>-22.815507</ele>
|
|
<time>2026-07-10T12:09:08.000Z</time>
|
|
</trkpt>
|
|
<trkpt lat="54.997720" lon="8.660587">
|
|
<ele>-22.824022</ele>
|
|
<time>2026-07-10T12:09:09.000Z</time>
|
|
</trkpt>
|
|
<trkpt lat="54.997774" lon="8.660606">
|
|
<ele>-22.832601</ele>
|
|
<time>2026-07-10T12:09:10.000Z</time>
|
|
</trkpt>
|
|
<trkpt lat="54.997830" lon="8.660624">
|
|
<ele>-22.841469</ele>
|
|
<time>2026-07-10T12:09:11.000Z</time>
|
|
</trkpt>
|
|
<trkpt lat="54.997883" lon="8.660640">
|
|
<ele>-22.849845</ele>
|
|
<time>2026-07-10T12:09:12.000Z</time>
|
|
</trkpt>
|
|
<trkpt lat="54.997937" lon="8.660660">
|
|
<ele>-22.858441</ele>
|
|
<time>2026-07-10T12:09:13.000Z</time>
|
|
</trkpt>
|
|
<trkpt lat="54.997990" lon="8.660682">
|
|
<ele>-22.864936</ele>
|
|
<time>2026-07-10T12:09:14.000Z</time>
|
|
</trkpt>
|
|
<trkpt lat="54.998044" lon="8.660703">
|
|
<ele>-22.870539</ele>
|
|
<time>2026-07-10T12:09:15.000Z</time>
|
|
</trkpt>
|
|
<trkpt lat="54.998097" lon="8.660722">
|
|
<ele>-22.876019</ele>
|
|
<time>2026-07-10T12:09:16.000Z</time>
|
|
</trkpt>
|
|
<trkpt lat="54.998149" lon="8.660741">
|
|
<ele>-22.881400</ele>
|
|
<time>2026-07-10T12:09:17.000Z</time>
|
|
</trkpt>
|
|
<trkpt lat="54.998200" lon="8.660759">
|
|
<ele>-22.886671</ele>
|
|
<time>2026-07-10T12:09:18.000Z</time>
|
|
</trkpt>
|
|
<trkpt lat="54.998252" lon="8.660778">
|
|
<ele>-22.892052</ele>
|
|
<time>2026-07-10T12:09:19.000Z</time>
|
|
</trkpt>
|
|
<trkpt lat="54.998303" lon="8.660801">
|
|
<ele>-22.897387</ele>
|
|
<time>2026-07-10T12:09:20.000Z</time>
|
|
</trkpt>
|
|
<trkpt lat="54.998356" lon="8.660821">
|
|
<ele>-22.902879</ele>
|
|
<time>2026-07-10T12:09:21.000Z</time>
|
|
</trkpt>
|
|
<trkpt lat="54.998410" lon="8.660844">
|
|
<ele>-22.908509</ele>
|
|
<time>2026-07-10T12:09:22.000Z</time>
|
|
</trkpt>
|
|
<trkpt lat="54.998462" lon="8.660868">
|
|
<ele>-22.913957</ele>
|
|
<time>2026-07-10T12:09:23.000Z</time>
|
|
</trkpt>
|
|
<trkpt lat="54.998513" lon="8.660887">
|
|
<ele>-22.919239</ele>
|
|
<time>2026-07-10T12:09:24.000Z</time>
|
|
</trkpt>
|
|
<trkpt lat="54.998565" lon="8.660903">
|
|
<ele>-22.924587</ele>
|
|
<time>2026-07-10T12:09:25.000Z</time>
|
|
</trkpt>
|
|
<trkpt lat="54.998616" lon="8.660920">
|
|
<ele>-22.929846</ele>
|
|
<time>2026-07-10T12:09:26.000Z</time>
|
|
</trkpt>
|
|
<trkpt lat="54.998669" lon="8.660935">
|
|
<ele>-22.935284</ele>
|
|
<time>2026-07-10T12:09:27.000Z</time>
|
|
</trkpt>
|
|
<trkpt lat="54.998722" lon="8.660954">
|
|
<ele>-22.940764</ele>
|
|
<time>2026-07-10T12:09:28.000Z</time>
|
|
</trkpt>
|
|
<trkpt lat="54.998775" lon="8.660972">
|
|
<ele>-22.946233</ele>
|
|
<time>2026-07-10T12:09:29.000Z</time>
|
|
</trkpt>
|
|
<trkpt lat="54.998826" lon="8.660992">
|
|
<ele>-22.951528</ele>
|
|
<time>2026-07-10T12:09:30.000Z</time>
|
|
</trkpt>
|
|
<trkpt lat="54.998879" lon="8.661016">
|
|
<ele>-22.957074</ele>
|
|
<time>2026-07-10T12:09:31.000Z</time>
|
|
</trkpt>
|
|
<trkpt lat="54.998933" lon="8.661038">
|
|
<ele>-22.962690</ele>
|
|
<time>2026-07-10T12:09:32.000Z</time>
|
|
</trkpt>
|
|
<trkpt lat="54.998985" lon="8.661057">
|
|
<ele>-22.968071</ele>
|
|
<time>2026-07-10T12:09:33.000Z</time>
|
|
</trkpt>
|
|
<trkpt lat="54.999035" lon="8.661074">
|
|
<ele>-22.973231</ele>
|
|
<time>2026-07-10T12:09:34.000Z</time>
|
|
</trkpt>
|
|
<trkpt lat="54.999088" lon="8.661090">
|
|
<ele>-22.978679</ele>
|
|
<time>2026-07-10T12:09:35.000Z</time>
|
|
</trkpt>
|
|
<trkpt lat="54.999142" lon="8.661106">
|
|
<ele>-22.984226</ele>
|
|
<time>2026-07-10T12:09:36.000Z</time>
|
|
</trkpt>
|
|
<trkpt lat="54.999194" lon="8.661124">
|
|
<ele>-22.989596</ele>
|
|
<time>2026-07-10T12:09:37.000Z</time>
|
|
</trkpt>
|
|
<trkpt lat="54.999245" lon="8.661142">
|
|
<ele>-22.994866</ele>
|
|
<time>2026-07-10T12:09:38.000Z</time>
|
|
</trkpt>
|
|
<trkpt lat="54.999298" lon="8.661161">
|
|
<ele>-23.000346</ele>
|
|
<time>2026-07-10T12:09:39.000Z</time>
|
|
</trkpt>
|
|
<trkpt lat="54.999348" lon="8.661179">
|
|
<ele>-23.005517</ele>
|
|
<time>2026-07-10T12:09:40.000Z</time>
|
|
</trkpt>
|
|
<trkpt lat="54.999398" lon="8.661195">
|
|
<ele>-23.010665</ele>
|
|
<time>2026-07-10T12:09:41.000Z</time>
|
|
</trkpt>
|
|
<trkpt lat="54.999451" lon="8.661211">
|
|
<ele>-23.016113</ele>
|
|
<time>2026-07-10T12:09:42.000Z</time>
|
|
</trkpt>
|
|
<trkpt lat="54.999503" lon="8.661225">
|
|
<ele>-23.021442</ele>
|
|
<time>2026-07-10T12:09:43.000Z</time>
|
|
</trkpt>
|
|
<trkpt lat="54.999554" lon="8.661240">
|
|
<ele>-23.026681</ele>
|
|
<time>2026-07-10T12:09:44.000Z</time>
|
|
</trkpt>
|
|
<trkpt lat="54.999606" lon="8.661260">
|
|
<ele>-23.032074</ele>
|
|
<time>2026-07-10T12:09:45.000Z</time>
|
|
</trkpt>
|
|
<trkpt lat="54.999657" lon="8.661283">
|
|
<ele>-23.037409</ele>
|
|
<time>2026-07-10T12:09:46.000Z</time>
|
|
</trkpt>
|
|
<trkpt lat="54.999709" lon="8.661301">
|
|
<ele>-23.042779</ele>
|
|
<time>2026-07-10T12:09:47.000Z</time>
|
|
</trkpt>
|
|
<trkpt lat="54.999759" lon="8.661316">
|
|
<ele>-23.056943</ele>
|
|
<time>2026-07-10T12:09:48.000Z</time>
|
|
</trkpt>
|
|
<trkpt lat="54.999809" lon="8.661332">
|
|
<ele>-23.072384</ele>
|
|
<time>2026-07-10T12:09:49.000Z</time>
|
|
</trkpt>
|
|
<trkpt lat="54.999858" lon="8.661350">
|
|
<ele>-23.087595</ele>
|
|
<time>2026-07-10T12:09:50.000Z</time>
|
|
</trkpt>
|
|
<trkpt lat="54.999909" lon="8.661370">
|
|
<ele>-23.103473</ele>
|
|
<time>2026-07-10T12:09:51.000Z</time>
|
|
</trkpt>
|
|
<trkpt lat="54.999961" lon="8.661387">
|
|
<ele>-23.119544</ele>
|
|
<time>2026-07-10T12:09:52.000Z</time>
|
|
</trkpt>
|
|
<trkpt lat="55.000010" lon="8.661405">
|
|
<ele>-23.134754</ele>
|
|
<time>2026-07-10T12:09:53.000Z</time>
|
|
</trkpt>
|
|
<trkpt lat="55.000056" lon="8.661421">
|
|
<ele>-23.149002</ele>
|
|
<time>2026-07-10T12:09:54.000Z</time>
|
|
</trkpt>
|
|
<trkpt lat="55.000106" lon="8.661436">
|
|
<ele>-23.164413</ele>
|
|
<time>2026-07-10T12:09:55.000Z</time>
|
|
</trkpt>
|
|
<trkpt lat="55.000156" lon="8.661452">
|
|
<ele>-23.179854</ele>
|
|
<time>2026-07-10T12:09:56.000Z</time>
|
|
</trkpt>
|
|
<trkpt lat="55.000207" lon="8.661468">
|
|
<ele>-23.195594</ele>
|
|
<time>2026-07-10T12:09:57.000Z</time>
|
|
</trkpt>
|
|
<trkpt lat="55.000259" lon="8.661483">
|
|
<ele>-23.211604</ele>
|
|
<time>2026-07-10T12:09:58.000Z</time>
|
|
</trkpt>
|
|
<trkpt lat="55.000308" lon="8.661501">
|
|
<ele>-23.226815</ele>
|
|
<time>2026-07-10T12:09:59.000Z</time>
|
|
</trkpt>
|
|
<trkpt lat="55.000359" lon="8.661521">
|
|
<ele>-23.242693</ele>
|
|
<time>2026-07-10T12:10:00.000Z</time>
|
|
</trkpt>
|
|
<trkpt lat="55.000413" lon="8.661543">
|
|
<ele>-23.259538</ele>
|
|
<time>2026-07-10T12:10:01.000Z</time>
|
|
</trkpt>
|
|
<trkpt lat="55.000466" lon="8.661564">
|
|
<ele>-23.276047</ele>
|
|
<time>2026-07-10T12:10:02.000Z</time>
|
|
</trkpt>
|
|
<trkpt lat="55.000519" lon="8.661581">
|
|
<ele>-23.292416</ele>
|
|
<time>2026-07-10T12:10:03.000Z</time>
|
|
</trkpt>
|
|
<trkpt lat="55.000572" lon="8.661599">
|
|
<ele>-23.308817</ele>
|
|
<time>2026-07-10T12:10:04.000Z</time>
|
|
</trkpt>
|
|
<trkpt lat="55.000627" lon="8.661617">
|
|
<ele>-23.325816</ele>
|
|
<time>2026-07-10T12:10:05.000Z</time>
|
|
</trkpt>
|
|
<trkpt lat="55.000684" lon="8.661633">
|
|
<ele>-23.343352</ele>
|
|
<time>2026-07-10T12:10:06.000Z</time>
|
|
</trkpt>
|
|
<trkpt lat="55.000742" lon="8.661645">
|
|
<ele>-23.361094</ele>
|
|
<time>2026-07-10T12:10:07.000Z</time>
|
|
</trkpt>
|
|
<trkpt lat="55.000800" lon="8.661653">
|
|
<ele>-23.378766</ele>
|
|
<time>2026-07-10T12:10:08.000Z</time>
|
|
</trkpt>
|
|
<trkpt lat="55.000859" lon="8.661656">
|
|
<ele>-23.396695</ele>
|
|
<time>2026-07-10T12:10:09.000Z</time>
|
|
</trkpt>
|
|
<trkpt lat="55.000913" lon="8.661650">
|
|
<ele>-23.413131</ele>
|
|
<time>2026-07-10T12:10:10.000Z</time>
|
|
</trkpt>
|
|
<trkpt lat="55.000970" lon="8.661638">
|
|
<ele>-23.430571</ele>
|
|
<time>2026-07-10T12:10:11.000Z</time>
|
|
</trkpt>
|
|
<trkpt lat="55.001026" lon="8.661622">
|
|
<ele>-23.447808</ele>
|
|
<time>2026-07-10T12:10:12.000Z</time>
|
|
</trkpt>
|
|
<trkpt lat="55.001081" lon="8.661603">
|
|
<ele>-23.464839</ele>
|
|
<time>2026-07-10T12:10:13.000Z</time>
|
|
</trkpt>
|
|
<trkpt lat="55.001138" lon="8.661585">
|
|
<ele>-23.482434</ele>
|
|
<time>2026-07-10T12:10:14.000Z</time>
|
|
</trkpt>
|
|
<trkpt lat="55.001195" lon="8.661571">
|
|
<ele>-23.499919</ele>
|
|
<time>2026-07-10T12:10:15.000Z</time>
|
|
</trkpt>
|
|
<trkpt lat="55.001253" lon="8.661553">
|
|
<ele>-23.517814</ele>
|
|
<time>2026-07-10T12:10:16.000Z</time>
|
|
</trkpt>
|
|
<trkpt lat="55.001310" lon="8.661537">
|
|
<ele>-23.535351</ele>
|
|
<time>2026-07-10T12:10:17.000Z</time>
|
|
</trkpt>
|
|
<trkpt lat="55.001367" lon="8.661519">
|
|
<ele>-23.552946</ele>
|
|
<time>2026-07-10T12:10:18.000Z</time>
|
|
</trkpt>
|
|
<trkpt lat="55.001424" lon="8.661502">
|
|
<ele>-23.570511</ele>
|
|
<time>2026-07-10T12:10:19.000Z</time>
|
|
</trkpt>
|
|
<trkpt lat="55.001481" lon="8.661485">
|
|
<ele>-23.588077</ele>
|
|
<time>2026-07-10T12:10:20.000Z</time>
|
|
</trkpt>
|
|
<trkpt lat="55.001538" lon="8.661467">
|
|
<ele>-23.627827</ele>
|
|
<time>2026-07-10T12:10:21.000Z</time>
|
|
</trkpt>
|
|
<trkpt lat="55.001591" lon="8.661450">
|
|
<ele>-23.666962</ele>
|
|
<time>2026-07-10T12:10:22.000Z</time>
|
|
</trkpt>
|
|
<trkpt lat="55.001646" lon="8.661431">
|
|
<ele>-23.707680</ele>
|
|
<time>2026-07-10T12:10:23.000Z</time>
|
|
</trkpt>
|
|
<trkpt lat="55.001701" lon="8.661412">
|
|
<ele>-23.748398</ele>
|
|
<time>2026-07-10T12:10:24.000Z</time>
|
|
</trkpt>
|
|
<trkpt lat="55.001752" lon="8.661393">
|
|
<ele>-23.786270</ele>
|
|
<time>2026-07-10T12:10:25.000Z</time>
|
|
</trkpt>
|
|
<trkpt lat="55.001805" lon="8.661375">
|
|
<ele>-23.825483</ele>
|
|
<time>2026-07-10T12:10:26.000Z</time>
|
|
</trkpt>
|
|
<trkpt lat="55.001858" lon="8.661354">
|
|
<ele>-23.864953</ele>
|
|
<time>2026-07-10T12:10:27.000Z</time>
|
|
</trkpt>
|
|
<trkpt lat="55.001912" lon="8.661334">
|
|
<ele>-23.905044</ele>
|
|
<time>2026-07-10T12:10:28.000Z</time>
|
|
</trkpt>
|
|
<trkpt lat="55.001964" lon="8.661314">
|
|
<ele>-23.943714</ele>
|
|
<time>2026-07-10T12:10:29.000Z</time>
|
|
</trkpt>
|
|
<trkpt lat="55.002014" lon="8.661294">
|
|
<ele>-23.980968</ele>
|
|
<time>2026-07-10T12:10:30.000Z</time>
|
|
</trkpt>
|
|
<trkpt lat="55.002069" lon="8.661272">
|
|
<ele>-24.021947</ele>
|
|
<time>2026-07-10T12:10:31.000Z</time>
|
|
</trkpt>
|
|
<trkpt lat="55.002125" lon="8.661248">
|
|
<ele>-24.063826</ele>
|
|
<time>2026-07-10T12:10:32.000Z</time>
|
|
</trkpt>
|
|
<trkpt lat="55.002179" lon="8.661224">
|
|
<ele>-24.104295</ele>
|
|
<time>2026-07-10T12:10:33.000Z</time>
|
|
</trkpt>
|
|
<trkpt lat="55.002233" lon="8.661196">
|
|
<ele>-24.145208</ele>
|
|
<time>2026-07-10T12:10:34.000Z</time>
|
|
</trkpt>
|
|
<trkpt lat="55.002289" lon="8.661162">
|
|
<ele>-24.188271</ele>
|
|
<time>2026-07-10T12:10:35.000Z</time>
|
|
</trkpt>
|
|
<trkpt lat="55.002344" lon="8.661129">
|
|
<ele>-24.230511</ele>
|
|
<time>2026-07-10T12:10:36.000Z</time>
|
|
</trkpt>
|
|
<trkpt lat="55.002400" lon="8.661095">
|
|
<ele>-24.273574</ele>
|
|
<time>2026-07-10T12:10:37.000Z</time>
|
|
</trkpt>
|
|
<trkpt lat="55.002454" lon="8.661061">
|
|
<ele>-24.315268</ele>
|
|
<time>2026-07-10T12:10:38.000Z</time>
|
|
</trkpt>
|
|
<trkpt lat="55.002511" lon="8.661030">
|
|
<ele>-24.358629</ele>
|
|
<time>2026-07-10T12:10:39.000Z</time>
|
|
</trkpt>
|
|
<trkpt lat="55.002569" lon="8.660999">
|
|
<ele>-24.402684</ele>
|
|
<time>2026-07-10T12:10:40.000Z</time>
|
|
</trkpt>
|
|
<trkpt lat="55.002626" lon="8.660970">
|
|
<ele>-24.445804</ele>
|
|
<time>2026-07-10T12:10:41.000Z</time>
|
|
</trkpt>
|
|
<trkpt lat="55.002682" lon="8.660940">
|
|
<ele>-24.488348</ele>
|
|
<time>2026-07-10T12:10:42.000Z</time>
|
|
</trkpt>
|
|
<trkpt lat="55.002737" lon="8.660911">
|
|
<ele>-24.530076</ele>
|
|
<time>2026-07-10T12:10:43.000Z</time>
|
|
</trkpt>
|
|
<trkpt lat="55.002793" lon="8.660881">
|
|
<ele>-24.572620</ele>
|
|
<time>2026-07-10T12:10:44.000Z</time>
|
|
</trkpt>
|
|
<trkpt lat="55.002846" lon="8.660854">
|
|
<ele>-24.612718</ele>
|
|
<time>2026-07-10T12:10:45.000Z</time>
|
|
</trkpt>
|
|
<trkpt lat="55.002900" lon="8.660826">
|
|
<ele>-24.653631</ele>
|
|
<time>2026-07-10T12:10:46.000Z</time>
|
|
</trkpt>
|
|
<trkpt lat="55.002957" lon="8.660801">
|
|
<ele>-24.696314</ele>
|
|
<time>2026-07-10T12:10:47.000Z</time>
|
|
</trkpt>
|
|
<trkpt lat="55.003009" lon="8.660776">
|
|
<ele>-24.735486</ele>
|
|
<time>2026-07-10T12:10:48.000Z</time>
|
|
</trkpt>
|
|
<trkpt lat="55.003060" lon="8.660750">
|
|
<ele>-24.774074</ele>
|
|
<time>2026-07-10T12:10:49.000Z</time>
|
|
</trkpt>
|
|
<trkpt lat="55.003112" lon="8.660723">
|
|
<ele>-24.813476</ele>
|
|
<time>2026-07-10T12:10:50.000Z</time>
|
|
</trkpt>
|
|
<trkpt lat="55.003162" lon="8.660694">
|
|
<ele>-24.851742</ele>
|
|
<time>2026-07-10T12:10:51.000Z</time>
|
|
</trkpt>
|
|
<trkpt lat="55.003211" lon="8.660663">
|
|
<ele>-24.889597</ele>
|
|
<time>2026-07-10T12:10:52.000Z</time>
|
|
</trkpt>
|
|
<trkpt lat="55.003261" lon="8.660635">
|
|
<ele>-24.942689</ele>
|
|
<time>2026-07-10T12:10:53.000Z</time>
|
|
</trkpt>
|
|
<trkpt lat="55.003312" lon="8.660606">
|
|
<ele>-24.999966</ele>
|
|
<time>2026-07-10T12:10:54.000Z</time>
|
|
</trkpt>
|
|
<trkpt lat="55.003364" lon="8.660578">
|
|
<ele>-25.058076</ele>
|
|
<time>2026-07-10T12:10:55.000Z</time>
|
|
</trkpt>
|
|
<trkpt lat="55.003414" lon="8.660552">
|
|
<ele>-25.113786</ele>
|
|
<time>2026-07-10T12:10:56.000Z</time>
|
|
</trkpt>
|
|
<trkpt lat="55.003464" lon="8.660526">
|
|
<ele>-25.169497</ele>
|
|
<time>2026-07-10T12:10:57.000Z</time>
|
|
</trkpt>
|
|
<trkpt lat="55.003517" lon="8.660503">
|
|
<ele>-25.227813</ele>
|
|
<time>2026-07-10T12:10:58.000Z</time>
|
|
</trkpt>
|
|
<trkpt lat="55.003567" lon="8.660477">
|
|
<ele>-25.283524</ele>
|
|
<time>2026-07-10T12:10:59.000Z</time>
|
|
</trkpt>
|
|
<trkpt lat="55.003620" lon="8.660448">
|
|
<ele>-25.342835</ele>
|
|
<time>2026-07-10T12:11:00.000Z</time>
|
|
</trkpt>
|
|
<trkpt lat="55.003674" lon="8.660419">
|
|
<ele>-25.403166</ele>
|
|
<time>2026-07-10T12:11:01.000Z</time>
|
|
</trkpt>
|
|
<trkpt lat="55.003726" lon="8.660390">
|
|
<ele>-25.461459</ele>
|
|
<time>2026-07-10T12:11:02.000Z</time>
|
|
</trkpt>
|
|
<trkpt lat="55.003777" lon="8.660362">
|
|
<ele>-25.518550</ele>
|
|
<time>2026-07-10T12:11:03.000Z</time>
|
|
</trkpt>
|
|
<trkpt lat="55.003830" lon="8.660333">
|
|
<ele>-25.577861</ele>
|
|
<time>2026-07-10T12:11:04.000Z</time>
|
|
</trkpt>
|
|
<trkpt lat="55.003884" lon="8.660303">
|
|
<ele>-25.638375</ele>
|
|
<time>2026-07-10T12:11:05.000Z</time>
|
|
</trkpt>
|
|
<trkpt lat="55.003937" lon="8.660273">
|
|
<ele>-25.697872</ele>
|
|
<time>2026-07-10T12:11:06.000Z</time>
|
|
</trkpt>
|
|
<trkpt lat="55.003990" lon="8.660242">
|
|
<ele>-25.757561</ele>
|
|
<time>2026-07-10T12:11:07.000Z</time>
|
|
</trkpt>
|
|
<trkpt lat="55.004044" lon="8.660211">
|
|
<ele>-25.818264</ele>
|
|
<time>2026-07-10T12:11:08.000Z</time>
|
|
</trkpt>
|
|
<trkpt lat="55.004097" lon="8.660179">
|
|
<ele>-25.878151</ele>
|
|
<time>2026-07-10T12:11:09.000Z</time>
|
|
</trkpt>
|
|
<trkpt lat="55.004150" lon="8.660148">
|
|
<ele>-25.937840</ele>
|
|
<time>2026-07-10T12:11:10.000Z</time>
|
|
</trkpt>
|
|
<trkpt lat="55.004203" lon="8.660115">
|
|
<ele>-25.997930</ele>
|
|
<time>2026-07-10T12:11:11.000Z</time>
|
|
</trkpt>
|
|
<trkpt lat="55.004254" lon="8.660082">
|
|
<ele>-26.056013</ele>
|
|
<time>2026-07-10T12:11:12.000Z</time>
|
|
</trkpt>
|
|
<trkpt lat="55.004306" lon="8.660050">
|
|
<ele>-26.114892</ele>
|
|
<time>2026-07-10T12:11:13.000Z</time>
|
|
</trkpt>
|
|
<trkpt lat="55.004356" lon="8.660013">
|
|
<ele>-26.172888</ele>
|
|
<time>2026-07-10T12:11:14.000Z</time>
|
|
</trkpt>
|
|
<trkpt lat="55.004405" lon="8.659975">
|
|
<ele>-26.230149</ele>
|
|
<time>2026-07-10T12:11:15.000Z</time>
|
|
</trkpt>
|
|
<trkpt lat="55.004455" lon="8.659935">
|
|
<ele>-26.288886</ele>
|
|
<time>2026-07-10T12:11:16.000Z</time>
|
|
</trkpt>
|
|
<trkpt lat="55.004504" lon="8.659896">
|
|
<ele>-26.346399</ele>
|
|
<time>2026-07-10T12:11:17.000Z</time>
|
|
</trkpt>
|
|
<trkpt lat="55.004549" lon="8.659860">
|
|
<ele>-26.399263</ele>
|
|
<time>2026-07-10T12:11:18.000Z</time>
|
|
</trkpt>
|
|
<trkpt lat="55.004596" lon="8.659824">
|
|
<ele>-26.454075</ele>
|
|
<time>2026-07-10T12:11:19.000Z</time>
|
|
</trkpt>
|
|
<trkpt lat="55.004646" lon="8.659787">
|
|
<ele>-26.512071</ele>
|
|
<time>2026-07-10T12:11:20.000Z</time>
|
|
</trkpt>
|
|
<trkpt lat="55.004695" lon="8.659752">
|
|
<ele>-26.568610</ele>
|
|
<time>2026-07-10T12:11:21.000Z</time>
|
|
</trkpt>
|
|
<trkpt lat="55.004745" lon="8.659720">
|
|
<ele>-26.625479</ele>
|
|
<time>2026-07-10T12:11:22.000Z</time>
|
|
</trkpt>
|
|
<trkpt lat="55.004793" lon="8.659686">
|
|
<ele>-26.680798</ele>
|
|
<time>2026-07-10T12:11:23.000Z</time>
|
|
</trkpt>
|
|
<trkpt lat="55.004840" lon="8.659650">
|
|
<ele>-26.735610</ele>
|
|
<time>2026-07-10T12:11:24.000Z</time>
|
|
</trkpt>
|
|
<trkpt lat="55.004891" lon="8.659616">
|
|
<ele>-26.793909</ele>
|
|
<time>2026-07-10T12:11:25.000Z</time>
|
|
</trkpt>
|
|
<trkpt lat="55.004945" lon="8.659585">
|
|
<ele>-26.795238</ele>
|
|
<time>2026-07-10T12:11:26.000Z</time>
|
|
</trkpt>
|
|
<trkpt lat="55.005002" lon="8.659555">
|
|
<ele>-26.759993</ele>
|
|
<time>2026-07-10T12:11:27.000Z</time>
|
|
</trkpt>
|
|
<trkpt lat="55.005055" lon="8.659528">
|
|
<ele>-26.727309</ele>
|
|
<time>2026-07-10T12:11:28.000Z</time>
|
|
</trkpt>
|
|
<trkpt lat="55.005107" lon="8.659501">
|
|
<ele>-26.695192</ele>
|
|
<time>2026-07-10T12:11:29.000Z</time>
|
|
</trkpt>
|
|
<trkpt lat="55.005157" lon="8.659475">
|
|
<ele>-26.664306</ele>
|
|
<time>2026-07-10T12:11:30.000Z</time>
|
|
</trkpt>
|
|
<trkpt lat="55.005208" lon="8.659454">
|
|
<ele>-26.633287</ele>
|
|
<time>2026-07-10T12:11:31.000Z</time>
|
|
</trkpt>
|
|
<trkpt lat="55.005262" lon="8.659439">
|
|
<ele>-26.600919</ele>
|
|
<time>2026-07-10T12:11:32.000Z</time>
|
|
</trkpt>
|
|
<trkpt lat="55.005319" lon="8.659429">
|
|
<ele>-26.567007</ele>
|
|
<time>2026-07-10T12:11:33.000Z</time>
|
|
</trkpt>
|
|
<trkpt lat="55.005376" lon="8.659419">
|
|
<ele>-26.533096</ele>
|
|
<time>2026-07-10T12:11:34.000Z</time>
|
|
</trkpt>
|
|
<trkpt lat="55.005434" lon="8.659408">
|
|
<ele>-26.498561</ele>
|
|
<time>2026-07-10T12:11:35.000Z</time>
|
|
</trkpt>
|
|
<trkpt lat="55.005491" lon="8.659397">
|
|
<ele>-26.464614</ele>
|
|
<time>2026-07-10T12:11:36.000Z</time>
|
|
</trkpt>
|
|
<trkpt lat="55.005548" lon="8.659386">
|
|
<ele>-26.430667</ele>
|
|
<time>2026-07-10T12:11:37.000Z</time>
|
|
</trkpt>
|
|
<trkpt lat="55.005604" lon="8.659370">
|
|
<ele>-26.397076</ele>
|
|
<time>2026-07-10T12:11:38.000Z</time>
|
|
</trkpt>
|
|
<trkpt lat="55.005659" lon="8.659351">
|
|
<ele>-26.363886</ele>
|
|
<time>2026-07-10T12:11:39.000Z</time>
|
|
</trkpt>
|
|
<trkpt lat="55.005714" lon="8.659329">
|
|
<ele>-26.330483</ele>
|
|
<time>2026-07-10T12:11:40.000Z</time>
|
|
</trkpt>
|
|
<trkpt lat="55.005768" lon="8.659307">
|
|
<ele>-26.297657</ele>
|
|
<time>2026-07-10T12:11:41.000Z</time>
|
|
</trkpt>
|
|
<trkpt lat="55.005821" lon="8.659287">
|
|
<ele>-26.265558</ele>
|
|
<time>2026-07-10T12:11:42.000Z</time>
|
|
</trkpt>
|
|
<trkpt lat="55.005872" lon="8.659264">
|
|
<ele>-26.234375</ele>
|
|
<time>2026-07-10T12:11:43.000Z</time>
|
|
</trkpt>
|
|
<trkpt lat="55.005924" lon="8.659241">
|
|
<ele>-26.202619</ele>
|
|
<time>2026-07-10T12:11:44.000Z</time>
|
|
</trkpt>
|
|
<trkpt lat="55.005973" lon="8.659216">
|
|
<ele>-26.172398</ele>
|
|
<time>2026-07-10T12:11:45.000Z</time>
|
|
</trkpt>
|
|
<trkpt lat="55.006023" lon="8.659191">
|
|
<ele>-26.141608</ele>
|
|
<time>2026-07-10T12:11:46.000Z</time>
|
|
</trkpt>
|
|
<trkpt lat="55.006073" lon="8.659164">
|
|
<ele>-26.110624</ele>
|
|
<time>2026-07-10T12:11:47.000Z</time>
|
|
</trkpt>
|
|
<trkpt lat="55.006121" lon="8.659138">
|
|
<ele>-26.080871</ele>
|
|
<time>2026-07-10T12:11:48.000Z</time>
|
|
</trkpt>
|
|
<trkpt lat="55.006168" lon="8.659114">
|
|
<ele>-26.051881</ele>
|
|
<time>2026-07-10T12:11:49.000Z</time>
|
|
</trkpt>
|
|
<trkpt lat="55.006217" lon="8.659088">
|
|
<ele>-26.021562</ele>
|
|
<time>2026-07-10T12:11:50.000Z</time>
|
|
</trkpt>
|
|
<trkpt lat="55.006267" lon="8.659064">
|
|
<ele>-25.990864</ele>
|
|
<time>2026-07-10T12:11:51.000Z</time>
|
|
</trkpt>
|
|
<trkpt lat="55.006315" lon="8.659044">
|
|
<ele>-25.961651</ele>
|
|
<time>2026-07-10T12:11:52.000Z</time>
|
|
</trkpt>
|
|
<trkpt lat="55.006361" lon="8.659021">
|
|
<ele>-25.933324</ele>
|
|
<time>2026-07-10T12:11:53.000Z</time>
|
|
</trkpt>
|
|
<trkpt lat="55.006408" lon="8.658998">
|
|
<ele>-25.904428</ele>
|
|
<time>2026-07-10T12:11:54.000Z</time>
|
|
</trkpt>
|
|
<trkpt lat="55.006455" lon="8.658974">
|
|
<ele>-25.875438</ele>
|
|
<time>2026-07-10T12:11:55.000Z</time>
|
|
</trkpt>
|
|
<trkpt lat="55.006499" lon="8.658951">
|
|
<ele>-25.848247</ele>
|
|
<time>2026-07-10T12:11:56.000Z</time>
|
|
</trkpt>
|
|
<trkpt lat="55.006546" lon="8.658929">
|
|
<ele>-25.819441</ele>
|
|
<time>2026-07-10T12:11:57.000Z</time>
|
|
</trkpt>
|
|
<trkpt lat="55.006594" lon="8.658909">
|
|
<ele>-25.790227</ele>
|
|
<time>2026-07-10T12:11:58.000Z</time>
|
|
</trkpt>
|
|
<trkpt lat="55.006639" lon="8.658891">
|
|
<ele>-25.762898</ele>
|
|
<time>2026-07-10T12:11:59.000Z</time>
|
|
</trkpt>
|
|
<trkpt lat="55.006686" lon="8.658874">
|
|
<ele>-25.688158</ele>
|
|
<time>2026-07-10T12:12:00.000Z</time>
|
|
</trkpt>
|
|
<trkpt lat="55.006735" lon="8.658859">
|
|
<ele>-25.579531</ele>
|
|
<time>2026-07-10T12:12:01.000Z</time>
|
|
</trkpt>
|
|
<trkpt lat="55.006782" lon="8.658846">
|
|
<ele>-25.475624</ele>
|
|
<time>2026-07-10T12:12:02.000Z</time>
|
|
</trkpt>
|
|
<trkpt lat="55.006829" lon="8.658836">
|
|
<ele>-25.372240</ele>
|
|
<time>2026-07-10T12:12:03.000Z</time>
|
|
</trkpt>
|
|
<trkpt lat="55.006874" lon="8.658827">
|
|
<ele>-25.273339</ele>
|
|
<time>2026-07-10T12:12:04.000Z</time>
|
|
</trkpt>
|
|
<trkpt lat="55.006921" lon="8.658820">
|
|
<ele>-25.170341</ele>
|
|
<time>2026-07-10T12:12:05.000Z</time>
|
|
</trkpt>
|
|
<trkpt lat="55.006963" lon="8.658815">
|
|
<ele>-25.078422</ele>
|
|
<time>2026-07-10T12:12:06.000Z</time>
|
|
</trkpt>
|
|
<trkpt lat="55.007006" lon="8.658811">
|
|
<ele>-24.984398</ele>
|
|
<time>2026-07-10T12:12:07.000Z</time>
|
|
</trkpt>
|
|
<trkpt lat="55.007052" lon="8.658804">
|
|
<ele>-24.883576</ele>
|
|
<time>2026-07-10T12:12:08.000Z</time>
|
|
</trkpt>
|
|
<trkpt lat="55.007097" lon="8.658797">
|
|
<ele>-24.784930</ele>
|
|
<time>2026-07-10T12:12:09.000Z</time>
|
|
</trkpt>
|
|
<trkpt lat="55.007143" lon="8.658792">
|
|
<ele>-24.684294</ele>
|
|
<time>2026-07-10T12:12:10.000Z</time>
|
|
</trkpt>
|
|
<trkpt lat="55.007190" lon="8.658788">
|
|
<ele>-24.581549</ele>
|
|
<time>2026-07-10T12:12:11.000Z</time>
|
|
</trkpt>
|
|
<trkpt lat="55.007239" lon="8.658787">
|
|
<ele>-24.474551</ele>
|
|
<time>2026-07-10T12:12:12.000Z</time>
|
|
</trkpt>
|
|
<trkpt lat="55.007284" lon="8.658786">
|
|
<ele>-24.376286</ele>
|
|
<time>2026-07-10T12:12:13.000Z</time>
|
|
</trkpt>
|
|
<trkpt lat="55.007330" lon="8.658782">
|
|
<ele>-24.275721</ele>
|
|
<time>2026-07-10T12:12:14.000Z</time>
|
|
</trkpt>
|
|
<trkpt lat="55.007376" lon="8.658777">
|
|
<ele>-24.175086</ele>
|
|
<time>2026-07-10T12:12:15.000Z</time>
|
|
</trkpt>
|
|
<trkpt lat="55.007422" lon="8.658772">
|
|
<ele>-24.074451</ele>
|
|
<time>2026-07-10T12:12:16.000Z</time>
|
|
</trkpt>
|
|
<trkpt lat="55.007469" lon="8.658769">
|
|
<ele>-23.971758</ele>
|
|
<time>2026-07-10T12:12:17.000Z</time>
|
|
</trkpt>
|
|
<trkpt lat="55.007516" lon="8.658767">
|
|
<ele>-23.869104</ele>
|
|
<time>2026-07-10T12:12:18.000Z</time>
|
|
</trkpt>
|
|
<trkpt lat="55.007559" lon="8.658761">
|
|
<ele>-23.774914</ele>
|
|
<time>2026-07-10T12:12:19.000Z</time>
|
|
</trkpt>
|
|
<trkpt lat="55.007605" lon="8.658755">
|
|
<ele>-23.674193</ele>
|
|
<time>2026-07-10T12:12:20.000Z</time>
|
|
</trkpt>
|
|
<trkpt lat="55.007651" lon="8.658750">
|
|
<ele>-23.573558</ele>
|
|
<time>2026-07-10T12:12:21.000Z</time>
|
|
</trkpt>
|
|
<trkpt lat="55.007695" lon="8.658742">
|
|
<ele>-23.476964</ele>
|
|
<time>2026-07-10T12:12:22.000Z</time>
|
|
</trkpt>
|
|
<trkpt lat="55.007738" lon="8.658734">
|
|
<ele>-23.382541</ele>
|
|
<time>2026-07-10T12:12:23.000Z</time>
|
|
</trkpt>
|
|
<trkpt lat="55.007784" lon="8.658728">
|
|
<ele>-23.281821</ele>
|
|
<time>2026-07-10T12:12:24.000Z</time>
|
|
</trkpt>
|
|
<trkpt lat="55.007829" lon="8.658721">
|
|
<ele>-23.183174</ele>
|
|
<time>2026-07-10T12:12:25.000Z</time>
|
|
</trkpt>
|
|
<trkpt lat="55.007871" lon="8.658717">
|
|
<ele>-23.091331</ele>
|
|
<time>2026-07-10T12:12:26.000Z</time>
|
|
</trkpt>
|
|
<trkpt lat="55.007916" lon="8.658714">
|
|
<ele>-22.993002</ele>
|
|
<time>2026-07-10T12:12:27.000Z</time>
|
|
</trkpt>
|
|
<trkpt lat="55.007960" lon="8.658708">
|
|
<ele>-22.896636</ele>
|
|
<time>2026-07-10T12:12:28.000Z</time>
|
|
</trkpt>
|
|
<trkpt lat="55.008004" lon="8.658703">
|
|
<ele>-22.800359</ele>
|
|
<time>2026-07-10T12:12:29.000Z</time>
|
|
</trkpt>
|
|
<trkpt lat="55.008046" lon="8.658699">
|
|
<ele>-22.708516</ele>
|
|
<time>2026-07-10T12:12:30.000Z</time>
|
|
</trkpt>
|
|
<trkpt lat="55.008089" lon="8.658696">
|
|
<ele>-22.614551</ele>
|
|
<time>2026-07-10T12:12:31.000Z</time>
|
|
</trkpt>
|
|
<trkpt lat="55.008134" lon="8.658692">
|
|
<ele>-22.516167</ele>
|
|
<time>2026-07-10T12:12:32.000Z</time>
|
|
</trkpt>
|
|
<trkpt lat="55.008175" lon="8.658687">
|
|
<ele>-22.426425</ele>
|
|
<time>2026-07-10T12:12:33.000Z</time>
|
|
</trkpt>
|
|
<trkpt lat="55.008219" lon="8.658683">
|
|
<ele>-22.330221</ele>
|
|
<time>2026-07-10T12:12:34.000Z</time>
|
|
</trkpt>
|
|
<trkpt lat="55.008262" lon="8.658679">
|
|
<ele>-22.236198</ele>
|
|
<time>2026-07-10T12:12:35.000Z</time>
|
|
</trkpt>
|
|
<trkpt lat="55.008301" lon="8.658678">
|
|
<ele>-22.151033</ele>
|
|
<time>2026-07-10T12:12:36.000Z</time>
|
|
</trkpt>
|
|
<trkpt lat="55.008338" lon="8.658675">
|
|
<ele>-22.070157</ele>
|
|
<time>2026-07-10T12:12:37.000Z</time>
|
|
</trkpt>
|
|
<trkpt lat="55.008373" lon="8.658669">
|
|
<ele>-21.993367</ele>
|
|
<time>2026-07-10T12:12:38.000Z</time>
|
|
</trkpt>
|
|
<trkpt lat="55.008412" lon="8.658663">
|
|
<ele>-21.907880</ele>
|
|
<time>2026-07-10T12:12:39.000Z</time>
|
|
</trkpt>
|
|
<trkpt lat="55.008454" lon="8.658656">
|
|
<ele>-21.816260</ele>
|
|
<time>2026-07-10T12:12:40.000Z</time>
|
|
</trkpt>
|
|
<trkpt lat="55.008495" lon="8.658651">
|
|
<ele>-21.731749</ele>
|
|
<time>2026-07-10T12:12:41.000Z</time>
|
|
</trkpt>
|
|
<trkpt lat="55.008533" lon="8.658649">
|
|
<ele>-21.653577</ele>
|
|
<time>2026-07-10T12:12:42.000Z</time>
|
|
</trkpt>
|
|
<trkpt lat="55.008573" lon="8.658646">
|
|
<ele>-21.571252</ele>
|
|
<time>2026-07-10T12:12:43.000Z</time>
|
|
</trkpt>
|
|
<trkpt lat="55.008614" lon="8.658643">
|
|
<ele>-21.486873</ele>
|
|
<time>2026-07-10T12:12:44.000Z</time>
|
|
</trkpt>
|
|
<trkpt lat="55.008653" lon="8.658641">
|
|
<ele>-21.406646</ele>
|
|
<time>2026-07-10T12:12:45.000Z</time>
|
|
</trkpt>
|
|
<trkpt lat="55.008696" lon="8.658636">
|
|
<ele>-21.318032</ele>
|
|
<time>2026-07-10T12:12:46.000Z</time>
|
|
</trkpt>
|
|
<trkpt lat="55.008741" lon="8.658629">
|
|
<ele>-21.225135</ele>
|
|
<time>2026-07-10T12:12:47.000Z</time>
|
|
</trkpt>
|
|
<trkpt lat="55.008784" lon="8.658624">
|
|
<ele>-21.136521</ele>
|
|
<time>2026-07-10T12:12:48.000Z</time>
|
|
</trkpt>
|
|
<trkpt lat="55.008828" lon="8.658620">
|
|
<ele>-21.045925</ele>
|
|
<time>2026-07-10T12:12:49.000Z</time>
|
|
</trkpt>
|
|
<trkpt lat="55.008871" lon="8.658615">
|
|
<ele>-20.957311</ele>
|
|
<time>2026-07-10T12:12:50.000Z</time>
|
|
</trkpt>
|
|
<trkpt lat="55.008916" lon="8.658608">
|
|
<ele>-20.864414</ele>
|
|
<time>2026-07-10T12:12:51.000Z</time>
|
|
</trkpt>
|
|
<trkpt lat="55.008959" lon="8.658601">
|
|
<ele>-20.775612</ele>
|
|
<time>2026-07-10T12:12:52.000Z</time>
|
|
</trkpt>
|
|
<trkpt lat="55.009003" lon="8.658593">
|
|
<ele>-20.684648</ele>
|
|
<time>2026-07-10T12:12:53.000Z</time>
|
|
</trkpt>
|
|
<trkpt lat="55.009046" lon="8.658587">
|
|
<ele>-20.595948</ele>
|
|
<time>2026-07-10T12:12:54.000Z</time>
|
|
</trkpt>
|
|
<trkpt lat="55.009093" lon="8.658583">
|
|
<ele>-20.499190</ele>
|
|
<time>2026-07-10T12:12:55.000Z</time>
|
|
</trkpt>
|
|
<trkpt lat="55.009137" lon="8.658581">
|
|
<ele>-20.408686</ele>
|
|
<time>2026-07-10T12:12:56.000Z</time>
|
|
</trkpt>
|
|
<trkpt lat="55.009180" lon="8.658579">
|
|
<ele>-20.320237</ele>
|
|
<time>2026-07-10T12:12:57.000Z</time>
|
|
</trkpt>
|
|
<trkpt lat="55.009226" lon="8.658575">
|
|
<ele>-20.225533</ele>
|
|
<time>2026-07-10T12:12:58.000Z</time>
|
|
</trkpt>
|
|
<trkpt lat="55.009271" lon="8.658569">
|
|
<ele>-20.132733</ele>
|
|
<time>2026-07-10T12:12:59.000Z</time>
|
|
</trkpt>
|
|
<trkpt lat="55.009314" lon="8.658563">
|
|
<ele>-20.044033</ele>
|
|
<time>2026-07-10T12:13:00.000Z</time>
|
|
</trkpt>
|
|
<trkpt lat="55.009358" lon="8.658556">
|
|
<ele>-19.953184</ele>
|
|
<time>2026-07-10T12:13:01.000Z</time>
|
|
</trkpt>
|
|
<trkpt lat="55.009400" lon="8.658551">
|
|
<ele>-19.866622</ele>
|
|
<time>2026-07-10T12:13:02.000Z</time>
|
|
</trkpt>
|
|
<trkpt lat="55.009444" lon="8.658549">
|
|
<ele>-19.776117</ele>
|
|
<time>2026-07-10T12:13:03.000Z</time>
|
|
</trkpt>
|
|
<trkpt lat="55.009489" lon="8.658545">
|
|
<ele>-19.683467</ele>
|
|
<time>2026-07-10T12:13:04.000Z</time>
|
|
</trkpt>
|
|
<trkpt lat="55.009533" lon="8.658540">
|
|
<ele>-19.592802</ele>
|
|
<time>2026-07-10T12:13:05.000Z</time>
|
|
</trkpt>
|
|
<trkpt lat="55.009577" lon="8.658533">
|
|
<ele>-19.501952</ele>
|
|
<time>2026-07-10T12:13:06.000Z</time>
|
|
</trkpt>
|
|
<trkpt lat="55.009622" lon="8.658527">
|
|
<ele>-19.409152</ele>
|
|
<time>2026-07-10T12:13:07.000Z</time>
|
|
</trkpt>
|
|
<trkpt lat="55.009668" lon="8.658522">
|
|
<ele>-19.314383</ele>
|
|
<time>2026-07-10T12:13:08.000Z</time>
|
|
</trkpt>
|
|
<trkpt lat="55.009714" lon="8.658516">
|
|
<ele>-19.219532</ele>
|
|
<time>2026-07-10T12:13:09.000Z</time>
|
|
</trkpt>
|
|
<trkpt lat="55.009760" lon="8.658512">
|
|
<ele>-19.124829</ele>
|
|
<time>2026-07-10T12:13:10.000Z</time>
|
|
</trkpt>
|
|
<trkpt lat="55.009806" lon="8.658508">
|
|
<ele>-19.030125</ele>
|
|
<time>2026-07-10T12:13:11.000Z</time>
|
|
</trkpt>
|
|
<trkpt lat="55.009851" lon="8.658500">
|
|
<ele>-18.937116</ele>
|
|
<time>2026-07-10T12:13:12.000Z</time>
|
|
</trkpt>
|
|
<trkpt lat="55.009898" lon="8.658495">
|
|
<ele>-18.840294</ele>
|
|
<time>2026-07-10T12:13:13.000Z</time>
|
|
</trkpt>
|
|
<trkpt lat="55.009947" lon="8.658490">
|
|
<ele>-18.739367</ele>
|
|
<time>2026-07-10T12:13:14.000Z</time>
|
|
</trkpt>
|
|
<trkpt lat="55.009994" lon="8.658482">
|
|
<ele>-18.642265</ele>
|
|
<time>2026-07-10T12:13:15.000Z</time>
|
|
</trkpt>
|
|
<trkpt lat="55.010043" lon="8.658477">
|
|
<ele>-18.541338</ele>
|
|
<time>2026-07-10T12:13:16.000Z</time>
|
|
</trkpt>
|
|
<trkpt lat="55.010092" lon="8.658470">
|
|
<ele>-18.440246</ele>
|
|
<time>2026-07-10T12:13:17.000Z</time>
|
|
</trkpt>
|
|
<trkpt lat="55.010139" lon="8.658464">
|
|
<ele>-18.343345</ele>
|
|
<time>2026-07-10T12:13:18.000Z</time>
|
|
</trkpt>
|
|
<trkpt lat="55.010188" lon="8.658458">
|
|
<ele>-18.242342</ele>
|
|
<time>2026-07-10T12:13:19.000Z</time>
|
|
</trkpt>
|
|
<trkpt lat="55.010239" lon="8.658451">
|
|
<ele>-18.137150</ele>
|
|
<time>2026-07-10T12:13:20.000Z</time>
|
|
</trkpt>
|
|
<trkpt lat="55.010291" lon="8.658443">
|
|
<ele>-18.084491</ele>
|
|
<time>2026-07-10T12:13:21.000Z</time>
|
|
</trkpt>
|
|
<trkpt lat="55.010341" lon="8.658433">
|
|
<ele>-18.039833</ele>
|
|
<time>2026-07-10T12:13:22.000Z</time>
|
|
</trkpt>
|
|
<trkpt lat="55.010391" lon="8.658419">
|
|
<ele>-17.994896</ele>
|
|
<time>2026-07-10T12:13:23.000Z</time>
|
|
</trkpt>
|
|
<trkpt lat="55.010440" lon="8.658407">
|
|
<ele>-17.950989</ele>
|
|
<time>2026-07-10T12:13:24.000Z</time>
|
|
</trkpt>
|
|
<trkpt lat="55.010491" lon="8.658397">
|
|
<ele>-17.905448</ele>
|
|
<time>2026-07-10T12:13:25.000Z</time>
|
|
</trkpt>
|
|
<trkpt lat="55.010543" lon="8.658390">
|
|
<ele>-17.859168</ele>
|
|
<time>2026-07-10T12:13:26.000Z</time>
|
|
</trkpt>
|
|
<trkpt lat="55.010593" lon="8.658383">
|
|
<ele>-17.814657</ele>
|
|
<time>2026-07-10T12:13:27.000Z</time>
|
|
</trkpt>
|
|
<trkpt lat="55.010642" lon="8.658377">
|
|
<ele>-17.771070</ele>
|
|
<time>2026-07-10T12:13:28.000Z</time>
|
|
</trkpt>
|
|
<trkpt lat="55.010692" lon="8.658369">
|
|
<ele>-17.726515</ele>
|
|
<time>2026-07-10T12:13:29.000Z</time>
|
|
</trkpt>
|
|
<trkpt lat="55.010741" lon="8.658361">
|
|
<ele>-17.682844</ele>
|
|
<time>2026-07-10T12:13:30.000Z</time>
|
|
</trkpt>
|
|
<trkpt lat="55.010792" lon="8.658353">
|
|
<ele>-17.637406</ele>
|
|
<time>2026-07-10T12:13:31.000Z</time>
|
|
</trkpt>
|
|
<trkpt lat="55.010845" lon="8.658344">
|
|
<ele>-17.590154</ele>
|
|
<time>2026-07-10T12:13:32.000Z</time>
|
|
</trkpt>
|
|
<trkpt lat="55.010894" lon="8.658334">
|
|
<ele>-17.546376</ele>
|
|
<time>2026-07-10T12:13:33.000Z</time>
|
|
</trkpt>
|
|
<trkpt lat="55.010944" lon="8.658324">
|
|
<ele>-17.501717</ele>
|
|
<time>2026-07-10T12:13:34.000Z</time>
|
|
</trkpt>
|
|
<trkpt lat="55.010993" lon="8.658314">
|
|
<ele>-17.457940</ele>
|
|
<time>2026-07-10T12:13:35.000Z</time>
|
|
</trkpt>
|
|
<trkpt lat="55.011044" lon="8.658306">
|
|
<ele>-17.412502</ele>
|
|
<time>2026-07-10T12:13:36.000Z</time>
|
|
</trkpt>
|
|
<trkpt lat="55.011098" lon="8.658298">
|
|
<ele>-17.364411</ele>
|
|
<time>2026-07-10T12:13:37.000Z</time>
|
|
</trkpt>
|
|
<trkpt lat="55.011150" lon="8.658289">
|
|
<ele>-17.318042</ele>
|
|
<time>2026-07-10T12:13:38.000Z</time>
|
|
</trkpt>
|
|
<trkpt lat="55.011200" lon="8.658280">
|
|
<ele>-17.273438</ele>
|
|
<time>2026-07-10T12:13:39.000Z</time>
|
|
</trkpt>
|
|
<trkpt lat="55.011253" lon="8.658269">
|
|
<ele>-17.226076</ele>
|
|
<time>2026-07-10T12:13:40.000Z</time>
|
|
</trkpt>
|
|
<trkpt lat="55.011304" lon="8.658258">
|
|
<ele>-17.180476</ele>
|
|
<time>2026-07-10T12:13:41.000Z</time>
|
|
</trkpt>
|
|
<trkpt lat="55.011356" lon="8.658249">
|
|
<ele>-17.134106</ele>
|
|
<time>2026-07-10T12:13:42.000Z</time>
|
|
</trkpt>
|
|
<trkpt lat="55.011405" lon="8.658240">
|
|
<ele>-17.090385</ele>
|
|
<time>2026-07-10T12:13:43.000Z</time>
|
|
</trkpt>
|
|
<trkpt lat="55.011455" lon="8.658229">
|
|
<ele>-17.045665</ele>
|
|
<time>2026-07-10T12:13:44.000Z</time>
|
|
</trkpt>
|
|
<trkpt lat="55.011508" lon="8.658219">
|
|
<ele>-16.998361</ele>
|
|
<time>2026-07-10T12:13:45.000Z</time>
|
|
</trkpt>
|
|
<trkpt lat="55.011559" lon="8.658211">
|
|
<ele>-16.952923</ele>
|
|
<time>2026-07-10T12:13:46.000Z</time>
|
|
</trkpt>
|
|
<trkpt lat="55.011612" lon="8.658200">
|
|
<ele>-16.905561</ele>
|
|
<time>2026-07-10T12:13:47.000Z</time>
|
|
</trkpt>
|
|
<trkpt lat="55.011666" lon="8.658190">
|
|
<ele>-16.857374</ele>
|
|
<time>2026-07-10T12:13:48.000Z</time>
|
|
</trkpt>
|
|
<trkpt lat="55.011718" lon="8.658178">
|
|
<ele>-16.810829</ele>
|
|
<time>2026-07-10T12:13:49.000Z</time>
|
|
</trkpt>
|
|
<trkpt lat="55.011769" lon="8.658165">
|
|
<ele>-16.765092</ele>
|
|
<time>2026-07-10T12:13:50.000Z</time>
|
|
</trkpt>
|
|
<trkpt lat="55.011821" lon="8.658154">
|
|
<ele>-16.718611</ele>
|
|
<time>2026-07-10T12:13:51.000Z</time>
|
|
</trkpt>
|
|
<trkpt lat="55.011872" lon="8.658144">
|
|
<ele>-16.673071</ele>
|
|
<time>2026-07-10T12:13:52.000Z</time>
|
|
</trkpt>
|
|
<trkpt lat="55.011925" lon="8.658136">
|
|
<ele>-16.625865</ele>
|
|
<time>2026-07-10T12:13:53.000Z</time>
|
|
</trkpt>
|
|
<trkpt lat="55.011977" lon="8.658129">
|
|
<ele>-16.579585</ele>
|
|
<time>2026-07-10T12:13:54.000Z</time>
|
|
</trkpt>
|
|
<trkpt lat="55.012028" lon="8.658119">
|
|
<ele>-16.534044</ele>
|
|
<time>2026-07-10T12:13:55.000Z</time>
|
|
</trkpt>
|
|
<trkpt lat="55.012083" lon="8.658109">
|
|
<ele>-16.501493</ele>
|
|
<time>2026-07-10T12:13:56.000Z</time>
|
|
</trkpt>
|
|
<trkpt lat="55.012139" lon="8.658099">
|
|
<ele>-16.469885</ele>
|
|
<time>2026-07-10T12:13:57.000Z</time>
|
|
</trkpt>
|
|
<trkpt lat="55.012191" lon="8.658089">
|
|
<ele>-16.440511</ele>
|
|
<time>2026-07-10T12:13:58.000Z</time>
|
|
</trkpt>
|
|
<trkpt lat="55.012242" lon="8.658080">
|
|
<ele>-16.411729</ele>
|
|
<time>2026-07-10T12:13:59.000Z</time>
|
|
</trkpt>
|
|
<trkpt lat="55.012295" lon="8.658073">
|
|
<ele>-16.381884</ele>
|
|
<time>2026-07-10T12:14:00.000Z</time>
|
|
</trkpt>
|
|
<trkpt lat="55.012349" lon="8.658064">
|
|
<ele>-16.351426</ele>
|
|
<time>2026-07-10T12:14:01.000Z</time>
|
|
</trkpt>
|
|
<trkpt lat="55.012401" lon="8.658054">
|
|
<ele>-16.322051</ele>
|
|
<time>2026-07-10T12:14:02.000Z</time>
|
|
</trkpt>
|
|
<trkpt lat="55.012452" lon="8.658045">
|
|
<ele>-16.293269</ele>
|
|
<time>2026-07-10T12:14:03.000Z</time>
|
|
</trkpt>
|
|
<trkpt lat="55.012504" lon="8.658033">
|
|
<ele>-16.263817</ele>
|
|
<time>2026-07-10T12:14:04.000Z</time>
|
|
</trkpt>
|
|
<trkpt lat="55.012555" lon="8.658023">
|
|
<ele>-16.235000</ele>
|
|
<time>2026-07-10T12:14:05.000Z</time>
|
|
</trkpt>
|
|
<trkpt lat="55.012607" lon="8.658012">
|
|
<ele>-16.205589</ele>
|
|
<time>2026-07-10T12:14:06.000Z</time>
|
|
</trkpt>
|
|
<trkpt lat="55.012658" lon="8.658001">
|
|
<ele>-16.176735</ele>
|
|
<time>2026-07-10T12:14:07.000Z</time>
|
|
</trkpt>
|
|
<trkpt lat="55.012711" lon="8.657990">
|
|
<ele>-16.146766</ele>
|
|
<time>2026-07-10T12:14:08.000Z</time>
|
|
</trkpt>
|
|
<trkpt lat="55.012763" lon="8.657981">
|
|
<ele>-16.117425</ele>
|
|
<time>2026-07-10T12:14:09.000Z</time>
|
|
</trkpt>
|
|
<trkpt lat="55.012814" lon="8.657970">
|
|
<ele>-16.088571</ele>
|
|
<time>2026-07-10T12:14:10.000Z</time>
|
|
</trkpt>
|
|
<trkpt lat="55.012868" lon="8.657959">
|
|
<ele>-16.058044</ele>
|
|
<time>2026-07-10T12:14:11.000Z</time>
|
|
</trkpt>
|
|
<trkpt lat="55.012921" lon="8.657949">
|
|
<ele>-16.028111</ele>
|
|
<time>2026-07-10T12:14:12.000Z</time>
|
|
</trkpt>
|
|
<trkpt lat="55.012973" lon="8.657941">
|
|
<ele>-15.998800</ele>
|
|
<time>2026-07-10T12:14:13.000Z</time>
|
|
</trkpt>
|
|
<trkpt lat="55.013024" lon="8.657930">
|
|
<ele>-15.969946</ele>
|
|
<time>2026-07-10T12:14:14.000Z</time>
|
|
</trkpt>
|
|
<trkpt lat="55.013077" lon="8.657921">
|
|
<ele>-15.940046</ele>
|
|
<time>2026-07-10T12:14:15.000Z</time>
|
|
</trkpt>
|
|
<trkpt lat="55.013130" lon="8.657910">
|
|
<ele>-15.910077</ele>
|
|
<time>2026-07-10T12:14:16.000Z</time>
|
|
</trkpt>
|
|
<trkpt lat="55.013179" lon="8.657901">
|
|
<ele>-15.882412</ele>
|
|
<time>2026-07-10T12:14:17.000Z</time>
|
|
</trkpt>
|
|
<trkpt lat="55.013230" lon="8.657892">
|
|
<ele>-15.853630</ele>
|
|
<time>2026-07-10T12:14:18.000Z</time>
|
|
</trkpt>
|
|
<trkpt lat="55.013282" lon="8.657880">
|
|
<ele>-15.824178</ele>
|
|
<time>2026-07-10T12:14:19.000Z</time>
|
|
</trkpt>
|
|
<trkpt lat="55.013333" lon="8.657868">
|
|
<ele>-15.795282</ele>
|
|
<time>2026-07-10T12:14:20.000Z</time>
|
|
</trkpt>
|
|
<trkpt lat="55.013386" lon="8.657860">
|
|
<ele>-15.765412</ele>
|
|
<time>2026-07-10T12:14:21.000Z</time>
|
|
</trkpt>
|
|
<trkpt lat="55.013440" lon="8.657853">
|
|
<ele>-15.735008</ele>
|
|
<time>2026-07-10T12:14:22.000Z</time>
|
|
</trkpt>
|
|
<trkpt lat="55.013493" lon="8.657847">
|
|
<ele>-15.705186</ele>
|
|
<time>2026-07-10T12:14:23.000Z</time>
|
|
</trkpt>
|
|
<trkpt lat="55.013547" lon="8.657842">
|
|
<ele>-15.674823</ele>
|
|
<time>2026-07-10T12:14:24.000Z</time>
|
|
</trkpt>
|
|
<trkpt lat="55.013600" lon="8.657838">
|
|
<ele>-15.645036</ele>
|
|
<time>2026-07-10T12:14:25.000Z</time>
|
|
</trkpt>
|
|
<trkpt lat="55.013653" lon="8.657837">
|
|
<ele>-15.615275</ele>
|
|
<time>2026-07-10T12:14:26.000Z</time>
|
|
</trkpt>
|
|
<trkpt lat="55.013707" lon="8.657837">
|
|
<ele>-15.584955</ele>
|
|
<time>2026-07-10T12:14:27.000Z</time>
|
|
</trkpt>
|
|
<trkpt lat="55.013760" lon="8.657838">
|
|
<ele>-15.555194</ele>
|
|
<time>2026-07-10T12:14:28.000Z</time>
|
|
</trkpt>
|
|
<trkpt lat="55.013814" lon="8.657841">
|
|
<ele>-15.524858</ele>
|
|
<time>2026-07-10T12:14:29.000Z</time>
|
|
</trkpt>
|
|
<trkpt lat="55.013867" lon="8.657846">
|
|
<ele>-15.532348</ele>
|
|
<time>2026-07-10T12:14:30.000Z</time>
|
|
</trkpt>
|
|
<trkpt lat="55.013920" lon="8.657849">
|
|
<ele>-15.547028</ele>
|
|
<time>2026-07-10T12:14:31.000Z</time>
|
|
</trkpt>
|
|
<trkpt lat="55.013974" lon="8.657851">
|
|
<ele>-15.561980</ele>
|
|
<time>2026-07-10T12:14:32.000Z</time>
|
|
</trkpt>
|
|
<trkpt lat="55.014027" lon="8.657854">
|
|
<ele>-15.576660</ele>
|
|
<time>2026-07-10T12:14:33.000Z</time>
|
|
</trkpt>
|
|
<trkpt lat="55.014080" lon="8.657856">
|
|
<ele>-15.591335</ele>
|
|
<time>2026-07-10T12:14:34.000Z</time>
|
|
</trkpt>
|
|
<trkpt lat="55.014133" lon="8.657858">
|
|
<ele>-15.606010</ele>
|
|
<time>2026-07-10T12:14:35.000Z</time>
|
|
</trkpt>
|
|
<trkpt lat="55.014187" lon="8.657862">
|
|
<ele>-15.620973</ele>
|
|
<time>2026-07-10T12:14:36.000Z</time>
|
|
</trkpt>
|
|
<trkpt lat="55.014241" lon="8.657868">
|
|
<ele>-15.635952</ele>
|
|
<time>2026-07-10T12:14:37.000Z</time>
|
|
</trkpt>
|
|
<trkpt lat="55.014294" lon="8.657873">
|
|
<ele>-15.650645</ele>
|
|
<time>2026-07-10T12:14:38.000Z</time>
|
|
</trkpt>
|
|
<trkpt lat="55.014347" lon="8.657879">
|
|
<ele>-15.665348</ele>
|
|
<time>2026-07-10T12:14:39.000Z</time>
|
|
</trkpt>
|
|
<trkpt lat="55.014400" lon="8.657886">
|
|
<ele>-15.680062</ele>
|
|
<time>2026-07-10T12:14:40.000Z</time>
|
|
</trkpt>
|
|
<trkpt lat="55.014452" lon="8.657893">
|
|
<ele>-15.694500</ele>
|
|
<time>2026-07-10T12:14:41.000Z</time>
|
|
</trkpt>
|
|
<trkpt lat="55.014508" lon="8.657897">
|
|
<ele>-15.710015</ele>
|
|
<time>2026-07-10T12:14:42.000Z</time>
|
|
</trkpt>
|
|
<trkpt lat="55.014562" lon="8.657899">
|
|
<ele>-15.724967</ele>
|
|
<time>2026-07-10T12:14:43.000Z</time>
|
|
</trkpt>
|
|
<trkpt lat="55.014615" lon="8.657900">
|
|
<ele>-15.739640</ele>
|
|
<time>2026-07-10T12:14:44.000Z</time>
|
|
</trkpt>
|
|
<trkpt lat="55.014668" lon="8.657902">
|
|
<ele>-15.754315</ele>
|
|
<time>2026-07-10T12:14:45.000Z</time>
|
|
</trkpt>
|
|
<trkpt lat="55.014721" lon="8.657905">
|
|
<ele>-15.768995</ele>
|
|
<time>2026-07-10T12:14:46.000Z</time>
|
|
</trkpt>
|
|
<trkpt lat="55.014775" lon="8.657910">
|
|
<ele>-15.783965</ele>
|
|
<time>2026-07-10T12:14:47.000Z</time>
|
|
</trkpt>
|
|
<trkpt lat="55.014829" lon="8.657915">
|
|
<ele>-15.798935</ele>
|
|
<time>2026-07-10T12:14:48.000Z</time>
|
|
</trkpt>
|
|
<trkpt lat="55.014885" lon="8.657921">
|
|
<ele>-15.814466</ele>
|
|
<time>2026-07-10T12:14:49.000Z</time>
|
|
</trkpt>
|
|
<trkpt lat="55.014939" lon="8.657925">
|
|
<ele>-15.829428</ele>
|
|
<time>2026-07-10T12:14:50.000Z</time>
|
|
</trkpt>
|
|
<trkpt lat="55.014992" lon="8.657928">
|
|
<ele>-15.844108</ele>
|
|
<time>2026-07-10T12:14:51.000Z</time>
|
|
</trkpt>
|
|
<trkpt lat="55.015047" lon="8.657933">
|
|
<ele>-15.859354</ele>
|
|
<time>2026-07-10T12:14:52.000Z</time>
|
|
</trkpt>
|
|
<trkpt lat="55.015103" lon="8.657940">
|
|
<ele>-15.874896</ele>
|
|
<time>2026-07-10T12:14:53.000Z</time>
|
|
</trkpt>
|
|
<trkpt lat="55.015157" lon="8.657950">
|
|
<ele>-15.889929</ele>
|
|
<time>2026-07-10T12:14:54.000Z</time>
|
|
</trkpt>
|
|
<trkpt lat="55.015214" lon="8.657961">
|
|
<ele>-15.905805</ele>
|
|
<time>2026-07-10T12:14:55.000Z</time>
|
|
</trkpt>
|
|
<trkpt lat="55.015268" lon="8.657971">
|
|
<ele>-15.920837</ele>
|
|
<time>2026-07-10T12:14:56.000Z</time>
|
|
</trkpt>
|
|
<trkpt lat="55.015325" lon="8.657976">
|
|
<ele>-15.936637</ele>
|
|
<time>2026-07-10T12:14:57.000Z</time>
|
|
</trkpt>
|
|
<trkpt lat="55.015381" lon="8.657979">
|
|
<ele>-15.952146</ele>
|
|
<time>2026-07-10T12:14:58.000Z</time>
|
|
</trkpt>
|
|
<trkpt lat="55.015436" lon="8.657983">
|
|
<ele>-15.967385</ele>
|
|
<time>2026-07-10T12:14:59.000Z</time>
|
|
</trkpt>
|
|
<trkpt lat="55.015493" lon="8.657989">
|
|
<ele>-15.983193</ele>
|
|
<time>2026-07-10T12:15:00.000Z</time>
|
|
</trkpt>
|
|
<trkpt lat="55.015549" lon="8.657999">
|
|
<ele>-15.998777</ele>
|
|
<time>2026-07-10T12:15:01.000Z</time>
|
|
</trkpt>
|
|
<trkpt lat="55.015605" lon="8.658009">
|
|
<ele>-16.014360</ele>
|
|
<time>2026-07-10T12:15:02.000Z</time>
|
|
</trkpt>
|
|
<trkpt lat="55.015665" lon="8.658014">
|
|
<ele>-16.053740</ele>
|
|
<time>2026-07-10T12:15:03.000Z</time>
|
|
</trkpt>
|
|
<trkpt lat="55.015722" lon="8.658018">
|
|
<ele>-16.097086</ele>
|
|
<time>2026-07-10T12:15:04.000Z</time>
|
|
</trkpt>
|
|
<trkpt lat="55.015781" lon="8.658024">
|
|
<ele>-16.141993</ele>
|
|
<time>2026-07-10T12:15:05.000Z</time>
|
|
</trkpt>
|
|
<trkpt lat="55.015841" lon="8.658031">
|
|
<ele>-16.187686</ele>
|
|
<time>2026-07-10T12:15:06.000Z</time>
|
|
</trkpt>
|
|
<trkpt lat="55.015899" lon="8.658036">
|
|
<ele>-16.231811</ele>
|
|
<time>2026-07-10T12:15:07.000Z</time>
|
|
</trkpt>
|
|
<trkpt lat="55.015959" lon="8.658039">
|
|
<ele>-16.277420</ele>
|
|
<time>2026-07-10T12:15:08.000Z</time>
|
|
</trkpt>
|
|
<trkpt lat="55.016016" lon="8.658041">
|
|
<ele>-16.320740</ele>
|
|
<time>2026-07-10T12:15:09.000Z</time>
|
|
</trkpt>
|
|
<trkpt lat="55.016073" lon="8.658044">
|
|
<ele>-16.364071</ele>
|
|
<time>2026-07-10T12:15:10.000Z</time>
|
|
</trkpt>
|
|
<trkpt lat="55.016131" lon="8.658049">
|
|
<ele>-16.408196</ele>
|
|
<time>2026-07-10T12:15:11.000Z</time>
|
|
</trkpt>
|
|
<trkpt lat="55.016191" lon="8.658055">
|
|
<ele>-16.453862</ele>
|
|
<time>2026-07-10T12:15:12.000Z</time>
|
|
</trkpt>
|
|
<trkpt lat="55.016249" lon="8.658062">
|
|
<ele>-16.498038</ele>
|
|
<time>2026-07-10T12:15:13.000Z</time>
|
|
</trkpt>
|
|
<trkpt lat="55.016309" lon="8.658069">
|
|
<ele>-16.543731</ele>
|
|
<time>2026-07-10T12:15:14.000Z</time>
|
|
</trkpt>
|
|
<trkpt lat="55.016368" lon="8.658075">
|
|
<ele>-16.588638</ele>
|
|
<time>2026-07-10T12:15:15.000Z</time>
|
|
</trkpt>
|
|
<trkpt lat="55.016429" lon="8.658080">
|
|
<ele>-16.635039</ele>
|
|
<time>2026-07-10T12:15:16.000Z</time>
|
|
</trkpt>
|
|
<trkpt lat="55.016489" lon="8.658085">
|
|
<ele>-16.680682</ele>
|
|
<time>2026-07-10T12:15:17.000Z</time>
|
|
</trkpt>
|
|
<trkpt lat="55.016546" lon="8.658089">
|
|
<ele>-16.724028</ele>
|
|
<time>2026-07-10T12:15:18.000Z</time>
|
|
</trkpt>
|
|
<trkpt lat="55.016607" lon="8.658091">
|
|
<ele>-16.770387</ele>
|
|
<time>2026-07-10T12:15:19.000Z</time>
|
|
</trkpt>
|
|
<trkpt lat="55.016665" lon="8.658097">
|
|
<ele>-16.814536</ele>
|
|
<time>2026-07-10T12:15:20.000Z</time>
|
|
</trkpt>
|
|
<trkpt lat="55.016725" lon="8.658101">
|
|
<ele>-16.860160</ele>
|
|
<time>2026-07-10T12:15:21.000Z</time>
|
|
</trkpt>
|
|
<trkpt lat="55.016782" lon="8.658105">
|
|
<ele>-16.903506</ele>
|
|
<time>2026-07-10T12:15:22.000Z</time>
|
|
</trkpt>
|
|
<trkpt lat="55.016839" lon="8.658110">
|
|
<ele>-16.946872</ele>
|
|
<time>2026-07-10T12:15:23.000Z</time>
|
|
</trkpt>
|
|
<trkpt lat="55.016898" lon="8.658114">
|
|
<ele>-16.991737</ele>
|
|
<time>2026-07-10T12:15:24.000Z</time>
|
|
</trkpt>
|
|
<trkpt lat="55.016958" lon="8.658116">
|
|
<ele>-17.037336</ele>
|
|
<time>2026-07-10T12:15:25.000Z</time>
|
|
</trkpt>
|
|
<trkpt lat="55.017015" lon="8.658117">
|
|
<ele>-17.080649</ele>
|
|
<time>2026-07-10T12:15:26.000Z</time>
|
|
</trkpt>
|
|
<trkpt lat="55.017072" lon="8.658118">
|
|
<ele>-17.123963</ele>
|
|
<time>2026-07-10T12:15:27.000Z</time>
|
|
</trkpt>
|
|
<trkpt lat="55.017126" lon="8.658115">
|
|
<ele>-17.165015</ele>
|
|
<time>2026-07-10T12:15:28.000Z</time>
|
|
</trkpt>
|
|
<trkpt lat="55.017183" lon="8.658112">
|
|
<ele>-17.208346</ele>
|
|
<time>2026-07-10T12:15:29.000Z</time>
|
|
</trkpt>
|
|
<trkpt lat="55.017240" lon="8.658104">
|
|
<ele>-17.251797</ele>
|
|
<time>2026-07-10T12:15:30.000Z</time>
|
|
</trkpt>
|
|
<trkpt lat="55.017297" lon="8.658093">
|
|
<ele>-17.295373</ele>
|
|
<time>2026-07-10T12:15:31.000Z</time>
|
|
</trkpt>
|
|
<trkpt lat="55.017355" lon="8.658082">
|
|
<ele>-17.339704</ele>
|
|
<time>2026-07-10T12:15:32.000Z</time>
|
|
</trkpt>
|
|
<trkpt lat="55.017412" lon="8.658073">
|
|
<ele>-17.383192</ele>
|
|
<time>2026-07-10T12:15:33.000Z</time>
|
|
</trkpt>
|
|
<trkpt lat="55.017469" lon="8.658063">
|
|
<ele>-17.403510</ele>
|
|
<time>2026-07-10T12:15:34.000Z</time>
|
|
</trkpt>
|
|
<trkpt lat="55.017525" lon="8.658052">
|
|
<ele>-17.422710</ele>
|
|
<time>2026-07-10T12:15:35.000Z</time>
|
|
</trkpt>
|
|
<trkpt lat="55.017580" lon="8.658039">
|
|
<ele>-17.441620</ele>
|
|
<time>2026-07-10T12:15:36.000Z</time>
|
|
</trkpt>
|
|
<trkpt lat="55.017636" lon="8.658025">
|
|
<ele>-17.460895</ele>
|
|
<time>2026-07-10T12:15:37.000Z</time>
|
|
</trkpt>
|
|
<trkpt lat="55.017689" lon="8.658011">
|
|
<ele>-17.479158</ele>
|
|
<time>2026-07-10T12:15:38.000Z</time>
|
|
</trkpt>
|
|
<trkpt lat="55.017744" lon="8.657998">
|
|
<ele>-17.498068</ele>
|
|
<time>2026-07-10T12:15:39.000Z</time>
|
|
</trkpt>
|
|
<trkpt lat="55.017800" lon="8.657984">
|
|
<ele>-17.517343</ele>
|
|
<time>2026-07-10T12:15:40.000Z</time>
|
|
</trkpt>
|
|
<trkpt lat="55.017853" lon="8.657967">
|
|
<ele>-17.535703</ele>
|
|
<time>2026-07-10T12:15:41.000Z</time>
|
|
</trkpt>
|
|
<trkpt lat="55.017907" lon="8.657953">
|
|
<ele>-17.554304</ele>
|
|
<time>2026-07-10T12:15:42.000Z</time>
|
|
</trkpt>
|
|
<trkpt lat="55.017961" lon="8.657937">
|
|
<ele>-17.572966</ele>
|
|
<time>2026-07-10T12:15:43.000Z</time>
|
|
</trkpt>
|
|
<trkpt lat="55.018017" lon="8.657922">
|
|
<ele>-17.592269</ele>
|
|
<time>2026-07-10T12:15:44.000Z</time>
|
|
</trkpt>
|
|
<trkpt lat="55.018070" lon="8.657906">
|
|
<ele>-17.610595</ele>
|
|
<time>2026-07-10T12:15:45.000Z</time>
|
|
</trkpt>
|
|
<trkpt lat="55.018124" lon="8.657891">
|
|
<ele>-17.629225</ele>
|
|
<time>2026-07-10T12:15:46.000Z</time>
|
|
</trkpt>
|
|
<trkpt lat="55.018177" lon="8.657875">
|
|
<ele>-17.647551</ele>
|
|
<time>2026-07-10T12:15:47.000Z</time>
|
|
</trkpt>
|
|
<trkpt lat="55.018230" lon="8.657860">
|
|
<ele>-17.665845</ele>
|
|
<time>2026-07-10T12:15:48.000Z</time>
|
|
</trkpt>
|
|
<trkpt lat="55.018280" lon="8.657846">
|
|
<ele>-17.683098</ele>
|
|
<time>2026-07-10T12:15:49.000Z</time>
|
|
</trkpt>
|
|
<trkpt lat="55.018333" lon="8.657831">
|
|
<ele>-17.701392</ele>
|
|
<time>2026-07-10T12:15:50.000Z</time>
|
|
</trkpt>
|
|
<trkpt lat="55.018383" lon="8.657818">
|
|
<ele>-17.718615</ele>
|
|
<time>2026-07-10T12:15:51.000Z</time>
|
|
</trkpt>
|
|
<trkpt lat="55.018432" lon="8.657804">
|
|
<ele>-17.735533</ele>
|
|
<time>2026-07-10T12:15:52.000Z</time>
|
|
</trkpt>
|
|
<trkpt lat="55.018482" lon="8.657788">
|
|
<ele>-17.752852</ele>
|
|
<time>2026-07-10T12:15:53.000Z</time>
|
|
</trkpt>
|
|
<trkpt lat="55.018531" lon="8.657770">
|
|
<ele>-17.769913</ele>
|
|
<time>2026-07-10T12:15:54.000Z</time>
|
|
</trkpt>
|
|
<trkpt lat="55.018580" lon="8.657755">
|
|
<ele>-17.786863</ele>
|
|
<time>2026-07-10T12:15:55.000Z</time>
|
|
</trkpt>
|
|
<trkpt lat="55.018626" lon="8.657738">
|
|
<ele>-17.802883</ele>
|
|
<time>2026-07-10T12:15:56.000Z</time>
|
|
</trkpt>
|
|
<trkpt lat="55.018674" lon="8.657720">
|
|
<ele>-17.819611</ele>
|
|
<time>2026-07-10T12:15:57.000Z</time>
|
|
</trkpt>
|
|
<trkpt lat="55.018721" lon="8.657700">
|
|
<ele>-17.836094</ele>
|
|
<time>2026-07-10T12:15:58.000Z</time>
|
|
</trkpt>
|
|
<trkpt lat="55.018772" lon="8.657679">
|
|
<ele>-17.853948</ele>
|
|
<time>2026-07-10T12:15:59.000Z</time>
|
|
</trkpt>
|
|
<trkpt lat="55.018820" lon="8.657660">
|
|
<ele>-17.870718</ele>
|
|
<time>2026-07-10T12:16:00.000Z</time>
|
|
</trkpt>
|
|
<trkpt lat="55.018867" lon="8.657642">
|
|
<ele>-17.887112</ele>
|
|
<time>2026-07-10T12:16:01.000Z</time>
|
|
</trkpt>
|
|
<trkpt lat="55.018915" lon="8.657625">
|
|
<ele>-17.903800</ele>
|
|
<time>2026-07-10T12:16:02.000Z</time>
|
|
</trkpt>
|
|
<trkpt lat="55.018961" lon="8.657608">
|
|
<ele>-17.919820</ele>
|
|
<time>2026-07-10T12:16:03.000Z</time>
|
|
</trkpt>
|
|
<trkpt lat="55.019007" lon="8.657589">
|
|
<ele>-17.935926</ele>
|
|
<time>2026-07-10T12:16:04.000Z</time>
|
|
</trkpt>
|
|
<trkpt lat="55.019053" lon="8.657569">
|
|
<ele>-17.952078</ele>
|
|
<time>2026-07-10T12:16:05.000Z</time>
|
|
</trkpt>
|
|
<trkpt lat="55.019097" lon="8.657550">
|
|
<ele>-17.967522</ele>
|
|
<time>2026-07-10T12:16:06.000Z</time>
|
|
</trkpt>
|
|
<trkpt lat="55.019139" lon="8.657534">
|
|
<ele>-17.982169</ele>
|
|
<time>2026-07-10T12:16:07.000Z</time>
|
|
</trkpt>
|
|
<trkpt lat="55.019180" lon="8.657519">
|
|
<ele>-17.996442</ele>
|
|
<time>2026-07-10T12:16:08.000Z</time>
|
|
</trkpt>
|
|
<trkpt lat="55.019218" lon="8.657503">
|
|
<ele>-17.982252</ele>
|
|
<time>2026-07-10T12:16:09.000Z</time>
|
|
</trkpt>
|
|
<trkpt lat="55.019254" lon="8.657484">
|
|
<ele>-17.966426</ele>
|
|
<time>2026-07-10T12:16:10.000Z</time>
|
|
</trkpt>
|
|
<trkpt lat="55.019283" lon="8.657461">
|
|
<ele>-17.953021</ele>
|
|
<time>2026-07-10T12:16:11.000Z</time>
|
|
</trkpt>
|
|
<trkpt lat="55.019309" lon="8.657436">
|
|
<ele>-17.940528</ele>
|
|
<time>2026-07-10T12:16:12.000Z</time>
|
|
</trkpt>
|
|
<trkpt lat="55.019332" lon="8.657411">
|
|
<ele>-17.929124</ele>
|
|
<time>2026-07-10T12:16:13.000Z</time>
|
|
</trkpt>
|
|
<trkpt lat="55.019353" lon="8.657388">
|
|
<ele>-17.918690</ele>
|
|
<time>2026-07-10T12:16:14.000Z</time>
|
|
</trkpt>
|
|
<trkpt lat="55.019369" lon="8.657371">
|
|
<ele>-17.910807</ele>
|
|
<time>2026-07-10T12:16:15.000Z</time>
|
|
</trkpt>
|
|
<trkpt lat="55.019386" lon="8.657360">
|
|
<ele>-17.903177</ele>
|
|
<time>2026-07-10T12:16:16.000Z</time>
|
|
</trkpt>
|
|
<trkpt lat="55.019396" lon="8.657355">
|
|
<ele>-17.898800</ele>
|
|
<time>2026-07-10T12:16:17.000Z</time>
|
|
</trkpt>
|
|
<trkpt lat="55.019432" lon="8.657328">
|
|
<ele>-17.882311</ele>
|
|
<time>2026-07-10T12:18:06.000Z</time>
|
|
</trkpt>
|
|
<trkpt lat="55.019445" lon="8.657316">
|
|
<ele>-17.876121</ele>
|
|
<time>2026-07-10T12:18:07.000Z</time>
|
|
</trkpt>
|
|
<trkpt lat="55.019462" lon="8.657300">
|
|
<ele>-17.867993</ele>
|
|
<time>2026-07-10T12:18:08.000Z</time>
|
|
</trkpt>
|
|
<trkpt lat="55.019485" lon="8.657286">
|
|
<ele>-17.857743</ele>
|
|
<time>2026-07-10T12:18:09.000Z</time>
|
|
</trkpt>
|
|
<trkpt lat="55.019512" lon="8.657271">
|
|
<ele>-17.845819</ele>
|
|
<time>2026-07-10T12:18:10.000Z</time>
|
|
</trkpt>
|
|
<trkpt lat="55.019540" lon="8.657251">
|
|
<ele>-17.833087</ele>
|
|
<time>2026-07-10T12:18:11.000Z</time>
|
|
</trkpt>
|
|
<trkpt lat="55.019570" lon="8.657227">
|
|
<ele>-17.819199</ele>
|
|
<time>2026-07-10T12:18:12.000Z</time>
|
|
</trkpt>
|
|
<trkpt lat="55.019597" lon="8.657199">
|
|
<ele>-17.805982</ele>
|
|
<time>2026-07-10T12:18:13.000Z</time>
|
|
</trkpt>
|
|
<trkpt lat="55.019627" lon="8.657175">
|
|
<ele>-17.792094</ele>
|
|
<time>2026-07-10T12:18:14.000Z</time>
|
|
</trkpt>
|
|
<trkpt lat="55.019659" lon="8.657157">
|
|
<ele>-17.777946</ele>
|
|
<time>2026-07-10T12:18:15.000Z</time>
|
|
</trkpt>
|
|
<trkpt lat="55.019688" lon="8.657140">
|
|
<ele>-17.765072</ele>
|
|
<time>2026-07-10T12:18:16.000Z</time>
|
|
</trkpt>
|
|
<trkpt lat="55.019717" lon="8.657124">
|
|
<ele>-17.752273</ele>
|
|
<time>2026-07-10T12:18:17.000Z</time>
|
|
</trkpt>
|
|
<trkpt lat="55.019751" lon="8.657112">
|
|
<ele>-17.737677</ele>
|
|
<time>2026-07-10T12:18:18.000Z</time>
|
|
</trkpt>
|
|
<trkpt lat="55.019784" lon="8.657101">
|
|
<ele>-17.723539</ele>
|
|
<time>2026-07-10T12:18:19.000Z</time>
|
|
</trkpt>
|
|
<trkpt lat="55.019815" lon="8.657094">
|
|
<ele>-17.710386</ele>
|
|
<time>2026-07-10T12:18:20.000Z</time>
|
|
</trkpt>
|
|
<trkpt lat="55.019844" lon="8.657089">
|
|
<ele>-17.698124</ele>
|
|
<time>2026-07-10T12:18:21.000Z</time>
|
|
</trkpt>
|
|
<trkpt lat="55.019871" lon="8.657085">
|
|
<ele>-17.686721</ele>
|
|
<time>2026-07-10T12:18:22.000Z</time>
|
|
</trkpt>
|
|
<trkpt lat="55.019895" lon="8.657082">
|
|
<ele>-17.676596</ele>
|
|
<time>2026-07-10T12:18:23.000Z</time>
|
|
</trkpt>
|
|
<trkpt lat="55.019916" lon="8.657076">
|
|
<ele>-17.667642</ele>
|
|
<time>2026-07-10T12:18:24.000Z</time>
|
|
</trkpt>
|
|
<trkpt lat="55.019938" lon="8.657070">
|
|
<ele>-17.658272</ele>
|
|
<time>2026-07-10T12:18:25.000Z</time>
|
|
</trkpt>
|
|
<trkpt lat="55.019956" lon="8.657058">
|
|
<ele>-17.650164</ele>
|
|
<time>2026-07-10T12:18:26.000Z</time>
|
|
</trkpt>
|
|
<trkpt lat="55.019976" lon="8.657039">
|
|
<ele>-17.640581</ele>
|
|
<time>2026-07-10T12:18:27.000Z</time>
|
|
</trkpt>
|
|
<trkpt lat="55.019999" lon="8.657017">
|
|
<ele>-17.629543</ele>
|
|
<time>2026-07-10T12:18:28.000Z</time>
|
|
</trkpt>
|
|
<trkpt lat="55.020022" lon="8.657001">
|
|
<ele>-17.619124</ele>
|
|
<time>2026-07-10T12:18:29.000Z</time>
|
|
</trkpt>
|
|
<trkpt lat="55.020047" lon="8.656984">
|
|
<ele>-17.607833</ele>
|
|
<time>2026-07-10T12:18:30.000Z</time>
|
|
</trkpt>
|
|
<trkpt lat="55.020078" lon="8.656972">
|
|
<ele>-17.594471</ele>
|
|
<time>2026-07-10T12:18:31.000Z</time>
|
|
</trkpt>
|
|
<trkpt lat="55.020109" lon="8.656963">
|
|
<ele>-17.581247</ele>
|
|
<time>2026-07-10T12:18:32.000Z</time>
|
|
</trkpt>
|
|
<trkpt lat="55.020141" lon="8.656955">
|
|
<ele>-17.567644</ele>
|
|
<time>2026-07-10T12:18:33.000Z</time>
|
|
</trkpt>
|
|
<trkpt lat="55.020179" lon="8.656951">
|
|
<ele>-17.551625</ele>
|
|
<time>2026-07-10T12:18:34.000Z</time>
|
|
</trkpt>
|
|
<trkpt lat="55.020213" lon="8.656950">
|
|
<ele>-17.537316</ele>
|
|
<time>2026-07-10T12:18:35.000Z</time>
|
|
</trkpt>
|
|
<trkpt lat="55.020248" lon="8.656951">
|
|
<ele>-17.522587</ele>
|
|
<time>2026-07-10T12:18:36.000Z</time>
|
|
</trkpt>
|
|
<trkpt lat="55.020287" lon="8.656952">
|
|
<ele>-17.506174</ele>
|
|
<time>2026-07-10T12:18:37.000Z</time>
|
|
</trkpt>
|
|
<trkpt lat="55.020323" lon="8.656952">
|
|
<ele>-17.491026</ele>
|
|
<time>2026-07-10T12:18:38.000Z</time>
|
|
</trkpt>
|
|
<trkpt lat="55.020357" lon="8.656953">
|
|
<ele>-17.476717</ele>
|
|
<time>2026-07-10T12:18:39.000Z</time>
|
|
</trkpt>
|
|
<trkpt lat="55.020393" lon="8.656958">
|
|
<ele>-17.461521</ele>
|
|
<time>2026-07-10T12:18:40.000Z</time>
|
|
</trkpt>
|
|
<trkpt lat="55.020432" lon="8.656963">
|
|
<ele>-17.445065</ele>
|
|
<time>2026-07-10T12:18:41.000Z</time>
|
|
</trkpt>
|
|
<trkpt lat="55.020472" lon="8.656967">
|
|
<ele>-17.428206</ele>
|
|
<time>2026-07-10T12:18:42.000Z</time>
|
|
</trkpt>
|
|
<trkpt lat="55.020511" lon="8.656973">
|
|
<ele>-17.411732</ele>
|
|
<time>2026-07-10T12:18:43.000Z</time>
|
|
</trkpt>
|
|
<trkpt lat="55.020549" lon="8.656984">
|
|
<ele>-17.395523</ele>
|
|
<time>2026-07-10T12:18:44.000Z</time>
|
|
</trkpt>
|
|
<trkpt lat="55.020590" lon="8.656998">
|
|
<ele>-17.377943</ele>
|
|
<time>2026-07-10T12:18:45.000Z</time>
|
|
</trkpt>
|
|
<trkpt lat="55.020636" lon="8.657008">
|
|
<ele>-17.358437</ele>
|
|
<time>2026-07-10T12:18:46.000Z</time>
|
|
</trkpt>
|
|
<trkpt lat="55.020680" lon="8.657017">
|
|
<ele>-17.339796</ele>
|
|
<time>2026-07-10T12:18:47.000Z</time>
|
|
</trkpt>
|
|
<trkpt lat="55.020723" lon="8.657031">
|
|
<ele>-17.321389</ele>
|
|
<time>2026-07-10T12:18:48.000Z</time>
|
|
</trkpt>
|
|
<trkpt lat="55.020767" lon="8.657045">
|
|
<ele>-17.302569</ele>
|
|
<time>2026-07-10T12:18:49.000Z</time>
|
|
</trkpt>
|
|
<trkpt lat="55.020807" lon="8.657059">
|
|
<ele>-17.285402</ele>
|
|
<time>2026-07-10T12:18:50.000Z</time>
|
|
</trkpt>
|
|
<trkpt lat="55.020850" lon="8.657078">
|
|
<ele>-17.266737</ele>
|
|
<time>2026-07-10T12:18:51.000Z</time>
|
|
</trkpt>
|
|
<trkpt lat="55.020899" lon="8.657094">
|
|
<ele>-17.245760</ele>
|
|
<time>2026-07-10T12:18:52.000Z</time>
|
|
</trkpt>
|
|
<trkpt lat="55.020945" lon="8.657108">
|
|
<ele>-17.244465</ele>
|
|
<time>2026-07-10T12:18:53.000Z</time>
|
|
</trkpt>
|
|
<trkpt lat="55.020990" lon="8.657123">
|
|
<ele>-17.249603</ele>
|
|
<time>2026-07-10T12:18:54.000Z</time>
|
|
</trkpt>
|
|
<trkpt lat="55.021036" lon="8.657141">
|
|
<ele>-17.254889</ele>
|
|
<time>2026-07-10T12:18:55.000Z</time>
|
|
</trkpt>
|
|
<trkpt lat="55.021081" lon="8.657159">
|
|
<ele>-17.260066</ele>
|
|
<time>2026-07-10T12:18:56.000Z</time>
|
|
</trkpt>
|
|
<trkpt lat="55.021124" lon="8.657175">
|
|
<ele>-17.264996</ele>
|
|
<time>2026-07-10T12:18:57.000Z</time>
|
|
</trkpt>
|
|
<trkpt lat="55.021169" lon="8.657191">
|
|
<ele>-17.270146</ele>
|
|
<time>2026-07-10T12:18:58.000Z</time>
|
|
</trkpt>
|
|
<trkpt lat="55.021214" lon="8.657208">
|
|
<ele>-17.275309</ele>
|
|
<time>2026-07-10T12:18:59.000Z</time>
|
|
</trkpt>
|
|
<trkpt lat="55.021260" lon="8.657224">
|
|
<ele>-17.280568</ele>
|
|
<time>2026-07-10T12:19:00.000Z</time>
|
|
</trkpt>
|
|
<trkpt lat="55.021308" lon="8.657242">
|
|
<ele>-17.286073</ele>
|
|
<time>2026-07-10T12:19:01.000Z</time>
|
|
</trkpt>
|
|
<trkpt lat="55.021356" lon="8.657259">
|
|
<ele>-17.291566</ele>
|
|
<time>2026-07-10T12:19:02.000Z</time>
|
|
</trkpt>
|
|
<trkpt lat="55.021402" lon="8.657279">
|
|
<ele>-17.296881</ele>
|
|
<time>2026-07-10T12:19:03.000Z</time>
|
|
</trkpt>
|
|
<trkpt lat="55.021447" lon="8.657298">
|
|
<ele>-17.302073</ele>
|
|
<time>2026-07-10T12:19:04.000Z</time>
|
|
</trkpt>
|
|
<trkpt lat="55.021490" lon="8.657313">
|
|
<ele>-17.306990</ele>
|
|
<time>2026-07-10T12:19:05.000Z</time>
|
|
</trkpt>
|
|
<trkpt lat="55.021535" lon="8.657327">
|
|
<ele>-17.312116</ele>
|
|
<time>2026-07-10T12:19:06.000Z</time>
|
|
</trkpt>
|
|
<trkpt lat="55.021581" lon="8.657342">
|
|
<ele>-17.317363</ele>
|
|
<time>2026-07-10T12:19:07.000Z</time>
|
|
</trkpt>
|
|
<trkpt lat="55.021629" lon="8.657358">
|
|
<ele>-17.322843</ele>
|
|
<time>2026-07-10T12:19:08.000Z</time>
|
|
</trkpt>
|
|
<trkpt lat="55.021672" lon="8.657377">
|
|
<ele>-17.327817</ele>
|
|
<time>2026-07-10T12:19:09.000Z</time>
|
|
</trkpt>
|
|
<trkpt lat="55.021718" lon="8.657399">
|
|
<ele>-17.333165</ele>
|
|
<time>2026-07-10T12:19:10.000Z</time>
|
|
</trkpt>
|
|
<trkpt lat="55.021769" lon="8.657420">
|
|
<ele>-17.339041</ele>
|
|
<time>2026-07-10T12:19:11.000Z</time>
|
|
</trkpt>
|
|
<trkpt lat="55.021822" lon="8.657439">
|
|
<ele>-17.345108</ele>
|
|
<time>2026-07-10T12:19:12.000Z</time>
|
|
</trkpt>
|
|
<trkpt lat="55.021872" lon="8.657458">
|
|
<ele>-17.350846</ele>
|
|
<time>2026-07-10T12:19:13.000Z</time>
|
|
</trkpt>
|
|
<trkpt lat="55.021922" lon="8.657473">
|
|
<ele>-17.356535</ele>
|
|
<time>2026-07-10T12:19:14.000Z</time>
|
|
</trkpt>
|
|
<trkpt lat="55.021971" lon="8.657488">
|
|
<ele>-17.362113</ele>
|
|
<time>2026-07-10T12:19:15.000Z</time>
|
|
</trkpt>
|
|
<trkpt lat="55.022021" lon="8.657505">
|
|
<ele>-17.367826</ele>
|
|
<time>2026-07-10T12:19:16.000Z</time>
|
|
</trkpt>
|
|
<trkpt lat="55.022070" lon="8.657522">
|
|
<ele>-17.373428</ele>
|
|
<time>2026-07-10T12:19:17.000Z</time>
|
|
</trkpt>
|
|
<trkpt lat="55.022119" lon="8.657542">
|
|
<ele>-17.379070</ele>
|
|
<time>2026-07-10T12:19:18.000Z</time>
|
|
</trkpt>
|
|
<trkpt lat="55.022165" lon="8.657560">
|
|
<ele>-17.384357</ele>
|
|
<time>2026-07-10T12:19:19.000Z</time>
|
|
</trkpt>
|
|
<trkpt lat="55.022215" lon="8.657578">
|
|
<ele>-17.390081</ele>
|
|
<time>2026-07-10T12:19:20.000Z</time>
|
|
</trkpt>
|
|
<trkpt lat="55.022265" lon="8.657595">
|
|
<ele>-17.395793</ele>
|
|
<time>2026-07-10T12:19:21.000Z</time>
|
|
</trkpt>
|
|
<trkpt lat="55.022315" lon="8.657613">
|
|
<ele>-17.401518</ele>
|
|
<time>2026-07-10T12:19:22.000Z</time>
|
|
</trkpt>
|
|
<trkpt lat="55.022364" lon="8.657631">
|
|
<ele>-17.407133</ele>
|
|
<time>2026-07-10T12:19:23.000Z</time>
|
|
</trkpt>
|
|
<trkpt lat="55.022413" lon="8.657648">
|
|
<ele>-17.412735</ele>
|
|
<time>2026-07-10T12:19:24.000Z</time>
|
|
</trkpt>
|
|
<trkpt lat="55.022464" lon="8.657664">
|
|
<ele>-17.418546</ele>
|
|
<time>2026-07-10T12:19:25.000Z</time>
|
|
</trkpt>
|
|
<trkpt lat="55.022517" lon="8.657679">
|
|
<ele>-17.424566</ele>
|
|
<time>2026-07-10T12:19:26.000Z</time>
|
|
</trkpt>
|
|
<trkpt lat="55.022567" lon="8.657692">
|
|
<ele>-17.430235</ele>
|
|
<time>2026-07-10T12:19:27.000Z</time>
|
|
</trkpt>
|
|
<trkpt lat="55.022619" lon="8.657706">
|
|
<ele>-17.436135</ele>
|
|
<time>2026-07-10T12:19:28.000Z</time>
|
|
</trkpt>
|
|
<trkpt lat="55.022669" lon="8.657718">
|
|
<ele>-17.441794</ele>
|
|
<time>2026-07-10T12:19:29.000Z</time>
|
|
</trkpt>
|
|
<trkpt lat="55.022723" lon="8.657728">
|
|
<ele>-17.450766</ele>
|
|
<time>2026-07-10T12:19:30.000Z</time>
|
|
</trkpt>
|
|
<trkpt lat="55.022777" lon="8.657738">
|
|
<ele>-17.459992</ele>
|
|
<time>2026-07-10T12:19:31.000Z</time>
|
|
</trkpt>
|
|
<trkpt lat="55.022829" lon="8.657747">
|
|
<ele>-17.468870</ele>
|
|
<time>2026-07-10T12:19:32.000Z</time>
|
|
</trkpt>
|
|
<trkpt lat="55.022879" lon="8.657751">
|
|
<ele>-17.477374</ele>
|
|
<time>2026-07-10T12:19:33.000Z</time>
|
|
</trkpt>
|
|
<trkpt lat="55.022932" lon="8.657755">
|
|
<ele>-17.486388</ele>
|
|
<time>2026-07-10T12:19:34.000Z</time>
|
|
</trkpt>
|
|
<trkpt lat="55.022983" lon="8.657761">
|
|
<ele>-17.495072</ele>
|
|
<time>2026-07-10T12:19:35.000Z</time>
|
|
</trkpt>
|
|
<trkpt lat="55.023036" lon="8.657766">
|
|
<ele>-17.504090</ele>
|
|
<time>2026-07-10T12:19:36.000Z</time>
|
|
</trkpt>
|
|
<trkpt lat="55.023088" lon="8.657769">
|
|
<ele>-17.512930</ele>
|
|
<time>2026-07-10T12:19:37.000Z</time>
|
|
</trkpt>
|
|
<trkpt lat="55.023138" lon="8.657773">
|
|
<ele>-17.521434</ele>
|
|
<time>2026-07-10T12:19:38.000Z</time>
|
|
</trkpt>
|
|
<trkpt lat="55.023188" lon="8.657776">
|
|
<ele>-17.529934</ele>
|
|
<time>2026-07-10T12:19:39.000Z</time>
|
|
</trkpt>
|
|
<trkpt lat="55.023242" lon="8.657779">
|
|
<ele>-17.539113</ele>
|
|
<time>2026-07-10T12:19:40.000Z</time>
|
|
</trkpt>
|
|
<trkpt lat="55.023296" lon="8.657779">
|
|
<ele>-17.548288</ele>
|
|
<time>2026-07-10T12:19:41.000Z</time>
|
|
</trkpt>
|
|
<trkpt lat="55.023348" lon="8.657779">
|
|
<ele>-17.557123</ele>
|
|
<time>2026-07-10T12:19:42.000Z</time>
|
|
</trkpt>
|
|
<trkpt lat="55.023398" lon="8.657778">
|
|
<ele>-17.565619</ele>
|
|
<time>2026-07-10T12:19:43.000Z</time>
|
|
</trkpt>
|
|
<trkpt lat="55.023447" lon="8.657777">
|
|
<ele>-17.573944</ele>
|
|
<time>2026-07-10T12:19:44.000Z</time>
|
|
</trkpt>
|
|
<trkpt lat="55.023498" lon="8.657776">
|
|
<ele>-17.582610</ele>
|
|
<time>2026-07-10T12:19:45.000Z</time>
|
|
</trkpt>
|
|
<trkpt lat="55.023551" lon="8.657773">
|
|
<ele>-17.591619</ele>
|
|
<time>2026-07-10T12:19:46.000Z</time>
|
|
</trkpt>
|
|
<trkpt lat="55.023603" lon="8.657773">
|
|
<ele>-17.600454</ele>
|
|
<time>2026-07-10T12:19:47.000Z</time>
|
|
</trkpt>
|
|
<trkpt lat="55.023650" lon="8.657774">
|
|
<ele>-17.608440</ele>
|
|
<time>2026-07-10T12:19:48.000Z</time>
|
|
</trkpt>
|
|
<trkpt lat="55.023699" lon="8.657774">
|
|
<ele>-17.616766</ele>
|
|
<time>2026-07-10T12:19:49.000Z</time>
|
|
</trkpt>
|
|
<trkpt lat="55.023748" lon="8.657771">
|
|
<ele>-17.625096</ele>
|
|
<time>2026-07-10T12:19:50.000Z</time>
|
|
</trkpt>
|
|
<trkpt lat="55.023798" lon="8.657768">
|
|
<ele>-17.633596</ele>
|
|
<time>2026-07-10T12:19:51.000Z</time>
|
|
</trkpt>
|
|
<trkpt lat="55.023849" lon="8.657766">
|
|
<ele>-17.642263</ele>
|
|
<time>2026-07-10T12:19:52.000Z</time>
|
|
</trkpt>
|
|
<trkpt lat="55.023898" lon="8.657765">
|
|
<ele>-17.650589</ele>
|
|
<time>2026-07-10T12:19:53.000Z</time>
|
|
</trkpt>
|
|
<trkpt lat="55.023948" lon="8.657763">
|
|
<ele>-17.659086</ele>
|
|
<time>2026-07-10T12:19:54.000Z</time>
|
|
</trkpt>
|
|
<trkpt lat="55.023998" lon="8.657760">
|
|
<ele>-17.667586</ele>
|
|
<time>2026-07-10T12:19:55.000Z</time>
|
|
</trkpt>
|
|
<trkpt lat="55.024049" lon="8.657758">
|
|
<ele>-17.676254</ele>
|
|
<time>2026-07-10T12:19:56.000Z</time>
|
|
</trkpt>
|
|
<trkpt lat="55.024102" lon="8.657755">
|
|
<ele>-17.685263</ele>
|
|
<time>2026-07-10T12:19:57.000Z</time>
|
|
</trkpt>
|
|
<trkpt lat="55.024156" lon="8.657751">
|
|
<ele>-17.694446</ele>
|
|
<time>2026-07-10T12:19:58.000Z</time>
|
|
</trkpt>
|
|
<trkpt lat="55.024212" lon="8.657750">
|
|
<ele>-17.703961</ele>
|
|
<time>2026-07-10T12:19:59.000Z</time>
|
|
</trkpt>
|
|
<trkpt lat="55.024267" lon="8.657749">
|
|
<ele>-17.713306</ele>
|
|
<time>2026-07-10T12:20:00.000Z</time>
|
|
</trkpt>
|
|
<trkpt lat="55.024324" lon="8.657745">
|
|
<ele>-17.722998</ele>
|
|
<time>2026-07-10T12:20:01.000Z</time>
|
|
</trkpt>
|
|
<trkpt lat="55.024381" lon="8.657742">
|
|
<ele>-17.732687</ele>
|
|
<time>2026-07-10T12:20:02.000Z</time>
|
|
</trkpt>
|
|
<trkpt lat="55.024438" lon="8.657738">
|
|
<ele>-17.742379</ele>
|
|
<time>2026-07-10T12:20:03.000Z</time>
|
|
</trkpt>
|
|
<trkpt lat="55.024492" lon="8.657733">
|
|
<ele>-17.743892</ele>
|
|
<time>2026-07-10T12:20:04.000Z</time>
|
|
</trkpt>
|
|
<trkpt lat="55.024548" lon="8.657727">
|
|
<ele>-17.733576</ele>
|
|
<time>2026-07-10T12:20:05.000Z</time>
|
|
</trkpt>
|
|
<trkpt lat="55.024603" lon="8.657725">
|
|
<ele>-17.723461</ele>
|
|
<time>2026-07-10T12:20:06.000Z</time>
|
|
</trkpt>
|
|
<trkpt lat="55.024660" lon="8.657721">
|
|
<ele>-17.712972</ele>
|
|
<time>2026-07-10T12:20:07.000Z</time>
|
|
</trkpt>
|
|
<trkpt lat="55.024716" lon="8.657715">
|
|
<ele>-17.702656</ele>
|
|
<time>2026-07-10T12:20:08.000Z</time>
|
|
</trkpt>
|
|
<trkpt lat="55.024770" lon="8.657710">
|
|
<ele>-17.692713</ele>
|
|
<time>2026-07-10T12:20:09.000Z</time>
|
|
</trkpt>
|
|
<trkpt lat="55.024828" lon="8.657699">
|
|
<ele>-17.681986</ele>
|
|
<time>2026-07-10T12:20:10.000Z</time>
|
|
</trkpt>
|
|
<trkpt lat="55.024884" lon="8.657681">
|
|
<ele>-17.671516</ele>
|
|
<time>2026-07-10T12:20:11.000Z</time>
|
|
</trkpt>
|
|
<trkpt lat="55.024936" lon="8.657653">
|
|
<ele>-17.661510</ele>
|
|
<time>2026-07-10T12:20:12.000Z</time>
|
|
</trkpt>
|
|
<trkpt lat="55.024985" lon="8.657619">
|
|
<ele>-17.651814</ele>
|
|
<time>2026-07-10T12:20:13.000Z</time>
|
|
</trkpt>
|
|
<trkpt lat="55.025031" lon="8.657582">
|
|
<ele>-17.642501</ele>
|
|
<time>2026-07-10T12:20:14.000Z</time>
|
|
</trkpt>
|
|
<trkpt lat="55.025075" lon="8.657538">
|
|
<ele>-17.633176</ele>
|
|
<time>2026-07-10T12:20:15.000Z</time>
|
|
</trkpt>
|
|
<trkpt lat="55.025117" lon="8.657484">
|
|
<ele>-17.623583</ele>
|
|
<time>2026-07-10T12:20:16.000Z</time>
|
|
</trkpt>
|
|
<trkpt lat="55.025159" lon="8.657425">
|
|
<ele>-17.613668</ele>
|
|
<time>2026-07-10T12:20:17.000Z</time>
|
|
</trkpt>
|
|
<trkpt lat="55.025199" lon="8.657363">
|
|
<ele>-17.603830</ele>
|
|
<time>2026-07-10T12:20:18.000Z</time>
|
|
</trkpt>
|
|
<trkpt lat="55.025234" lon="8.657297">
|
|
<ele>-17.594354</ele>
|
|
<time>2026-07-10T12:20:19.000Z</time>
|
|
</trkpt>
|
|
<trkpt lat="55.025271" lon="8.657231">
|
|
<ele>-17.584624</ele>
|
|
<time>2026-07-10T12:20:20.000Z</time>
|
|
</trkpt>
|
|
<trkpt lat="55.025304" lon="8.657164">
|
|
<ele>-17.575314</ele>
|
|
<time>2026-07-10T12:20:21.000Z</time>
|
|
</trkpt>
|
|
<trkpt lat="55.025334" lon="8.657096">
|
|
<ele>-17.566270</ele>
|
|
<time>2026-07-10T12:20:22.000Z</time>
|
|
</trkpt>
|
|
<trkpt lat="55.025362" lon="8.657024">
|
|
<ele>-17.557100</ele>
|
|
<time>2026-07-10T12:20:23.000Z</time>
|
|
</trkpt>
|
|
<trkpt lat="55.025392" lon="8.656951">
|
|
<ele>-17.547633</ele>
|
|
<time>2026-07-10T12:20:24.000Z</time>
|
|
</trkpt>
|
|
<trkpt lat="55.025422" lon="8.656880">
|
|
<ele>-17.538337</ele>
|
|
<time>2026-07-10T12:20:25.000Z</time>
|
|
</trkpt>
|
|
<trkpt lat="55.025453" lon="8.656810">
|
|
<ele>-17.529014</ele>
|
|
<time>2026-07-10T12:20:26.000Z</time>
|
|
</trkpt>
|
|
<trkpt lat="55.025484" lon="8.656740">
|
|
<ele>-17.519691</ele>
|
|
<time>2026-07-10T12:20:27.000Z</time>
|
|
</trkpt>
|
|
<trkpt lat="55.025514" lon="8.656672">
|
|
<ele>-17.510647</ele>
|
|
<time>2026-07-10T12:20:28.000Z</time>
|
|
</trkpt>
|
|
<trkpt lat="55.025544" lon="8.656603">
|
|
<ele>-17.501520</ele>
|
|
<time>2026-07-10T12:20:29.000Z</time>
|
|
</trkpt>
|
|
<trkpt lat="55.025574" lon="8.656533">
|
|
<ele>-17.492308</ele>
|
|
<time>2026-07-10T12:20:30.000Z</time>
|
|
</trkpt>
|
|
<trkpt lat="55.025602" lon="8.656465">
|
|
<ele>-17.483484</ele>
|
|
<time>2026-07-10T12:20:31.000Z</time>
|
|
</trkpt>
|
|
<trkpt lat="55.025632" lon="8.656399">
|
|
<ele>-17.474606</ele>
|
|
<time>2026-07-10T12:20:32.000Z</time>
|
|
</trkpt>
|
|
<trkpt lat="55.025660" lon="8.656332">
|
|
<ele>-17.465867</ele>
|
|
<time>2026-07-10T12:20:33.000Z</time>
|
|
</trkpt>
|
|
<trkpt lat="55.025687" lon="8.656264">
|
|
<ele>-17.457149</ele>
|
|
<time>2026-07-10T12:20:34.000Z</time>
|
|
</trkpt>
|
|
<trkpt lat="55.025710" lon="8.656190">
|
|
<ele>-17.448277</ele>
|
|
<time>2026-07-10T12:20:35.000Z</time>
|
|
</trkpt>
|
|
<trkpt lat="55.025731" lon="8.656117">
|
|
<ele>-17.439669</ele>
|
|
<time>2026-07-10T12:20:36.000Z</time>
|
|
</trkpt>
|
|
<trkpt lat="55.025746" lon="8.656043">
|
|
<ele>-17.431396</ele>
|
|
<time>2026-07-10T12:20:37.000Z</time>
|
|
</trkpt>
|
|
<trkpt lat="55.025761" lon="8.655967">
|
|
<ele>-17.422925</ele>
|
|
<time>2026-07-10T12:20:38.000Z</time>
|
|
</trkpt>
|
|
<trkpt lat="55.025775" lon="8.655890">
|
|
<ele>-17.415171</ele>
|
|
<time>2026-07-10T12:20:39.000Z</time>
|
|
</trkpt>
|
|
<trkpt lat="55.025787" lon="8.655812">
|
|
<ele>-17.409003</ele>
|
|
<time>2026-07-10T12:20:40.000Z</time>
|
|
</trkpt>
|
|
<trkpt lat="55.025797" lon="8.655731">
|
|
<ele>-17.402676</ele>
|
|
<time>2026-07-10T12:20:41.000Z</time>
|
|
</trkpt>
|
|
<trkpt lat="55.025805" lon="8.655649">
|
|
<ele>-17.396323</ele>
|
|
<time>2026-07-10T12:20:42.000Z</time>
|
|
</trkpt>
|
|
<trkpt lat="55.025812" lon="8.655567">
|
|
<ele>-17.389992</ele>
|
|
<time>2026-07-10T12:20:43.000Z</time>
|
|
</trkpt>
|
|
<trkpt lat="55.025819" lon="8.655486">
|
|
<ele>-17.383736</ele>
|
|
<time>2026-07-10T12:20:44.000Z</time>
|
|
</trkpt>
|
|
<trkpt lat="55.025822" lon="8.655404">
|
|
<ele>-17.377461</ele>
|
|
<time>2026-07-10T12:20:45.000Z</time>
|
|
</trkpt>
|
|
<trkpt lat="55.025823" lon="8.655323">
|
|
<ele>-17.371273</ele>
|
|
<time>2026-07-10T12:20:46.000Z</time>
|
|
</trkpt>
|
|
<trkpt lat="55.025827" lon="8.655243">
|
|
<ele>-17.365140</ele>
|
|
<time>2026-07-10T12:20:47.000Z</time>
|
|
</trkpt>
|
|
<trkpt lat="55.025830" lon="8.655162">
|
|
<ele>-17.358941</ele>
|
|
<time>2026-07-10T12:20:48.000Z</time>
|
|
</trkpt>
|
|
<trkpt lat="55.025834" lon="8.655081">
|
|
<ele>-17.352732</ele>
|
|
<time>2026-07-10T12:20:49.000Z</time>
|
|
</trkpt>
|
|
<trkpt lat="55.025838" lon="8.655001">
|
|
<ele>-17.346599</ele>
|
|
<time>2026-07-10T12:20:50.000Z</time>
|
|
</trkpt>
|
|
<trkpt lat="55.025841" lon="8.654920">
|
|
<ele>-17.340401</ele>
|
|
<time>2026-07-10T12:20:51.000Z</time>
|
|
</trkpt>
|
|
<trkpt lat="55.025842" lon="8.654840">
|
|
<ele>-17.334289</ele>
|
|
<time>2026-07-10T12:20:52.000Z</time>
|
|
</trkpt>
|
|
<trkpt lat="55.025846" lon="8.654759">
|
|
<ele>-17.328080</ele>
|
|
<time>2026-07-10T12:20:53.000Z</time>
|
|
</trkpt>
|
|
<trkpt lat="55.025848" lon="8.654678">
|
|
<ele>-17.321889</ele>
|
|
<time>2026-07-10T12:20:54.000Z</time>
|
|
</trkpt>
|
|
<trkpt lat="55.025848" lon="8.654596">
|
|
<ele>-17.315626</ele>
|
|
<time>2026-07-10T12:20:55.000Z</time>
|
|
</trkpt>
|
|
<trkpt lat="55.025848" lon="8.654512">
|
|
<ele>-17.309211</ele>
|
|
<time>2026-07-10T12:20:56.000Z</time>
|
|
</trkpt>
|
|
<trkpt lat="55.025847" lon="8.654429">
|
|
<ele>-17.302871</ele>
|
|
<time>2026-07-10T12:20:57.000Z</time>
|
|
</trkpt>
|
|
<trkpt lat="55.025843" lon="8.654343">
|
|
<ele>-17.296282</ele>
|
|
<time>2026-07-10T12:20:58.000Z</time>
|
|
</trkpt>
|
|
<trkpt lat="55.025841" lon="8.654256">
|
|
<ele>-17.289632</ele>
|
|
<time>2026-07-10T12:20:59.000Z</time>
|
|
</trkpt>
|
|
<trkpt lat="55.025841" lon="8.654169">
|
|
<ele>-17.282988</ele>
|
|
<time>2026-07-10T12:21:00.000Z</time>
|
|
</trkpt>
|
|
<trkpt lat="55.025841" lon="8.654083">
|
|
<ele>-17.276420</ele>
|
|
<time>2026-07-10T12:21:01.000Z</time>
|
|
</trkpt>
|
|
<trkpt lat="55.025841" lon="8.653995">
|
|
<ele>-17.269699</ele>
|
|
<time>2026-07-10T12:21:02.000Z</time>
|
|
</trkpt>
|
|
<trkpt lat="55.025841" lon="8.653909">
|
|
<ele>-17.263131</ele>
|
|
<time>2026-07-10T12:21:03.000Z</time>
|
|
</trkpt>
|
|
<trkpt lat="55.025841" lon="8.653824">
|
|
<ele>-17.256640</ele>
|
|
<time>2026-07-10T12:21:04.000Z</time>
|
|
</trkpt>
|
|
<trkpt lat="55.025841" lon="8.653738">
|
|
<ele>-17.250072</ele>
|
|
<time>2026-07-10T12:21:05.000Z</time>
|
|
</trkpt>
|
|
<trkpt lat="55.025841" lon="8.653651">
|
|
<ele>-17.243428</ele>
|
|
<time>2026-07-10T12:21:06.000Z</time>
|
|
</trkpt>
|
|
<trkpt lat="55.025841" lon="8.653564">
|
|
<ele>-17.236783</ele>
|
|
<time>2026-07-10T12:21:07.000Z</time>
|
|
</trkpt>
|
|
<trkpt lat="55.025842" lon="8.653476">
|
|
<ele>-17.230061</ele>
|
|
<time>2026-07-10T12:21:08.000Z</time>
|
|
</trkpt>
|
|
<trkpt lat="55.025845" lon="8.653387">
|
|
<ele>-17.223253</ele>
|
|
<time>2026-07-10T12:21:09.000Z</time>
|
|
</trkpt>
|
|
<trkpt lat="55.025846" lon="8.653297">
|
|
<ele>-17.216378</ele>
|
|
<time>2026-07-10T12:21:10.000Z</time>
|
|
</trkpt>
|
|
<trkpt lat="55.025850" lon="8.653209">
|
|
<ele>-17.209636</ele>
|
|
<time>2026-07-10T12:21:11.000Z</time>
|
|
</trkpt>
|
|
<trkpt lat="55.025854" lon="8.653121">
|
|
<ele>-17.202895</ele>
|
|
<time>2026-07-10T12:21:12.000Z</time>
|
|
</trkpt>
|
|
<trkpt lat="55.025862" lon="8.653033">
|
|
<ele>-17.196090</ele>
|
|
<time>2026-07-10T12:21:13.000Z</time>
|
|
</trkpt>
|
|
<trkpt lat="55.025871" lon="8.652946">
|
|
<ele>-17.189338</ele>
|
|
<time>2026-07-10T12:21:14.000Z</time>
|
|
</trkpt>
|
|
<trkpt lat="55.025882" lon="8.652860">
|
|
<ele>-17.182609</ele>
|
|
<time>2026-07-10T12:21:15.000Z</time>
|
|
</trkpt>
|
|
<trkpt lat="55.025894" lon="8.652778">
|
|
<ele>-17.185948</ele>
|
|
<time>2026-07-10T12:21:16.000Z</time>
|
|
</trkpt>
|
|
<trkpt lat="55.025906" lon="8.652701">
|
|
<ele>-17.222994</ele>
|
|
<time>2026-07-10T12:21:17.000Z</time>
|
|
</trkpt>
|
|
<trkpt lat="55.025920" lon="8.652624">
|
|
<ele>-17.260497</ele>
|
|
<time>2026-07-10T12:21:18.000Z</time>
|
|
</trkpt>
|
|
<trkpt lat="55.025933" lon="8.652545">
|
|
<ele>-17.298654</ele>
|
|
<time>2026-07-10T12:21:19.000Z</time>
|
|
</trkpt>
|
|
<trkpt lat="55.025947" lon="8.652466">
|
|
<ele>-17.337043</ele>
|
|
<time>2026-07-10T12:21:20.000Z</time>
|
|
</trkpt>
|
|
<trkpt lat="55.025959" lon="8.652385">
|
|
<ele>-17.375884</ele>
|
|
<time>2026-07-10T12:21:21.000Z</time>
|
|
</trkpt>
|
|
<trkpt lat="55.025971" lon="8.652304">
|
|
<ele>-17.414724</ele>
|
|
<time>2026-07-10T12:21:22.000Z</time>
|
|
</trkpt>
|
|
<trkpt lat="55.025985" lon="8.652223">
|
|
<ele>-17.454001</ele>
|
|
<time>2026-07-10T12:21:23.000Z</time>
|
|
</trkpt>
|
|
<trkpt lat="55.025998" lon="8.652142">
|
|
<ele>-17.493052</ele>
|
|
<time>2026-07-10T12:21:24.000Z</time>
|
|
</trkpt>
|
|
<trkpt lat="55.026014" lon="8.652063">
|
|
<ele>-17.531950</ele>
|
|
<time>2026-07-10T12:21:25.000Z</time>
|
|
</trkpt>
|
|
<trkpt lat="55.026033" lon="8.651986">
|
|
<ele>-17.570869</ele>
|
|
<time>2026-07-10T12:21:26.000Z</time>
|
|
</trkpt>
|
|
<trkpt lat="55.026051" lon="8.651909">
|
|
<ele>-17.609475</ele>
|
|
<time>2026-07-10T12:21:27.000Z</time>
|
|
</trkpt>
|
|
<trkpt lat="55.026069" lon="8.651833">
|
|
<ele>-17.647652</ele>
|
|
<time>2026-07-10T12:21:28.000Z</time>
|
|
</trkpt>
|
|
<trkpt lat="55.026091" lon="8.651756">
|
|
<ele>-17.687594</ele>
|
|
<time>2026-07-10T12:21:29.000Z</time>
|
|
</trkpt>
|
|
<trkpt lat="55.026111" lon="8.651679">
|
|
<ele>-17.726840</ele>
|
|
<time>2026-07-10T12:21:30.000Z</time>
|
|
</trkpt>
|
|
<trkpt lat="55.026133" lon="8.651600">
|
|
<ele>-17.767615</ele>
|
|
<time>2026-07-10T12:21:31.000Z</time>
|
|
</trkpt>
|
|
<trkpt lat="55.026153" lon="8.651521">
|
|
<ele>-17.807709</ele>
|
|
<time>2026-07-10T12:21:32.000Z</time>
|
|
</trkpt>
|
|
<trkpt lat="55.026176" lon="8.651443">
|
|
<ele>-17.848432</ele>
|
|
<time>2026-07-10T12:21:33.000Z</time>
|
|
</trkpt>
|
|
<trkpt lat="55.026200" lon="8.651365">
|
|
<ele>-17.889531</ele>
|
|
<time>2026-07-10T12:21:34.000Z</time>
|
|
</trkpt>
|
|
<trkpt lat="55.026224" lon="8.651284">
|
|
<ele>-17.931862</ele>
|
|
<time>2026-07-10T12:21:35.000Z</time>
|
|
</trkpt>
|
|
<trkpt lat="55.026244" lon="8.651205">
|
|
<ele>-17.971956</ele>
|
|
<time>2026-07-10T12:21:36.000Z</time>
|
|
</trkpt>
|
|
<trkpt lat="55.026267" lon="8.651125">
|
|
<ele>-18.013506</ele>
|
|
<time>2026-07-10T12:21:37.000Z</time>
|
|
</trkpt>
|
|
<trkpt lat="55.026290" lon="8.651045">
|
|
<ele>-18.055056</ele>
|
|
<time>2026-07-10T12:21:38.000Z</time>
|
|
</trkpt>
|
|
<trkpt lat="55.026313" lon="8.650965">
|
|
<ele>-18.096606</ele>
|
|
<time>2026-07-10T12:21:39.000Z</time>
|
|
</trkpt>
|
|
<trkpt lat="55.026335" lon="8.650886">
|
|
<ele>-18.137381</ele>
|
|
<time>2026-07-10T12:21:40.000Z</time>
|
|
</trkpt>
|
|
<trkpt lat="55.026355" lon="8.650806">
|
|
<ele>-18.177900</ele>
|
|
<time>2026-07-10T12:21:41.000Z</time>
|
|
</trkpt>
|
|
<trkpt lat="55.026375" lon="8.650724">
|
|
<ele>-18.219271</ele>
|
|
<time>2026-07-10T12:21:42.000Z</time>
|
|
</trkpt>
|
|
<trkpt lat="55.026390" lon="8.650639">
|
|
<ele>-18.260560</ele>
|
|
<time>2026-07-10T12:21:43.000Z</time>
|
|
</trkpt>
|
|
<trkpt lat="55.026400" lon="8.650551">
|
|
<ele>-18.302209</ele>
|
|
<time>2026-07-10T12:21:44.000Z</time>
|
|
</trkpt>
|
|
<trkpt lat="55.026407" lon="8.650460">
|
|
<ele>-18.344835</ele>
|
|
<time>2026-07-10T12:21:45.000Z</time>
|
|
</trkpt>
|
|
<trkpt lat="55.026410" lon="8.650367">
|
|
<ele>-18.388078</ele>
|
|
<time>2026-07-10T12:21:46.000Z</time>
|
|
</trkpt>
|
|
<trkpt lat="55.026414" lon="8.650273">
|
|
<ele>-18.431838</ele>
|
|
<time>2026-07-10T12:21:47.000Z</time>
|
|
</trkpt>
|
|
<trkpt lat="55.026418" lon="8.650179">
|
|
<ele>-18.475597</ele>
|
|
<time>2026-07-10T12:21:48.000Z</time>
|
|
</trkpt>
|
|
<trkpt lat="55.026422" lon="8.650087">
|
|
<ele>-18.518431</ele>
|
|
<time>2026-07-10T12:21:49.000Z</time>
|
|
</trkpt>
|
|
<trkpt lat="55.026426" lon="8.649995">
|
|
<ele>-18.561265</ele>
|
|
<time>2026-07-10T12:21:50.000Z</time>
|
|
</trkpt>
|
|
<trkpt lat="55.026429" lon="8.649902">
|
|
<ele>-18.604508</ele>
|
|
<time>2026-07-10T12:21:51.000Z</time>
|
|
</trkpt>
|
|
<trkpt lat="55.026433" lon="8.649807">
|
|
<ele>-18.663281</ele>
|
|
<time>2026-07-10T12:21:52.000Z</time>
|
|
</trkpt>
|
|
<trkpt lat="55.026437" lon="8.649712">
|
|
<ele>-18.752096</ele>
|
|
<time>2026-07-10T12:21:53.000Z</time>
|
|
</trkpt>
|
|
<trkpt lat="55.026441" lon="8.649613">
|
|
<ele>-18.844632</ele>
|
|
<time>2026-07-10T12:21:54.000Z</time>
|
|
</trkpt>
|
|
<trkpt lat="55.026445" lon="8.649516">
|
|
<ele>-18.935307</ele>
|
|
<time>2026-07-10T12:21:55.000Z</time>
|
|
</trkpt>
|
|
<trkpt lat="55.026448" lon="8.649415">
|
|
<ele>-19.029604</ele>
|
|
<time>2026-07-10T12:21:56.000Z</time>
|
|
</trkpt>
|
|
<trkpt lat="55.026452" lon="8.649315">
|
|
<ele>-19.123070</ele>
|
|
<time>2026-07-10T12:21:57.000Z</time>
|
|
</trkpt>
|
|
<trkpt lat="55.026456" lon="8.649211">
|
|
<ele>-19.220256</ele>
|
|
<time>2026-07-10T12:21:58.000Z</time>
|
|
</trkpt>
|
|
<trkpt lat="55.026460" lon="8.649109">
|
|
<ele>-19.315582</ele>
|
|
<time>2026-07-10T12:21:59.000Z</time>
|
|
</trkpt>
|
|
<trkpt lat="55.026464" lon="8.649003">
|
|
<ele>-19.414629</ele>
|
|
<time>2026-07-10T12:22:00.000Z</time>
|
|
</trkpt>
|
|
<trkpt lat="55.026468" lon="8.648897">
|
|
<ele>-19.513676</ele>
|
|
<time>2026-07-10T12:22:01.000Z</time>
|
|
</trkpt>
|
|
<trkpt lat="55.026471" lon="8.648790">
|
|
<ele>-19.613561</ele>
|
|
<time>2026-07-10T12:22:02.000Z</time>
|
|
</trkpt>
|
|
<trkpt lat="55.026475" lon="8.648682">
|
|
<ele>-19.714468</ele>
|
|
<time>2026-07-10T12:22:03.000Z</time>
|
|
</trkpt>
|
|
<trkpt lat="55.026479" lon="8.648574">
|
|
<ele>-19.815376</ele>
|
|
<time>2026-07-10T12:22:04.000Z</time>
|
|
</trkpt>
|
|
<trkpt lat="55.026483" lon="8.648466">
|
|
<ele>-19.916284</ele>
|
|
<time>2026-07-10T12:22:05.000Z</time>
|
|
</trkpt>
|
|
<trkpt lat="55.026487" lon="8.648358">
|
|
<ele>-20.017192</ele>
|
|
<time>2026-07-10T12:22:06.000Z</time>
|
|
</trkpt>
|
|
<trkpt lat="55.026491" lon="8.648249">
|
|
<ele>-20.119030</ele>
|
|
<time>2026-07-10T12:22:07.000Z</time>
|
|
</trkpt>
|
|
<trkpt lat="55.026498" lon="8.648140">
|
|
<ele>-20.221296</ele>
|
|
<time>2026-07-10T12:22:08.000Z</time>
|
|
</trkpt>
|
|
<trkpt lat="55.026502" lon="8.648032">
|
|
<ele>-20.322203</ele>
|
|
<time>2026-07-10T12:22:09.000Z</time>
|
|
</trkpt>
|
|
<trkpt lat="55.026504" lon="8.647923">
|
|
<ele>-20.423886</ele>
|
|
<time>2026-07-10T12:22:10.000Z</time>
|
|
</trkpt>
|
|
<trkpt lat="55.026506" lon="8.647816">
|
|
<ele>-20.523704</ele>
|
|
<time>2026-07-10T12:22:11.000Z</time>
|
|
</trkpt>
|
|
<trkpt lat="55.026511" lon="8.647711">
|
|
<ele>-20.621942</ele>
|
|
<time>2026-07-10T12:22:12.000Z</time>
|
|
</trkpt>
|
|
<trkpt lat="55.026517" lon="8.647605">
|
|
<ele>-20.721255</ele>
|
|
<time>2026-07-10T12:22:13.000Z</time>
|
|
</trkpt>
|
|
<trkpt lat="55.026521" lon="8.647501">
|
|
<ele>-20.818441</ele>
|
|
<time>2026-07-10T12:22:14.000Z</time>
|
|
</trkpt>
|
|
<trkpt lat="55.026525" lon="8.647399">
|
|
<ele>-20.913767</ele>
|
|
<time>2026-07-10T12:22:15.000Z</time>
|
|
</trkpt>
|
|
<trkpt lat="55.026530" lon="8.647296">
|
|
<ele>-21.010147</ele>
|
|
<time>2026-07-10T12:22:16.000Z</time>
|
|
</trkpt>
|
|
<trkpt lat="55.026535" lon="8.647191">
|
|
<ele>-21.108384</ele>
|
|
<time>2026-07-10T12:22:17.000Z</time>
|
|
</trkpt>
|
|
<trkpt lat="55.026536" lon="8.647090">
|
|
<ele>-21.202569</ele>
|
|
<time>2026-07-10T12:22:18.000Z</time>
|
|
</trkpt>
|
|
<trkpt lat="55.026540" lon="8.646989">
|
|
<ele>-21.296965</ele>
|
|
<time>2026-07-10T12:22:19.000Z</time>
|
|
</trkpt>
|
|
<trkpt lat="55.026544" lon="8.646889">
|
|
<ele>-21.390430</ele>
|
|
<time>2026-07-10T12:22:20.000Z</time>
|
|
</trkpt>
|
|
<trkpt lat="55.026548" lon="8.646791">
|
|
<ele>-21.482035</ele>
|
|
<time>2026-07-10T12:22:21.000Z</time>
|
|
</trkpt>
|
|
<trkpt lat="55.026553" lon="8.646693">
|
|
<ele>-21.564143</ele>
|
|
<time>2026-07-10T12:22:22.000Z</time>
|
|
</trkpt>
|
|
<trkpt lat="55.026559" lon="8.646596">
|
|
<ele>-21.591298</ele>
|
|
<time>2026-07-10T12:22:23.000Z</time>
|
|
</trkpt>
|
|
<trkpt lat="55.026563" lon="8.646502">
|
|
<ele>-21.617533</ele>
|
|
<time>2026-07-10T12:22:24.000Z</time>
|
|
</trkpt>
|
|
<trkpt lat="55.026567" lon="8.646407">
|
|
<ele>-21.644045</ele>
|
|
<time>2026-07-10T12:22:25.000Z</time>
|
|
</trkpt>
|
|
<trkpt lat="55.026570" lon="8.646312">
|
|
<ele>-21.670526</ele>
|
|
<time>2026-07-10T12:22:26.000Z</time>
|
|
</trkpt>
|
|
<trkpt lat="55.026573" lon="8.646215">
|
|
<ele>-21.697563</ele>
|
|
<time>2026-07-10T12:22:27.000Z</time>
|
|
</trkpt>
|
|
<trkpt lat="55.026575" lon="8.646120">
|
|
<ele>-21.724022</ele>
|
|
<time>2026-07-10T12:22:28.000Z</time>
|
|
</trkpt>
|
|
<trkpt lat="55.026582" lon="8.646025">
|
|
<ele>-21.750681</ele>
|
|
<time>2026-07-10T12:22:29.000Z</time>
|
|
</trkpt>
|
|
<trkpt lat="55.026586" lon="8.645931">
|
|
<ele>-21.776916</ele>
|
|
<time>2026-07-10T12:22:30.000Z</time>
|
|
</trkpt>
|
|
<trkpt lat="55.026588" lon="8.645838">
|
|
<ele>-21.802818</ele>
|
|
<time>2026-07-10T12:22:31.000Z</time>
|
|
</trkpt>
|
|
<trkpt lat="55.026591" lon="8.645746">
|
|
<ele>-21.828466</ele>
|
|
<time>2026-07-10T12:22:32.000Z</time>
|
|
</trkpt>
|
|
<trkpt lat="55.026597" lon="8.645656">
|
|
<ele>-21.853684</ele>
|
|
<time>2026-07-10T12:22:33.000Z</time>
|
|
</trkpt>
|
|
<trkpt lat="55.026600" lon="8.645566">
|
|
<ele>-21.878776</ele>
|
|
<time>2026-07-10T12:22:34.000Z</time>
|
|
</trkpt>
|
|
<trkpt lat="55.026600" lon="8.645480">
|
|
<ele>-21.902712</ele>
|
|
<time>2026-07-10T12:22:35.000Z</time>
|
|
</trkpt>
|
|
<trkpt lat="55.026600" lon="8.645401">
|
|
<ele>-21.924700</ele>
|
|
<time>2026-07-10T12:22:36.000Z</time>
|
|
</trkpt>
|
|
<trkpt lat="55.026600" lon="8.645335">
|
|
<ele>-21.943069</ele>
|
|
<time>2026-07-10T12:22:37.000Z</time>
|
|
</trkpt>
|
|
<trkpt lat="55.026598" lon="8.645283">
|
|
<ele>-21.957575</ele>
|
|
<time>2026-07-10T12:22:38.000Z</time>
|
|
</trkpt>
|
|
<trkpt lat="55.026593" lon="8.645241">
|
|
<ele>-21.969514</ele>
|
|
<time>2026-07-10T12:22:39.000Z</time>
|
|
</trkpt>
|
|
<trkpt lat="55.026588" lon="8.645202">
|
|
<ele>-21.980637</ele>
|
|
<time>2026-07-10T12:22:40.000Z</time>
|
|
</trkpt>
|
|
<trkpt lat="55.026597" lon="8.645134">
|
|
<ele>-22.000061</ele>
|
|
<time>2026-07-10T12:23:25.000Z</time>
|
|
</trkpt>
|
|
<trkpt lat="55.026603" lon="8.645117">
|
|
<ele>-22.005618</ele>
|
|
<time>2026-07-10T12:23:26.000Z</time>
|
|
</trkpt>
|
|
<trkpt lat="55.026616" lon="8.645100">
|
|
<ele>-22.013507</ele>
|
|
<time>2026-07-10T12:23:27.000Z</time>
|
|
</trkpt>
|
|
<trkpt lat="55.026633" lon="8.645082">
|
|
<ele>-22.023163</ele>
|
|
<time>2026-07-10T12:23:28.000Z</time>
|
|
</trkpt>
|
|
<trkpt lat="55.026657" lon="8.645060">
|
|
<ele>-22.036327</ele>
|
|
<time>2026-07-10T12:23:29.000Z</time>
|
|
</trkpt>
|
|
<trkpt lat="55.026684" lon="8.645037">
|
|
<ele>-22.050917</ele>
|
|
<time>2026-07-10T12:23:30.000Z</time>
|
|
</trkpt>
|
|
<trkpt lat="55.026715" lon="8.645012">
|
|
<ele>-22.067500</ele>
|
|
<time>2026-07-10T12:23:31.000Z</time>
|
|
</trkpt>
|
|
<trkpt lat="55.026747" lon="8.644984">
|
|
<ele>-22.084883</ele>
|
|
<time>2026-07-10T12:23:32.000Z</time>
|
|
</trkpt>
|
|
<trkpt lat="55.026782" lon="8.644957">
|
|
<ele>-22.103466</ele>
|
|
<time>2026-07-10T12:23:33.000Z</time>
|
|
</trkpt>
|
|
<trkpt lat="55.026817" lon="8.644928">
|
|
<ele>-22.122280</ele>
|
|
<time>2026-07-10T12:23:34.000Z</time>
|
|
</trkpt>
|
|
<trkpt lat="55.026856" lon="8.644900">
|
|
<ele>-22.142758</ele>
|
|
<time>2026-07-10T12:23:35.000Z</time>
|
|
</trkpt>
|
|
<trkpt lat="55.026898" lon="8.644871">
|
|
<ele>-22.164691</ele>
|
|
<time>2026-07-10T12:23:36.000Z</time>
|
|
</trkpt>
|
|
<trkpt lat="55.026940" lon="8.644839">
|
|
<ele>-22.186945</ele>
|
|
<time>2026-07-10T12:23:37.000Z</time>
|
|
</trkpt>
|
|
<trkpt lat="55.026982" lon="8.644808">
|
|
<ele>-22.209089</ele>
|
|
<time>2026-07-10T12:23:38.000Z</time>
|
|
</trkpt>
|
|
<trkpt lat="55.027024" lon="8.644778">
|
|
<ele>-22.231126</ele>
|
|
<time>2026-07-10T12:23:39.000Z</time>
|
|
</trkpt>
|
|
<trkpt lat="55.027066" lon="8.644744">
|
|
<ele>-22.253609</ele>
|
|
<time>2026-07-10T12:23:40.000Z</time>
|
|
</trkpt>
|
|
<trkpt lat="55.027111" lon="8.644709">
|
|
<ele>-22.277532</ele>
|
|
<time>2026-07-10T12:23:41.000Z</time>
|
|
</trkpt>
|
|
<trkpt lat="55.027155" lon="8.644672">
|
|
<ele>-22.301250</ele>
|
|
<time>2026-07-10T12:23:42.000Z</time>
|
|
</trkpt>
|
|
<trkpt lat="55.027201" lon="8.644639">
|
|
<ele>-22.325401</ele>
|
|
<time>2026-07-10T12:23:43.000Z</time>
|
|
</trkpt>
|
|
<trkpt lat="55.027247" lon="8.644606">
|
|
<ele>-22.349552</ele>
|
|
<time>2026-07-10T12:23:44.000Z</time>
|
|
</trkpt>
|
|
<trkpt lat="55.027296" lon="8.644571">
|
|
<ele>-22.375261</ele>
|
|
<time>2026-07-10T12:23:45.000Z</time>
|
|
</trkpt>
|
|
<trkpt lat="55.027342" lon="8.644534">
|
|
<ele>-22.399857</ele>
|
|
<time>2026-07-10T12:23:46.000Z</time>
|
|
</trkpt>
|
|
<trkpt lat="55.027388" lon="8.644498">
|
|
<ele>-22.424338</ele>
|
|
<time>2026-07-10T12:23:47.000Z</time>
|
|
</trkpt>
|
|
<trkpt lat="55.027435" lon="8.644461">
|
|
<ele>-22.404765</ele>
|
|
<time>2026-07-10T12:23:48.000Z</time>
|
|
</trkpt>
|
|
<trkpt lat="55.027483" lon="8.644424">
|
|
<ele>-22.359024</ele>
|
|
<time>2026-07-10T12:23:49.000Z</time>
|
|
</trkpt>
|
|
<trkpt lat="55.027529" lon="8.644390">
|
|
<ele>-22.315478</ele>
|
|
<time>2026-07-10T12:23:50.000Z</time>
|
|
</trkpt>
|
|
<trkpt lat="55.027575" lon="8.644354">
|
|
<ele>-22.271532</ele>
|
|
<time>2026-07-10T12:23:51.000Z</time>
|
|
</trkpt>
|
|
<trkpt lat="55.027621" lon="8.644318">
|
|
<ele>-22.227587</ele>
|
|
<time>2026-07-10T12:23:52.000Z</time>
|
|
</trkpt>
|
|
<trkpt lat="55.027666" lon="8.644283">
|
|
<ele>-22.184641</ele>
|
|
<time>2026-07-10T12:23:53.000Z</time>
|
|
</trkpt>
|
|
<trkpt lat="55.027711" lon="8.644245">
|
|
<ele>-22.141064</ele>
|
|
<time>2026-07-10T12:23:54.000Z</time>
|
|
</trkpt>
|
|
<trkpt lat="55.027754" lon="8.644207">
|
|
<ele>-22.099048</ele>
|
|
<time>2026-07-10T12:23:55.000Z</time>
|
|
</trkpt>
|
|
<trkpt lat="55.027800" lon="8.644169">
|
|
<ele>-22.054685</ele>
|
|
<time>2026-07-10T12:23:56.000Z</time>
|
|
</trkpt>
|
|
<trkpt lat="55.027845" lon="8.644133">
|
|
<ele>-22.011533</ele>
|
|
<time>2026-07-10T12:23:57.000Z</time>
|
|
</trkpt>
|
|
<trkpt lat="55.027891" lon="8.644098">
|
|
<ele>-21.967790</ele>
|
|
<time>2026-07-10T12:23:58.000Z</time>
|
|
</trkpt>
|
|
<trkpt lat="55.027936" lon="8.644065">
|
|
<ele>-21.925241</ele>
|
|
<time>2026-07-10T12:23:59.000Z</time>
|
|
</trkpt>
|
|
<trkpt lat="55.027978" lon="8.644034">
|
|
<ele>-21.885490</ele>
|
|
<time>2026-07-10T12:24:00.000Z</time>
|
|
</trkpt>
|
|
<trkpt lat="55.028019" lon="8.644003">
|
|
<ele>-21.846541</ele>
|
|
<time>2026-07-10T12:24:01.000Z</time>
|
|
</trkpt>
|
|
<trkpt lat="55.028057" lon="8.643974">
|
|
<ele>-21.810388</ele>
|
|
<time>2026-07-10T12:24:02.000Z</time>
|
|
</trkpt>
|
|
<trkpt lat="55.028094" lon="8.643947">
|
|
<ele>-21.775429</ele>
|
|
<time>2026-07-10T12:24:03.000Z</time>
|
|
</trkpt>
|
|
<trkpt lat="55.028129" lon="8.643918">
|
|
<ele>-21.741656</ele>
|
|
<time>2026-07-10T12:24:04.000Z</time>
|
|
</trkpt>
|
|
<trkpt lat="55.028168" lon="8.643889">
|
|
<ele>-21.704702</ele>
|
|
<time>2026-07-10T12:24:05.000Z</time>
|
|
</trkpt>
|
|
<trkpt lat="55.028206" lon="8.643859">
|
|
<ele>-21.668346</ele>
|
|
<time>2026-07-10T12:24:06.000Z</time>
|
|
</trkpt>
|
|
<trkpt lat="55.028244" lon="8.643829">
|
|
<ele>-21.631990</ele>
|
|
<time>2026-07-10T12:24:07.000Z</time>
|
|
</trkpt>
|
|
<trkpt lat="55.028283" lon="8.643796">
|
|
<ele>-21.594208</ele>
|
|
<time>2026-07-10T12:24:08.000Z</time>
|
|
</trkpt>
|
|
<trkpt lat="55.028325" lon="8.643762">
|
|
<ele>-21.553850</ele>
|
|
<time>2026-07-10T12:24:09.000Z</time>
|
|
</trkpt>
|
|
<trkpt lat="55.028367" lon="8.643728">
|
|
<ele>-21.513492</ele>
|
|
<time>2026-07-10T12:24:10.000Z</time>
|
|
</trkpt>
|
|
<trkpt lat="55.028409" lon="8.643693">
|
|
<ele>-21.472920</ele>
|
|
<time>2026-07-10T12:24:11.000Z</time>
|
|
</trkpt>
|
|
<trkpt lat="55.028452" lon="8.643657">
|
|
<ele>-21.431347</ele>
|
|
<time>2026-07-10T12:24:12.000Z</time>
|
|
</trkpt>
|
|
<trkpt lat="55.028498" lon="8.643621">
|
|
<ele>-21.387402</ele>
|
|
<time>2026-07-10T12:24:13.000Z</time>
|
|
</trkpt>
|
|
<trkpt lat="55.028544" lon="8.643584">
|
|
<ele>-21.343250</ele>
|
|
<time>2026-07-10T12:24:14.000Z</time>
|
|
</trkpt>
|
|
<trkpt lat="55.028589" lon="8.643547">
|
|
<ele>-21.299888</ele>
|
|
<time>2026-07-10T12:24:15.000Z</time>
|
|
</trkpt>
|
|
<trkpt lat="55.028635" lon="8.643511">
|
|
<ele>-21.255943</ele>
|
|
<time>2026-07-10T12:24:16.000Z</time>
|
|
</trkpt>
|
|
<trkpt lat="55.028681" lon="8.643474">
|
|
<ele>-21.211791</ele>
|
|
<time>2026-07-10T12:24:17.000Z</time>
|
|
</trkpt>
|
|
<trkpt lat="55.028727" lon="8.643436">
|
|
<ele>-21.167427</ele>
|
|
<time>2026-07-10T12:24:18.000Z</time>
|
|
</trkpt>
|
|
<trkpt lat="55.028773" lon="8.643397">
|
|
<ele>-21.122848</ele>
|
|
<time>2026-07-10T12:24:19.000Z</time>
|
|
</trkpt>
|
|
<trkpt lat="55.028822" lon="8.643359">
|
|
<ele>-21.076107</ele>
|
|
<time>2026-07-10T12:24:20.000Z</time>
|
|
</trkpt>
|
|
<trkpt lat="55.028867" lon="8.643323">
|
|
<ele>-21.032956</ele>
|
|
<time>2026-07-10T12:24:21.000Z</time>
|
|
</trkpt>
|
|
<trkpt lat="55.028912" lon="8.643287">
|
|
<ele>-20.989805</ele>
|
|
<time>2026-07-10T12:24:22.000Z</time>
|
|
</trkpt>
|
|
<trkpt lat="55.028963" lon="8.643250">
|
|
<ele>-20.941660</ele>
|
|
<time>2026-07-10T12:24:23.000Z</time>
|
|
</trkpt>
|
|
<trkpt lat="55.029007" lon="8.643215">
|
|
<ele>-20.899509</ele>
|
|
<time>2026-07-10T12:24:24.000Z</time>
|
|
</trkpt>
|
|
<trkpt lat="55.029052" lon="8.643179">
|
|
<ele>-20.864958</ele>
|
|
<time>2026-07-10T12:24:25.000Z</time>
|
|
</trkpt>
|
|
<trkpt lat="55.029101" lon="8.643141">
|
|
<ele>-20.861610</ele>
|
|
<time>2026-07-10T12:24:26.000Z</time>
|
|
</trkpt>
|
|
<trkpt lat="55.029146" lon="8.643108">
|
|
<ele>-20.858562</ele>
|
|
<time>2026-07-10T12:24:27.000Z</time>
|
|
</trkpt>
|
|
<trkpt lat="55.029191" lon="8.643074">
|
|
<ele>-20.855500</ele>
|
|
<time>2026-07-10T12:24:28.000Z</time>
|
|
</trkpt>
|
|
<trkpt lat="55.029234" lon="8.643039">
|
|
<ele>-20.852538</ele>
|
|
<time>2026-07-10T12:24:29.000Z</time>
|
|
</trkpt>
|
|
<trkpt lat="55.029280" lon="8.643001">
|
|
<ele>-20.849360</ele>
|
|
<time>2026-07-10T12:24:30.000Z</time>
|
|
</trkpt>
|
|
<trkpt lat="55.029327" lon="8.642964">
|
|
<ele>-20.846141</ele>
|
|
<time>2026-07-10T12:24:31.000Z</time>
|
|
</trkpt>
|
|
<trkpt lat="55.029375" lon="8.642927">
|
|
<ele>-20.842865</ele>
|
|
<time>2026-07-10T12:24:32.000Z</time>
|
|
</trkpt>
|
|
<trkpt lat="55.029421" lon="8.642889">
|
|
<ele>-20.839687</ele>
|
|
<time>2026-07-10T12:24:33.000Z</time>
|
|
</trkpt>
|
|
<trkpt lat="55.029466" lon="8.642851">
|
|
<ele>-20.836566</ele>
|
|
<time>2026-07-10T12:24:34.000Z</time>
|
|
</trkpt>
|
|
<trkpt lat="55.029510" lon="8.642814">
|
|
<ele>-20.833516</ele>
|
|
<time>2026-07-10T12:24:35.000Z</time>
|
|
</trkpt>
|
|
<trkpt lat="55.029558" lon="8.642774">
|
|
<ele>-20.830195</ele>
|
|
<time>2026-07-10T12:24:36.000Z</time>
|
|
</trkpt>
|
|
<trkpt lat="55.029605" lon="8.642736">
|
|
<ele>-20.826961</ele>
|
|
<time>2026-07-10T12:24:37.000Z</time>
|
|
</trkpt>
|
|
<trkpt lat="55.029653" lon="8.642699">
|
|
<ele>-20.823685</ele>
|
|
<time>2026-07-10T12:24:38.000Z</time>
|
|
</trkpt>
|
|
<trkpt lat="55.029698" lon="8.642662">
|
|
<ele>-20.820579</ele>
|
|
<time>2026-07-10T12:24:39.000Z</time>
|
|
</trkpt>
|
|
<trkpt lat="55.029746" lon="8.642624">
|
|
<ele>-20.817288</ele>
|
|
<time>2026-07-10T12:24:40.000Z</time>
|
|
</trkpt>
|
|
<trkpt lat="55.029795" lon="8.642586">
|
|
<ele>-20.813940</ele>
|
|
<time>2026-07-10T12:24:41.000Z</time>
|
|
</trkpt>
|
|
<trkpt lat="55.029840" lon="8.642549">
|
|
<ele>-20.810834</ele>
|
|
<time>2026-07-10T12:24:42.000Z</time>
|
|
</trkpt>
|
|
<trkpt lat="55.029886" lon="8.642511">
|
|
<ele>-20.807657</ele>
|
|
<time>2026-07-10T12:24:43.000Z</time>
|
|
</trkpt>
|
|
<trkpt lat="55.029932" lon="8.642473">
|
|
<ele>-20.804479</ele>
|
|
<time>2026-07-10T12:24:44.000Z</time>
|
|
</trkpt>
|
|
<trkpt lat="55.029979" lon="8.642438">
|
|
<ele>-20.801289</ele>
|
|
<time>2026-07-10T12:24:45.000Z</time>
|
|
</trkpt>
|
|
<trkpt lat="55.030025" lon="8.642403">
|
|
<ele>-20.798156</ele>
|
|
<time>2026-07-10T12:24:46.000Z</time>
|
|
</trkpt>
|
|
<trkpt lat="55.030067" lon="8.642371">
|
|
<ele>-20.795294</ele>
|
|
<time>2026-07-10T12:24:47.000Z</time>
|
|
</trkpt>
|
|
<trkpt lat="55.030119" lon="8.642328">
|
|
<ele>-20.791701</ele>
|
|
<time>2026-07-10T12:24:48.000Z</time>
|
|
</trkpt>
|
|
<trkpt lat="55.030165" lon="8.642288">
|
|
<ele>-20.788493</ele>
|
|
<time>2026-07-10T12:24:49.000Z</time>
|
|
</trkpt>
|
|
<trkpt lat="55.030214" lon="8.642248">
|
|
<ele>-20.785115</ele>
|
|
<time>2026-07-10T12:24:50.000Z</time>
|
|
</trkpt>
|
|
<trkpt lat="55.030261" lon="8.642208">
|
|
<ele>-20.781850</ele>
|
|
<time>2026-07-10T12:24:51.000Z</time>
|
|
</trkpt>
|
|
<trkpt lat="55.030310" lon="8.642169">
|
|
<ele>-20.778488</ele>
|
|
<time>2026-07-10T12:24:52.000Z</time>
|
|
</trkpt>
|
|
<trkpt lat="55.030357" lon="8.642130">
|
|
<ele>-20.775238</ele>
|
|
<time>2026-07-10T12:24:53.000Z</time>
|
|
</trkpt>
|
|
<trkpt lat="55.030406" lon="8.642092">
|
|
<ele>-20.771890</ele>
|
|
<time>2026-07-10T12:24:54.000Z</time>
|
|
</trkpt>
|
|
<trkpt lat="55.030456" lon="8.642054">
|
|
<ele>-20.768485</ele>
|
|
<time>2026-07-10T12:24:55.000Z</time>
|
|
</trkpt>
|
|
<trkpt lat="55.030504" lon="8.642016">
|
|
<ele>-20.765195</ele>
|
|
<time>2026-07-10T12:24:56.000Z</time>
|
|
</trkpt>
|
|
<trkpt lat="55.030550" lon="8.641976">
|
|
<ele>-20.761986</ele>
|
|
<time>2026-07-10T12:24:57.000Z</time>
|
|
</trkpt>
|
|
<trkpt lat="55.030600" lon="8.641935">
|
|
<ele>-20.758536</ele>
|
|
<time>2026-07-10T12:24:58.000Z</time>
|
|
</trkpt>
|
|
<trkpt lat="55.030649" lon="8.641895">
|
|
<ele>-20.755159</ele>
|
|
<time>2026-07-10T12:24:59.000Z</time>
|
|
</trkpt>
|
|
<trkpt lat="55.030698" lon="8.641855">
|
|
<ele>-20.768319</ele>
|
|
<time>2026-07-10T12:25:00.000Z</time>
|
|
</trkpt>
|
|
<trkpt lat="55.030750" lon="8.641817">
|
|
<ele>-20.802513</ele>
|
|
<time>2026-07-10T12:25:01.000Z</time>
|
|
</trkpt>
|
|
<trkpt lat="55.030799" lon="8.641779">
|
|
<ele>-20.835036</ele>
|
|
<time>2026-07-10T12:25:02.000Z</time>
|
|
</trkpt>
|
|
<trkpt lat="55.030849" lon="8.641741">
|
|
<ele>-20.868115</ele>
|
|
<time>2026-07-10T12:25:03.000Z</time>
|
|
</trkpt>
|
|
<trkpt lat="55.030898" lon="8.641704">
|
|
<ele>-20.900498</ele>
|
|
<time>2026-07-10T12:25:04.000Z</time>
|
|
</trkpt>
|
|
<trkpt lat="55.030948" lon="8.641665">
|
|
<ele>-20.933717</ele>
|
|
<time>2026-07-10T12:25:05.000Z</time>
|
|
</trkpt>
|
|
<trkpt lat="55.030998" lon="8.641625">
|
|
<ele>-20.967079</ele>
|
|
<time>2026-07-10T12:25:06.000Z</time>
|
|
</trkpt>
|
|
<trkpt lat="55.031047" lon="8.641587">
|
|
<ele>-20.999603</ele>
|
|
<time>2026-07-10T12:25:07.000Z</time>
|
|
</trkpt>
|
|
<trkpt lat="55.031097" lon="8.641548">
|
|
<ele>-21.032821</ele>
|
|
<time>2026-07-10T12:25:08.000Z</time>
|
|
</trkpt>
|
|
<trkpt lat="55.031147" lon="8.641508">
|
|
<ele>-21.066184</ele>
|
|
<time>2026-07-10T12:25:09.000Z</time>
|
|
</trkpt>
|
|
<trkpt lat="55.031199" lon="8.641469">
|
|
<ele>-21.100513</ele>
|
|
<time>2026-07-10T12:25:10.000Z</time>
|
|
</trkpt>
|
|
<trkpt lat="55.031248" lon="8.641430">
|
|
<ele>-21.133179</ele>
|
|
<time>2026-07-10T12:25:11.000Z</time>
|
|
</trkpt>
|
|
<trkpt lat="55.031298" lon="8.641390">
|
|
<ele>-21.166541</ele>
|
|
<time>2026-07-10T12:25:12.000Z</time>
|
|
</trkpt>
|
|
<trkpt lat="55.031349" lon="8.641348">
|
|
<ele>-21.200747</ele>
|
|
<time>2026-07-10T12:25:13.000Z</time>
|
|
</trkpt>
|
|
<trkpt lat="55.031398" lon="8.641308">
|
|
<ele>-21.233559</ele>
|
|
<time>2026-07-10T12:25:14.000Z</time>
|
|
</trkpt>
|
|
<trkpt lat="55.031448" lon="8.641266">
|
|
<ele>-21.267216</ele>
|
|
<time>2026-07-10T12:25:15.000Z</time>
|
|
</trkpt>
|
|
<trkpt lat="55.031497" lon="8.641225">
|
|
<ele>-21.300177</ele>
|
|
<time>2026-07-10T12:25:16.000Z</time>
|
|
</trkpt>
|
|
<trkpt lat="55.031547" lon="8.641187">
|
|
<ele>-21.333255</ele>
|
|
<time>2026-07-10T12:25:17.000Z</time>
|
|
</trkpt>
|
|
<trkpt lat="55.031596" lon="8.641147">
|
|
<ele>-21.366067</ele>
|
|
<time>2026-07-10T12:25:18.000Z</time>
|
|
</trkpt>
|
|
<trkpt lat="55.031646" lon="8.641109">
|
|
<ele>-21.399145</ele>
|
|
<time>2026-07-10T12:25:19.000Z</time>
|
|
</trkpt>
|
|
<trkpt lat="55.031697" lon="8.641070">
|
|
<ele>-21.432919</ele>
|
|
<time>2026-07-10T12:25:20.000Z</time>
|
|
</trkpt>
|
|
<trkpt lat="55.031749" lon="8.641032">
|
|
<ele>-21.467113</ele>
|
|
<time>2026-07-10T12:25:21.000Z</time>
|
|
</trkpt>
|
|
<trkpt lat="55.031799" lon="8.640992">
|
|
<ele>-21.500475</ele>
|
|
<time>2026-07-10T12:25:22.000Z</time>
|
|
</trkpt>
|
|
<trkpt lat="55.031848" lon="8.640952">
|
|
<ele>-21.533286</ele>
|
|
<time>2026-07-10T12:25:23.000Z</time>
|
|
</trkpt>
|
|
<trkpt lat="55.031898" lon="8.640912">
|
|
<ele>-21.566648</ele>
|
|
<time>2026-07-10T12:25:24.000Z</time>
|
|
</trkpt>
|
|
<trkpt lat="55.031947" lon="8.640872">
|
|
<ele>-21.599460</ele>
|
|
<time>2026-07-10T12:25:25.000Z</time>
|
|
</trkpt>
|
|
<trkpt lat="55.031997" lon="8.640831">
|
|
<ele>-21.632969</ele>
|
|
<time>2026-07-10T12:25:26.000Z</time>
|
|
</trkpt>
|
|
<trkpt lat="55.032046" lon="8.640790">
|
|
<ele>-21.665929</ele>
|
|
<time>2026-07-10T12:25:27.000Z</time>
|
|
</trkpt>
|
|
<trkpt lat="55.032096" lon="8.640751">
|
|
<ele>-21.699148</ele>
|
|
<time>2026-07-10T12:25:28.000Z</time>
|
|
</trkpt>
|
|
<trkpt lat="55.032149" lon="8.640708">
|
|
<ele>-21.734599</ele>
|
|
<time>2026-07-10T12:25:29.000Z</time>
|
|
</trkpt>
|
|
<trkpt lat="55.032199" lon="8.640667">
|
|
<ele>-21.768107</ele>
|
|
<time>2026-07-10T12:25:30.000Z</time>
|
|
</trkpt>
|
|
<trkpt lat="55.032249" lon="8.640626">
|
|
<ele>-21.801616</ele>
|
|
<time>2026-07-10T12:25:31.000Z</time>
|
|
</trkpt>
|
|
<trkpt lat="55.032302" lon="8.640583">
|
|
<ele>-21.837067</ele>
|
|
<time>2026-07-10T12:25:32.000Z</time>
|
|
</trkpt>
|
|
<trkpt lat="55.032351" lon="8.640542">
|
|
<ele>-21.870998</ele>
|
|
<time>2026-07-10T12:25:33.000Z</time>
|
|
</trkpt>
|
|
<trkpt lat="55.032402" lon="8.640502">
|
|
<ele>-21.906190</ele>
|
|
<time>2026-07-10T12:25:34.000Z</time>
|
|
</trkpt>
|
|
<trkpt lat="55.032455" lon="8.640462">
|
|
<ele>-21.942533</ele>
|
|
<time>2026-07-10T12:25:35.000Z</time>
|
|
</trkpt>
|
|
<trkpt lat="55.032504" lon="8.640422">
|
|
<ele>-21.976580</ele>
|
|
<time>2026-07-10T12:25:36.000Z</time>
|
|
</trkpt>
|
|
<trkpt lat="55.032554" lon="8.640382">
|
|
<ele>-22.011199</ele>
|
|
<time>2026-07-10T12:25:37.000Z</time>
|
|
</trkpt>
|
|
<trkpt lat="55.032603" lon="8.640344">
|
|
<ele>-22.044947</ele>
|
|
<time>2026-07-10T12:25:38.000Z</time>
|
|
</trkpt>
|
|
<trkpt lat="55.032654" lon="8.640306">
|
|
<ele>-22.079849</ele>
|
|
<time>2026-07-10T12:25:39.000Z</time>
|
|
</trkpt>
|
|
<trkpt lat="55.032706" lon="8.640266">
|
|
<ele>-22.115615</ele>
|
|
<time>2026-07-10T12:25:40.000Z</time>
|
|
</trkpt>
|
|
<trkpt lat="55.032756" lon="8.640225">
|
|
<ele>-22.150386</ele>
|
|
<time>2026-07-10T12:25:41.000Z</time>
|
|
</trkpt>
|
|
<trkpt lat="55.032807" lon="8.640185">
|
|
<ele>-22.185577</ele>
|
|
<time>2026-07-10T12:25:42.000Z</time>
|
|
</trkpt>
|
|
<trkpt lat="55.032859" lon="8.640146">
|
|
<ele>-22.221200</ele>
|
|
<time>2026-07-10T12:25:43.000Z</time>
|
|
</trkpt>
|
|
<trkpt lat="55.032910" lon="8.640107">
|
|
<ele>-22.256245</ele>
|
|
<time>2026-07-10T12:25:44.000Z</time>
|
|
</trkpt>
|
|
<trkpt lat="55.032961" lon="8.640067">
|
|
<ele>-22.291437</ele>
|
|
<time>2026-07-10T12:25:45.000Z</time>
|
|
</trkpt>
|
|
<trkpt lat="55.033013" lon="8.640025">
|
|
<ele>-22.327500</ele>
|
|
<time>2026-07-10T12:25:46.000Z</time>
|
|
</trkpt>
|
|
<trkpt lat="55.033065" lon="8.639987">
|
|
<ele>-22.362982</ele>
|
|
<time>2026-07-10T12:25:47.000Z</time>
|
|
</trkpt>
|
|
<trkpt lat="55.033116" lon="8.639949">
|
|
<ele>-22.397884</ele>
|
|
<time>2026-07-10T12:25:48.000Z</time>
|
|
</trkpt>
|
|
<trkpt lat="55.033168" lon="8.639909">
|
|
<ele>-22.433650</ele>
|
|
<time>2026-07-10T12:25:49.000Z</time>
|
|
</trkpt>
|
|
<trkpt lat="55.033219" lon="8.639868">
|
|
<ele>-22.468991</ele>
|
|
<time>2026-07-10T12:25:50.000Z</time>
|
|
</trkpt>
|
|
<trkpt lat="55.033270" lon="8.639826">
|
|
<ele>-22.504485</ele>
|
|
<time>2026-07-10T12:25:51.000Z</time>
|
|
</trkpt>
|
|
<trkpt lat="55.033321" lon="8.639784">
|
|
<ele>-22.539978</ele>
|
|
<time>2026-07-10T12:25:52.000Z</time>
|
|
</trkpt>
|
|
<trkpt lat="55.033374" lon="8.639744">
|
|
<ele>-22.576321</ele>
|
|
<time>2026-07-10T12:25:53.000Z</time>
|
|
</trkpt>
|
|
<trkpt lat="55.033424" lon="8.639706">
|
|
<ele>-22.610645</ele>
|
|
<time>2026-07-10T12:25:54.000Z</time>
|
|
</trkpt>
|
|
<trkpt lat="55.033474" lon="8.639666">
|
|
<ele>-22.645263</ele>
|
|
<time>2026-07-10T12:25:55.000Z</time>
|
|
</trkpt>
|
|
<trkpt lat="55.033527" lon="8.639627">
|
|
<ele>-22.681465</ele>
|
|
<time>2026-07-10T12:25:56.000Z</time>
|
|
</trkpt>
|
|
<trkpt lat="55.033577" lon="8.639589">
|
|
<ele>-22.715789</ele>
|
|
<time>2026-07-10T12:25:57.000Z</time>
|
|
</trkpt>
|
|
<trkpt lat="55.033631" lon="8.639552">
|
|
<ele>-22.752301</ele>
|
|
<time>2026-07-10T12:25:58.000Z</time>
|
|
</trkpt>
|
|
<trkpt lat="55.033684" lon="8.639514">
|
|
<ele>-22.788364</ele>
|
|
<time>2026-07-10T12:25:59.000Z</time>
|
|
</trkpt>
|
|
<trkpt lat="55.033737" lon="8.639478">
|
|
<ele>-22.824159</ele>
|
|
<time>2026-07-10T12:26:00.000Z</time>
|
|
</trkpt>
|
|
<trkpt lat="55.033788" lon="8.639443">
|
|
<ele>-22.858651</ele>
|
|
<time>2026-07-10T12:26:01.000Z</time>
|
|
</trkpt>
|
|
<trkpt lat="55.033833" lon="8.639412">
|
|
<ele>-22.889100</ele>
|
|
<time>2026-07-10T12:26:02.000Z</time>
|
|
</trkpt>
|
|
<trkpt lat="55.033907" lon="8.639367">
|
|
<ele>-22.938420</ele>
|
|
<time>2026-07-10T12:26:03.000Z</time>
|
|
</trkpt>
|
|
<trkpt lat="55.033963" lon="8.639330">
|
|
<ele>-22.976107</ele>
|
|
<time>2026-07-10T12:26:04.000Z</time>
|
|
</trkpt>
|
|
<trkpt lat="55.034020" lon="8.639295">
|
|
<ele>-23.026975</ele>
|
|
<time>2026-07-10T12:26:05.000Z</time>
|
|
</trkpt>
|
|
<trkpt lat="55.034078" lon="8.639259">
|
|
<ele>-23.078854</ele>
|
|
<time>2026-07-10T12:26:06.000Z</time>
|
|
</trkpt>
|
|
<trkpt lat="55.034136" lon="8.639225">
|
|
<ele>-23.130416</ele>
|
|
<time>2026-07-10T12:26:07.000Z</time>
|
|
</trkpt>
|
|
<trkpt lat="55.034193" lon="8.639192">
|
|
<ele>-23.181026</ele>
|
|
<time>2026-07-10T12:26:08.000Z</time>
|
|
</trkpt>
|
|
<trkpt lat="55.034249" lon="8.639159">
|
|
<ele>-23.230837</ele>
|
|
<time>2026-07-10T12:26:09.000Z</time>
|
|
</trkpt>
|
|
<trkpt lat="55.034304" lon="8.639126">
|
|
<ele>-23.279850</ele>
|
|
<time>2026-07-10T12:26:10.000Z</time>
|
|
</trkpt>
|
|
<trkpt lat="55.034364" lon="8.639092">
|
|
<ele>-23.333013</ele>
|
|
<time>2026-07-10T12:26:11.000Z</time>
|
|
</trkpt>
|
|
<trkpt lat="55.034421" lon="8.639061">
|
|
<ele>-23.383328</ele>
|
|
<time>2026-07-10T12:26:12.000Z</time>
|
|
</trkpt>
|
|
<trkpt lat="55.034479" lon="8.639030">
|
|
<ele>-23.434447</ele>
|
|
<time>2026-07-10T12:26:13.000Z</time>
|
|
</trkpt>
|
|
<trkpt lat="55.034543" lon="8.639000">
|
|
<ele>-23.490294</ele>
|
|
<time>2026-07-10T12:26:14.000Z</time>
|
|
</trkpt>
|
|
<trkpt lat="55.034603" lon="8.638971">
|
|
<ele>-23.542761</ele>
|
|
<time>2026-07-10T12:26:15.000Z</time>
|
|
</trkpt>
|
|
<trkpt lat="55.034667" lon="8.638946">
|
|
<ele>-23.598030</ele>
|
|
<time>2026-07-10T12:26:16.000Z</time>
|
|
</trkpt>
|
|
<trkpt lat="55.034729" lon="8.638922">
|
|
<ele>-23.651549</ele>
|
|
<time>2026-07-10T12:26:17.000Z</time>
|
|
</trkpt>
|
|
<trkpt lat="55.034793" lon="8.638894">
|
|
<ele>-23.707153</ele>
|
|
<time>2026-07-10T12:26:18.000Z</time>
|
|
</trkpt>
|
|
<trkpt lat="55.034857" lon="8.638868">
|
|
<ele>-23.762530</ele>
|
|
<time>2026-07-10T12:26:19.000Z</time>
|
|
</trkpt>
|
|
<trkpt lat="55.034919" lon="8.638842">
|
|
<ele>-23.816266</ele>
|
|
<time>2026-07-10T12:26:20.000Z</time>
|
|
</trkpt>
|
|
<trkpt lat="55.034981" lon="8.638817">
|
|
<ele>-23.869892</ele>
|
|
<time>2026-07-10T12:26:21.000Z</time>
|
|
</trkpt>
|
|
<trkpt lat="55.035043" lon="8.638795">
|
|
<ele>-23.923210</ele>
|
|
<time>2026-07-10T12:26:22.000Z</time>
|
|
</trkpt>
|
|
<trkpt lat="55.035101" lon="8.638774">
|
|
<ele>-23.973129</ele>
|
|
<time>2026-07-10T12:26:23.000Z</time>
|
|
</trkpt>
|
|
<trkpt lat="55.035162" lon="8.638753">
|
|
<ele>-24.025526</ele>
|
|
<time>2026-07-10T12:26:24.000Z</time>
|
|
</trkpt>
|
|
<trkpt lat="55.035222" lon="8.638733">
|
|
<ele>-24.077004</ele>
|
|
<time>2026-07-10T12:26:25.000Z</time>
|
|
</trkpt>
|
|
<trkpt lat="55.035284" lon="8.638713">
|
|
<ele>-24.130138</ele>
|
|
<time>2026-07-10T12:26:26.000Z</time>
|
|
</trkpt>
|
|
<trkpt lat="55.035342" lon="8.638693">
|
|
<ele>-24.179961</ele>
|
|
<time>2026-07-10T12:26:27.000Z</time>
|
|
</trkpt>
|
|
<trkpt lat="55.035403" lon="8.638674">
|
|
<ele>-24.232180</ele>
|
|
<time>2026-07-10T12:26:28.000Z</time>
|
|
</trkpt>
|
|
<trkpt lat="55.035463" lon="8.638656">
|
|
<ele>-24.283485</ele>
|
|
<time>2026-07-10T12:26:29.000Z</time>
|
|
</trkpt>
|
|
<trkpt lat="55.035521" lon="8.638639">
|
|
<ele>-24.333048</ele>
|
|
<time>2026-07-10T12:26:30.000Z</time>
|
|
</trkpt>
|
|
<trkpt lat="55.035581" lon="8.638622">
|
|
<ele>-24.384273</ele>
|
|
<time>2026-07-10T12:26:31.000Z</time>
|
|
</trkpt>
|
|
<trkpt lat="55.035639" lon="8.638603">
|
|
<ele>-24.434005</ele>
|
|
<time>2026-07-10T12:26:32.000Z</time>
|
|
</trkpt>
|
|
<trkpt lat="55.035701" lon="8.638585">
|
|
<ele>-24.486972</ele>
|
|
<time>2026-07-10T12:26:33.000Z</time>
|
|
</trkpt>
|
|
<trkpt lat="55.035762" lon="8.638567">
|
|
<ele>-24.555261</ele>
|
|
<time>2026-07-10T12:26:34.000Z</time>
|
|
</trkpt>
|
|
<trkpt lat="55.035823" lon="8.638553">
|
|
<ele>-24.624899</ele>
|
|
<time>2026-07-10T12:26:35.000Z</time>
|
|
</trkpt>
|
|
<trkpt lat="55.035883" lon="8.638539">
|
|
<ele>-24.693414</ele>
|
|
<time>2026-07-10T12:26:36.000Z</time>
|
|
</trkpt>
|
|
<trkpt lat="55.035945" lon="8.638526">
|
|
<ele>-24.764094</ele>
|
|
<time>2026-07-10T12:26:37.000Z</time>
|
|
</trkpt>
|
|
<trkpt lat="55.036006" lon="8.638514">
|
|
<ele>-24.833575</ele>
|
|
<time>2026-07-10T12:26:38.000Z</time>
|
|
</trkpt>
|
|
<trkpt lat="55.036067" lon="8.638504">
|
|
<ele>-24.902922</ele>
|
|
<time>2026-07-10T12:26:39.000Z</time>
|
|
</trkpt>
|
|
<trkpt lat="55.036128" lon="8.638496">
|
|
<ele>-24.972160</ele>
|
|
<time>2026-07-10T12:26:40.000Z</time>
|
|
</trkpt>
|
|
<trkpt lat="55.036189" lon="8.638485">
|
|
<ele>-25.041570</ele>
|
|
<time>2026-07-10T12:26:41.000Z</time>
|
|
</trkpt>
|
|
<trkpt lat="55.036250" lon="8.638473">
|
|
<ele>-25.111051</ele>
|
|
<time>2026-07-10T12:26:42.000Z</time>
|
|
</trkpt>
|
|
<trkpt lat="55.036310" lon="8.638462">
|
|
<ele>-25.179336</ele>
|
|
<time>2026-07-10T12:26:43.000Z</time>
|
|
</trkpt>
|
|
<trkpt lat="55.036371" lon="8.638454">
|
|
<ele>-25.248574</ele>
|
|
<time>2026-07-10T12:26:44.000Z</time>
|
|
</trkpt>
|
|
<trkpt lat="55.036432" lon="8.638448">
|
|
<ele>-25.317726</ele>
|
|
<time>2026-07-10T12:26:45.000Z</time>
|
|
</trkpt>
|
|
<trkpt lat="55.036498" lon="8.638441">
|
|
<ele>-25.392567</ele>
|
|
<time>2026-07-10T12:26:46.000Z</time>
|
|
</trkpt>
|
|
<trkpt lat="55.036560" lon="8.638433">
|
|
<ele>-25.462933</ele>
|
|
<time>2026-07-10T12:26:47.000Z</time>
|
|
</trkpt>
|
|
<trkpt lat="55.036624" lon="8.638428">
|
|
<ele>-25.535445</ele>
|
|
<time>2026-07-10T12:26:48.000Z</time>
|
|
</trkpt>
|
|
<trkpt lat="55.036683" lon="8.638424">
|
|
<ele>-25.602274</ele>
|
|
<time>2026-07-10T12:26:49.000Z</time>
|
|
</trkpt>
|
|
<trkpt lat="55.036739" lon="8.638422">
|
|
<ele>-25.665671</ele>
|
|
<time>2026-07-10T12:26:50.000Z</time>
|
|
</trkpt>
|
|
<trkpt lat="55.036814" lon="8.638419">
|
|
<ele>-25.750583</ele>
|
|
<time>2026-07-10T12:26:51.000Z</time>
|
|
</trkpt>
|
|
<trkpt lat="55.036877" lon="8.638416">
|
|
<ele>-25.821916</ele>
|
|
<time>2026-07-10T12:26:52.000Z</time>
|
|
</trkpt>
|
|
<trkpt lat="55.036942" lon="8.638415">
|
|
<ele>-25.895490</ele>
|
|
<time>2026-07-10T12:26:53.000Z</time>
|
|
</trkpt>
|
|
<trkpt lat="55.037007" lon="8.638415">
|
|
<ele>-25.969060</ele>
|
|
<time>2026-07-10T12:26:54.000Z</time>
|
|
</trkpt>
|
|
<trkpt lat="55.037071" lon="8.638413">
|
|
<ele>-26.041510</ele>
|
|
<time>2026-07-10T12:26:55.000Z</time>
|
|
</trkpt>
|
|
<trkpt lat="55.037135" lon="8.638414">
|
|
<ele>-26.113952</ele>
|
|
<time>2026-07-10T12:26:56.000Z</time>
|
|
</trkpt>
|
|
<trkpt lat="55.037201" lon="8.638418">
|
|
<ele>-26.188700</ele>
|
|
<time>2026-07-10T12:26:57.000Z</time>
|
|
</trkpt>
|
|
<trkpt lat="55.037267" lon="8.638423">
|
|
<ele>-26.263472</ele>
|
|
<time>2026-07-10T12:26:58.000Z</time>
|
|
</trkpt>
|
|
<trkpt lat="55.037334" lon="8.638428">
|
|
<ele>-26.339376</ele>
|
|
<time>2026-07-10T12:26:59.000Z</time>
|
|
</trkpt>
|
|
<trkpt lat="55.037400" lon="8.638433">
|
|
<ele>-26.414149</ele>
|
|
<time>2026-07-10T12:27:00.000Z</time>
|
|
</trkpt>
|
|
<trkpt lat="55.037468" lon="8.638438">
|
|
<ele>-26.491183</ele>
|
|
<time>2026-07-10T12:27:01.000Z</time>
|
|
</trkpt>
|
|
<trkpt lat="55.037534" lon="8.638445">
|
|
<ele>-26.556307</ele>
|
|
<time>2026-07-10T12:27:02.000Z</time>
|
|
</trkpt>
|
|
<trkpt lat="55.037601" lon="8.638455">
|
|
<ele>-26.613056</ele>
|
|
<time>2026-07-10T12:27:03.000Z</time>
|
|
</trkpt>
|
|
<trkpt lat="55.037666" lon="8.638465">
|
|
<ele>-26.668124</ele>
|
|
<time>2026-07-10T12:27:04.000Z</time>
|
|
</trkpt>
|
|
<trkpt lat="55.037731" lon="8.638475">
|
|
<ele>-26.723191</ele>
|
|
<time>2026-07-10T12:27:05.000Z</time>
|
|
</trkpt>
|
|
<trkpt lat="55.037797" lon="8.638485">
|
|
<ele>-26.779099</ele>
|
|
<time>2026-07-10T12:27:06.000Z</time>
|
|
</trkpt>
|
|
<trkpt lat="55.037863" lon="8.638492">
|
|
<ele>-26.834901</ele>
|
|
<time>2026-07-10T12:27:07.000Z</time>
|
|
</trkpt>
|
|
<trkpt lat="55.037926" lon="8.638501">
|
|
<ele>-26.888245</ele>
|
|
<time>2026-07-10T12:27:08.000Z</time>
|
|
</trkpt>
|
|
<trkpt lat="55.037991" lon="8.638511">
|
|
<ele>-26.943313</ele>
|
|
<time>2026-07-10T12:27:09.000Z</time>
|
|
</trkpt>
|
|
<trkpt lat="55.038055" lon="8.638524">
|
|
<ele>-26.997688</ele>
|
|
<time>2026-07-10T12:27:10.000Z</time>
|
|
</trkpt>
|
|
<trkpt lat="55.038117" lon="8.638537">
|
|
<ele>-27.050388</ele>
|
|
<time>2026-07-10T12:27:11.000Z</time>
|
|
</trkpt>
|
|
<trkpt lat="55.038180" lon="8.638552">
|
|
<ele>-27.104047</ele>
|
|
<time>2026-07-10T12:27:12.000Z</time>
|
|
</trkpt>
|
|
<trkpt lat="55.038245" lon="8.638568">
|
|
<ele>-27.159445</ele>
|
|
<time>2026-07-10T12:27:13.000Z</time>
|
|
</trkpt>
|
|
<trkpt lat="55.038307" lon="8.638585">
|
|
<ele>-27.212410</ele>
|
|
<time>2026-07-10T12:27:14.000Z</time>
|
|
</trkpt>
|
|
<trkpt lat="55.038371" lon="8.638601">
|
|
<ele>-27.266972</ele>
|
|
<time>2026-07-10T12:27:15.000Z</time>
|
|
</trkpt>
|
|
<trkpt lat="55.038435" lon="8.638618">
|
|
<ele>-27.321605</ele>
|
|
<time>2026-07-10T12:27:16.000Z</time>
|
|
</trkpt>
|
|
<trkpt lat="55.038496" lon="8.638632">
|
|
<ele>-27.373527</ele>
|
|
<time>2026-07-10T12:27:17.000Z</time>
|
|
</trkpt>
|
|
<trkpt lat="55.038559" lon="8.638647">
|
|
<ele>-27.427187</ele>
|
|
<time>2026-07-10T12:27:18.000Z</time>
|
|
</trkpt>
|
|
<trkpt lat="55.038623" lon="8.638661">
|
|
<ele>-27.481620</ele>
|
|
<time>2026-07-10T12:27:19.000Z</time>
|
|
</trkpt>
|
|
<trkpt lat="55.038687" lon="8.638676">
|
|
<ele>-27.536116</ele>
|
|
<time>2026-07-10T12:27:20.000Z</time>
|
|
</trkpt>
|
|
<trkpt lat="55.038749" lon="8.638692">
|
|
<ele>-27.589008</ele>
|
|
<time>2026-07-10T12:27:21.000Z</time>
|
|
</trkpt>
|
|
<trkpt lat="55.038813" lon="8.638707">
|
|
<ele>-27.643503</ele>
|
|
<time>2026-07-10T12:27:22.000Z</time>
|
|
</trkpt>
|
|
<trkpt lat="55.038878" lon="8.638723">
|
|
<ele>-27.698901</ele>
|
|
<time>2026-07-10T12:27:23.000Z</time>
|
|
</trkpt>
|
|
<trkpt lat="55.038944" lon="8.638739">
|
|
<ele>-27.755135</ele>
|
|
<time>2026-07-10T12:27:24.000Z</time>
|
|
</trkpt>
|
|
<trkpt lat="55.039008" lon="8.638753">
|
|
<ele>-27.809568</ele>
|
|
<time>2026-07-10T12:27:25.000Z</time>
|
|
</trkpt>
|
|
<trkpt lat="55.039070" lon="8.638768">
|
|
<ele>-27.862392</ele>
|
|
<time>2026-07-10T12:27:26.000Z</time>
|
|
</trkpt>
|
|
<trkpt lat="55.039135" lon="8.638783">
|
|
<ele>-27.917724</ele>
|
|
<time>2026-07-10T12:27:27.000Z</time>
|
|
</trkpt>
|
|
<trkpt lat="55.039198" lon="8.638798">
|
|
<ele>-27.971383</ele>
|
|
<time>2026-07-10T12:27:28.000Z</time>
|
|
</trkpt>
|
|
<trkpt lat="55.039261" lon="8.638817">
|
|
<ele>-28.025338</ele>
|
|
<time>2026-07-10T12:27:29.000Z</time>
|
|
</trkpt>
|
|
<trkpt lat="55.039325" lon="8.638836">
|
|
<ele>-28.068243</ele>
|
|
<time>2026-07-10T12:27:30.000Z</time>
|
|
</trkpt>
|
|
<trkpt lat="55.039386" lon="8.638854">
|
|
<ele>-28.102413</ele>
|
|
<time>2026-07-10T12:27:31.000Z</time>
|
|
</trkpt>
|
|
<trkpt lat="55.039448" lon="8.638873">
|
|
<ele>-28.137181</ele>
|
|
<time>2026-07-10T12:27:32.000Z</time>
|
|
</trkpt>
|
|
<trkpt lat="55.039513" lon="8.638897">
|
|
<ele>-28.173876</ele>
|
|
<time>2026-07-10T12:27:33.000Z</time>
|
|
</trkpt>
|
|
<trkpt lat="55.039576" lon="8.638919">
|
|
<ele>-28.209362</ele>
|
|
<time>2026-07-10T12:27:34.000Z</time>
|
|
</trkpt>
|
|
<trkpt lat="55.039638" lon="8.638941">
|
|
<ele>-28.244306</ele>
|
|
<time>2026-07-10T12:27:35.000Z</time>
|
|
</trkpt>
|
|
<trkpt lat="55.039700" lon="8.638961">
|
|
<ele>-28.279130</ele>
|
|
<time>2026-07-10T12:27:36.000Z</time>
|
|
</trkpt>
|
|
<trkpt lat="55.039765" lon="8.638981">
|
|
<ele>-28.315584</ele>
|
|
<time>2026-07-10T12:27:37.000Z</time>
|
|
</trkpt>
|
|
<trkpt lat="55.039828" lon="8.638998">
|
|
<ele>-28.350794</ele>
|
|
<time>2026-07-10T12:27:38.000Z</time>
|
|
</trkpt>
|
|
<trkpt lat="55.039889" lon="8.639017">
|
|
<ele>-28.385018</ele>
|
|
<time>2026-07-10T12:27:39.000Z</time>
|
|
</trkpt>
|
|
<trkpt lat="55.039954" lon="8.639037">
|
|
<ele>-28.421472</ele>
|
|
<time>2026-07-10T12:27:40.000Z</time>
|
|
</trkpt>
|
|
<trkpt lat="55.040015" lon="8.639059">
|
|
<ele>-28.455876</ele>
|
|
<time>2026-07-10T12:27:41.000Z</time>
|
|
</trkpt>
|
|
<trkpt lat="55.040075" lon="8.639086">
|
|
<ele>-28.490099</ele>
|
|
<time>2026-07-10T12:27:42.000Z</time>
|
|
</trkpt>
|
|
<trkpt lat="55.040135" lon="8.639114">
|
|
<ele>-28.524402</ele>
|
|
<time>2026-07-10T12:27:43.000Z</time>
|
|
</trkpt>
|
|
<trkpt lat="55.040196" lon="8.639141">
|
|
<ele>-28.559160</ele>
|
|
<time>2026-07-10T12:27:44.000Z</time>
|
|
</trkpt>
|
|
<trkpt lat="55.040263" lon="8.639168">
|
|
<ele>-28.597139</ele>
|
|
<time>2026-07-10T12:27:45.000Z</time>
|
|
</trkpt>
|
|
<trkpt lat="55.040325" lon="8.639195">
|
|
<ele>-28.632433</ele>
|
|
<time>2026-07-10T12:27:46.000Z</time>
|
|
</trkpt>
|
|
<trkpt lat="55.040389" lon="8.639224">
|
|
<ele>-28.668953</ele>
|
|
<time>2026-07-10T12:27:47.000Z</time>
|
|
</trkpt>
|
|
<trkpt lat="55.040448" lon="8.639253">
|
|
<ele>-28.702808</ele>
|
|
<time>2026-07-10T12:27:48.000Z</time>
|
|
</trkpt>
|
|
<trkpt lat="55.040507" lon="8.639282">
|
|
<ele>-28.736662</ele>
|
|
<time>2026-07-10T12:27:49.000Z</time>
|
|
</trkpt>
|
|
<trkpt lat="55.040575" lon="8.639316">
|
|
<ele>-28.775731</ele>
|
|
<time>2026-07-10T12:27:50.000Z</time>
|
|
</trkpt>
|
|
<trkpt lat="55.040636" lon="8.639347">
|
|
<ele>-28.810822</ele>
|
|
<time>2026-07-10T12:27:51.000Z</time>
|
|
</trkpt>
|
|
<trkpt lat="55.040697" lon="8.639379">
|
|
<ele>-28.846002</ele>
|
|
<time>2026-07-10T12:27:52.000Z</time>
|
|
</trkpt>
|
|
<trkpt lat="55.040758" lon="8.639413">
|
|
<ele>-28.881370</ele>
|
|
<time>2026-07-10T12:27:53.000Z</time>
|
|
</trkpt>
|
|
<trkpt lat="55.040818" lon="8.639448">
|
|
<ele>-28.916311</ele>
|
|
<time>2026-07-10T12:27:54.000Z</time>
|
|
</trkpt>
|
|
<trkpt lat="55.040880" lon="8.639483">
|
|
<ele>-28.952302</ele>
|
|
<time>2026-07-10T12:27:55.000Z</time>
|
|
</trkpt>
|
|
<trkpt lat="55.040942" lon="8.639521">
|
|
<ele>-28.988596</ele>
|
|
<time>2026-07-10T12:27:56.000Z</time>
|
|
</trkpt>
|
|
<trkpt lat="55.041003" lon="8.639557">
|
|
<ele>-29.024162</ele>
|
|
<time>2026-07-10T12:27:57.000Z</time>
|
|
</trkpt>
|
|
<trkpt lat="55.041063" lon="8.639594">
|
|
<ele>-29.038985</ele>
|
|
<time>2026-07-10T12:27:58.000Z</time>
|
|
</trkpt>
|
|
<trkpt lat="55.041121" lon="8.639631">
|
|
<ele>-29.038686</ele>
|
|
<time>2026-07-10T12:27:59.000Z</time>
|
|
</trkpt>
|
|
<trkpt lat="55.041181" lon="8.639669">
|
|
<ele>-29.038378</ele>
|
|
<time>2026-07-10T12:28:00.000Z</time>
|
|
</trkpt>
|
|
<trkpt lat="55.041239" lon="8.639706">
|
|
<ele>-29.038079</ele>
|
|
<time>2026-07-10T12:28:01.000Z</time>
|
|
</trkpt>
|
|
<trkpt lat="55.041299" lon="8.639744">
|
|
<ele>-29.037770</ele>
|
|
<time>2026-07-10T12:28:02.000Z</time>
|
|
</trkpt>
|
|
<trkpt lat="55.041355" lon="8.639782">
|
|
<ele>-29.037479</ele>
|
|
<time>2026-07-10T12:28:03.000Z</time>
|
|
</trkpt>
|
|
<trkpt lat="55.041409" lon="8.639821">
|
|
<ele>-29.037196</ele>
|
|
<time>2026-07-10T12:28:04.000Z</time>
|
|
</trkpt>
|
|
<trkpt lat="55.041467" lon="8.639861">
|
|
<ele>-29.036894</ele>
|
|
<time>2026-07-10T12:28:05.000Z</time>
|
|
</trkpt>
|
|
<trkpt lat="55.041524" lon="8.639901">
|
|
<ele>-29.036597</ele>
|
|
<time>2026-07-10T12:28:06.000Z</time>
|
|
</trkpt>
|
|
<trkpt lat="55.041581" lon="8.639940">
|
|
<ele>-29.036300</ele>
|
|
<time>2026-07-10T12:28:07.000Z</time>
|
|
</trkpt>
|
|
<trkpt lat="55.041640" lon="8.639982">
|
|
<ele>-29.035992</ele>
|
|
<time>2026-07-10T12:28:08.000Z</time>
|
|
</trkpt>
|
|
<trkpt lat="55.041699" lon="8.640024">
|
|
<ele>-29.035683</ele>
|
|
<time>2026-07-10T12:28:09.000Z</time>
|
|
</trkpt>
|
|
<trkpt lat="55.041752" lon="8.640067">
|
|
<ele>-29.035401</ele>
|
|
<time>2026-07-10T12:28:10.000Z</time>
|
|
</trkpt>
|
|
<trkpt lat="55.041809" lon="8.640113">
|
|
<ele>-29.035097</ele>
|
|
<time>2026-07-10T12:28:11.000Z</time>
|
|
</trkpt>
|
|
<trkpt lat="55.041864" lon="8.640160">
|
|
<ele>-29.034800</ele>
|
|
<time>2026-07-10T12:28:12.000Z</time>
|
|
</trkpt>
|
|
<trkpt lat="55.041920" lon="8.640205">
|
|
<ele>-29.034502</ele>
|
|
<time>2026-07-10T12:28:13.000Z</time>
|
|
</trkpt>
|
|
<trkpt lat="55.041973" lon="8.640252">
|
|
<ele>-29.034214</ele>
|
|
<time>2026-07-10T12:28:14.000Z</time>
|
|
</trkpt>
|
|
<trkpt lat="55.042031" lon="8.640303">
|
|
<ele>-29.033900</ele>
|
|
<time>2026-07-10T12:28:15.000Z</time>
|
|
</trkpt>
|
|
<trkpt lat="55.042085" lon="8.640351">
|
|
<ele>-29.033606</ele>
|
|
<time>2026-07-10T12:28:16.000Z</time>
|
|
</trkpt>
|
|
<trkpt lat="55.042141" lon="8.640399">
|
|
<ele>-29.033304</ele>
|
|
<time>2026-07-10T12:28:17.000Z</time>
|
|
</trkpt>
|
|
<trkpt lat="55.042195" lon="8.640450">
|
|
<ele>-29.033007</ele>
|
|
<time>2026-07-10T12:28:18.000Z</time>
|
|
</trkpt>
|
|
<trkpt lat="55.042252" lon="8.640502">
|
|
<ele>-29.032696</ele>
|
|
<time>2026-07-10T12:28:19.000Z</time>
|
|
</trkpt>
|
|
<trkpt lat="55.042307" lon="8.640553">
|
|
<ele>-29.032394</ele>
|
|
<time>2026-07-10T12:28:20.000Z</time>
|
|
</trkpt>
|
|
<trkpt lat="55.042363" lon="8.640604">
|
|
<ele>-29.032089</ele>
|
|
<time>2026-07-10T12:28:21.000Z</time>
|
|
</trkpt>
|
|
<trkpt lat="55.042417" lon="8.640658">
|
|
<ele>-29.031787</ele>
|
|
<time>2026-07-10T12:28:22.000Z</time>
|
|
</trkpt>
|
|
<trkpt lat="55.042474" lon="8.640713">
|
|
<ele>-29.031472</ele>
|
|
<time>2026-07-10T12:28:23.000Z</time>
|
|
</trkpt>
|
|
<trkpt lat="55.042531" lon="8.640771">
|
|
<ele>-29.031153</ele>
|
|
<time>2026-07-10T12:28:24.000Z</time>
|
|
</trkpt>
|
|
<trkpt lat="55.042586" lon="8.640828">
|
|
<ele>-29.030843</ele>
|
|
<time>2026-07-10T12:28:25.000Z</time>
|
|
</trkpt>
|
|
<trkpt lat="55.042646" lon="8.640889">
|
|
<ele>-29.030507</ele>
|
|
<time>2026-07-10T12:28:26.000Z</time>
|
|
</trkpt>
|
|
<trkpt lat="55.042702" lon="8.640951">
|
|
<ele>-29.026470</ele>
|
|
<time>2026-07-10T12:28:27.000Z</time>
|
|
</trkpt>
|
|
<trkpt lat="55.042757" lon="8.641013">
|
|
<ele>-29.021789</ele>
|
|
<time>2026-07-10T12:28:28.000Z</time>
|
|
</trkpt>
|
|
<trkpt lat="55.042812" lon="8.641076">
|
|
<ele>-29.017084</ele>
|
|
<time>2026-07-10T12:28:29.000Z</time>
|
|
</trkpt>
|
|
<trkpt lat="55.042866" lon="8.641137">
|
|
<ele>-29.012485</ele>
|
|
<time>2026-07-10T12:28:30.000Z</time>
|
|
</trkpt>
|
|
<trkpt lat="55.042923" lon="8.641199">
|
|
<ele>-29.007682</ele>
|
|
<time>2026-07-10T12:28:31.000Z</time>
|
|
</trkpt>
|
|
<trkpt lat="55.042977" lon="8.641260">
|
|
<ele>-29.003083</ele>
|
|
<time>2026-07-10T12:28:32.000Z</time>
|
|
</trkpt>
|
|
<trkpt lat="55.043030" lon="8.641322">
|
|
<ele>-28.998521</ele>
|
|
<time>2026-07-10T12:28:33.000Z</time>
|
|
</trkpt>
|
|
<trkpt lat="55.043084" lon="8.641386">
|
|
<ele>-28.993853</ele>
|
|
<time>2026-07-10T12:28:34.000Z</time>
|
|
</trkpt>
|
|
<trkpt lat="55.043136" lon="8.641451">
|
|
<ele>-28.989280</ele>
|
|
<time>2026-07-10T12:28:35.000Z</time>
|
|
</trkpt>
|
|
<trkpt lat="55.043186" lon="8.641515">
|
|
<ele>-28.984846</ele>
|
|
<time>2026-07-10T12:28:36.000Z</time>
|
|
</trkpt>
|
|
<trkpt lat="55.043239" lon="8.641576">
|
|
<ele>-28.980306</ele>
|
|
<time>2026-07-10T12:28:37.000Z</time>
|
|
</trkpt>
|
|
<trkpt lat="55.043292" lon="8.641635">
|
|
<ele>-28.975811</ele>
|
|
<time>2026-07-10T12:28:38.000Z</time>
|
|
</trkpt>
|
|
<trkpt lat="55.043342" lon="8.641691">
|
|
<ele>-28.971563</ele>
|
|
<time>2026-07-10T12:28:39.000Z</time>
|
|
</trkpt>
|
|
<trkpt lat="55.043391" lon="8.641746">
|
|
<ele>-28.967397</ele>
|
|
<time>2026-07-10T12:28:40.000Z</time>
|
|
</trkpt>
|
|
<trkpt lat="55.043440" lon="8.641802">
|
|
<ele>-28.963209</ele>
|
|
<time>2026-07-10T12:28:41.000Z</time>
|
|
</trkpt>
|
|
<trkpt lat="55.043499" lon="8.641871">
|
|
<ele>-28.958131</ele>
|
|
<time>2026-07-10T12:28:42.000Z</time>
|
|
</trkpt>
|
|
<trkpt lat="55.043551" lon="8.641933">
|
|
<ele>-28.953628</ele>
|
|
<time>2026-07-10T12:28:43.000Z</time>
|
|
</trkpt>
|
|
<trkpt lat="55.043601" lon="8.641993">
|
|
<ele>-28.949289</ele>
|
|
<time>2026-07-10T12:28:44.000Z</time>
|
|
</trkpt>
|
|
<trkpt lat="55.043651" lon="8.642053">
|
|
<ele>-28.944950</ele>
|
|
<time>2026-07-10T12:28:45.000Z</time>
|
|
</trkpt>
|
|
<trkpt lat="55.043702" lon="8.642113">
|
|
<ele>-28.940552</ele>
|
|
<time>2026-07-10T12:28:46.000Z</time>
|
|
</trkpt>
|
|
<trkpt lat="55.043754" lon="8.642174">
|
|
<ele>-28.936072</ele>
|
|
<time>2026-07-10T12:28:47.000Z</time>
|
|
</trkpt>
|
|
<trkpt lat="55.043805" lon="8.642233">
|
|
<ele>-28.931697</ele>
|
|
<time>2026-07-10T12:28:48.000Z</time>
|
|
</trkpt>
|
|
<trkpt lat="55.043857" lon="8.642293">
|
|
<ele>-28.927240</ele>
|
|
<time>2026-07-10T12:28:49.000Z</time>
|
|
</trkpt>
|
|
<trkpt lat="55.043907" lon="8.642354">
|
|
<ele>-28.922878</ele>
|
|
<time>2026-07-10T12:28:50.000Z</time>
|
|
</trkpt>
|
|
<trkpt lat="55.043960" lon="8.642415">
|
|
<ele>-28.918338</ele>
|
|
<time>2026-07-10T12:28:51.000Z</time>
|
|
</trkpt>
|
|
<trkpt lat="55.044013" lon="8.642480">
|
|
<ele>-28.913706</ele>
|
|
<time>2026-07-10T12:28:52.000Z</time>
|
|
</trkpt>
|
|
<trkpt lat="55.044063" lon="8.642542">
|
|
<ele>-28.909320</ele>
|
|
<time>2026-07-10T12:28:53.000Z</time>
|
|
</trkpt>
|
|
<trkpt lat="55.044118" lon="8.642609">
|
|
<ele>-28.904524</ele>
|
|
<time>2026-07-10T12:28:54.000Z</time>
|
|
</trkpt>
|
|
<trkpt lat="55.044171" lon="8.642672">
|
|
<ele>-28.899509</ele>
|
|
<time>2026-07-10T12:28:55.000Z</time>
|
|
</trkpt>
|
|
<trkpt lat="55.044222" lon="8.642735">
|
|
<ele>-28.894032</ele>
|
|
<time>2026-07-10T12:28:56.000Z</time>
|
|
</trkpt>
|
|
<trkpt lat="55.044272" lon="8.642798">
|
|
<ele>-28.888626</ele>
|
|
<time>2026-07-10T12:28:57.000Z</time>
|
|
</trkpt>
|
|
<trkpt lat="55.044327" lon="8.642865">
|
|
<ele>-28.882746</ele>
|
|
<time>2026-07-10T12:28:58.000Z</time>
|
|
</trkpt>
|
|
<trkpt lat="55.044380" lon="8.642927">
|
|
<ele>-28.877152</ele>
|
|
<time>2026-07-10T12:28:59.000Z</time>
|
|
</trkpt>
|
|
<trkpt lat="55.044434" lon="8.642988">
|
|
<ele>-28.871513</ele>
|
|
<time>2026-07-10T12:29:00.000Z</time>
|
|
</trkpt>
|
|
<trkpt lat="55.044486" lon="8.643052">
|
|
<ele>-28.865935</ele>
|
|
<time>2026-07-10T12:29:01.000Z</time>
|
|
</trkpt>
|
|
<trkpt lat="55.044537" lon="8.643117">
|
|
<ele>-28.860399</ele>
|
|
<time>2026-07-10T12:29:02.000Z</time>
|
|
</trkpt>
|
|
<trkpt lat="55.044589" lon="8.643181">
|
|
<ele>-28.854821</ele>
|
|
<time>2026-07-10T12:29:03.000Z</time>
|
|
</trkpt>
|
|
<trkpt lat="55.044637" lon="8.643241">
|
|
<ele>-28.849646</ele>
|
|
<time>2026-07-10T12:29:04.000Z</time>
|
|
</trkpt>
|
|
<trkpt lat="55.044686" lon="8.643302">
|
|
<ele>-28.844369</ele>
|
|
<time>2026-07-10T12:29:05.000Z</time>
|
|
</trkpt>
|
|
<trkpt lat="55.044738" lon="8.643367">
|
|
<ele>-28.838762</ele>
|
|
<time>2026-07-10T12:29:06.000Z</time>
|
|
</trkpt>
|
|
<trkpt lat="55.044788" lon="8.643427">
|
|
<ele>-28.833443</ele>
|
|
<time>2026-07-10T12:29:07.000Z</time>
|
|
</trkpt>
|
|
<trkpt lat="55.044839" lon="8.643484">
|
|
<ele>-28.828134</ele>
|
|
<time>2026-07-10T12:29:08.000Z</time>
|
|
</trkpt>
|
|
<trkpt lat="55.044892" lon="8.643542">
|
|
<ele>-28.822650</ele>
|
|
<time>2026-07-10T12:29:09.000Z</time>
|
|
</trkpt>
|
|
<trkpt lat="55.044944" lon="8.643601">
|
|
<ele>-28.817213</ele>
|
|
<time>2026-07-10T12:29:10.000Z</time>
|
|
</trkpt>
|
|
<trkpt lat="55.044995" lon="8.643660">
|
|
<ele>-28.811849</ele>
|
|
<time>2026-07-10T12:29:11.000Z</time>
|
|
</trkpt>
|
|
<trkpt lat="55.045048" lon="8.643717">
|
|
<ele>-28.806392</ele>
|
|
<time>2026-07-10T12:29:12.000Z</time>
|
|
</trkpt>
|
|
<trkpt lat="55.045102" lon="8.643779">
|
|
<ele>-28.800725</ele>
|
|
<time>2026-07-10T12:29:13.000Z</time>
|
|
</trkpt>
|
|
<trkpt lat="55.045155" lon="8.643843">
|
|
<ele>-28.795076</ele>
|
|
<time>2026-07-10T12:29:14.000Z</time>
|
|
</trkpt>
|
|
<trkpt lat="55.045208" lon="8.643907">
|
|
<ele>-28.789426</ele>
|
|
<time>2026-07-10T12:29:15.000Z</time>
|
|
</trkpt>
|
|
<trkpt lat="55.045263" lon="8.643968">
|
|
<ele>-28.783713</ele>
|
|
<time>2026-07-10T12:29:16.000Z</time>
|
|
</trkpt>
|
|
<trkpt lat="55.045318" lon="8.644024">
|
|
<ele>-28.778131</ele>
|
|
<time>2026-07-10T12:29:17.000Z</time>
|
|
</trkpt>
|
|
<trkpt lat="55.045370" lon="8.644078">
|
|
<ele>-28.772827</ele>
|
|
<time>2026-07-10T12:29:18.000Z</time>
|
|
</trkpt>
|
|
<trkpt lat="55.045431" lon="8.644139">
|
|
<ele>-28.766664</ele>
|
|
<time>2026-07-10T12:29:19.000Z</time>
|
|
</trkpt>
|
|
<trkpt lat="55.045488" lon="8.644195">
|
|
<ele>-28.760930</ele>
|
|
<time>2026-07-10T12:29:20.000Z</time>
|
|
</trkpt>
|
|
<trkpt lat="55.045545" lon="8.644250">
|
|
<ele>-28.755220</ele>
|
|
<time>2026-07-10T12:29:21.000Z</time>
|
|
</trkpt>
|
|
<trkpt lat="55.045604" lon="8.644306">
|
|
<ele>-28.749332</ele>
|
|
<time>2026-07-10T12:29:22.000Z</time>
|
|
</trkpt>
|
|
<trkpt lat="55.045664" lon="8.644359">
|
|
<ele>-28.745040</ele>
|
|
<time>2026-07-10T12:29:23.000Z</time>
|
|
</trkpt>
|
|
<trkpt lat="55.045721" lon="8.644412">
|
|
<ele>-28.751850</ele>
|
|
<time>2026-07-10T12:29:24.000Z</time>
|
|
</trkpt>
|
|
<trkpt lat="55.045777" lon="8.644463">
|
|
<ele>-28.758510</ele>
|
|
<time>2026-07-10T12:29:25.000Z</time>
|
|
</trkpt>
|
|
<trkpt lat="55.045834" lon="8.644514">
|
|
<ele>-28.765265</ele>
|
|
<time>2026-07-10T12:29:26.000Z</time>
|
|
</trkpt>
|
|
<trkpt lat="55.045896" lon="8.644568">
|
|
<ele>-28.772571</ele>
|
|
<time>2026-07-10T12:29:27.000Z</time>
|
|
</trkpt>
|
|
<trkpt lat="55.045955" lon="8.644618">
|
|
<ele>-28.779487</ele>
|
|
<time>2026-07-10T12:29:28.000Z</time>
|
|
</trkpt>
|
|
<trkpt lat="55.046015" lon="8.644668">
|
|
<ele>-28.786498</ele>
|
|
<time>2026-07-10T12:29:29.000Z</time>
|
|
</trkpt>
|
|
<trkpt lat="55.046072" lon="8.644716">
|
|
<ele>-28.793172</ele>
|
|
<time>2026-07-10T12:29:30.000Z</time>
|
|
</trkpt>
|
|
<trkpt lat="55.046130" lon="8.644763">
|
|
<ele>-28.799915</ele>
|
|
<time>2026-07-10T12:29:31.000Z</time>
|
|
</trkpt>
|
|
<trkpt lat="55.046189" lon="8.644808">
|
|
<ele>-28.806704</ele>
|
|
<time>2026-07-10T12:29:32.000Z</time>
|
|
</trkpt>
|
|
<trkpt lat="55.046246" lon="8.644851">
|
|
<ele>-28.813252</ele>
|
|
<time>2026-07-10T12:29:33.000Z</time>
|
|
</trkpt>
|
|
<trkpt lat="55.046303" lon="8.644894">
|
|
<ele>-28.819800</ele>
|
|
<time>2026-07-10T12:29:34.000Z</time>
|
|
</trkpt>
|
|
<trkpt lat="55.046358" lon="8.644934">
|
|
<ele>-28.826083</ele>
|
|
<time>2026-07-10T12:29:35.000Z</time>
|
|
</trkpt>
|
|
<trkpt lat="55.046418" lon="8.644982">
|
|
<ele>-28.833043</ele>
|
|
<time>2026-07-10T12:29:36.000Z</time>
|
|
</trkpt>
|
|
<trkpt lat="55.046480" lon="8.645025">
|
|
<ele>-28.840078</ele>
|
|
<time>2026-07-10T12:29:37.000Z</time>
|
|
</trkpt>
|
|
<trkpt lat="55.046537" lon="8.645065">
|
|
<ele>-28.846556</ele>
|
|
<time>2026-07-10T12:29:38.000Z</time>
|
|
</trkpt>
|
|
<trkpt lat="55.046594" lon="8.645105">
|
|
<ele>-28.853034</ele>
|
|
<time>2026-07-10T12:29:39.000Z</time>
|
|
</trkpt>
|
|
<trkpt lat="55.046651" lon="8.645146">
|
|
<ele>-28.859535</ele>
|
|
<time>2026-07-10T12:29:40.000Z</time>
|
|
</trkpt>
|
|
<trkpt lat="55.046707" lon="8.645186">
|
|
<ele>-28.865915</ele>
|
|
<time>2026-07-10T12:29:41.000Z</time>
|
|
</trkpt>
|
|
<trkpt lat="55.046766" lon="8.645229">
|
|
<ele>-28.872657</ele>
|
|
<time>2026-07-10T12:29:42.000Z</time>
|
|
</trkpt>
|
|
<trkpt lat="55.046823" lon="8.645270">
|
|
<ele>-28.879158</ele>
|
|
<time>2026-07-10T12:29:43.000Z</time>
|
|
</trkpt>
|
|
<trkpt lat="55.046881" lon="8.645310">
|
|
<ele>-28.885734</ele>
|
|
<time>2026-07-10T12:29:44.000Z</time>
|
|
</trkpt>
|
|
<trkpt lat="55.046938" lon="8.645350">
|
|
<ele>-28.892212</ele>
|
|
<time>2026-07-10T12:29:45.000Z</time>
|
|
</trkpt>
|
|
<trkpt lat="55.046995" lon="8.645390">
|
|
<ele>-28.898690</ele>
|
|
<time>2026-07-10T12:29:46.000Z</time>
|
|
</trkpt>
|
|
<trkpt lat="55.047052" lon="8.645430">
|
|
<ele>-28.905168</ele>
|
|
<time>2026-07-10T12:29:47.000Z</time>
|
|
</trkpt>
|
|
<trkpt lat="55.047108" lon="8.645469">
|
|
<ele>-28.911526</ele>
|
|
<time>2026-07-10T12:29:48.000Z</time>
|
|
</trkpt>
|
|
<trkpt lat="55.047167" lon="8.645508">
|
|
<ele>-28.918179</ele>
|
|
<time>2026-07-10T12:29:49.000Z</time>
|
|
</trkpt>
|
|
<trkpt lat="55.047223" lon="8.645548">
|
|
<ele>-28.924559</ele>
|
|
<time>2026-07-10T12:29:50.000Z</time>
|
|
</trkpt>
|
|
<trkpt lat="55.047277" lon="8.645585">
|
|
<ele>-28.930676</ele>
|
|
<time>2026-07-10T12:29:51.000Z</time>
|
|
</trkpt>
|
|
<trkpt lat="55.047334" lon="8.645623">
|
|
<ele>-28.930224</ele>
|
|
<time>2026-07-10T12:29:52.000Z</time>
|
|
</trkpt>
|
|
<trkpt lat="55.047391" lon="8.645661">
|
|
<ele>-28.923158</ele>
|
|
<time>2026-07-10T12:29:53.000Z</time>
|
|
</trkpt>
|
|
<trkpt lat="55.047445" lon="8.645698">
|
|
<ele>-28.916440</ele>
|
|
<time>2026-07-10T12:29:54.000Z</time>
|
|
</trkpt>
|
|
<trkpt lat="55.047501" lon="8.645737">
|
|
<ele>-28.909458</ele>
|
|
<time>2026-07-10T12:29:55.000Z</time>
|
|
</trkpt>
|
|
<trkpt lat="55.047555" lon="8.645776">
|
|
<ele>-28.902691</ele>
|
|
<time>2026-07-10T12:29:56.000Z</time>
|
|
</trkpt>
|
|
<trkpt lat="55.047612" lon="8.645814">
|
|
<ele>-28.895625</ele>
|
|
<time>2026-07-10T12:29:57.000Z</time>
|
|
</trkpt>
|
|
<trkpt lat="55.047668" lon="8.645850">
|
|
<ele>-28.888715</ele>
|
|
<time>2026-07-10T12:29:58.000Z</time>
|
|
</trkpt>
|
|
<trkpt lat="55.047722" lon="8.645886">
|
|
<ele>-28.882021</ele>
|
|
<time>2026-07-10T12:29:59.000Z</time>
|
|
</trkpt>
|
|
<trkpt lat="55.047780" lon="8.645921">
|
|
<ele>-28.874914</ele>
|
|
<time>2026-07-10T12:30:00.000Z</time>
|
|
</trkpt>
|
|
<trkpt lat="55.047835" lon="8.645958">
|
|
<ele>-28.868088</ele>
|
|
<time>2026-07-10T12:30:01.000Z</time>
|
|
</trkpt>
|
|
<trkpt lat="55.047891" lon="8.645994">
|
|
<ele>-28.861178</ele>
|
|
<time>2026-07-10T12:30:02.000Z</time>
|
|
</trkpt>
|
|
<trkpt lat="55.047947" lon="8.646033">
|
|
<ele>-28.854196</ele>
|
|
<time>2026-07-10T12:30:03.000Z</time>
|
|
</trkpt>
|
|
<trkpt lat="55.048001" lon="8.646074">
|
|
<ele>-28.847376</ele>
|
|
<time>2026-07-10T12:30:04.000Z</time>
|
|
</trkpt>
|
|
<trkpt lat="55.048058" lon="8.646117">
|
|
<ele>-28.840186</ele>
|
|
<time>2026-07-10T12:30:05.000Z</time>
|
|
</trkpt>
|
|
<trkpt lat="55.048116" lon="8.646158">
|
|
<ele>-28.832939</ele>
|
|
<time>2026-07-10T12:30:06.000Z</time>
|
|
</trkpt>
|
|
<trkpt lat="55.048173" lon="8.646195">
|
|
<ele>-28.825897</ele>
|
|
<time>2026-07-10T12:30:07.000Z</time>
|
|
</trkpt>
|
|
<trkpt lat="55.048230" lon="8.646231">
|
|
<ele>-28.818877</ele>
|
|
<time>2026-07-10T12:30:08.000Z</time>
|
|
</trkpt>
|
|
<trkpt lat="55.048286" lon="8.646268">
|
|
<ele>-28.811944</ele>
|
|
<time>2026-07-10T12:30:09.000Z</time>
|
|
</trkpt>
|
|
<trkpt lat="55.048344" lon="8.646309">
|
|
<ele>-28.804697</ele>
|
|
<time>2026-07-10T12:30:10.000Z</time>
|
|
</trkpt>
|
|
<trkpt lat="55.048398" lon="8.646351">
|
|
<ele>-28.797851</ele>
|
|
<time>2026-07-10T12:30:11.000Z</time>
|
|
</trkpt>
|
|
<trkpt lat="55.048456" lon="8.646391">
|
|
<ele>-28.790630</ele>
|
|
<time>2026-07-10T12:30:12.000Z</time>
|
|
</trkpt>
|
|
<trkpt lat="55.048513" lon="8.646426">
|
|
<ele>-28.783632</ele>
|
|
<time>2026-07-10T12:30:13.000Z</time>
|
|
</trkpt>
|
|
<trkpt lat="55.048571" lon="8.646459">
|
|
<ele>-28.776568</ele>
|
|
<time>2026-07-10T12:30:14.000Z</time>
|
|
</trkpt>
|
|
<trkpt lat="55.048631" lon="8.646492">
|
|
<ele>-28.769283</ele>
|
|
<time>2026-07-10T12:30:15.000Z</time>
|
|
</trkpt>
|
|
<trkpt lat="55.048687" lon="8.646531">
|
|
<ele>-28.762301</ele>
|
|
<time>2026-07-10T12:30:16.000Z</time>
|
|
</trkpt>
|
|
<trkpt lat="55.048740" lon="8.646572">
|
|
<ele>-28.755588</ele>
|
|
<time>2026-07-10T12:30:17.000Z</time>
|
|
</trkpt>
|
|
<trkpt lat="55.048792" lon="8.646615">
|
|
<ele>-28.748925</ele>
|
|
<time>2026-07-10T12:30:18.000Z</time>
|
|
</trkpt>
|
|
<trkpt lat="55.048840" lon="8.646653">
|
|
<ele>-28.742821</ele>
|
|
<time>2026-07-10T12:30:19.000Z</time>
|
|
</trkpt>
|
|
<trkpt lat="55.048897" lon="8.646692">
|
|
<ele>-28.735732</ele>
|
|
<time>2026-07-10T12:30:20.000Z</time>
|
|
</trkpt>
|
|
<trkpt lat="55.048951" lon="8.646728">
|
|
<ele>-28.729038</ele>
|
|
<time>2026-07-10T12:30:21.000Z</time>
|
|
</trkpt>
|
|
<trkpt lat="55.049008" lon="8.646767">
|
|
<ele>-28.706506</ele>
|
|
<time>2026-07-10T12:30:22.000Z</time>
|
|
</trkpt>
|
|
<trkpt lat="55.049061" lon="8.646807">
|
|
<ele>-28.671089</ele>
|
|
<time>2026-07-10T12:30:23.000Z</time>
|
|
</trkpt>
|
|
<trkpt lat="55.049114" lon="8.646844">
|
|
<ele>-28.636078</ele>
|
|
<time>2026-07-10T12:30:24.000Z</time>
|
|
</trkpt>
|
|
<trkpt lat="55.049163" lon="8.646879">
|
|
<ele>-28.603604</ele>
|
|
<time>2026-07-10T12:30:25.000Z</time>
|
|
</trkpt>
|
|
<trkpt lat="55.049213" lon="8.646914">
|
|
<ele>-28.570562</ele>
|
|
<time>2026-07-10T12:30:26.000Z</time>
|
|
</trkpt>
|
|
<trkpt lat="55.049267" lon="8.646951">
|
|
<ele>-28.534981</ele>
|
|
<time>2026-07-10T12:30:27.000Z</time>
|
|
</trkpt>
|
|
<trkpt lat="55.049321" lon="8.646985">
|
|
<ele>-28.499770</ele>
|
|
<time>2026-07-10T12:30:28.000Z</time>
|
|
</trkpt>
|
|
<trkpt lat="55.049373" lon="8.647022">
|
|
<ele>-28.465328</ele>
|
|
<time>2026-07-10T12:30:29.000Z</time>
|
|
</trkpt>
|
|
<trkpt lat="55.049425" lon="8.647059">
|
|
<ele>-28.430885</ele>
|
|
<time>2026-07-10T12:30:30.000Z</time>
|
|
</trkpt>
|
|
<trkpt lat="55.049481" lon="8.647099">
|
|
<ele>-28.393772</ele>
|
|
<time>2026-07-10T12:30:31.000Z</time>
|
|
</trkpt>
|
|
<trkpt lat="55.049539" lon="8.647137">
|
|
<ele>-28.355774</ele>
|
|
<time>2026-07-10T12:30:32.000Z</time>
|
|
</trkpt>
|
|
<trkpt lat="55.049597" lon="8.647171">
|
|
<ele>-28.318247</ele>
|
|
<time>2026-07-10T12:30:33.000Z</time>
|
|
</trkpt>
|
|
<trkpt lat="55.049652" lon="8.647206">
|
|
<ele>-28.282340</ele>
|
|
<time>2026-07-10T12:30:34.000Z</time>
|
|
</trkpt>
|
|
<trkpt lat="55.049703" lon="8.647243">
|
|
<ele>-28.248465</ele>
|
|
<time>2026-07-10T12:30:35.000Z</time>
|
|
</trkpt>
|
|
<trkpt lat="55.049759" lon="8.647279">
|
|
<ele>-28.211862</ele>
|
|
<time>2026-07-10T12:30:36.000Z</time>
|
|
</trkpt>
|
|
<trkpt lat="55.049813" lon="8.647314">
|
|
<ele>-28.176531</ele>
|
|
<time>2026-07-10T12:30:37.000Z</time>
|
|
</trkpt>
|
|
<trkpt lat="55.049866" lon="8.647349">
|
|
<ele>-28.141774</ele>
|
|
<time>2026-07-10T12:30:38.000Z</time>
|
|
</trkpt>
|
|
<trkpt lat="55.049918" lon="8.647385">
|
|
<ele>-28.107463</ele>
|
|
<time>2026-07-10T12:30:39.000Z</time>
|
|
</trkpt>
|
|
<trkpt lat="55.049968" lon="8.647421">
|
|
<ele>-28.074288</ele>
|
|
<time>2026-07-10T12:30:40.000Z</time>
|
|
</trkpt>
|
|
<trkpt lat="55.050023" lon="8.647459">
|
|
<ele>-28.038007</ele>
|
|
<time>2026-07-10T12:30:41.000Z</time>
|
|
</trkpt>
|
|
<trkpt lat="55.050079" lon="8.647496">
|
|
<ele>-28.001281</ele>
|
|
<time>2026-07-10T12:30:42.000Z</time>
|
|
</trkpt>
|
|
<trkpt lat="55.050133" lon="8.647530">
|
|
<ele>-27.966071</ele>
|
|
<time>2026-07-10T12:30:43.000Z</time>
|
|
</trkpt>
|
|
<trkpt lat="55.050185" lon="8.647562">
|
|
<ele>-27.932252</ele>
|
|
<time>2026-07-10T12:30:44.000Z</time>
|
|
</trkpt>
|
|
<trkpt lat="55.050235" lon="8.647593">
|
|
<ele>-27.899707</ele>
|
|
<time>2026-07-10T12:30:45.000Z</time>
|
|
</trkpt>
|
|
<trkpt lat="55.050289" lon="8.647626">
|
|
<ele>-27.864615</ele>
|
|
<time>2026-07-10T12:30:46.000Z</time>
|
|
</trkpt>
|
|
<trkpt lat="55.050342" lon="8.647662">
|
|
<ele>-27.829732</ele>
|
|
<time>2026-07-10T12:30:47.000Z</time>
|
|
</trkpt>
|
|
<trkpt lat="55.050391" lon="8.647702">
|
|
<ele>-27.796554</ele>
|
|
<time>2026-07-10T12:30:48.000Z</time>
|
|
</trkpt>
|
|
<trkpt lat="55.050439" lon="8.647744">
|
|
<ele>-27.763621</ele>
|
|
<time>2026-07-10T12:30:49.000Z</time>
|
|
</trkpt>
|
|
<trkpt lat="55.050484" lon="8.647780">
|
|
<ele>-27.733259</ele>
|
|
<time>2026-07-10T12:30:50.000Z</time>
|
|
</trkpt>
|
|
<trkpt lat="55.050536" lon="8.647820">
|
|
<ele>-27.698405</ele>
|
|
<time>2026-07-10T12:30:51.000Z</time>
|
|
</trkpt>
|
|
<trkpt lat="55.050590" lon="8.647857">
|
|
<ele>-27.662824</ele>
|
|
<time>2026-07-10T12:30:52.000Z</time>
|
|
</trkpt>
|
|
<trkpt lat="55.050641" lon="8.647895">
|
|
<ele>-27.628812</ele>
|
|
<time>2026-07-10T12:30:53.000Z</time>
|
|
</trkpt>
|
|
<trkpt lat="55.050691" lon="8.647932">
|
|
<ele>-27.587890</ele>
|
|
<time>2026-07-10T12:30:54.000Z</time>
|
|
</trkpt>
|
|
<trkpt lat="55.050736" lon="8.647969">
|
|
<ele>-27.548722</ele>
|
|
<time>2026-07-10T12:30:55.000Z</time>
|
|
</trkpt>
|
|
<trkpt lat="55.050787" lon="8.648006">
|
|
<ele>-27.505234</ele>
|
|
<time>2026-07-10T12:30:56.000Z</time>
|
|
</trkpt>
|
|
<trkpt lat="55.050838" lon="8.648041">
|
|
<ele>-27.462083</ele>
|
|
<time>2026-07-10T12:30:57.000Z</time>
|
|
</trkpt>
|
|
<trkpt lat="55.050889" lon="8.648072">
|
|
<ele>-27.419560</ele>
|
|
<time>2026-07-10T12:30:58.000Z</time>
|
|
</trkpt>
|
|
<trkpt lat="55.050938" lon="8.648102">
|
|
<ele>-27.378672</ele>
|
|
<time>2026-07-10T12:30:59.000Z</time>
|
|
</trkpt>
|
|
<trkpt lat="55.050982" lon="8.648132">
|
|
<ele>-27.341477</ele>
|
|
<time>2026-07-10T12:31:00.000Z</time>
|
|
</trkpt>
|
|
<trkpt lat="55.051036" lon="8.648170">
|
|
<ele>-27.295631</ele>
|
|
<time>2026-07-10T12:31:01.000Z</time>
|
|
</trkpt>
|
|
<trkpt lat="55.051086" lon="8.648206">
|
|
<ele>-27.253043</ele>
|
|
<time>2026-07-10T12:31:02.000Z</time>
|
|
</trkpt>
|
|
<trkpt lat="55.051135" lon="8.648242">
|
|
<ele>-27.211181</ele>
|
|
<time>2026-07-10T12:31:03.000Z</time>
|
|
</trkpt>
|
|
<trkpt lat="55.051186" lon="8.648277">
|
|
<ele>-27.168031</ele>
|
|
<time>2026-07-10T12:31:04.000Z</time>
|
|
</trkpt>
|
|
<trkpt lat="55.051238" lon="8.648311">
|
|
<ele>-27.124307</ele>
|
|
<time>2026-07-10T12:31:05.000Z</time>
|
|
</trkpt>
|
|
<trkpt lat="55.051289" lon="8.648344">
|
|
<ele>-27.081479</ele>
|
|
<time>2026-07-10T12:31:06.000Z</time>
|
|
</trkpt>
|
|
<trkpt lat="55.051340" lon="8.648377">
|
|
<ele>-27.038650</ele>
|
|
<time>2026-07-10T12:31:07.000Z</time>
|
|
</trkpt>
|
|
<trkpt lat="55.051385" lon="8.648411">
|
|
<ele>-27.000040</ele>
|
|
<time>2026-07-10T12:31:08.000Z</time>
|
|
</trkpt>
|
|
<trkpt lat="55.051432" lon="8.648450">
|
|
<ele>-26.959063</ele>
|
|
<time>2026-07-10T12:31:09.000Z</time>
|
|
</trkpt>
|
|
<trkpt lat="55.051478" lon="8.648488">
|
|
<ele>-26.918990</ele>
|
|
<time>2026-07-10T12:31:10.000Z</time>
|
|
</trkpt>
|
|
<trkpt lat="55.051520" lon="8.648523">
|
|
<ele>-26.882344</ele>
|
|
<time>2026-07-10T12:31:11.000Z</time>
|
|
</trkpt>
|
|
<trkpt lat="55.051549" lon="8.648547">
|
|
<ele>-26.857072</ele>
|
|
<time>2026-07-10T12:31:12.000Z</time>
|
|
</trkpt>
|
|
<trkpt lat="55.051568" lon="8.648555">
|
|
<ele>-26.841682</ele>
|
|
<time>2026-07-10T12:31:33.000Z</time>
|
|
</trkpt>
|
|
<trkpt lat="55.051596" lon="8.648565">
|
|
<ele>-26.819178</ele>
|
|
<time>2026-07-10T12:31:34.000Z</time>
|
|
</trkpt>
|
|
<trkpt lat="55.051621" lon="8.648581">
|
|
<ele>-26.798211</ele>
|
|
<time>2026-07-10T12:31:35.000Z</time>
|
|
</trkpt>
|
|
<trkpt lat="55.051648" lon="8.648602">
|
|
<ele>-26.774936</ele>
|
|
<time>2026-07-10T12:31:36.000Z</time>
|
|
</trkpt>
|
|
<trkpt lat="55.051679" lon="8.648625">
|
|
<ele>-26.748413</ele>
|
|
<time>2026-07-10T12:31:37.000Z</time>
|
|
</trkpt>
|
|
<trkpt lat="55.051711" lon="8.648647">
|
|
<ele>-26.721332</ele>
|
|
<time>2026-07-10T12:31:38.000Z</time>
|
|
</trkpt>
|
|
<trkpt lat="55.051748" lon="8.648672">
|
|
<ele>-26.690091</ele>
|
|
<time>2026-07-10T12:31:39.000Z</time>
|
|
</trkpt>
|
|
<trkpt lat="55.051788" lon="8.648699">
|
|
<ele>-26.656321</ele>
|
|
<time>2026-07-10T12:31:40.000Z</time>
|
|
</trkpt>
|
|
<trkpt lat="55.051826" lon="8.648726">
|
|
<ele>-26.624016</ele>
|
|
<time>2026-07-10T12:31:41.000Z</time>
|
|
</trkpt>
|
|
<trkpt lat="55.051865" lon="8.648756">
|
|
<ele>-26.590457</ele>
|
|
<time>2026-07-10T12:31:42.000Z</time>
|
|
</trkpt>
|
|
<trkpt lat="55.051907" lon="8.648787">
|
|
<ele>-26.554551</ele>
|
|
<time>2026-07-10T12:31:43.000Z</time>
|
|
</trkpt>
|
|
<trkpt lat="55.051950" lon="8.648819">
|
|
<ele>-26.517744</ele>
|
|
<time>2026-07-10T12:31:44.000Z</time>
|
|
</trkpt>
|
|
<trkpt lat="55.051995" lon="8.648848">
|
|
<ele>-26.479972</ele>
|
|
<time>2026-07-10T12:31:45.000Z</time>
|
|
</trkpt>
|
|
<trkpt lat="55.052038" lon="8.648875">
|
|
<ele>-26.443990</ele>
|
|
<time>2026-07-10T12:31:46.000Z</time>
|
|
</trkpt>
|
|
<trkpt lat="55.052084" lon="8.648906">
|
|
<ele>-26.405163</ele>
|
|
<time>2026-07-10T12:31:47.000Z</time>
|
|
</trkpt>
|
|
<trkpt lat="55.052129" lon="8.648937">
|
|
<ele>-26.367070</ele>
|
|
<time>2026-07-10T12:31:48.000Z</time>
|
|
</trkpt>
|
|
<trkpt lat="55.052175" lon="8.648968">
|
|
<ele>-26.328243</ele>
|
|
<time>2026-07-10T12:31:49.000Z</time>
|
|
</trkpt>
|
|
<trkpt lat="55.052219" lon="8.648998">
|
|
<ele>-26.291048</ele>
|
|
<time>2026-07-10T12:31:50.000Z</time>
|
|
</trkpt>
|
|
<trkpt lat="55.052263" lon="8.649029">
|
|
<ele>-26.253686</ele>
|
|
<time>2026-07-10T12:31:51.000Z</time>
|
|
</trkpt>
|
|
<trkpt lat="55.052312" lon="8.649063">
|
|
<ele>-26.212166</ele>
|
|
<time>2026-07-10T12:31:52.000Z</time>
|
|
</trkpt>
|
|
<trkpt lat="55.052359" lon="8.649097">
|
|
<ele>-26.208141</ele>
|
|
<time>2026-07-10T12:31:53.000Z</time>
|
|
</trkpt>
|
|
<trkpt lat="55.052409" lon="8.649129">
|
|
<ele>-26.210745</ele>
|
|
<time>2026-07-10T12:31:54.000Z</time>
|
|
</trkpt>
|
|
<trkpt lat="55.052459" lon="8.649161">
|
|
<ele>-26.213349</ele>
|
|
<time>2026-07-10T12:31:55.000Z</time>
|
|
</trkpt>
|
|
<trkpt lat="55.052507" lon="8.649192">
|
|
<ele>-26.215851</ele>
|
|
<time>2026-07-10T12:31:56.000Z</time>
|
|
</trkpt>
|
|
<trkpt lat="55.052555" lon="8.649224">
|
|
<ele>-26.218363</ele>
|
|
<time>2026-07-10T12:31:57.000Z</time>
|
|
</trkpt>
|
|
<trkpt lat="55.052608" lon="8.649256">
|
|
<ele>-26.221105</ele>
|
|
<time>2026-07-10T12:31:58.000Z</time>
|
|
</trkpt>
|
|
<trkpt lat="55.052654" lon="8.649288">
|
|
<ele>-26.223527</ele>
|
|
<time>2026-07-10T12:31:59.000Z</time>
|
|
</trkpt>
|
|
<trkpt lat="55.052698" lon="8.649319">
|
|
<ele>-26.225846</ele>
|
|
<time>2026-07-10T12:32:00.000Z</time>
|
|
</trkpt>
|
|
<trkpt lat="55.052753" lon="8.649352">
|
|
<ele>-26.228690</ele>
|
|
<time>2026-07-10T12:32:01.000Z</time>
|
|
</trkpt>
|
|
<trkpt lat="55.052806" lon="8.649382">
|
|
<ele>-26.231414</ele>
|
|
<time>2026-07-10T12:32:02.000Z</time>
|
|
</trkpt>
|
|
<trkpt lat="55.052854" lon="8.649411">
|
|
<ele>-26.233897</ele>
|
|
<time>2026-07-10T12:32:03.000Z</time>
|
|
</trkpt>
|
|
<trkpt lat="55.052902" lon="8.649439">
|
|
<ele>-26.236372</ele>
|
|
<time>2026-07-10T12:32:04.000Z</time>
|
|
</trkpt>
|
|
<trkpt lat="55.052954" lon="8.649465">
|
|
<ele>-26.239017</ele>
|
|
<time>2026-07-10T12:32:05.000Z</time>
|
|
</trkpt>
|
|
<trkpt lat="55.053008" lon="8.649492">
|
|
<ele>-26.241763</ele>
|
|
<time>2026-07-10T12:32:06.000Z</time>
|
|
</trkpt>
|
|
<trkpt lat="55.053058" lon="8.649522">
|
|
<ele>-26.244348</ele>
|
|
<time>2026-07-10T12:32:07.000Z</time>
|
|
</trkpt>
|
|
<trkpt lat="55.053106" lon="8.649555">
|
|
<ele>-26.246870</ele>
|
|
<time>2026-07-10T12:32:08.000Z</time>
|
|
</trkpt>
|
|
<trkpt lat="55.053152" lon="8.649591">
|
|
<ele>-26.249335</ele>
|
|
<time>2026-07-10T12:32:09.000Z</time>
|
|
</trkpt>
|
|
<trkpt lat="55.053204" lon="8.649624">
|
|
<ele>-26.252040</ele>
|
|
<time>2026-07-10T12:32:10.000Z</time>
|
|
</trkpt>
|
|
<trkpt lat="55.053257" lon="8.649652">
|
|
<ele>-26.254748</ele>
|
|
<time>2026-07-10T12:32:11.000Z</time>
|
|
</trkpt>
|
|
<trkpt lat="55.053311" lon="8.649676">
|
|
<ele>-26.257472</ele>
|
|
<time>2026-07-10T12:32:12.000Z</time>
|
|
</trkpt>
|
|
<trkpt lat="55.053364" lon="8.649701">
|
|
<ele>-26.260156</ele>
|
|
<time>2026-07-10T12:32:13.000Z</time>
|
|
</trkpt>
|
|
<trkpt lat="55.053416" lon="8.649725">
|
|
<ele>-26.262786</ele>
|
|
<time>2026-07-10T12:32:14.000Z</time>
|
|
</trkpt>
|
|
<trkpt lat="55.053466" lon="8.649751">
|
|
<ele>-26.265337</ele>
|
|
<time>2026-07-10T12:32:15.000Z</time>
|
|
</trkpt>
|
|
<trkpt lat="55.053521" lon="8.649779">
|
|
<ele>-26.268138</ele>
|
|
<time>2026-07-10T12:32:16.000Z</time>
|
|
</trkpt>
|
|
<trkpt lat="55.053572" lon="8.649806">
|
|
<ele>-26.270744</ele>
|
|
<time>2026-07-10T12:32:17.000Z</time>
|
|
</trkpt>
|
|
<trkpt lat="55.053623" lon="8.649831">
|
|
<ele>-26.273334</ele>
|
|
<time>2026-07-10T12:32:18.000Z</time>
|
|
</trkpt>
|
|
<trkpt lat="55.053677" lon="8.649853">
|
|
<ele>-26.276045</ele>
|
|
<time>2026-07-10T12:32:19.000Z</time>
|
|
</trkpt>
|
|
<trkpt lat="55.053730" lon="8.649873">
|
|
<ele>-26.278696</ele>
|
|
<time>2026-07-10T12:32:20.000Z</time>
|
|
</trkpt>
|
|
<trkpt lat="55.053782" lon="8.649894">
|
|
<ele>-26.281306</ele>
|
|
<time>2026-07-10T12:32:21.000Z</time>
|
|
</trkpt>
|
|
<trkpt lat="55.053834" lon="8.649916">
|
|
<ele>-26.283922</ele>
|
|
<time>2026-07-10T12:32:22.000Z</time>
|
|
</trkpt>
|
|
<trkpt lat="55.053887" lon="8.649938">
|
|
<ele>-26.286585</ele>
|
|
<time>2026-07-10T12:32:23.000Z</time>
|
|
</trkpt>
|
|
<trkpt lat="55.053940" lon="8.649958">
|
|
<ele>-26.289236</ele>
|
|
<time>2026-07-10T12:32:24.000Z</time>
|
|
</trkpt>
|
|
<trkpt lat="55.053997" lon="8.649977">
|
|
<ele>-26.292074</ele>
|
|
<time>2026-07-10T12:32:25.000Z</time>
|
|
</trkpt>
|
|
<trkpt lat="55.054049" lon="8.649995">
|
|
<ele>-26.299236</ele>
|
|
<time>2026-07-10T12:32:26.000Z</time>
|
|
</trkpt>
|
|
<trkpt lat="55.054099" lon="8.650013">
|
|
<ele>-26.318273</ele>
|
|
<time>2026-07-10T12:32:27.000Z</time>
|
|
</trkpt>
|
|
<trkpt lat="55.054153" lon="8.650030">
|
|
<ele>-26.338734</ele>
|
|
<time>2026-07-10T12:32:28.000Z</time>
|
|
</trkpt>
|
|
<trkpt lat="55.054207" lon="8.650047">
|
|
<ele>-26.359195</ele>
|
|
<time>2026-07-10T12:32:29.000Z</time>
|
|
</trkpt>
|
|
<trkpt lat="55.054260" lon="8.650067">
|
|
<ele>-26.379415</ele>
|
|
<time>2026-07-10T12:32:30.000Z</time>
|
|
</trkpt>
|
|
<trkpt lat="55.054313" lon="8.650087">
|
|
<ele>-26.399635</ele>
|
|
<time>2026-07-10T12:32:31.000Z</time>
|
|
</trkpt>
|
|
<trkpt lat="55.054367" lon="8.650105">
|
|
<ele>-26.420135</ele>
|
|
<time>2026-07-10T12:32:32.000Z</time>
|
|
</trkpt>
|
|
<trkpt lat="55.054424" lon="8.650123">
|
|
<ele>-26.441736</ele>
|
|
<time>2026-07-10T12:32:33.000Z</time>
|
|
</trkpt>
|
|
<trkpt lat="55.054477" lon="8.650140">
|
|
<ele>-26.461830</ele>
|
|
<time>2026-07-10T12:32:34.000Z</time>
|
|
</trkpt>
|
|
<trkpt lat="55.054532" lon="8.650158">
|
|
<ele>-26.482697</ele>
|
|
<time>2026-07-10T12:32:35.000Z</time>
|
|
</trkpt>
|
|
<trkpt lat="55.054588" lon="8.650175">
|
|
<ele>-26.503892</ele>
|
|
<time>2026-07-10T12:32:36.000Z</time>
|
|
</trkpt>
|
|
<trkpt lat="55.054642" lon="8.650194">
|
|
<ele>-26.524433</ele>
|
|
<time>2026-07-10T12:32:37.000Z</time>
|
|
</trkpt>
|
|
<trkpt lat="55.054695" lon="8.650212">
|
|
<ele>-26.544568</ele>
|
|
<time>2026-07-10T12:32:38.000Z</time>
|
|
</trkpt>
|
|
<trkpt lat="55.054749" lon="8.650230">
|
|
<ele>-26.565068</ele>
|
|
<time>2026-07-10T12:32:39.000Z</time>
|
|
</trkpt>
|
|
<trkpt lat="55.054803" lon="8.650248">
|
|
<ele>-26.585568</ele>
|
|
<time>2026-07-10T12:32:40.000Z</time>
|
|
</trkpt>
|
|
<trkpt lat="55.054859" lon="8.650265">
|
|
<ele>-26.606764</ele>
|
|
<time>2026-07-10T12:32:41.000Z</time>
|
|
</trkpt>
|
|
<trkpt lat="55.054913" lon="8.650283">
|
|
<ele>-26.627264</ele>
|
|
<time>2026-07-10T12:32:42.000Z</time>
|
|
</trkpt>
|
|
<trkpt lat="55.054968" lon="8.650303">
|
|
<ele>-26.648213</ele>
|
|
<time>2026-07-10T12:32:43.000Z</time>
|
|
</trkpt>
|
|
<trkpt lat="55.055021" lon="8.650320">
|
|
<ele>-26.668308</ele>
|
|
<time>2026-07-10T12:32:44.000Z</time>
|
|
</trkpt>
|
|
<trkpt lat="55.055075" lon="8.650336">
|
|
<ele>-26.688732</ele>
|
|
<time>2026-07-10T12:32:45.000Z</time>
|
|
</trkpt>
|
|
<trkpt lat="55.055130" lon="8.650353">
|
|
<ele>-26.709560</ele>
|
|
<time>2026-07-10T12:32:46.000Z</time>
|
|
</trkpt>
|
|
<trkpt lat="55.055183" lon="8.650370">
|
|
<ele>-26.729655</ele>
|
|
<time>2026-07-10T12:32:47.000Z</time>
|
|
</trkpt>
|
|
<trkpt lat="55.055236" lon="8.650388">
|
|
<ele>-26.749789</ele>
|
|
<time>2026-07-10T12:32:48.000Z</time>
|
|
</trkpt>
|
|
<trkpt lat="55.055289" lon="8.650408">
|
|
<ele>-26.770009</ele>
|
|
<time>2026-07-10T12:32:49.000Z</time>
|
|
</trkpt>
|
|
<trkpt lat="55.055343" lon="8.650427">
|
|
<ele>-26.790550</ele>
|
|
<time>2026-07-10T12:32:50.000Z</time>
|
|
</trkpt>
|
|
<trkpt lat="55.055397" lon="8.650445">
|
|
<ele>-26.811050</ele>
|
|
<time>2026-07-10T12:32:51.000Z</time>
|
|
</trkpt>
|
|
<trkpt lat="55.055452" lon="8.650463">
|
|
<ele>-26.831917</ele>
|
|
<time>2026-07-10T12:32:52.000Z</time>
|
|
</trkpt>
|
|
<trkpt lat="55.055506" lon="8.650479">
|
|
<ele>-26.852341</ele>
|
|
<time>2026-07-10T12:32:53.000Z</time>
|
|
</trkpt>
|
|
<trkpt lat="55.055555" lon="8.650495">
|
|
<ele>-26.870930</ele>
|
|
<time>2026-07-10T12:32:54.000Z</time>
|
|
</trkpt>
|
|
<trkpt lat="55.055614" lon="8.650515">
|
|
<ele>-26.893342</ele>
|
|
<time>2026-07-10T12:32:55.000Z</time>
|
|
</trkpt>
|
|
<trkpt lat="55.055668" lon="8.650534">
|
|
<ele>-26.913883</ele>
|
|
<time>2026-07-10T12:32:56.000Z</time>
|
|
</trkpt>
|
|
<trkpt lat="55.055722" lon="8.650552">
|
|
<ele>-26.934383</ele>
|
|
<time>2026-07-10T12:32:57.000Z</time>
|
|
</trkpt>
|
|
<trkpt lat="55.055775" lon="8.650570">
|
|
<ele>-26.954517</ele>
|
|
<time>2026-07-10T12:32:58.000Z</time>
|
|
</trkpt>
|
|
<trkpt lat="55.055828" lon="8.650586">
|
|
<ele>-26.973495</ele>
|
|
<time>2026-07-10T12:32:59.000Z</time>
|
|
</trkpt>
|
|
<trkpt lat="55.055881" lon="8.650604">
|
|
<ele>-26.991431</ele>
|
|
<time>2026-07-10T12:33:00.000Z</time>
|
|
</trkpt>
|
|
<trkpt lat="55.055934" lon="8.650623">
|
|
<ele>-27.009404</ele>
|
|
<time>2026-07-10T12:33:01.000Z</time>
|
|
</trkpt>
|
|
<trkpt lat="55.055991" lon="8.650640">
|
|
<ele>-27.028613</ele>
|
|
<time>2026-07-10T12:33:02.000Z</time>
|
|
</trkpt>
|
|
<trkpt lat="55.056043" lon="8.650657">
|
|
<ele>-27.046188</ele>
|
|
<time>2026-07-10T12:33:03.000Z</time>
|
|
</trkpt>
|
|
<trkpt lat="55.056099" lon="8.650673">
|
|
<ele>-27.065038</ele>
|
|
<time>2026-07-10T12:33:04.000Z</time>
|
|
</trkpt>
|
|
<trkpt lat="55.056153" lon="8.650688">
|
|
<ele>-27.083201</ele>
|
|
<time>2026-07-10T12:33:05.000Z</time>
|
|
</trkpt>
|
|
<trkpt lat="55.056207" lon="8.650705">
|
|
<ele>-27.101429</ele>
|
|
<time>2026-07-10T12:33:06.000Z</time>
|
|
</trkpt>
|
|
<trkpt lat="55.056263" lon="8.650724">
|
|
<ele>-27.120380</ele>
|
|
<time>2026-07-10T12:33:07.000Z</time>
|
|
</trkpt>
|
|
<trkpt lat="55.056316" lon="8.650741">
|
|
<ele>-27.138280</ele>
|
|
<time>2026-07-10T12:33:08.000Z</time>
|
|
</trkpt>
|
|
<trkpt lat="55.056371" lon="8.650758">
|
|
<ele>-27.156835</ele>
|
|
<time>2026-07-10T12:33:09.000Z</time>
|
|
</trkpt>
|
|
<trkpt lat="55.056427" lon="8.650775">
|
|
<ele>-27.175717</ele>
|
|
<time>2026-07-10T12:33:10.000Z</time>
|
|
</trkpt>
|
|
<trkpt lat="55.056479" lon="8.650793">
|
|
<ele>-27.193327</ele>
|
|
<time>2026-07-10T12:33:11.000Z</time>
|
|
</trkpt>
|
|
<trkpt lat="55.056531" lon="8.650811">
|
|
<ele>-27.210937</ele>
|
|
<time>2026-07-10T12:33:12.000Z</time>
|
|
</trkpt>
|
|
<trkpt lat="55.056587" lon="8.650828">
|
|
<ele>-27.229819</ele>
|
|
<time>2026-07-10T12:33:13.000Z</time>
|
|
</trkpt>
|
|
<trkpt lat="55.056641" lon="8.650843">
|
|
<ele>-27.247983</ele>
|
|
<time>2026-07-10T12:33:14.000Z</time>
|
|
</trkpt>
|
|
<trkpt lat="55.056694" lon="8.650862">
|
|
<ele>-27.265956</ele>
|
|
<time>2026-07-10T12:33:15.000Z</time>
|
|
</trkpt>
|
|
<trkpt lat="55.056748" lon="8.650880">
|
|
<ele>-27.284218</ele>
|
|
<time>2026-07-10T12:33:16.000Z</time>
|
|
</trkpt>
|
|
<trkpt lat="55.056801" lon="8.650898">
|
|
<ele>-27.302154</ele>
|
|
<time>2026-07-10T12:33:17.000Z</time>
|
|
</trkpt>
|
|
<trkpt lat="55.056855" lon="8.650916">
|
|
<ele>-27.320417</ele>
|
|
<time>2026-07-10T12:33:18.000Z</time>
|
|
</trkpt>
|
|
<trkpt lat="55.056908" lon="8.650932">
|
|
<ele>-27.338284</ele>
|
|
<time>2026-07-10T12:33:19.000Z</time>
|
|
</trkpt>
|
|
<trkpt lat="55.056960" lon="8.650949">
|
|
<ele>-27.355858</ele>
|
|
<time>2026-07-10T12:33:20.000Z</time>
|
|
</trkpt>
|
|
<trkpt lat="55.057011" lon="8.650964">
|
|
<ele>-27.373038</ele>
|
|
<time>2026-07-10T12:33:21.000Z</time>
|
|
</trkpt>
|
|
<trkpt lat="55.057063" lon="8.650982">
|
|
<ele>-27.390648</ele>
|
|
<time>2026-07-10T12:33:22.000Z</time>
|
|
</trkpt>
|
|
<trkpt lat="55.057116" lon="8.651000">
|
|
<ele>-27.408585</ele>
|
|
<time>2026-07-10T12:33:23.000Z</time>
|
|
</trkpt>
|
|
<trkpt lat="55.057169" lon="8.651018">
|
|
<ele>-27.426521</ele>
|
|
<time>2026-07-10T12:33:24.000Z</time>
|
|
</trkpt>
|
|
<trkpt lat="55.057220" lon="8.651035">
|
|
<ele>-27.443768</ele>
|
|
<time>2026-07-10T12:33:25.000Z</time>
|
|
</trkpt>
|
|
<trkpt lat="55.057274" lon="8.651054">
|
|
<ele>-27.462067</ele>
|
|
<time>2026-07-10T12:33:26.000Z</time>
|
|
</trkpt>
|
|
<trkpt lat="55.057327" lon="8.651071">
|
|
<ele>-27.479968</ele>
|
|
<time>2026-07-10T12:33:27.000Z</time>
|
|
</trkpt>
|
|
<trkpt lat="55.057380" lon="8.651088">
|
|
<ele>-27.497869</ele>
|
|
<time>2026-07-10T12:33:28.000Z</time>
|
|
</trkpt>
|
|
<trkpt lat="55.057434" lon="8.651107">
|
|
<ele>-27.516167</ele>
|
|
<time>2026-07-10T12:33:29.000Z</time>
|
|
</trkpt>
|
|
<trkpt lat="55.057487" lon="8.651125">
|
|
<ele>-27.534104</ele>
|
|
<time>2026-07-10T12:33:30.000Z</time>
|
|
</trkpt>
|
|
<trkpt lat="55.057541" lon="8.651141">
|
|
<ele>-27.552298</ele>
|
|
<time>2026-07-10T12:33:31.000Z</time>
|
|
</trkpt>
|
|
<trkpt lat="55.057598" lon="8.651158">
|
|
<ele>-27.567618</ele>
|
|
<time>2026-07-10T12:33:32.000Z</time>
|
|
</trkpt>
|
|
<trkpt lat="55.057651" lon="8.651174">
|
|
<ele>-27.578037</ele>
|
|
<time>2026-07-10T12:33:33.000Z</time>
|
|
</trkpt>
|
|
<trkpt lat="55.057705" lon="8.651192">
|
|
<ele>-27.588686</ele>
|
|
<time>2026-07-10T12:33:34.000Z</time>
|
|
</trkpt>
|
|
<trkpt lat="55.057762" lon="8.651210">
|
|
<ele>-27.599907</ele>
|
|
<time>2026-07-10T12:33:35.000Z</time>
|
|
</trkpt>
|
|
<trkpt lat="55.057817" lon="8.651228">
|
|
<ele>-27.610747</ele>
|
|
<time>2026-07-10T12:33:36.000Z</time>
|
|
</trkpt>
|
|
<trkpt lat="55.057873" lon="8.651246">
|
|
<ele>-27.621777</ele>
|
|
<time>2026-07-10T12:33:37.000Z</time>
|
|
</trkpt>
|
|
<trkpt lat="55.057926" lon="8.651263">
|
|
<ele>-27.632215</ele>
|
|
<time>2026-07-10T12:33:38.000Z</time>
|
|
</trkpt>
|
|
<trkpt lat="55.057979" lon="8.651280">
|
|
<ele>-27.642654</ele>
|
|
<time>2026-07-10T12:33:39.000Z</time>
|
|
</trkpt>
|
|
<trkpt lat="55.058032" lon="8.651295">
|
|
<ele>-27.653055</ele>
|
|
<time>2026-07-10T12:33:40.000Z</time>
|
|
</trkpt>
|
|
<trkpt lat="55.058083" lon="8.651309">
|
|
<ele>-27.663055</ele>
|
|
<time>2026-07-10T12:33:41.000Z</time>
|
|
</trkpt>
|
|
<trkpt lat="55.058138" lon="8.651324">
|
|
<ele>-27.673839</ele>
|
|
<time>2026-07-10T12:33:42.000Z</time>
|
|
</trkpt>
|
|
<trkpt lat="55.058192" lon="8.651339">
|
|
<ele>-27.684431</ele>
|
|
<time>2026-07-10T12:33:43.000Z</time>
|
|
</trkpt>
|
|
<trkpt lat="55.058247" lon="8.651357">
|
|
<ele>-27.695270</ele>
|
|
<time>2026-07-10T12:33:44.000Z</time>
|
|
</trkpt>
|
|
<trkpt lat="55.058301" lon="8.651375">
|
|
<ele>-27.705920</ele>
|
|
<time>2026-07-10T12:33:45.000Z</time>
|
|
</trkpt>
|
|
<trkpt lat="55.058358" lon="8.651392">
|
|
<ele>-27.717121</ele>
|
|
<time>2026-07-10T12:33:46.000Z</time>
|
|
</trkpt>
|
|
<trkpt lat="55.058416" lon="8.651409">
|
|
<ele>-27.728514</ele>
|
|
<time>2026-07-10T12:33:47.000Z</time>
|
|
</trkpt>
|
|
<trkpt lat="55.058472" lon="8.651427">
|
|
<ele>-27.739544</ele>
|
|
<time>2026-07-10T12:33:48.000Z</time>
|
|
</trkpt>
|
|
<trkpt lat="55.058528" lon="8.651446">
|
|
<ele>-27.750595</ele>
|
|
<time>2026-07-10T12:33:49.000Z</time>
|
|
</trkpt>
|
|
<trkpt lat="55.058588" lon="8.651466">
|
|
<ele>-27.762427</ele>
|
|
<time>2026-07-10T12:33:50.000Z</time>
|
|
</trkpt>
|
|
<trkpt lat="55.058647" lon="8.651487">
|
|
<ele>-27.774091</ele>
|
|
<time>2026-07-10T12:33:51.000Z</time>
|
|
</trkpt>
|
|
<trkpt lat="55.058706" lon="8.651507">
|
|
<ele>-27.785734</ele>
|
|
<time>2026-07-10T12:33:52.000Z</time>
|
|
</trkpt>
|
|
<trkpt lat="55.058767" lon="8.651524">
|
|
<ele>-27.797700</ele>
|
|
<time>2026-07-10T12:33:53.000Z</time>
|
|
</trkpt>
|
|
<trkpt lat="55.058827" lon="8.651543">
|
|
<ele>-27.809512</ele>
|
|
<time>2026-07-10T12:33:54.000Z</time>
|
|
</trkpt>
|
|
<trkpt lat="55.058887" lon="8.651563">
|
|
<ele>-27.821345</ele>
|
|
<time>2026-07-10T12:33:55.000Z</time>
|
|
</trkpt>
|
|
<trkpt lat="55.058949" lon="8.651582">
|
|
<ele>-27.833538</ele>
|
|
<time>2026-07-10T12:33:56.000Z</time>
|
|
</trkpt>
|
|
<trkpt lat="55.059008" lon="8.651600">
|
|
<ele>-27.845141</ele>
|
|
<time>2026-07-10T12:33:57.000Z</time>
|
|
</trkpt>
|
|
<trkpt lat="55.059070" lon="8.651620">
|
|
<ele>-27.857354</ele>
|
|
<time>2026-07-10T12:33:58.000Z</time>
|
|
</trkpt>
|
|
<trkpt lat="55.059131" lon="8.651640">
|
|
<ele>-27.869377</ele>
|
|
<time>2026-07-10T12:33:59.000Z</time>
|
|
</trkpt>
|
|
<trkpt lat="55.059186" lon="8.651659">
|
|
<ele>-27.880238</ele>
|
|
<time>2026-07-10T12:34:00.000Z</time>
|
|
</trkpt>
|
|
<trkpt lat="55.059253" lon="8.651680">
|
|
<ele>-27.893424</ele>
|
|
<time>2026-07-10T12:34:01.000Z</time>
|
|
</trkpt>
|
|
<trkpt lat="55.059316" lon="8.651698">
|
|
<ele>-27.905790</ele>
|
|
<time>2026-07-10T12:34:02.000Z</time>
|
|
</trkpt>
|
|
<trkpt lat="55.059378" lon="8.651718">
|
|
<ele>-27.920504</ele>
|
|
<time>2026-07-10T12:34:03.000Z</time>
|
|
</trkpt>
|
|
<trkpt lat="55.059439" lon="8.651739">
|
|
<ele>-27.936614</ele>
|
|
<time>2026-07-10T12:34:04.000Z</time>
|
|
</trkpt>
|
|
<trkpt lat="55.059499" lon="8.651759">
|
|
<ele>-27.952441</ele>
|
|
<time>2026-07-10T12:34:05.000Z</time>
|
|
</trkpt>
|
|
<trkpt lat="55.059562" lon="8.651781">
|
|
<ele>-27.969088</ele>
|
|
<time>2026-07-10T12:34:06.000Z</time>
|
|
</trkpt>
|
|
<trkpt lat="55.059626" lon="8.651801">
|
|
<ele>-27.985935</ele>
|
|
<time>2026-07-10T12:34:07.000Z</time>
|
|
</trkpt>
|
|
<trkpt lat="55.059685" lon="8.651821">
|
|
<ele>-28.001508</ele>
|
|
<time>2026-07-10T12:34:08.000Z</time>
|
|
</trkpt>
|
|
<trkpt lat="55.059745" lon="8.651841">
|
|
<ele>-28.017335</ele>
|
|
<time>2026-07-10T12:34:09.000Z</time>
|
|
</trkpt>
|
|
<trkpt lat="55.059805" lon="8.651859">
|
|
<ele>-28.033109</ele>
|
|
<time>2026-07-10T12:34:10.000Z</time>
|
|
</trkpt>
|
|
<trkpt lat="55.059865" lon="8.651878">
|
|
<ele>-28.048909</ele>
|
|
<time>2026-07-10T12:34:11.000Z</time>
|
|
</trkpt>
|
|
<trkpt lat="55.059926" lon="8.651896">
|
|
<ele>-28.064939</ele>
|
|
<time>2026-07-10T12:34:12.000Z</time>
|
|
</trkpt>
|
|
<trkpt lat="55.059988" lon="8.651913">
|
|
<ele>-28.081201</ele>
|
|
<time>2026-07-10T12:34:13.000Z</time>
|
|
</trkpt>
|
|
<trkpt lat="55.060046" lon="8.651932">
|
|
<ele>-28.096491</ele>
|
|
<time>2026-07-10T12:34:14.000Z</time>
|
|
</trkpt>
|
|
<trkpt lat="55.060098" lon="8.651950">
|
|
<ele>-28.110227</ele>
|
|
<time>2026-07-10T12:34:15.000Z</time>
|
|
</trkpt>
|
|
<trkpt lat="55.060167" lon="8.651973">
|
|
<ele>-28.128428</ele>
|
|
<time>2026-07-10T12:34:16.000Z</time>
|
|
</trkpt>
|
|
<trkpt lat="55.060227" lon="8.651991">
|
|
<ele>-28.144202</ele>
|
|
<time>2026-07-10T12:34:17.000Z</time>
|
|
</trkpt>
|
|
<trkpt lat="55.060290" lon="8.652008">
|
|
<ele>-28.160720</ele>
|
|
<time>2026-07-10T12:34:18.000Z</time>
|
|
</trkpt>
|
|
<trkpt lat="55.060350" lon="8.652027">
|
|
<ele>-28.176520</ele>
|
|
<time>2026-07-10T12:34:19.000Z</time>
|
|
</trkpt>
|
|
<trkpt lat="55.060407" lon="8.652049">
|
|
<ele>-28.191646</ele>
|
|
<time>2026-07-10T12:34:20.000Z</time>
|
|
</trkpt>
|
|
<trkpt lat="55.060468" lon="8.652076">
|
|
<ele>-28.207951</ele>
|
|
<time>2026-07-10T12:34:21.000Z</time>
|
|
</trkpt>
|
|
<trkpt lat="55.060525" lon="8.652103">
|
|
<ele>-28.223254</ele>
|
|
<time>2026-07-10T12:34:22.000Z</time>
|
|
</trkpt>
|
|
<trkpt lat="55.060582" lon="8.652131">
|
|
<ele>-28.238597</ele>
|
|
<time>2026-07-10T12:34:23.000Z</time>
|
|
</trkpt>
|
|
<trkpt lat="55.060640" lon="8.652154">
|
|
<ele>-28.254008</ele>
|
|
<time>2026-07-10T12:34:24.000Z</time>
|
|
</trkpt>
|
|
<trkpt lat="55.060700" lon="8.652176">
|
|
<ele>-28.269893</ele>
|
|
<time>2026-07-10T12:34:25.000Z</time>
|
|
</trkpt>
|
|
<trkpt lat="55.060760" lon="8.652200">
|
|
<ele>-28.285842</ele>
|
|
<time>2026-07-10T12:34:26.000Z</time>
|
|
</trkpt>
|
|
<trkpt lat="55.060819" lon="8.652229">
|
|
<ele>-28.301724</ele>
|
|
<time>2026-07-10T12:34:27.000Z</time>
|
|
</trkpt>
|
|
<trkpt lat="55.060875" lon="8.652260">
|
|
<ele>-28.316946</ele>
|
|
<time>2026-07-10T12:34:28.000Z</time>
|
|
</trkpt>
|
|
<trkpt lat="55.060933" lon="8.652294">
|
|
<ele>-28.332798</ele>
|
|
<time>2026-07-10T12:34:29.000Z</time>
|
|
</trkpt>
|
|
<trkpt lat="55.060991" lon="8.652326">
|
|
<ele>-28.348559</ele>
|
|
<time>2026-07-10T12:34:30.000Z</time>
|
|
</trkpt>
|
|
<trkpt lat="55.061049" lon="8.652359">
|
|
<ele>-28.364365</ele>
|
|
<time>2026-07-10T12:34:31.000Z</time>
|
|
</trkpt>
|
|
<trkpt lat="55.061105" lon="8.652392">
|
|
<ele>-28.375956</ele>
|
|
<time>2026-07-10T12:34:32.000Z</time>
|
|
</trkpt>
|
|
<trkpt lat="55.061166" lon="8.652426">
|
|
<ele>-28.372232</ele>
|
|
<time>2026-07-10T12:34:33.000Z</time>
|
|
</trkpt>
|
|
<trkpt lat="55.061221" lon="8.652459">
|
|
<ele>-28.368851</ele>
|
|
<time>2026-07-10T12:34:34.000Z</time>
|
|
</trkpt>
|
|
<trkpt lat="55.061275" lon="8.652494">
|
|
<ele>-28.365502</ele>
|
|
<time>2026-07-10T12:34:35.000Z</time>
|
|
</trkpt>
|
|
<trkpt lat="55.061332" lon="8.652529">
|
|
<ele>-28.361988</ele>
|
|
<time>2026-07-10T12:34:36.000Z</time>
|
|
</trkpt>
|
|
<trkpt lat="55.061390" lon="8.652565">
|
|
<ele>-28.358409</ele>
|
|
<time>2026-07-10T12:34:37.000Z</time>
|
|
</trkpt>
|
|
<trkpt lat="55.061447" lon="8.652600">
|
|
<ele>-28.354896</ele>
|
|
<time>2026-07-10T12:34:38.000Z</time>
|
|
</trkpt>
|
|
<trkpt lat="55.061501" lon="8.652639">
|
|
<ele>-28.351498</ele>
|
|
<time>2026-07-10T12:34:39.000Z</time>
|
|
</trkpt>
|
|
<trkpt lat="55.061558" lon="8.652678">
|
|
<ele>-28.347938</ele>
|
|
<time>2026-07-10T12:34:40.000Z</time>
|
|
</trkpt>
|
|
<trkpt lat="55.061614" lon="8.652719">
|
|
<ele>-28.344407</ele>
|
|
<time>2026-07-10T12:34:41.000Z</time>
|
|
</trkpt>
|
|
<trkpt lat="55.061668" lon="8.652759">
|
|
<ele>-28.340996</ele>
|
|
<time>2026-07-10T12:34:42.000Z</time>
|
|
</trkpt>
|
|
<trkpt lat="55.061723" lon="8.652801">
|
|
<ele>-28.337506</ele>
|
|
<time>2026-07-10T12:34:43.000Z</time>
|
|
</trkpt>
|
|
<trkpt lat="55.061780" lon="8.652843">
|
|
<ele>-28.333909</ele>
|
|
<time>2026-07-10T12:34:44.000Z</time>
|
|
</trkpt>
|
|
<trkpt lat="55.061837" lon="8.652885">
|
|
<ele>-28.330311</ele>
|
|
<time>2026-07-10T12:34:45.000Z</time>
|
|
</trkpt>
|
|
<trkpt lat="55.061893" lon="8.652928">
|
|
<ele>-28.326754</ele>
|
|
<time>2026-07-10T12:34:46.000Z</time>
|
|
</trkpt>
|
|
<trkpt lat="55.061947" lon="8.652971">
|
|
<ele>-28.323303</ele>
|
|
<time>2026-07-10T12:34:47.000Z</time>
|
|
</trkpt>
|
|
<trkpt lat="55.062004" lon="8.653016">
|
|
<ele>-28.319666</ele>
|
|
<time>2026-07-10T12:34:48.000Z</time>
|
|
</trkpt>
|
|
<trkpt lat="55.062058" lon="8.653062">
|
|
<ele>-28.316172</ele>
|
|
<time>2026-07-10T12:34:49.000Z</time>
|
|
</trkpt>
|
|
<trkpt lat="55.062111" lon="8.653111">
|
|
<ele>-28.312685</ele>
|
|
<time>2026-07-10T12:34:50.000Z</time>
|
|
</trkpt>
|
|
<trkpt lat="55.062166" lon="8.653162">
|
|
<ele>-28.309064</ele>
|
|
<time>2026-07-10T12:34:51.000Z</time>
|
|
</trkpt>
|
|
<trkpt lat="55.062222" lon="8.653210">
|
|
<ele>-28.305437</ele>
|
|
<time>2026-07-10T12:34:52.000Z</time>
|
|
</trkpt>
|
|
<trkpt lat="55.062274" lon="8.653256">
|
|
<ele>-28.302047</ele>
|
|
<time>2026-07-10T12:34:53.000Z</time>
|
|
</trkpt>
|
|
<trkpt lat="55.062328" lon="8.653303">
|
|
<ele>-28.298539</ele>
|
|
<time>2026-07-10T12:34:54.000Z</time>
|
|
</trkpt>
|
|
<trkpt lat="55.062381" lon="8.653349">
|
|
<ele>-28.295097</ele>
|
|
<time>2026-07-10T12:34:55.000Z</time>
|
|
</trkpt>
|
|
<trkpt lat="55.062434" lon="8.653394">
|
|
<ele>-28.291671</ele>
|
|
<time>2026-07-10T12:34:56.000Z</time>
|
|
</trkpt>
|
|
<trkpt lat="55.062489" lon="8.653442">
|
|
<ele>-28.288095</ele>
|
|
<time>2026-07-10T12:34:57.000Z</time>
|
|
</trkpt>
|
|
<trkpt lat="55.062541" lon="8.653490">
|
|
<ele>-28.284675</ele>
|
|
<time>2026-07-10T12:34:58.000Z</time>
|
|
</trkpt>
|
|
<trkpt lat="55.062594" lon="8.653539">
|
|
<ele>-28.281188</ele>
|
|
<time>2026-07-10T12:34:59.000Z</time>
|
|
</trkpt>
|
|
<trkpt lat="55.062648" lon="8.653588">
|
|
<ele>-28.277650</ele>
|
|
<time>2026-07-10T12:35:00.000Z</time>
|
|
</trkpt>
|
|
<trkpt lat="55.062702" lon="8.653637">
|
|
<ele>-28.274111</ele>
|
|
<time>2026-07-10T12:35:01.000Z</time>
|
|
</trkpt>
|
|
<trkpt lat="55.062755" lon="8.653684">
|
|
<ele>-28.267848</ele>
|
|
<time>2026-07-10T12:35:02.000Z</time>
|
|
</trkpt>
|
|
<trkpt lat="55.062809" lon="8.653732">
|
|
<ele>-28.257255</ele>
|
|
<time>2026-07-10T12:35:03.000Z</time>
|
|
</trkpt>
|
|
<trkpt lat="55.062861" lon="8.653779">
|
|
<ele>-28.247019</ele>
|
|
<time>2026-07-10T12:35:04.000Z</time>
|
|
</trkpt>
|
|
<trkpt lat="55.062914" lon="8.653827">
|
|
<ele>-28.236582</ele>
|
|
<time>2026-07-10T12:35:05.000Z</time>
|
|
</trkpt>
|
|
<trkpt lat="55.062969" lon="8.653875">
|
|
<ele>-28.225833</ele>
|
|
<time>2026-07-10T12:35:06.000Z</time>
|
|
</trkpt>
|
|
<trkpt lat="55.063025" lon="8.653924">
|
|
<ele>-28.214882</ele>
|
|
<time>2026-07-10T12:35:07.000Z</time>
|
|
</trkpt>
|
|
<trkpt lat="55.063081" lon="8.653973">
|
|
<ele>-28.203932</ele>
|
|
<time>2026-07-10T12:35:08.000Z</time>
|
|
</trkpt>
|
|
<trkpt lat="55.063136" lon="8.654021">
|
|
<ele>-28.193183</ele>
|
|
<time>2026-07-10T12:35:09.000Z</time>
|
|
</trkpt>
|
|
<trkpt lat="55.063190" lon="8.654070">
|
|
<ele>-28.182544</ele>
|
|
<time>2026-07-10T12:35:10.000Z</time>
|
|
</trkpt>
|
|
<trkpt lat="55.063243" lon="8.654119">
|
|
<ele>-28.172060</ele>
|
|
<time>2026-07-10T12:35:11.000Z</time>
|
|
</trkpt>
|
|
<trkpt lat="55.063296" lon="8.654167">
|
|
<ele>-28.161623</ele>
|
|
<time>2026-07-10T12:35:12.000Z</time>
|
|
</trkpt>
|
|
<trkpt lat="55.063351" lon="8.654218">
|
|
<ele>-28.150736</ele>
|
|
<time>2026-07-10T12:35:13.000Z</time>
|
|
</trkpt>
|
|
<trkpt lat="55.063407" lon="8.654269">
|
|
<ele>-28.139695</ele>
|
|
<time>2026-07-10T12:35:14.000Z</time>
|
|
</trkpt>
|
|
<trkpt lat="55.063462" lon="8.654321">
|
|
<ele>-28.128761</ele>
|
|
<time>2026-07-10T12:35:15.000Z</time>
|
|
</trkpt>
|
|
<trkpt lat="55.063516" lon="8.654369">
|
|
<ele>-28.118168</ele>
|
|
<time>2026-07-10T12:35:16.000Z</time>
|
|
</trkpt>
|
|
<trkpt lat="55.063571" lon="8.654417">
|
|
<ele>-28.107419</ele>
|
|
<time>2026-07-10T12:35:17.000Z</time>
|
|
</trkpt>
|
|
<trkpt lat="55.063625" lon="8.654467">
|
|
<ele>-28.096734</ele>
|
|
<time>2026-07-10T12:35:18.000Z</time>
|
|
</trkpt>
|
|
<trkpt lat="55.063677" lon="8.654514">
|
|
<ele>-28.086497</ele>
|
|
<time>2026-07-10T12:35:19.000Z</time>
|
|
</trkpt>
|
|
<trkpt lat="55.063731" lon="8.654563">
|
|
<ele>-28.075859</ele>
|
|
<time>2026-07-10T12:35:20.000Z</time>
|
|
</trkpt>
|
|
<trkpt lat="55.063781" lon="8.654609">
|
|
<ele>-28.065979</ele>
|
|
<time>2026-07-10T12:35:21.000Z</time>
|
|
</trkpt>
|
|
<trkpt lat="55.063834" lon="8.654656">
|
|
<ele>-28.055587</ele>
|
|
<time>2026-07-10T12:35:22.000Z</time>
|
|
</trkpt>
|
|
<trkpt lat="55.063886" lon="8.654705">
|
|
<ele>-28.045257</ele>
|
|
<time>2026-07-10T12:35:23.000Z</time>
|
|
</trkpt>
|
|
<trkpt lat="55.063937" lon="8.654753">
|
|
<ele>-28.035129</ele>
|
|
<time>2026-07-10T12:35:24.000Z</time>
|
|
</trkpt>
|
|
<trkpt lat="55.063991" lon="8.654800">
|
|
<ele>-28.024581</ele>
|
|
<time>2026-07-10T12:35:25.000Z</time>
|
|
</trkpt>
|
|
<trkpt lat="55.064043" lon="8.654844">
|
|
<ele>-28.014479</ele>
|
|
<time>2026-07-10T12:35:26.000Z</time>
|
|
</trkpt>
|
|
<trkpt lat="55.064093" lon="8.654889">
|
|
<ele>-28.004646</ele>
|
|
<time>2026-07-10T12:35:27.000Z</time>
|
|
</trkpt>
|
|
<trkpt lat="55.064146" lon="8.654938">
|
|
<ele>-27.994162</ele>
|
|
<time>2026-07-10T12:35:28.000Z</time>
|
|
</trkpt>
|
|
<trkpt lat="55.064196" lon="8.654985">
|
|
<ele>-27.984235</ele>
|
|
<time>2026-07-10T12:35:29.000Z</time>
|
|
</trkpt>
|
|
<trkpt lat="55.064245" lon="8.655030">
|
|
<ele>-27.974556</ele>
|
|
<time>2026-07-10T12:35:30.000Z</time>
|
|
</trkpt>
|
|
<trkpt lat="55.064298" lon="8.655075">
|
|
<ele>-27.964254</ele>
|
|
<time>2026-07-10T12:35:31.000Z</time>
|
|
</trkpt>
|
|
<trkpt lat="55.064347" lon="8.655121">
|
|
<ele>-27.957983</ele>
|
|
<time>2026-07-10T12:35:32.000Z</time>
|
|
</trkpt>
|
|
<trkpt lat="55.064402" lon="8.655169">
|
|
<ele>-27.959265</ele>
|
|
<time>2026-07-10T12:35:33.000Z</time>
|
|
</trkpt>
|
|
<trkpt lat="55.064454" lon="8.655214">
|
|
<ele>-27.960475</ele>
|
|
<time>2026-07-10T12:35:34.000Z</time>
|
|
</trkpt>
|
|
<trkpt lat="55.064508" lon="8.655261">
|
|
<ele>-27.961733</ele>
|
|
<time>2026-07-10T12:35:35.000Z</time>
|
|
</trkpt>
|
|
<trkpt lat="55.064559" lon="8.655308">
|
|
<ele>-27.962936</ele>
|
|
<time>2026-07-10T12:35:36.000Z</time>
|
|
</trkpt>
|
|
<trkpt lat="55.064612" lon="8.655356">
|
|
<ele>-27.964180</ele>
|
|
<time>2026-07-10T12:35:37.000Z</time>
|
|
</trkpt>
|
|
<trkpt lat="55.064663" lon="8.655405">
|
|
<ele>-27.965394</ele>
|
|
<time>2026-07-10T12:35:38.000Z</time>
|
|
</trkpt>
|
|
<trkpt lat="55.064716" lon="8.655450">
|
|
<ele>-27.966623</ele>
|
|
<time>2026-07-10T12:35:39.000Z</time>
|
|
</trkpt>
|
|
<trkpt lat="55.064772" lon="8.655495">
|
|
<ele>-27.967908</ele>
|
|
<time>2026-07-10T12:35:40.000Z</time>
|
|
</trkpt>
|
|
<trkpt lat="55.064827" lon="8.655541">
|
|
<ele>-27.969180</ele>
|
|
<time>2026-07-10T12:35:41.000Z</time>
|
|
</trkpt>
|
|
<trkpt lat="55.064881" lon="8.655587">
|
|
<ele>-27.970432</ele>
|
|
<time>2026-07-10T12:35:42.000Z</time>
|
|
</trkpt>
|
|
<trkpt lat="55.064938" lon="8.655633">
|
|
<ele>-27.971741</ele>
|
|
<time>2026-07-10T12:35:43.000Z</time>
|
|
</trkpt>
|
|
<trkpt lat="55.064992" lon="8.655679">
|
|
<ele>-27.972994</ele>
|
|
<time>2026-07-10T12:35:44.000Z</time>
|
|
</trkpt>
|
|
<trkpt lat="55.065049" lon="8.655723">
|
|
<ele>-27.974293</ele>
|
|
<time>2026-07-10T12:35:45.000Z</time>
|
|
</trkpt>
|
|
<trkpt lat="55.065106" lon="8.655767">
|
|
<ele>-27.975593</ele>
|
|
<time>2026-07-10T12:35:46.000Z</time>
|
|
</trkpt>
|
|
<trkpt lat="55.065165" lon="8.655809">
|
|
<ele>-27.976921</ele>
|
|
<time>2026-07-10T12:35:47.000Z</time>
|
|
</trkpt>
|
|
<trkpt lat="55.065225" lon="8.655850">
|
|
<ele>-27.978265</ele>
|
|
<time>2026-07-10T12:35:48.000Z</time>
|
|
</trkpt>
|
|
<trkpt lat="55.065282" lon="8.655891">
|
|
<ele>-27.979550</ele>
|
|
<time>2026-07-10T12:35:49.000Z</time>
|
|
</trkpt>
|
|
<trkpt lat="55.065339" lon="8.655936">
|
|
<ele>-27.980854</ele>
|
|
<time>2026-07-10T12:35:50.000Z</time>
|
|
</trkpt>
|
|
<trkpt lat="55.065394" lon="8.655979">
|
|
<ele>-27.982111</ele>
|
|
<time>2026-07-10T12:35:51.000Z</time>
|
|
</trkpt>
|
|
<trkpt lat="55.065450" lon="8.656021">
|
|
<ele>-27.983381</ele>
|
|
<time>2026-07-10T12:35:52.000Z</time>
|
|
</trkpt>
|
|
<trkpt lat="55.065511" lon="8.656065">
|
|
<ele>-27.984757</ele>
|
|
<time>2026-07-10T12:35:53.000Z</time>
|
|
</trkpt>
|
|
<trkpt lat="55.065567" lon="8.656105">
|
|
<ele>-27.986019</ele>
|
|
<time>2026-07-10T12:35:54.000Z</time>
|
|
</trkpt>
|
|
<trkpt lat="55.065624" lon="8.656143">
|
|
<ele>-27.987291</ele>
|
|
<time>2026-07-10T12:35:55.000Z</time>
|
|
</trkpt>
|
|
<trkpt lat="55.065682" lon="8.656180">
|
|
<ele>-27.988578</ele>
|
|
<time>2026-07-10T12:35:56.000Z</time>
|
|
</trkpt>
|
|
<trkpt lat="55.065739" lon="8.656216">
|
|
<ele>-27.989842</ele>
|
|
<time>2026-07-10T12:35:57.000Z</time>
|
|
</trkpt>
|
|
<trkpt lat="55.065801" lon="8.656252">
|
|
<ele>-27.991204</ele>
|
|
<time>2026-07-10T12:35:58.000Z</time>
|
|
</trkpt>
|
|
<trkpt lat="55.065862" lon="8.656288">
|
|
<ele>-27.992547</ele>
|
|
<time>2026-07-10T12:35:59.000Z</time>
|
|
</trkpt>
|
|
<trkpt lat="55.065922" lon="8.656324">
|
|
<ele>-27.993869</ele>
|
|
<time>2026-07-10T12:36:00.000Z</time>
|
|
</trkpt>
|
|
<trkpt lat="55.065980" lon="8.656358">
|
|
<ele>-27.995280</ele>
|
|
<time>2026-07-10T12:36:01.000Z</time>
|
|
</trkpt>
|
|
<trkpt lat="55.066041" lon="8.656395">
|
|
<ele>-28.002929</ele>
|
|
<time>2026-07-10T12:36:02.000Z</time>
|
|
</trkpt>
|
|
<trkpt lat="55.066097" lon="8.656427">
|
|
<ele>-28.009907</ele>
|
|
<time>2026-07-10T12:36:03.000Z</time>
|
|
</trkpt>
|
|
<trkpt lat="55.066155" lon="8.656459">
|
|
<ele>-28.017111</ele>
|
|
<time>2026-07-10T12:36:04.000Z</time>
|
|
</trkpt>
|
|
<trkpt lat="55.066213" lon="8.656488">
|
|
<ele>-28.024257</ele>
|
|
<time>2026-07-10T12:36:05.000Z</time>
|
|
</trkpt>
|
|
<trkpt lat="55.066274" lon="8.656521">
|
|
<ele>-28.031820</ele>
|
|
<time>2026-07-10T12:36:06.000Z</time>
|
|
</trkpt>
|
|
<trkpt lat="55.066330" lon="8.656556">
|
|
<ele>-28.038865</ele>
|
|
<time>2026-07-10T12:36:07.000Z</time>
|
|
</trkpt>
|
|
<trkpt lat="55.066383" lon="8.656593">
|
|
<ele>-28.045625</ele>
|
|
<time>2026-07-10T12:36:08.000Z</time>
|
|
</trkpt>
|
|
<trkpt lat="55.066442" lon="8.656627">
|
|
<ele>-28.052984</ele>
|
|
<time>2026-07-10T12:36:09.000Z</time>
|
|
</trkpt>
|
|
<trkpt lat="55.066498" lon="8.656658">
|
|
<ele>-28.059941</ele>
|
|
<time>2026-07-10T12:36:10.000Z</time>
|
|
</trkpt>
|
|
<trkpt lat="55.066553" lon="8.656689">
|
|
<ele>-28.066786</ele>
|
|
<time>2026-07-10T12:36:11.000Z</time>
|
|
</trkpt>
|
|
<trkpt lat="55.066610" lon="8.656721">
|
|
<ele>-28.073878</ele>
|
|
<time>2026-07-10T12:36:12.000Z</time>
|
|
</trkpt>
|
|
<trkpt lat="55.066666" lon="8.656752">
|
|
<ele>-28.080835</ele>
|
|
<time>2026-07-10T12:36:13.000Z</time>
|
|
</trkpt>
|
|
<trkpt lat="55.066721" lon="8.656787">
|
|
<ele>-28.087769</ele>
|
|
<time>2026-07-10T12:36:14.000Z</time>
|
|
</trkpt>
|
|
<trkpt lat="55.066776" lon="8.656823">
|
|
<ele>-28.094725</ele>
|
|
<time>2026-07-10T12:36:15.000Z</time>
|
|
</trkpt>
|
|
<trkpt lat="55.066828" lon="8.656856">
|
|
<ele>-28.101278</ele>
|
|
<time>2026-07-10T12:36:16.000Z</time>
|
|
</trkpt>
|
|
<trkpt lat="55.066882" lon="8.656889">
|
|
<ele>-28.108054</ele>
|
|
<time>2026-07-10T12:36:17.000Z</time>
|
|
</trkpt>
|
|
<trkpt lat="55.066936" lon="8.656921">
|
|
<ele>-28.114808</ele>
|
|
<time>2026-07-10T12:36:18.000Z</time>
|
|
</trkpt>
|
|
<trkpt lat="55.066993" lon="8.656954">
|
|
<ele>-28.121920</ele>
|
|
<time>2026-07-10T12:36:19.000Z</time>
|
|
</trkpt>
|
|
<trkpt lat="55.067048" lon="8.656985">
|
|
<ele>-28.128765</ele>
|
|
<time>2026-07-10T12:36:20.000Z</time>
|
|
</trkpt>
|
|
<trkpt lat="55.067104" lon="8.657017">
|
|
<ele>-28.135744</ele>
|
|
<time>2026-07-10T12:36:21.000Z</time>
|
|
</trkpt>
|
|
<trkpt lat="55.067154" lon="8.657052">
|
|
<ele>-28.142124</ele>
|
|
<time>2026-07-10T12:36:22.000Z</time>
|
|
</trkpt>
|
|
<trkpt lat="55.067206" lon="8.657088">
|
|
<ele>-28.148749</ele>
|
|
<time>2026-07-10T12:36:23.000Z</time>
|
|
</trkpt>
|
|
<trkpt lat="55.067259" lon="8.657121">
|
|
<ele>-28.155413</ele>
|
|
<time>2026-07-10T12:36:24.000Z</time>
|
|
</trkpt>
|
|
<trkpt lat="55.067313" lon="8.657154">
|
|
<ele>-28.162189</ele>
|
|
<time>2026-07-10T12:36:25.000Z</time>
|
|
</trkpt>
|
|
<trkpt lat="55.067368" lon="8.657189">
|
|
<ele>-28.169122</ele>
|
|
<time>2026-07-10T12:36:26.000Z</time>
|
|
</trkpt>
|
|
<trkpt lat="55.067424" lon="8.657219">
|
|
<ele>-28.176060</ele>
|
|
<time>2026-07-10T12:36:27.000Z</time>
|
|
</trkpt>
|
|
<trkpt lat="55.067478" lon="8.657248">
|
|
<ele>-28.182751</ele>
|
|
<time>2026-07-10T12:36:28.000Z</time>
|
|
</trkpt>
|
|
<trkpt lat="55.067534" lon="8.657281">
|
|
<ele>-28.189751</ele>
|
|
<time>2026-07-10T12:36:29.000Z</time>
|
|
</trkpt>
|
|
<trkpt lat="55.067588" lon="8.657316">
|
|
<ele>-28.196573</ele>
|
|
<time>2026-07-10T12:36:30.000Z</time>
|
|
</trkpt>
|
|
<trkpt lat="55.067641" lon="8.657349">
|
|
<ele>-28.203237</ele>
|
|
<time>2026-07-10T12:36:31.000Z</time>
|
|
</trkpt>
|
|
<trkpt lat="55.067694" lon="8.657384">
|
|
<ele>-28.206782</ele>
|
|
<time>2026-07-10T12:36:32.000Z</time>
|
|
</trkpt>
|
|
<trkpt lat="55.067752" lon="8.657417">
|
|
<ele>-28.201323</ele>
|
|
<time>2026-07-10T12:36:33.000Z</time>
|
|
</trkpt>
|
|
<trkpt lat="55.067807" lon="8.657449">
|
|
<ele>-28.196136</ele>
|
|
<time>2026-07-10T12:36:34.000Z</time>
|
|
</trkpt>
|
|
<trkpt lat="55.067861" lon="8.657481">
|
|
<ele>-28.191033</ele>
|
|
<time>2026-07-10T12:36:35.000Z</time>
|
|
</trkpt>
|
|
<trkpt lat="55.067917" lon="8.657514">
|
|
<ele>-28.185744</ele>
|
|
<time>2026-07-10T12:36:36.000Z</time>
|
|
</trkpt>
|
|
<trkpt lat="55.067970" lon="8.657546">
|
|
<ele>-28.180726</ele>
|
|
<time>2026-07-10T12:36:37.000Z</time>
|
|
</trkpt>
|
|
<trkpt lat="55.068022" lon="8.657580">
|
|
<ele>-28.175757</ele>
|
|
<time>2026-07-10T12:36:38.000Z</time>
|
|
</trkpt>
|
|
<trkpt lat="55.068076" lon="8.657616">
|
|
<ele>-28.170585</ele>
|
|
<time>2026-07-10T12:36:39.000Z</time>
|
|
</trkpt>
|
|
<trkpt lat="55.068133" lon="8.657648">
|
|
<ele>-28.165227</ele>
|
|
<time>2026-07-10T12:36:40.000Z</time>
|
|
</trkpt>
|
|
<trkpt lat="55.068188" lon="8.657680">
|
|
<ele>-28.160039</ele>
|
|
<time>2026-07-10T12:36:41.000Z</time>
|
|
</trkpt>
|
|
<trkpt lat="55.068246" lon="8.657710">
|
|
<ele>-28.154626</ele>
|
|
<time>2026-07-10T12:36:42.000Z</time>
|
|
</trkpt>
|
|
<trkpt lat="55.068301" lon="8.657742">
|
|
<ele>-28.149438</ele>
|
|
<time>2026-07-10T12:36:43.000Z</time>
|
|
</trkpt>
|
|
<trkpt lat="55.068356" lon="8.657776">
|
|
<ele>-28.144217</ele>
|
|
<time>2026-07-10T12:36:44.000Z</time>
|
|
</trkpt>
|
|
<trkpt lat="55.068413" lon="8.657812">
|
|
<ele>-28.138793</ele>
|
|
<time>2026-07-10T12:36:45.000Z</time>
|
|
</trkpt>
|
|
<trkpt lat="55.068467" lon="8.657846">
|
|
<ele>-28.133657</ele>
|
|
<time>2026-07-10T12:36:46.000Z</time>
|
|
</trkpt>
|
|
<trkpt lat="55.068523" lon="8.657877">
|
|
<ele>-28.128400</ele>
|
|
<time>2026-07-10T12:36:47.000Z</time>
|
|
</trkpt>
|
|
<trkpt lat="55.068578" lon="8.657906">
|
|
<ele>-28.123258</ele>
|
|
<time>2026-07-10T12:36:48.000Z</time>
|
|
</trkpt>
|
|
<trkpt lat="55.068635" lon="8.657936">
|
|
<ele>-28.117931</ele>
|
|
<time>2026-07-10T12:36:49.000Z</time>
|
|
</trkpt>
|
|
<trkpt lat="55.068691" lon="8.657969">
|
|
<ele>-28.112642</ele>
|
|
<time>2026-07-10T12:36:50.000Z</time>
|
|
</trkpt>
|
|
<trkpt lat="55.068745" lon="8.658003">
|
|
<ele>-28.107505</ele>
|
|
<time>2026-07-10T12:36:51.000Z</time>
|
|
</trkpt>
|
|
<trkpt lat="55.068801" lon="8.658038">
|
|
<ele>-28.102183</ele>
|
|
<time>2026-07-10T12:36:52.000Z</time>
|
|
</trkpt>
|
|
<trkpt lat="55.068856" lon="8.658072">
|
|
<ele>-28.096962</ele>
|
|
<time>2026-07-10T12:36:53.000Z</time>
|
|
</trkpt>
|
|
<trkpt lat="55.068911" lon="8.658103">
|
|
<ele>-28.091790</ele>
|
|
<time>2026-07-10T12:36:54.000Z</time>
|
|
</trkpt>
|
|
<trkpt lat="55.068967" lon="8.658134">
|
|
<ele>-28.086533</ele>
|
|
<time>2026-07-10T12:36:55.000Z</time>
|
|
</trkpt>
|
|
<trkpt lat="55.069024" lon="8.658166">
|
|
<ele>-28.081175</ele>
|
|
<time>2026-07-10T12:36:56.000Z</time>
|
|
</trkpt>
|
|
<trkpt lat="55.069078" lon="8.658198">
|
|
<ele>-28.076073</ele>
|
|
<time>2026-07-10T12:36:57.000Z</time>
|
|
</trkpt>
|
|
<trkpt lat="55.069133" lon="8.658231">
|
|
<ele>-28.070868</ele>
|
|
<time>2026-07-10T12:36:58.000Z</time>
|
|
</trkpt>
|
|
<trkpt lat="55.069186" lon="8.658266">
|
|
<ele>-28.065798</ele>
|
|
<time>2026-07-10T12:36:59.000Z</time>
|
|
</trkpt>
|
|
<trkpt lat="55.069239" lon="8.658300">
|
|
<ele>-28.060745</ele>
|
|
<time>2026-07-10T12:37:00.000Z</time>
|
|
</trkpt>
|
|
<trkpt lat="55.069294" lon="8.658333">
|
|
<ele>-28.055541</ele>
|
|
<time>2026-07-10T12:37:01.000Z</time>
|
|
</trkpt>
|
|
<trkpt lat="55.069351" lon="8.658365">
|
|
<ele>-28.050183</ele>
|
|
<time>2026-07-10T12:37:02.000Z</time>
|
|
</trkpt>
|
|
<trkpt lat="55.069409" lon="8.658397">
|
|
<ele>-28.046773</ele>
|
|
<time>2026-07-10T12:37:03.000Z</time>
|
|
</trkpt>
|
|
<trkpt lat="55.069461" lon="8.658429">
|
|
<ele>-28.045934</ele>
|
|
<time>2026-07-10T12:37:04.000Z</time>
|
|
</trkpt>
|
|
<trkpt lat="55.069515" lon="8.658461">
|
|
<ele>-28.045066</ele>
|
|
<time>2026-07-10T12:37:05.000Z</time>
|
|
</trkpt>
|
|
<trkpt lat="55.069572" lon="8.658494">
|
|
<ele>-28.044152</ele>
|
|
<time>2026-07-10T12:37:06.000Z</time>
|
|
</trkpt>
|
|
<trkpt lat="55.069626" lon="8.658527">
|
|
<ele>-28.043281</ele>
|
|
<time>2026-07-10T12:37:07.000Z</time>
|
|
</trkpt>
|
|
<trkpt lat="55.069683" lon="8.658558">
|
|
<ele>-28.042372</ele>
|
|
<time>2026-07-10T12:37:08.000Z</time>
|
|
</trkpt>
|
|
<trkpt lat="55.069737" lon="8.658587">
|
|
<ele>-28.041512</ele>
|
|
<time>2026-07-10T12:37:09.000Z</time>
|
|
</trkpt>
|
|
<trkpt lat="55.069794" lon="8.658618">
|
|
<ele>-28.040603</ele>
|
|
<time>2026-07-10T12:37:10.000Z</time>
|
|
</trkpt>
|
|
<trkpt lat="55.069851" lon="8.658644">
|
|
<ele>-28.039706</ele>
|
|
<time>2026-07-10T12:37:11.000Z</time>
|
|
</trkpt>
|
|
<trkpt lat="55.069907" lon="8.658670">
|
|
<ele>-28.038824</ele>
|
|
<time>2026-07-10T12:37:12.000Z</time>
|
|
</trkpt>
|
|
<trkpt lat="55.069965" lon="8.658697">
|
|
<ele>-28.037910</ele>
|
|
<time>2026-07-10T12:37:13.000Z</time>
|
|
</trkpt>
|
|
<trkpt lat="55.070023" lon="8.658724">
|
|
<ele>-28.036996</ele>
|
|
<time>2026-07-10T12:37:14.000Z</time>
|
|
</trkpt>
|
|
<trkpt lat="55.070079" lon="8.658751">
|
|
<ele>-28.036112</ele>
|
|
<time>2026-07-10T12:37:15.000Z</time>
|
|
</trkpt>
|
|
<trkpt lat="55.070137" lon="8.658775">
|
|
<ele>-28.035204</ele>
|
|
<time>2026-07-10T12:37:16.000Z</time>
|
|
</trkpt>
|
|
<trkpt lat="55.070191" lon="8.658797">
|
|
<ele>-28.034360</ele>
|
|
<time>2026-07-10T12:37:17.000Z</time>
|
|
</trkpt>
|
|
<trkpt lat="55.070248" lon="8.658818">
|
|
<ele>-28.033473</ele>
|
|
<time>2026-07-10T12:37:18.000Z</time>
|
|
</trkpt>
|
|
<trkpt lat="55.070305" lon="8.658839">
|
|
<ele>-28.032586</ele>
|
|
<time>2026-07-10T12:37:19.000Z</time>
|
|
</trkpt>
|
|
<trkpt lat="55.070358" lon="8.658859">
|
|
<ele>-28.031761</ele>
|
|
<time>2026-07-10T12:37:20.000Z</time>
|
|
</trkpt>
|
|
<trkpt lat="55.070414" lon="8.658879">
|
|
<ele>-28.030891</ele>
|
|
<time>2026-07-10T12:37:21.000Z</time>
|
|
</trkpt>
|
|
<trkpt lat="55.070467" lon="8.658899">
|
|
<ele>-28.030065</ele>
|
|
<time>2026-07-10T12:37:22.000Z</time>
|
|
</trkpt>
|
|
<trkpt lat="55.070523" lon="8.658920">
|
|
<ele>-28.029193</ele>
|
|
<time>2026-07-10T12:37:23.000Z</time>
|
|
</trkpt>
|
|
<trkpt lat="55.070581" lon="8.658939">
|
|
<ele>-28.028295</ele>
|
|
<time>2026-07-10T12:37:24.000Z</time>
|
|
</trkpt>
|
|
<trkpt lat="55.070636" lon="8.658957">
|
|
<ele>-28.027443</ele>
|
|
<time>2026-07-10T12:37:25.000Z</time>
|
|
</trkpt>
|
|
<trkpt lat="55.070690" lon="8.658975">
|
|
<ele>-28.026606</ele>
|
|
<time>2026-07-10T12:37:26.000Z</time>
|
|
</trkpt>
|
|
<trkpt lat="55.070744" lon="8.658991">
|
|
<ele>-28.025772</ele>
|
|
<time>2026-07-10T12:37:27.000Z</time>
|
|
</trkpt>
|
|
<trkpt lat="55.070799" lon="8.659003">
|
|
<ele>-28.024928</ele>
|
|
<time>2026-07-10T12:37:28.000Z</time>
|
|
</trkpt>
|
|
<trkpt lat="55.070853" lon="8.659015">
|
|
<ele>-28.024099</ele>
|
|
<time>2026-07-10T12:37:29.000Z</time>
|
|
</trkpt>
|
|
<trkpt lat="55.070910" lon="8.659026">
|
|
<ele>-28.023226</ele>
|
|
<time>2026-07-10T12:37:30.000Z</time>
|
|
</trkpt>
|
|
<trkpt lat="55.070964" lon="8.659037">
|
|
<ele>-28.022399</ele>
|
|
<time>2026-07-10T12:37:31.000Z</time>
|
|
</trkpt>
|
|
<trkpt lat="55.071017" lon="8.659047">
|
|
<ele>-28.021587</ele>
|
|
<time>2026-07-10T12:37:32.000Z</time>
|
|
</trkpt>
|
|
<trkpt lat="55.071075" lon="8.659056">
|
|
<ele>-28.020700</ele>
|
|
<time>2026-07-10T12:37:33.000Z</time>
|
|
</trkpt>
|
|
<trkpt lat="55.071128" lon="8.659064">
|
|
<ele>-28.019891</ele>
|
|
<time>2026-07-10T12:37:34.000Z</time>
|
|
</trkpt>
|
|
<trkpt lat="55.071185" lon="8.659073">
|
|
<ele>-28.018393</ele>
|
|
<time>2026-07-10T12:37:35.000Z</time>
|
|
</trkpt>
|
|
<trkpt lat="55.071241" lon="8.659081">
|
|
<ele>-28.016858</ele>
|
|
<time>2026-07-10T12:37:36.000Z</time>
|
|
</trkpt>
|
|
<trkpt lat="55.071296" lon="8.659089">
|
|
<ele>-28.015350</ele>
|
|
<time>2026-07-10T12:37:37.000Z</time>
|
|
</trkpt>
|
|
<trkpt lat="55.071350" lon="8.659096">
|
|
<ele>-28.013870</ele>
|
|
<time>2026-07-10T12:37:38.000Z</time>
|
|
</trkpt>
|
|
<trkpt lat="55.071408" lon="8.659101">
|
|
<ele>-28.012283</ele>
|
|
<time>2026-07-10T12:37:39.000Z</time>
|
|
</trkpt>
|
|
<trkpt lat="55.071464" lon="8.659107">
|
|
<ele>-28.010750</ele>
|
|
<time>2026-07-10T12:37:40.000Z</time>
|
|
</trkpt>
|
|
<trkpt lat="55.071519" lon="8.659111">
|
|
<ele>-28.009246</ele>
|
|
<time>2026-07-10T12:37:41.000Z</time>
|
|
</trkpt>
|
|
<trkpt lat="55.071575" lon="8.659115">
|
|
<ele>-28.007715</ele>
|
|
<time>2026-07-10T12:37:42.000Z</time>
|
|
</trkpt>
|
|
<trkpt lat="55.071627" lon="8.659118">
|
|
<ele>-28.006293</ele>
|
|
<time>2026-07-10T12:37:43.000Z</time>
|
|
</trkpt>
|
|
<trkpt lat="55.071681" lon="8.659120">
|
|
<ele>-28.004817</ele>
|
|
<time>2026-07-10T12:37:44.000Z</time>
|
|
</trkpt>
|
|
<trkpt lat="55.071731" lon="8.659123">
|
|
<ele>-28.003450</ele>
|
|
<time>2026-07-10T12:37:45.000Z</time>
|
|
</trkpt>
|
|
<trkpt lat="55.071784" lon="8.659126">
|
|
<ele>-28.002001</ele>
|
|
<time>2026-07-10T12:37:46.000Z</time>
|
|
</trkpt>
|
|
<trkpt lat="55.071835" lon="8.659130">
|
|
<ele>-28.000606</ele>
|
|
<time>2026-07-10T12:37:47.000Z</time>
|
|
</trkpt>
|
|
<trkpt lat="55.071882" lon="8.659135">
|
|
<ele>-27.999320</ele>
|
|
<time>2026-07-10T12:37:48.000Z</time>
|
|
</trkpt>
|
|
<trkpt lat="55.071927" lon="8.659143">
|
|
<ele>-27.998084</ele>
|
|
<time>2026-07-10T12:37:49.000Z</time>
|
|
</trkpt>
|
|
<trkpt lat="55.071972" lon="8.659146">
|
|
<ele>-27.996853</ele>
|
|
<time>2026-07-10T12:37:50.000Z</time>
|
|
</trkpt>
|
|
<trkpt lat="55.072016" lon="8.659146">
|
|
<ele>-27.995651</ele>
|
|
<time>2026-07-10T12:37:51.000Z</time>
|
|
</trkpt>
|
|
<trkpt lat="55.072062" lon="8.659145">
|
|
<ele>-27.994394</ele>
|
|
<time>2026-07-10T12:37:52.000Z</time>
|
|
</trkpt>
|
|
<trkpt lat="55.072106" lon="8.659146">
|
|
<ele>-27.993191</ele>
|
|
<time>2026-07-10T12:37:53.000Z</time>
|
|
</trkpt>
|
|
<trkpt lat="55.072148" lon="8.659146">
|
|
<ele>-27.992044</ele>
|
|
<time>2026-07-10T12:37:54.000Z</time>
|
|
</trkpt>
|
|
<trkpt lat="55.072195" lon="8.659146">
|
|
<ele>-27.990759</ele>
|
|
<time>2026-07-10T12:37:55.000Z</time>
|
|
</trkpt>
|
|
<trkpt lat="55.072240" lon="8.659142">
|
|
<ele>-27.989528</ele>
|
|
<time>2026-07-10T12:37:56.000Z</time>
|
|
</trkpt>
|
|
<trkpt lat="55.072285" lon="8.659134">
|
|
<ele>-27.988292</ele>
|
|
<time>2026-07-10T12:37:57.000Z</time>
|
|
</trkpt>
|
|
<trkpt lat="55.072331" lon="8.659123">
|
|
<ele>-27.987024</ele>
|
|
<time>2026-07-10T12:37:58.000Z</time>
|
|
</trkpt>
|
|
<trkpt lat="55.072377" lon="8.659109">
|
|
<ele>-27.985748</ele>
|
|
<time>2026-07-10T12:37:59.000Z</time>
|
|
</trkpt>
|
|
<trkpt lat="55.072425" lon="8.659094">
|
|
<ele>-27.984415</ele>
|
|
<time>2026-07-10T12:38:00.000Z</time>
|
|
</trkpt>
|
|
<trkpt lat="55.072472" lon="8.659081">
|
|
<ele>-27.983115</ele>
|
|
<time>2026-07-10T12:38:01.000Z</time>
|
|
</trkpt>
|
|
<trkpt lat="55.072519" lon="8.659070">
|
|
<ele>-27.981819</ele>
|
|
<time>2026-07-10T12:38:02.000Z</time>
|
|
</trkpt>
|
|
<trkpt lat="55.072566" lon="8.659061">
|
|
<ele>-27.980527</ele>
|
|
<time>2026-07-10T12:38:03.000Z</time>
|
|
</trkpt>
|
|
<trkpt lat="55.072614" lon="8.659051">
|
|
<ele>-27.979206</ele>
|
|
<time>2026-07-10T12:38:04.000Z</time>
|
|
</trkpt>
|
|
<trkpt lat="55.072664" lon="8.659038">
|
|
<ele>-27.977825</ele>
|
|
<time>2026-07-10T12:38:05.000Z</time>
|
|
</trkpt>
|
|
<trkpt lat="55.072714" lon="8.659027">
|
|
<ele>-27.976448</ele>
|
|
<time>2026-07-10T12:38:06.000Z</time>
|
|
</trkpt>
|
|
<trkpt lat="55.072763" lon="8.659017">
|
|
<ele>-27.975100</ele>
|
|
<time>2026-07-10T12:38:07.000Z</time>
|
|
</trkpt>
|
|
<trkpt lat="55.072813" lon="8.659006">
|
|
<ele>-27.973723</ele>
|
|
<time>2026-07-10T12:38:08.000Z</time>
|
|
</trkpt>
|
|
<trkpt lat="55.072863" lon="8.658995">
|
|
<ele>-27.972346</ele>
|
|
<time>2026-07-10T12:38:09.000Z</time>
|
|
</trkpt>
|
|
<trkpt lat="55.072912" lon="8.658984">
|
|
<ele>-27.970996</ele>
|
|
<time>2026-07-10T12:38:10.000Z</time>
|
|
</trkpt>
|
|
<trkpt lat="55.072961" lon="8.658971">
|
|
<ele>-27.973324</ele>
|
|
<time>2026-07-10T12:38:11.000Z</time>
|
|
</trkpt>
|
|
<trkpt lat="55.073007" lon="8.658960">
|
|
<ele>-27.976646</ele>
|
|
<time>2026-07-10T12:38:12.000Z</time>
|
|
</trkpt>
|
|
<trkpt lat="55.073054" lon="8.658951">
|
|
<ele>-27.980028</ele>
|
|
<time>2026-07-10T12:38:13.000Z</time>
|
|
</trkpt>
|
|
<trkpt lat="55.073102" lon="8.658939">
|
|
<ele>-27.983496</ele>
|
|
<time>2026-07-10T12:38:14.000Z</time>
|
|
</trkpt>
|
|
<trkpt lat="55.073149" lon="8.658926">
|
|
<ele>-27.986900</ele>
|
|
<time>2026-07-10T12:38:15.000Z</time>
|
|
</trkpt>
|
|
<trkpt lat="55.073198" lon="8.658914">
|
|
<ele>-27.990439</ele>
|
|
<time>2026-07-10T12:38:16.000Z</time>
|
|
</trkpt>
|
|
<trkpt lat="55.073243" lon="8.658904">
|
|
<ele>-27.993684</ele>
|
|
<time>2026-07-10T12:38:17.000Z</time>
|
|
</trkpt>
|
|
<trkpt lat="55.073289" lon="8.658891">
|
|
<ele>-27.997017</ele>
|
|
<time>2026-07-10T12:38:18.000Z</time>
|
|
</trkpt>
|
|
<trkpt lat="55.073335" lon="8.658879">
|
|
<ele>-28.000344</ele>
|
|
<time>2026-07-10T12:38:19.000Z</time>
|
|
</trkpt>
|
|
<trkpt lat="55.073381" lon="8.658863">
|
|
<ele>-28.003699</ele>
|
|
<time>2026-07-10T12:38:20.000Z</time>
|
|
</trkpt>
|
|
<trkpt lat="55.073427" lon="8.658847">
|
|
<ele>-28.007054</ele>
|
|
<time>2026-07-10T12:38:21.000Z</time>
|
|
</trkpt>
|
|
<trkpt lat="55.073472" lon="8.658832">
|
|
<ele>-28.010331</ele>
|
|
<time>2026-07-10T12:38:22.000Z</time>
|
|
</trkpt>
|
|
<trkpt lat="55.073517" lon="8.658820">
|
|
<ele>-28.013588</ele>
|
|
<time>2026-07-10T12:38:23.000Z</time>
|
|
</trkpt>
|
|
<trkpt lat="55.073563" lon="8.658808">
|
|
<ele>-28.016915</ele>
|
|
<time>2026-07-10T12:38:24.000Z</time>
|
|
</trkpt>
|
|
<trkpt lat="55.073606" lon="8.658794">
|
|
<ele>-28.020043</ele>
|
|
<time>2026-07-10T12:38:25.000Z</time>
|
|
</trkpt>
|
|
<trkpt lat="55.073651" lon="8.658778">
|
|
<ele>-28.023328</ele>
|
|
<time>2026-07-10T12:38:26.000Z</time>
|
|
</trkpt>
|
|
<trkpt lat="55.073694" lon="8.658764">
|
|
<ele>-28.026457</ele>
|
|
<time>2026-07-10T12:38:27.000Z</time>
|
|
</trkpt>
|
|
<trkpt lat="55.073738" lon="8.658754">
|
|
<ele>-28.029631</ele>
|
|
<time>2026-07-10T12:38:28.000Z</time>
|
|
</trkpt>
|
|
<trkpt lat="55.073781" lon="8.658748">
|
|
<ele>-28.032717</ele>
|
|
<time>2026-07-10T12:38:29.000Z</time>
|
|
</trkpt>
|
|
<trkpt lat="55.073824" lon="8.658743">
|
|
<ele>-28.035799</ele>
|
|
<time>2026-07-10T12:38:30.000Z</time>
|
|
</trkpt>
|
|
<trkpt lat="55.073872" lon="8.658732">
|
|
<ele>-28.039262</ele>
|
|
<time>2026-07-10T12:38:31.000Z</time>
|
|
</trkpt>
|
|
<trkpt lat="55.073919" lon="8.658719">
|
|
<ele>-28.042666</ele>
|
|
<time>2026-07-10T12:38:32.000Z</time>
|
|
</trkpt>
|
|
<trkpt lat="55.073964" lon="8.658705">
|
|
<ele>-28.045936</ele>
|
|
<time>2026-07-10T12:38:33.000Z</time>
|
|
</trkpt>
|
|
<trkpt lat="55.074006" lon="8.658689">
|
|
<ele>-28.049011</ele>
|
|
<time>2026-07-10T12:38:34.000Z</time>
|
|
</trkpt>
|
|
<trkpt lat="55.074052" lon="8.658676">
|
|
<ele>-28.052344</ele>
|
|
<time>2026-07-10T12:38:35.000Z</time>
|
|
</trkpt>
|
|
<trkpt lat="55.074111" lon="8.658660">
|
|
<ele>-28.056615</ele>
|
|
<time>2026-07-10T12:38:36.000Z</time>
|
|
</trkpt>
|
|
<trkpt lat="55.074162" lon="8.658648">
|
|
<ele>-28.060296</ele>
|
|
<time>2026-07-10T12:38:37.000Z</time>
|
|
</trkpt>
|
|
<trkpt lat="55.074209" lon="8.658635">
|
|
<ele>-28.063700</ele>
|
|
<time>2026-07-10T12:38:38.000Z</time>
|
|
</trkpt>
|
|
<trkpt lat="55.074256" lon="8.658624">
|
|
<ele>-28.067092</ele>
|
|
<time>2026-07-10T12:38:39.000Z</time>
|
|
</trkpt>
|
|
<trkpt lat="55.074304" lon="8.658616">
|
|
<ele>-28.070541</ele>
|
|
<time>2026-07-10T12:38:40.000Z</time>
|
|
</trkpt>
|
|
<trkpt lat="55.074356" lon="8.658607">
|
|
<ele>-28.074279</ele>
|
|
<time>2026-07-10T12:38:41.000Z</time>
|
|
</trkpt>
|
|
<trkpt lat="55.074406" lon="8.658593">
|
|
<ele>-28.077901</ele>
|
|
<time>2026-07-10T12:38:42.000Z</time>
|
|
</trkpt>
|
|
<trkpt lat="55.074454" lon="8.658577">
|
|
<ele>-28.081396</ele>
|
|
<time>2026-07-10T12:38:43.000Z</time>
|
|
</trkpt>
|
|
<trkpt lat="55.074506" lon="8.658561">
|
|
<ele>-28.085173</ele>
|
|
<time>2026-07-10T12:38:44.000Z</time>
|
|
</trkpt>
|
|
<trkpt lat="55.074552" lon="8.658547">
|
|
<ele>-28.088513</ele>
|
|
<time>2026-07-10T12:38:45.000Z</time>
|
|
</trkpt>
|
|
<trkpt lat="55.074597" lon="8.658536">
|
|
<ele>-28.091763</ele>
|
|
<time>2026-07-10T12:38:46.000Z</time>
|
|
</trkpt>
|
|
<trkpt lat="55.074642" lon="8.658531">
|
|
<ele>-28.094989</ele>
|
|
<time>2026-07-10T12:38:47.000Z</time>
|
|
</trkpt>
|
|
<trkpt lat="55.074685" lon="8.658524">
|
|
<ele>-28.098078</ele>
|
|
<time>2026-07-10T12:38:48.000Z</time>
|
|
</trkpt>
|
|
<trkpt lat="55.074726" lon="8.658516">
|
|
<ele>-28.093909</ele>
|
|
<time>2026-07-10T12:38:49.000Z</time>
|
|
</trkpt>
|
|
<trkpt lat="55.074764" lon="8.658506">
|
|
<ele>-28.085213</ele>
|
|
<time>2026-07-10T12:38:50.000Z</time>
|
|
</trkpt>
|
|
<trkpt lat="55.074807" lon="8.658494">
|
|
<ele>-28.075360</ele>
|
|
<time>2026-07-10T12:38:51.000Z</time>
|
|
</trkpt>
|
|
<trkpt lat="55.074847" lon="8.658479">
|
|
<ele>-28.066103</ele>
|
|
<time>2026-07-10T12:38:52.000Z</time>
|
|
</trkpt>
|
|
<trkpt lat="55.074886" lon="8.658465">
|
|
<ele>-28.057093</ele>
|
|
<time>2026-07-10T12:38:53.000Z</time>
|
|
</trkpt>
|
|
<trkpt lat="55.074924" lon="8.658453">
|
|
<ele>-28.048355</ele>
|
|
<time>2026-07-10T12:38:54.000Z</time>
|
|
</trkpt>
|
|
<trkpt lat="55.074961" lon="8.658440">
|
|
<ele>-28.039815</ele>
|
|
<time>2026-07-10T12:38:55.000Z</time>
|
|
</trkpt>
|
|
<trkpt lat="55.074994" lon="8.658431">
|
|
<ele>-28.032258</ele>
|
|
<time>2026-07-10T12:38:56.000Z</time>
|
|
</trkpt>
|
|
<trkpt lat="55.075024" lon="8.658426">
|
|
<ele>-28.025438</ele>
|
|
<time>2026-07-10T12:38:57.000Z</time>
|
|
</trkpt>
|
|
<trkpt lat="55.075048" lon="8.658423">
|
|
<ele>-28.019994</ele>
|
|
<time>2026-07-10T12:38:58.000Z</time>
|
|
</trkpt>
|
|
<trkpt lat="55.075070" lon="8.658422">
|
|
<ele>-28.015014</ele>
|
|
<time>2026-07-10T12:38:59.000Z</time>
|
|
</trkpt>
|
|
<trkpt lat="55.075084" lon="8.658426">
|
|
<ele>-28.011804</ele>
|
|
<time>2026-07-10T12:39:00.000Z</time>
|
|
</trkpt>
|
|
<trkpt lat="55.075093" lon="8.658439">
|
|
<ele>-28.009161</ele>
|
|
<time>2026-07-10T12:39:01.000Z</time>
|
|
</trkpt>
|
|
<trkpt lat="55.075095" lon="8.658457">
|
|
<ele>-28.006786</ele>
|
|
<time>2026-07-10T12:39:02.000Z</time>
|
|
</trkpt>
|
|
<trkpt lat="55.075091" lon="8.658474">
|
|
<ele>-28.004405</ele>
|
|
<time>2026-07-10T12:39:03.000Z</time>
|
|
</trkpt>
|
|
<trkpt lat="55.075086" lon="8.658487">
|
|
<ele>-28.002376</ele>
|
|
<time>2026-07-10T12:39:04.000Z</time>
|
|
</trkpt>
|
|
<trkpt lat="55.075077" lon="8.658500">
|
|
<ele>-27.999734</ele>
|
|
<time>2026-07-10T12:39:05.000Z</time>
|
|
</trkpt>
|
|
<trkpt lat="55.075065" lon="8.658522">
|
|
<ele>-27.995797</ele>
|
|
<time>2026-07-10T12:39:06.000Z</time>
|
|
</trkpt>
|
|
<trkpt lat="55.075051" lon="8.658537">
|
|
<ele>-27.992081</ele>
|
|
<time>2026-07-10T12:39:07.000Z</time>
|
|
</trkpt>
|
|
<trkpt lat="55.075042" lon="8.658544">
|
|
<ele>-27.989851</ele>
|
|
<time>2026-07-10T12:39:08.000Z</time>
|
|
</trkpt>
|
|
<trkpt lat="55.075105" lon="8.658447">
|
|
<ele>-27.970848</ele>
|
|
<time>2026-07-10T12:51:36.000Z</time>
|
|
</trkpt>
|
|
<trkpt lat="55.075110" lon="8.658428">
|
|
<ele>-27.968139</ele>
|
|
<time>2026-07-10T12:51:37.000Z</time>
|
|
</trkpt>
|
|
<trkpt lat="55.075122" lon="8.658410">
|
|
<ele>-27.964560</ele>
|
|
<time>2026-07-10T12:51:38.000Z</time>
|
|
</trkpt>
|
|
<trkpt lat="55.075145" lon="8.658395">
|
|
<ele>-27.959005</ele>
|
|
<time>2026-07-10T12:51:39.000Z</time>
|
|
</trkpt>
|
|
<trkpt lat="55.075169" lon="8.658384">
|
|
<ele>-27.953390</ele>
|
|
<time>2026-07-10T12:51:40.000Z</time>
|
|
</trkpt>
|
|
<trkpt lat="55.075200" lon="8.658373">
|
|
<ele>-27.946232</ele>
|
|
<time>2026-07-10T12:51:41.000Z</time>
|
|
</trkpt>
|
|
<trkpt lat="55.075233" lon="8.658361">
|
|
<ele>-27.938605</ele>
|
|
<time>2026-07-10T12:51:42.000Z</time>
|
|
</trkpt>
|
|
<trkpt lat="55.075272" lon="8.658346">
|
|
<ele>-27.929569</ele>
|
|
<time>2026-07-10T12:51:43.000Z</time>
|
|
</trkpt>
|
|
<trkpt lat="55.075314" lon="8.658334">
|
|
<ele>-27.919939</ele>
|
|
<time>2026-07-10T12:51:44.000Z</time>
|
|
</trkpt>
|
|
<trkpt lat="55.075357" lon="8.658325">
|
|
<ele>-27.910139</ele>
|
|
<time>2026-07-10T12:51:45.000Z</time>
|
|
</trkpt>
|
|
<trkpt lat="55.075402" lon="8.658315">
|
|
<ele>-27.899874</ele>
|
|
<time>2026-07-10T12:51:46.000Z</time>
|
|
</trkpt>
|
|
<trkpt lat="55.075443" lon="8.658304">
|
|
<ele>-27.890488</ele>
|
|
<time>2026-07-10T12:51:47.000Z</time>
|
|
</trkpt>
|
|
<trkpt lat="55.075482" lon="8.658292">
|
|
<ele>-27.881527</ele>
|
|
<time>2026-07-10T12:51:48.000Z</time>
|
|
</trkpt>
|
|
<trkpt lat="55.075525" lon="8.658283">
|
|
<ele>-27.871728</ele>
|
|
<time>2026-07-10T12:51:49.000Z</time>
|
|
</trkpt>
|
|
<trkpt lat="55.075571" lon="8.658274">
|
|
<ele>-27.861254</ele>
|
|
<time>2026-07-10T12:51:50.000Z</time>
|
|
</trkpt>
|
|
<trkpt lat="55.075618" lon="8.658266">
|
|
<ele>-27.850568</ele>
|
|
<time>2026-07-10T12:51:51.000Z</time>
|
|
</trkpt>
|
|
<trkpt lat="55.075668" lon="8.658260">
|
|
<ele>-27.839228</ele>
|
|
<time>2026-07-10T12:51:52.000Z</time>
|
|
</trkpt>
|
|
<trkpt lat="55.075716" lon="8.658258">
|
|
<ele>-27.828363</ele>
|
|
<time>2026-07-10T12:51:53.000Z</time>
|
|
</trkpt>
|
|
<trkpt lat="55.075762" lon="8.658256">
|
|
<ele>-27.817951</ele>
|
|
<time>2026-07-10T12:51:54.000Z</time>
|
|
</trkpt>
|
|
<trkpt lat="55.075808" lon="8.658255">
|
|
<ele>-27.807542</ele>
|
|
<time>2026-07-10T12:51:55.000Z</time>
|
|
</trkpt>
|
|
<trkpt lat="55.075853" lon="8.658255">
|
|
<ele>-27.797359</ele>
|
|
<time>2026-07-10T12:51:56.000Z</time>
|
|
</trkpt>
|
|
<trkpt lat="55.075899" lon="8.658257">
|
|
<ele>-27.786947</ele>
|
|
<time>2026-07-10T12:51:57.000Z</time>
|
|
</trkpt>
|
|
<trkpt lat="55.075946" lon="8.658264">
|
|
<ele>-27.776273</ele>
|
|
<time>2026-07-10T12:51:58.000Z</time>
|
|
</trkpt>
|
|
<trkpt lat="55.075993" lon="8.658271">
|
|
<ele>-27.765600</ele>
|
|
<time>2026-07-10T12:51:59.000Z</time>
|
|
</trkpt>
|
|
<trkpt lat="55.076036" lon="8.658275">
|
|
<ele>-27.755856</ele>
|
|
<time>2026-07-10T12:52:00.000Z</time>
|
|
</trkpt>
|
|
<trkpt lat="55.076081" lon="8.658278">
|
|
<ele>-27.745666</ele>
|
|
<time>2026-07-10T12:52:01.000Z</time>
|
|
</trkpt>
|
|
<trkpt lat="55.076124" lon="8.658284">
|
|
<ele>-27.735905</ele>
|
|
<time>2026-07-10T12:52:02.000Z</time>
|
|
</trkpt>
|
|
<trkpt lat="55.076168" lon="8.658293">
|
|
<ele>-27.725881</ele>
|
|
<time>2026-07-10T12:52:03.000Z</time>
|
|
</trkpt>
|
|
<trkpt lat="55.076213" lon="8.658306">
|
|
<ele>-27.715560</ele>
|
|
<time>2026-07-10T12:52:04.000Z</time>
|
|
</trkpt>
|
|
<trkpt lat="55.076261" lon="8.658323">
|
|
<ele>-27.704477</ele>
|
|
<time>2026-07-10T12:52:05.000Z</time>
|
|
</trkpt>
|
|
<trkpt lat="55.076309" lon="8.658340">
|
|
<ele>-27.693395</ele>
|
|
<time>2026-07-10T12:52:06.000Z</time>
|
|
</trkpt>
|
|
<trkpt lat="55.076358" lon="8.658358">
|
|
<ele>-27.668856</ele>
|
|
<time>2026-07-10T12:52:07.000Z</time>
|
|
</trkpt>
|
|
<trkpt lat="55.076408" lon="8.658377">
|
|
<ele>-27.642369</ele>
|
|
<time>2026-07-10T12:52:08.000Z</time>
|
|
</trkpt>
|
|
<trkpt lat="55.076456" lon="8.658395">
|
|
<ele>-27.616957</ele>
|
|
<time>2026-07-10T12:52:09.000Z</time>
|
|
</trkpt>
|
|
<trkpt lat="55.076503" lon="8.658411">
|
|
<ele>-27.592171</ele>
|
|
<time>2026-07-10T12:52:10.000Z</time>
|
|
</trkpt>
|
|
<trkpt lat="55.076552" lon="8.658430">
|
|
<ele>-27.566189</ele>
|
|
<time>2026-07-10T12:52:11.000Z</time>
|
|
</trkpt>
|
|
<trkpt lat="55.076599" lon="8.658451">
|
|
<ele>-27.541078</ele>
|
|
<time>2026-07-10T12:52:12.000Z</time>
|
|
</trkpt>
|
|
<trkpt lat="55.076648" lon="8.658472">
|
|
<ele>-27.514962</ele>
|
|
<time>2026-07-10T12:52:13.000Z</time>
|
|
</trkpt>
|
|
<trkpt lat="55.076696" lon="8.658493">
|
|
<ele>-27.489348</ele>
|
|
<time>2026-07-10T12:52:14.000Z</time>
|
|
</trkpt>
|
|
<trkpt lat="55.076742" lon="8.658515">
|
|
<ele>-27.464661</ele>
|
|
<time>2026-07-10T12:52:15.000Z</time>
|
|
</trkpt>
|
|
<trkpt lat="55.076788" lon="8.658539">
|
|
<ele>-27.439811</ele>
|
|
<time>2026-07-10T12:52:16.000Z</time>
|
|
</trkpt>
|
|
<trkpt lat="55.076834" lon="8.658562">
|
|
<ele>-27.415043</ele>
|
|
<time>2026-07-10T12:52:17.000Z</time>
|
|
</trkpt>
|
|
<trkpt lat="55.076879" lon="8.658585">
|
|
<ele>-27.390774</ele>
|
|
<time>2026-07-10T12:52:18.000Z</time>
|
|
</trkpt>
|
|
<trkpt lat="55.076926" lon="8.658609">
|
|
<ele>-27.365427</ele>
|
|
<time>2026-07-10T12:52:19.000Z</time>
|
|
</trkpt>
|
|
<trkpt lat="55.076974" lon="8.658633">
|
|
<ele>-27.339583</ele>
|
|
<time>2026-07-10T12:52:20.000Z</time>
|
|
</trkpt>
|
|
<trkpt lat="55.077019" lon="8.658656">
|
|
<ele>-27.315313</ele>
|
|
<time>2026-07-10T12:52:21.000Z</time>
|
|
</trkpt>
|
|
<trkpt lat="55.077070" lon="8.658682">
|
|
<ele>-27.287813</ele>
|
|
<time>2026-07-10T12:52:22.000Z</time>
|
|
</trkpt>
|
|
<trkpt lat="55.077117" lon="8.658707">
|
|
<ele>-27.262381</ele>
|
|
<time>2026-07-10T12:52:23.000Z</time>
|
|
</trkpt>
|
|
<trkpt lat="55.077167" lon="8.658732">
|
|
<ele>-27.235460</ele>
|
|
<time>2026-07-10T12:52:24.000Z</time>
|
|
</trkpt>
|
|
<trkpt lat="55.077216" lon="8.658757">
|
|
<ele>-27.209037</ele>
|
|
<time>2026-07-10T12:52:25.000Z</time>
|
|
</trkpt>
|
|
<trkpt lat="55.077267" lon="8.658782">
|
|
<ele>-27.181618</ele>
|
|
<time>2026-07-10T12:52:26.000Z</time>
|
|
</trkpt>
|
|
<trkpt lat="55.077318" lon="8.658809">
|
|
<ele>-27.154033</ele>
|
|
<time>2026-07-10T12:52:27.000Z</time>
|
|
</trkpt>
|
|
<trkpt lat="55.077365" lon="8.658838">
|
|
<ele>-27.128232</ele>
|
|
<time>2026-07-10T12:52:28.000Z</time>
|
|
</trkpt>
|
|
<trkpt lat="55.077415" lon="8.658869">
|
|
<ele>-27.100769</ele>
|
|
<time>2026-07-10T12:52:29.000Z</time>
|
|
</trkpt>
|
|
<trkpt lat="55.077463" lon="8.658901">
|
|
<ele>-27.074174</ele>
|
|
<time>2026-07-10T12:52:30.000Z</time>
|
|
</trkpt>
|
|
<trkpt lat="55.077509" lon="8.658935">
|
|
<ele>-27.048320</ele>
|
|
<time>2026-07-10T12:52:31.000Z</time>
|
|
</trkpt>
|
|
<trkpt lat="55.077556" lon="8.658967">
|
|
<ele>-27.022209</ele>
|
|
<time>2026-07-10T12:52:32.000Z</time>
|
|
</trkpt>
|
|
<trkpt lat="55.077605" lon="8.658993">
|
|
<ele>-26.995701</ele>
|
|
<time>2026-07-10T12:52:33.000Z</time>
|
|
</trkpt>
|
|
<trkpt lat="55.077655" lon="8.659013">
|
|
<ele>-26.969149</ele>
|
|
<time>2026-07-10T12:52:34.000Z</time>
|
|
</trkpt>
|
|
<trkpt lat="55.077706" lon="8.659031">
|
|
<ele>-26.942217</ele>
|
|
<time>2026-07-10T12:52:35.000Z</time>
|
|
</trkpt>
|
|
<trkpt lat="55.077758" lon="8.659049">
|
|
<ele>-26.914777</ele>
|
|
<time>2026-07-10T12:52:36.000Z</time>
|
|
</trkpt>
|
|
<trkpt lat="55.077808" lon="8.659070">
|
|
<ele>-26.888158</ele>
|
|
<time>2026-07-10T12:52:37.000Z</time>
|
|
</trkpt>
|
|
<trkpt lat="55.077857" lon="8.659093">
|
|
<ele>-26.861894</ele>
|
|
<time>2026-07-10T12:52:38.000Z</time>
|
|
</trkpt>
|
|
<trkpt lat="55.077907" lon="8.659117">
|
|
<ele>-26.835054</ele>
|
|
<time>2026-07-10T12:52:39.000Z</time>
|
|
</trkpt>
|
|
<trkpt lat="55.077956" lon="8.659141">
|
|
<ele>-26.808712</ele>
|
|
<time>2026-07-10T12:52:40.000Z</time>
|
|
</trkpt>
|
|
<trkpt lat="55.078006" lon="8.659164">
|
|
<ele>-26.781948</ele>
|
|
<time>2026-07-10T12:52:41.000Z</time>
|
|
</trkpt>
|
|
<trkpt lat="55.078055" lon="8.659187">
|
|
<ele>-26.758215</ele>
|
|
<time>2026-07-10T12:52:42.000Z</time>
|
|
</trkpt>
|
|
<trkpt lat="55.078105" lon="8.659213">
|
|
<ele>-26.743387</ele>
|
|
<time>2026-07-10T12:52:43.000Z</time>
|
|
</trkpt>
|
|
<trkpt lat="55.078154" lon="8.659237">
|
|
<ele>-26.728922</ele>
|
|
<time>2026-07-10T12:52:44.000Z</time>
|
|
</trkpt>
|
|
<trkpt lat="55.078204" lon="8.659262">
|
|
<ele>-26.714140</ele>
|
|
<time>2026-07-10T12:52:45.000Z</time>
|
|
</trkpt>
|
|
<trkpt lat="55.078254" lon="8.659286">
|
|
<ele>-26.699401</ele>
|
|
<time>2026-07-10T12:52:46.000Z</time>
|
|
</trkpt>
|
|
<trkpt lat="55.078303" lon="8.659313">
|
|
<ele>-26.684798</ele>
|
|
<time>2026-07-10T12:52:47.000Z</time>
|
|
</trkpt>
|
|
<trkpt lat="55.078353" lon="8.659341">
|
|
<ele>-26.669874</ele>
|
|
<time>2026-07-10T12:52:48.000Z</time>
|
|
</trkpt>
|
|
<trkpt lat="55.078404" lon="8.659367">
|
|
<ele>-26.654773</ele>
|
|
<time>2026-07-10T12:52:49.000Z</time>
|
|
</trkpt>
|
|
<trkpt lat="55.078456" lon="8.659390">
|
|
<ele>-26.639526</ele>
|
|
<time>2026-07-10T12:52:50.000Z</time>
|
|
</trkpt>
|
|
<trkpt lat="55.078506" lon="8.659413">
|
|
<ele>-26.624830</ele>
|
|
<time>2026-07-10T12:52:51.000Z</time>
|
|
</trkpt>
|
|
<trkpt lat="55.078555" lon="8.659434">
|
|
<ele>-26.610490</ele>
|
|
<time>2026-07-10T12:52:52.000Z</time>
|
|
</trkpt>
|
|
<trkpt lat="55.078605" lon="8.659454">
|
|
<ele>-26.595910</ele>
|
|
<time>2026-07-10T12:52:53.000Z</time>
|
|
</trkpt>
|
|
<trkpt lat="55.078656" lon="8.659473">
|
|
<ele>-26.581088</ele>
|
|
<time>2026-07-10T12:52:54.000Z</time>
|
|
</trkpt>
|
|
<trkpt lat="55.078709" lon="8.659492">
|
|
<ele>-26.565710</ele>
|
|
<time>2026-07-10T12:52:55.000Z</time>
|
|
</trkpt>
|
|
<trkpt lat="55.078761" lon="8.659510">
|
|
<ele>-26.550643</ele>
|
|
<time>2026-07-10T12:52:56.000Z</time>
|
|
</trkpt>
|
|
<trkpt lat="55.078812" lon="8.659529">
|
|
<ele>-26.535821</ele>
|
|
<time>2026-07-10T12:52:57.000Z</time>
|
|
</trkpt>
|
|
<trkpt lat="55.078864" lon="8.659547">
|
|
<ele>-26.520753</ele>
|
|
<time>2026-07-10T12:52:58.000Z</time>
|
|
</trkpt>
|
|
<trkpt lat="55.078915" lon="8.659564">
|
|
<ele>-26.505996</ele>
|
|
<time>2026-07-10T12:52:59.000Z</time>
|
|
</trkpt>
|
|
<trkpt lat="55.078967" lon="8.659581">
|
|
<ele>-26.490959</ele>
|
|
<time>2026-07-10T12:53:00.000Z</time>
|
|
</trkpt>
|
|
<trkpt lat="55.079018" lon="8.659596">
|
|
<ele>-26.476259</ele>
|
|
<time>2026-07-10T12:53:01.000Z</time>
|
|
</trkpt>
|
|
<trkpt lat="55.079072" lon="8.659613">
|
|
<ele>-26.460663</ele>
|
|
<time>2026-07-10T12:53:02.000Z</time>
|
|
</trkpt>
|
|
<trkpt lat="55.079124" lon="8.659629">
|
|
<ele>-26.445655</ele>
|
|
<time>2026-07-10T12:53:03.000Z</time>
|
|
</trkpt>
|
|
<trkpt lat="55.079174" lon="8.659641">
|
|
<ele>-26.431310</ele>
|
|
<time>2026-07-10T12:53:04.000Z</time>
|
|
</trkpt>
|
|
<trkpt lat="55.079226" lon="8.659650">
|
|
<ele>-26.416458</ele>
|
|
<time>2026-07-10T12:53:05.000Z</time>
|
|
</trkpt>
|
|
<trkpt lat="55.079277" lon="8.659659">
|
|
<ele>-26.401888</ele>
|
|
<time>2026-07-10T12:53:06.000Z</time>
|
|
</trkpt>
|
|
<trkpt lat="55.079330" lon="8.659667">
|
|
<ele>-26.386768</ele>
|
|
<time>2026-07-10T12:53:07.000Z</time>
|
|
</trkpt>
|
|
<trkpt lat="55.079380" lon="8.659674">
|
|
<ele>-26.372510</ele>
|
|
<time>2026-07-10T12:53:08.000Z</time>
|
|
</trkpt>
|
|
<trkpt lat="55.079433" lon="8.659680">
|
|
<ele>-26.357414</ele>
|
|
<time>2026-07-10T12:53:09.000Z</time>
|
|
</trkpt>
|
|
<trkpt lat="55.079482" lon="8.659684">
|
|
<ele>-26.343472</ele>
|
|
<time>2026-07-10T12:53:10.000Z</time>
|
|
</trkpt>
|
|
<trkpt lat="55.079532" lon="8.659688">
|
|
<ele>-26.329245</ele>
|
|
<time>2026-07-10T12:53:11.000Z</time>
|
|
</trkpt>
|
|
<trkpt lat="55.079581" lon="8.659693">
|
|
<ele>-26.315294</ele>
|
|
<time>2026-07-10T12:53:12.000Z</time>
|
|
</trkpt>
|
|
<trkpt lat="55.079632" lon="8.659695">
|
|
<ele>-26.300794</ele>
|
|
<time>2026-07-10T12:53:13.000Z</time>
|
|
</trkpt>
|
|
<trkpt lat="55.079685" lon="8.659697">
|
|
<ele>-26.285727</ele>
|
|
<time>2026-07-10T12:53:14.000Z</time>
|
|
</trkpt>
|
|
<trkpt lat="55.079738" lon="8.659699">
|
|
<ele>-26.270659</ele>
|
|
<time>2026-07-10T12:53:15.000Z</time>
|
|
</trkpt>
|
|
<trkpt lat="55.079787" lon="8.659701">
|
|
<ele>-26.256727</ele>
|
|
<time>2026-07-10T12:53:16.000Z</time>
|
|
</trkpt>
|
|
<trkpt lat="55.079837" lon="8.659701">
|
|
<ele>-26.255599</ele>
|
|
<time>2026-07-10T12:53:17.000Z</time>
|
|
</trkpt>
|
|
<trkpt lat="55.079886" lon="8.659701">
|
|
<ele>-26.265820</ele>
|
|
<time>2026-07-10T12:53:18.000Z</time>
|
|
</trkpt>
|
|
<trkpt lat="55.079938" lon="8.659700">
|
|
<ele>-26.276667</ele>
|
|
<time>2026-07-10T12:53:19.000Z</time>
|
|
</trkpt>
|
|
<trkpt lat="55.079991" lon="8.659698">
|
|
<ele>-26.287725</ele>
|
|
<time>2026-07-10T12:53:20.000Z</time>
|
|
</trkpt>
|
|
<trkpt lat="55.080044" lon="8.659696">
|
|
<ele>-26.298782</ele>
|
|
<time>2026-07-10T12:53:21.000Z</time>
|
|
</trkpt>
|
|
<trkpt lat="55.080098" lon="8.659693">
|
|
<ele>-26.310052</ele>
|
|
<time>2026-07-10T12:53:22.000Z</time>
|
|
</trkpt>
|
|
<trkpt lat="55.080157" lon="8.659689">
|
|
<ele>-26.322368</ele>
|
|
<time>2026-07-10T12:53:23.000Z</time>
|
|
</trkpt>
|
|
<trkpt lat="55.080217" lon="8.659685">
|
|
<ele>-26.334892</ele>
|
|
<time>2026-07-10T12:53:24.000Z</time>
|
|
</trkpt>
|
|
<trkpt lat="55.080274" lon="8.659678">
|
|
<ele>-26.346810</ele>
|
|
<time>2026-07-10T12:53:25.000Z</time>
|
|
</trkpt>
|
|
<trkpt lat="55.080331" lon="8.659672">
|
|
<ele>-26.358721</ele>
|
|
<time>2026-07-10T12:53:26.000Z</time>
|
|
</trkpt>
|
|
<trkpt lat="55.080388" lon="8.659665">
|
|
<ele>-26.370640</ele>
|
|
<time>2026-07-10T12:53:27.000Z</time>
|
|
</trkpt>
|
|
<trkpt lat="55.080446" lon="8.659658">
|
|
<ele>-26.382767</ele>
|
|
<time>2026-07-10T12:53:28.000Z</time>
|
|
</trkpt>
|
|
<trkpt lat="55.080503" lon="8.659650">
|
|
<ele>-26.394695</ele>
|
|
<time>2026-07-10T12:53:29.000Z</time>
|
|
</trkpt>
|
|
<trkpt lat="55.080561" lon="8.659643">
|
|
<ele>-26.406822</ele>
|
|
<time>2026-07-10T12:53:30.000Z</time>
|
|
</trkpt>
|
|
<trkpt lat="55.080621" lon="8.659634">
|
|
<ele>-26.419383</ele>
|
|
<time>2026-07-10T12:53:31.000Z</time>
|
|
</trkpt>
|
|
<trkpt lat="55.080678" lon="8.659626">
|
|
<ele>-26.431310</ele>
|
|
<time>2026-07-10T12:53:32.000Z</time>
|
|
</trkpt>
|
|
<trkpt lat="55.080735" lon="8.659617">
|
|
<ele>-26.443248</ele>
|
|
<time>2026-07-10T12:53:33.000Z</time>
|
|
</trkpt>
|
|
<trkpt lat="55.080789" lon="8.659608">
|
|
<ele>-26.454563</ele>
|
|
<time>2026-07-10T12:53:34.000Z</time>
|
|
</trkpt>
|
|
<trkpt lat="55.080846" lon="8.659601">
|
|
<ele>-26.466482</ele>
|
|
<time>2026-07-10T12:53:35.000Z</time>
|
|
</trkpt>
|
|
<trkpt lat="55.080903" lon="8.659594">
|
|
<ele>-26.478401</ele>
|
|
<time>2026-07-10T12:53:36.000Z</time>
|
|
</trkpt>
|
|
<trkpt lat="55.080957" lon="8.659586">
|
|
<ele>-26.489705</ele>
|
|
<time>2026-07-10T12:53:37.000Z</time>
|
|
</trkpt>
|
|
<trkpt lat="55.081013" lon="8.659578">
|
|
<ele>-26.501424</ele>
|
|
<time>2026-07-10T12:53:38.000Z</time>
|
|
</trkpt>
|
|
<trkpt lat="55.081067" lon="8.659572">
|
|
<ele>-26.512711</ele>
|
|
<time>2026-07-10T12:53:39.000Z</time>
|
|
</trkpt>
|
|
<trkpt lat="55.081123" lon="8.659564">
|
|
<ele>-26.524431</ele>
|
|
<time>2026-07-10T12:53:40.000Z</time>
|
|
</trkpt>
|
|
<trkpt lat="55.081177" lon="8.659556">
|
|
<ele>-26.535735</ele>
|
|
<time>2026-07-10T12:53:41.000Z</time>
|
|
</trkpt>
|
|
<trkpt lat="55.081231" lon="8.659550">
|
|
<ele>-26.547021</ele>
|
|
<time>2026-07-10T12:53:42.000Z</time>
|
|
</trkpt>
|
|
<trkpt lat="55.081285" lon="8.659545">
|
|
<ele>-26.558300</ele>
|
|
<time>2026-07-10T12:53:43.000Z</time>
|
|
</trkpt>
|
|
<trkpt lat="55.081341" lon="8.659538">
|
|
<ele>-26.570011</ele>
|
|
<time>2026-07-10T12:53:44.000Z</time>
|
|
</trkpt>
|
|
<trkpt lat="55.081397" lon="8.659532">
|
|
<ele>-26.581714</ele>
|
|
<time>2026-07-10T12:53:45.000Z</time>
|
|
</trkpt>
|
|
<trkpt lat="55.081455" lon="8.659524">
|
|
<ele>-26.593849</ele>
|
|
<time>2026-07-10T12:53:46.000Z</time>
|
|
</trkpt>
|
|
<trkpt lat="55.081509" lon="8.659516">
|
|
<ele>-26.605154</ele>
|
|
<time>2026-07-10T12:53:47.000Z</time>
|
|
</trkpt>
|
|
<trkpt lat="55.081563" lon="8.659508">
|
|
<ele>-26.616458</ele>
|
|
<time>2026-07-10T12:53:48.000Z</time>
|
|
</trkpt>
|
|
<trkpt lat="55.081620" lon="8.659502">
|
|
<ele>-26.622508</ele>
|
|
<time>2026-07-10T12:53:49.000Z</time>
|
|
</trkpt>
|
|
<trkpt lat="55.081677" lon="8.659496">
|
|
<ele>-26.612154</ele>
|
|
<time>2026-07-10T12:53:50.000Z</time>
|
|
</trkpt>
|
|
<trkpt lat="55.081732" lon="8.659488">
|
|
<ele>-26.602148</ele>
|
|
<time>2026-07-10T12:53:51.000Z</time>
|
|
</trkpt>
|
|
<trkpt lat="55.081788" lon="8.659479">
|
|
<ele>-26.591952</ele>
|
|
<time>2026-07-10T12:53:52.000Z</time>
|
|
</trkpt>
|
|
<trkpt lat="55.081842" lon="8.659470">
|
|
<ele>-26.582116</ele>
|
|
<time>2026-07-10T12:53:53.000Z</time>
|
|
</trkpt>
|
|
<trkpt lat="55.081898" lon="8.659461">
|
|
<ele>-26.571920</ele>
|
|
<time>2026-07-10T12:53:54.000Z</time>
|
|
</trkpt>
|
|
<trkpt lat="55.081952" lon="8.659453">
|
|
<ele>-26.562094</ele>
|
|
<time>2026-07-10T12:53:55.000Z</time>
|
|
</trkpt>
|
|
<trkpt lat="55.082006" lon="8.659445">
|
|
<ele>-26.552268</ele>
|
|
<time>2026-07-10T12:53:56.000Z</time>
|
|
</trkpt>
|
|
<trkpt lat="55.082062" lon="8.659438">
|
|
<ele>-26.542089</ele>
|
|
<time>2026-07-10T12:53:57.000Z</time>
|
|
</trkpt>
|
|
<trkpt lat="55.082115" lon="8.659431">
|
|
<ele>-26.532452</ele>
|
|
<time>2026-07-10T12:53:58.000Z</time>
|
|
</trkpt>
|
|
<trkpt lat="55.082169" lon="8.659422">
|
|
<ele>-26.522617</ele>
|
|
<time>2026-07-10T12:53:59.000Z</time>
|
|
</trkpt>
|
|
<trkpt lat="55.082223" lon="8.659414">
|
|
<ele>-26.512791</ele>
|
|
<time>2026-07-10T12:54:00.000Z</time>
|
|
</trkpt>
|
|
<trkpt lat="55.082276" lon="8.659406">
|
|
<ele>-26.503146</ele>
|
|
<time>2026-07-10T12:54:01.000Z</time>
|
|
</trkpt>
|
|
<trkpt lat="55.082329" lon="8.659396">
|
|
<ele>-26.493481</ele>
|
|
<time>2026-07-10T12:54:02.000Z</time>
|
|
</trkpt>
|
|
<trkpt lat="55.082382" lon="8.659388">
|
|
<ele>-26.483836</ele>
|
|
<time>2026-07-10T12:54:03.000Z</time>
|
|
</trkpt>
|
|
<trkpt lat="55.082434" lon="8.659381">
|
|
<ele>-26.474379</ele>
|
|
<time>2026-07-10T12:54:04.000Z</time>
|
|
</trkpt>
|
|
<trkpt lat="55.082486" lon="8.659375">
|
|
<ele>-26.464931</ele>
|
|
<time>2026-07-10T12:54:05.000Z</time>
|
|
</trkpt>
|
|
<trkpt lat="55.082539" lon="8.659370">
|
|
<ele>-26.455307</ele>
|
|
<time>2026-07-10T12:54:06.000Z</time>
|
|
</trkpt>
|
|
<trkpt lat="55.082592" lon="8.659364">
|
|
<ele>-26.445678</ele>
|
|
<time>2026-07-10T12:54:07.000Z</time>
|
|
</trkpt>
|
|
<trkpt lat="55.082644" lon="8.659354">
|
|
<ele>-26.436193</ele>
|
|
<time>2026-07-10T12:54:08.000Z</time>
|
|
</trkpt>
|
|
<trkpt lat="55.082695" lon="8.659344">
|
|
<ele>-26.426888</ele>
|
|
<time>2026-07-10T12:54:09.000Z</time>
|
|
</trkpt>
|
|
<trkpt lat="55.082749" lon="8.659335">
|
|
<ele>-26.417053</ele>
|
|
<time>2026-07-10T12:54:10.000Z</time>
|
|
</trkpt>
|
|
<trkpt lat="55.082802" lon="8.659326">
|
|
<ele>-26.407398</ele>
|
|
<time>2026-07-10T12:54:11.000Z</time>
|
|
</trkpt>
|
|
<trkpt lat="55.082857" lon="8.659319">
|
|
<ele>-26.397400</ele>
|
|
<time>2026-07-10T12:54:12.000Z</time>
|
|
</trkpt>
|
|
<trkpt lat="55.082913" lon="8.659310">
|
|
<ele>-26.387203</ele>
|
|
<time>2026-07-10T12:54:13.000Z</time>
|
|
</trkpt>
|
|
<trkpt lat="55.082966" lon="8.659301">
|
|
<ele>-26.377549</ele>
|
|
<time>2026-07-10T12:54:14.000Z</time>
|
|
</trkpt>
|
|
<trkpt lat="55.083020" lon="8.659293">
|
|
<ele>-26.367723</ele>
|
|
<time>2026-07-10T12:54:15.000Z</time>
|
|
</trkpt>
|
|
<trkpt lat="55.083073" lon="8.659284">
|
|
<ele>-26.358068</ele>
|
|
<time>2026-07-10T12:54:16.000Z</time>
|
|
</trkpt>
|
|
<trkpt lat="55.083128" lon="8.659275">
|
|
<ele>-26.348052</ele>
|
|
<time>2026-07-10T12:54:17.000Z</time>
|
|
</trkpt>
|
|
<trkpt lat="55.083184" lon="8.659265">
|
|
<ele>-26.337846</ele>
|
|
<time>2026-07-10T12:54:18.000Z</time>
|
|
</trkpt>
|
|
<trkpt lat="55.083237" lon="8.659256">
|
|
<ele>-26.328192</ele>
|
|
<time>2026-07-10T12:54:19.000Z</time>
|
|
</trkpt>
|
|
<trkpt lat="55.083290" lon="8.659248">
|
|
<ele>-26.318546</ele>
|
|
<time>2026-07-10T12:54:20.000Z</time>
|
|
</trkpt>
|
|
<trkpt lat="55.083345" lon="8.659242">
|
|
<ele>-26.308555</ele>
|
|
<time>2026-07-10T12:54:21.000Z</time>
|
|
</trkpt>
|
|
<trkpt lat="55.083401" lon="8.659234">
|
|
<ele>-26.298680</ele>
|
|
<time>2026-07-10T12:54:22.000Z</time>
|
|
</trkpt>
|
|
<trkpt lat="55.083455" lon="8.659224">
|
|
<ele>-26.292916</ele>
|
|
<time>2026-07-10T12:54:23.000Z</time>
|
|
</trkpt>
|
|
<trkpt lat="55.083512" lon="8.659216">
|
|
<ele>-26.286846</ele>
|
|
<time>2026-07-10T12:54:24.000Z</time>
|
|
</trkpt>
|
|
<trkpt lat="55.083566" lon="8.659208">
|
|
<ele>-26.281094</ele>
|
|
<time>2026-07-10T12:54:25.000Z</time>
|
|
</trkpt>
|
|
<trkpt lat="55.083622" lon="8.659199">
|
|
<ele>-26.275124</ele>
|
|
<time>2026-07-10T12:54:26.000Z</time>
|
|
</trkpt>
|
|
<trkpt lat="55.083677" lon="8.659189">
|
|
<ele>-26.269255</ele>
|
|
<time>2026-07-10T12:54:27.000Z</time>
|
|
</trkpt>
|
|
<trkpt lat="55.083734" lon="8.659177">
|
|
<ele>-26.263160</ele>
|
|
<time>2026-07-10T12:54:28.000Z</time>
|
|
</trkpt>
|
|
<trkpt lat="55.083790" lon="8.659167">
|
|
<ele>-26.257185</ele>
|
|
<time>2026-07-10T12:54:29.000Z</time>
|
|
</trkpt>
|
|
<trkpt lat="55.083844" lon="8.659156">
|
|
<ele>-26.251414</ele>
|
|
<time>2026-07-10T12:54:30.000Z</time>
|
|
</trkpt>
|
|
<trkpt lat="55.083900" lon="8.659148">
|
|
<ele>-26.245450</ele>
|
|
<time>2026-07-10T12:54:31.000Z</time>
|
|
</trkpt>
|
|
<trkpt lat="55.083955" lon="8.659141">
|
|
<ele>-26.239597</ele>
|
|
<time>2026-07-10T12:54:32.000Z</time>
|
|
</trkpt>
|
|
<trkpt lat="55.084011" lon="8.659134">
|
|
<ele>-26.233637</ele>
|
|
<time>2026-07-10T12:54:33.000Z</time>
|
|
</trkpt>
|
|
<trkpt lat="55.084066" lon="8.659126">
|
|
<ele>-26.227779</ele>
|
|
<time>2026-07-10T12:54:34.000Z</time>
|
|
</trkpt>
|
|
<trkpt lat="55.084123" lon="8.659119">
|
|
<ele>-26.221713</ele>
|
|
<time>2026-07-10T12:54:35.000Z</time>
|
|
</trkpt>
|
|
<trkpt lat="55.084181" lon="8.659111">
|
|
<ele>-26.215538</ele>
|
|
<time>2026-07-10T12:54:36.000Z</time>
|
|
</trkpt>
|
|
<trkpt lat="55.084236" lon="8.659102">
|
|
<ele>-26.209674</ele>
|
|
<time>2026-07-10T12:54:37.000Z</time>
|
|
</trkpt>
|
|
<trkpt lat="55.084291" lon="8.659090">
|
|
<ele>-26.203790</ele>
|
|
<time>2026-07-10T12:54:38.000Z</time>
|
|
</trkpt>
|
|
<trkpt lat="55.084348" lon="8.659079">
|
|
<ele>-26.197703</ele>
|
|
<time>2026-07-10T12:54:39.000Z</time>
|
|
</trkpt>
|
|
<trkpt lat="55.084405" lon="8.659070">
|
|
<ele>-26.191628</ele>
|
|
<time>2026-07-10T12:54:40.000Z</time>
|
|
</trkpt>
|
|
<trkpt lat="55.084463" lon="8.659063">
|
|
<ele>-26.185457</ele>
|
|
<time>2026-07-10T12:54:41.000Z</time>
|
|
</trkpt>
|
|
<trkpt lat="55.084520" lon="8.659055">
|
|
<ele>-26.179387</ele>
|
|
<time>2026-07-10T12:54:42.000Z</time>
|
|
</trkpt>
|
|
<trkpt lat="55.084577" lon="8.659046">
|
|
<ele>-26.173312</ele>
|
|
<time>2026-07-10T12:54:43.000Z</time>
|
|
</trkpt>
|
|
<trkpt lat="55.084634" lon="8.659038">
|
|
<ele>-26.167242</ele>
|
|
<time>2026-07-10T12:54:44.000Z</time>
|
|
</trkpt>
|
|
<trkpt lat="55.084691" lon="8.659032">
|
|
<ele>-26.161180</ele>
|
|
<time>2026-07-10T12:54:45.000Z</time>
|
|
</trkpt>
|
|
<trkpt lat="55.084748" lon="8.659025">
|
|
<ele>-26.155115</ele>
|
|
<time>2026-07-10T12:54:46.000Z</time>
|
|
</trkpt>
|
|
<trkpt lat="55.084802" lon="8.659019">
|
|
<ele>-26.149372</ele>
|
|
<time>2026-07-10T12:54:47.000Z</time>
|
|
</trkpt>
|
|
<trkpt lat="55.084858" lon="8.659013">
|
|
<ele>-26.143416</ele>
|
|
<time>2026-07-10T12:54:48.000Z</time>
|
|
</trkpt>
|
|
<trkpt lat="55.084913" lon="8.659008">
|
|
<ele>-26.137570</ele>
|
|
<time>2026-07-10T12:54:49.000Z</time>
|
|
</trkpt>
|
|
<trkpt lat="55.084969" lon="8.659000">
|
|
<ele>-26.131606</ele>
|
|
<time>2026-07-10T12:54:50.000Z</time>
|
|
</trkpt>
|
|
<trkpt lat="55.085023" lon="8.658989">
|
|
<ele>-26.125835</ele>
|
|
<time>2026-07-10T12:54:51.000Z</time>
|
|
</trkpt>
|
|
<trkpt lat="55.085081" lon="8.658977">
|
|
<ele>-26.119636</ele>
|
|
<time>2026-07-10T12:54:52.000Z</time>
|
|
</trkpt>
|
|
<trkpt lat="55.085137" lon="8.658967">
|
|
<ele>-26.113660</ele>
|
|
<time>2026-07-10T12:54:53.000Z</time>
|
|
</trkpt>
|
|
<trkpt lat="55.085192" lon="8.658960">
|
|
<ele>-26.106136</ele>
|
|
<time>2026-07-10T12:54:54.000Z</time>
|
|
</trkpt>
|
|
<trkpt lat="55.085247" lon="8.658955">
|
|
<ele>-26.075411</ele>
|
|
<time>2026-07-10T12:54:55.000Z</time>
|
|
</trkpt>
|
|
<trkpt lat="55.085300" lon="8.658949">
|
|
<ele>-26.045782</ele>
|
|
<time>2026-07-10T12:54:56.000Z</time>
|
|
</trkpt>
|
|
<trkpt lat="55.085355" lon="8.658938">
|
|
<ele>-26.014898</ele>
|
|
<time>2026-07-10T12:54:57.000Z</time>
|
|
</trkpt>
|
|
<trkpt lat="55.085411" lon="8.658930">
|
|
<ele>-25.983553</ele>
|
|
<time>2026-07-10T12:54:58.000Z</time>
|
|
</trkpt>
|
|
<trkpt lat="55.085466" lon="8.658924">
|
|
<ele>-25.952810</ele>
|
|
<time>2026-07-10T12:54:59.000Z</time>
|
|
</trkpt>
|
|
<trkpt lat="55.085522" lon="8.658918">
|
|
<ele>-25.921510</ele>
|
|
<time>2026-07-10T12:55:00.000Z</time>
|
|
</trkpt>
|
|
<trkpt lat="55.085577" lon="8.658910">
|
|
<ele>-25.890721</ele>
|
|
<time>2026-07-10T12:55:01.000Z</time>
|
|
</trkpt>
|
|
<trkpt lat="55.085634" lon="8.658902">
|
|
<ele>-25.858820</ele>
|
|
<time>2026-07-10T12:55:02.000Z</time>
|
|
</trkpt>
|
|
<trkpt lat="55.085691" lon="8.658892">
|
|
<ele>-25.826861</ele>
|
|
<time>2026-07-10T12:55:03.000Z</time>
|
|
</trkpt>
|
|
<trkpt lat="55.085747" lon="8.658882">
|
|
<ele>-25.795457</ele>
|
|
<time>2026-07-10T12:55:04.000Z</time>
|
|
</trkpt>
|
|
<trkpt lat="55.085802" lon="8.658874">
|
|
<ele>-25.764668</ele>
|
|
<time>2026-07-10T12:55:05.000Z</time>
|
|
</trkpt>
|
|
<trkpt lat="55.085859" lon="8.658868">
|
|
<ele>-25.732811</ele>
|
|
<time>2026-07-10T12:55:06.000Z</time>
|
|
</trkpt>
|
|
<trkpt lat="55.085915" lon="8.658860">
|
|
<ele>-25.701466</ele>
|
|
<time>2026-07-10T12:55:07.000Z</time>
|
|
</trkpt>
|
|
<trkpt lat="55.085969" lon="8.658854">
|
|
<ele>-25.671280</ele>
|
|
<time>2026-07-10T12:55:08.000Z</time>
|
|
</trkpt>
|
|
<trkpt lat="55.086026" lon="8.658844">
|
|
<ele>-25.639321</ele>
|
|
<time>2026-07-10T12:55:09.000Z</time>
|
|
</trkpt>
|
|
<trkpt lat="55.086079" lon="8.658834">
|
|
<ele>-25.609582</ele>
|
|
<time>2026-07-10T12:55:10.000Z</time>
|
|
</trkpt>
|
|
<trkpt lat="55.086132" lon="8.658828">
|
|
<ele>-25.579953</ele>
|
|
<time>2026-07-10T12:55:11.000Z</time>
|
|
</trkpt>
|
|
<trkpt lat="55.086187" lon="8.658824">
|
|
<ele>-25.549243</ele>
|
|
<time>2026-07-10T12:55:12.000Z</time>
|
|
</trkpt>
|
|
<trkpt lat="55.086243" lon="8.658820">
|
|
<ele>-25.517976</ele>
|
|
<time>2026-07-10T12:55:13.000Z</time>
|
|
</trkpt>
|
|
<trkpt lat="55.086298" lon="8.658813">
|
|
<ele>-25.487211</ele>
|
|
<time>2026-07-10T12:55:14.000Z</time>
|
|
</trkpt>
|
|
<trkpt lat="55.086354" lon="8.658805">
|
|
<ele>-25.455866</ele>
|
|
<time>2026-07-10T12:55:15.000Z</time>
|
|
</trkpt>
|
|
<trkpt lat="55.086408" lon="8.658798">
|
|
<ele>-25.425658</ele>
|
|
<time>2026-07-10T12:55:16.000Z</time>
|
|
</trkpt>
|
|
<trkpt lat="55.086464" lon="8.658790">
|
|
<ele>-25.394313</ele>
|
|
<time>2026-07-10T12:55:17.000Z</time>
|
|
</trkpt>
|
|
<trkpt lat="55.086517" lon="8.658781">
|
|
<ele>-25.364606</ele>
|
|
<time>2026-07-10T12:55:18.000Z</time>
|
|
</trkpt>
|
|
<trkpt lat="55.086572" lon="8.658774">
|
|
<ele>-25.333842</ele>
|
|
<time>2026-07-10T12:55:19.000Z</time>
|
|
</trkpt>
|
|
<trkpt lat="55.086628" lon="8.658771">
|
|
<ele>-25.302586</ele>
|
|
<time>2026-07-10T12:55:20.000Z</time>
|
|
</trkpt>
|
|
<trkpt lat="55.086683" lon="8.658768">
|
|
<ele>-25.271888</ele>
|
|
<time>2026-07-10T12:55:21.000Z</time>
|
|
</trkpt>
|
|
<trkpt lat="55.086739" lon="8.658765">
|
|
<ele>-25.240632</ele>
|
|
<time>2026-07-10T12:55:22.000Z</time>
|
|
</trkpt>
|
|
<trkpt lat="55.086794" lon="8.658761">
|
|
<ele>-25.209922</ele>
|
|
<time>2026-07-10T12:55:23.000Z</time>
|
|
</trkpt>
|
|
<trkpt lat="55.086851" lon="8.658758">
|
|
<ele>-25.178109</ele>
|
|
<time>2026-07-10T12:55:24.000Z</time>
|
|
</trkpt>
|
|
<trkpt lat="55.086908" lon="8.658758">
|
|
<ele>-25.146310</ele>
|
|
<time>2026-07-10T12:55:25.000Z</time>
|
|
</trkpt>
|
|
<trkpt lat="55.086964" lon="8.658759">
|
|
<ele>-25.115068</ele>
|
|
<time>2026-07-10T12:55:26.000Z</time>
|
|
</trkpt>
|
|
<trkpt lat="55.087017" lon="8.658761">
|
|
<ele>-25.102693</ele>
|
|
<time>2026-07-10T12:55:27.000Z</time>
|
|
</trkpt>
|
|
<trkpt lat="55.087070" lon="8.658766">
|
|
<ele>-25.099488</ele>
|
|
<time>2026-07-10T12:55:28.000Z</time>
|
|
</trkpt>
|
|
<trkpt lat="55.087120" lon="8.658770">
|
|
<ele>-25.096465</ele>
|
|
<time>2026-07-10T12:55:29.000Z</time>
|
|
</trkpt>
|
|
<trkpt lat="55.087169" lon="8.658769">
|
|
<ele>-25.093506</ele>
|
|
<time>2026-07-10T12:55:30.000Z</time>
|
|
</trkpt>
|
|
<trkpt lat="55.087219" lon="8.658768">
|
|
<ele>-25.090487</ele>
|
|
<time>2026-07-10T12:55:31.000Z</time>
|
|
</trkpt>
|
|
<trkpt lat="55.087267" lon="8.658770">
|
|
<ele>-25.087587</ele>
|
|
<time>2026-07-10T12:55:32.000Z</time>
|
|
</trkpt>
|
|
<trkpt lat="55.087313" lon="8.658775">
|
|
<ele>-25.084804</ele>
|
|
<time>2026-07-10T12:55:33.000Z</time>
|
|
</trkpt>
|
|
<trkpt lat="55.087358" lon="8.658786">
|
|
<ele>-25.082060</ele>
|
|
<time>2026-07-10T12:55:34.000Z</time>
|
|
</trkpt>
|
|
<trkpt lat="55.087402" lon="8.658799">
|
|
<ele>-25.079365</ele>
|
|
<time>2026-07-10T12:55:35.000Z</time>
|
|
</trkpt>
|
|
<trkpt lat="55.087439" lon="8.658810">
|
|
<ele>-25.077099</ele>
|
|
<time>2026-07-10T12:55:36.000Z</time>
|
|
</trkpt>
|
|
<trkpt lat="55.087473" lon="8.658818">
|
|
<ele>-25.075027</ele>
|
|
<time>2026-07-10T12:55:37.000Z</time>
|
|
</trkpt>
|
|
<trkpt lat="55.087507" lon="8.658824">
|
|
<ele>-25.072964</ele>
|
|
<time>2026-07-10T12:55:38.000Z</time>
|
|
</trkpt>
|
|
<trkpt lat="55.087536" lon="8.658828">
|
|
<ele>-25.071207</ele>
|
|
<time>2026-07-10T12:55:39.000Z</time>
|
|
</trkpt>
|
|
<trkpt lat="55.087562" lon="8.658832">
|
|
<ele>-25.069631</ele>
|
|
<time>2026-07-10T12:55:40.000Z</time>
|
|
</trkpt>
|
|
<trkpt lat="55.087585" lon="8.658831">
|
|
<ele>-25.068241</ele>
|
|
<time>2026-07-10T12:55:41.000Z</time>
|
|
</trkpt>
|
|
<trkpt lat="55.087607" lon="8.658826">
|
|
<ele>-25.066902</ele>
|
|
<time>2026-07-10T12:55:42.000Z</time>
|
|
</trkpt>
|
|
<trkpt lat="55.087630" lon="8.658814">
|
|
<ele>-25.065452</ele>
|
|
<time>2026-07-10T12:55:43.000Z</time>
|
|
</trkpt>
|
|
<trkpt lat="55.087654" lon="8.658799">
|
|
<ele>-25.063913</ele>
|
|
<time>2026-07-10T12:55:44.000Z</time>
|
|
</trkpt>
|
|
<trkpt lat="55.087681" lon="8.658775">
|
|
<ele>-25.062084</ele>
|
|
<time>2026-07-10T12:55:45.000Z</time>
|
|
</trkpt>
|
|
<trkpt lat="55.087705" lon="8.658744">
|
|
<ele>-25.060281</ele>
|
|
<time>2026-07-10T12:55:46.000Z</time>
|
|
</trkpt>
|
|
<trkpt lat="55.087723" lon="8.658704">
|
|
<ele>-25.058523</ele>
|
|
<time>2026-07-10T12:55:47.000Z</time>
|
|
</trkpt>
|
|
<trkpt lat="55.087736" lon="8.658653">
|
|
<ele>-25.056593</ele>
|
|
<time>2026-07-10T12:55:48.000Z</time>
|
|
</trkpt>
|
|
<trkpt lat="55.087742" lon="8.658596">
|
|
<ele>-25.054590</ele>
|
|
<time>2026-07-10T12:55:49.000Z</time>
|
|
</trkpt>
|
|
<trkpt lat="55.087742" lon="8.658538">
|
|
<ele>-25.052586</ele>
|
|
<time>2026-07-10T12:55:50.000Z</time>
|
|
</trkpt>
|
|
<trkpt lat="55.087745" lon="8.658478">
|
|
<ele>-25.050504</ele>
|
|
<time>2026-07-10T12:55:51.000Z</time>
|
|
</trkpt>
|
|
<trkpt lat="55.087757" lon="8.658414">
|
|
<ele>-25.048176</ele>
|
|
<time>2026-07-10T12:55:52.000Z</time>
|
|
</trkpt>
|
|
<trkpt lat="55.087770" lon="8.658354">
|
|
<ele>-25.045959</ele>
|
|
<time>2026-07-10T12:55:53.000Z</time>
|
|
</trkpt>
|
|
<trkpt lat="55.087792" lon="8.658294">
|
|
<ele>-25.043496</ele>
|
|
<time>2026-07-10T12:55:54.000Z</time>
|
|
</trkpt>
|
|
<trkpt lat="55.087821" lon="8.658244">
|
|
<ele>-25.041036</ele>
|
|
<time>2026-07-10T12:55:55.000Z</time>
|
|
</trkpt>
|
|
<trkpt lat="55.087856" lon="8.658207">
|
|
<ele>-25.038566</ele>
|
|
<time>2026-07-10T12:55:56.000Z</time>
|
|
</trkpt>
|
|
<trkpt lat="55.087895" lon="8.658182">
|
|
<ele>-25.036057</ele>
|
|
<time>2026-07-10T12:55:57.000Z</time>
|
|
</trkpt>
|
|
<trkpt lat="55.087940" lon="8.658165">
|
|
<ele>-25.033277</ele>
|
|
<time>2026-07-10T12:55:58.000Z</time>
|
|
</trkpt>
|
|
<trkpt lat="55.087987" lon="8.658152">
|
|
<ele>-25.030403</ele>
|
|
<time>2026-07-10T12:55:59.000Z</time>
|
|
</trkpt>
|
|
<trkpt lat="55.088031" lon="8.658138">
|
|
<ele>-25.027703</ele>
|
|
<time>2026-07-10T12:56:00.000Z</time>
|
|
</trkpt>
|
|
<trkpt lat="55.088080" lon="8.658124">
|
|
<ele>-25.024704</ele>
|
|
<time>2026-07-10T12:56:01.000Z</time>
|
|
</trkpt>
|
|
<trkpt lat="55.088126" lon="8.658106">
|
|
<ele>-25.021858</ele>
|
|
<time>2026-07-10T12:56:02.000Z</time>
|
|
</trkpt>
|
|
<trkpt lat="55.088175" lon="8.658086">
|
|
<ele>-25.018819</ele>
|
|
<time>2026-07-10T12:56:03.000Z</time>
|
|
</trkpt>
|
|
<trkpt lat="55.088223" lon="8.658068">
|
|
<ele>-25.015855</ele>
|
|
<time>2026-07-10T12:56:04.000Z</time>
|
|
</trkpt>
|
|
<trkpt lat="55.088275" lon="8.658048">
|
|
<ele>-25.012639</ele>
|
|
<time>2026-07-10T12:56:05.000Z</time>
|
|
</trkpt>
|
|
<trkpt lat="55.088326" lon="8.658030">
|
|
<ele>-25.009497</ele>
|
|
<time>2026-07-10T12:56:06.000Z</time>
|
|
</trkpt>
|
|
<trkpt lat="55.088378" lon="8.658013">
|
|
<ele>-25.006303</ele>
|
|
<time>2026-07-10T12:56:07.000Z</time>
|
|
</trkpt>
|
|
<trkpt lat="55.088428" lon="8.657994">
|
|
<ele>-25.003213</ele>
|
|
<time>2026-07-10T12:56:08.000Z</time>
|
|
</trkpt>
|
|
<trkpt lat="55.088479" lon="8.657973">
|
|
<ele>-25.000048</ele>
|
|
<time>2026-07-10T12:56:09.000Z</time>
|
|
</trkpt>
|
|
<trkpt lat="55.088532" lon="8.657956">
|
|
<ele>-24.996794</ele>
|
|
<time>2026-07-10T12:56:10.000Z</time>
|
|
</trkpt>
|
|
<trkpt lat="55.088583" lon="8.657935">
|
|
<ele>-25.008490</ele>
|
|
<time>2026-07-10T12:56:11.000Z</time>
|
|
</trkpt>
|
|
<trkpt lat="55.088634" lon="8.657915">
|
|
<ele>-25.023836</ele>
|
|
<time>2026-07-10T12:56:12.000Z</time>
|
|
</trkpt>
|
|
<trkpt lat="55.088683" lon="8.657890">
|
|
<ele>-25.038823</ele>
|
|
<time>2026-07-10T12:56:13.000Z</time>
|
|
</trkpt>
|
|
<trkpt lat="55.088733" lon="8.657865">
|
|
<ele>-25.054092</ele>
|
|
<time>2026-07-10T12:56:14.000Z</time>
|
|
</trkpt>
|
|
<trkpt lat="55.088784" lon="8.657843">
|
|
<ele>-25.069515</ele>
|
|
<time>2026-07-10T12:56:15.000Z</time>
|
|
</trkpt>
|
|
<trkpt lat="55.088837" lon="8.657821">
|
|
<ele>-25.085509</ele>
|
|
<time>2026-07-10T12:56:16.000Z</time>
|
|
</trkpt>
|
|
<trkpt lat="55.088890" lon="8.657802">
|
|
<ele>-25.101394</ele>
|
|
<time>2026-07-10T12:56:17.000Z</time>
|
|
</trkpt>
|
|
<trkpt lat="55.088944" lon="8.657785">
|
|
<ele>-25.117503</ele>
|
|
<time>2026-07-10T12:56:18.000Z</time>
|
|
</trkpt>
|
|
<trkpt lat="55.088997" lon="8.657767">
|
|
<ele>-25.133355</ele>
|
|
<time>2026-07-10T12:56:19.000Z</time>
|
|
</trkpt>
|
|
<trkpt lat="55.089052" lon="8.657748">
|
|
<ele>-25.149816</ele>
|
|
<time>2026-07-10T12:56:20.000Z</time>
|
|
</trkpt>
|
|
<trkpt lat="55.089108" lon="8.657729">
|
|
<ele>-25.166564</ele>
|
|
<time>2026-07-10T12:56:21.000Z</time>
|
|
</trkpt>
|
|
<trkpt lat="55.089162" lon="8.657712">
|
|
<ele>-25.182674</ele>
|
|
<time>2026-07-10T12:56:22.000Z</time>
|
|
</trkpt>
|
|
<trkpt lat="55.089218" lon="8.657695">
|
|
<ele>-25.199361</ele>
|
|
<time>2026-07-10T12:56:23.000Z</time>
|
|
</trkpt>
|
|
<trkpt lat="55.089272" lon="8.657680">
|
|
<ele>-25.215415</ele>
|
|
<time>2026-07-10T12:56:24.000Z</time>
|
|
</trkpt>
|
|
<trkpt lat="55.089326" lon="8.657662">
|
|
<ele>-25.231555</ele>
|
|
<time>2026-07-10T12:56:25.000Z</time>
|
|
</trkpt>
|
|
<trkpt lat="55.089384" lon="8.657641">
|
|
<ele>-25.248945</ele>
|
|
<time>2026-07-10T12:56:26.000Z</time>
|
|
</trkpt>
|
|
<trkpt lat="55.089441" lon="8.657622">
|
|
<ele>-25.265982</ele>
|
|
<time>2026-07-10T12:56:27.000Z</time>
|
|
</trkpt>
|
|
<trkpt lat="55.089497" lon="8.657605">
|
|
<ele>-25.282670</ele>
|
|
<time>2026-07-10T12:56:28.000Z</time>
|
|
</trkpt>
|
|
<trkpt lat="55.089552" lon="8.657587">
|
|
<ele>-25.299099</ele>
|
|
<time>2026-07-10T12:56:29.000Z</time>
|
|
</trkpt>
|
|
<trkpt lat="55.089608" lon="8.657565">
|
|
<ele>-25.315951</ele>
|
|
<time>2026-07-10T12:56:30.000Z</time>
|
|
</trkpt>
|
|
<trkpt lat="55.089661" lon="8.657544">
|
|
<ele>-25.331906</ele>
|
|
<time>2026-07-10T12:56:31.000Z</time>
|
|
</trkpt>
|
|
<trkpt lat="55.089714" lon="8.657525">
|
|
<ele>-25.347791</ele>
|
|
<time>2026-07-10T12:56:32.000Z</time>
|
|
</trkpt>
|
|
<trkpt lat="55.089767" lon="8.657511">
|
|
<ele>-25.363529</ele>
|
|
<time>2026-07-10T12:56:33.000Z</time>
|
|
</trkpt>
|
|
<trkpt lat="55.089816" lon="8.657498">
|
|
<ele>-25.378080</ele>
|
|
<time>2026-07-10T12:56:34.000Z</time>
|
|
</trkpt>
|
|
<trkpt lat="55.089866" lon="8.657487">
|
|
<ele>-25.392875</ele>
|
|
<time>2026-07-10T12:56:35.000Z</time>
|
|
</trkpt>
|
|
<trkpt lat="55.089916" lon="8.657478">
|
|
<ele>-25.407633</ele>
|
|
<time>2026-07-10T12:56:36.000Z</time>
|
|
</trkpt>
|
|
<trkpt lat="55.089965" lon="8.657468">
|
|
<ele>-25.422117</ele>
|
|
<time>2026-07-10T12:56:37.000Z</time>
|
|
</trkpt>
|
|
<trkpt lat="55.090014" lon="8.657457">
|
|
<ele>-25.436622</ele>
|
|
<time>2026-07-10T12:56:38.000Z</time>
|
|
</trkpt>
|
|
<trkpt lat="55.090059" lon="8.657446">
|
|
<ele>-25.449962</ele>
|
|
<time>2026-07-10T12:56:39.000Z</time>
|
|
</trkpt>
|
|
<trkpt lat="55.090105" lon="8.657435">
|
|
<ele>-25.463594</ele>
|
|
<time>2026-07-10T12:56:40.000Z</time>
|
|
</trkpt>
|
|
<trkpt lat="55.090151" lon="8.657417">
|
|
<ele>-25.477434</ele>
|
|
<time>2026-07-10T12:56:41.000Z</time>
|
|
</trkpt>
|
|
<trkpt lat="55.090196" lon="8.657400">
|
|
<ele>-25.490951</ele>
|
|
<time>2026-07-10T12:56:42.000Z</time>
|
|
</trkpt>
|
|
<trkpt lat="55.090236" lon="8.657391">
|
|
<ele>-25.502792</ele>
|
|
<time>2026-07-10T12:56:43.000Z</time>
|
|
</trkpt>
|
|
<trkpt lat="55.090274" lon="8.657387">
|
|
<ele>-25.513969</ele>
|
|
<time>2026-07-10T12:56:44.000Z</time>
|
|
</trkpt>
|
|
<trkpt lat="55.090310" lon="8.657377">
|
|
<ele>-25.525229</ele>
|
|
<time>2026-07-10T12:56:45.000Z</time>
|
|
</trkpt>
|
|
<trkpt lat="55.090340" lon="8.657355">
|
|
<ele>-25.547237</ele>
|
|
<time>2026-07-10T12:56:46.000Z</time>
|
|
</trkpt>
|
|
<trkpt lat="55.090365" lon="8.657324">
|
|
<ele>-25.567973</ele>
|
|
<time>2026-07-10T12:56:47.000Z</time>
|
|
</trkpt>
|
|
<trkpt lat="55.090386" lon="8.657283">
|
|
<ele>-25.589273</ele>
|
|
<time>2026-07-10T12:56:48.000Z</time>
|
|
</trkpt>
|
|
<trkpt lat="55.090403" lon="8.657233">
|
|
<ele>-25.611787</ele>
|
|
<time>2026-07-10T12:56:49.000Z</time>
|
|
</trkpt>
|
|
<trkpt lat="55.090422" lon="8.657184">
|
|
<ele>-25.634700</ele>
|
|
<time>2026-07-10T12:56:50.000Z</time>
|
|
</trkpt>
|
|
<trkpt lat="55.090439" lon="8.657143">
|
|
<ele>-25.654300</ele>
|
|
<time>2026-07-10T12:56:51.000Z</time>
|
|
</trkpt>
|
|
<trkpt lat="55.090453" lon="8.657112">
|
|
<ele>-25.669587</ele>
|
|
<time>2026-07-10T12:56:52.000Z</time>
|
|
</trkpt>
|
|
<trkpt lat="55.090460" lon="8.657089">
|
|
<ele>-25.679671</ele>
|
|
<time>2026-07-10T12:56:53.000Z</time>
|
|
</trkpt>
|
|
<trkpt lat="55.090451" lon="8.657079">
|
|
<ele>-25.686886</ele>
|
|
<time>2026-07-10T12:56:54.000Z</time>
|
|
</trkpt>
|
|
<trkpt lat="55.090439" lon="8.657084">
|
|
<ele>-25.695231</ele>
|
|
<time>2026-07-10T12:56:55.000Z</time>
|
|
</trkpt>
|
|
<trkpt lat="55.090430" lon="8.657096">
|
|
<ele>-25.702889</ele>
|
|
<time>2026-07-10T12:56:56.000Z</time>
|
|
</trkpt>
|
|
<trkpt lat="55.090426" lon="8.657107">
|
|
<ele>-25.707934</ele>
|
|
<time>2026-07-10T12:56:57.000Z</time>
|
|
</trkpt>
|
|
<trkpt lat="55.090420" lon="8.657134">
|
|
<ele>-25.719146</ele>
|
|
<time>2026-07-10T12:56:58.000Z</time>
|
|
</trkpt>
|
|
<trkpt lat="55.090419" lon="8.657144">
|
|
<ele>-25.723076</ele>
|
|
<time>2026-07-10T12:56:59.000Z</time>
|
|
</trkpt>
|
|
<trkpt lat="55.090407" lon="8.657171">
|
|
<ele>-25.736310</ele>
|
|
<time>2026-07-10T12:57:04.000Z</time>
|
|
</trkpt>
|
|
<trkpt lat="55.090400" lon="8.657197">
|
|
<ele>-25.747433</ele>
|
|
<time>2026-07-10T12:57:05.000Z</time>
|
|
</trkpt>
|
|
<trkpt lat="55.090392" lon="8.657228">
|
|
<ele>-25.760597</ele>
|
|
<time>2026-07-10T12:57:06.000Z</time>
|
|
</trkpt>
|
|
<trkpt lat="55.090377" lon="8.657290">
|
|
<ele>-25.786655</ele>
|
|
<time>2026-07-10T12:57:07.000Z</time>
|
|
</trkpt>
|
|
<trkpt lat="55.090375" lon="8.657319">
|
|
<ele>-25.797963</ele>
|
|
<time>2026-07-10T12:57:08.000Z</time>
|
|
</trkpt>
|
|
<trkpt lat="55.090387" lon="8.657384">
|
|
<ele>-25.824402</ele>
|
|
<time>2026-07-10T12:57:09.000Z</time>
|
|
</trkpt>
|
|
<trkpt lat="55.090407" lon="8.657418">
|
|
<ele>-25.843277</ele>
|
|
<time>2026-07-10T12:57:10.000Z</time>
|
|
</trkpt>
|
|
<trkpt lat="55.090431" lon="8.657443">
|
|
<ele>-25.862178</ele>
|
|
<time>2026-07-10T12:57:11.000Z</time>
|
|
</trkpt>
|
|
<trkpt lat="55.090461" lon="8.657464">
|
|
<ele>-25.884039</ele>
|
|
<time>2026-07-10T12:57:12.000Z</time>
|
|
</trkpt>
|
|
<trkpt lat="55.090487" lon="8.657482">
|
|
<ele>-25.902956</ele>
|
|
<time>2026-07-10T12:57:13.000Z</time>
|
|
</trkpt>
|
|
<trkpt lat="55.090514" lon="8.657501">
|
|
<ele>-25.922645</ele>
|
|
<time>2026-07-10T12:57:14.000Z</time>
|
|
</trkpt>
|
|
<trkpt lat="55.090540" lon="8.657517">
|
|
<ele>-25.941292</ele>
|
|
<time>2026-07-10T12:57:15.000Z</time>
|
|
</trkpt>
|
|
<trkpt lat="55.090569" lon="8.657533">
|
|
<ele>-25.961863</ele>
|
|
<time>2026-07-10T12:57:16.000Z</time>
|
|
</trkpt>
|
|
<trkpt lat="55.090600" lon="8.657549">
|
|
<ele>-25.983728</ele>
|
|
<time>2026-07-10T12:57:17.000Z</time>
|
|
</trkpt>
|
|
<trkpt lat="55.090640" lon="8.657572">
|
|
<ele>-26.012213</ele>
|
|
<time>2026-07-10T12:57:18.000Z</time>
|
|
</trkpt>
|
|
<trkpt lat="55.090678" lon="8.657589">
|
|
<ele>-26.038747</ele>
|
|
<time>2026-07-10T12:57:19.000Z</time>
|
|
</trkpt>
|
|
<trkpt lat="55.090722" lon="8.657603">
|
|
<ele>-26.069000</ele>
|
|
<time>2026-07-10T12:57:20.000Z</time>
|
|
</trkpt>
|
|
<trkpt lat="55.090766" lon="8.657612">
|
|
<ele>-26.098966</ele>
|
|
<time>2026-07-10T12:57:21.000Z</time>
|
|
</trkpt>
|
|
<trkpt lat="55.090818" lon="8.657609">
|
|
<ele>-26.134160</ele>
|
|
<time>2026-07-10T12:57:22.000Z</time>
|
|
</trkpt>
|
|
<trkpt lat="55.090864" lon="8.657597">
|
|
<ele>-26.165621</ele>
|
|
<time>2026-07-10T12:57:23.000Z</time>
|
|
</trkpt>
|
|
<trkpt lat="55.090914" lon="8.657580">
|
|
<ele>-26.200078</ele>
|
|
<time>2026-07-10T12:57:24.000Z</time>
|
|
</trkpt>
|
|
<trkpt lat="55.090962" lon="8.657560">
|
|
<ele>-26.233457</ele>
|
|
<time>2026-07-10T12:57:25.000Z</time>
|
|
</trkpt>
|
|
<trkpt lat="55.091018" lon="8.657535">
|
|
<ele>-26.272555</ele>
|
|
<time>2026-07-10T12:57:26.000Z</time>
|
|
</trkpt>
|
|
<trkpt lat="55.091065" lon="8.657517">
|
|
<ele>-26.305102</ele>
|
|
<time>2026-07-10T12:57:27.000Z</time>
|
|
</trkpt>
|
|
<trkpt lat="55.091109" lon="8.657498">
|
|
<ele>-26.335761</ele>
|
|
<time>2026-07-10T12:57:28.000Z</time>
|
|
</trkpt>
|
|
<trkpt lat="55.091160" lon="8.657468">
|
|
<ele>-26.372161</ele>
|
|
<time>2026-07-10T12:57:29.000Z</time>
|
|
</trkpt>
|
|
<trkpt lat="55.091211" lon="8.657421">
|
|
<ele>-26.411163</ele>
|
|
<time>2026-07-10T12:57:30.000Z</time>
|
|
</trkpt>
|
|
<trkpt lat="55.091255" lon="8.657361">
|
|
<ele>-26.448917</ele>
|
|
<time>2026-07-10T12:57:31.000Z</time>
|
|
</trkpt>
|
|
<trkpt lat="55.091291" lon="8.657296">
|
|
<ele>-26.483933</ele>
|
|
<time>2026-07-10T12:57:32.000Z</time>
|
|
</trkpt>
|
|
<trkpt lat="55.091322" lon="8.657229">
|
|
<ele>-26.517286</ele>
|
|
<time>2026-07-10T12:57:33.000Z</time>
|
|
</trkpt>
|
|
<trkpt lat="55.091354" lon="8.657161">
|
|
<ele>-26.551366</ele>
|
|
<time>2026-07-10T12:57:34.000Z</time>
|
|
</trkpt>
|
|
<trkpt lat="55.091380" lon="8.657098">
|
|
<ele>-26.581434</ele>
|
|
<time>2026-07-10T12:57:35.000Z</time>
|
|
</trkpt>
|
|
<trkpt lat="55.091408" lon="8.657035">
|
|
<ele>-26.612313</ele>
|
|
<time>2026-07-10T12:57:36.000Z</time>
|
|
</trkpt>
|
|
<trkpt lat="55.091440" lon="8.656972">
|
|
<ele>-26.644921</ele>
|
|
<time>2026-07-10T12:57:37.000Z</time>
|
|
</trkpt>
|
|
<trkpt lat="55.091474" lon="8.656919">
|
|
<ele>-26.675741</ele>
|
|
<time>2026-07-10T12:57:38.000Z</time>
|
|
</trkpt>
|
|
<trkpt lat="55.091507" lon="8.656874">
|
|
<ele>-26.704056</ele>
|
|
<time>2026-07-10T12:57:39.000Z</time>
|
|
</trkpt>
|
|
<trkpt lat="55.091544" lon="8.656827">
|
|
<ele>-26.734999</ele>
|
|
<time>2026-07-10T12:57:40.000Z</time>
|
|
</trkpt>
|
|
<trkpt lat="55.091580" lon="8.656789">
|
|
<ele>-26.785918</ele>
|
|
<time>2026-07-10T12:57:41.000Z</time>
|
|
</trkpt>
|
|
<trkpt lat="55.091621" lon="8.656754">
|
|
<ele>-26.847567</ele>
|
|
<time>2026-07-10T12:57:42.000Z</time>
|
|
</trkpt>
|
|
<trkpt lat="55.091666" lon="8.656725">
|
|
<ele>-26.912367</ele>
|
|
<time>2026-07-10T12:57:43.000Z</time>
|
|
</trkpt>
|
|
<trkpt lat="55.091714" lon="8.656701">
|
|
<ele>-26.979819</ele>
|
|
<time>2026-07-10T12:57:44.000Z</time>
|
|
</trkpt>
|
|
<trkpt lat="55.091769" lon="8.656675">
|
|
<ele>-27.056797</ele>
|
|
<time>2026-07-10T12:57:45.000Z</time>
|
|
</trkpt>
|
|
<trkpt lat="55.091824" lon="8.656649">
|
|
<ele>-27.133775</ele>
|
|
<time>2026-07-10T12:57:46.000Z</time>
|
|
</trkpt>
|
|
<trkpt lat="55.091877" lon="8.656628">
|
|
<ele>-27.207198</ele>
|
|
<time>2026-07-10T12:57:47.000Z</time>
|
|
</trkpt>
|
|
<trkpt lat="55.091929" lon="8.656611">
|
|
<ele>-27.278671</ele>
|
|
<time>2026-07-10T12:57:48.000Z</time>
|
|
</trkpt>
|
|
<trkpt lat="55.091982" lon="8.656592">
|
|
<ele>-27.351767</ele>
|
|
<time>2026-07-10T12:57:49.000Z</time>
|
|
</trkpt>
|
|
<trkpt lat="55.092032" lon="8.656572">
|
|
<ele>-27.421066</ele>
|
|
<time>2026-07-10T12:57:50.000Z</time>
|
|
</trkpt>
|
|
<trkpt lat="55.092080" lon="8.656552">
|
|
<ele>-27.487734</ele>
|
|
<time>2026-07-10T12:57:51.000Z</time>
|
|
</trkpt>
|
|
<trkpt lat="55.092130" lon="8.656534">
|
|
<ele>-27.556704</ele>
|
|
<time>2026-07-10T12:57:52.000Z</time>
|
|
</trkpt>
|
|
<trkpt lat="55.092178" lon="8.656518">
|
|
<ele>-27.622723</ele>
|
|
<time>2026-07-10T12:57:53.000Z</time>
|
|
</trkpt>
|
|
<trkpt lat="55.092218" lon="8.656502">
|
|
<ele>-27.678163</ele>
|
|
<time>2026-07-10T12:57:54.000Z</time>
|
|
</trkpt>
|
|
<trkpt lat="55.092264" lon="8.656480">
|
|
<ele>-27.742596</ele>
|
|
<time>2026-07-10T12:57:55.000Z</time>
|
|
</trkpt>
|
|
<trkpt lat="55.092309" lon="8.656457">
|
|
<ele>-27.805940</ele>
|
|
<time>2026-07-10T12:57:56.000Z</time>
|
|
</trkpt>
|
|
<trkpt lat="55.092349" lon="8.656435">
|
|
<ele>-27.862595</ele>
|
|
<time>2026-07-10T12:57:57.000Z</time>
|
|
</trkpt>
|
|
<trkpt lat="55.092384" lon="8.656415">
|
|
<ele>-27.912345</ele>
|
|
<time>2026-07-10T12:57:58.000Z</time>
|
|
</trkpt>
|
|
<trkpt lat="55.092421" lon="8.656401">
|
|
<ele>-27.963492</ele>
|
|
<time>2026-07-10T12:57:59.000Z</time>
|
|
</trkpt>
|
|
<trkpt lat="55.092464" lon="8.656395">
|
|
<ele>-28.021771</ele>
|
|
<time>2026-07-10T12:58:00.000Z</time>
|
|
</trkpt>
|
|
<trkpt lat="55.092507" lon="8.656395">
|
|
<ele>-28.079866</ele>
|
|
<time>2026-07-10T12:58:01.000Z</time>
|
|
</trkpt>
|
|
<trkpt lat="55.092551" lon="8.656396">
|
|
<ele>-28.139317</ele>
|
|
<time>2026-07-10T12:58:02.000Z</time>
|
|
</trkpt>
|
|
<trkpt lat="55.092595" lon="8.656399">
|
|
<ele>-28.198808</ele>
|
|
<time>2026-07-10T12:58:03.000Z</time>
|
|
</trkpt>
|
|
<trkpt lat="55.092640" lon="8.656398">
|
|
<ele>-28.259609</ele>
|
|
<time>2026-07-10T12:58:04.000Z</time>
|
|
</trkpt>
|
|
<trkpt lat="55.092687" lon="8.656395">
|
|
<ele>-28.323150</ele>
|
|
<time>2026-07-10T12:58:05.000Z</time>
|
|
</trkpt>
|
|
<trkpt lat="55.092737" lon="8.656385">
|
|
<ele>-28.391143</ele>
|
|
<time>2026-07-10T12:58:06.000Z</time>
|
|
</trkpt>
|
|
<trkpt lat="55.092787" lon="8.656365">
|
|
<ele>-28.460442</ele>
|
|
<time>2026-07-10T12:58:07.000Z</time>
|
|
</trkpt>
|
|
<trkpt lat="55.092835" lon="8.656337">
|
|
<ele>-28.528810</ele>
|
|
<time>2026-07-10T12:58:08.000Z</time>
|
|
</trkpt>
|
|
<trkpt lat="55.092881" lon="8.656303">
|
|
<ele>-28.596288</ele>
|
|
<time>2026-07-10T12:58:09.000Z</time>
|
|
</trkpt>
|
|
<trkpt lat="55.092935" lon="8.656263">
|
|
<ele>-28.675528</ele>
|
|
<time>2026-07-10T12:58:10.000Z</time>
|
|
</trkpt>
|
|
<trkpt lat="55.092984" lon="8.656229">
|
|
<ele>-28.746756</ele>
|
|
<time>2026-07-10T12:58:11.000Z</time>
|
|
</trkpt>
|
|
<trkpt lat="55.093033" lon="8.656197">
|
|
<ele>-28.817429</ele>
|
|
<time>2026-07-10T12:58:12.000Z</time>
|
|
</trkpt>
|
|
<trkpt lat="55.093076" lon="8.656178">
|
|
<ele>-28.877352</ele>
|
|
<time>2026-07-10T12:58:13.000Z</time>
|
|
</trkpt>
|
|
<trkpt lat="55.093125" lon="8.656173">
|
|
<ele>-28.943665</ele>
|
|
<time>2026-07-10T12:58:14.000Z</time>
|
|
</trkpt>
|
|
<trkpt lat="55.093176" lon="8.656183">
|
|
<ele>-29.013001</ele>
|
|
<time>2026-07-10T12:58:15.000Z</time>
|
|
</trkpt>
|
|
<trkpt lat="55.093225" lon="8.656201">
|
|
<ele>-29.080648</ele>
|
|
<time>2026-07-10T12:58:16.000Z</time>
|
|
</trkpt>
|
|
<trkpt lat="55.093269" lon="8.656225">
|
|
<ele>-29.142923</ele>
|
|
<time>2026-07-10T12:58:17.000Z</time>
|
|
</trkpt>
|
|
<trkpt lat="55.093320" lon="8.656254">
|
|
<ele>-29.180210</ele>
|
|
<time>2026-07-10T12:58:18.000Z</time>
|
|
</trkpt>
|
|
<trkpt lat="55.093363" lon="8.656284">
|
|
<ele>-29.193245</ele>
|
|
<time>2026-07-10T12:58:19.000Z</time>
|
|
</trkpt>
|
|
<trkpt lat="55.093397" lon="8.656311">
|
|
<ele>-29.203759</ele>
|
|
<time>2026-07-10T12:58:20.000Z</time>
|
|
</trkpt>
|
|
<trkpt lat="55.093461" lon="8.656349">
|
|
<ele>-29.222788</ele>
|
|
<time>2026-07-10T12:58:21.000Z</time>
|
|
</trkpt>
|
|
<trkpt lat="55.093510" lon="8.656378">
|
|
<ele>-29.237353</ele>
|
|
<time>2026-07-10T12:58:22.000Z</time>
|
|
</trkpt>
|
|
<trkpt lat="55.093558" lon="8.656408">
|
|
<ele>-29.251705</ele>
|
|
<time>2026-07-10T12:58:23.000Z</time>
|
|
</trkpt>
|
|
<trkpt lat="55.093606" lon="8.656435">
|
|
<ele>-29.265901</ele>
|
|
<time>2026-07-10T12:58:24.000Z</time>
|
|
</trkpt>
|
|
<trkpt lat="55.093652" lon="8.656462">
|
|
<ele>-29.279562</ele>
|
|
<time>2026-07-10T12:58:25.000Z</time>
|
|
</trkpt>
|
|
<trkpt lat="55.093705" lon="8.656493">
|
|
<ele>-29.295297</ele>
|
|
<time>2026-07-10T12:58:26.000Z</time>
|
|
</trkpt>
|
|
<trkpt lat="55.093761" lon="8.656524">
|
|
<ele>-29.311834</ele>
|
|
<time>2026-07-10T12:58:27.000Z</time>
|
|
</trkpt>
|
|
<trkpt lat="55.093816" lon="8.656551">
|
|
<ele>-29.327918</ele>
|
|
<time>2026-07-10T12:58:28.000Z</time>
|
|
</trkpt>
|
|
<trkpt lat="55.093872" lon="8.656576">
|
|
<ele>-29.344190</ele>
|
|
<time>2026-07-10T12:58:29.000Z</time>
|
|
</trkpt>
|
|
<trkpt lat="55.093924" lon="8.656603">
|
|
<ele>-29.359462</ele>
|
|
<time>2026-07-10T12:58:30.000Z</time>
|
|
</trkpt>
|
|
<trkpt lat="55.093978" lon="8.656631">
|
|
<ele>-29.375319</ele>
|
|
<time>2026-07-10T12:58:31.000Z</time>
|
|
</trkpt>
|
|
<trkpt lat="55.094033" lon="8.656660">
|
|
<ele>-29.391493</ele>
|
|
<time>2026-07-10T12:58:32.000Z</time>
|
|
</trkpt>
|
|
<trkpt lat="55.094087" lon="8.656689">
|
|
<ele>-29.407397</ele>
|
|
<time>2026-07-10T12:58:33.000Z</time>
|
|
</trkpt>
|
|
<trkpt lat="55.094143" lon="8.656718">
|
|
<ele>-29.423840</ele>
|
|
<time>2026-07-10T12:58:34.000Z</time>
|
|
</trkpt>
|
|
<trkpt lat="55.094196" lon="8.656749">
|
|
<ele>-29.439575</ele>
|
|
<time>2026-07-10T12:58:35.000Z</time>
|
|
</trkpt>
|
|
<trkpt lat="55.094254" lon="8.656786">
|
|
<ele>-29.456958</ele>
|
|
<time>2026-07-10T12:58:36.000Z</time>
|
|
</trkpt>
|
|
<trkpt lat="55.094307" lon="8.656823">
|
|
<ele>-29.473025</ele>
|
|
<time>2026-07-10T12:58:37.000Z</time>
|
|
</trkpt>
|
|
<trkpt lat="55.094360" lon="8.656862">
|
|
<ele>-29.489215</ele>
|
|
<time>2026-07-10T12:58:38.000Z</time>
|
|
</trkpt>
|
|
<trkpt lat="55.094411" lon="8.656903">
|
|
<ele>-29.505019</ele>
|
|
<time>2026-07-10T12:58:39.000Z</time>
|
|
</trkpt>
|
|
<trkpt lat="55.094466" lon="8.656950">
|
|
<ele>-29.522255</ele>
|
|
<time>2026-07-10T12:58:40.000Z</time>
|
|
</trkpt>
|
|
<trkpt lat="55.094515" lon="8.656998">
|
|
<ele>-29.538070</ele>
|
|
<time>2026-07-10T12:58:41.000Z</time>
|
|
</trkpt>
|
|
<trkpt lat="55.094568" lon="8.657052">
|
|
<ele>-29.555342</ele>
|
|
<time>2026-07-10T12:58:42.000Z</time>
|
|
</trkpt>
|
|
<trkpt lat="55.094615" lon="8.657106">
|
|
<ele>-29.571177</ele>
|
|
<time>2026-07-10T12:58:43.000Z</time>
|
|
</trkpt>
|
|
<trkpt lat="55.094663" lon="8.657164">
|
|
<ele>-29.587606</ele>
|
|
<time>2026-07-10T12:58:44.000Z</time>
|
|
</trkpt>
|
|
<trkpt lat="55.094708" lon="8.657225">
|
|
<ele>-29.603639</ele>
|
|
<time>2026-07-10T12:58:45.000Z</time>
|
|
</trkpt>
|
|
<trkpt lat="55.094750" lon="8.657286">
|
|
<ele>-29.619014</ele>
|
|
<time>2026-07-10T12:58:46.000Z</time>
|
|
</trkpt>
|
|
<trkpt lat="55.094791" lon="8.657347">
|
|
<ele>-29.634173</ele>
|
|
<time>2026-07-10T12:58:47.000Z</time>
|
|
</trkpt>
|
|
<trkpt lat="55.094829" lon="8.657409">
|
|
<ele>-29.648809</ele>
|
|
<time>2026-07-10T12:58:48.000Z</time>
|
|
</trkpt>
|
|
<trkpt lat="55.094865" lon="8.657471">
|
|
<ele>-29.663038</ele>
|
|
<time>2026-07-10T12:58:49.000Z</time>
|
|
</trkpt>
|
|
<trkpt lat="55.094901" lon="8.657529">
|
|
<ele>-29.676823</ele>
|
|
<time>2026-07-10T12:58:50.000Z</time>
|
|
</trkpt>
|
|
<trkpt lat="55.094939" lon="8.657584">
|
|
<ele>-29.678299</ele>
|
|
<time>2026-07-10T12:58:51.000Z</time>
|
|
</trkpt>
|
|
<trkpt lat="55.094977" lon="8.657642">
|
|
<ele>-29.679336</ele>
|
|
<time>2026-07-10T12:58:52.000Z</time>
|
|
</trkpt>
|
|
<trkpt lat="55.095012" lon="8.657701">
|
|
<ele>-29.680336</ele>
|
|
<time>2026-07-10T12:58:53.000Z</time>
|
|
</trkpt>
|
|
<trkpt lat="55.095050" lon="8.657762">
|
|
<ele>-29.681396</ele>
|
|
<time>2026-07-10T12:58:54.000Z</time>
|
|
</trkpt>
|
|
<trkpt lat="55.095088" lon="8.657824">
|
|
<ele>-29.682465</ele>
|
|
<time>2026-07-10T12:58:55.000Z</time>
|
|
</trkpt>
|
|
<trkpt lat="55.095126" lon="8.657887">
|
|
<ele>-29.683541</ele>
|
|
<time>2026-07-10T12:58:56.000Z</time>
|
|
</trkpt>
|
|
<trkpt lat="55.095166" lon="8.657952">
|
|
<ele>-29.684664</ele>
|
|
<time>2026-07-10T12:58:57.000Z</time>
|
|
</trkpt>
|
|
<trkpt lat="55.095207" lon="8.658016">
|
|
<ele>-29.685794</ele>
|
|
<time>2026-07-10T12:58:58.000Z</time>
|
|
</trkpt>
|
|
<trkpt lat="55.095246" lon="8.658080">
|
|
<ele>-29.686893</ele>
|
|
<time>2026-07-10T12:58:59.000Z</time>
|
|
</trkpt>
|
|
<trkpt lat="55.095286" lon="8.658144">
|
|
<ele>-29.688008</ele>
|
|
<time>2026-07-10T12:59:00.000Z</time>
|
|
</trkpt>
|
|
<trkpt lat="55.095325" lon="8.658210">
|
|
<ele>-29.689124</ele>
|
|
<time>2026-07-10T12:59:01.000Z</time>
|
|
</trkpt>
|
|
<trkpt lat="55.095369" lon="8.658278">
|
|
<ele>-29.690331</ele>
|
|
<time>2026-07-10T12:59:02.000Z</time>
|
|
</trkpt>
|
|
<trkpt lat="55.095413" lon="8.658344">
|
|
<ele>-29.691523</ele>
|
|
<time>2026-07-10T12:59:03.000Z</time>
|
|
</trkpt>
|
|
<trkpt lat="55.095452" lon="8.658409">
|
|
<ele>-29.692630</ele>
|
|
<time>2026-07-10T12:59:04.000Z</time>
|
|
</trkpt>
|
|
<trkpt lat="55.095494" lon="8.658476">
|
|
<ele>-29.693799</ele>
|
|
<time>2026-07-10T12:59:05.000Z</time>
|
|
</trkpt>
|
|
<trkpt lat="55.095536" lon="8.658545">
|
|
<ele>-29.694984</ele>
|
|
<time>2026-07-10T12:59:06.000Z</time>
|
|
</trkpt>
|
|
<trkpt lat="55.095578" lon="8.658612">
|
|
<ele>-29.696152</ele>
|
|
<time>2026-07-10T12:59:07.000Z</time>
|
|
</trkpt>
|
|
<trkpt lat="55.095620" lon="8.658677">
|
|
<ele>-29.697305</ele>
|
|
<time>2026-07-10T12:59:08.000Z</time>
|
|
</trkpt>
|
|
<trkpt lat="55.095661" lon="8.658741">
|
|
<ele>-29.698435</ele>
|
|
<time>2026-07-10T12:59:09.000Z</time>
|
|
</trkpt>
|
|
<trkpt lat="55.095702" lon="8.658805">
|
|
<ele>-29.699565</ele>
|
|
<time>2026-07-10T12:59:10.000Z</time>
|
|
</trkpt>
|
|
<trkpt lat="55.095745" lon="8.658873">
|
|
<ele>-29.700757</ele>
|
|
<time>2026-07-10T12:59:11.000Z</time>
|
|
</trkpt>
|
|
<trkpt lat="55.095789" lon="8.658941">
|
|
<ele>-29.701964</ele>
|
|
<time>2026-07-10T12:59:12.000Z</time>
|
|
</trkpt>
|
|
<trkpt lat="55.095834" lon="8.659010">
|
|
<ele>-29.703195</ele>
|
|
<time>2026-07-10T12:59:13.000Z</time>
|
|
</trkpt>
|
|
<trkpt lat="55.095876" lon="8.659080">
|
|
<ele>-29.704388</ele>
|
|
<time>2026-07-10T12:59:14.000Z</time>
|
|
</trkpt>
|
|
<trkpt lat="55.095919" lon="8.659148">
|
|
<ele>-29.705579</ele>
|
|
<time>2026-07-10T12:59:15.000Z</time>
|
|
</trkpt>
|
|
<trkpt lat="55.095963" lon="8.659214">
|
|
<ele>-29.706771</ele>
|
|
<time>2026-07-10T12:59:16.000Z</time>
|
|
</trkpt>
|
|
<trkpt lat="55.096005" lon="8.659282">
|
|
<ele>-29.707948</ele>
|
|
<time>2026-07-10T12:59:17.000Z</time>
|
|
</trkpt>
|
|
<trkpt lat="55.096047" lon="8.659351">
|
|
<ele>-29.709133</ele>
|
|
<time>2026-07-10T12:59:18.000Z</time>
|
|
</trkpt>
|
|
<trkpt lat="55.096089" lon="8.659420">
|
|
<ele>-29.710317</ele>
|
|
<time>2026-07-10T12:59:19.000Z</time>
|
|
</trkpt>
|
|
<trkpt lat="55.096130" lon="8.659487">
|
|
<ele>-29.711471</ele>
|
|
<time>2026-07-10T12:59:20.000Z</time>
|
|
</trkpt>
|
|
<trkpt lat="55.096172" lon="8.659554">
|
|
<ele>-29.712640</ele>
|
|
<time>2026-07-10T12:59:21.000Z</time>
|
|
</trkpt>
|
|
<trkpt lat="55.096215" lon="8.659622">
|
|
<ele>-29.713832</ele>
|
|
<time>2026-07-10T12:59:22.000Z</time>
|
|
</trkpt>
|
|
<trkpt lat="55.096257" lon="8.659689">
|
|
<ele>-29.710218</ele>
|
|
<time>2026-07-10T12:59:23.000Z</time>
|
|
</trkpt>
|
|
<trkpt lat="55.096299" lon="8.659755">
|
|
<ele>-29.703579</ele>
|
|
<time>2026-07-10T12:59:24.000Z</time>
|
|
</trkpt>
|
|
<trkpt lat="55.096341" lon="8.659820">
|
|
<ele>-29.696985</ele>
|
|
<time>2026-07-10T12:59:25.000Z</time>
|
|
</trkpt>
|
|
<trkpt lat="55.096382" lon="8.659887">
|
|
<ele>-29.690388</ele>
|
|
<time>2026-07-10T12:59:26.000Z</time>
|
|
</trkpt>
|
|
<trkpt lat="55.096425" lon="8.659955">
|
|
<ele>-29.683572</ele>
|
|
<time>2026-07-10T12:59:27.000Z</time>
|
|
</trkpt>
|
|
<trkpt lat="55.096466" lon="8.660021">
|
|
<ele>-29.677020</ele>
|
|
<time>2026-07-10T12:59:28.000Z</time>
|
|
</trkpt>
|
|
<trkpt lat="55.096507" lon="8.660085">
|
|
<ele>-29.670558</ele>
|
|
<time>2026-07-10T12:59:29.000Z</time>
|
|
</trkpt>
|
|
<trkpt lat="55.096550" lon="8.660151">
|
|
<ele>-29.663832</ele>
|
|
<time>2026-07-10T12:59:30.000Z</time>
|
|
</trkpt>
|
|
<trkpt lat="55.096591" lon="8.660216">
|
|
<ele>-29.657325</ele>
|
|
<time>2026-07-10T12:59:31.000Z</time>
|
|
</trkpt>
|
|
<trkpt lat="55.096635" lon="8.660287">
|
|
<ele>-29.650286</ele>
|
|
<time>2026-07-10T12:59:32.000Z</time>
|
|
</trkpt>
|
|
<trkpt lat="55.096677" lon="8.660354">
|
|
<ele>-29.643602</ele>
|
|
<time>2026-07-10T12:59:33.000Z</time>
|
|
</trkpt>
|
|
<trkpt lat="55.096718" lon="8.660420">
|
|
<ele>-29.637051</ele>
|
|
<time>2026-07-10T12:59:34.000Z</time>
|
|
</trkpt>
|
|
<trkpt lat="55.096759" lon="8.660483">
|
|
<ele>-29.630634</ele>
|
|
<time>2026-07-10T12:59:35.000Z</time>
|
|
</trkpt>
|
|
<trkpt lat="55.096798" lon="8.660547">
|
|
<ele>-29.624346</ele>
|
|
<time>2026-07-10T12:59:36.000Z</time>
|
|
</trkpt>
|
|
<trkpt lat="55.096839" lon="8.660611">
|
|
<ele>-29.617884</ele>
|
|
<time>2026-07-10T12:59:37.000Z</time>
|
|
</trkpt>
|
|
<trkpt lat="55.096881" lon="8.660676">
|
|
<ele>-29.611290</ele>
|
|
<time>2026-07-10T12:59:38.000Z</time>
|
|
</trkpt>
|
|
<trkpt lat="55.096917" lon="8.660734">
|
|
<ele>-29.605535</ele>
|
|
<time>2026-07-10T12:59:39.000Z</time>
|
|
</trkpt>
|
|
<trkpt lat="55.096962" lon="8.660803">
|
|
<ele>-29.598499</ele>
|
|
<time>2026-07-10T12:59:40.000Z</time>
|
|
</trkpt>
|
|
<trkpt lat="55.097007" lon="8.660875">
|
|
<ele>-29.591328</ele>
|
|
<time>2026-07-10T12:59:41.000Z</time>
|
|
</trkpt>
|
|
<trkpt lat="55.097050" lon="8.660943">
|
|
<ele>-29.584512</ele>
|
|
<time>2026-07-10T12:59:42.000Z</time>
|
|
</trkpt>
|
|
<trkpt lat="55.097092" lon="8.661008">
|
|
<ele>-29.577918</ele>
|
|
<time>2026-07-10T12:59:43.000Z</time>
|
|
</trkpt>
|
|
<trkpt lat="55.097133" lon="8.661072">
|
|
<ele>-29.571457</ele>
|
|
<time>2026-07-10T12:59:44.000Z</time>
|
|
</trkpt>
|
|
<trkpt lat="55.097176" lon="8.661139">
|
|
<ele>-29.564685</ele>
|
|
<time>2026-07-10T12:59:45.000Z</time>
|
|
</trkpt>
|
|
<trkpt lat="55.097218" lon="8.661204">
|
|
<ele>-29.558092</ele>
|
|
<time>2026-07-10T12:59:46.000Z</time>
|
|
</trkpt>
|
|
<trkpt lat="55.097259" lon="8.661271">
|
|
<ele>-29.551494</ele>
|
|
<time>2026-07-10T12:59:47.000Z</time>
|
|
</trkpt>
|
|
<trkpt lat="55.097302" lon="8.661339">
|
|
<ele>-29.544678</ele>
|
|
<time>2026-07-10T12:59:48.000Z</time>
|
|
</trkpt>
|
|
<trkpt lat="55.097343" lon="8.661404">
|
|
<ele>-29.538172</ele>
|
|
<time>2026-07-10T12:59:49.000Z</time>
|
|
</trkpt>
|
|
<trkpt lat="55.097385" lon="8.661468">
|
|
<ele>-29.531622</ele>
|
|
<time>2026-07-10T12:59:50.000Z</time>
|
|
</trkpt>
|
|
<trkpt lat="55.097425" lon="8.661531">
|
|
<ele>-29.525293</ele>
|
|
<time>2026-07-10T12:59:51.000Z</time>
|
|
</trkpt>
|
|
<trkpt lat="55.097470" lon="8.661600">
|
|
<ele>-29.518257</ele>
|
|
<time>2026-07-10T12:59:52.000Z</time>
|
|
</trkpt>
|
|
<trkpt lat="55.097511" lon="8.661662">
|
|
<ele>-29.511884</ele>
|
|
<time>2026-07-10T12:59:53.000Z</time>
|
|
</trkpt>
|
|
<trkpt lat="55.097554" lon="8.661727">
|
|
<ele>-29.505202</ele>
|
|
<time>2026-07-10T12:59:54.000Z</time>
|
|
</trkpt>
|
|
<trkpt lat="55.097596" lon="8.661793">
|
|
<ele>-29.504171</ele>
|
|
<time>2026-07-10T12:59:55.000Z</time>
|
|
</trkpt>
|
|
<trkpt lat="55.097638" lon="8.661859">
|
|
<ele>-29.506156</ele>
|
|
<time>2026-07-10T12:59:56.000Z</time>
|
|
</trkpt>
|
|
<trkpt lat="55.097680" lon="8.661926">
|
|
<ele>-29.508154</ele>
|
|
<time>2026-07-10T12:59:57.000Z</time>
|
|
</trkpt>
|
|
<trkpt lat="55.097722" lon="8.661992">
|
|
<ele>-29.510139</ele>
|
|
<time>2026-07-10T12:59:58.000Z</time>
|
|
</trkpt>
|
|
<trkpt lat="55.097764" lon="8.662058">
|
|
<ele>-29.512124</ele>
|
|
<time>2026-07-10T12:59:59.000Z</time>
|
|
</trkpt>
|
|
<trkpt lat="55.097805" lon="8.662124">
|
|
<ele>-29.514083</ele>
|
|
<time>2026-07-10T13:00:00.000Z</time>
|
|
</trkpt>
|
|
<trkpt lat="55.097848" lon="8.662190">
|
|
<ele>-29.516094</ele>
|
|
<time>2026-07-10T13:00:01.000Z</time>
|
|
</trkpt>
|
|
<trkpt lat="55.097893" lon="8.662257">
|
|
<ele>-29.518171</ele>
|
|
<time>2026-07-10T13:00:02.000Z</time>
|
|
</trkpt>
|
|
<trkpt lat="55.097935" lon="8.662323">
|
|
<ele>-29.520156</ele>
|
|
<time>2026-07-10T13:00:03.000Z</time>
|
|
</trkpt>
|
|
<trkpt lat="55.097977" lon="8.662391">
|
|
<ele>-29.522168</ele>
|
|
<time>2026-07-10T13:00:04.000Z</time>
|
|
</trkpt>
|
|
<trkpt lat="55.098019" lon="8.662457">
|
|
<ele>-29.524153</ele>
|
|
<time>2026-07-10T13:00:05.000Z</time>
|
|
</trkpt>
|
|
<trkpt lat="55.098060" lon="8.662523">
|
|
<ele>-29.526112</ele>
|
|
<time>2026-07-10T13:00:06.000Z</time>
|
|
</trkpt>
|
|
<trkpt lat="55.098101" lon="8.662588">
|
|
<ele>-29.528058</ele>
|
|
<time>2026-07-10T13:00:07.000Z</time>
|
|
</trkpt>
|
|
<trkpt lat="55.098145" lon="8.662658">
|
|
<ele>-29.530149</ele>
|
|
<time>2026-07-10T13:00:08.000Z</time>
|
|
</trkpt>
|
|
<trkpt lat="55.098185" lon="8.662724">
|
|
<ele>-29.532082</ele>
|
|
<time>2026-07-10T13:00:09.000Z</time>
|
|
</trkpt>
|
|
<trkpt lat="55.098224" lon="8.662789">
|
|
<ele>-29.533976</ele>
|
|
<time>2026-07-10T13:00:10.000Z</time>
|
|
</trkpt>
|
|
<trkpt lat="55.098265" lon="8.662853">
|
|
<ele>-29.535908</ele>
|
|
<time>2026-07-10T13:00:11.000Z</time>
|
|
</trkpt>
|
|
<trkpt lat="55.098309" lon="8.662922">
|
|
<ele>-29.537985</ele>
|
|
<time>2026-07-10T13:00:12.000Z</time>
|
|
</trkpt>
|
|
<trkpt lat="55.098352" lon="8.662988">
|
|
<ele>-29.539996</ele>
|
|
<time>2026-07-10T13:00:13.000Z</time>
|
|
</trkpt>
|
|
<trkpt lat="55.098396" lon="8.663055">
|
|
<ele>-29.542047</ele>
|
|
<time>2026-07-10T13:00:14.000Z</time>
|
|
</trkpt>
|
|
<trkpt lat="55.098438" lon="8.663121">
|
|
<ele>-29.544032</ele>
|
|
<time>2026-07-10T13:00:15.000Z</time>
|
|
</trkpt>
|
|
<trkpt lat="55.098480" lon="8.663187">
|
|
<ele>-29.546017</ele>
|
|
<time>2026-07-10T13:00:16.000Z</time>
|
|
</trkpt>
|
|
<trkpt lat="55.098523" lon="8.663254">
|
|
<ele>-29.548041</ele>
|
|
<time>2026-07-10T13:00:17.000Z</time>
|
|
</trkpt>
|
|
<trkpt lat="55.098566" lon="8.663321">
|
|
<ele>-29.550066</ele>
|
|
<time>2026-07-10T13:00:18.000Z</time>
|
|
</trkpt>
|
|
<trkpt lat="55.098609" lon="8.663390">
|
|
<ele>-29.552117</ele>
|
|
<time>2026-07-10T13:00:19.000Z</time>
|
|
</trkpt>
|
|
<trkpt lat="55.098648" lon="8.663457">
|
|
<ele>-29.554039</ele>
|
|
<time>2026-07-10T13:00:20.000Z</time>
|
|
</trkpt>
|
|
<trkpt lat="55.098689" lon="8.663522">
|
|
<ele>-29.555985</ele>
|
|
<time>2026-07-10T13:00:21.000Z</time>
|
|
</trkpt>
|
|
<trkpt lat="55.098736" lon="8.663594">
|
|
<ele>-29.558181</ele>
|
|
<time>2026-07-10T13:00:22.000Z</time>
|
|
</trkpt>
|
|
<trkpt lat="55.098778" lon="8.663662">
|
|
<ele>-29.560193</ele>
|
|
<time>2026-07-10T13:00:23.000Z</time>
|
|
</trkpt>
|
|
<trkpt lat="55.098819" lon="8.663732">
|
|
<ele>-29.562207</ele>
|
|
<time>2026-07-10T13:00:24.000Z</time>
|
|
</trkpt>
|
|
<trkpt lat="55.098858" lon="8.663801">
|
|
<ele>-29.564157</ele>
|
|
<time>2026-07-10T13:00:25.000Z</time>
|
|
</trkpt>
|
|
<trkpt lat="55.098904" lon="8.663871">
|
|
<ele>-29.565687</ele>
|
|
<time>2026-07-10T13:00:26.000Z</time>
|
|
</trkpt>
|
|
<trkpt lat="55.098946" lon="8.663940">
|
|
<ele>-29.561825</ele>
|
|
<time>2026-07-10T13:00:27.000Z</time>
|
|
</trkpt>
|
|
<trkpt lat="55.098988" lon="8.664009">
|
|
<ele>-29.557962</ele>
|
|
<time>2026-07-10T13:00:28.000Z</time>
|
|
</trkpt>
|
|
<trkpt lat="55.099029" lon="8.664078">
|
|
<ele>-29.554148</ele>
|
|
<time>2026-07-10T13:00:29.000Z</time>
|
|
</trkpt>
|
|
<trkpt lat="55.099072" lon="8.664145">
|
|
<ele>-29.550287</ele>
|
|
<time>2026-07-10T13:00:30.000Z</time>
|
|
</trkpt>
|
|
<trkpt lat="55.099117" lon="8.664210">
|
|
<ele>-29.546375</ele>
|
|
<time>2026-07-10T13:00:31.000Z</time>
|
|
</trkpt>
|
|
<trkpt lat="55.099162" lon="8.664275">
|
|
<ele>-29.542463</ele>
|
|
<time>2026-07-10T13:00:32.000Z</time>
|
|
</trkpt>
|
|
<trkpt lat="55.099201" lon="8.664342">
|
|
<ele>-29.538798</ele>
|
|
<time>2026-07-10T13:00:33.000Z</time>
|
|
</trkpt>
|
|
<trkpt lat="55.099241" lon="8.664409">
|
|
<ele>-29.535085</ele>
|
|
<time>2026-07-10T13:00:34.000Z</time>
|
|
</trkpt>
|
|
<trkpt lat="55.099276" lon="8.664469">
|
|
<ele>-29.531800</ele>
|
|
<time>2026-07-10T13:00:35.000Z</time>
|
|
</trkpt>
|
|
<trkpt lat="55.099322" lon="8.664540">
|
|
<ele>-29.527687</ele>
|
|
<time>2026-07-10T13:00:36.000Z</time>
|
|
</trkpt>
|
|
<trkpt lat="55.099368" lon="8.664605">
|
|
<ele>-29.523723</ele>
|
|
<time>2026-07-10T13:00:37.000Z</time>
|
|
</trkpt>
|
|
<trkpt lat="55.099410" lon="8.664672">
|
|
<ele>-29.519912</ele>
|
|
<time>2026-07-10T13:00:38.000Z</time>
|
|
</trkpt>
|
|
<trkpt lat="55.099453" lon="8.664740">
|
|
<ele>-29.516026</ele>
|
|
<time>2026-07-10T13:00:39.000Z</time>
|
|
</trkpt>
|
|
<trkpt lat="55.099496" lon="8.664805">
|
|
<ele>-29.512216</ele>
|
|
<time>2026-07-10T13:00:40.000Z</time>
|
|
</trkpt>
|
|
<trkpt lat="55.099540" lon="8.664877">
|
|
<ele>-29.508177</ele>
|
|
<time>2026-07-10T13:00:41.000Z</time>
|
|
</trkpt>
|
|
<trkpt lat="55.099582" lon="8.664949">
|
|
<ele>-29.504235</ele>
|
|
<time>2026-07-10T13:00:42.000Z</time>
|
|
</trkpt>
|
|
<trkpt lat="55.099624" lon="8.665017">
|
|
<ele>-29.500398</ele>
|
|
<time>2026-07-10T13:00:43.000Z</time>
|
|
</trkpt>
|
|
<trkpt lat="55.099666" lon="8.665082">
|
|
<ele>-29.496639</ele>
|
|
<time>2026-07-10T13:00:44.000Z</time>
|
|
</trkpt>
|
|
<trkpt lat="55.099708" lon="8.665145">
|
|
<ele>-29.492930</ele>
|
|
<time>2026-07-10T13:00:45.000Z</time>
|
|
</trkpt>
|
|
<trkpt lat="55.099754" lon="8.665215">
|
|
<ele>-29.488842</ele>
|
|
<time>2026-07-10T13:00:46.000Z</time>
|
|
</trkpt>
|
|
<trkpt lat="55.099798" lon="8.665281">
|
|
<ele>-29.484957</ele>
|
|
<time>2026-07-10T13:00:47.000Z</time>
|
|
</trkpt>
|
|
<trkpt lat="55.099842" lon="8.665345">
|
|
<ele>-29.481121</ele>
|
|
<time>2026-07-10T13:00:48.000Z</time>
|
|
</trkpt>
|
|
<trkpt lat="55.099884" lon="8.665408">
|
|
<ele>-29.477412</ele>
|
|
<time>2026-07-10T13:00:49.000Z</time>
|
|
</trkpt>
|
|
<trkpt lat="55.099926" lon="8.665473">
|
|
<ele>-29.473652</ele>
|
|
<time>2026-07-10T13:00:50.000Z</time>
|
|
</trkpt>
|
|
<trkpt lat="55.099967" lon="8.665536">
|
|
<ele>-29.469994</ele>
|
|
<time>2026-07-10T13:00:51.000Z</time>
|
|
</trkpt>
|
|
<trkpt lat="55.100009" lon="8.665603">
|
|
<ele>-29.466183</ele>
|
|
<time>2026-07-10T13:00:52.000Z</time>
|
|
</trkpt>
|
|
<trkpt lat="55.100047" lon="8.665667">
|
|
<ele>-29.462647</ele>
|
|
<time>2026-07-10T13:00:53.000Z</time>
|
|
</trkpt>
|
|
<trkpt lat="55.100090" lon="8.665733">
|
|
<ele>-29.458812</ele>
|
|
<time>2026-07-10T13:00:54.000Z</time>
|
|
</trkpt>
|
|
<trkpt lat="55.100135" lon="8.665799">
|
|
<ele>-29.454875</ele>
|
|
<time>2026-07-10T13:00:55.000Z</time>
|
|
</trkpt>
|
|
<trkpt lat="55.100177" lon="8.665866">
|
|
<ele>-29.451064</ele>
|
|
<time>2026-07-10T13:00:56.000Z</time>
|
|
</trkpt>
|
|
<trkpt lat="55.100221" lon="8.665933">
|
|
<ele>-29.447154</ele>
|
|
<time>2026-07-10T13:00:57.000Z</time>
|
|
</trkpt>
|
|
<trkpt lat="55.100265" lon="8.666002">
|
|
<ele>-29.441578</ele>
|
|
<time>2026-07-10T13:00:58.000Z</time>
|
|
</trkpt>
|
|
<trkpt lat="55.100307" lon="8.666071">
|
|
<ele>-29.435076</ele>
|
|
<time>2026-07-10T13:00:59.000Z</time>
|
|
</trkpt>
|
|
<trkpt lat="55.100349" lon="8.666140">
|
|
<ele>-29.428575</ele>
|
|
<time>2026-07-10T13:01:00.000Z</time>
|
|
</trkpt>
|
|
<trkpt lat="55.100390" lon="8.666206">
|
|
<ele>-29.422288</ele>
|
|
<time>2026-07-10T13:01:01.000Z</time>
|
|
</trkpt>
|
|
<trkpt lat="55.100431" lon="8.666272">
|
|
<ele>-29.416001</ele>
|
|
<time>2026-07-10T13:01:02.000Z</time>
|
|
</trkpt>
|
|
<trkpt lat="55.100475" lon="8.666340">
|
|
<ele>-29.409376</ele>
|
|
<time>2026-07-10T13:01:03.000Z</time>
|
|
</trkpt>
|
|
<trkpt lat="55.100516" lon="8.666405">
|
|
<ele>-29.403133</ele>
|
|
<time>2026-07-10T13:01:04.000Z</time>
|
|
</trkpt>
|
|
<trkpt lat="55.100552" lon="8.666470">
|
|
<ele>-29.397295</ele>
|
|
<time>2026-07-10T13:01:05.000Z</time>
|
|
</trkpt>
|
|
<trkpt lat="55.100584" lon="8.666536">
|
|
<ele>-29.391712</ele>
|
|
<time>2026-07-10T13:01:06.000Z</time>
|
|
</trkpt>
|
|
<trkpt lat="55.100609" lon="8.666604">
|
|
<ele>-29.386496</ele>
|
|
<time>2026-07-10T13:01:07.000Z</time>
|
|
</trkpt>
|
|
<trkpt lat="55.100638" lon="8.666662">
|
|
<ele>-29.381526</ele>
|
|
<time>2026-07-10T13:01:08.000Z</time>
|
|
</trkpt>
|
|
<trkpt lat="55.100668" lon="8.666716">
|
|
<ele>-29.376668</ele>
|
|
<time>2026-07-10T13:01:09.000Z</time>
|
|
</trkpt>
|
|
<trkpt lat="55.100702" lon="8.666762">
|
|
<ele>-29.371819</ele>
|
|
<time>2026-07-10T13:01:10.000Z</time>
|
|
</trkpt>
|
|
<trkpt lat="55.100733" lon="8.666812">
|
|
<ele>-29.367061</ele>
|
|
<time>2026-07-10T13:01:11.000Z</time>
|
|
</trkpt>
|
|
<trkpt lat="55.100768" lon="8.666866">
|
|
<ele>-29.361795</ele>
|
|
<time>2026-07-10T13:01:12.000Z</time>
|
|
</trkpt>
|
|
<trkpt lat="55.100804" lon="8.666921">
|
|
<ele>-29.356402</ele>
|
|
<time>2026-07-10T13:01:13.000Z</time>
|
|
</trkpt>
|
|
<trkpt lat="55.100841" lon="8.666977">
|
|
<ele>-29.350882</ele>
|
|
<time>2026-07-10T13:01:14.000Z</time>
|
|
</trkpt>
|
|
<trkpt lat="55.100877" lon="8.667038">
|
|
<ele>-29.345227</ele>
|
|
<time>2026-07-10T13:01:15.000Z</time>
|
|
</trkpt>
|
|
<trkpt lat="55.100912" lon="8.667097">
|
|
<ele>-29.339742</ele>
|
|
<time>2026-07-10T13:01:16.000Z</time>
|
|
</trkpt>
|
|
<trkpt lat="55.100944" lon="8.667155">
|
|
<ele>-29.334543</ele>
|
|
<time>2026-07-10T13:01:17.000Z</time>
|
|
</trkpt>
|
|
<trkpt lat="55.100987" lon="8.667222">
|
|
<ele>-29.328045</ele>
|
|
<time>2026-07-10T13:01:18.000Z</time>
|
|
</trkpt>
|
|
<trkpt lat="55.101028" lon="8.667289">
|
|
<ele>-29.321714</ele>
|
|
<time>2026-07-10T13:01:19.000Z</time>
|
|
</trkpt>
|
|
<trkpt lat="55.101067" lon="8.667354">
|
|
<ele>-29.315636</ele>
|
|
<time>2026-07-10T13:01:20.000Z</time>
|
|
</trkpt>
|
|
<trkpt lat="55.101109" lon="8.667420">
|
|
<ele>-29.309266</ele>
|
|
<time>2026-07-10T13:01:21.000Z</time>
|
|
</trkpt>
|
|
<trkpt lat="55.101151" lon="8.667485">
|
|
<ele>-29.302939</ele>
|
|
<time>2026-07-10T13:01:22.000Z</time>
|
|
</trkpt>
|
|
<trkpt lat="55.101193" lon="8.667547">
|
|
<ele>-29.296738</ele>
|
|
<time>2026-07-10T13:01:23.000Z</time>
|
|
</trkpt>
|
|
<trkpt lat="55.101235" lon="8.667608">
|
|
<ele>-29.290579</ele>
|
|
<time>2026-07-10T13:01:24.000Z</time>
|
|
</trkpt>
|
|
<trkpt lat="55.101278" lon="8.667666">
|
|
<ele>-29.284453</ele>
|
|
<time>2026-07-10T13:01:25.000Z</time>
|
|
</trkpt>
|
|
<trkpt lat="55.101323" lon="8.667724">
|
|
<ele>-29.278146</ele>
|
|
<time>2026-07-10T13:01:26.000Z</time>
|
|
</trkpt>
|
|
<trkpt lat="55.101365" lon="8.667784">
|
|
<ele>-29.272028</ele>
|
|
<time>2026-07-10T13:01:27.000Z</time>
|
|
</trkpt>
|
|
<trkpt lat="55.101410" lon="8.667846">
|
|
<ele>-29.265565</ele>
|
|
<time>2026-07-10T13:01:28.000Z</time>
|
|
</trkpt>
|
|
<trkpt lat="55.101454" lon="8.667908">
|
|
<ele>-29.259191</ele>
|
|
<time>2026-07-10T13:01:29.000Z</time>
|
|
</trkpt>
|
|
<trkpt lat="55.101499" lon="8.667971">
|
|
<ele>-29.252688</ele>
|
|
<time>2026-07-10T13:01:30.000Z</time>
|
|
</trkpt>
|
|
<trkpt lat="55.101540" lon="8.668036">
|
|
<ele>-29.246444</ele>
|
|
<time>2026-07-10T13:01:31.000Z</time>
|
|
</trkpt>
|
|
<trkpt lat="55.101582" lon="8.668103">
|
|
<ele>-29.244430</ele>
|
|
<time>2026-07-10T13:01:32.000Z</time>
|
|
</trkpt>
|
|
<trkpt lat="55.101624" lon="8.668172">
|
|
<ele>-29.248703</ele>
|
|
<time>2026-07-10T13:01:33.000Z</time>
|
|
</trkpt>
|
|
<trkpt lat="55.101666" lon="8.668239">
|
|
<ele>-29.252918</ele>
|
|
<time>2026-07-10T13:01:34.000Z</time>
|
|
</trkpt>
|
|
<trkpt lat="55.101709" lon="8.668306">
|
|
<ele>-29.257188</ele>
|
|
<time>2026-07-10T13:01:35.000Z</time>
|
|
</trkpt>
|
|
<trkpt lat="55.101753" lon="8.668375">
|
|
<ele>-29.261570</ele>
|
|
<time>2026-07-10T13:01:36.000Z</time>
|
|
</trkpt>
|
|
<trkpt lat="55.101792" lon="8.668443">
|
|
<ele>-29.265653</ele>
|
|
<time>2026-07-10T13:01:37.000Z</time>
|
|
</trkpt>
|
|
<trkpt lat="55.101834" lon="8.668511">
|
|
<ele>-29.269896</ele>
|
|
<time>2026-07-10T13:01:38.000Z</time>
|
|
</trkpt>
|
|
<trkpt lat="55.101877" lon="8.668578">
|
|
<ele>-29.274166</ele>
|
|
<time>2026-07-10T13:01:39.000Z</time>
|
|
</trkpt>
|
|
<trkpt lat="55.101921" lon="8.668645">
|
|
<ele>-29.278492</ele>
|
|
<time>2026-07-10T13:01:40.000Z</time>
|
|
</trkpt>
|
|
<trkpt lat="55.101963" lon="8.668712">
|
|
<ele>-29.282707</ele>
|
|
<time>2026-07-10T13:01:41.000Z</time>
|
|
</trkpt>
|
|
<trkpt lat="55.102007" lon="8.668780">
|
|
<ele>-29.287061</ele>
|
|
<time>2026-07-10T13:01:42.000Z</time>
|
|
</trkpt>
|
|
<trkpt lat="55.102051" lon="8.668848">
|
|
<ele>-29.291414</ele>
|
|
<time>2026-07-10T13:01:43.000Z</time>
|
|
</trkpt>
|
|
<trkpt lat="55.102094" lon="8.668916">
|
|
<ele>-29.295712</ele>
|
|
<time>2026-07-10T13:01:44.000Z</time>
|
|
</trkpt>
|
|
<trkpt lat="55.102138" lon="8.668983">
|
|
<ele>-29.300038</ele>
|
|
<time>2026-07-10T13:01:45.000Z</time>
|
|
</trkpt>
|
|
<trkpt lat="55.102181" lon="8.669052">
|
|
<ele>-29.304365</ele>
|
|
<time>2026-07-10T13:01:46.000Z</time>
|
|
</trkpt>
|
|
<trkpt lat="55.102224" lon="8.669119">
|
|
<ele>-29.308635</ele>
|
|
<time>2026-07-10T13:01:47.000Z</time>
|
|
</trkpt>
|
|
<trkpt lat="55.102269" lon="8.669186">
|
|
<ele>-29.313016</ele>
|
|
<time>2026-07-10T13:01:48.000Z</time>
|
|
</trkpt>
|
|
<trkpt lat="55.102311" lon="8.669251">
|
|
<ele>-29.317175</ele>
|
|
<time>2026-07-10T13:01:49.000Z</time>
|
|
</trkpt>
|
|
<trkpt lat="55.102353" lon="8.669315">
|
|
<ele>-29.321305</ele>
|
|
<time>2026-07-10T13:01:50.000Z</time>
|
|
</trkpt>
|
|
<trkpt lat="55.102394" lon="8.669380">
|
|
<ele>-29.325408</ele>
|
|
<time>2026-07-10T13:01:51.000Z</time>
|
|
</trkpt>
|
|
<trkpt lat="55.102435" lon="8.669445">
|
|
<ele>-29.329511</ele>
|
|
<time>2026-07-10T13:01:52.000Z</time>
|
|
</trkpt>
|
|
<trkpt lat="55.102478" lon="8.669512">
|
|
<ele>-29.333781</ele>
|
|
<time>2026-07-10T13:01:53.000Z</time>
|
|
</trkpt>
|
|
<trkpt lat="55.102519" lon="8.669577">
|
|
<ele>-29.337884</ele>
|
|
<time>2026-07-10T13:01:54.000Z</time>
|
|
</trkpt>
|
|
<trkpt lat="55.102559" lon="8.669642">
|
|
<ele>-29.341932</ele>
|
|
<time>2026-07-10T13:01:55.000Z</time>
|
|
</trkpt>
|
|
<trkpt lat="55.102601" lon="8.669708">
|
|
<ele>-29.346119</ele>
|
|
<time>2026-07-10T13:01:56.000Z</time>
|
|
</trkpt>
|
|
<trkpt lat="55.102643" lon="8.669774">
|
|
<ele>-29.350305</ele>
|
|
<time>2026-07-10T13:01:57.000Z</time>
|
|
</trkpt>
|
|
<trkpt lat="55.102685" lon="8.669840">
|
|
<ele>-29.354492</ele>
|
|
<time>2026-07-10T13:01:58.000Z</time>
|
|
</trkpt>
|
|
<trkpt lat="55.102726" lon="8.669906">
|
|
<ele>-29.358623</ele>
|
|
<time>2026-07-10T13:01:59.000Z</time>
|
|
</trkpt>
|
|
<trkpt lat="55.102768" lon="8.669974">
|
|
<ele>-29.362867</ele>
|
|
<time>2026-07-10T13:02:00.000Z</time>
|
|
</trkpt>
|
|
<trkpt lat="55.102811" lon="8.670041">
|
|
<ele>-29.367137</ele>
|
|
<time>2026-07-10T13:02:01.000Z</time>
|
|
</trkpt>
|
|
<trkpt lat="55.102854" lon="8.670106">
|
|
<ele>-29.371351</ele>
|
|
<time>2026-07-10T13:02:02.000Z</time>
|
|
</trkpt>
|
|
<trkpt lat="55.102899" lon="8.670171">
|
|
<ele>-29.375678</ele>
|
|
<time>2026-07-10T13:02:03.000Z</time>
|
|
</trkpt>
|
|
<trkpt lat="55.102940" lon="8.670237">
|
|
<ele>-29.380771</ele>
|
|
<time>2026-07-10T13:02:04.000Z</time>
|
|
</trkpt>
|
|
<trkpt lat="55.102980" lon="8.670305">
|
|
<ele>-29.385954</ele>
|
|
<time>2026-07-10T13:02:05.000Z</time>
|
|
</trkpt>
|
|
<trkpt lat="55.103025" lon="8.670380">
|
|
<ele>-29.391730</ele>
|
|
<time>2026-07-10T13:02:06.000Z</time>
|
|
</trkpt>
|
|
<trkpt lat="55.103070" lon="8.670451">
|
|
<ele>-29.397361</ele>
|
|
<time>2026-07-10T13:02:07.000Z</time>
|
|
</trkpt>
|
|
<trkpt lat="55.103112" lon="8.670522">
|
|
<ele>-29.402788</ele>
|
|
<time>2026-07-10T13:02:08.000Z</time>
|
|
</trkpt>
|
|
<trkpt lat="55.103154" lon="8.670590">
|
|
<ele>-29.408106</ele>
|
|
<time>2026-07-10T13:02:09.000Z</time>
|
|
</trkpt>
|
|
<trkpt lat="55.103196" lon="8.670658">
|
|
<ele>-29.413424</ele>
|
|
<time>2026-07-10T13:02:10.000Z</time>
|
|
</trkpt>
|
|
<trkpt lat="55.103242" lon="8.670728">
|
|
<ele>-29.419089</ele>
|
|
<time>2026-07-10T13:02:11.000Z</time>
|
|
</trkpt>
|
|
<trkpt lat="55.103283" lon="8.670795">
|
|
<ele>-29.424302</ele>
|
|
<time>2026-07-10T13:02:12.000Z</time>
|
|
</trkpt>
|
|
<trkpt lat="55.103320" lon="8.670862">
|
|
<ele>-29.429251</ele>
|
|
<time>2026-07-10T13:02:13.000Z</time>
|
|
</trkpt>
|
|
<trkpt lat="55.103353" lon="8.670924">
|
|
<ele>-29.433751</ele>
|
|
<time>2026-07-10T13:02:14.000Z</time>
|
|
</trkpt>
|
|
<trkpt lat="55.103383" lon="8.670979">
|
|
<ele>-29.437789</ele>
|
|
<time>2026-07-10T13:02:15.000Z</time>
|
|
</trkpt>
|
|
<trkpt lat="55.103410" lon="8.671030">
|
|
<ele>-29.441482</ele>
|
|
<time>2026-07-10T13:02:16.000Z</time>
|
|
</trkpt>
|
|
<trkpt lat="55.103430" lon="8.671068">
|
|
<ele>-29.444226</ele>
|
|
<time>2026-07-10T13:02:17.000Z</time>
|
|
</trkpt>
|
|
<trkpt lat="55.103446" lon="8.671102">
|
|
<ele>-29.446565</ele>
|
|
<time>2026-07-10T13:02:18.000Z</time>
|
|
</trkpt>
|
|
<trkpt lat="55.103456" lon="8.671133">
|
|
<ele>-29.448457</ele>
|
|
<time>2026-07-10T13:02:19.000Z</time>
|
|
</trkpt>
|
|
<trkpt lat="55.103459" lon="8.671157">
|
|
<ele>-29.449762</ele>
|
|
<time>2026-07-10T13:02:20.000Z</time>
|
|
</trkpt>
|
|
<trkpt lat="55.103501" lon="8.671214">
|
|
<ele>-29.454701</ele>
|
|
<time>2026-07-10T13:02:32.000Z</time>
|
|
</trkpt>
|
|
<trkpt lat="55.103516" lon="8.671225">
|
|
<ele>-29.456212</ele>
|
|
<time>2026-07-10T13:02:33.000Z</time>
|
|
</trkpt>
|
|
<trkpt lat="55.103534" lon="8.671242">
|
|
<ele>-29.458113</ele>
|
|
<time>2026-07-10T13:02:34.000Z</time>
|
|
</trkpt>
|
|
<trkpt lat="55.103556" lon="8.671264">
|
|
<ele>-29.460467</ele>
|
|
<time>2026-07-10T13:02:35.000Z</time>
|
|
</trkpt>
|
|
<trkpt lat="55.103575" lon="8.671291">
|
|
<ele>-29.462742</ele>
|
|
<time>2026-07-10T13:02:36.000Z</time>
|
|
</trkpt>
|
|
<trkpt lat="55.103598" lon="8.671323">
|
|
<ele>-29.465472</ele>
|
|
<time>2026-07-10T13:02:37.000Z</time>
|
|
</trkpt>
|
|
<trkpt lat="55.103620" lon="8.671361">
|
|
<ele>-29.468345</ele>
|
|
<time>2026-07-10T13:02:38.000Z</time>
|
|
</trkpt>
|
|
<trkpt lat="55.103639" lon="8.671394">
|
|
<ele>-29.470833</ele>
|
|
<time>2026-07-10T13:02:39.000Z</time>
|
|
</trkpt>
|
|
<trkpt lat="55.103669" lon="8.671441">
|
|
<ele>-29.474575</ele>
|
|
<time>2026-07-10T13:02:40.000Z</time>
|
|
</trkpt>
|
|
<trkpt lat="55.103700" lon="8.671474">
|
|
<ele>-29.477947</ele>
|
|
<time>2026-07-10T13:02:41.000Z</time>
|
|
</trkpt>
|
|
<trkpt lat="55.103730" lon="8.671505">
|
|
<ele>-29.481184</ele>
|
|
<time>2026-07-10T13:02:42.000Z</time>
|
|
</trkpt>
|
|
<trkpt lat="55.103761" lon="8.671536">
|
|
<ele>-29.484501</ele>
|
|
<time>2026-07-10T13:02:43.000Z</time>
|
|
</trkpt>
|
|
<trkpt lat="55.103804" lon="8.671577">
|
|
<ele>-29.489051</ele>
|
|
<time>2026-07-10T13:02:44.000Z</time>
|
|
</trkpt>
|
|
<trkpt lat="55.103839" lon="8.671613">
|
|
<ele>-29.492823</ele>
|
|
<time>2026-07-10T13:02:45.000Z</time>
|
|
</trkpt>
|
|
<trkpt lat="55.103877" lon="8.671647">
|
|
<ele>-29.496789</ele>
|
|
<time>2026-07-10T13:02:46.000Z</time>
|
|
</trkpt>
|
|
<trkpt lat="55.103916" lon="8.671678">
|
|
<ele>-29.500768</ele>
|
|
<time>2026-07-10T13:02:47.000Z</time>
|
|
</trkpt>
|
|
<trkpt lat="55.103958" lon="8.671710">
|
|
<ele>-29.505024</ele>
|
|
<time>2026-07-10T13:02:48.000Z</time>
|
|
</trkpt>
|
|
<trkpt lat="55.104000" lon="8.671741">
|
|
<ele>-29.509259</ele>
|
|
<time>2026-07-10T13:02:49.000Z</time>
|
|
</trkpt>
|
|
<trkpt lat="55.104043" lon="8.671774">
|
|
<ele>-29.513621</ele>
|
|
<time>2026-07-10T13:02:50.000Z</time>
|
|
</trkpt>
|
|
<trkpt lat="55.104086" lon="8.671806">
|
|
<ele>-29.517962</ele>
|
|
<time>2026-07-10T13:02:51.000Z</time>
|
|
</trkpt>
|
|
<trkpt lat="55.104130" lon="8.671838">
|
|
<ele>-29.522389</ele>
|
|
<time>2026-07-10T13:02:52.000Z</time>
|
|
</trkpt>
|
|
<trkpt lat="55.104173" lon="8.671872">
|
|
<ele>-29.526773</ele>
|
|
<time>2026-07-10T13:02:53.000Z</time>
|
|
</trkpt>
|
|
<trkpt lat="55.104219" lon="8.671903">
|
|
<ele>-29.531352</ele>
|
|
<time>2026-07-10T13:02:54.000Z</time>
|
|
</trkpt>
|
|
<trkpt lat="55.104264" lon="8.671932">
|
|
<ele>-29.535807</ele>
|
|
<time>2026-07-10T13:02:55.000Z</time>
|
|
</trkpt>
|
|
<trkpt lat="55.104307" lon="8.671962">
|
|
<ele>-29.540108</ele>
|
|
<time>2026-07-10T13:02:56.000Z</time>
|
|
</trkpt>
|
|
<trkpt lat="55.104353" lon="8.671994">
|
|
<ele>-29.544346</ele>
|
|
<time>2026-07-10T13:02:57.000Z</time>
|
|
</trkpt>
|
|
<trkpt lat="55.104399" lon="8.672026">
|
|
<ele>-29.547924</ele>
|
|
<time>2026-07-10T13:02:58.000Z</time>
|
|
</trkpt>
|
|
<trkpt lat="55.104445" lon="8.672057">
|
|
<ele>-29.551487</ele>
|
|
<time>2026-07-10T13:02:59.000Z</time>
|
|
</trkpt>
|
|
<trkpt lat="55.104490" lon="8.672086">
|
|
<ele>-29.554953</ele>
|
|
<time>2026-07-10T13:03:00.000Z</time>
|
|
</trkpt>
|
|
<trkpt lat="55.104536" lon="8.672118">
|
|
<ele>-29.558531</ele>
|
|
<time>2026-07-10T13:03:01.000Z</time>
|
|
</trkpt>
|
|
<trkpt lat="55.104583" lon="8.672150">
|
|
<ele>-29.562176</ele>
|
|
<time>2026-07-10T13:03:02.000Z</time>
|
|
</trkpt>
|
|
<trkpt lat="55.104631" lon="8.672184">
|
|
<ele>-29.565919</ele>
|
|
<time>2026-07-10T13:03:03.000Z</time>
|
|
</trkpt>
|
|
<trkpt lat="55.104678" lon="8.672216">
|
|
<ele>-29.569564</ele>
|
|
<time>2026-07-10T13:03:04.000Z</time>
|
|
</trkpt>
|
|
<trkpt lat="55.104728" lon="8.672249">
|
|
<ele>-29.573426</ele>
|
|
<time>2026-07-10T13:03:05.000Z</time>
|
|
</trkpt>
|
|
<trkpt lat="55.104777" lon="8.672285">
|
|
<ele>-29.577267</ele>
|
|
<time>2026-07-10T13:03:06.000Z</time>
|
|
</trkpt>
|
|
<trkpt lat="55.104827" lon="8.672323">
|
|
<ele>-29.581207</ele>
|
|
<time>2026-07-10T13:03:07.000Z</time>
|
|
</trkpt>
|
|
<trkpt lat="55.104877" lon="8.672361">
|
|
<ele>-29.585148</ele>
|
|
<time>2026-07-10T13:03:08.000Z</time>
|
|
</trkpt>
|
|
<trkpt lat="55.104926" lon="8.672397">
|
|
<ele>-29.588989</ele>
|
|
<time>2026-07-10T13:03:09.000Z</time>
|
|
</trkpt>
|
|
<trkpt lat="55.104975" lon="8.672434">
|
|
<ele>-29.592846</ele>
|
|
<time>2026-07-10T13:03:10.000Z</time>
|
|
</trkpt>
|
|
<trkpt lat="55.105022" lon="8.672469">
|
|
<ele>-29.596538</ele>
|
|
<time>2026-07-10T13:03:11.000Z</time>
|
|
</trkpt>
|
|
<trkpt lat="55.105071" lon="8.672503">
|
|
<ele>-29.600348</ele>
|
|
<time>2026-07-10T13:03:12.000Z</time>
|
|
</trkpt>
|
|
<trkpt lat="55.105120" lon="8.672538">
|
|
<ele>-29.604173</ele>
|
|
<time>2026-07-10T13:03:13.000Z</time>
|
|
</trkpt>
|
|
<trkpt lat="55.105166" lon="8.672572">
|
|
<ele>-29.607783</ele>
|
|
<time>2026-07-10T13:03:14.000Z</time>
|
|
</trkpt>
|
|
<trkpt lat="55.105215" lon="8.672606">
|
|
<ele>-29.611593</ele>
|
|
<time>2026-07-10T13:03:15.000Z</time>
|
|
</trkpt>
|
|
<trkpt lat="55.105263" lon="8.672640">
|
|
<ele>-29.615335</ele>
|
|
<time>2026-07-10T13:03:16.000Z</time>
|
|
</trkpt>
|
|
<trkpt lat="55.105307" lon="8.672676">
|
|
<ele>-29.618846</ele>
|
|
<time>2026-07-10T13:03:17.000Z</time>
|
|
</trkpt>
|
|
<trkpt lat="55.105362" lon="8.672718">
|
|
<ele>-29.623184</ele>
|
|
<time>2026-07-10T13:03:18.000Z</time>
|
|
</trkpt>
|
|
<trkpt lat="55.105410" lon="8.672753">
|
|
<ele>-29.626942</ele>
|
|
<time>2026-07-10T13:03:19.000Z</time>
|
|
</trkpt>
|
|
<trkpt lat="55.105457" lon="8.672787">
|
|
<ele>-29.630618</ele>
|
|
<time>2026-07-10T13:03:20.000Z</time>
|
|
</trkpt>
|
|
<trkpt lat="55.105504" lon="8.672822">
|
|
<ele>-29.634310</ele>
|
|
<time>2026-07-10T13:03:21.000Z</time>
|
|
</trkpt>
|
|
<trkpt lat="55.105548" lon="8.672857">
|
|
<ele>-29.637804</ele>
|
|
<time>2026-07-10T13:03:22.000Z</time>
|
|
</trkpt>
|
|
<trkpt lat="55.105597" lon="8.672890">
|
|
<ele>-29.641598</ele>
|
|
<time>2026-07-10T13:03:23.000Z</time>
|
|
</trkpt>
|
|
<trkpt lat="55.105642" lon="8.672924">
|
|
<ele>-29.645141</ele>
|
|
<time>2026-07-10T13:03:24.000Z</time>
|
|
</trkpt>
|
|
<trkpt lat="55.105688" lon="8.672959">
|
|
<ele>-29.648767</ele>
|
|
<time>2026-07-10T13:03:25.000Z</time>
|
|
</trkpt>
|
|
<trkpt lat="55.105734" lon="8.672996">
|
|
<ele>-29.652426</ele>
|
|
<time>2026-07-10T13:03:26.000Z</time>
|
|
</trkpt>
|
|
<trkpt lat="55.105780" lon="8.673031">
|
|
<ele>-29.656052</ele>
|
|
<time>2026-07-10T13:03:27.000Z</time>
|
|
</trkpt>
|
|
<trkpt lat="55.105828" lon="8.673065">
|
|
<ele>-29.659795</ele>
|
|
<time>2026-07-10T13:03:28.000Z</time>
|
|
</trkpt>
|
|
<trkpt lat="55.105875" lon="8.673100">
|
|
<ele>-29.663487</ele>
|
|
<time>2026-07-10T13:03:29.000Z</time>
|
|
</trkpt>
|
|
<trkpt lat="55.105922" lon="8.673134">
|
|
<ele>-29.667163</ele>
|
|
<time>2026-07-10T13:03:30.000Z</time>
|
|
</trkpt>
|
|
<trkpt lat="55.105974" lon="8.673172">
|
|
<ele>-29.671236</ele>
|
|
<time>2026-07-10T13:03:31.000Z</time>
|
|
</trkpt>
|
|
<trkpt lat="55.106021" lon="8.673208">
|
|
<ele>-29.674094</ele>
|
|
<time>2026-07-10T13:03:32.000Z</time>
|
|
</trkpt>
|
|
<trkpt lat="55.106069" lon="8.673243">
|
|
<ele>-29.676152</ele>
|
|
<time>2026-07-10T13:03:33.000Z</time>
|
|
</trkpt>
|
|
<trkpt lat="55.106115" lon="8.673278">
|
|
<ele>-29.678137</ele>
|
|
<time>2026-07-10T13:03:34.000Z</time>
|
|
</trkpt>
|
|
<trkpt lat="55.106166" lon="8.673317">
|
|
<ele>-29.680340</ele>
|
|
<time>2026-07-10T13:03:35.000Z</time>
|
|
</trkpt>
|
|
<trkpt lat="55.106218" lon="8.673354">
|
|
<ele>-29.682561</ele>
|
|
<time>2026-07-10T13:03:36.000Z</time>
|
|
</trkpt>
|
|
<trkpt lat="55.106265" lon="8.673390">
|
|
<ele>-29.684592</ele>
|
|
<time>2026-07-10T13:03:37.000Z</time>
|
|
</trkpt>
|
|
<trkpt lat="55.106314" lon="8.673427">
|
|
<ele>-29.686704</ele>
|
|
<time>2026-07-10T13:03:38.000Z</time>
|
|
</trkpt>
|
|
<trkpt lat="55.106361" lon="8.673462">
|
|
<ele>-29.688725</ele>
|
|
<time>2026-07-10T13:03:39.000Z</time>
|
|
</trkpt>
|
|
<trkpt lat="55.106410" lon="8.673497">
|
|
<ele>-29.690819</ele>
|
|
<time>2026-07-10T13:03:40.000Z</time>
|
|
</trkpt>
|
|
<trkpt lat="55.106460" lon="8.673533">
|
|
<ele>-29.692959</ele>
|
|
<time>2026-07-10T13:03:41.000Z</time>
|
|
</trkpt>
|
|
<trkpt lat="55.106509" lon="8.673569">
|
|
<ele>-29.695062</ele>
|
|
<time>2026-07-10T13:03:42.000Z</time>
|
|
</trkpt>
|
|
<trkpt lat="55.106555" lon="8.673603">
|
|
<ele>-29.697038</ele>
|
|
<time>2026-07-10T13:03:43.000Z</time>
|
|
</trkpt>
|
|
<trkpt lat="55.106604" lon="8.673637">
|
|
<ele>-29.699124</ele>
|
|
<time>2026-07-10T13:03:44.000Z</time>
|
|
</trkpt>
|
|
<trkpt lat="55.106654" lon="8.673670">
|
|
<ele>-29.701239</ele>
|
|
<time>2026-07-10T13:03:45.000Z</time>
|
|
</trkpt>
|
|
<trkpt lat="55.106704" lon="8.673706">
|
|
<ele>-29.703378</ele>
|
|
<time>2026-07-10T13:03:46.000Z</time>
|
|
</trkpt>
|
|
<trkpt lat="55.106753" lon="8.673743">
|
|
<ele>-29.705490</ele>
|
|
<time>2026-07-10T13:03:47.000Z</time>
|
|
</trkpt>
|
|
<trkpt lat="55.106800" lon="8.673778">
|
|
<ele>-29.707512</ele>
|
|
<time>2026-07-10T13:03:48.000Z</time>
|
|
</trkpt>
|
|
<trkpt lat="55.106849" lon="8.673812">
|
|
<ele>-29.709598</ele>
|
|
<time>2026-07-10T13:03:49.000Z</time>
|
|
</trkpt>
|
|
<trkpt lat="55.106899" lon="8.673849">
|
|
<ele>-29.711746</ele>
|
|
<time>2026-07-10T13:03:50.000Z</time>
|
|
</trkpt>
|
|
<trkpt lat="55.106948" lon="8.673885">
|
|
<ele>-29.713849</ele>
|
|
<time>2026-07-10T13:03:51.000Z</time>
|
|
</trkpt>
|
|
<trkpt lat="55.106998" lon="8.673920">
|
|
<ele>-29.715980</ele>
|
|
<time>2026-07-10T13:03:52.000Z</time>
|
|
</trkpt>
|
|
<trkpt lat="55.107047" lon="8.673955">
|
|
<ele>-29.718074</ele>
|
|
<time>2026-07-10T13:03:53.000Z</time>
|
|
</trkpt>
|
|
<trkpt lat="55.107095" lon="8.673989">
|
|
<ele>-29.720124</ele>
|
|
<time>2026-07-10T13:03:54.000Z</time>
|
|
</trkpt>
|
|
<trkpt lat="55.107142" lon="8.674023">
|
|
<ele>-29.722136</ele>
|
|
<time>2026-07-10T13:03:55.000Z</time>
|
|
</trkpt>
|
|
<trkpt lat="55.107192" lon="8.674059">
|
|
<ele>-29.724276</ele>
|
|
<time>2026-07-10T13:03:56.000Z</time>
|
|
</trkpt>
|
|
<trkpt lat="55.107241" lon="8.674095">
|
|
<ele>-29.726379</ele>
|
|
<time>2026-07-10T13:03:57.000Z</time>
|
|
</trkpt>
|
|
<trkpt lat="55.107291" lon="8.674130">
|
|
<ele>-29.728510</ele>
|
|
<time>2026-07-10T13:03:58.000Z</time>
|
|
</trkpt>
|
|
<trkpt lat="55.107341" lon="8.674165">
|
|
<ele>-29.730641</ele>
|
|
<time>2026-07-10T13:03:59.000Z</time>
|
|
</trkpt>
|
|
<trkpt lat="55.107389" lon="8.674198">
|
|
<ele>-29.732682</ele>
|
|
<time>2026-07-10T13:04:00.000Z</time>
|
|
</trkpt>
|
|
<trkpt lat="55.107436" lon="8.674234">
|
|
<ele>-29.734712</ele>
|
|
<time>2026-07-10T13:04:01.000Z</time>
|
|
</trkpt>
|
|
<trkpt lat="55.107486" lon="8.674270">
|
|
<ele>-29.736852</ele>
|
|
<time>2026-07-10T13:04:02.000Z</time>
|
|
</trkpt>
|
|
<trkpt lat="55.107534" lon="8.674305">
|
|
<ele>-29.738910</ele>
|
|
<time>2026-07-10T13:04:03.000Z</time>
|
|
</trkpt>
|
|
<trkpt lat="55.107581" lon="8.674339">
|
|
<ele>-29.740922</ele>
|
|
<time>2026-07-10T13:04:04.000Z</time>
|
|
</trkpt>
|
|
<trkpt lat="55.107633" lon="8.674375">
|
|
<ele>-29.743135</ele>
|
|
<time>2026-07-10T13:04:05.000Z</time>
|
|
</trkpt>
|
|
<trkpt lat="55.107680" lon="8.674410">
|
|
<ele>-29.744791</ele>
|
|
<time>2026-07-10T13:04:06.000Z</time>
|
|
</trkpt>
|
|
<trkpt lat="55.107729" lon="8.674444">
|
|
<ele>-29.746052</ele>
|
|
<time>2026-07-10T13:04:07.000Z</time>
|
|
</trkpt>
|
|
<trkpt lat="55.107780" lon="8.674482">
|
|
<ele>-29.747378</ele>
|
|
<time>2026-07-10T13:04:08.000Z</time>
|
|
</trkpt>
|
|
<trkpt lat="55.107829" lon="8.674519">
|
|
<ele>-29.748654</ele>
|
|
<time>2026-07-10T13:04:09.000Z</time>
|
|
</trkpt>
|
|
<trkpt lat="55.107878" lon="8.674557">
|
|
<ele>-29.749936</ele>
|
|
<time>2026-07-10T13:04:10.000Z</time>
|
|
</trkpt>
|
|
<trkpt lat="55.107928" lon="8.674596">
|
|
<ele>-29.751245</ele>
|
|
<time>2026-07-10T13:04:11.000Z</time>
|
|
</trkpt>
|
|
<trkpt lat="55.107978" lon="8.674631">
|
|
<ele>-29.752533</ele>
|
|
<time>2026-07-10T13:04:12.000Z</time>
|
|
</trkpt>
|
|
<trkpt lat="55.108029" lon="8.674665">
|
|
<ele>-29.753838</ele>
|
|
<time>2026-07-10T13:04:13.000Z</time>
|
|
</trkpt>
|
|
<trkpt lat="55.108081" lon="8.674701">
|
|
<ele>-29.755175</ele>
|
|
<time>2026-07-10T13:04:14.000Z</time>
|
|
</trkpt>
|
|
<trkpt lat="55.108131" lon="8.674736">
|
|
<ele>-29.756463</ele>
|
|
<time>2026-07-10T13:04:15.000Z</time>
|
|
</trkpt>
|
|
<trkpt lat="55.108183" lon="8.674772">
|
|
<ele>-29.757800</ele>
|
|
<time>2026-07-10T13:04:16.000Z</time>
|
|
</trkpt>
|
|
<trkpt lat="55.108235" lon="8.674808">
|
|
<ele>-29.759137</ele>
|
|
<time>2026-07-10T13:04:17.000Z</time>
|
|
</trkpt>
|
|
<trkpt lat="55.108288" lon="8.674844">
|
|
<ele>-29.760497</ele>
|
|
<time>2026-07-10T13:04:18.000Z</time>
|
|
</trkpt>
|
|
<trkpt lat="55.108340" lon="8.674882">
|
|
<ele>-29.761844</ele>
|
|
<time>2026-07-10T13:04:19.000Z</time>
|
|
</trkpt>
|
|
<trkpt lat="55.108391" lon="8.674920">
|
|
<ele>-29.763170</ele>
|
|
<time>2026-07-10T13:04:20.000Z</time>
|
|
</trkpt>
|
|
<trkpt lat="55.108443" lon="8.674957">
|
|
<ele>-29.764512</ele>
|
|
<time>2026-07-10T13:04:21.000Z</time>
|
|
</trkpt>
|
|
<trkpt lat="55.108494" lon="8.674993">
|
|
<ele>-29.765828</ele>
|
|
<time>2026-07-10T13:04:22.000Z</time>
|
|
</trkpt>
|
|
<trkpt lat="55.108546" lon="8.675029">
|
|
<ele>-29.767165</ele>
|
|
<time>2026-07-10T13:04:23.000Z</time>
|
|
</trkpt>
|
|
<trkpt lat="55.108597" lon="8.675068">
|
|
<ele>-29.768496</ele>
|
|
<time>2026-07-10T13:04:24.000Z</time>
|
|
</trkpt>
|
|
<trkpt lat="55.108648" lon="8.675105">
|
|
<ele>-29.769816</ele>
|
|
<time>2026-07-10T13:04:25.000Z</time>
|
|
</trkpt>
|
|
<trkpt lat="55.108697" lon="8.675140">
|
|
<ele>-29.771082</ele>
|
|
<time>2026-07-10T13:04:26.000Z</time>
|
|
</trkpt>
|
|
<trkpt lat="55.108753" lon="8.675178">
|
|
<ele>-29.772518</ele>
|
|
<time>2026-07-10T13:04:27.000Z</time>
|
|
</trkpt>
|
|
<trkpt lat="55.108806" lon="8.675214">
|
|
<ele>-29.773878</ele>
|
|
<time>2026-07-10T13:04:28.000Z</time>
|
|
</trkpt>
|
|
<trkpt lat="55.108856" lon="8.675252">
|
|
<ele>-29.775181</ele>
|
|
<time>2026-07-10T13:04:29.000Z</time>
|
|
</trkpt>
|
|
<trkpt lat="55.108906" lon="8.675290">
|
|
<ele>-29.776485</ele>
|
|
<time>2026-07-10T13:04:30.000Z</time>
|
|
</trkpt>
|
|
<trkpt lat="55.108958" lon="8.675327">
|
|
<ele>-29.777827</ele>
|
|
<time>2026-07-10T13:04:31.000Z</time>
|
|
</trkpt>
|
|
<trkpt lat="55.109007" lon="8.675363">
|
|
<ele>-29.779098</ele>
|
|
<time>2026-07-10T13:04:32.000Z</time>
|
|
</trkpt>
|
|
<trkpt lat="55.109059" lon="8.675401">
|
|
<ele>-29.780446</ele>
|
|
<time>2026-07-10T13:04:33.000Z</time>
|
|
</trkpt>
|
|
<trkpt lat="55.109111" lon="8.675438">
|
|
<ele>-29.781788</ele>
|
|
<time>2026-07-10T13:04:34.000Z</time>
|
|
</trkpt>
|
|
<trkpt lat="55.109160" lon="8.675476">
|
|
<ele>-29.783070</ele>
|
|
<time>2026-07-10T13:04:35.000Z</time>
|
|
</trkpt>
|
|
<trkpt lat="55.109209" lon="8.675514">
|
|
<ele>-29.784352</ele>
|
|
<time>2026-07-10T13:04:36.000Z</time>
|
|
</trkpt>
|
|
<trkpt lat="55.109260" lon="8.675550">
|
|
<ele>-29.785667</ele>
|
|
<time>2026-07-10T13:04:37.000Z</time>
|
|
</trkpt>
|
|
<trkpt lat="55.109311" lon="8.675587">
|
|
<ele>-29.786987</ele>
|
|
<time>2026-07-10T13:04:38.000Z</time>
|
|
</trkpt>
|
|
<trkpt lat="55.109363" lon="8.675625">
|
|
<ele>-29.789457</ele>
|
|
<time>2026-07-10T13:04:39.000Z</time>
|
|
</trkpt>
|
|
<trkpt lat="55.109412" lon="8.675663">
|
|
<ele>-29.792053</ele>
|
|
<time>2026-07-10T13:04:40.000Z</time>
|
|
</trkpt>
|
|
<trkpt lat="55.109462" lon="8.675701">
|
|
<ele>-29.794693</ele>
|
|
<time>2026-07-10T13:04:41.000Z</time>
|
|
</trkpt>
|
|
<trkpt lat="55.109512" lon="8.675740">
|
|
<ele>-29.797345</ele>
|
|
<time>2026-07-10T13:04:42.000Z</time>
|
|
</trkpt>
|
|
<trkpt lat="55.109566" lon="8.675779">
|
|
<ele>-29.800175</ele>
|
|
<time>2026-07-10T13:04:43.000Z</time>
|
|
</trkpt>
|
|
<trkpt lat="55.109618" lon="8.675818">
|
|
<ele>-29.802915</ele>
|
|
<time>2026-07-10T13:04:44.000Z</time>
|
|
</trkpt>
|
|
<trkpt lat="55.109669" lon="8.675858">
|
|
<ele>-29.805622</ele>
|
|
<time>2026-07-10T13:04:45.000Z</time>
|
|
</trkpt>
|
|
<trkpt lat="55.109721" lon="8.675896">
|
|
<ele>-29.808352</ele>
|
|
<time>2026-07-10T13:04:46.000Z</time>
|
|
</trkpt>
|
|
<trkpt lat="55.109772" lon="8.675934">
|
|
<ele>-29.811037</ele>
|
|
<time>2026-07-10T13:04:47.000Z</time>
|
|
</trkpt>
|
|
<trkpt lat="55.109822" lon="8.675969">
|
|
<ele>-29.813646</ele>
|
|
<time>2026-07-10T13:04:48.000Z</time>
|
|
</trkpt>
|
|
<trkpt lat="55.109867" lon="8.676004">
|
|
<ele>-29.816031</ele>
|
|
<time>2026-07-10T13:04:49.000Z</time>
|
|
</trkpt>
|
|
<trkpt lat="55.109926" lon="8.676045">
|
|
<ele>-29.819106</ele>
|
|
<time>2026-07-10T13:04:50.000Z</time>
|
|
</trkpt>
|
|
<trkpt lat="55.109974" lon="8.676079">
|
|
<ele>-29.821614</ele>
|
|
<time>2026-07-10T13:04:51.000Z</time>
|
|
</trkpt>
|
|
<trkpt lat="55.110026" lon="8.676117">
|
|
<ele>-29.824344</ele>
|
|
<time>2026-07-10T13:04:52.000Z</time>
|
|
</trkpt>
|
|
<trkpt lat="55.110079" lon="8.676155">
|
|
<ele>-29.827118</ele>
|
|
<time>2026-07-10T13:04:53.000Z</time>
|
|
</trkpt>
|
|
<trkpt lat="55.110131" lon="8.676190">
|
|
<ele>-29.829817</ele>
|
|
<time>2026-07-10T13:04:54.000Z</time>
|
|
</trkpt>
|
|
<trkpt lat="55.110183" lon="8.676226">
|
|
<ele>-29.832526</ele>
|
|
<time>2026-07-10T13:04:55.000Z</time>
|
|
</trkpt>
|
|
<trkpt lat="55.110233" lon="8.676262">
|
|
<ele>-29.835145</ele>
|
|
<time>2026-07-10T13:04:56.000Z</time>
|
|
</trkpt>
|
|
<trkpt lat="55.110282" lon="8.676300">
|
|
<ele>-29.837741</ele>
|
|
<time>2026-07-10T13:04:57.000Z</time>
|
|
</trkpt>
|
|
<trkpt lat="55.110332" lon="8.676337">
|
|
<ele>-29.840371</ele>
|
|
<time>2026-07-10T13:04:58.000Z</time>
|
|
</trkpt>
|
|
<trkpt lat="55.110383" lon="8.676375">
|
|
<ele>-29.843056</ele>
|
|
<time>2026-07-10T13:04:59.000Z</time>
|
|
</trkpt>
|
|
<trkpt lat="55.110435" lon="8.676413">
|
|
<ele>-29.845785</ele>
|
|
<time>2026-07-10T13:05:00.000Z</time>
|
|
</trkpt>
|
|
<trkpt lat="55.110484" lon="8.676449">
|
|
<ele>-29.848360</ele>
|
|
<time>2026-07-10T13:05:01.000Z</time>
|
|
</trkpt>
|
|
<trkpt lat="55.110534" lon="8.676485">
|
|
<ele>-29.850978</ele>
|
|
<time>2026-07-10T13:05:02.000Z</time>
|
|
</trkpt>
|
|
<trkpt lat="55.110583" lon="8.676521">
|
|
<ele>-29.853553</ele>
|
|
<time>2026-07-10T13:05:03.000Z</time>
|
|
</trkpt>
|
|
<trkpt lat="55.110633" lon="8.676557">
|
|
<ele>-29.856172</ele>
|
|
<time>2026-07-10T13:05:04.000Z</time>
|
|
</trkpt>
|
|
<trkpt lat="55.110682" lon="8.676592">
|
|
<ele>-29.858735</ele>
|
|
<time>2026-07-10T13:05:05.000Z</time>
|
|
</trkpt>
|
|
<trkpt lat="55.110733" lon="8.676629">
|
|
<ele>-29.861410</ele>
|
|
<time>2026-07-10T13:05:06.000Z</time>
|
|
</trkpt>
|
|
<trkpt lat="55.110785" lon="8.676663">
|
|
<ele>-29.864098</ele>
|
|
<time>2026-07-10T13:05:07.000Z</time>
|
|
</trkpt>
|
|
<trkpt lat="55.110835" lon="8.676699">
|
|
<ele>-29.866717</ele>
|
|
<time>2026-07-10T13:05:08.000Z</time>
|
|
</trkpt>
|
|
<trkpt lat="55.110885" lon="8.676737">
|
|
<ele>-29.869358</ele>
|
|
<time>2026-07-10T13:05:09.000Z</time>
|
|
</trkpt>
|
|
<trkpt lat="55.110936" lon="8.676774">
|
|
<ele>-29.872032</ele>
|
|
<time>2026-07-10T13:05:10.000Z</time>
|
|
</trkpt>
|
|
<trkpt lat="55.110988" lon="8.676809">
|
|
<ele>-29.875193</ele>
|
|
<time>2026-07-10T13:05:11.000Z</time>
|
|
</trkpt>
|
|
<trkpt lat="55.111038" lon="8.676844">
|
|
<ele>-29.880991</ele>
|
|
<time>2026-07-10T13:05:12.000Z</time>
|
|
</trkpt>
|
|
<trkpt lat="55.111091" lon="8.676882">
|
|
<ele>-29.887158</ele>
|
|
<time>2026-07-10T13:05:13.000Z</time>
|
|
</trkpt>
|
|
<trkpt lat="55.111140" lon="8.676922">
|
|
<ele>-29.892980</ele>
|
|
<time>2026-07-10T13:05:14.000Z</time>
|
|
</trkpt>
|
|
<trkpt lat="55.111191" lon="8.676962">
|
|
<ele>-29.898997</ele>
|
|
<time>2026-07-10T13:05:15.000Z</time>
|
|
</trkpt>
|
|
<trkpt lat="55.111244" lon="8.677000">
|
|
<ele>-29.905164</ele>
|
|
<time>2026-07-10T13:05:16.000Z</time>
|
|
</trkpt>
|
|
<trkpt lat="55.111294" lon="8.677037">
|
|
<ele>-29.911009</ele>
|
|
<time>2026-07-10T13:05:17.000Z</time>
|
|
</trkpt>
|
|
<trkpt lat="55.111346" lon="8.677071">
|
|
<ele>-29.916986</ele>
|
|
<time>2026-07-10T13:05:18.000Z</time>
|
|
</trkpt>
|
|
<trkpt lat="55.111402" lon="8.677104">
|
|
<ele>-29.923348</ele>
|
|
<time>2026-07-10T13:05:19.000Z</time>
|
|
</trkpt>
|
|
<trkpt lat="55.111458" lon="8.677135">
|
|
<ele>-29.929672</ele>
|
|
<time>2026-07-10T13:05:20.000Z</time>
|
|
</trkpt>
|
|
<trkpt lat="55.111512" lon="8.677162">
|
|
<ele>-29.935718</ele>
|
|
<time>2026-07-10T13:05:21.000Z</time>
|
|
</trkpt>
|
|
<trkpt lat="55.111568" lon="8.677190">
|
|
<ele>-29.941988</ele>
|
|
<time>2026-07-10T13:05:22.000Z</time>
|
|
</trkpt>
|
|
<trkpt lat="55.111626" lon="8.677218">
|
|
<ele>-29.948466</ele>
|
|
<time>2026-07-10T13:05:23.000Z</time>
|
|
</trkpt>
|
|
<trkpt lat="55.111680" lon="8.677243">
|
|
<ele>-29.954480</ele>
|
|
<time>2026-07-10T13:05:24.000Z</time>
|
|
</trkpt>
|
|
<trkpt lat="55.111738" lon="8.677268">
|
|
<ele>-29.960911</ele>
|
|
<time>2026-07-10T13:05:25.000Z</time>
|
|
</trkpt>
|
|
<trkpt lat="55.111794" lon="8.677292">
|
|
<ele>-29.967118</ele>
|
|
<time>2026-07-10T13:05:26.000Z</time>
|
|
</trkpt>
|
|
<trkpt lat="55.111847" lon="8.677317">
|
|
<ele>-29.973028</ele>
|
|
<time>2026-07-10T13:05:27.000Z</time>
|
|
</trkpt>
|
|
<trkpt lat="55.111901" lon="8.677339">
|
|
<ele>-29.978997</ele>
|
|
<time>2026-07-10T13:05:28.000Z</time>
|
|
</trkpt>
|
|
<trkpt lat="55.111959" lon="8.677360">
|
|
<ele>-29.985373</ele>
|
|
<time>2026-07-10T13:05:29.000Z</time>
|
|
</trkpt>
|
|
<trkpt lat="55.112015" lon="8.677384">
|
|
<ele>-29.991580</ele>
|
|
<time>2026-07-10T13:05:30.000Z</time>
|
|
</trkpt>
|
|
<trkpt lat="55.112068" lon="8.677409">
|
|
<ele>-29.997490</ele>
|
|
<time>2026-07-10T13:05:31.000Z</time>
|
|
</trkpt>
|
|
<trkpt lat="55.112123" lon="8.677434">
|
|
<ele>-30.003608</ele>
|
|
<time>2026-07-10T13:05:32.000Z</time>
|
|
</trkpt>
|
|
<trkpt lat="55.112179" lon="8.677461">
|
|
<ele>-30.009862</ele>
|
|
<time>2026-07-10T13:05:33.000Z</time>
|
|
</trkpt>
|
|
<trkpt lat="55.112234" lon="8.677485">
|
|
<ele>-30.015964</ele>
|
|
<time>2026-07-10T13:05:34.000Z</time>
|
|
</trkpt>
|
|
<trkpt lat="55.112290" lon="8.677509">
|
|
<ele>-30.022172</ele>
|
|
<time>2026-07-10T13:05:35.000Z</time>
|
|
</trkpt>
|
|
<trkpt lat="55.112344" lon="8.677533">
|
|
<ele>-30.028170</ele>
|
|
<time>2026-07-10T13:05:36.000Z</time>
|
|
</trkpt>
|
|
<trkpt lat="55.112400" lon="8.677556">
|
|
<ele>-30.034363</ele>
|
|
<time>2026-07-10T13:05:37.000Z</time>
|
|
</trkpt>
|
|
<trkpt lat="55.112453" lon="8.677578">
|
|
<ele>-30.040227</ele>
|
|
<time>2026-07-10T13:05:38.000Z</time>
|
|
</trkpt>
|
|
<trkpt lat="55.112507" lon="8.677604">
|
|
<ele>-30.046257</ele>
|
|
<time>2026-07-10T13:05:39.000Z</time>
|
|
</trkpt>
|
|
<trkpt lat="55.112564" lon="8.677630">
|
|
<ele>-30.052598</ele>
|
|
<time>2026-07-10T13:05:40.000Z</time>
|
|
</trkpt>
|
|
<trkpt lat="55.112619" lon="8.677651">
|
|
<ele>-30.058659</ele>
|
|
<time>2026-07-10T13:05:41.000Z</time>
|
|
</trkpt>
|
|
<trkpt lat="55.112675" lon="8.677673">
|
|
<ele>-30.064838</ele>
|
|
<time>2026-07-10T13:05:42.000Z</time>
|
|
</trkpt>
|
|
<trkpt lat="55.112725" lon="8.677694">
|
|
<ele>-30.070292</ele>
|
|
<time>2026-07-10T13:05:43.000Z</time>
|
|
</trkpt>
|
|
<trkpt lat="55.112769" lon="8.677713">
|
|
<ele>-30.075003</ele>
|
|
<time>2026-07-10T13:05:44.000Z</time>
|
|
</trkpt>
|
|
<trkpt lat="55.112839" lon="8.677744">
|
|
<ele>-30.082509</ele>
|
|
<time>2026-07-10T13:05:45.000Z</time>
|
|
</trkpt>
|
|
<trkpt lat="55.112896" lon="8.677766">
|
|
<ele>-30.088576</ele>
|
|
<time>2026-07-10T13:05:46.000Z</time>
|
|
</trkpt>
|
|
<trkpt lat="55.112951" lon="8.677787">
|
|
<ele>-30.094428</ele>
|
|
<time>2026-07-10T13:05:47.000Z</time>
|
|
</trkpt>
|
|
<trkpt lat="55.113008" lon="8.677809">
|
|
<ele>-30.100496</ele>
|
|
<time>2026-07-10T13:05:48.000Z</time>
|
|
</trkpt>
|
|
<trkpt lat="55.113065" lon="8.677831">
|
|
<ele>-30.106563</ele>
|
|
<time>2026-07-10T13:05:49.000Z</time>
|
|
</trkpt>
|
|
<trkpt lat="55.113123" lon="8.677850">
|
|
<ele>-30.112697</ele>
|
|
<time>2026-07-10T13:05:50.000Z</time>
|
|
</trkpt>
|
|
<trkpt lat="55.113179" lon="8.677869">
|
|
<ele>-30.118626</ele>
|
|
<time>2026-07-10T13:05:51.000Z</time>
|
|
</trkpt>
|
|
<trkpt lat="55.113233" lon="8.677889">
|
|
<ele>-30.124364</ele>
|
|
<time>2026-07-10T13:05:52.000Z</time>
|
|
</trkpt>
|
|
<trkpt lat="55.113291" lon="8.677908">
|
|
<ele>-30.130498</ele>
|
|
<time>2026-07-10T13:05:53.000Z</time>
|
|
</trkpt>
|
|
<trkpt lat="55.113349" lon="8.677925">
|
|
<ele>-30.136611</ele>
|
|
<time>2026-07-10T13:05:54.000Z</time>
|
|
</trkpt>
|
|
<trkpt lat="55.113410" lon="8.677949">
|
|
<ele>-30.143110</ele>
|
|
<time>2026-07-10T13:05:55.000Z</time>
|
|
</trkpt>
|
|
<trkpt lat="55.113470" lon="8.677977">
|
|
<ele>-30.149565</ele>
|
|
<time>2026-07-10T13:05:56.000Z</time>
|
|
</trkpt>
|
|
<trkpt lat="55.113528" lon="8.678006">
|
|
<ele>-30.155836</ele>
|
|
<time>2026-07-10T13:05:57.000Z</time>
|
|
</trkpt>
|
|
<trkpt lat="55.113590" lon="8.678031">
|
|
<ele>-30.162450</ele>
|
|
<time>2026-07-10T13:05:58.000Z</time>
|
|
</trkpt>
|
|
<trkpt lat="55.113655" lon="8.678053">
|
|
<ele>-30.169332</ele>
|
|
<time>2026-07-10T13:05:59.000Z</time>
|
|
</trkpt>
|
|
<trkpt lat="55.113718" lon="8.678076">
|
|
<ele>-30.176021</ele>
|
|
<time>2026-07-10T13:06:00.000Z</time>
|
|
</trkpt>
|
|
<trkpt lat="55.113780" lon="8.678098">
|
|
<ele>-30.182597</ele>
|
|
<time>2026-07-10T13:06:01.000Z</time>
|
|
</trkpt>
|
|
<trkpt lat="55.113841" lon="8.678120">
|
|
<ele>-30.189072</ele>
|
|
<time>2026-07-10T13:06:02.000Z</time>
|
|
</trkpt>
|
|
<trkpt lat="55.113904" lon="8.678143">
|
|
<ele>-30.195761</ele>
|
|
<time>2026-07-10T13:06:03.000Z</time>
|
|
</trkpt>
|
|
<trkpt lat="55.113963" lon="8.678167">
|
|
<ele>-30.202058</ele>
|
|
<time>2026-07-10T13:06:04.000Z</time>
|
|
</trkpt>
|
|
<trkpt lat="55.114027" lon="8.678192">
|
|
<ele>-30.208875</ele>
|
|
<time>2026-07-10T13:06:05.000Z</time>
|
|
</trkpt>
|
|
<trkpt lat="55.114088" lon="8.678218">
|
|
<ele>-30.215401</ele>
|
|
<time>2026-07-10T13:06:06.000Z</time>
|
|
</trkpt>
|
|
<trkpt lat="55.114150" lon="8.678244">
|
|
<ele>-30.222028</ele>
|
|
<time>2026-07-10T13:06:07.000Z</time>
|
|
</trkpt>
|
|
<trkpt lat="55.114211" lon="8.678270">
|
|
<ele>-30.228555</ele>
|
|
<time>2026-07-10T13:06:08.000Z</time>
|
|
</trkpt>
|
|
<trkpt lat="55.114271" lon="8.678298">
|
|
<ele>-30.235010</ele>
|
|
<time>2026-07-10T13:06:09.000Z</time>
|
|
</trkpt>
|
|
<trkpt lat="55.114328" lon="8.678326">
|
|
<ele>-30.241164</ele>
|
|
<time>2026-07-10T13:06:10.000Z</time>
|
|
</trkpt>
|
|
<trkpt lat="55.114389" lon="8.678354">
|
|
<ele>-30.247720</ele>
|
|
<time>2026-07-10T13:06:11.000Z</time>
|
|
</trkpt>
|
|
<trkpt lat="55.114446" lon="8.678382">
|
|
<ele>-30.253874</ele>
|
|
<time>2026-07-10T13:06:12.000Z</time>
|
|
</trkpt>
|
|
<trkpt lat="55.114504" lon="8.678409">
|
|
<ele>-30.242258</ele>
|
|
<time>2026-07-10T13:06:13.000Z</time>
|
|
</trkpt>
|
|
<trkpt lat="55.114566" lon="8.678431">
|
|
<ele>-30.226105</ele>
|
|
<time>2026-07-10T13:06:14.000Z</time>
|
|
</trkpt>
|
|
<trkpt lat="55.114627" lon="8.678450">
|
|
<ele>-30.210284</ele>
|
|
<time>2026-07-10T13:06:15.000Z</time>
|
|
</trkpt>
|
|
<trkpt lat="55.114686" lon="8.678466">
|
|
<ele>-30.195038</ele>
|
|
<time>2026-07-10T13:06:16.000Z</time>
|
|
</trkpt>
|
|
<trkpt lat="55.114744" lon="8.678479">
|
|
<ele>-30.180107</ele>
|
|
<time>2026-07-10T13:06:17.000Z</time>
|
|
</trkpt>
|
|
<trkpt lat="55.114806" lon="8.678491">
|
|
<ele>-30.164180</ele>
|
|
<time>2026-07-10T13:06:18.000Z</time>
|
|
</trkpt>
|
|
<trkpt lat="55.114867" lon="8.678495">
|
|
<ele>-30.148593</ele>
|
|
<time>2026-07-10T13:06:19.000Z</time>
|
|
</trkpt>
|
|
<trkpt lat="55.114928" lon="8.678491">
|
|
<ele>-30.133006</ele>
|
|
<time>2026-07-10T13:06:20.000Z</time>
|
|
</trkpt>
|
|
<trkpt lat="55.114989" lon="8.678481">
|
|
<ele>-30.117362</ele>
|
|
<time>2026-07-10T13:06:21.000Z</time>
|
|
</trkpt>
|
|
<trkpt lat="55.115049" lon="8.678466">
|
|
<ele>-30.101886</ele>
|
|
<time>2026-07-10T13:06:22.000Z</time>
|
|
</trkpt>
|
|
<trkpt lat="55.115110" lon="8.678446">
|
|
<ele>-30.086039</ele>
|
|
<time>2026-07-10T13:06:23.000Z</time>
|
|
</trkpt>
|
|
<trkpt lat="55.115168" lon="8.678426">
|
|
<ele>-30.070944</ele>
|
|
<time>2026-07-10T13:06:24.000Z</time>
|
|
</trkpt>
|
|
<trkpt lat="55.115230" lon="8.678405">
|
|
<ele>-30.054818</ele>
|
|
<time>2026-07-10T13:06:25.000Z</time>
|
|
</trkpt>
|
|
<trkpt lat="55.115292" lon="8.678382">
|
|
<ele>-30.038635</ele>
|
|
<time>2026-07-10T13:06:26.000Z</time>
|
|
</trkpt>
|
|
<trkpt lat="55.115349" lon="8.678360">
|
|
<ele>-30.023730</ele>
|
|
<time>2026-07-10T13:06:27.000Z</time>
|
|
</trkpt>
|
|
<trkpt lat="55.115410" lon="8.678339">
|
|
<ele>-30.007855</ele>
|
|
<time>2026-07-10T13:06:28.000Z</time>
|
|
</trkpt>
|
|
<trkpt lat="55.115469" lon="8.678318">
|
|
<ele>-29.992481</ele>
|
|
<time>2026-07-10T13:06:29.000Z</time>
|
|
</trkpt>
|
|
<trkpt lat="55.115530" lon="8.678294">
|
|
<ele>-29.976516</ele>
|
|
<time>2026-07-10T13:06:30.000Z</time>
|
|
</trkpt>
|
|
<trkpt lat="55.115585" lon="8.678270">
|
|
<ele>-29.962041</ele>
|
|
<time>2026-07-10T13:06:31.000Z</time>
|
|
</trkpt>
|
|
<trkpt lat="55.115638" lon="8.678248">
|
|
<ele>-29.948132</ele>
|
|
<time>2026-07-10T13:06:32.000Z</time>
|
|
</trkpt>
|
|
<trkpt lat="55.115691" lon="8.678228">
|
|
<ele>-29.934288</ele>
|
|
<time>2026-07-10T13:06:33.000Z</time>
|
|
</trkpt>
|
|
<trkpt lat="55.115739" lon="8.678208">
|
|
<ele>-29.921688</ele>
|
|
<time>2026-07-10T13:06:34.000Z</time>
|
|
</trkpt>
|
|
<trkpt lat="55.115792" lon="8.678187">
|
|
<ele>-29.907812</ele>
|
|
<time>2026-07-10T13:06:35.000Z</time>
|
|
</trkpt>
|
|
<trkpt lat="55.115834" lon="8.678168">
|
|
<ele>-29.896735</ele>
|
|
<time>2026-07-10T13:06:36.000Z</time>
|
|
</trkpt>
|
|
<trkpt lat="55.115874" lon="8.678154">
|
|
<ele>-29.886318</ele>
|
|
<time>2026-07-10T13:06:37.000Z</time>
|
|
</trkpt>
|
|
<trkpt lat="55.115907" lon="8.678149">
|
|
<ele>-29.877861</ele>
|
|
<time>2026-07-10T13:06:38.000Z</time>
|
|
</trkpt>
|
|
<trkpt lat="55.115935" lon="8.678151">
|
|
<ele>-29.870705</ele>
|
|
<time>2026-07-10T13:06:39.000Z</time>
|
|
</trkpt>
|
|
<trkpt lat="55.115956" lon="8.678153">
|
|
<ele>-29.865335</ele>
|
|
<time>2026-07-10T13:06:40.000Z</time>
|
|
</trkpt>
|
|
<trkpt lat="55.115971" lon="8.678152">
|
|
<ele>-29.861502</ele>
|
|
<time>2026-07-10T13:06:41.000Z</time>
|
|
</trkpt>
|
|
<trkpt lat="55.115986" lon="8.678146">
|
|
<ele>-29.857573</ele>
|
|
<time>2026-07-10T13:06:42.000Z</time>
|
|
</trkpt>
|
|
<trkpt lat="55.116000" lon="8.678139">
|
|
<ele>-29.853855</ele>
|
|
<time>2026-07-10T13:06:43.000Z</time>
|
|
</trkpt>
|
|
<trkpt lat="55.116012" lon="8.678132">
|
|
<ele>-29.850625</ele>
|
|
<time>2026-07-10T13:06:44.000Z</time>
|
|
</trkpt>
|
|
<trkpt lat="55.116025" lon="8.678121">
|
|
<ele>-29.846937</ele>
|
|
<time>2026-07-10T13:06:45.000Z</time>
|
|
</trkpt>
|
|
<trkpt lat="55.116041" lon="8.678103">
|
|
<ele>-29.842079</ele>
|
|
<time>2026-07-10T13:06:46.000Z</time>
|
|
</trkpt>
|
|
<trkpt lat="55.116061" lon="8.678084">
|
|
<ele>-29.836267</ele>
|
|
<time>2026-07-10T13:06:47.000Z</time>
|
|
</trkpt>
|
|
<trkpt lat="55.116086" lon="8.678069">
|
|
<ele>-29.829518</ele>
|
|
<time>2026-07-10T13:06:48.000Z</time>
|
|
</trkpt>
|
|
<trkpt lat="55.116116" lon="8.678061">
|
|
<ele>-29.821770</ele>
|
|
<time>2026-07-10T13:06:49.000Z</time>
|
|
</trkpt>
|
|
<trkpt lat="55.116149" lon="8.678057">
|
|
<ele>-29.813323</ele>
|
|
<time>2026-07-10T13:06:50.000Z</time>
|
|
</trkpt>
|
|
<trkpt lat="55.116184" lon="8.678049">
|
|
<ele>-29.804310</ele>
|
|
<time>2026-07-10T13:06:51.000Z</time>
|
|
</trkpt>
|
|
<trkpt lat="55.116216" lon="8.678035">
|
|
<ele>-29.795887</ele>
|
|
<time>2026-07-10T13:06:52.000Z</time>
|
|
</trkpt>
|
|
<trkpt lat="55.116251" lon="8.678017">
|
|
<ele>-29.789889</ele>
|
|
<time>2026-07-10T13:06:53.000Z</time>
|
|
</trkpt>
|
|
<trkpt lat="55.116290" lon="8.677997">
|
|
<ele>-29.783290</ele>
|
|
<time>2026-07-10T13:06:54.000Z</time>
|
|
</trkpt>
|
|
<trkpt lat="55.116325" lon="8.677983">
|
|
<ele>-29.777461</ele>
|
|
<time>2026-07-10T13:06:55.000Z</time>
|
|
</trkpt>
|
|
<trkpt lat="55.116364" lon="8.677970">
|
|
<ele>-29.771015</ele>
|
|
<time>2026-07-10T13:06:56.000Z</time>
|
|
</trkpt>
|
|
<trkpt lat="55.116407" lon="8.677957">
|
|
<ele>-29.763930</ele>
|
|
<time>2026-07-10T13:06:57.000Z</time>
|
|
</trkpt>
|
|
<trkpt lat="55.116451" lon="8.677942">
|
|
<ele>-29.756651</ele>
|
|
<time>2026-07-10T13:06:58.000Z</time>
|
|
</trkpt>
|
|
<trkpt lat="55.116490" lon="8.677925">
|
|
<ele>-29.750126</ele>
|
|
<time>2026-07-10T13:06:59.000Z</time>
|
|
</trkpt>
|
|
<trkpt lat="55.116530" lon="8.677908">
|
|
<ele>-29.743442</ele>
|
|
<time>2026-07-10T13:07:00.000Z</time>
|
|
</trkpt>
|
|
<trkpt lat="55.116569" lon="8.677893">
|
|
<ele>-29.736959</ele>
|
|
<time>2026-07-10T13:07:01.000Z</time>
|
|
</trkpt>
|
|
<trkpt lat="55.116619" lon="8.677880">
|
|
<ele>-29.728751</ele>
|
|
<time>2026-07-10T13:07:02.000Z</time>
|
|
</trkpt>
|
|
<trkpt lat="55.116660" lon="8.677871">
|
|
<ele>-29.722042</ele>
|
|
<time>2026-07-10T13:07:03.000Z</time>
|
|
</trkpt>
|
|
<trkpt lat="55.116707" lon="8.677858">
|
|
<ele>-29.714317</ele>
|
|
<time>2026-07-10T13:07:04.000Z</time>
|
|
</trkpt>
|
|
<trkpt lat="55.116753" lon="8.677847">
|
|
<ele>-29.706778</ele>
|
|
<time>2026-07-10T13:07:05.000Z</time>
|
|
</trkpt>
|
|
<trkpt lat="55.116800" lon="8.677838">
|
|
<ele>-29.699102</ele>
|
|
<time>2026-07-10T13:07:06.000Z</time>
|
|
</trkpt>
|
|
<trkpt lat="55.116845" lon="8.677833">
|
|
<ele>-29.691781</ele>
|
|
<time>2026-07-10T13:07:07.000Z</time>
|
|
</trkpt>
|
|
<trkpt lat="55.116891" lon="8.677832">
|
|
<ele>-29.684312</ele>
|
|
<time>2026-07-10T13:07:08.000Z</time>
|
|
</trkpt>
|
|
<trkpt lat="55.116933" lon="8.677834">
|
|
<ele>-29.677490</ele>
|
|
<time>2026-07-10T13:07:09.000Z</time>
|
|
</trkpt>
|
|
<trkpt lat="55.116983" lon="8.677837">
|
|
<ele>-29.669367</ele>
|
|
<time>2026-07-10T13:07:10.000Z</time>
|
|
</trkpt>
|
|
<trkpt lat="55.117030" lon="8.677841">
|
|
<ele>-29.661727</ele>
|
|
<time>2026-07-10T13:07:11.000Z</time>
|
|
</trkpt>
|
|
<trkpt lat="55.117078" lon="8.677845">
|
|
<ele>-29.653925</ele>
|
|
<time>2026-07-10T13:07:12.000Z</time>
|
|
</trkpt>
|
|
<trkpt lat="55.117125" lon="8.677854">
|
|
<ele>-29.646249</ele>
|
|
<time>2026-07-10T13:07:13.000Z</time>
|
|
</trkpt>
|
|
<trkpt lat="55.117174" lon="8.677865">
|
|
<ele>-29.638228</ele>
|
|
<time>2026-07-10T13:07:14.000Z</time>
|
|
</trkpt>
|
|
<trkpt lat="55.117220" lon="8.677879">
|
|
<ele>-29.630647</ele>
|
|
<time>2026-07-10T13:07:15.000Z</time>
|
|
</trkpt>
|
|
<trkpt lat="55.117268" lon="8.677897">
|
|
<ele>-29.622676</ele>
|
|
<time>2026-07-10T13:07:16.000Z</time>
|
|
</trkpt>
|
|
<trkpt lat="55.117315" lon="8.677919">
|
|
<ele>-29.614777</ele>
|
|
<time>2026-07-10T13:07:17.000Z</time>
|
|
</trkpt>
|
|
<trkpt lat="55.117361" lon="8.677943">
|
|
<ele>-29.606983</ele>
|
|
<time>2026-07-10T13:07:18.000Z</time>
|
|
</trkpt>
|
|
<trkpt lat="55.117408" lon="8.677967">
|
|
<ele>-29.599033</ele>
|
|
<time>2026-07-10T13:07:19.000Z</time>
|
|
</trkpt>
|
|
<trkpt lat="55.117457" lon="8.677993">
|
|
<ele>-29.590719</ele>
|
|
<time>2026-07-10T13:07:20.000Z</time>
|
|
</trkpt>
|
|
<trkpt lat="55.117505" lon="8.678019">
|
|
<ele>-29.582561</ele>
|
|
<time>2026-07-10T13:07:21.000Z</time>
|
|
</trkpt>
|
|
<trkpt lat="55.117557" lon="8.678049">
|
|
<ele>-29.573670</ele>
|
|
<time>2026-07-10T13:07:22.000Z</time>
|
|
</trkpt>
|
|
<trkpt lat="55.117606" lon="8.678075">
|
|
<ele>-29.565356</ele>
|
|
<time>2026-07-10T13:07:23.000Z</time>
|
|
</trkpt>
|
|
<trkpt lat="55.117656" lon="8.678100">
|
|
<ele>-29.556913</ele>
|
|
<time>2026-07-10T13:07:24.000Z</time>
|
|
</trkpt>
|
|
<trkpt lat="55.117705" lon="8.678128">
|
|
<ele>-29.548543</ele>
|
|
<time>2026-07-10T13:07:25.000Z</time>
|
|
</trkpt>
|
|
<trkpt lat="55.117752" lon="8.678159">
|
|
<ele>-29.540388</ele>
|
|
<time>2026-07-10T13:07:26.000Z</time>
|
|
</trkpt>
|
|
<trkpt lat="55.117801" lon="8.678193">
|
|
<ele>-29.531829</ele>
|
|
<time>2026-07-10T13:07:27.000Z</time>
|
|
</trkpt>
|
|
<trkpt lat="55.117849" lon="8.678227">
|
|
<ele>-29.523420</ele>
|
|
<time>2026-07-10T13:07:28.000Z</time>
|
|
</trkpt>
|
|
<trkpt lat="55.117895" lon="8.678260">
|
|
<ele>-29.515347</ele>
|
|
<time>2026-07-10T13:07:29.000Z</time>
|
|
</trkpt>
|
|
<trkpt lat="55.117941" lon="8.678294">
|
|
<ele>-29.507239</ele>
|
|
<time>2026-07-10T13:07:30.000Z</time>
|
|
</trkpt>
|
|
<trkpt lat="55.117987" lon="8.678328">
|
|
<ele>-29.502031</ele>
|
|
<time>2026-07-10T13:07:31.000Z</time>
|
|
</trkpt>
|
|
<trkpt lat="55.118033" lon="8.678364">
|
|
<ele>-29.499096</ele>
|
|
<time>2026-07-10T13:07:32.000Z</time>
|
|
</trkpt>
|
|
<trkpt lat="55.118080" lon="8.678398">
|
|
<ele>-29.496134</ele>
|
|
<time>2026-07-10T13:07:33.000Z</time>
|
|
</trkpt>
|
|
<trkpt lat="55.118128" lon="8.678429">
|
|
<ele>-29.493155</ele>
|
|
<time>2026-07-10T13:07:34.000Z</time>
|
|
</trkpt>
|
|
<trkpt lat="55.118174" lon="8.678457">
|
|
<ele>-29.490318</ele>
|
|
<time>2026-07-10T13:07:35.000Z</time>
|
|
</trkpt>
|
|
<trkpt lat="55.118218" lon="8.678484">
|
|
<ele>-29.487603</ele>
|
|
<time>2026-07-10T13:07:36.000Z</time>
|
|
</trkpt>
|
|
<trkpt lat="55.118263" lon="8.678513">
|
|
<ele>-29.484810</ele>
|
|
<time>2026-07-10T13:07:37.000Z</time>
|
|
</trkpt>
|
|
<trkpt lat="55.118307" lon="8.678545">
|
|
<ele>-29.482035</ele>
|
|
<time>2026-07-10T13:07:38.000Z</time>
|
|
</trkpt>
|
|
<trkpt lat="55.118352" lon="8.678575">
|
|
<ele>-29.479230</ele>
|
|
<time>2026-07-10T13:07:39.000Z</time>
|
|
</trkpt>
|
|
<trkpt lat="55.118394" lon="8.678605">
|
|
<ele>-29.476588</ele>
|
|
<time>2026-07-10T13:07:40.000Z</time>
|
|
</trkpt>
|
|
<trkpt lat="55.118437" lon="8.678634">
|
|
<ele>-29.473904</ele>
|
|
<time>2026-07-10T13:07:41.000Z</time>
|
|
</trkpt>
|
|
<trkpt lat="55.118475" lon="8.678661">
|
|
<ele>-29.471516</ele>
|
|
<time>2026-07-10T13:07:42.000Z</time>
|
|
</trkpt>
|
|
<trkpt lat="55.118507" lon="8.678686">
|
|
<ele>-29.469475</ele>
|
|
<time>2026-07-10T13:07:43.000Z</time>
|
|
</trkpt>
|
|
<trkpt lat="55.118532" lon="8.678712">
|
|
<ele>-29.467781</ele>
|
|
<time>2026-07-10T13:07:44.000Z</time>
|
|
</trkpt>
|
|
<trkpt lat="55.118552" lon="8.678737">
|
|
<ele>-29.466349</ele>
|
|
<time>2026-07-10T13:07:45.000Z</time>
|
|
</trkpt>
|
|
<trkpt lat="55.118563" lon="8.678755">
|
|
<ele>-29.465472</ele>
|
|
<time>2026-07-10T13:07:46.000Z</time>
|
|
</trkpt>
|
|
<trkpt lat="55.118689" lon="8.678783">
|
|
<ele>-29.458075</ele>
|
|
<time>2026-07-10T13:08:16.000Z</time>
|
|
</trkpt>
|
|
<trkpt lat="55.118699" lon="8.678782">
|
|
<ele>-29.457492</ele>
|
|
<time>2026-07-10T13:08:17.000Z</time>
|
|
</trkpt>
|
|
<trkpt lat="55.118708" lon="8.678783">
|
|
<ele>-29.456967</ele>
|
|
<time>2026-07-10T13:08:18.000Z</time>
|
|
</trkpt>
|
|
<trkpt lat="55.118717" lon="8.678791">
|
|
<ele>-29.456379</ele>
|
|
<time>2026-07-10T13:08:19.000Z</time>
|
|
</trkpt>
|
|
<trkpt lat="55.118727" lon="8.678800">
|
|
<ele>-29.455724</ele>
|
|
<time>2026-07-10T13:08:20.000Z</time>
|
|
</trkpt>
|
|
<trkpt lat="55.118735" lon="8.678809">
|
|
<ele>-29.455170</ele>
|
|
<time>2026-07-10T13:08:21.000Z</time>
|
|
</trkpt>
|
|
<trkpt lat="55.118743" lon="8.678819">
|
|
<ele>-29.454597</ele>
|
|
<time>2026-07-10T13:08:22.000Z</time>
|
|
</trkpt>
|
|
<trkpt lat="55.118756" lon="8.678829">
|
|
<ele>-29.453770</ele>
|
|
<time>2026-07-10T13:08:23.000Z</time>
|
|
</trkpt>
|
|
<trkpt lat="55.118770" lon="8.678837">
|
|
<ele>-29.452912</ele>
|
|
<time>2026-07-10T13:08:24.000Z</time>
|
|
</trkpt>
|
|
<trkpt lat="55.118782" lon="8.678844">
|
|
<ele>-29.452176</ele>
|
|
<time>2026-07-10T13:08:25.000Z</time>
|
|
</trkpt>
|
|
<trkpt lat="55.118792" lon="8.678854">
|
|
<ele>-29.451505</ele>
|
|
<time>2026-07-10T13:08:26.000Z</time>
|
|
</trkpt>
|
|
<trkpt lat="55.118799" lon="8.678867">
|
|
<ele>-29.450910</ele>
|
|
<time>2026-07-10T13:08:27.000Z</time>
|
|
</trkpt>
|
|
<trkpt lat="55.118808" lon="8.678882">
|
|
<ele>-29.450186</ele>
|
|
<time>2026-07-10T13:08:28.000Z</time>
|
|
</trkpt>
|
|
<trkpt lat="55.118819" lon="8.678896">
|
|
<ele>-29.449394</ele>
|
|
<time>2026-07-10T13:08:29.000Z</time>
|
|
</trkpt>
|
|
<trkpt lat="55.118826" lon="8.678910">
|
|
<ele>-29.448774</ele>
|
|
<time>2026-07-10T13:08:30.000Z</time>
|
|
</trkpt>
|
|
<trkpt lat="55.118834" lon="8.678921">
|
|
<ele>-29.448182</ele>
|
|
<time>2026-07-10T13:08:31.000Z</time>
|
|
</trkpt>
|
|
<trkpt lat="55.118841" lon="8.678931">
|
|
<ele>-29.447655</ele>
|
|
<time>2026-07-10T13:08:32.000Z</time>
|
|
</trkpt>
|
|
<trkpt lat="55.118849" lon="8.678939">
|
|
<ele>-29.447119</ele>
|
|
<time>2026-07-10T13:08:33.000Z</time>
|
|
</trkpt>
|
|
<trkpt lat="55.118856" lon="8.678944">
|
|
<ele>-29.446678</ele>
|
|
<time>2026-07-10T13:08:34.000Z</time>
|
|
</trkpt>
|
|
<trkpt lat="55.118858" lon="8.678945">
|
|
<ele>-29.446557</ele>
|
|
<time>2026-07-10T13:08:35.000Z</time>
|
|
</trkpt>
|
|
<trkpt lat="55.118867" lon="8.678950">
|
|
<ele>-29.446007</ele>
|
|
<time>2026-07-10T13:08:38.000Z</time>
|
|
</trkpt>
|
|
<trkpt lat="55.118892" lon="8.678963">
|
|
<ele>-29.444489</ele>
|
|
<time>2026-07-10T13:08:39.000Z</time>
|
|
</trkpt>
|
|
<trkpt lat="55.118903" lon="8.678961">
|
|
<ele>-29.443844</ele>
|
|
<time>2026-07-10T13:08:40.000Z</time>
|
|
</trkpt>
|
|
<trkpt lat="55.118915" lon="8.678958">
|
|
<ele>-29.443139</ele>
|
|
<time>2026-07-10T13:08:41.000Z</time>
|
|
</trkpt>
|
|
<trkpt lat="55.118926" lon="8.678961">
|
|
<ele>-29.442490</ele>
|
|
<time>2026-07-10T13:08:42.000Z</time>
|
|
</trkpt>
|
|
<trkpt lat="55.118935" lon="8.678963">
|
|
<ele>-29.441962</ele>
|
|
<time>2026-07-10T13:08:43.000Z</time>
|
|
</trkpt>
|
|
<trkpt lat="55.118935" lon="8.678960">
|
|
<ele>-29.441862</ele>
|
|
<time>2026-07-10T13:08:44.000Z</time>
|
|
</trkpt>
|
|
<trkpt lat="55.118935" lon="8.678962">
|
|
<ele>-29.441795</ele>
|
|
<time>2026-07-10T13:08:45.000Z</time>
|
|
</trkpt>
|
|
<trkpt lat="55.118942" lon="8.678967">
|
|
<ele>-29.441355</ele>
|
|
<time>2026-07-10T13:08:49.000Z</time>
|
|
</trkpt>
|
|
<trkpt lat="55.118966" lon="8.678985">
|
|
<ele>-29.439834</ele>
|
|
<time>2026-07-10T13:08:50.000Z</time>
|
|
</trkpt>
|
|
<trkpt lat="55.118983" lon="8.678999">
|
|
<ele>-29.438740</ele>
|
|
<time>2026-07-10T13:08:51.000Z</time>
|
|
</trkpt>
|
|
<trkpt lat="55.119006" lon="8.679015">
|
|
<ele>-29.437299</ele>
|
|
<time>2026-07-10T13:08:52.000Z</time>
|
|
</trkpt>
|
|
<trkpt lat="55.119039" lon="8.679031">
|
|
<ele>-29.435304</ele>
|
|
<time>2026-07-10T13:08:53.000Z</time>
|
|
</trkpt>
|
|
<trkpt lat="55.119069" lon="8.679046">
|
|
<ele>-29.433487</ele>
|
|
<time>2026-07-10T13:08:54.000Z</time>
|
|
</trkpt>
|
|
<trkpt lat="55.119100" lon="8.679064">
|
|
<ele>-29.431585</ele>
|
|
<time>2026-07-10T13:08:55.000Z</time>
|
|
</trkpt>
|
|
<trkpt lat="55.119135" lon="8.679084">
|
|
<ele>-29.429441</ele>
|
|
<time>2026-07-10T13:08:56.000Z</time>
|
|
</trkpt>
|
|
<trkpt lat="55.119174" lon="8.679109">
|
|
<ele>-29.427022</ele>
|
|
<time>2026-07-10T13:08:57.000Z</time>
|
|
</trkpt>
|
|
<trkpt lat="55.119212" lon="8.679132">
|
|
<ele>-29.424680</ele>
|
|
<time>2026-07-10T13:08:58.000Z</time>
|
|
</trkpt>
|
|
<trkpt lat="55.119250" lon="8.679159">
|
|
<ele>-29.422291</ele>
|
|
<time>2026-07-10T13:08:59.000Z</time>
|
|
</trkpt>
|
|
<trkpt lat="55.119288" lon="8.679185">
|
|
<ele>-29.419915</ele>
|
|
<time>2026-07-10T13:09:00.000Z</time>
|
|
</trkpt>
|
|
<trkpt lat="55.119330" lon="8.679212">
|
|
<ele>-29.417309</ele>
|
|
<time>2026-07-10T13:09:01.000Z</time>
|
|
</trkpt>
|
|
<trkpt lat="55.119369" lon="8.679237">
|
|
<ele>-29.414890</ele>
|
|
<time>2026-07-10T13:09:02.000Z</time>
|
|
</trkpt>
|
|
<trkpt lat="55.119413" lon="8.679266">
|
|
<ele>-29.412152</ele>
|
|
<time>2026-07-10T13:09:03.000Z</time>
|
|
</trkpt>
|
|
<trkpt lat="55.119457" lon="8.679293">
|
|
<ele>-29.409437</ele>
|
|
<time>2026-07-10T13:09:04.000Z</time>
|
|
</trkpt>
|
|
<trkpt lat="55.119507" lon="8.679321">
|
|
<ele>-29.406379</ele>
|
|
<time>2026-07-10T13:09:05.000Z</time>
|
|
</trkpt>
|
|
<trkpt lat="55.119555" lon="8.679349">
|
|
<ele>-29.403433</ele>
|
|
<time>2026-07-10T13:09:06.000Z</time>
|
|
</trkpt>
|
|
<trkpt lat="55.119603" lon="8.679374">
|
|
<ele>-29.400516</ele>
|
|
<time>2026-07-10T13:09:07.000Z</time>
|
|
</trkpt>
|
|
<trkpt lat="55.119653" lon="8.679400">
|
|
<ele>-29.404566</ele>
|
|
<time>2026-07-10T13:09:08.000Z</time>
|
|
</trkpt>
|
|
<trkpt lat="55.119703" lon="8.679427">
|
|
<ele>-29.416600</ele>
|
|
<time>2026-07-10T13:09:09.000Z</time>
|
|
</trkpt>
|
|
<trkpt lat="55.119757" lon="8.679454">
|
|
<ele>-29.429515</ele>
|
|
<time>2026-07-10T13:09:10.000Z</time>
|
|
</trkpt>
|
|
<trkpt lat="55.119808" lon="8.679484">
|
|
<ele>-29.441889</ele>
|
|
<time>2026-07-10T13:09:11.000Z</time>
|
|
</trkpt>
|
|
<trkpt lat="55.119858" lon="8.679514">
|
|
<ele>-29.454045</ele>
|
|
<time>2026-07-10T13:09:12.000Z</time>
|
|
</trkpt>
|
|
<trkpt lat="55.119910" lon="8.679549">
|
|
<ele>-29.466858</ele>
|
|
<time>2026-07-10T13:09:13.000Z</time>
|
|
</trkpt>
|
|
<trkpt lat="55.119960" lon="8.679582">
|
|
<ele>-29.479148</ele>
|
|
<time>2026-07-10T13:09:14.000Z</time>
|
|
</trkpt>
|
|
<trkpt lat="55.120014" lon="8.679614">
|
|
<ele>-29.492259</ele>
|
|
<time>2026-07-10T13:09:15.000Z</time>
|
|
</trkpt>
|
|
<trkpt lat="55.120068" lon="8.679647">
|
|
<ele>-29.505413</ele>
|
|
<time>2026-07-10T13:09:16.000Z</time>
|
|
</trkpt>
|
|
<trkpt lat="55.120121" lon="8.679681">
|
|
<ele>-29.518395</ele>
|
|
<time>2026-07-10T13:09:17.000Z</time>
|
|
</trkpt>
|
|
<trkpt lat="55.120174" lon="8.679714">
|
|
<ele>-29.531333</ele>
|
|
<time>2026-07-10T13:09:18.000Z</time>
|
|
</trkpt>
|
|
<trkpt lat="55.120229" lon="8.679747">
|
|
<ele>-29.544704</ele>
|
|
<time>2026-07-10T13:09:19.000Z</time>
|
|
</trkpt>
|
|
<trkpt lat="55.120285" lon="8.679779">
|
|
<ele>-29.558252</ele>
|
|
<time>2026-07-10T13:09:20.000Z</time>
|
|
</trkpt>
|
|
<trkpt lat="55.120338" lon="8.679812">
|
|
<ele>-29.571190</ele>
|
|
<time>2026-07-10T13:09:21.000Z</time>
|
|
</trkpt>
|
|
<trkpt lat="55.120392" lon="8.679845">
|
|
<ele>-29.584344</ele>
|
|
<time>2026-07-10T13:09:22.000Z</time>
|
|
</trkpt>
|
|
<trkpt lat="55.120445" lon="8.679878">
|
|
<ele>-29.597281</ele>
|
|
<time>2026-07-10T13:09:23.000Z</time>
|
|
</trkpt>
|
|
<trkpt lat="55.120498" lon="8.679911">
|
|
<ele>-29.610219</ele>
|
|
<time>2026-07-10T13:09:24.000Z</time>
|
|
</trkpt>
|
|
<trkpt lat="55.120550" lon="8.679945">
|
|
<ele>-29.622985</ele>
|
|
<time>2026-07-10T13:09:25.000Z</time>
|
|
</trkpt>
|
|
<trkpt lat="55.120605" lon="8.679980">
|
|
<ele>-29.636444</ele>
|
|
<time>2026-07-10T13:09:26.000Z</time>
|
|
</trkpt>
|
|
<trkpt lat="55.120658" lon="8.680014">
|
|
<ele>-29.649426</ele>
|
|
<time>2026-07-10T13:09:27.000Z</time>
|
|
</trkpt>
|
|
<trkpt lat="55.120712" lon="8.680045">
|
|
<ele>-29.662496</ele>
|
|
<time>2026-07-10T13:09:28.000Z</time>
|
|
</trkpt>
|
|
<trkpt lat="55.120766" lon="8.680078">
|
|
<ele>-29.675650</ele>
|
|
<time>2026-07-10T13:09:29.000Z</time>
|
|
</trkpt>
|
|
<trkpt lat="55.120818" lon="8.680112">
|
|
<ele>-29.688417</ele>
|
|
<time>2026-07-10T13:09:30.000Z</time>
|
|
</trkpt>
|
|
<trkpt lat="55.120868" lon="8.680146">
|
|
<ele>-29.700753</ele>
|
|
<time>2026-07-10T13:09:31.000Z</time>
|
|
</trkpt>
|
|
<trkpt lat="55.120922" lon="8.680179">
|
|
<ele>-29.713908</ele>
|
|
<time>2026-07-10T13:09:32.000Z</time>
|
|
</trkpt>
|
|
<trkpt lat="55.120974" lon="8.680211">
|
|
<ele>-29.726584</ele>
|
|
<time>2026-07-10T13:09:33.000Z</time>
|
|
</trkpt>
|
|
<trkpt lat="55.121026" lon="8.680245">
|
|
<ele>-29.739351</ele>
|
|
<time>2026-07-10T13:09:34.000Z</time>
|
|
</trkpt>
|
|
<trkpt lat="55.121081" lon="8.680279">
|
|
<ele>-29.752765</ele>
|
|
<time>2026-07-10T13:09:35.000Z</time>
|
|
</trkpt>
|
|
<trkpt lat="55.121136" lon="8.680312">
|
|
<ele>-29.766137</ele>
|
|
<time>2026-07-10T13:09:36.000Z</time>
|
|
</trkpt>
|
|
<trkpt lat="55.121192" lon="8.680349">
|
|
<ele>-29.779903</ele>
|
|
<time>2026-07-10T13:09:37.000Z</time>
|
|
</trkpt>
|
|
<trkpt lat="55.121246" lon="8.680385">
|
|
<ele>-29.793193</ele>
|
|
<time>2026-07-10T13:09:38.000Z</time>
|
|
</trkpt>
|
|
<trkpt lat="55.121299" lon="8.680421">
|
|
<ele>-29.806268</ele>
|
|
<time>2026-07-10T13:09:39.000Z</time>
|
|
</trkpt>
|
|
<trkpt lat="55.121352" lon="8.680457">
|
|
<ele>-29.808731</ele>
|
|
<time>2026-07-10T13:09:40.000Z</time>
|
|
</trkpt>
|
|
<trkpt lat="55.121404" lon="8.680490">
|
|
<ele>-29.801653</ele>
|
|
<time>2026-07-10T13:09:41.000Z</time>
|
|
</trkpt>
|
|
<trkpt lat="55.121458" lon="8.680523">
|
|
<ele>-29.794333</ele>
|
|
<time>2026-07-10T13:09:42.000Z</time>
|
|
</trkpt>
|
|
<trkpt lat="55.121513" lon="8.680555">
|
|
<ele>-29.786916</ele>
|
|
<time>2026-07-10T13:09:43.000Z</time>
|
|
</trkpt>
|
|
<trkpt lat="55.121565" lon="8.680588">
|
|
<ele>-29.779837</ele>
|
|
<time>2026-07-10T13:09:44.000Z</time>
|
|
</trkpt>
|
|
<trkpt lat="55.121614" lon="8.680620">
|
|
<ele>-29.773144</ele>
|
|
<time>2026-07-10T13:09:45.000Z</time>
|
|
</trkpt>
|
|
<trkpt lat="55.121664" lon="8.680653">
|
|
<ele>-29.766305</ele>
|
|
<time>2026-07-10T13:09:46.000Z</time>
|
|
</trkpt>
|
|
<trkpt lat="55.121718" lon="8.680687">
|
|
<ele>-29.758961</ele>
|
|
<time>2026-07-10T13:09:47.000Z</time>
|
|
</trkpt>
|
|
<trkpt lat="55.121767" lon="8.680722">
|
|
<ele>-29.752188</ele>
|
|
<time>2026-07-10T13:09:48.000Z</time>
|
|
</trkpt>
|
|
<trkpt lat="55.121817" lon="8.680756">
|
|
<ele>-29.745323</ele>
|
|
<time>2026-07-10T13:09:49.000Z</time>
|
|
</trkpt>
|
|
<trkpt lat="55.121871" lon="8.680790">
|
|
<ele>-29.737979</ele>
|
|
<time>2026-07-10T13:09:50.000Z</time>
|
|
</trkpt>
|
|
<trkpt lat="55.121922" lon="8.680822">
|
|
<ele>-29.731045</ele>
|
|
<time>2026-07-10T13:09:51.000Z</time>
|
|
</trkpt>
|
|
<trkpt lat="55.121973" lon="8.680854">
|
|
<ele>-29.724112</ele>
|
|
<time>2026-07-10T13:09:52.000Z</time>
|
|
</trkpt>
|
|
<trkpt lat="55.122027" lon="8.680889">
|
|
<ele>-29.716742</ele>
|
|
<time>2026-07-10T13:09:53.000Z</time>
|
|
</trkpt>
|
|
<trkpt lat="55.122078" lon="8.680922">
|
|
<ele>-29.709784</ele>
|
|
<time>2026-07-10T13:09:54.000Z</time>
|
|
</trkpt>
|
|
<trkpt lat="55.122130" lon="8.680955">
|
|
<ele>-29.702705</ele>
|
|
<time>2026-07-10T13:09:55.000Z</time>
|
|
</trkpt>
|
|
<trkpt lat="55.122181" lon="8.680988">
|
|
<ele>-29.695747</ele>
|
|
<time>2026-07-10T13:09:56.000Z</time>
|
|
</trkpt>
|
|
<trkpt lat="55.122233" lon="8.681021">
|
|
<ele>-29.688668</ele>
|
|
<time>2026-07-10T13:09:57.000Z</time>
|
|
</trkpt>
|
|
<trkpt lat="55.122282" lon="8.681054">
|
|
<ele>-29.681949</ele>
|
|
<time>2026-07-10T13:09:58.000Z</time>
|
|
</trkpt>
|
|
<trkpt lat="55.122332" lon="8.681086">
|
|
<ele>-29.675136</ele>
|
|
<time>2026-07-10T13:09:59.000Z</time>
|
|
</trkpt>
|
|
<trkpt lat="55.122386" lon="8.681120">
|
|
<ele>-29.667791</ele>
|
|
<time>2026-07-10T13:10:00.000Z</time>
|
|
</trkpt>
|
|
<trkpt lat="55.122436" lon="8.681154">
|
|
<ele>-29.660927</ele>
|
|
<time>2026-07-10T13:10:01.000Z</time>
|
|
</trkpt>
|
|
<trkpt lat="55.122487" lon="8.681185">
|
|
<ele>-29.654017</ele>
|
|
<time>2026-07-10T13:10:02.000Z</time>
|
|
</trkpt>
|
|
<trkpt lat="55.122537" lon="8.681218">
|
|
<ele>-29.647179</ele>
|
|
<time>2026-07-10T13:10:03.000Z</time>
|
|
</trkpt>
|
|
<trkpt lat="55.122589" lon="8.681252">
|
|
<ele>-29.640075</ele>
|
|
<time>2026-07-10T13:10:04.000Z</time>
|
|
</trkpt>
|
|
<trkpt lat="55.122641" lon="8.681285">
|
|
<ele>-29.632996</ele>
|
|
<time>2026-07-10T13:10:05.000Z</time>
|
|
</trkpt>
|
|
<trkpt lat="55.122691" lon="8.681318">
|
|
<ele>-29.626157</ele>
|
|
<time>2026-07-10T13:10:06.000Z</time>
|
|
</trkpt>
|
|
<trkpt lat="55.122742" lon="8.681350">
|
|
<ele>-29.619224</ele>
|
|
<time>2026-07-10T13:10:07.000Z</time>
|
|
</trkpt>
|
|
<trkpt lat="55.122795" lon="8.681383">
|
|
<ele>-29.612025</ele>
|
|
<time>2026-07-10T13:10:08.000Z</time>
|
|
</trkpt>
|
|
<trkpt lat="55.122847" lon="8.681416">
|
|
<ele>-29.604946</ele>
|
|
<time>2026-07-10T13:10:09.000Z</time>
|
|
</trkpt>
|
|
<trkpt lat="55.122896" lon="8.681448">
|
|
<ele>-29.598253</ele>
|
|
<time>2026-07-10T13:10:10.000Z</time>
|
|
</trkpt>
|
|
<trkpt lat="55.122950" lon="8.681479">
|
|
<ele>-29.590980</ele>
|
|
<time>2026-07-10T13:10:11.000Z</time>
|
|
</trkpt>
|
|
<trkpt lat="55.123001" lon="8.681510">
|
|
<ele>-29.584071</ele>
|
|
<time>2026-07-10T13:10:12.000Z</time>
|
|
</trkpt>
|
|
<trkpt lat="55.123053" lon="8.681541">
|
|
<ele>-29.578042</ele>
|
|
<time>2026-07-10T13:10:13.000Z</time>
|
|
</trkpt>
|
|
<trkpt lat="55.123103" lon="8.681575">
|
|
<ele>-29.572468</ele>
|
|
<time>2026-07-10T13:10:14.000Z</time>
|
|
</trkpt>
|
|
<trkpt lat="55.123153" lon="8.681608">
|
|
<ele>-29.566916</ele>
|
|
<time>2026-07-10T13:10:15.000Z</time>
|
|
</trkpt>
|
|
<trkpt lat="55.123207" lon="8.681639">
|
|
<ele>-29.561011</ele>
|
|
<time>2026-07-10T13:10:16.000Z</time>
|
|
</trkpt>
|
|
<trkpt lat="55.123260" lon="8.681672">
|
|
<ele>-29.555165</ele>
|
|
<time>2026-07-10T13:10:17.000Z</time>
|
|
</trkpt>
|
|
<trkpt lat="55.123313" lon="8.681703">
|
|
<ele>-29.549359</ele>
|
|
<time>2026-07-10T13:10:18.000Z</time>
|
|
</trkpt>
|
|
<trkpt lat="55.123365" lon="8.681734">
|
|
<ele>-29.543651</ele>
|
|
<time>2026-07-10T13:10:19.000Z</time>
|
|
</trkpt>
|
|
<trkpt lat="55.123416" lon="8.681765">
|
|
<ele>-29.538041</ele>
|
|
<time>2026-07-10T13:10:20.000Z</time>
|
|
</trkpt>
|
|
<trkpt lat="55.123466" lon="8.681796">
|
|
<ele>-29.532529</ele>
|
|
<time>2026-07-10T13:10:21.000Z</time>
|
|
</trkpt>
|
|
<trkpt lat="55.123518" lon="8.681829">
|
|
<ele>-29.526782</ele>
|
|
<time>2026-07-10T13:10:22.000Z</time>
|
|
</trkpt>
|
|
<trkpt lat="55.123567" lon="8.681860">
|
|
<ele>-29.521368</ele>
|
|
<time>2026-07-10T13:10:23.000Z</time>
|
|
</trkpt>
|
|
<trkpt lat="55.123612" lon="8.681889">
|
|
<ele>-29.516385</ele>
|
|
<time>2026-07-10T13:10:24.000Z</time>
|
|
</trkpt>
|
|
<trkpt lat="55.123660" lon="8.681921">
|
|
<ele>-29.511048</ele>
|
|
<time>2026-07-10T13:10:25.000Z</time>
|
|
</trkpt>
|
|
<trkpt lat="55.123696" lon="8.681948">
|
|
<ele>-29.506978</ele>
|
|
<time>2026-07-10T13:10:26.000Z</time>
|
|
</trkpt>
|
|
<trkpt lat="55.123723" lon="8.681970">
|
|
<ele>-29.503883</ele>
|
|
<time>2026-07-10T13:10:27.000Z</time>
|
|
</trkpt>
|
|
<trkpt lat="55.123738" lon="8.681986">
|
|
<ele>-29.502058</ele>
|
|
<time>2026-07-10T13:10:28.000Z</time>
|
|
</trkpt>
|
|
<trkpt lat="55.123852" lon="8.682054">
|
|
<ele>-29.489543</ele>
|
|
<time>2026-07-10T13:10:49.000Z</time>
|
|
</trkpt>
|
|
<trkpt lat="55.123871" lon="8.682071">
|
|
<ele>-29.487326</ele>
|
|
<time>2026-07-10T13:10:50.000Z</time>
|
|
</trkpt>
|
|
<trkpt lat="55.123897" lon="8.682087">
|
|
<ele>-29.484462</ele>
|
|
<time>2026-07-10T13:10:51.000Z</time>
|
|
</trkpt>
|
|
<trkpt lat="55.123927" lon="8.682104">
|
|
<ele>-29.481185</ele>
|
|
<time>2026-07-10T13:10:52.000Z</time>
|
|
</trkpt>
|
|
<trkpt lat="55.123962" lon="8.682125">
|
|
<ele>-29.477341</ele>
|
|
<time>2026-07-10T13:10:53.000Z</time>
|
|
</trkpt>
|
|
<trkpt lat="55.123997" lon="8.682148">
|
|
<ele>-29.473456</ele>
|
|
<time>2026-07-10T13:10:54.000Z</time>
|
|
</trkpt>
|
|
<trkpt lat="55.124025" lon="8.682166">
|
|
<ele>-29.470357</ele>
|
|
<time>2026-07-10T13:10:55.000Z</time>
|
|
</trkpt>
|
|
<trkpt lat="55.124070" lon="8.682196">
|
|
<ele>-29.465353</ele>
|
|
<time>2026-07-10T13:10:56.000Z</time>
|
|
</trkpt>
|
|
<trkpt lat="55.124109" lon="8.682223">
|
|
<ele>-29.460995</ele>
|
|
<time>2026-07-10T13:10:57.000Z</time>
|
|
</trkpt>
|
|
<trkpt lat="55.124149" lon="8.682250">
|
|
<ele>-29.456540</ele>
|
|
<time>2026-07-10T13:10:58.000Z</time>
|
|
</trkpt>
|
|
<trkpt lat="55.124191" lon="8.682276">
|
|
<ele>-29.451911</ele>
|
|
<time>2026-07-10T13:10:59.000Z</time>
|
|
</trkpt>
|
|
<trkpt lat="55.124237" lon="8.682304">
|
|
<ele>-29.446851</ele>
|
|
<time>2026-07-10T13:11:00.000Z</time>
|
|
</trkpt>
|
|
<trkpt lat="55.124279" lon="8.682330">
|
|
<ele>-29.442222</ele>
|
|
<time>2026-07-10T13:11:01.000Z</time>
|
|
</trkpt>
|
|
<trkpt lat="55.124325" lon="8.682357">
|
|
<ele>-29.437180</ele>
|
|
<time>2026-07-10T13:11:02.000Z</time>
|
|
</trkpt>
|
|
<trkpt lat="55.124371" lon="8.682387">
|
|
<ele>-29.432079</ele>
|
|
<time>2026-07-10T13:11:03.000Z</time>
|
|
</trkpt>
|
|
<trkpt lat="55.124416" lon="8.682416">
|
|
<ele>-29.427097</ele>
|
|
<time>2026-07-10T13:11:04.000Z</time>
|
|
</trkpt>
|
|
<trkpt lat="55.124460" lon="8.682445">
|
|
<ele>-29.422211</ele>
|
|
<time>2026-07-10T13:11:05.000Z</time>
|
|
</trkpt>
|
|
<trkpt lat="55.124505" lon="8.682475">
|
|
<ele>-29.417207</ele>
|
|
<time>2026-07-10T13:11:06.000Z</time>
|
|
</trkpt>
|
|
<trkpt lat="55.124551" lon="8.682506">
|
|
<ele>-29.412086</ele>
|
|
<time>2026-07-10T13:11:07.000Z</time>
|
|
</trkpt>
|
|
<trkpt lat="55.124597" lon="8.682537">
|
|
<ele>-29.406964</ele>
|
|
<time>2026-07-10T13:11:08.000Z</time>
|
|
</trkpt>
|
|
<trkpt lat="55.124643" lon="8.682568">
|
|
<ele>-29.401842</ele>
|
|
<time>2026-07-10T13:11:09.000Z</time>
|
|
</trkpt>
|
|
<trkpt lat="55.124692" lon="8.682597">
|
|
<ele>-29.396467</ele>
|
|
<time>2026-07-10T13:11:10.000Z</time>
|
|
</trkpt>
|
|
<trkpt lat="55.124738" lon="8.682627">
|
|
<ele>-29.395409</ele>
|
|
<time>2026-07-10T13:11:11.000Z</time>
|
|
</trkpt>
|
|
<trkpt lat="55.124785" lon="8.682657">
|
|
<ele>-29.395311</ele>
|
|
<time>2026-07-10T13:11:12.000Z</time>
|
|
</trkpt>
|
|
<trkpt lat="55.124833" lon="8.682685">
|
|
<ele>-29.395211</ele>
|
|
<time>2026-07-10T13:11:13.000Z</time>
|
|
</trkpt>
|
|
<trkpt lat="55.124878" lon="8.682713">
|
|
<ele>-29.395117</ele>
|
|
<time>2026-07-10T13:11:14.000Z</time>
|
|
</trkpt>
|
|
<trkpt lat="55.124926" lon="8.682743">
|
|
<ele>-29.395017</ele>
|
|
<time>2026-07-10T13:11:15.000Z</time>
|
|
</trkpt>
|
|
<trkpt lat="55.124974" lon="8.682773">
|
|
<ele>-29.394917</ele>
|
|
<time>2026-07-10T13:11:16.000Z</time>
|
|
</trkpt>
|
|
<trkpt lat="55.125019" lon="8.682802">
|
|
<ele>-29.394822</ele>
|
|
<time>2026-07-10T13:11:17.000Z</time>
|
|
</trkpt>
|
|
<trkpt lat="55.125067" lon="8.682833">
|
|
<ele>-29.394722</ele>
|
|
<time>2026-07-10T13:11:18.000Z</time>
|
|
</trkpt>
|
|
<trkpt lat="55.125117" lon="8.682862">
|
|
<ele>-29.394618</ele>
|
|
<time>2026-07-10T13:11:19.000Z</time>
|
|
</trkpt>
|
|
<trkpt lat="55.125166" lon="8.682891">
|
|
<ele>-29.394516</ele>
|
|
<time>2026-07-10T13:11:20.000Z</time>
|
|
</trkpt>
|
|
<trkpt lat="55.125215" lon="8.682920">
|
|
<ele>-29.394414</ele>
|
|
<time>2026-07-10T13:11:21.000Z</time>
|
|
</trkpt>
|
|
<trkpt lat="55.125263" lon="8.682952">
|
|
<ele>-29.394313</ele>
|
|
<time>2026-07-10T13:11:22.000Z</time>
|
|
</trkpt>
|
|
<trkpt lat="55.125308" lon="8.682984">
|
|
<ele>-29.394218</ele>
|
|
<time>2026-07-10T13:11:23.000Z</time>
|
|
</trkpt>
|
|
<trkpt lat="55.125356" lon="8.683014">
|
|
<ele>-29.394117</ele>
|
|
<time>2026-07-10T13:11:24.000Z</time>
|
|
</trkpt>
|
|
<trkpt lat="55.125406" lon="8.683043">
|
|
<ele>-29.394014</ele>
|
|
<time>2026-07-10T13:11:25.000Z</time>
|
|
</trkpt>
|
|
<trkpt lat="55.125454" lon="8.683073">
|
|
<ele>-29.393913</ele>
|
|
<time>2026-07-10T13:11:26.000Z</time>
|
|
</trkpt>
|
|
<trkpt lat="55.125500" lon="8.683103">
|
|
<ele>-29.393817</ele>
|
|
<time>2026-07-10T13:11:27.000Z</time>
|
|
</trkpt>
|
|
<trkpt lat="55.125547" lon="8.683132">
|
|
<ele>-29.393719</ele>
|
|
<time>2026-07-10T13:11:28.000Z</time>
|
|
</trkpt>
|
|
<trkpt lat="55.125591" lon="8.683158">
|
|
<ele>-29.393627</ele>
|
|
<time>2026-07-10T13:11:29.000Z</time>
|
|
</trkpt>
|
|
<trkpt lat="55.125633" lon="8.683185">
|
|
<ele>-29.393539</ele>
|
|
<time>2026-07-10T13:11:30.000Z</time>
|
|
</trkpt>
|
|
<trkpt lat="55.125676" lon="8.683213">
|
|
<ele>-29.393449</ele>
|
|
<time>2026-07-10T13:11:31.000Z</time>
|
|
</trkpt>
|
|
<trkpt lat="55.125721" lon="8.683242">
|
|
<ele>-29.393355</ele>
|
|
<time>2026-07-10T13:11:32.000Z</time>
|
|
</trkpt>
|
|
<trkpt lat="55.125762" lon="8.683272">
|
|
<ele>-29.393267</ele>
|
|
<time>2026-07-10T13:11:33.000Z</time>
|
|
</trkpt>
|
|
<trkpt lat="55.125810" lon="8.683302">
|
|
<ele>-29.393167</ele>
|
|
<time>2026-07-10T13:11:34.000Z</time>
|
|
</trkpt>
|
|
<trkpt lat="55.125857" lon="8.683331">
|
|
<ele>-29.393069</ele>
|
|
<time>2026-07-10T13:11:35.000Z</time>
|
|
</trkpt>
|
|
<trkpt lat="55.125902" lon="8.683364">
|
|
<ele>-29.392973</ele>
|
|
<time>2026-07-10T13:11:36.000Z</time>
|
|
</trkpt>
|
|
<trkpt lat="55.125951" lon="8.683395">
|
|
<ele>-29.392870</ele>
|
|
<time>2026-07-10T13:11:37.000Z</time>
|
|
</trkpt>
|
|
<trkpt lat="55.125997" lon="8.683425">
|
|
<ele>-29.392774</ele>
|
|
<time>2026-07-10T13:11:38.000Z</time>
|
|
</trkpt>
|
|
<trkpt lat="55.126043" lon="8.683458">
|
|
<ele>-29.392676</ele>
|
|
<time>2026-07-10T13:11:39.000Z</time>
|
|
</trkpt>
|
|
<trkpt lat="55.126093" lon="8.683490">
|
|
<ele>-29.392571</ele>
|
|
<time>2026-07-10T13:11:40.000Z</time>
|
|
</trkpt>
|
|
<trkpt lat="55.126143" lon="8.683522">
|
|
<ele>-29.392466</ele>
|
|
<time>2026-07-10T13:11:41.000Z</time>
|
|
</trkpt>
|
|
<trkpt lat="55.126191" lon="8.683552">
|
|
<ele>-29.392366</ele>
|
|
<time>2026-07-10T13:11:42.000Z</time>
|
|
</trkpt>
|
|
<trkpt lat="55.126241" lon="8.683583">
|
|
<ele>-29.392262</ele>
|
|
<time>2026-07-10T13:11:43.000Z</time>
|
|
</trkpt>
|
|
<trkpt lat="55.126291" lon="8.683616">
|
|
<ele>-29.392157</ele>
|
|
<time>2026-07-10T13:11:44.000Z</time>
|
|
</trkpt>
|
|
<trkpt lat="55.126341" lon="8.683647">
|
|
<ele>-29.392052</ele>
|
|
<time>2026-07-10T13:11:45.000Z</time>
|
|
</trkpt>
|
|
<trkpt lat="55.126390" lon="8.683679">
|
|
<ele>-29.391949</ele>
|
|
<time>2026-07-10T13:11:46.000Z</time>
|
|
</trkpt>
|
|
<trkpt lat="55.126439" lon="8.683712">
|
|
<ele>-29.397361</ele>
|
|
<time>2026-07-10T13:11:47.000Z</time>
|
|
</trkpt>
|
|
<trkpt lat="55.126488" lon="8.683744">
|
|
<ele>-29.402812</ele>
|
|
<time>2026-07-10T13:11:48.000Z</time>
|
|
</trkpt>
|
|
<trkpt lat="55.126540" lon="8.683779">
|
|
<ele>-29.408619</ele>
|
|
<time>2026-07-10T13:11:49.000Z</time>
|
|
</trkpt>
|
|
<trkpt lat="55.126593" lon="8.683814">
|
|
<ele>-29.414523</ele>
|
|
<time>2026-07-10T13:11:50.000Z</time>
|
|
</trkpt>
|
|
<trkpt lat="55.126646" lon="8.683851">
|
|
<ele>-29.420470</ele>
|
|
<time>2026-07-10T13:11:51.000Z</time>
|
|
</trkpt>
|
|
<trkpt lat="55.126696" lon="8.683883">
|
|
<ele>-29.426019</ele>
|
|
<time>2026-07-10T13:11:52.000Z</time>
|
|
</trkpt>
|
|
<trkpt lat="55.126749" lon="8.683916">
|
|
<ele>-29.431882</ele>
|
|
<time>2026-07-10T13:11:53.000Z</time>
|
|
</trkpt>
|
|
<trkpt lat="55.126799" lon="8.683950">
|
|
<ele>-29.437472</ele>
|
|
<time>2026-07-10T13:11:54.000Z</time>
|
|
</trkpt>
|
|
<trkpt lat="55.126850" lon="8.683982">
|
|
<ele>-29.443119</ele>
|
|
<time>2026-07-10T13:11:55.000Z</time>
|
|
</trkpt>
|
|
<trkpt lat="55.126906" lon="8.684015">
|
|
<ele>-29.449277</ele>
|
|
<time>2026-07-10T13:11:56.000Z</time>
|
|
</trkpt>
|
|
<trkpt lat="55.126959" lon="8.684045">
|
|
<ele>-29.455083</ele>
|
|
<time>2026-07-10T13:11:57.000Z</time>
|
|
</trkpt>
|
|
<trkpt lat="55.127013" lon="8.684079">
|
|
<ele>-29.461064</ele>
|
|
<time>2026-07-10T13:11:58.000Z</time>
|
|
</trkpt>
|
|
<trkpt lat="55.127067" lon="8.684114">
|
|
<ele>-29.467066</ele>
|
|
<time>2026-07-10T13:11:59.000Z</time>
|
|
</trkpt>
|
|
<trkpt lat="55.127119" lon="8.684149">
|
|
<ele>-29.472872</ele>
|
|
<time>2026-07-10T13:12:00.000Z</time>
|
|
</trkpt>
|
|
<trkpt lat="55.127169" lon="8.684184">
|
|
<ele>-29.478485</ele>
|
|
<time>2026-07-10T13:12:01.000Z</time>
|
|
</trkpt>
|
|
<trkpt lat="55.127223" lon="8.684219">
|
|
<ele>-29.484487</ele>
|
|
<time>2026-07-10T13:12:02.000Z</time>
|
|
</trkpt>
|
|
<trkpt lat="55.127277" lon="8.684254">
|
|
<ele>-29.490488</ele>
|
|
<time>2026-07-10T13:12:03.000Z</time>
|
|
</trkpt>
|
|
<trkpt lat="55.127329" lon="8.684285">
|
|
<ele>-29.496213</ele>
|
|
<time>2026-07-10T13:12:04.000Z</time>
|
|
</trkpt>
|
|
<trkpt lat="55.127379" lon="8.684316">
|
|
<ele>-29.501742</ele>
|
|
<time>2026-07-10T13:12:05.000Z</time>
|
|
</trkpt>
|
|
<trkpt lat="55.127431" lon="8.684349">
|
|
<ele>-29.507507</ele>
|
|
<time>2026-07-10T13:12:06.000Z</time>
|
|
</trkpt>
|
|
<trkpt lat="55.127483" lon="8.684385">
|
|
<ele>-29.513335</ele>
|
|
<time>2026-07-10T13:12:07.000Z</time>
|
|
</trkpt>
|
|
<trkpt lat="55.127537" lon="8.684422">
|
|
<ele>-29.519379</ele>
|
|
<time>2026-07-10T13:12:08.000Z</time>
|
|
</trkpt>
|
|
<trkpt lat="55.127589" lon="8.684454">
|
|
<ele>-29.525124</ele>
|
|
<time>2026-07-10T13:12:09.000Z</time>
|
|
</trkpt>
|
|
<trkpt lat="55.127641" lon="8.684485">
|
|
<ele>-29.530849</ele>
|
|
<time>2026-07-10T13:12:10.000Z</time>
|
|
</trkpt>
|
|
<trkpt lat="55.127693" lon="8.684518">
|
|
<ele>-29.536614</ele>
|
|
<time>2026-07-10T13:12:11.000Z</time>
|
|
</trkpt>
|
|
<trkpt lat="55.127744" lon="8.684550">
|
|
<ele>-29.542261</ele>
|
|
<time>2026-07-10T13:12:12.000Z</time>
|
|
</trkpt>
|
|
<trkpt lat="55.127794" lon="8.684583">
|
|
<ele>-29.547830</ele>
|
|
<time>2026-07-10T13:12:13.000Z</time>
|
|
</trkpt>
|
|
<trkpt lat="55.127847" lon="8.684615">
|
|
<ele>-29.553673</ele>
|
|
<time>2026-07-10T13:12:14.000Z</time>
|
|
</trkpt>
|
|
<trkpt lat="55.127896" lon="8.684650">
|
|
<ele>-29.559189</ele>
|
|
<time>2026-07-10T13:12:15.000Z</time>
|
|
</trkpt>
|
|
<trkpt lat="55.127947" lon="8.684684">
|
|
<ele>-29.564877</ele>
|
|
<time>2026-07-10T13:12:16.000Z</time>
|
|
</trkpt>
|
|
<trkpt lat="55.127998" lon="8.684718">
|
|
<ele>-29.570565</ele>
|
|
<time>2026-07-10T13:12:17.000Z</time>
|
|
</trkpt>
|
|
<trkpt lat="55.128051" lon="8.684751">
|
|
<ele>-29.576428</ele>
|
|
<time>2026-07-10T13:12:18.000Z</time>
|
|
</trkpt>
|
|
<trkpt lat="55.128103" lon="8.684785">
|
|
<ele>-29.562582</ele>
|
|
<time>2026-07-10T13:12:19.000Z</time>
|
|
</trkpt>
|
|
<trkpt lat="55.128153" lon="8.684819">
|
|
<ele>-29.529252</ele>
|
|
<time>2026-07-10T13:12:20.000Z</time>
|
|
</trkpt>
|
|
<trkpt lat="55.128203" lon="8.684852">
|
|
<ele>-29.496050</ele>
|
|
<time>2026-07-10T13:12:21.000Z</time>
|
|
</trkpt>
|
|
<trkpt lat="55.128253" lon="8.684885">
|
|
<ele>-29.462848</ele>
|
|
<time>2026-07-10T13:12:22.000Z</time>
|
|
</trkpt>
|
|
<trkpt lat="55.128305" lon="8.684918">
|
|
<ele>-29.428480</ele>
|
|
<time>2026-07-10T13:12:23.000Z</time>
|
|
</trkpt>
|
|
<trkpt lat="55.128356" lon="8.684948">
|
|
<ele>-29.395050</ele>
|
|
<time>2026-07-10T13:12:24.000Z</time>
|
|
</trkpt>
|
|
<trkpt lat="55.128408" lon="8.684978">
|
|
<ele>-29.361031</ele>
|
|
<time>2026-07-10T13:12:25.000Z</time>
|
|
</trkpt>
|
|
<trkpt lat="55.128458" lon="8.685010">
|
|
<ele>-29.327953</ele>
|
|
<time>2026-07-10T13:12:26.000Z</time>
|
|
</trkpt>
|
|
<trkpt lat="55.128510" lon="8.685043">
|
|
<ele>-29.293585</ele>
|
|
<time>2026-07-10T13:12:27.000Z</time>
|
|
</trkpt>
|
|
<trkpt lat="55.128556" lon="8.685075">
|
|
<ele>-29.262828</ele>
|
|
<time>2026-07-10T13:12:28.000Z</time>
|
|
</trkpt>
|
|
<trkpt lat="55.128613" lon="8.685112">
|
|
<ele>-29.225055</ele>
|
|
<time>2026-07-10T13:12:29.000Z</time>
|
|
</trkpt>
|
|
<trkpt lat="55.128661" lon="8.685144">
|
|
<ele>-29.193140</ele>
|
|
<time>2026-07-10T13:12:30.000Z</time>
|
|
</trkpt>
|
|
<trkpt lat="55.128713" lon="8.685179">
|
|
<ele>-29.158524</ele>
|
|
<time>2026-07-10T13:12:31.000Z</time>
|
|
</trkpt>
|
|
<trkpt lat="55.128764" lon="8.685212">
|
|
<ele>-29.124739</ele>
|
|
<time>2026-07-10T13:12:32.000Z</time>
|
|
</trkpt>
|
|
<trkpt lat="55.128816" lon="8.685246">
|
|
<ele>-29.090249</ele>
|
|
<time>2026-07-10T13:12:33.000Z</time>
|
|
</trkpt>
|
|
<trkpt lat="55.128866" lon="8.685278">
|
|
<ele>-29.057170</ele>
|
|
<time>2026-07-10T13:12:34.000Z</time>
|
|
</trkpt>
|
|
<trkpt lat="55.128919" lon="8.685309">
|
|
<ele>-29.022450</ele>
|
|
<time>2026-07-10T13:12:35.000Z</time>
|
|
</trkpt>
|
|
<trkpt lat="55.128974" lon="8.685341">
|
|
<ele>-28.986438</ele>
|
|
<time>2026-07-10T13:12:36.000Z</time>
|
|
</trkpt>
|
|
<trkpt lat="55.129026" lon="8.685368">
|
|
<ele>-28.952738</ele>
|
|
<time>2026-07-10T13:12:37.000Z</time>
|
|
</trkpt>
|
|
<trkpt lat="55.129077" lon="8.685394">
|
|
<ele>-28.919733</ele>
|
|
<time>2026-07-10T13:12:38.000Z</time>
|
|
</trkpt>
|
|
<trkpt lat="55.129119" lon="8.685415">
|
|
<ele>-28.892594</ele>
|
|
<time>2026-07-10T13:12:39.000Z</time>
|
|
</trkpt>
|
|
<trkpt lat="55.129184" lon="8.685444">
|
|
<ele>-28.850918</ele>
|
|
<time>2026-07-10T13:12:40.000Z</time>
|
|
</trkpt>
|
|
<trkpt lat="55.129238" lon="8.685467">
|
|
<ele>-28.816388</ele>
|
|
<time>2026-07-10T13:12:41.000Z</time>
|
|
</trkpt>
|
|
<trkpt lat="55.129287" lon="8.685489">
|
|
<ele>-28.784958</ele>
|
|
<time>2026-07-10T13:12:42.000Z</time>
|
|
</trkpt>
|
|
<trkpt lat="55.129335" lon="8.685510">
|
|
<ele>-28.754217</ele>
|
|
<time>2026-07-10T13:12:43.000Z</time>
|
|
</trkpt>
|
|
<trkpt lat="55.129383" lon="8.685526">
|
|
<ele>-28.723859</ele>
|
|
<time>2026-07-10T13:12:44.000Z</time>
|
|
</trkpt>
|
|
<trkpt lat="55.129426" lon="8.685539">
|
|
<ele>-28.696747</ele>
|
|
<time>2026-07-10T13:12:45.000Z</time>
|
|
</trkpt>
|
|
<trkpt lat="55.129471" lon="8.685548">
|
|
<ele>-28.668607</ele>
|
|
<time>2026-07-10T13:12:46.000Z</time>
|
|
</trkpt>
|
|
<trkpt lat="55.129511" lon="8.685551">
|
|
<ele>-28.643733</ele>
|
|
<time>2026-07-10T13:12:47.000Z</time>
|
|
</trkpt>
|
|
<trkpt lat="55.129545" lon="8.685554">
|
|
<ele>-28.622582</ele>
|
|
<time>2026-07-10T13:12:48.000Z</time>
|
|
</trkpt>
|
|
<trkpt lat="55.129577" lon="8.685557">
|
|
<ele>-28.602673</ele>
|
|
<time>2026-07-10T13:12:49.000Z</time>
|
|
</trkpt>
|
|
<trkpt lat="55.129601" lon="8.685558">
|
|
<ele>-28.587757</ele>
|
|
<time>2026-07-10T13:12:50.000Z</time>
|
|
</trkpt>
|
|
<trkpt lat="55.129618" lon="8.685559">
|
|
<ele>-28.577190</ele>
|
|
<time>2026-07-10T13:12:51.000Z</time>
|
|
</trkpt>
|
|
<trkpt lat="55.129774" lon="8.685619">
|
|
<ele>-28.477953</ele>
|
|
<time>2026-07-10T13:13:20.000Z</time>
|
|
</trkpt>
|
|
<trkpt lat="55.129798" lon="8.685629">
|
|
<ele>-28.462625</ele>
|
|
<time>2026-07-10T13:13:21.000Z</time>
|
|
</trkpt>
|
|
<trkpt lat="55.129808" lon="8.685636">
|
|
<ele>-28.459062</ele>
|
|
<time>2026-07-10T13:13:22.000Z</time>
|
|
</trkpt>
|
|
<trkpt lat="55.129813" lon="8.685641">
|
|
<ele>-28.457353</ele>
|
|
<time>2026-07-10T13:13:23.000Z</time>
|
|
</trkpt>
|
|
<trkpt lat="55.129822" lon="8.685643">
|
|
<ele>-28.454662</ele>
|
|
<time>2026-07-10T13:13:24.000Z</time>
|
|
</trkpt>
|
|
<trkpt lat="55.129830" lon="8.685651">
|
|
<ele>-28.451928</ele>
|
|
<time>2026-07-10T13:13:26.000Z</time>
|
|
</trkpt>
|
|
<trkpt lat="55.129855" lon="8.685676">
|
|
<ele>-28.443384</ele>
|
|
<time>2026-07-10T13:13:27.000Z</time>
|
|
</trkpt>
|
|
<trkpt lat="55.129866" lon="8.685683">
|
|
<ele>-28.439911</ele>
|
|
<time>2026-07-10T13:13:28.000Z</time>
|
|
</trkpt>
|
|
<trkpt lat="55.129878" lon="8.685687">
|
|
<ele>-28.436287</ele>
|
|
<time>2026-07-10T13:13:29.000Z</time>
|
|
</trkpt>
|
|
<trkpt lat="55.129888" lon="8.685688">
|
|
<ele>-28.433315</ele>
|
|
<time>2026-07-10T13:13:30.000Z</time>
|
|
</trkpt>
|
|
<trkpt lat="55.129896" lon="8.685690">
|
|
<ele>-28.430918</ele>
|
|
<time>2026-07-10T13:13:31.000Z</time>
|
|
</trkpt>
|
|
<trkpt lat="55.129904" lon="8.685692">
|
|
<ele>-28.428520</ele>
|
|
<time>2026-07-10T13:13:32.000Z</time>
|
|
</trkpt>
|
|
<trkpt lat="55.129910" lon="8.685694">
|
|
<ele>-28.426708</ele>
|
|
<time>2026-07-10T13:13:33.000Z</time>
|
|
</trkpt>
|
|
<trkpt lat="55.129925" lon="8.685693">
|
|
<ele>-28.422254</ele>
|
|
<time>2026-07-10T13:13:53.000Z</time>
|
|
</trkpt>
|
|
<trkpt lat="55.129980" lon="8.685690">
|
|
<ele>-28.405929</ele>
|
|
<time>2026-07-10T13:13:54.000Z</time>
|
|
</trkpt>
|
|
<trkpt lat="55.129994" lon="8.685692">
|
|
<ele>-28.401762</ele>
|
|
<time>2026-07-10T13:13:55.000Z</time>
|
|
</trkpt>
|
|
<trkpt lat="55.130008" lon="8.685692">
|
|
<ele>-28.397608</ele>
|
|
<time>2026-07-10T13:13:56.000Z</time>
|
|
</trkpt>
|
|
<trkpt lat="55.130019" lon="8.685695">
|
|
<ele>-28.394305</ele>
|
|
<time>2026-07-10T13:13:57.000Z</time>
|
|
</trkpt>
|
|
<trkpt lat="55.130029" lon="8.685697">
|
|
<ele>-28.391319</ele>
|
|
<time>2026-07-10T13:13:58.000Z</time>
|
|
</trkpt>
|
|
<trkpt lat="55.130037" lon="8.685699">
|
|
<ele>-28.388922</ele>
|
|
<time>2026-07-10T13:13:59.000Z</time>
|
|
</trkpt>
|
|
<trkpt lat="55.130049" lon="8.685700">
|
|
<ele>-28.385357</ele>
|
|
<time>2026-07-10T13:14:00.000Z</time>
|
|
</trkpt>
|
|
<trkpt lat="55.130062" lon="8.685704">
|
|
<ele>-28.381441</ele>
|
|
<time>2026-07-10T13:14:01.000Z</time>
|
|
</trkpt>
|
|
<trkpt lat="55.130076" lon="8.685707">
|
|
<ele>-28.377257</ele>
|
|
<time>2026-07-10T13:14:02.000Z</time>
|
|
</trkpt>
|
|
<trkpt lat="55.130088" lon="8.685707">
|
|
<ele>-28.373696</ele>
|
|
<time>2026-07-10T13:14:03.000Z</time>
|
|
</trkpt>
|
|
<trkpt lat="55.130099" lon="8.685708">
|
|
<ele>-28.370429</ele>
|
|
<time>2026-07-10T13:14:04.000Z</time>
|
|
</trkpt>
|
|
<trkpt lat="55.130111" lon="8.685709">
|
|
<ele>-28.366864</ele>
|
|
<time>2026-07-10T13:14:05.000Z</time>
|
|
</trkpt>
|
|
<trkpt lat="55.130122" lon="8.685714">
|
|
<ele>-28.363492</ele>
|
|
<time>2026-07-10T13:14:06.000Z</time>
|
|
</trkpt>
|
|
<trkpt lat="55.130133" lon="8.685720">
|
|
<ele>-28.360074</ele>
|
|
<time>2026-07-10T13:14:07.000Z</time>
|
|
</trkpt>
|
|
<trkpt lat="55.130141" lon="8.685726">
|
|
<ele>-28.357491</ele>
|
|
<time>2026-07-10T13:14:08.000Z</time>
|
|
</trkpt>
|
|
<trkpt lat="55.130153" lon="8.685731">
|
|
<ele>-28.353832</ele>
|
|
<time>2026-07-10T13:14:09.000Z</time>
|
|
</trkpt>
|
|
<trkpt lat="55.130165" lon="8.685736">
|
|
<ele>-28.350172</ele>
|
|
<time>2026-07-10T13:14:10.000Z</time>
|
|
</trkpt>
|
|
<trkpt lat="55.130180" lon="8.685739">
|
|
<ele>-28.345693</ele>
|
|
<time>2026-07-10T13:14:11.000Z</time>
|
|
</trkpt>
|
|
<trkpt lat="55.130191" lon="8.685741">
|
|
<ele>-28.342412</ele>
|
|
<time>2026-07-10T13:14:12.000Z</time>
|
|
</trkpt>
|
|
<trkpt lat="55.130202" lon="8.685742">
|
|
<ele>-28.339144</ele>
|
|
<time>2026-07-10T13:14:13.000Z</time>
|
|
</trkpt>
|
|
<trkpt lat="55.130213" lon="8.685744">
|
|
<ele>-28.335863</ele>
|
|
<time>2026-07-10T13:14:14.000Z</time>
|
|
</trkpt>
|
|
<trkpt lat="55.130221" lon="8.685747">
|
|
<ele>-28.333435</ele>
|
|
<time>2026-07-10T13:14:15.000Z</time>
|
|
</trkpt>
|
|
<trkpt lat="55.130233" lon="8.685750">
|
|
<ele>-28.329839</ele>
|
|
<time>2026-07-10T13:14:16.000Z</time>
|
|
</trkpt>
|
|
<trkpt lat="55.130244" lon="8.685751">
|
|
<ele>-28.326571</ele>
|
|
<time>2026-07-10T13:14:17.000Z</time>
|
|
</trkpt>
|
|
<trkpt lat="55.130257" lon="8.685753">
|
|
<ele>-28.322699</ele>
|
|
<time>2026-07-10T13:14:18.000Z</time>
|
|
</trkpt>
|
|
<trkpt lat="55.130270" lon="8.685756">
|
|
<ele>-28.318809</ele>
|
|
<time>2026-07-10T13:14:19.000Z</time>
|
|
</trkpt>
|
|
<trkpt lat="55.130279" lon="8.685761">
|
|
<ele>-28.316007</ele>
|
|
<time>2026-07-10T13:14:20.000Z</time>
|
|
</trkpt>
|
|
<trkpt lat="55.130289" lon="8.685767">
|
|
<ele>-28.312871</ele>
|
|
<time>2026-07-10T13:14:21.000Z</time>
|
|
</trkpt>
|
|
<trkpt lat="55.130297" lon="8.685771">
|
|
<ele>-28.310402</ele>
|
|
<time>2026-07-10T13:14:22.000Z</time>
|
|
</trkpt>
|
|
<trkpt lat="55.130309" lon="8.685776">
|
|
<ele>-28.306743</ele>
|
|
<time>2026-07-10T13:14:23.000Z</time>
|
|
</trkpt>
|
|
<trkpt lat="55.130319" lon="8.685780">
|
|
<ele>-28.303699</ele>
|
|
<time>2026-07-10T13:14:24.000Z</time>
|
|
</trkpt>
|
|
<trkpt lat="55.130332" lon="8.685782">
|
|
<ele>-28.299827</ele>
|
|
<time>2026-07-10T13:14:25.000Z</time>
|
|
</trkpt>
|
|
<trkpt lat="55.130343" lon="8.685783">
|
|
<ele>-28.296559</ele>
|
|
<time>2026-07-10T13:14:26.000Z</time>
|
|
</trkpt>
|
|
<trkpt lat="55.130351" lon="8.685784">
|
|
<ele>-28.294180</ele>
|
|
<time>2026-07-10T13:14:27.000Z</time>
|
|
</trkpt>
|
|
<trkpt lat="55.130362" lon="8.685786">
|
|
<ele>-28.290899</ele>
|
|
<time>2026-07-10T13:14:28.000Z</time>
|
|
</trkpt>
|
|
<trkpt lat="55.130370" lon="8.685786">
|
|
<ele>-28.288525</ele>
|
|
<time>2026-07-10T13:14:29.000Z</time>
|
|
</trkpt>
|
|
<trkpt lat="55.130381" lon="8.685787">
|
|
<ele>-28.285258</ele>
|
|
<time>2026-07-10T13:14:30.000Z</time>
|
|
</trkpt>
|
|
<trkpt lat="55.130389" lon="8.685789">
|
|
<ele>-28.282860</ele>
|
|
<time>2026-07-10T13:14:31.000Z</time>
|
|
</trkpt>
|
|
<trkpt lat="55.130402" lon="8.685790">
|
|
<ele>-28.278999</ele>
|
|
<time>2026-07-10T13:14:32.000Z</time>
|
|
</trkpt>
|
|
<trkpt lat="55.130415" lon="8.685791">
|
|
<ele>-28.275139</ele>
|
|
<time>2026-07-10T13:14:33.000Z</time>
|
|
</trkpt>
|
|
<trkpt lat="55.130424" lon="8.685793">
|
|
<ele>-28.272447</ele>
|
|
<time>2026-07-10T13:14:34.000Z</time>
|
|
</trkpt>
|
|
<trkpt lat="55.130435" lon="8.685796">
|
|
<ele>-28.269144</ele>
|
|
<time>2026-07-10T13:14:35.000Z</time>
|
|
</trkpt>
|
|
<trkpt lat="55.130446" lon="8.685801">
|
|
<ele>-28.265772</ele>
|
|
<time>2026-07-10T13:14:36.000Z</time>
|
|
</trkpt>
|
|
<trkpt lat="55.130456" lon="8.685805">
|
|
<ele>-28.262729</ele>
|
|
<time>2026-07-10T13:14:37.000Z</time>
|
|
</trkpt>
|
|
<trkpt lat="55.130465" lon="8.685807">
|
|
<ele>-28.260037</ele>
|
|
<time>2026-07-10T13:14:38.000Z</time>
|
|
</trkpt>
|
|
<trkpt lat="55.130473" lon="8.685809">
|
|
<ele>-28.257640</ele>
|
|
<time>2026-07-10T13:14:39.000Z</time>
|
|
</trkpt>
|
|
<trkpt lat="55.130485" lon="8.685811">
|
|
<ele>-28.254063</ele>
|
|
<time>2026-07-10T13:14:40.000Z</time>
|
|
</trkpt>
|
|
<trkpt lat="55.130495" lon="8.685812">
|
|
<ele>-28.251092</ele>
|
|
<time>2026-07-10T13:14:41.000Z</time>
|
|
</trkpt>
|
|
<trkpt lat="55.130503" lon="8.685812">
|
|
<ele>-28.248718</ele>
|
|
<time>2026-07-10T13:14:42.000Z</time>
|
|
</trkpt>
|
|
<trkpt lat="55.130510" lon="8.685813">
|
|
<ele>-28.246635</ele>
|
|
<time>2026-07-10T13:14:43.000Z</time>
|
|
</trkpt>
|
|
<trkpt lat="55.130516" lon="8.685813">
|
|
<ele>-28.244855</ele>
|
|
<time>2026-07-10T13:14:44.000Z</time>
|
|
</trkpt>
|
|
<trkpt lat="55.130521" lon="8.685813">
|
|
<ele>-28.243371</ele>
|
|
<time>2026-07-10T13:14:45.000Z</time>
|
|
</trkpt>
|
|
<trkpt lat="55.130538" lon="8.685815">
|
|
<ele>-28.238316</ele>
|
|
<time>2026-07-10T13:14:46.000Z</time>
|
|
</trkpt>
|
|
<trkpt lat="55.130548" lon="8.685817">
|
|
<ele>-28.235330</ele>
|
|
<time>2026-07-10T13:14:47.000Z</time>
|
|
</trkpt>
|
|
<trkpt lat="55.130556" lon="8.685820">
|
|
<ele>-28.232903</ele>
|
|
<time>2026-07-10T13:14:48.000Z</time>
|
|
</trkpt>
|
|
<trkpt lat="55.130564" lon="8.685820">
|
|
<ele>-28.230529</ele>
|
|
<time>2026-07-10T13:14:49.000Z</time>
|
|
</trkpt>
|
|
<trkpt lat="55.130569" lon="8.685822">
|
|
<ele>-28.229008</ele>
|
|
<time>2026-07-10T13:14:50.000Z</time>
|
|
</trkpt>
|
|
<trkpt lat="55.130569" lon="8.685822">
|
|
<ele>-28.229008</ele>
|
|
<time>2026-07-10T13:14:51.000Z</time>
|
|
</trkpt>
|
|
<trkpt lat="55.130569" lon="8.685822">
|
|
<ele>-28.229008</ele>
|
|
<time>2026-07-10T13:14:54.000Z</time>
|
|
</trkpt>
|
|
<trkpt lat="55.130494" lon="8.685800">
|
|
<ele>-28.206446</ele>
|
|
<time>2026-07-10T13:17:22.000Z</time>
|
|
</trkpt>
|
|
<trkpt lat="55.130478" lon="8.685798">
|
|
<ele>-28.201687</ele>
|
|
<time>2026-07-10T13:17:23.000Z</time>
|
|
</trkpt>
|
|
<trkpt lat="55.130468" lon="8.685794">
|
|
<ele>-28.198643</ele>
|
|
<time>2026-07-10T13:17:24.000Z</time>
|
|
</trkpt>
|
|
<trkpt lat="55.130460" lon="8.685793">
|
|
<ele>-28.196264</ele>
|
|
<time>2026-07-10T13:17:25.000Z</time>
|
|
</trkpt>
|
|
<trkpt lat="55.130445" lon="8.685791">
|
|
<ele>-28.191801</ele>
|
|
<time>2026-07-10T13:17:26.000Z</time>
|
|
</trkpt>
|
|
<trkpt lat="55.130437" lon="8.685789">
|
|
<ele>-28.189403</ele>
|
|
<time>2026-07-10T13:17:27.000Z</time>
|
|
</trkpt>
|
|
<trkpt lat="55.130429" lon="8.685786">
|
|
<ele>-28.186976</ele>
|
|
<time>2026-07-10T13:17:28.000Z</time>
|
|
</trkpt>
|
|
<trkpt lat="55.130414" lon="8.685784">
|
|
<ele>-28.182513</ele>
|
|
<time>2026-07-10T13:17:29.000Z</time>
|
|
</trkpt>
|
|
<trkpt lat="55.130403" lon="8.685781">
|
|
<ele>-28.179210</ele>
|
|
<time>2026-07-10T13:17:30.000Z</time>
|
|
</trkpt>
|
|
<trkpt lat="55.130396" lon="8.685780">
|
|
<ele>-28.177126</ele>
|
|
<time>2026-07-10T13:17:31.000Z</time>
|
|
</trkpt>
|
|
<trkpt lat="55.130380" lon="8.685780">
|
|
<ele>-28.172379</ele>
|
|
<time>2026-07-10T13:17:32.000Z</time>
|
|
</trkpt>
|
|
<trkpt lat="55.130373" lon="8.685779">
|
|
<ele>-28.170295</ele>
|
|
<time>2026-07-10T13:17:33.000Z</time>
|
|
</trkpt>
|
|
<trkpt lat="55.130365" lon="8.685779">
|
|
<ele>-28.167922</ele>
|
|
<time>2026-07-10T13:17:34.000Z</time>
|
|
</trkpt>
|
|
<trkpt lat="55.130349" lon="8.685777">
|
|
<ele>-28.163163</ele>
|
|
<time>2026-07-10T13:17:35.000Z</time>
|
|
</trkpt>
|
|
<trkpt lat="55.130338" lon="8.685776">
|
|
<ele>-28.159895</ele>
|
|
<time>2026-07-10T13:17:36.000Z</time>
|
|
</trkpt>
|
|
<trkpt lat="55.130330" lon="8.685775">
|
|
<ele>-28.157515</ele>
|
|
<time>2026-07-10T13:17:37.000Z</time>
|
|
</trkpt>
|
|
<trkpt lat="55.130313" lon="8.685772">
|
|
<ele>-28.152446</ele>
|
|
<time>2026-07-10T13:17:38.000Z</time>
|
|
</trkpt>
|
|
<trkpt lat="55.130300" lon="8.685769">
|
|
<ele>-28.148556</ele>
|
|
<time>2026-07-10T13:17:39.000Z</time>
|
|
</trkpt>
|
|
<trkpt lat="55.130293" lon="8.685767">
|
|
<ele>-28.146452</ele>
|
|
<time>2026-07-10T13:17:40.000Z</time>
|
|
</trkpt>
|
|
<trkpt lat="55.130276" lon="8.685763">
|
|
<ele>-28.141363</ele>
|
|
<time>2026-07-10T13:17:41.000Z</time>
|
|
</trkpt>
|
|
<trkpt lat="55.130266" lon="8.685763">
|
|
<ele>-28.138396</ele>
|
|
<time>2026-07-10T13:17:42.000Z</time>
|
|
</trkpt>
|
|
<trkpt lat="55.130258" lon="8.685762">
|
|
<ele>-28.136016</ele>
|
|
<time>2026-07-10T13:17:43.000Z</time>
|
|
</trkpt>
|
|
<trkpt lat="55.130241" lon="8.685757">
|
|
<ele>-28.130902</ele>
|
|
<time>2026-07-10T13:17:44.000Z</time>
|
|
</trkpt>
|
|
<trkpt lat="55.130227" lon="8.685753">
|
|
<ele>-28.126693</ele>
|
|
<time>2026-07-10T13:17:45.000Z</time>
|
|
</trkpt>
|
|
<trkpt lat="55.130216" lon="8.685752">
|
|
<ele>-28.123425</ele>
|
|
<time>2026-07-10T13:17:46.000Z</time>
|
|
</trkpt>
|
|
<trkpt lat="55.130199" lon="8.685747">
|
|
<ele>-28.118311</ele>
|
|
<time>2026-07-10T13:17:47.000Z</time>
|
|
</trkpt>
|
|
<trkpt lat="55.130186" lon="8.685744">
|
|
<ele>-28.114421</ele>
|
|
<time>2026-07-10T13:17:48.000Z</time>
|
|
</trkpt>
|
|
<trkpt lat="55.130178" lon="8.685741">
|
|
<ele>-28.111993</ele>
|
|
<time>2026-07-10T13:17:49.000Z</time>
|
|
</trkpt>
|
|
<trkpt lat="55.130161" lon="8.685734">
|
|
<ele>-28.106812</ele>
|
|
<time>2026-07-10T13:17:50.000Z</time>
|
|
</trkpt>
|
|
<trkpt lat="55.130148" lon="8.685732">
|
|
<ele>-28.102940</ele>
|
|
<time>2026-07-10T13:17:51.000Z</time>
|
|
</trkpt>
|
|
<trkpt lat="55.130142" lon="8.685731">
|
|
<ele>-28.101152</ele>
|
|
<time>2026-07-10T13:17:52.000Z</time>
|
|
</trkpt>
|
|
<trkpt lat="55.130121" lon="8.685724">
|
|
<ele>-28.094810</ele>
|
|
<time>2026-07-10T13:17:53.000Z</time>
|
|
</trkpt>
|
|
<trkpt lat="55.130110" lon="8.685721">
|
|
<ele>-28.091507</ele>
|
|
<time>2026-07-10T13:17:54.000Z</time>
|
|
</trkpt>
|
|
<trkpt lat="55.130103" lon="8.685719">
|
|
<ele>-28.089402</ele>
|
|
<time>2026-07-10T13:17:55.000Z</time>
|
|
</trkpt>
|
|
<trkpt lat="55.130082" lon="8.685716">
|
|
<ele>-28.083151</ele>
|
|
<time>2026-07-10T13:17:56.000Z</time>
|
|
</trkpt>
|
|
<trkpt lat="55.130072" lon="8.685712">
|
|
<ele>-28.080108</ele>
|
|
<time>2026-07-10T13:17:57.000Z</time>
|
|
</trkpt>
|
|
<trkpt lat="55.130065" lon="8.685710">
|
|
<ele>-28.078004</ele>
|
|
<time>2026-07-10T13:17:58.000Z</time>
|
|
</trkpt>
|
|
<trkpt lat="55.130045" lon="8.685705">
|
|
<ele>-28.072010</ele>
|
|
<time>2026-07-10T13:17:59.000Z</time>
|
|
</trkpt>
|
|
<trkpt lat="55.130037" lon="8.685705">
|
|
<ele>-28.069636</ele>
|
|
<time>2026-07-10T13:18:00.000Z</time>
|
|
</trkpt>
|
|
<trkpt lat="55.130030" lon="8.685705">
|
|
<ele>-28.067559</ele>
|
|
<time>2026-07-10T13:18:01.000Z</time>
|
|
</trkpt>
|
|
<trkpt lat="55.130014" lon="8.685702">
|
|
<ele>-28.062785</ele>
|
|
<time>2026-07-10T13:18:02.000Z</time>
|
|
</trkpt>
|
|
<trkpt lat="55.130003" lon="8.685703">
|
|
<ele>-28.059517</ele>
|
|
<time>2026-07-10T13:18:03.000Z</time>
|
|
</trkpt>
|
|
<trkpt lat="55.129994" lon="8.685702">
|
|
<ele>-28.056842</ele>
|
|
<time>2026-07-10T13:18:04.000Z</time>
|
|
</trkpt>
|
|
<trkpt lat="55.129975" lon="8.685702">
|
|
<ele>-28.051205</ele>
|
|
<time>2026-07-10T13:18:05.000Z</time>
|
|
</trkpt>
|
|
<trkpt lat="55.129964" lon="8.685704">
|
|
<ele>-28.047924</ele>
|
|
<time>2026-07-10T13:18:06.000Z</time>
|
|
</trkpt>
|
|
<trkpt lat="55.129953" lon="8.685708">
|
|
<ele>-28.044591</ele>
|
|
<time>2026-07-10T13:18:07.000Z</time>
|
|
</trkpt>
|
|
<trkpt lat="55.129947" lon="8.685720">
|
|
<ele>-28.041887</ele>
|
|
<time>2026-07-10T13:18:08.000Z</time>
|
|
</trkpt>
|
|
<trkpt lat="55.129945" lon="8.685732">
|
|
<ele>-28.039767</ele>
|
|
<time>2026-07-10T13:18:09.000Z</time>
|
|
</trkpt>
|
|
<trkpt lat="55.129948" lon="8.685741">
|
|
<ele>-28.037999</ele>
|
|
<time>2026-07-10T13:18:10.000Z</time>
|
|
</trkpt>
|
|
<trkpt lat="55.129962" lon="8.685745">
|
|
<ele>-28.033791</ele>
|
|
<time>2026-07-10T13:18:21.000Z</time>
|
|
</trkpt>
|
|
<trkpt lat="55.130010" lon="8.685759">
|
|
<ele>-28.019354</ele>
|
|
<time>2026-07-10T13:18:22.000Z</time>
|
|
</trkpt>
|
|
<trkpt lat="55.130032" lon="8.685770">
|
|
<ele>-28.012565</ele>
|
|
<time>2026-07-10T13:18:23.000Z</time>
|
|
</trkpt>
|
|
<trkpt lat="55.130063" lon="8.685784">
|
|
<ele>-28.003066</ele>
|
|
<time>2026-07-10T13:18:24.000Z</time>
|
|
</trkpt>
|
|
<trkpt lat="55.130095" lon="8.685800">
|
|
<ele>-27.993192</ele>
|
|
<time>2026-07-10T13:18:25.000Z</time>
|
|
</trkpt>
|
|
<trkpt lat="55.130133" lon="8.685818">
|
|
<ele>-27.981512</ele>
|
|
<time>2026-07-10T13:18:26.000Z</time>
|
|
</trkpt>
|
|
<trkpt lat="55.130167" lon="8.685834">
|
|
<ele>-27.971066</ele>
|
|
<time>2026-07-10T13:18:27.000Z</time>
|
|
</trkpt>
|
|
<trkpt lat="55.130206" lon="8.685847">
|
|
<ele>-27.959288</ele>
|
|
<time>2026-07-10T13:18:28.000Z</time>
|
|
</trkpt>
|
|
<trkpt lat="55.130249" lon="8.685862">
|
|
<ele>-27.946279</ele>
|
|
<time>2026-07-10T13:18:29.000Z</time>
|
|
</trkpt>
|
|
<trkpt lat="55.130290" lon="8.685875">
|
|
<ele>-27.933917</ele>
|
|
<time>2026-07-10T13:18:30.000Z</time>
|
|
</trkpt>
|
|
<trkpt lat="55.130332" lon="8.685887">
|
|
<ele>-27.935270</ele>
|
|
<time>2026-07-10T13:18:31.000Z</time>
|
|
</trkpt>
|
|
<trkpt lat="55.130369" lon="8.685902">
|
|
<ele>-27.946486</ele>
|
|
<time>2026-07-10T13:18:32.000Z</time>
|
|
</trkpt>
|
|
<trkpt lat="55.130404" lon="8.685921">
|
|
<ele>-27.957308</ele>
|
|
<time>2026-07-10T13:18:33.000Z</time>
|
|
</trkpt>
|
|
<trkpt lat="55.130443" lon="8.685941">
|
|
<ele>-27.969310</ele>
|
|
<time>2026-07-10T13:18:34.000Z</time>
|
|
</trkpt>
|
|
<trkpt lat="55.130485" lon="8.685953">
|
|
<ele>-27.981877</ele>
|
|
<time>2026-07-10T13:18:35.000Z</time>
|
|
</trkpt>
|
|
<trkpt lat="55.130526" lon="8.685960">
|
|
<ele>-27.994042</ele>
|
|
<time>2026-07-10T13:18:36.000Z</time>
|
|
</trkpt>
|
|
<trkpt lat="55.130568" lon="8.685960">
|
|
<ele>-28.006445</ele>
|
|
<time>2026-07-10T13:18:37.000Z</time>
|
|
</trkpt>
|
|
<trkpt lat="55.130610" lon="8.685959">
|
|
<ele>-28.018849</ele>
|
|
<time>2026-07-10T13:18:38.000Z</time>
|
|
</trkpt>
|
|
<trkpt lat="55.130653" lon="8.685954">
|
|
<ele>-28.031575</ele>
|
|
<time>2026-07-10T13:18:39.000Z</time>
|
|
</trkpt>
|
|
<trkpt lat="55.130691" lon="8.685951">
|
|
<ele>-28.042808</ele>
|
|
<time>2026-07-10T13:18:40.000Z</time>
|
|
</trkpt>
|
|
<trkpt lat="55.130728" lon="8.685950">
|
|
<ele>-28.053736</ele>
|
|
<time>2026-07-10T13:18:41.000Z</time>
|
|
</trkpt>
|
|
<trkpt lat="55.130761" lon="8.685956">
|
|
<ele>-28.063534</ele>
|
|
<time>2026-07-10T13:18:42.000Z</time>
|
|
</trkpt>
|
|
<trkpt lat="55.130790" lon="8.685967">
|
|
<ele>-28.072297</ele>
|
|
<time>2026-07-10T13:18:43.000Z</time>
|
|
</trkpt>
|
|
<trkpt lat="55.130817" lon="8.685982">
|
|
<ele>-28.080662</ele>
|
|
<time>2026-07-10T13:18:44.000Z</time>
|
|
</trkpt>
|
|
<trkpt lat="55.130845" lon="8.685999">
|
|
<ele>-28.089415</ele>
|
|
<time>2026-07-10T13:18:45.000Z</time>
|
|
</trkpt>
|
|
<trkpt lat="55.130876" lon="8.686013">
|
|
<ele>-28.098869</ele>
|
|
<time>2026-07-10T13:18:46.000Z</time>
|
|
</trkpt>
|
|
<trkpt lat="55.130911" lon="8.686031">
|
|
<ele>-28.109643</ele>
|
|
<time>2026-07-10T13:18:47.000Z</time>
|
|
</trkpt>
|
|
<trkpt lat="55.130946" lon="8.686053">
|
|
<ele>-28.120625</ele>
|
|
<time>2026-07-10T13:18:48.000Z</time>
|
|
</trkpt>
|
|
<trkpt lat="55.130983" lon="8.686077">
|
|
<ele>-28.132279</ele>
|
|
<time>2026-07-10T13:18:49.000Z</time>
|
|
</trkpt>
|
|
<trkpt lat="55.131018" lon="8.686102">
|
|
<ele>-28.143443</ele>
|
|
<time>2026-07-10T13:18:50.000Z</time>
|
|
</trkpt>
|
|
<trkpt lat="55.131052" lon="8.686123">
|
|
<ele>-28.154091</ele>
|
|
<time>2026-07-10T13:18:51.000Z</time>
|
|
</trkpt>
|
|
<trkpt lat="55.131088" lon="8.686141">
|
|
<ele>-28.165148</ele>
|
|
<time>2026-07-10T13:18:52.000Z</time>
|
|
</trkpt>
|
|
<trkpt lat="55.131131" lon="8.686160">
|
|
<ele>-28.178245</ele>
|
|
<time>2026-07-10T13:18:53.000Z</time>
|
|
</trkpt>
|
|
<trkpt lat="55.131171" lon="8.686179">
|
|
<ele>-28.190485</ele>
|
|
<time>2026-07-10T13:18:54.000Z</time>
|
|
</trkpt>
|
|
<trkpt lat="55.131211" lon="8.686198">
|
|
<ele>-28.202725</ele>
|
|
<time>2026-07-10T13:18:55.000Z</time>
|
|
</trkpt>
|
|
<trkpt lat="55.131252" lon="8.686215">
|
|
<ele>-28.215168</ele>
|
|
<time>2026-07-10T13:18:56.000Z</time>
|
|
</trkpt>
|
|
<trkpt lat="55.131290" lon="8.686231">
|
|
<ele>-28.226710</ele>
|
|
<time>2026-07-10T13:18:57.000Z</time>
|
|
</trkpt>
|
|
<trkpt lat="55.131327" lon="8.686248">
|
|
<ele>-28.238007</ele>
|
|
<time>2026-07-10T13:18:58.000Z</time>
|
|
</trkpt>
|
|
<trkpt lat="55.131365" lon="8.686264">
|
|
<ele>-28.249549</ele>
|
|
<time>2026-07-10T13:18:59.000Z</time>
|
|
</trkpt>
|
|
<trkpt lat="55.131401" lon="8.686279">
|
|
<ele>-28.260478</ele>
|
|
<time>2026-07-10T13:19:00.000Z</time>
|
|
</trkpt>
|
|
<trkpt lat="55.131437" lon="8.686299">
|
|
<ele>-28.271632</ele>
|
|
<time>2026-07-10T13:19:01.000Z</time>
|
|
</trkpt>
|
|
<trkpt lat="55.131471" lon="8.686316">
|
|
<ele>-28.282075</ele>
|
|
<time>2026-07-10T13:19:02.000Z</time>
|
|
</trkpt>
|
|
<trkpt lat="55.131507" lon="8.686330">
|
|
<ele>-28.292965</ele>
|
|
<time>2026-07-10T13:19:03.000Z</time>
|
|
</trkpt>
|
|
<trkpt lat="55.131543" lon="8.686338">
|
|
<ele>-28.303682</ele>
|
|
<time>2026-07-10T13:19:04.000Z</time>
|
|
</trkpt>
|
|
<trkpt lat="55.131575" lon="8.686344">
|
|
<ele>-28.313186</ele>
|
|
<time>2026-07-10T13:19:05.000Z</time>
|
|
</trkpt>
|
|
<trkpt lat="55.131599" lon="8.686345">
|
|
<ele>-28.320275</ele>
|
|
<time>2026-07-10T13:19:06.000Z</time>
|
|
</trkpt>
|
|
<trkpt lat="55.131615" lon="8.686341">
|
|
<ele>-28.325048</ele>
|
|
<time>2026-07-10T13:19:21.000Z</time>
|
|
</trkpt>
|
|
<trkpt lat="55.131639" lon="8.686353">
|
|
<ele>-28.332419</ele>
|
|
<time>2026-07-10T13:19:27.000Z</time>
|
|
</trkpt>
|
|
<trkpt lat="55.131722" lon="8.686392">
|
|
<ele>-28.357798</ele>
|
|
<time>2026-07-10T13:19:28.000Z</time>
|
|
</trkpt>
|
|
<trkpt lat="55.131743" lon="8.686405">
|
|
<ele>-28.364377</ele>
|
|
<time>2026-07-10T13:19:29.000Z</time>
|
|
</trkpt>
|
|
<trkpt lat="55.131765" lon="8.686417">
|
|
<ele>-28.371182</ele>
|
|
<time>2026-07-10T13:19:30.000Z</time>
|
|
</trkpt>
|
|
<trkpt lat="55.131787" lon="8.686425">
|
|
<ele>-28.377818</ele>
|
|
<time>2026-07-10T13:19:31.000Z</time>
|
|
</trkpt>
|
|
<trkpt lat="55.131812" lon="8.686432">
|
|
<ele>-28.385294</ele>
|
|
<time>2026-07-10T13:19:32.000Z</time>
|
|
</trkpt>
|
|
<trkpt lat="55.131836" lon="8.686442">
|
|
<ele>-28.392580</ele>
|
|
<time>2026-07-10T13:19:33.000Z</time>
|
|
</trkpt>
|
|
<trkpt lat="55.131863" lon="8.686454">
|
|
<ele>-28.400806</ele>
|
|
<time>2026-07-10T13:19:34.000Z</time>
|
|
</trkpt>
|
|
<trkpt lat="55.131894" lon="8.686467">
|
|
<ele>-28.410220</ele>
|
|
<time>2026-07-10T13:19:35.000Z</time>
|
|
</trkpt>
|
|
<trkpt lat="55.131928" lon="8.686482">
|
|
<ele>-28.420575</ele>
|
|
<time>2026-07-10T13:19:36.000Z</time>
|
|
</trkpt>
|
|
<trkpt lat="55.131960" lon="8.686496">
|
|
<ele>-28.430316</ele>
|
|
<time>2026-07-10T13:19:37.000Z</time>
|
|
</trkpt>
|
|
<trkpt lat="55.131998" lon="8.686511">
|
|
<ele>-28.441820</ele>
|
|
<time>2026-07-10T13:19:38.000Z</time>
|
|
</trkpt>
|
|
<trkpt lat="55.132035" lon="8.686527">
|
|
<ele>-28.453075</ele>
|
|
<time>2026-07-10T13:19:39.000Z</time>
|
|
</trkpt>
|
|
<trkpt lat="55.132072" lon="8.686544">
|
|
<ele>-28.461651</ele>
|
|
<time>2026-07-10T13:19:40.000Z</time>
|
|
</trkpt>
|
|
<trkpt lat="55.132112" lon="8.686559">
|
|
<ele>-28.467059</ele>
|
|
<time>2026-07-10T13:19:41.000Z</time>
|
|
</trkpt>
|
|
<trkpt lat="55.132151" lon="8.686576">
|
|
<ele>-28.472372</ele>
|
|
<time>2026-07-10T13:19:42.000Z</time>
|
|
</trkpt>
|
|
<trkpt lat="55.132190" lon="8.686591">
|
|
<ele>-28.477650</ele>
|
|
<time>2026-07-10T13:19:43.000Z</time>
|
|
</trkpt>
|
|
<trkpt lat="55.132233" lon="8.686608">
|
|
<ele>-28.483478</ele>
|
|
<time>2026-07-10T13:19:44.000Z</time>
|
|
</trkpt>
|
|
<trkpt lat="55.132273" lon="8.686624">
|
|
<ele>-28.488902</ele>
|
|
<time>2026-07-10T13:19:45.000Z</time>
|
|
</trkpt>
|
|
<trkpt lat="55.132315" lon="8.686642">
|
|
<ele>-28.494618</ele>
|
|
<time>2026-07-10T13:19:46.000Z</time>
|
|
</trkpt>
|
|
<trkpt lat="55.132355" lon="8.686660">
|
|
<ele>-28.500078</ele>
|
|
<time>2026-07-10T13:19:47.000Z</time>
|
|
</trkpt>
|
|
<trkpt lat="55.132397" lon="8.686678">
|
|
<ele>-28.505794</ele>
|
|
<time>2026-07-10T13:19:48.000Z</time>
|
|
</trkpt>
|
|
<trkpt lat="55.132441" lon="8.686696">
|
|
<ele>-28.511767</ele>
|
|
<time>2026-07-10T13:19:49.000Z</time>
|
|
</trkpt>
|
|
<trkpt lat="55.132488" lon="8.686716">
|
|
<ele>-28.518161</ele>
|
|
<time>2026-07-10T13:19:50.000Z</time>
|
|
</trkpt>
|
|
<trkpt lat="55.132531" lon="8.686735">
|
|
<ele>-28.524023</ele>
|
|
<time>2026-07-10T13:19:51.000Z</time>
|
|
</trkpt>
|
|
<trkpt lat="55.132571" lon="8.686753">
|
|
<ele>-28.529483</ele>
|
|
<time>2026-07-10T13:19:52.000Z</time>
|
|
</trkpt>
|
|
<trkpt lat="55.132610" lon="8.686768">
|
|
<ele>-28.534762</ele>
|
|
<time>2026-07-10T13:19:53.000Z</time>
|
|
</trkpt>
|
|
<trkpt lat="55.132652" lon="8.686786">
|
|
<ele>-28.540478</ele>
|
|
<time>2026-07-10T13:19:54.000Z</time>
|
|
</trkpt>
|
|
<trkpt lat="55.132693" lon="8.686801">
|
|
<ele>-28.546015</ele>
|
|
<time>2026-07-10T13:19:55.000Z</time>
|
|
</trkpt>
|
|
<trkpt lat="55.132733" lon="8.686815">
|
|
<ele>-28.551407</ele>
|
|
<time>2026-07-10T13:19:56.000Z</time>
|
|
</trkpt>
|
|
<trkpt lat="55.132762" lon="8.686828">
|
|
<ele>-28.555364</ele>
|
|
<time>2026-07-10T13:19:57.000Z</time>
|
|
</trkpt>
|
|
<trkpt lat="55.132816" lon="8.686848">
|
|
<ele>-28.562661</ele>
|
|
<time>2026-07-10T13:19:58.000Z</time>
|
|
</trkpt>
|
|
<trkpt lat="55.132859" lon="8.686865">
|
|
<ele>-28.568488</ele>
|
|
<time>2026-07-10T13:19:59.000Z</time>
|
|
</trkpt>
|
|
<trkpt lat="55.132901" lon="8.686883">
|
|
<ele>-28.574204</ele>
|
|
<time>2026-07-10T13:20:00.000Z</time>
|
|
</trkpt>
|
|
<trkpt lat="55.132943" lon="8.686899">
|
|
<ele>-28.579886</ele>
|
|
<time>2026-07-10T13:20:01.000Z</time>
|
|
</trkpt>
|
|
<trkpt lat="55.132985" lon="8.686916">
|
|
<ele>-28.585585</ele>
|
|
<time>2026-07-10T13:20:02.000Z</time>
|
|
</trkpt>
|
|
<trkpt lat="55.133029" lon="8.686934">
|
|
<ele>-28.591558</ele>
|
|
<time>2026-07-10T13:20:03.000Z</time>
|
|
</trkpt>
|
|
<trkpt lat="55.133073" lon="8.686954">
|
|
<ele>-28.597567</ele>
|
|
<time>2026-07-10T13:20:04.000Z</time>
|
|
</trkpt>
|
|
<trkpt lat="55.133118" lon="8.686972">
|
|
<ele>-28.603669</ele>
|
|
<time>2026-07-10T13:20:05.000Z</time>
|
|
</trkpt>
|
|
<trkpt lat="55.133165" lon="8.686992">
|
|
<ele>-28.610063</ele>
|
|
<time>2026-07-10T13:20:06.000Z</time>
|
|
</trkpt>
|
|
<trkpt lat="55.133209" lon="8.687009">
|
|
<ele>-28.616020</ele>
|
|
<time>2026-07-10T13:20:07.000Z</time>
|
|
</trkpt>
|
|
<trkpt lat="55.133255" lon="8.687026">
|
|
<ele>-28.622235</ele>
|
|
<time>2026-07-10T13:20:08.000Z</time>
|
|
</trkpt>
|
|
<trkpt lat="55.133297" lon="8.687043">
|
|
<ele>-28.627933</ele>
|
|
<time>2026-07-10T13:20:09.000Z</time>
|
|
</trkpt>
|
|
<trkpt lat="55.133340" lon="8.687061">
|
|
<ele>-28.633778</ele>
|
|
<time>2026-07-10T13:20:10.000Z</time>
|
|
</trkpt>
|
|
<trkpt lat="55.133383" lon="8.687079">
|
|
<ele>-28.639622</ele>
|
|
<time>2026-07-10T13:20:11.000Z</time>
|
|
</trkpt>
|
|
<trkpt lat="55.133427" lon="8.687098">
|
|
<ele>-28.645613</ele>
|
|
<time>2026-07-10T13:20:12.000Z</time>
|
|
</trkpt>
|
|
<trkpt lat="55.133469" lon="8.687115">
|
|
<ele>-28.651312</ele>
|
|
<time>2026-07-10T13:20:13.000Z</time>
|
|
</trkpt>
|
|
<trkpt lat="55.133511" lon="8.687133">
|
|
<ele>-28.657028</ele>
|
|
<time>2026-07-10T13:20:14.000Z</time>
|
|
</trkpt>
|
|
<trkpt lat="55.133552" lon="8.687149">
|
|
<ele>-28.662581</ele>
|
|
<time>2026-07-10T13:20:15.000Z</time>
|
|
</trkpt>
|
|
<trkpt lat="55.133594" lon="8.687164">
|
|
<ele>-28.668247</ele>
|
|
<time>2026-07-10T13:20:16.000Z</time>
|
|
</trkpt>
|
|
<trkpt lat="55.133638" lon="8.687180">
|
|
<ele>-28.674188</ele>
|
|
<time>2026-07-10T13:20:17.000Z</time>
|
|
</trkpt>
|
|
<trkpt lat="55.133684" lon="8.687198">
|
|
<ele>-28.680418</ele>
|
|
<time>2026-07-10T13:20:18.000Z</time>
|
|
</trkpt>
|
|
<trkpt lat="55.133730" lon="8.687219">
|
|
<ele>-28.686703</ele>
|
|
<time>2026-07-10T13:20:19.000Z</time>
|
|
</trkpt>
|
|
<trkpt lat="55.133776" lon="8.687241">
|
|
<ele>-28.693007</ele>
|
|
<time>2026-07-10T13:20:20.000Z</time>
|
|
</trkpt>
|
|
<trkpt lat="55.133821" lon="8.687263">
|
|
<ele>-28.697296</ele>
|
|
<time>2026-07-10T13:20:21.000Z</time>
|
|
</trkpt>
|
|
<trkpt lat="55.133866" lon="8.687282">
|
|
<ele>-28.697577</ele>
|
|
<time>2026-07-10T13:20:22.000Z</time>
|
|
</trkpt>
|
|
<trkpt lat="55.133912" lon="8.687300">
|
|
<ele>-28.697863</ele>
|
|
<time>2026-07-10T13:20:23.000Z</time>
|
|
</trkpt>
|
|
<trkpt lat="55.133958" lon="8.687319">
|
|
<ele>-28.698150</ele>
|
|
<time>2026-07-10T13:20:24.000Z</time>
|
|
</trkpt>
|
|
<trkpt lat="55.134003" lon="8.687338">
|
|
<ele>-28.698431</ele>
|
|
<time>2026-07-10T13:20:25.000Z</time>
|
|
</trkpt>
|
|
<trkpt lat="55.134049" lon="8.687356">
|
|
<ele>-28.698718</ele>
|
|
<time>2026-07-10T13:20:26.000Z</time>
|
|
</trkpt>
|
|
<trkpt lat="55.134096" lon="8.687373">
|
|
<ele>-28.699009</ele>
|
|
<time>2026-07-10T13:20:27.000Z</time>
|
|
</trkpt>
|
|
<trkpt lat="55.134141" lon="8.687389">
|
|
<ele>-28.699288</ele>
|
|
<time>2026-07-10T13:20:28.000Z</time>
|
|
</trkpt>
|
|
<trkpt lat="55.134185" lon="8.687408">
|
|
<ele>-28.699563</ele>
|
|
<time>2026-07-10T13:20:29.000Z</time>
|
|
</trkpt>
|
|
<trkpt lat="55.134229" lon="8.687429">
|
|
<ele>-28.699840</ele>
|
|
<time>2026-07-10T13:20:30.000Z</time>
|
|
</trkpt>
|
|
<trkpt lat="55.134274" lon="8.687449">
|
|
<ele>-28.700122</ele>
|
|
<time>2026-07-10T13:20:31.000Z</time>
|
|
</trkpt>
|
|
<trkpt lat="55.134316" lon="8.687467">
|
|
<ele>-28.700385</ele>
|
|
<time>2026-07-10T13:20:32.000Z</time>
|
|
</trkpt>
|
|
<trkpt lat="55.134361" lon="8.687484">
|
|
<ele>-28.700664</ele>
|
|
<time>2026-07-10T13:20:33.000Z</time>
|
|
</trkpt>
|
|
<trkpt lat="55.134402" lon="8.687502">
|
|
<ele>-28.700921</ele>
|
|
<time>2026-07-10T13:20:34.000Z</time>
|
|
</trkpt>
|
|
<trkpt lat="55.134447" lon="8.687520">
|
|
<ele>-28.701201</ele>
|
|
<time>2026-07-10T13:20:35.000Z</time>
|
|
</trkpt>
|
|
<trkpt lat="55.134491" lon="8.687538">
|
|
<ele>-28.701476</ele>
|
|
<time>2026-07-10T13:20:36.000Z</time>
|
|
</trkpt>
|
|
<trkpt lat="55.134534" lon="8.687555">
|
|
<ele>-28.701744</ele>
|
|
<time>2026-07-10T13:20:37.000Z</time>
|
|
</trkpt>
|
|
<trkpt lat="55.134577" lon="8.687575">
|
|
<ele>-28.702014</ele>
|
|
<time>2026-07-10T13:20:38.000Z</time>
|
|
</trkpt>
|
|
<trkpt lat="55.134622" lon="8.687593">
|
|
<ele>-28.702294</ele>
|
|
<time>2026-07-10T13:20:39.000Z</time>
|
|
</trkpt>
|
|
<trkpt lat="55.134667" lon="8.687609">
|
|
<ele>-28.702573</ele>
|
|
<time>2026-07-10T13:20:40.000Z</time>
|
|
</trkpt>
|
|
<trkpt lat="55.134714" lon="8.687628">
|
|
<ele>-28.702866</ele>
|
|
<time>2026-07-10T13:20:41.000Z</time>
|
|
</trkpt>
|
|
<trkpt lat="55.134759" lon="8.687647">
|
|
<ele>-28.703147</ele>
|
|
<time>2026-07-10T13:20:42.000Z</time>
|
|
</trkpt>
|
|
<trkpt lat="55.134806" lon="8.687666">
|
|
<ele>-28.703440</ele>
|
|
<time>2026-07-10T13:20:43.000Z</time>
|
|
</trkpt>
|
|
<trkpt lat="55.134854" lon="8.687685">
|
|
<ele>-28.703739</ele>
|
|
<time>2026-07-10T13:20:44.000Z</time>
|
|
</trkpt>
|
|
<trkpt lat="55.134900" lon="8.687704">
|
|
<ele>-28.704026</ele>
|
|
<time>2026-07-10T13:20:45.000Z</time>
|
|
</trkpt>
|
|
<trkpt lat="55.134946" lon="8.687724">
|
|
<ele>-28.704314</ele>
|
|
<time>2026-07-10T13:20:46.000Z</time>
|
|
</trkpt>
|
|
<trkpt lat="55.134992" lon="8.687744">
|
|
<ele>-28.704602</ele>
|
|
<time>2026-07-10T13:20:47.000Z</time>
|
|
</trkpt>
|
|
<trkpt lat="55.135038" lon="8.687763">
|
|
<ele>-28.704889</ele>
|
|
<time>2026-07-10T13:20:48.000Z</time>
|
|
</trkpt>
|
|
<trkpt lat="55.135088" lon="8.687781">
|
|
<ele>-28.705199</ele>
|
|
<time>2026-07-10T13:20:49.000Z</time>
|
|
</trkpt>
|
|
<trkpt lat="55.135137" lon="8.687800">
|
|
<ele>-28.705504</ele>
|
|
<time>2026-07-10T13:20:50.000Z</time>
|
|
</trkpt>
|
|
<trkpt lat="55.135183" lon="8.687819">
|
|
<ele>-28.705791</ele>
|
|
<time>2026-07-10T13:20:51.000Z</time>
|
|
</trkpt>
|
|
<trkpt lat="55.135229" lon="8.687838">
|
|
<ele>-28.706078</ele>
|
|
<time>2026-07-10T13:20:52.000Z</time>
|
|
</trkpt>
|
|
<trkpt lat="55.135274" lon="8.687858">
|
|
<ele>-28.706360</ele>
|
|
<time>2026-07-10T13:20:53.000Z</time>
|
|
</trkpt>
|
|
<trkpt lat="55.135319" lon="8.687879">
|
|
<ele>-28.706643</ele>
|
|
<time>2026-07-10T13:20:54.000Z</time>
|
|
</trkpt>
|
|
<trkpt lat="55.135366" lon="8.687901">
|
|
<ele>-28.706938</ele>
|
|
<time>2026-07-10T13:20:55.000Z</time>
|
|
</trkpt>
|
|
<trkpt lat="55.135416" lon="8.687923">
|
|
<ele>-28.707251</ele>
|
|
<time>2026-07-10T13:20:56.000Z</time>
|
|
</trkpt>
|
|
<trkpt lat="55.135462" lon="8.687944">
|
|
<ele>-28.707540</ele>
|
|
<time>2026-07-10T13:20:57.000Z</time>
|
|
</trkpt>
|
|
<trkpt lat="55.135511" lon="8.687965">
|
|
<ele>-28.707847</ele>
|
|
<time>2026-07-10T13:20:58.000Z</time>
|
|
</trkpt>
|
|
<trkpt lat="55.135558" lon="8.687985">
|
|
<ele>-28.708111</ele>
|
|
<time>2026-07-10T13:20:59.000Z</time>
|
|
</trkpt>
|
|
<trkpt lat="55.135606" lon="8.688004">
|
|
<ele>-28.707655</ele>
|
|
<time>2026-07-10T13:21:00.000Z</time>
|
|
</trkpt>
|
|
<trkpt lat="55.135656" lon="8.688022">
|
|
<ele>-28.707183</ele>
|
|
<time>2026-07-10T13:21:01.000Z</time>
|
|
</trkpt>
|
|
<trkpt lat="55.135702" lon="8.688040">
|
|
<ele>-28.706747</ele>
|
|
<time>2026-07-10T13:21:02.000Z</time>
|
|
</trkpt>
|
|
<trkpt lat="55.135748" lon="8.688059">
|
|
<ele>-28.706309</ele>
|
|
<time>2026-07-10T13:21:03.000Z</time>
|
|
</trkpt>
|
|
<trkpt lat="55.135794" lon="8.688079">
|
|
<ele>-28.705871</ele>
|
|
<time>2026-07-10T13:21:04.000Z</time>
|
|
</trkpt>
|
|
<trkpt lat="55.135841" lon="8.688101">
|
|
<ele>-28.705421</ele>
|
|
<time>2026-07-10T13:21:05.000Z</time>
|
|
</trkpt>
|
|
<trkpt lat="55.135888" lon="8.688127">
|
|
<ele>-28.704965</ele>
|
|
<time>2026-07-10T13:21:06.000Z</time>
|
|
</trkpt>
|
|
<trkpt lat="55.135934" lon="8.688153">
|
|
<ele>-28.704517</ele>
|
|
<time>2026-07-10T13:21:07.000Z</time>
|
|
</trkpt>
|
|
<trkpt lat="55.135977" lon="8.688176">
|
|
<ele>-28.704101</ele>
|
|
<time>2026-07-10T13:21:08.000Z</time>
|
|
</trkpt>
|
|
<trkpt lat="55.136022" lon="8.688196">
|
|
<ele>-28.703672</ele>
|
|
<time>2026-07-10T13:21:09.000Z</time>
|
|
</trkpt>
|
|
<trkpt lat="55.136068" lon="8.688213">
|
|
<ele>-28.703236</ele>
|
|
<time>2026-07-10T13:21:10.000Z</time>
|
|
</trkpt>
|
|
<trkpt lat="55.136116" lon="8.688230">
|
|
<ele>-28.702783</ele>
|
|
<time>2026-07-10T13:21:11.000Z</time>
|
|
</trkpt>
|
|
<trkpt lat="55.136160" lon="8.688248">
|
|
<ele>-28.702365</ele>
|
|
<time>2026-07-10T13:21:12.000Z</time>
|
|
</trkpt>
|
|
<trkpt lat="55.136207" lon="8.688265">
|
|
<ele>-28.701921</ele>
|
|
<time>2026-07-10T13:21:13.000Z</time>
|
|
</trkpt>
|
|
<trkpt lat="55.136251" lon="8.688286">
|
|
<ele>-28.701499</ele>
|
|
<time>2026-07-10T13:21:14.000Z</time>
|
|
</trkpt>
|
|
<trkpt lat="55.136297" lon="8.688306">
|
|
<ele>-28.701060</ele>
|
|
<time>2026-07-10T13:21:15.000Z</time>
|
|
</trkpt>
|
|
<trkpt lat="55.136342" lon="8.688328">
|
|
<ele>-28.700628</ele>
|
|
<time>2026-07-10T13:21:16.000Z</time>
|
|
</trkpt>
|
|
<trkpt lat="55.136390" lon="8.688349">
|
|
<ele>-28.700170</ele>
|
|
<time>2026-07-10T13:21:17.000Z</time>
|
|
</trkpt>
|
|
<trkpt lat="55.136438" lon="8.688372">
|
|
<ele>-28.699710</ele>
|
|
<time>2026-07-10T13:21:18.000Z</time>
|
|
</trkpt>
|
|
<trkpt lat="55.136484" lon="8.688397">
|
|
<ele>-28.699264</ele>
|
|
<time>2026-07-10T13:21:19.000Z</time>
|
|
</trkpt>
|
|
<trkpt lat="55.136528" lon="8.688424">
|
|
<ele>-28.698833</ele>
|
|
<time>2026-07-10T13:21:20.000Z</time>
|
|
</trkpt>
|
|
<trkpt lat="55.136569" lon="8.688452">
|
|
<ele>-28.698425</ele>
|
|
<time>2026-07-10T13:21:21.000Z</time>
|
|
</trkpt>
|
|
<trkpt lat="55.136617" lon="8.688481">
|
|
<ele>-28.697955</ele>
|
|
<time>2026-07-10T13:21:22.000Z</time>
|
|
</trkpt>
|
|
<trkpt lat="55.136663" lon="8.688508">
|
|
<ele>-28.697506</ele>
|
|
<time>2026-07-10T13:21:23.000Z</time>
|
|
</trkpt>
|
|
<trkpt lat="55.136712" lon="8.688535">
|
|
<ele>-28.697031</ele>
|
|
<time>2026-07-10T13:21:24.000Z</time>
|
|
</trkpt>
|
|
<trkpt lat="55.136754" lon="8.688563">
|
|
<ele>-28.696615</ele>
|
|
<time>2026-07-10T13:21:25.000Z</time>
|
|
</trkpt>
|
|
<trkpt lat="55.136800" lon="8.688593">
|
|
<ele>-28.696161</ele>
|
|
<time>2026-07-10T13:21:26.000Z</time>
|
|
</trkpt>
|
|
<trkpt lat="55.136845" lon="8.688621">
|
|
<ele>-28.695719</ele>
|
|
<time>2026-07-10T13:21:27.000Z</time>
|
|
</trkpt>
|
|
<trkpt lat="55.136891" lon="8.688651">
|
|
<ele>-28.695265</ele>
|
|
<time>2026-07-10T13:21:28.000Z</time>
|
|
</trkpt>
|
|
<trkpt lat="55.136938" lon="8.688682">
|
|
<ele>-28.694800</ele>
|
|
<time>2026-07-10T13:21:29.000Z</time>
|
|
</trkpt>
|
|
<trkpt lat="55.136983" lon="8.688712">
|
|
<ele>-28.694354</ele>
|
|
<time>2026-07-10T13:21:30.000Z</time>
|
|
</trkpt>
|
|
<trkpt lat="55.137030" lon="8.688742">
|
|
<ele>-28.693891</ele>
|
|
<time>2026-07-10T13:21:31.000Z</time>
|
|
</trkpt>
|
|
<trkpt lat="55.137079" lon="8.688773">
|
|
<ele>-28.693409</ele>
|
|
<time>2026-07-10T13:21:32.000Z</time>
|
|
</trkpt>
|
|
<trkpt lat="55.137125" lon="8.688803">
|
|
<ele>-28.692955</ele>
|
|
<time>2026-07-10T13:21:33.000Z</time>
|
|
</trkpt>
|
|
<trkpt lat="55.137174" lon="8.688831">
|
|
<ele>-28.692478</ele>
|
|
<time>2026-07-10T13:21:34.000Z</time>
|
|
</trkpt>
|
|
<trkpt lat="55.137221" lon="8.688861">
|
|
<ele>-28.692015</ele>
|
|
<time>2026-07-10T13:21:35.000Z</time>
|
|
</trkpt>
|
|
<trkpt lat="55.137271" lon="8.688892">
|
|
<ele>-28.691524</ele>
|
|
<time>2026-07-10T13:21:36.000Z</time>
|
|
</trkpt>
|
|
<trkpt lat="55.137323" lon="8.688922">
|
|
<ele>-28.688061</ele>
|
|
<time>2026-07-10T13:21:37.000Z</time>
|
|
</trkpt>
|
|
<trkpt lat="55.137373" lon="8.688956">
|
|
<ele>-28.684427</ele>
|
|
<time>2026-07-10T13:21:38.000Z</time>
|
|
</trkpt>
|
|
<trkpt lat="55.137424" lon="8.688989">
|
|
<ele>-28.680743</ele>
|
|
<time>2026-07-10T13:21:39.000Z</time>
|
|
</trkpt>
|
|
<trkpt lat="55.137475" lon="8.689019">
|
|
<ele>-28.677099</ele>
|
|
<time>2026-07-10T13:21:40.000Z</time>
|
|
</trkpt>
|
|
<trkpt lat="55.137525" lon="8.689051">
|
|
<ele>-28.673492</ele>
|
|
<time>2026-07-10T13:21:41.000Z</time>
|
|
</trkpt>
|
|
<trkpt lat="55.137575" lon="8.689082">
|
|
<ele>-28.669899</ele>
|
|
<time>2026-07-10T13:21:42.000Z</time>
|
|
</trkpt>
|
|
<trkpt lat="55.137626" lon="8.689113">
|
|
<ele>-28.666241</ele>
|
|
<time>2026-07-10T13:21:43.000Z</time>
|
|
</trkpt>
|
|
<trkpt lat="55.137679" lon="8.689144">
|
|
<ele>-28.662456</ele>
|
|
<time>2026-07-10T13:21:44.000Z</time>
|
|
</trkpt>
|
|
<trkpt lat="55.137728" lon="8.689176">
|
|
<ele>-28.658913</ele>
|
|
<time>2026-07-10T13:21:45.000Z</time>
|
|
</trkpt>
|
|
<trkpt lat="55.137779" lon="8.689207">
|
|
<ele>-28.655256</ele>
|
|
<time>2026-07-10T13:21:46.000Z</time>
|
|
</trkpt>
|
|
<trkpt lat="55.137831" lon="8.689236">
|
|
<ele>-28.651558</ele>
|
|
<time>2026-07-10T13:21:47.000Z</time>
|
|
</trkpt>
|
|
<trkpt lat="55.137879" lon="8.689266">
|
|
<ele>-28.648106</ele>
|
|
<time>2026-07-10T13:21:48.000Z</time>
|
|
</trkpt>
|
|
<trkpt lat="55.137934" lon="8.689299">
|
|
<ele>-28.644167</ele>
|
|
<time>2026-07-10T13:21:49.000Z</time>
|
|
</trkpt>
|
|
<trkpt lat="55.137985" lon="8.689330">
|
|
<ele>-28.640510</ele>
|
|
<time>2026-07-10T13:21:50.000Z</time>
|
|
</trkpt>
|
|
<trkpt lat="55.138038" lon="8.689362">
|
|
<ele>-28.636712</ele>
|
|
<time>2026-07-10T13:21:51.000Z</time>
|
|
</trkpt>
|
|
<trkpt lat="55.138092" lon="8.689394">
|
|
<ele>-28.632850</ele>
|
|
<time>2026-07-10T13:21:52.000Z</time>
|
|
</trkpt>
|
|
<trkpt lat="55.138144" lon="8.689426">
|
|
<ele>-28.629116</ele>
|
|
<time>2026-07-10T13:21:53.000Z</time>
|
|
</trkpt>
|
|
<trkpt lat="55.138195" lon="8.689460">
|
|
<ele>-28.625418</ele>
|
|
<time>2026-07-10T13:21:54.000Z</time>
|
|
</trkpt>
|
|
<trkpt lat="55.138247" lon="8.689491">
|
|
<ele>-28.621697</ele>
|
|
<time>2026-07-10T13:21:55.000Z</time>
|
|
</trkpt>
|
|
<trkpt lat="55.138300" lon="8.689521">
|
|
<ele>-28.617924</ele>
|
|
<time>2026-07-10T13:21:56.000Z</time>
|
|
</trkpt>
|
|
<trkpt lat="55.138354" lon="8.689554">
|
|
<ele>-28.614049</ele>
|
|
<time>2026-07-10T13:21:57.000Z</time>
|
|
</trkpt>
|
|
<trkpt lat="55.138403" lon="8.689587">
|
|
<ele>-28.610492</ele>
|
|
<time>2026-07-10T13:21:58.000Z</time>
|
|
</trkpt>
|
|
<trkpt lat="55.138454" lon="8.689618">
|
|
<ele>-28.606835</ele>
|
|
<time>2026-07-10T13:21:59.000Z</time>
|
|
</trkpt>
|
|
<trkpt lat="55.138507" lon="8.689649">
|
|
<ele>-28.603049</ele>
|
|
<time>2026-07-10T13:22:00.000Z</time>
|
|
</trkpt>
|
|
<trkpt lat="55.138557" lon="8.689681">
|
|
<ele>-28.599443</ele>
|
|
<time>2026-07-10T13:22:01.000Z</time>
|
|
</trkpt>
|
|
<trkpt lat="55.138610" lon="8.689712">
|
|
<ele>-28.595657</ele>
|
|
<time>2026-07-10T13:22:02.000Z</time>
|
|
</trkpt>
|
|
<trkpt lat="55.138659" lon="8.689742">
|
|
<ele>-28.592141</ele>
|
|
<time>2026-07-10T13:22:03.000Z</time>
|
|
</trkpt>
|
|
<trkpt lat="55.138712" lon="8.689773">
|
|
<ele>-28.588355</ele>
|
|
<time>2026-07-10T13:22:04.000Z</time>
|
|
</trkpt>
|
|
<trkpt lat="55.138763" lon="8.689804">
|
|
<ele>-28.584698</ele>
|
|
<time>2026-07-10T13:22:05.000Z</time>
|
|
</trkpt>
|
|
<trkpt lat="55.138816" lon="8.689836">
|
|
<ele>-28.580900</ele>
|
|
<time>2026-07-10T13:22:06.000Z</time>
|
|
</trkpt>
|
|
<trkpt lat="55.138868" lon="8.689867">
|
|
<ele>-28.577179</ele>
|
|
<time>2026-07-10T13:22:07.000Z</time>
|
|
</trkpt>
|
|
<trkpt lat="55.138917" lon="8.689900">
|
|
<ele>-28.573622</ele>
|
|
<time>2026-07-10T13:22:08.000Z</time>
|
|
</trkpt>
|
|
<trkpt lat="55.138969" lon="8.689932">
|
|
<ele>-28.569888</ele>
|
|
<time>2026-07-10T13:22:09.000Z</time>
|
|
</trkpt>
|
|
<trkpt lat="55.139020" lon="8.689962">
|
|
<ele>-28.566381</ele>
|
|
<time>2026-07-10T13:22:10.000Z</time>
|
|
</trkpt>
|
|
<trkpt lat="55.139072" lon="8.689994">
|
|
<ele>-28.562798</ele>
|
|
<time>2026-07-10T13:22:11.000Z</time>
|
|
</trkpt>
|
|
<trkpt lat="55.139124" lon="8.690026">
|
|
<ele>-28.559215</ele>
|
|
<time>2026-07-10T13:22:12.000Z</time>
|
|
</trkpt>
|
|
<trkpt lat="55.139175" lon="8.690057">
|
|
<ele>-28.555706</ele>
|
|
<time>2026-07-10T13:22:13.000Z</time>
|
|
</trkpt>
|
|
<trkpt lat="55.139228" lon="8.690087">
|
|
<ele>-28.552085</ele>
|
|
<time>2026-07-10T13:22:14.000Z</time>
|
|
</trkpt>
|
|
<trkpt lat="55.139279" lon="8.690118">
|
|
<ele>-28.548576</ele>
|
|
<time>2026-07-10T13:22:15.000Z</time>
|
|
</trkpt>
|
|
<trkpt lat="55.139331" lon="8.690150">
|
|
<ele>-28.544993</ele>
|
|
<time>2026-07-10T13:22:16.000Z</time>
|
|
</trkpt>
|
|
<trkpt lat="55.139385" lon="8.690179">
|
|
<ele>-28.541321</ele>
|
|
<time>2026-07-10T13:22:17.000Z</time>
|
|
</trkpt>
|
|
<trkpt lat="55.139437" lon="8.690211">
|
|
<ele>-28.537738</ele>
|
|
<time>2026-07-10T13:22:18.000Z</time>
|
|
</trkpt>
|
|
<trkpt lat="55.139485" lon="8.690242">
|
|
<ele>-28.534413</ele>
|
|
<time>2026-07-10T13:22:19.000Z</time>
|
|
</trkpt>
|
|
<trkpt lat="55.139541" lon="8.690274">
|
|
<ele>-28.530584</ele>
|
|
<time>2026-07-10T13:22:20.000Z</time>
|
|
</trkpt>
|
|
<trkpt lat="55.139595" lon="8.690305">
|
|
<ele>-28.526890</ele>
|
|
<time>2026-07-10T13:22:21.000Z</time>
|
|
</trkpt>
|
|
<trkpt lat="55.139646" lon="8.690335">
|
|
<ele>-28.523392</ele>
|
|
<time>2026-07-10T13:22:22.000Z</time>
|
|
</trkpt>
|
|
<trkpt lat="55.139695" lon="8.690366">
|
|
<ele>-28.520006</ele>
|
|
<time>2026-07-10T13:22:23.000Z</time>
|
|
</trkpt>
|
|
<trkpt lat="55.139750" lon="8.690402">
|
|
<ele>-28.516189</ele>
|
|
<time>2026-07-10T13:22:24.000Z</time>
|
|
</trkpt>
|
|
<trkpt lat="55.139800" lon="8.690433">
|
|
<ele>-28.512741</ele>
|
|
<time>2026-07-10T13:22:25.000Z</time>
|
|
</trkpt>
|
|
<trkpt lat="55.139853" lon="8.690463">
|
|
<ele>-28.509120</ele>
|
|
<time>2026-07-10T13:22:26.000Z</time>
|
|
</trkpt>
|
|
<trkpt lat="55.139906" lon="8.690494">
|
|
<ele>-28.505488</ele>
|
|
<time>2026-07-10T13:22:27.000Z</time>
|
|
</trkpt>
|
|
<trkpt lat="55.139957" lon="8.690527">
|
|
<ele>-28.501954</ele>
|
|
<time>2026-07-10T13:22:28.000Z</time>
|
|
</trkpt>
|
|
<trkpt lat="55.140010" lon="8.690559">
|
|
<ele>-28.498309</ele>
|
|
<time>2026-07-10T13:22:29.000Z</time>
|
|
</trkpt>
|
|
<trkpt lat="55.140060" lon="8.690592">
|
|
<ele>-28.494836</ele>
|
|
<time>2026-07-10T13:22:30.000Z</time>
|
|
</trkpt>
|
|
<trkpt lat="55.140113" lon="8.690624">
|
|
<ele>-28.491192</ele>
|
|
<time>2026-07-10T13:22:31.000Z</time>
|
|
</trkpt>
|
|
<trkpt lat="55.140162" lon="8.690658">
|
|
<ele>-28.487765</ele>
|
|
<time>2026-07-10T13:22:32.000Z</time>
|
|
</trkpt>
|
|
<trkpt lat="55.140208" lon="8.690691">
|
|
<ele>-28.484534</ele>
|
|
<time>2026-07-10T13:22:33.000Z</time>
|
|
</trkpt>
|
|
<trkpt lat="55.140246" lon="8.690718">
|
|
<ele>-28.481868</ele>
|
|
<time>2026-07-10T13:22:34.000Z</time>
|
|
</trkpt>
|
|
<trkpt lat="55.140306" lon="8.690764">
|
|
<ele>-28.477610</ele>
|
|
<time>2026-07-10T13:22:35.000Z</time>
|
|
</trkpt>
|
|
<trkpt lat="55.140360" lon="8.690800">
|
|
<ele>-28.473854</ele>
|
|
<time>2026-07-10T13:22:36.000Z</time>
|
|
</trkpt>
|
|
<trkpt lat="55.140410" lon="8.690835">
|
|
<ele>-28.470354</ele>
|
|
<time>2026-07-10T13:22:37.000Z</time>
|
|
</trkpt>
|
|
<trkpt lat="55.140458" lon="8.690867">
|
|
<ele>-28.467015</ele>
|
|
<time>2026-07-10T13:22:38.000Z</time>
|
|
</trkpt>
|
|
<trkpt lat="55.140504" lon="8.690899">
|
|
<ele>-28.463797</ele>
|
|
<time>2026-07-10T13:22:39.000Z</time>
|
|
</trkpt>
|
|
<trkpt lat="55.140553" lon="8.690931">
|
|
<ele>-28.460398</ele>
|
|
<time>2026-07-10T13:22:40.000Z</time>
|
|
</trkpt>
|
|
<trkpt lat="55.140598" lon="8.690957">
|
|
<ele>-28.457318</ele>
|
|
<time>2026-07-10T13:22:41.000Z</time>
|
|
</trkpt>
|
|
<trkpt lat="55.140647" lon="8.690985">
|
|
<ele>-28.453967</ele>
|
|
<time>2026-07-10T13:22:42.000Z</time>
|
|
</trkpt>
|
|
<trkpt lat="55.140690" lon="8.691010">
|
|
<ele>-28.454556</ele>
|
|
<time>2026-07-10T13:22:43.000Z</time>
|
|
</trkpt>
|
|
<trkpt lat="55.140732" lon="8.691031">
|
|
<ele>-28.457566</ele>
|
|
<time>2026-07-10T13:22:44.000Z</time>
|
|
</trkpt>
|
|
<trkpt lat="55.140771" lon="8.691045">
|
|
<ele>-28.460310</ele>
|
|
<time>2026-07-10T13:22:45.000Z</time>
|
|
</trkpt>
|
|
<trkpt lat="55.140803" lon="8.691052">
|
|
<ele>-28.462532</ele>
|
|
<time>2026-07-10T13:22:46.000Z</time>
|
|
</trkpt>
|
|
<trkpt lat="55.140838" lon="8.691055">
|
|
<ele>-28.464946</ele>
|
|
<time>2026-07-10T13:22:47.000Z</time>
|
|
</trkpt>
|
|
<trkpt lat="55.140867" lon="8.691054">
|
|
<ele>-28.466945</ele>
|
|
<time>2026-07-10T13:22:48.000Z</time>
|
|
</trkpt>
|
|
<trkpt lat="55.140888" lon="8.691055">
|
|
<ele>-28.468393</ele>
|
|
<time>2026-07-10T13:22:49.000Z</time>
|
|
</trkpt>
|
|
<trkpt lat="55.140898" lon="8.691056">
|
|
<ele>-28.469083</ele>
|
|
<time>2026-07-10T13:22:50.000Z</time>
|
|
</trkpt>
|
|
<trkpt lat="55.141025" lon="8.691148">
|
|
<ele>-28.478554</ele>
|
|
<time>2026-07-10T13:23:10.000Z</time>
|
|
</trkpt>
|
|
<trkpt lat="55.141035" lon="8.691152">
|
|
<ele>-28.479261</ele>
|
|
<time>2026-07-10T13:23:11.000Z</time>
|
|
</trkpt>
|
|
<trkpt lat="55.141047" lon="8.691158">
|
|
<ele>-28.480121</ele>
|
|
<time>2026-07-10T13:23:12.000Z</time>
|
|
</trkpt>
|
|
<trkpt lat="55.141055" lon="8.691163">
|
|
<ele>-28.480707</ele>
|
|
<time>2026-07-10T13:23:13.000Z</time>
|
|
</trkpt>
|
|
<trkpt lat="55.141067" lon="8.691169">
|
|
<ele>-28.481567</ele>
|
|
<time>2026-07-10T13:23:14.000Z</time>
|
|
</trkpt>
|
|
<trkpt lat="55.141078" lon="8.691178">
|
|
<ele>-28.482403</ele>
|
|
<time>2026-07-10T13:23:15.000Z</time>
|
|
</trkpt>
|
|
<trkpt lat="55.141091" lon="8.691185">
|
|
<ele>-28.483341</ele>
|
|
<time>2026-07-10T13:23:16.000Z</time>
|
|
</trkpt>
|
|
<trkpt lat="55.141105" lon="8.691192">
|
|
<ele>-28.484344</ele>
|
|
<time>2026-07-10T13:23:17.000Z</time>
|
|
</trkpt>
|
|
<trkpt lat="55.141117" lon="8.691199">
|
|
<ele>-28.485215</ele>
|
|
<time>2026-07-10T13:23:18.000Z</time>
|
|
</trkpt>
|
|
<trkpt lat="55.141129" lon="8.691207">
|
|
<ele>-28.486100</ele>
|
|
<time>2026-07-10T13:23:19.000Z</time>
|
|
</trkpt>
|
|
<trkpt lat="55.141143" lon="8.691214">
|
|
<ele>-28.487104</ele>
|
|
<time>2026-07-10T13:23:20.000Z</time>
|
|
</trkpt>
|
|
<trkpt lat="55.141155" lon="8.691220">
|
|
<ele>-28.487964</ele>
|
|
<time>2026-07-10T13:23:21.000Z</time>
|
|
</trkpt>
|
|
<trkpt lat="55.141166" lon="8.691227">
|
|
<ele>-28.488770</ele>
|
|
<time>2026-07-10T13:23:22.000Z</time>
|
|
</trkpt>
|
|
<trkpt lat="55.141179" lon="8.691233">
|
|
<ele>-28.489697</ele>
|
|
<time>2026-07-10T13:23:23.000Z</time>
|
|
</trkpt>
|
|
<trkpt lat="55.141193" lon="8.691238">
|
|
<ele>-28.490681</ele>
|
|
<time>2026-07-10T13:23:24.000Z</time>
|
|
</trkpt>
|
|
<trkpt lat="55.141203" lon="8.691245">
|
|
<ele>-28.491423</ele>
|
|
<time>2026-07-10T13:23:25.000Z</time>
|
|
</trkpt>
|
|
<trkpt lat="55.141212" lon="8.691249">
|
|
<ele>-28.492063</ele>
|
|
<time>2026-07-10T13:23:26.000Z</time>
|
|
</trkpt>
|
|
<trkpt lat="55.141222" lon="8.691252">
|
|
<ele>-28.492762</ele>
|
|
<time>2026-07-10T13:23:27.000Z</time>
|
|
</trkpt>
|
|
<trkpt lat="55.141228" lon="8.691255">
|
|
<ele>-28.493192</ele>
|
|
<time>2026-07-10T13:23:28.000Z</time>
|
|
</trkpt>
|
|
<trkpt lat="55.141228" lon="8.691255">
|
|
<ele>-28.493192</ele>
|
|
<time>2026-07-10T13:23:32.000Z</time>
|
|
</trkpt>
|
|
<trkpt lat="55.141236" lon="8.691261">
|
|
<ele>-28.493792</ele>
|
|
<time>2026-07-10T13:25:06.000Z</time>
|
|
</trkpt>
|
|
<trkpt lat="55.141262" lon="8.691281">
|
|
<ele>-28.495749</ele>
|
|
<time>2026-07-10T13:25:07.000Z</time>
|
|
</trkpt>
|
|
<trkpt lat="55.141280" lon="8.691296">
|
|
<ele>-28.497123</ele>
|
|
<time>2026-07-10T13:25:08.000Z</time>
|
|
</trkpt>
|
|
<trkpt lat="55.141302" lon="8.691312">
|
|
<ele>-28.498765</ele>
|
|
<time>2026-07-10T13:25:09.000Z</time>
|
|
</trkpt>
|
|
<trkpt lat="55.141324" lon="8.691329">
|
|
<ele>-28.500422</ele>
|
|
<time>2026-07-10T13:25:10.000Z</time>
|
|
</trkpt>
|
|
<trkpt lat="55.141354" lon="8.691355">
|
|
<ele>-28.502729</ele>
|
|
<time>2026-07-10T13:25:11.000Z</time>
|
|
</trkpt>
|
|
<trkpt lat="55.141386" lon="8.691379">
|
|
<ele>-28.505128</ele>
|
|
<time>2026-07-10T13:25:12.000Z</time>
|
|
</trkpt>
|
|
<trkpt lat="55.141421" lon="8.691401">
|
|
<ele>-28.507690</ele>
|
|
<time>2026-07-10T13:25:13.000Z</time>
|
|
</trkpt>
|
|
<trkpt lat="55.141456" lon="8.691423">
|
|
<ele>-28.510253</ele>
|
|
<time>2026-07-10T13:25:14.000Z</time>
|
|
</trkpt>
|
|
<trkpt lat="55.141494" lon="8.691447">
|
|
<ele>-28.513037</ele>
|
|
<time>2026-07-10T13:25:15.000Z</time>
|
|
</trkpt>
|
|
<trkpt lat="55.141533" lon="8.691473">
|
|
<ele>-28.515913</ele>
|
|
<time>2026-07-10T13:25:16.000Z</time>
|
|
</trkpt>
|
|
<trkpt lat="55.141571" lon="8.691500">
|
|
<ele>-28.518739</ele>
|
|
<time>2026-07-10T13:25:17.000Z</time>
|
|
</trkpt>
|
|
<trkpt lat="55.141610" lon="8.691527">
|
|
<ele>-28.521629</ele>
|
|
<time>2026-07-10T13:25:18.000Z</time>
|
|
</trkpt>
|
|
<trkpt lat="55.141651" lon="8.691554">
|
|
<ele>-28.524648</ele>
|
|
<time>2026-07-10T13:25:19.000Z</time>
|
|
</trkpt>
|
|
<trkpt lat="55.141690" lon="8.691580">
|
|
<ele>-28.527523</ele>
|
|
<time>2026-07-10T13:25:20.000Z</time>
|
|
</trkpt>
|
|
<trkpt lat="55.141731" lon="8.691608">
|
|
<ele>-28.530556</ele>
|
|
<time>2026-07-10T13:25:21.000Z</time>
|
|
</trkpt>
|
|
<trkpt lat="55.141770" lon="8.691634">
|
|
<ele>-28.533432</ele>
|
|
<time>2026-07-10T13:25:22.000Z</time>
|
|
</trkpt>
|
|
<trkpt lat="55.141811" lon="8.691661">
|
|
<ele>-28.536451</ele>
|
|
<time>2026-07-10T13:25:23.000Z</time>
|
|
</trkpt>
|
|
<trkpt lat="55.141853" lon="8.691688">
|
|
<ele>-28.539534</ele>
|
|
<time>2026-07-10T13:25:24.000Z</time>
|
|
</trkpt>
|
|
<trkpt lat="55.141892" lon="8.691716">
|
|
<ele>-28.542439</ele>
|
|
<time>2026-07-10T13:25:25.000Z</time>
|
|
</trkpt>
|
|
<trkpt lat="55.141935" lon="8.691741">
|
|
<ele>-28.545561</ele>
|
|
<time>2026-07-10T13:25:26.000Z</time>
|
|
</trkpt>
|
|
<trkpt lat="55.141981" lon="8.691768">
|
|
<ele>-28.548904</ele>
|
|
<time>2026-07-10T13:25:27.000Z</time>
|
|
</trkpt>
|
|
<trkpt lat="55.142026" lon="8.691795">
|
|
<ele>-28.552182</ele>
|
|
<time>2026-07-10T13:25:28.000Z</time>
|
|
</trkpt>
|
|
<trkpt lat="55.142069" lon="8.691821">
|
|
<ele>-28.555317</ele>
|
|
<time>2026-07-10T13:25:29.000Z</time>
|
|
</trkpt>
|
|
<trkpt lat="55.142114" lon="8.691848">
|
|
<ele>-28.558595</ele>
|
|
<time>2026-07-10T13:25:30.000Z</time>
|
|
</trkpt>
|
|
<trkpt lat="55.142161" lon="8.691875">
|
|
<ele>-28.562004</ele>
|
|
<time>2026-07-10T13:25:31.000Z</time>
|
|
</trkpt>
|
|
<trkpt lat="55.142210" lon="8.691901">
|
|
<ele>-28.565532</ele>
|
|
<time>2026-07-10T13:25:32.000Z</time>
|
|
</trkpt>
|
|
<trkpt lat="55.142255" lon="8.691925">
|
|
<ele>-28.568774</ele>
|
|
<time>2026-07-10T13:25:33.000Z</time>
|
|
</trkpt>
|
|
<trkpt lat="55.142302" lon="8.691947">
|
|
<ele>-28.572126</ele>
|
|
<time>2026-07-10T13:25:34.000Z</time>
|
|
</trkpt>
|
|
<trkpt lat="55.142349" lon="8.691968">
|
|
<ele>-28.575469</ele>
|
|
<time>2026-07-10T13:25:35.000Z</time>
|
|
</trkpt>
|
|
<trkpt lat="55.142397" lon="8.691990">
|
|
<ele>-28.576732</ele>
|
|
<time>2026-07-10T13:25:36.000Z</time>
|
|
</trkpt>
|
|
<trkpt lat="55.142444" lon="8.692015">
|
|
<ele>-28.576819</ele>
|
|
<time>2026-07-10T13:25:37.000Z</time>
|
|
</trkpt>
|
|
<trkpt lat="55.142492" lon="8.692042">
|
|
<ele>-28.576908</ele>
|
|
<time>2026-07-10T13:25:38.000Z</time>
|
|
</trkpt>
|
|
<trkpt lat="55.142539" lon="8.692070">
|
|
<ele>-28.576995</ele>
|
|
<time>2026-07-10T13:25:39.000Z</time>
|
|
</trkpt>
|
|
<trkpt lat="55.142588" lon="8.692100">
|
|
<ele>-28.577086</ele>
|
|
<time>2026-07-10T13:25:40.000Z</time>
|
|
</trkpt>
|
|
<trkpt lat="55.142635" lon="8.692128">
|
|
<ele>-28.577174</ele>
|
|
<time>2026-07-10T13:25:41.000Z</time>
|
|
</trkpt>
|
|
<trkpt lat="55.142684" lon="8.692156">
|
|
<ele>-28.577265</ele>
|
|
<time>2026-07-10T13:25:42.000Z</time>
|
|
</trkpt>
|
|
<trkpt lat="55.142733" lon="8.692183">
|
|
<ele>-28.577355</ele>
|
|
<time>2026-07-10T13:25:43.000Z</time>
|
|
</trkpt>
|
|
<trkpt lat="55.142781" lon="8.692211">
|
|
<ele>-28.577444</ele>
|
|
<time>2026-07-10T13:25:44.000Z</time>
|
|
</trkpt>
|
|
<trkpt lat="55.142832" lon="8.692242">
|
|
<ele>-28.577540</ele>
|
|
<time>2026-07-10T13:25:45.000Z</time>
|
|
</trkpt>
|
|
<trkpt lat="55.142878" lon="8.692270">
|
|
<ele>-28.577625</ele>
|
|
<time>2026-07-10T13:25:46.000Z</time>
|
|
</trkpt>
|
|
<trkpt lat="55.142928" lon="8.692299">
|
|
<ele>-28.577718</ele>
|
|
<time>2026-07-10T13:25:47.000Z</time>
|
|
</trkpt>
|
|
<trkpt lat="55.142977" lon="8.692331">
|
|
<ele>-28.577810</ele>
|
|
<time>2026-07-10T13:25:48.000Z</time>
|
|
</trkpt>
|
|
<trkpt lat="55.143024" lon="8.692362">
|
|
<ele>-28.577899</ele>
|
|
<time>2026-07-10T13:25:49.000Z</time>
|
|
</trkpt>
|
|
<trkpt lat="55.143073" lon="8.692393">
|
|
<ele>-28.577991</ele>
|
|
<time>2026-07-10T13:25:50.000Z</time>
|
|
</trkpt>
|
|
<trkpt lat="55.143122" lon="8.692422">
|
|
<ele>-28.578082</ele>
|
|
<time>2026-07-10T13:25:51.000Z</time>
|
|
</trkpt>
|
|
<trkpt lat="55.143167" lon="8.692451">
|
|
<ele>-28.578166</ele>
|
|
<time>2026-07-10T13:25:52.000Z</time>
|
|
</trkpt>
|
|
<trkpt lat="55.143214" lon="8.692479">
|
|
<ele>-28.578254</ele>
|
|
<time>2026-07-10T13:25:53.000Z</time>
|
|
</trkpt>
|
|
<trkpt lat="55.143264" lon="8.692509">
|
|
<ele>-28.578347</ele>
|
|
<time>2026-07-10T13:25:54.000Z</time>
|
|
</trkpt>
|
|
<trkpt lat="55.143314" lon="8.692539">
|
|
<ele>-28.578440</ele>
|
|
<time>2026-07-10T13:25:55.000Z</time>
|
|
</trkpt>
|
|
<trkpt lat="55.143363" lon="8.692571">
|
|
<ele>-28.578532</ele>
|
|
<time>2026-07-10T13:25:56.000Z</time>
|
|
</trkpt>
|
|
<trkpt lat="55.143413" lon="8.692603">
|
|
<ele>-28.578626</ele>
|
|
<time>2026-07-10T13:25:57.000Z</time>
|
|
</trkpt>
|
|
<trkpt lat="55.143463" lon="8.692634">
|
|
<ele>-28.578719</ele>
|
|
<time>2026-07-10T13:25:58.000Z</time>
|
|
</trkpt>
|
|
<trkpt lat="55.143512" lon="8.692663">
|
|
<ele>-28.578811</ele>
|
|
<time>2026-07-10T13:25:59.000Z</time>
|
|
</trkpt>
|
|
<trkpt lat="55.143561" lon="8.692693">
|
|
<ele>-28.578902</ele>
|
|
<time>2026-07-10T13:26:00.000Z</time>
|
|
</trkpt>
|
|
<trkpt lat="55.143610" lon="8.692724">
|
|
<ele>-28.578994</ele>
|
|
<time>2026-07-10T13:26:01.000Z</time>
|
|
</trkpt>
|
|
<trkpt lat="55.143656" lon="8.692756">
|
|
<ele>-28.579081</ele>
|
|
<time>2026-07-10T13:26:02.000Z</time>
|
|
</trkpt>
|
|
<trkpt lat="55.143704" lon="8.692785">
|
|
<ele>-28.579171</ele>
|
|
<time>2026-07-10T13:26:03.000Z</time>
|
|
</trkpt>
|
|
<trkpt lat="55.143755" lon="8.692815">
|
|
<ele>-28.579265</ele>
|
|
<time>2026-07-10T13:26:04.000Z</time>
|
|
</trkpt>
|
|
<trkpt lat="55.143802" lon="8.692843">
|
|
<ele>-28.579353</ele>
|
|
<time>2026-07-10T13:26:05.000Z</time>
|
|
</trkpt>
|
|
<trkpt lat="55.143852" lon="8.692872">
|
|
<ele>-28.579446</ele>
|
|
<time>2026-07-10T13:26:06.000Z</time>
|
|
</trkpt>
|
|
<trkpt lat="55.143900" lon="8.692902">
|
|
<ele>-28.579535</ele>
|
|
<time>2026-07-10T13:26:07.000Z</time>
|
|
</trkpt>
|
|
<trkpt lat="55.143947" lon="8.692934">
|
|
<ele>-28.579624</ele>
|
|
<time>2026-07-10T13:26:08.000Z</time>
|
|
</trkpt>
|
|
<trkpt lat="55.143996" lon="8.692964">
|
|
<ele>-28.579716</ele>
|
|
<time>2026-07-10T13:26:09.000Z</time>
|
|
</trkpt>
|
|
<trkpt lat="55.144045" lon="8.692994">
|
|
<ele>-28.579807</ele>
|
|
<time>2026-07-10T13:26:10.000Z</time>
|
|
</trkpt>
|
|
<trkpt lat="55.144092" lon="8.693024">
|
|
<ele>-28.579939</ele>
|
|
<time>2026-07-10T13:26:11.000Z</time>
|
|
</trkpt>
|
|
<trkpt lat="55.144140" lon="8.693053">
|
|
<ele>-28.580106</ele>
|
|
<time>2026-07-10T13:26:12.000Z</time>
|
|
</trkpt>
|
|
<trkpt lat="55.144185" lon="8.693081">
|
|
<ele>-28.580263</ele>
|
|
<time>2026-07-10T13:26:13.000Z</time>
|
|
</trkpt>
|
|
<trkpt lat="55.144232" lon="8.693112">
|
|
<ele>-28.580429</ele>
|
|
<time>2026-07-10T13:26:14.000Z</time>
|
|
</trkpt>
|
|
<trkpt lat="55.144281" lon="8.693140">
|
|
<ele>-28.580598</ele>
|
|
<time>2026-07-10T13:26:15.000Z</time>
|
|
</trkpt>
|
|
<trkpt lat="55.144327" lon="8.693169">
|
|
<ele>-28.580759</ele>
|
|
<time>2026-07-10T13:26:16.000Z</time>
|
|
</trkpt>
|
|
<trkpt lat="55.144373" lon="8.693197">
|
|
<ele>-28.580919</ele>
|
|
<time>2026-07-10T13:26:17.000Z</time>
|
|
</trkpt>
|
|
<trkpt lat="55.144419" lon="8.693223">
|
|
<ele>-28.581078</ele>
|
|
<time>2026-07-10T13:26:18.000Z</time>
|
|
</trkpt>
|
|
<trkpt lat="55.144464" lon="8.693248">
|
|
<ele>-28.581233</ele>
|
|
<time>2026-07-10T13:26:19.000Z</time>
|
|
</trkpt>
|
|
<trkpt lat="55.144510" lon="8.693277">
|
|
<ele>-28.581394</ele>
|
|
<time>2026-07-10T13:26:20.000Z</time>
|
|
</trkpt>
|
|
<trkpt lat="55.144556" lon="8.693304">
|
|
<ele>-28.581554</ele>
|
|
<time>2026-07-10T13:26:21.000Z</time>
|
|
</trkpt>
|
|
<trkpt lat="55.144603" lon="8.693331">
|
|
<ele>-28.581716</ele>
|
|
<time>2026-07-10T13:26:22.000Z</time>
|
|
</trkpt>
|
|
<trkpt lat="55.144652" lon="8.693358">
|
|
<ele>-28.581885</ele>
|
|
<time>2026-07-10T13:26:23.000Z</time>
|
|
</trkpt>
|
|
<trkpt lat="55.144698" lon="8.693386">
|
|
<ele>-28.582046</ele>
|
|
<time>2026-07-10T13:26:24.000Z</time>
|
|
</trkpt>
|
|
<trkpt lat="55.144747" lon="8.693413">
|
|
<ele>-28.582215</ele>
|
|
<time>2026-07-10T13:26:25.000Z</time>
|
|
</trkpt>
|
|
<trkpt lat="55.144793" lon="8.693440">
|
|
<ele>-28.582374</ele>
|
|
<time>2026-07-10T13:26:26.000Z</time>
|
|
</trkpt>
|
|
<trkpt lat="55.144838" lon="8.693470">
|
|
<ele>-28.582533</ele>
|
|
<time>2026-07-10T13:26:27.000Z</time>
|
|
</trkpt>
|
|
<trkpt lat="55.144884" lon="8.693498">
|
|
<ele>-28.582693</ele>
|
|
<time>2026-07-10T13:26:28.000Z</time>
|
|
</trkpt>
|
|
<trkpt lat="55.144932" lon="8.693525">
|
|
<ele>-28.582859</ele>
|
|
<time>2026-07-10T13:26:29.000Z</time>
|
|
</trkpt>
|
|
<trkpt lat="55.144983" lon="8.693555">
|
|
<ele>-28.583036</ele>
|
|
<time>2026-07-10T13:26:30.000Z</time>
|
|
</trkpt>
|
|
<trkpt lat="55.145029" lon="8.693585">
|
|
<ele>-28.583197</ele>
|
|
<time>2026-07-10T13:26:31.000Z</time>
|
|
</trkpt>
|
|
<trkpt lat="55.145076" lon="8.693615">
|
|
<ele>-28.583362</ele>
|
|
<time>2026-07-10T13:26:32.000Z</time>
|
|
</trkpt>
|
|
<trkpt lat="55.145124" lon="8.693643">
|
|
<ele>-28.583528</ele>
|
|
<time>2026-07-10T13:26:33.000Z</time>
|
|
</trkpt>
|
|
<trkpt lat="55.145171" lon="8.693672">
|
|
<ele>-28.583692</ele>
|
|
<time>2026-07-10T13:26:34.000Z</time>
|
|
</trkpt>
|
|
<trkpt lat="55.145220" lon="8.693700">
|
|
<ele>-28.583861</ele>
|
|
<time>2026-07-10T13:26:35.000Z</time>
|
|
</trkpt>
|
|
<trkpt lat="55.145267" lon="8.693728">
|
|
<ele>-28.584025</ele>
|
|
<time>2026-07-10T13:26:36.000Z</time>
|
|
</trkpt>
|
|
<trkpt lat="55.145316" lon="8.693757">
|
|
<ele>-28.584195</ele>
|
|
<time>2026-07-10T13:26:37.000Z</time>
|
|
</trkpt>
|
|
<trkpt lat="55.145365" lon="8.693787">
|
|
<ele>-28.584366</ele>
|
|
<time>2026-07-10T13:26:38.000Z</time>
|
|
</trkpt>
|
|
<trkpt lat="55.145412" lon="8.693817">
|
|
<ele>-28.584530</ele>
|
|
<time>2026-07-10T13:26:39.000Z</time>
|
|
</trkpt>
|
|
<trkpt lat="55.145461" lon="8.693845">
|
|
<ele>-28.584700</ele>
|
|
<time>2026-07-10T13:26:40.000Z</time>
|
|
</trkpt>
|
|
<trkpt lat="55.145511" lon="8.693876">
|
|
<ele>-28.584874</ele>
|
|
<time>2026-07-10T13:26:41.000Z</time>
|
|
</trkpt>
|
|
<trkpt lat="55.145560" lon="8.693905">
|
|
<ele>-28.585044</ele>
|
|
<time>2026-07-10T13:26:42.000Z</time>
|
|
</trkpt>
|
|
<trkpt lat="55.145610" lon="8.693935">
|
|
<ele>-28.585218</ele>
|
|
<time>2026-07-10T13:26:43.000Z</time>
|
|
</trkpt>
|
|
<trkpt lat="55.145659" lon="8.693964">
|
|
<ele>-28.585388</ele>
|
|
<time>2026-07-10T13:26:44.000Z</time>
|
|
</trkpt>
|
|
<trkpt lat="55.145709" lon="8.693995">
|
|
<ele>-28.585563</ele>
|
|
<time>2026-07-10T13:26:45.000Z</time>
|
|
</trkpt>
|
|
<trkpt lat="55.145759" lon="8.694028">
|
|
<ele>-28.585738</ele>
|
|
<time>2026-07-10T13:26:46.000Z</time>
|
|
</trkpt>
|
|
<trkpt lat="55.145809" lon="8.694059">
|
|
<ele>-28.587183</ele>
|
|
<time>2026-07-10T13:26:47.000Z</time>
|
|
</trkpt>
|
|
<trkpt lat="55.145862" lon="8.694089">
|
|
<ele>-28.588892</ele>
|
|
<time>2026-07-10T13:26:48.000Z</time>
|
|
</trkpt>
|
|
<trkpt lat="55.145911" lon="8.694120">
|
|
<ele>-28.590489</ele>
|
|
<time>2026-07-10T13:26:49.000Z</time>
|
|
</trkpt>
|
|
<trkpt lat="55.145962" lon="8.694153">
|
|
<ele>-28.592157</ele>
|
|
<time>2026-07-10T13:26:50.000Z</time>
|
|
</trkpt>
|
|
<trkpt lat="55.146016" lon="8.694184">
|
|
<ele>-28.593900</ele>
|
|
<time>2026-07-10T13:26:51.000Z</time>
|
|
</trkpt>
|
|
<trkpt lat="55.146068" lon="8.694213">
|
|
<ele>-28.595573</ele>
|
|
<time>2026-07-10T13:26:52.000Z</time>
|
|
</trkpt>
|
|
<trkpt lat="55.146119" lon="8.694242">
|
|
<ele>-28.597218</ele>
|
|
<time>2026-07-10T13:26:53.000Z</time>
|
|
</trkpt>
|
|
<trkpt lat="55.146171" lon="8.694275">
|
|
<ele>-28.598914</ele>
|
|
<time>2026-07-10T13:26:54.000Z</time>
|
|
</trkpt>
|
|
<trkpt lat="55.146220" lon="8.694306">
|
|
<ele>-28.600512</ele>
|
|
<time>2026-07-10T13:26:55.000Z</time>
|
|
</trkpt>
|
|
<trkpt lat="55.146270" lon="8.694337">
|
|
<ele>-28.602139</ele>
|
|
<time>2026-07-10T13:26:56.000Z</time>
|
|
</trkpt>
|
|
<trkpt lat="55.146321" lon="8.694367">
|
|
<ele>-28.603789</ele>
|
|
<time>2026-07-10T13:26:57.000Z</time>
|
|
</trkpt>
|
|
<trkpt lat="55.146373" lon="8.694398">
|
|
<ele>-28.605473</ele>
|
|
<time>2026-07-10T13:26:58.000Z</time>
|
|
</trkpt>
|
|
<trkpt lat="55.146424" lon="8.694430">
|
|
<ele>-28.607135</ele>
|
|
<time>2026-07-10T13:26:59.000Z</time>
|
|
</trkpt>
|
|
<trkpt lat="55.146476" lon="8.694462">
|
|
<ele>-28.608825</ele>
|
|
<time>2026-07-10T13:27:00.000Z</time>
|
|
</trkpt>
|
|
<trkpt lat="55.146526" lon="8.694492">
|
|
<ele>-28.610446</ele>
|
|
<time>2026-07-10T13:27:01.000Z</time>
|
|
</trkpt>
|
|
<trkpt lat="55.146575" lon="8.694522">
|
|
<ele>-28.612038</ele>
|
|
<time>2026-07-10T13:27:02.000Z</time>
|
|
</trkpt>
|
|
<trkpt lat="55.146623" lon="8.694553">
|
|
<ele>-28.613607</ele>
|
|
<time>2026-07-10T13:27:03.000Z</time>
|
|
</trkpt>
|
|
<trkpt lat="55.146676" lon="8.694585">
|
|
<ele>-28.615326</ele>
|
|
<time>2026-07-10T13:27:04.000Z</time>
|
|
</trkpt>
|
|
<trkpt lat="55.146728" lon="8.694614">
|
|
<ele>-28.617000</ele>
|
|
<time>2026-07-10T13:27:05.000Z</time>
|
|
</trkpt>
|
|
<trkpt lat="55.146779" lon="8.694645">
|
|
<ele>-28.618655</ele>
|
|
<time>2026-07-10T13:27:06.000Z</time>
|
|
</trkpt>
|
|
<trkpt lat="55.146830" lon="8.694676">
|
|
<ele>-28.620311</ele>
|
|
<time>2026-07-10T13:27:07.000Z</time>
|
|
</trkpt>
|
|
<trkpt lat="55.146878" lon="8.694707">
|
|
<ele>-28.621880</ele>
|
|
<time>2026-07-10T13:27:08.000Z</time>
|
|
</trkpt>
|
|
<trkpt lat="55.146930" lon="8.694736">
|
|
<ele>-28.623554</ele>
|
|
<time>2026-07-10T13:27:09.000Z</time>
|
|
</trkpt>
|
|
<trkpt lat="55.146981" lon="8.694768">
|
|
<ele>-28.625215</ele>
|
|
<time>2026-07-10T13:27:10.000Z</time>
|
|
</trkpt>
|
|
<trkpt lat="55.147033" lon="8.694799">
|
|
<ele>-28.626900</ele>
|
|
<time>2026-07-10T13:27:11.000Z</time>
|
|
</trkpt>
|
|
<trkpt lat="55.147083" lon="8.694831">
|
|
<ele>-28.628532</ele>
|
|
<time>2026-07-10T13:27:12.000Z</time>
|
|
</trkpt>
|
|
<trkpt lat="55.147132" lon="8.694863">
|
|
<ele>-28.630136</ele>
|
|
<time>2026-07-10T13:27:13.000Z</time>
|
|
</trkpt>
|
|
<trkpt lat="55.147182" lon="8.694895">
|
|
<ele>-28.631769</ele>
|
|
<time>2026-07-10T13:27:14.000Z</time>
|
|
</trkpt>
|
|
<trkpt lat="55.147232" lon="8.694928">
|
|
<ele>-28.633408</ele>
|
|
<time>2026-07-10T13:27:15.000Z</time>
|
|
</trkpt>
|
|
<trkpt lat="55.147285" lon="8.694959">
|
|
<ele>-28.635121</ele>
|
|
<time>2026-07-10T13:27:16.000Z</time>
|
|
</trkpt>
|
|
<trkpt lat="55.147335" lon="8.694991">
|
|
<ele>-28.636754</ele>
|
|
<time>2026-07-10T13:27:17.000Z</time>
|
|
</trkpt>
|
|
<trkpt lat="55.147384" lon="8.695023">
|
|
<ele>-28.638358</ele>
|
|
<time>2026-07-10T13:27:18.000Z</time>
|
|
</trkpt>
|
|
<trkpt lat="55.147433" lon="8.695055">
|
|
<ele>-28.639962</ele>
|
|
<time>2026-07-10T13:27:19.000Z</time>
|
|
</trkpt>
|
|
<trkpt lat="55.147483" lon="8.695091">
|
|
<ele>-28.641954</ele>
|
|
<time>2026-07-10T13:27:20.000Z</time>
|
|
</trkpt>
|
|
<trkpt lat="55.147531" lon="8.695131">
|
|
<ele>-28.644361</ele>
|
|
<time>2026-07-10T13:27:21.000Z</time>
|
|
</trkpt>
|
|
<trkpt lat="55.147578" lon="8.695172">
|
|
<ele>-28.646738</ele>
|
|
<time>2026-07-10T13:27:22.000Z</time>
|
|
</trkpt>
|
|
<trkpt lat="55.147628" lon="8.695214">
|
|
<ele>-28.649249</ele>
|
|
<time>2026-07-10T13:27:23.000Z</time>
|
|
</trkpt>
|
|
<trkpt lat="55.147676" lon="8.695258">
|
|
<ele>-28.651702</ele>
|
|
<time>2026-07-10T13:27:24.000Z</time>
|
|
</trkpt>
|
|
<trkpt lat="55.147722" lon="8.695303">
|
|
<ele>-28.654088</ele>
|
|
<time>2026-07-10T13:27:25.000Z</time>
|
|
</trkpt>
|
|
<trkpt lat="55.147768" lon="8.695351">
|
|
<ele>-28.656513</ele>
|
|
<time>2026-07-10T13:27:26.000Z</time>
|
|
</trkpt>
|
|
<trkpt lat="55.147815" lon="8.695399">
|
|
<ele>-28.658976</ele>
|
|
<time>2026-07-10T13:27:27.000Z</time>
|
|
</trkpt>
|
|
<trkpt lat="55.147863" lon="8.695449">
|
|
<ele>-28.661505</ele>
|
|
<time>2026-07-10T13:27:28.000Z</time>
|
|
</trkpt>
|
|
<trkpt lat="55.147910" lon="8.695500">
|
|
<ele>-28.664009</ele>
|
|
<time>2026-07-10T13:27:29.000Z</time>
|
|
</trkpt>
|
|
<trkpt lat="55.147956" lon="8.695550">
|
|
<ele>-28.666460</ele>
|
|
<time>2026-07-10T13:27:30.000Z</time>
|
|
</trkpt>
|
|
<trkpt lat="55.148005" lon="8.695600">
|
|
<ele>-28.669028</ele>
|
|
<time>2026-07-10T13:27:31.000Z</time>
|
|
</trkpt>
|
|
<trkpt lat="55.148052" lon="8.695652">
|
|
<ele>-28.671545</ele>
|
|
<time>2026-07-10T13:27:32.000Z</time>
|
|
</trkpt>
|
|
<trkpt lat="55.148100" lon="8.695703">
|
|
<ele>-28.674087</ele>
|
|
<time>2026-07-10T13:27:33.000Z</time>
|
|
</trkpt>
|
|
<trkpt lat="55.148146" lon="8.695752">
|
|
<ele>-28.676525</ele>
|
|
<time>2026-07-10T13:27:34.000Z</time>
|
|
</trkpt>
|
|
<trkpt lat="55.148192" lon="8.695803">
|
|
<ele>-28.678990</ele>
|
|
<time>2026-07-10T13:27:35.000Z</time>
|
|
</trkpt>
|
|
<trkpt lat="55.148237" lon="8.695853">
|
|
<ele>-28.681404</ele>
|
|
<time>2026-07-10T13:27:36.000Z</time>
|
|
</trkpt>
|
|
<trkpt lat="55.148283" lon="8.695905">
|
|
<ele>-28.683883</ele>
|
|
<time>2026-07-10T13:27:37.000Z</time>
|
|
</trkpt>
|
|
<trkpt lat="55.148329" lon="8.695957">
|
|
<ele>-28.686362</ele>
|
|
<time>2026-07-10T13:27:38.000Z</time>
|
|
</trkpt>
|
|
<trkpt lat="55.148375" lon="8.696010">
|
|
<ele>-28.688855</ele>
|
|
<time>2026-07-10T13:27:39.000Z</time>
|
|
</trkpt>
|
|
<trkpt lat="55.148422" lon="8.696059">
|
|
<ele>-28.691332</ele>
|
|
<time>2026-07-10T13:27:40.000Z</time>
|
|
</trkpt>
|
|
<trkpt lat="55.148470" lon="8.696108">
|
|
<ele>-28.693847</ele>
|
|
<time>2026-07-10T13:27:41.000Z</time>
|
|
</trkpt>
|
|
<trkpt lat="55.148516" lon="8.696158">
|
|
<ele>-28.696299</ele>
|
|
<time>2026-07-10T13:27:42.000Z</time>
|
|
</trkpt>
|
|
<trkpt lat="55.148562" lon="8.696209">
|
|
<ele>-28.698764</ele>
|
|
<time>2026-07-10T13:27:43.000Z</time>
|
|
</trkpt>
|
|
<trkpt lat="55.148607" lon="8.696260">
|
|
<ele>-28.701191</ele>
|
|
<time>2026-07-10T13:27:44.000Z</time>
|
|
</trkpt>
|
|
<trkpt lat="55.148653" lon="8.696311">
|
|
<ele>-28.703656</ele>
|
|
<time>2026-07-10T13:27:45.000Z</time>
|
|
</trkpt>
|
|
<trkpt lat="55.148700" lon="8.696361">
|
|
<ele>-28.706146</ele>
|
|
<time>2026-07-10T13:27:46.000Z</time>
|
|
</trkpt>
|
|
<trkpt lat="55.148749" lon="8.696411">
|
|
<ele>-28.708714</ele>
|
|
<time>2026-07-10T13:27:47.000Z</time>
|
|
</trkpt>
|
|
<trkpt lat="55.148794" lon="8.696460">
|
|
<ele>-28.711114</ele>
|
|
<time>2026-07-10T13:27:48.000Z</time>
|
|
</trkpt>
|
|
<trkpt lat="55.148841" lon="8.696511">
|
|
<ele>-28.713617</ele>
|
|
<time>2026-07-10T13:27:49.000Z</time>
|
|
</trkpt>
|
|
<trkpt lat="55.148891" lon="8.696561">
|
|
<ele>-28.716224</ele>
|
|
<time>2026-07-10T13:27:50.000Z</time>
|
|
</trkpt>
|
|
<trkpt lat="55.148939" lon="8.696612">
|
|
<ele>-28.718766</ele>
|
|
<time>2026-07-10T13:27:51.000Z</time>
|
|
</trkpt>
|
|
<trkpt lat="55.148986" lon="8.696664">
|
|
<ele>-28.721284</ele>
|
|
<time>2026-07-10T13:27:52.000Z</time>
|
|
</trkpt>
|
|
<trkpt lat="55.149035" lon="8.696715">
|
|
<ele>-28.718109</ele>
|
|
<time>2026-07-10T13:27:53.000Z</time>
|
|
</trkpt>
|
|
<trkpt lat="55.149081" lon="8.696766">
|
|
<ele>-28.711256</ele>
|
|
<time>2026-07-10T13:27:54.000Z</time>
|
|
</trkpt>
|
|
<trkpt lat="55.149130" lon="8.696817">
|
|
<ele>-28.704081</ele>
|
|
<time>2026-07-10T13:27:55.000Z</time>
|
|
</trkpt>
|
|
<trkpt lat="55.149176" lon="8.696866">
|
|
<ele>-28.697303</ele>
|
|
<time>2026-07-10T13:27:56.000Z</time>
|
|
</trkpt>
|
|
<trkpt lat="55.149224" lon="8.696914">
|
|
<ele>-28.690346</ele>
|
|
<time>2026-07-10T13:27:57.000Z</time>
|
|
</trkpt>
|
|
<trkpt lat="55.149271" lon="8.696964">
|
|
<ele>-28.683423</ele>
|
|
<time>2026-07-10T13:27:58.000Z</time>
|
|
</trkpt>
|
|
<trkpt lat="55.149317" lon="8.697014">
|
|
<ele>-28.676608</ele>
|
|
<time>2026-07-10T13:27:59.000Z</time>
|
|
</trkpt>
|
|
<trkpt lat="55.149363" lon="8.697065">
|
|
<ele>-28.669755</ele>
|
|
<time>2026-07-10T13:28:00.000Z</time>
|
|
</trkpt>
|
|
<trkpt lat="55.149410" lon="8.697114">
|
|
<ele>-28.662870</ele>
|
|
<time>2026-07-10T13:28:01.000Z</time>
|
|
</trkpt>
|
|
<trkpt lat="55.149458" lon="8.697164">
|
|
<ele>-28.655839</ele>
|
|
<time>2026-07-10T13:28:02.000Z</time>
|
|
</trkpt>
|
|
<trkpt lat="55.149505" lon="8.697212">
|
|
<ele>-28.648991</ele>
|
|
<time>2026-07-10T13:28:03.000Z</time>
|
|
</trkpt>
|
|
<trkpt lat="55.149552" lon="8.697261">
|
|
<ele>-28.642106</ele>
|
|
<time>2026-07-10T13:28:04.000Z</time>
|
|
</trkpt>
|
|
<trkpt lat="55.149596" lon="8.697312">
|
|
<ele>-28.635463</ele>
|
|
<time>2026-07-10T13:28:05.000Z</time>
|
|
</trkpt>
|
|
<trkpt lat="55.149645" lon="8.697359">
|
|
<ele>-28.628431</ele>
|
|
<time>2026-07-10T13:28:06.000Z</time>
|
|
</trkpt>
|
|
<trkpt lat="55.149692" lon="8.697407">
|
|
<ele>-28.621582</ele>
|
|
<time>2026-07-10T13:28:07.000Z</time>
|
|
</trkpt>
|
|
<trkpt lat="55.149739" lon="8.697456">
|
|
<ele>-28.614697</ele>
|
|
<time>2026-07-10T13:28:08.000Z</time>
|
|
</trkpt>
|
|
<trkpt lat="55.149783" lon="8.697502">
|
|
<ele>-28.608247</ele>
|
|
<time>2026-07-10T13:28:09.000Z</time>
|
|
</trkpt>
|
|
<trkpt lat="55.149832" lon="8.697549">
|
|
<ele>-28.601214</ele>
|
|
<time>2026-07-10T13:28:10.000Z</time>
|
|
</trkpt>
|
|
<trkpt lat="55.149877" lon="8.697595">
|
|
<ele>-28.594656</ele>
|
|
<time>2026-07-10T13:28:11.000Z</time>
|
|
</trkpt>
|
|
<trkpt lat="55.149924" lon="8.697643">
|
|
<ele>-28.587807</ele>
|
|
<time>2026-07-10T13:28:12.000Z</time>
|
|
</trkpt>
|
|
<trkpt lat="55.149972" lon="8.697691">
|
|
<ele>-28.580849</ele>
|
|
<time>2026-07-10T13:28:13.000Z</time>
|
|
</trkpt>
|
|
<trkpt lat="55.150016" lon="8.697739">
|
|
<ele>-28.574324</ele>
|
|
<time>2026-07-10T13:28:14.000Z</time>
|
|
</trkpt>
|
|
<trkpt lat="55.150064" lon="8.697786">
|
|
<ele>-28.567402</ele>
|
|
<time>2026-07-10T13:28:15.000Z</time>
|
|
</trkpt>
|
|
<trkpt lat="55.150110" lon="8.697834">
|
|
<ele>-28.560661</ele>
|
|
<time>2026-07-10T13:28:16.000Z</time>
|
|
</trkpt>
|
|
<trkpt lat="55.150155" lon="8.697884">
|
|
<ele>-28.553953</ele>
|
|
<time>2026-07-10T13:28:17.000Z</time>
|
|
</trkpt>
|
|
<trkpt lat="55.150199" lon="8.697932">
|
|
<ele>-28.547428</ele>
|
|
<time>2026-07-10T13:28:18.000Z</time>
|
|
</trkpt>
|
|
<trkpt lat="55.150247" lon="8.697984">
|
|
<ele>-28.540323</ele>
|
|
<time>2026-07-10T13:28:19.000Z</time>
|
|
</trkpt>
|
|
<trkpt lat="55.150293" lon="8.698033">
|
|
<ele>-28.533545</ele>
|
|
<time>2026-07-10T13:28:20.000Z</time>
|
|
</trkpt>
|
|
<trkpt lat="55.150339" lon="8.698083">
|
|
<ele>-28.526730</ele>
|
|
<time>2026-07-10T13:28:21.000Z</time>
|
|
</trkpt>
|
|
<trkpt lat="55.150385" lon="8.698132">
|
|
<ele>-28.519953</ele>
|
|
<time>2026-07-10T13:28:22.000Z</time>
|
|
</trkpt>
|
|
<trkpt lat="55.150430" lon="8.698177">
|
|
<ele>-28.513430</ele>
|
|
<time>2026-07-10T13:28:23.000Z</time>
|
|
</trkpt>
|
|
<trkpt lat="55.150476" lon="8.698221">
|
|
<ele>-28.506833</ele>
|
|
<time>2026-07-10T13:28:24.000Z</time>
|
|
</trkpt>
|
|
<trkpt lat="55.150523" lon="8.698267">
|
|
<ele>-28.500055</ele>
|
|
<time>2026-07-10T13:28:25.000Z</time>
|
|
</trkpt>
|
|
<trkpt lat="55.150572" lon="8.698313">
|
|
<ele>-28.496828</ele>
|
|
<time>2026-07-10T13:28:26.000Z</time>
|
|
</trkpt>
|
|
<trkpt lat="55.150618" lon="8.698358">
|
|
<ele>-28.498760</ele>
|
|
<time>2026-07-10T13:28:27.000Z</time>
|
|
</trkpt>
|
|
<trkpt lat="55.150664" lon="8.698401">
|
|
<ele>-28.500671</ele>
|
|
<time>2026-07-10T13:28:28.000Z</time>
|
|
</trkpt>
|
|
<trkpt lat="55.150713" lon="8.698444">
|
|
<ele>-28.502681</ele>
|
|
<time>2026-07-10T13:28:29.000Z</time>
|
|
</trkpt>
|
|
<trkpt lat="55.150760" lon="8.698483">
|
|
<ele>-28.504588</ele>
|
|
<time>2026-07-10T13:28:30.000Z</time>
|
|
</trkpt>
|
|
<trkpt lat="55.150808" lon="8.698520">
|
|
<ele>-28.506510</ele>
|
|
<time>2026-07-10T13:28:31.000Z</time>
|
|
</trkpt>
|
|
<trkpt lat="55.150854" lon="8.698557">
|
|
<ele>-28.508366</ele>
|
|
<time>2026-07-10T13:28:32.000Z</time>
|
|
</trkpt>
|
|
<trkpt lat="55.150899" lon="8.698594">
|
|
<ele>-28.510188</ele>
|
|
<time>2026-07-10T13:28:33.000Z</time>
|
|
</trkpt>
|
|
<trkpt lat="55.150942" lon="8.698630">
|
|
<ele>-28.511936</ele>
|
|
<time>2026-07-10T13:28:34.000Z</time>
|
|
</trkpt>
|
|
<trkpt lat="55.150985" lon="8.698665">
|
|
<ele>-28.513674</ele>
|
|
<time>2026-07-10T13:28:35.000Z</time>
|
|
</trkpt>
|
|
<trkpt lat="55.151022" lon="8.698701">
|
|
<ele>-28.515226</ele>
|
|
<time>2026-07-10T13:28:36.000Z</time>
|
|
</trkpt>
|
|
<trkpt lat="55.151056" lon="8.698736">
|
|
<ele>-28.516672</ele>
|
|
<time>2026-07-10T13:28:37.000Z</time>
|
|
</trkpt>
|
|
<trkpt lat="55.151085" lon="8.698766">
|
|
<ele>-28.517907</ele>
|
|
<time>2026-07-10T13:28:38.000Z</time>
|
|
</trkpt>
|
|
<trkpt lat="55.151110" lon="8.698784">
|
|
<ele>-28.518898</ele>
|
|
<time>2026-07-10T13:28:39.000Z</time>
|
|
</trkpt>
|
|
<trkpt lat="55.151132" lon="8.698791">
|
|
<ele>-28.519717</ele>
|
|
<time>2026-07-10T13:28:40.000Z</time>
|
|
</trkpt>
|
|
<trkpt lat="55.151149" lon="8.698793">
|
|
<ele>-28.520342</ele>
|
|
<time>2026-07-10T13:28:41.000Z</time>
|
|
</trkpt>
|
|
<trkpt lat="55.151279" lon="8.698904">
|
|
<ele>-28.525644</ele>
|
|
<time>2026-07-10T13:29:03.000Z</time>
|
|
</trkpt>
|
|
<trkpt lat="55.151290" lon="8.698917">
|
|
<ele>-28.526131</ele>
|
|
<time>2026-07-10T13:29:04.000Z</time>
|
|
</trkpt>
|
|
<trkpt lat="55.151301" lon="8.698931">
|
|
<ele>-28.526629</ele>
|
|
<time>2026-07-10T13:29:05.000Z</time>
|
|
</trkpt>
|
|
<trkpt lat="55.151309" lon="8.698944">
|
|
<ele>-28.527030</ele>
|
|
<time>2026-07-10T13:29:06.000Z</time>
|
|
</trkpt>
|
|
<trkpt lat="55.151320" lon="8.698957">
|
|
<ele>-28.527516</ele>
|
|
<time>2026-07-10T13:29:07.000Z</time>
|
|
</trkpt>
|
|
<trkpt lat="55.151328" lon="8.698967">
|
|
<ele>-28.527877</ele>
|
|
<time>2026-07-10T13:29:08.000Z</time>
|
|
</trkpt>
|
|
<trkpt lat="55.151339" lon="8.698976">
|
|
<ele>-28.528322</ele>
|
|
<time>2026-07-10T13:29:09.000Z</time>
|
|
</trkpt>
|
|
<trkpt lat="55.151348" lon="8.698986">
|
|
<ele>-28.528712</ele>
|
|
<time>2026-07-10T13:29:10.000Z</time>
|
|
</trkpt>
|
|
<trkpt lat="55.151358" lon="8.698992">
|
|
<ele>-28.529100</ele>
|
|
<time>2026-07-10T13:29:11.000Z</time>
|
|
</trkpt>
|
|
<trkpt lat="55.151367" lon="8.698992">
|
|
<ele>-28.529430</ele>
|
|
<time>2026-07-10T13:29:12.000Z</time>
|
|
</trkpt>
|
|
<trkpt lat="55.151375" lon="8.698986">
|
|
<ele>-28.529749</ele>
|
|
<time>2026-07-10T13:29:13.000Z</time>
|
|
</trkpt>
|
|
<trkpt lat="55.151374" lon="8.698981">
|
|
<ele>-28.529860</ele>
|
|
<time>2026-07-10T13:29:14.000Z</time>
|
|
</trkpt>
|
|
<trkpt lat="55.151371" lon="8.698978">
|
|
<ele>-28.529987</ele>
|
|
<time>2026-07-10T13:29:15.000Z</time>
|
|
</trkpt>
|
|
<trkpt lat="55.151371" lon="8.698978">
|
|
<ele>-28.529987</ele>
|
|
<time>2026-07-10T13:29:16.000Z</time>
|
|
</trkpt>
|
|
<trkpt lat="55.151349" lon="8.699043">
|
|
<ele>-28.531569</ele>
|
|
<time>2026-07-10T13:32:04.000Z</time>
|
|
</trkpt>
|
|
<trkpt lat="55.151338" lon="8.699071">
|
|
<ele>-28.532281</ele>
|
|
<time>2026-07-10T13:32:05.000Z</time>
|
|
</trkpt>
|
|
<trkpt lat="55.151326" lon="8.699104">
|
|
<ele>-28.533100</ele>
|
|
<time>2026-07-10T13:32:06.000Z</time>
|
|
</trkpt>
|
|
<trkpt lat="55.151314" lon="8.699137">
|
|
<ele>-28.533919</ele>
|
|
<time>2026-07-10T13:32:07.000Z</time>
|
|
</trkpt>
|
|
<trkpt lat="55.151299" lon="8.699181">
|
|
<ele>-28.534992</ele>
|
|
<time>2026-07-10T13:32:08.000Z</time>
|
|
</trkpt>
|
|
<trkpt lat="55.151288" lon="8.699225">
|
|
<ele>-28.535998</ele>
|
|
<time>2026-07-10T13:32:09.000Z</time>
|
|
</trkpt>
|
|
<trkpt lat="55.151274" lon="8.699272">
|
|
<ele>-28.537109</ele>
|
|
<time>2026-07-10T13:32:10.000Z</time>
|
|
</trkpt>
|
|
<trkpt lat="55.151256" lon="8.699324">
|
|
<ele>-28.538382</ele>
|
|
<time>2026-07-10T13:32:11.000Z</time>
|
|
</trkpt>
|
|
<trkpt lat="55.151241" lon="8.699380">
|
|
<ele>-28.539678</ele>
|
|
<time>2026-07-10T13:32:12.000Z</time>
|
|
</trkpt>
|
|
<trkpt lat="55.151225" lon="8.699436">
|
|
<ele>-28.540989</ele>
|
|
<time>2026-07-10T13:32:13.000Z</time>
|
|
</trkpt>
|
|
<trkpt lat="55.151207" lon="8.699495">
|
|
<ele>-28.542390</ele>
|
|
<time>2026-07-10T13:32:14.000Z</time>
|
|
</trkpt>
|
|
<trkpt lat="55.151191" lon="8.699558">
|
|
<ele>-28.543834</ele>
|
|
<time>2026-07-10T13:32:15.000Z</time>
|
|
</trkpt>
|
|
<trkpt lat="55.151176" lon="8.699621">
|
|
<ele>-28.545264</ele>
|
|
<time>2026-07-10T13:32:16.000Z</time>
|
|
</trkpt>
|
|
<trkpt lat="55.151162" lon="8.699689">
|
|
<ele>-28.546778</ele>
|
|
<time>2026-07-10T13:32:17.000Z</time>
|
|
</trkpt>
|
|
<trkpt lat="55.151151" lon="8.699758">
|
|
<ele>-28.548278</ele>
|
|
<time>2026-07-10T13:32:18.000Z</time>
|
|
</trkpt>
|
|
<trkpt lat="55.151144" lon="8.699827">
|
|
<ele>-28.549746</ele>
|
|
<time>2026-07-10T13:32:19.000Z</time>
|
|
</trkpt>
|
|
<trkpt lat="55.151136" lon="8.699900">
|
|
<ele>-28.551303</ele>
|
|
<time>2026-07-10T13:32:20.000Z</time>
|
|
</trkpt>
|
|
<trkpt lat="55.151130" lon="8.699974">
|
|
<ele>-28.552868</ele>
|
|
<time>2026-07-10T13:32:21.000Z</time>
|
|
</trkpt>
|
|
<trkpt lat="55.151126" lon="8.700051">
|
|
<ele>-28.554488</ele>
|
|
<time>2026-07-10T13:32:22.000Z</time>
|
|
</trkpt>
|
|
<trkpt lat="55.151122" lon="8.700130">
|
|
<ele>-28.556149</ele>
|
|
<time>2026-07-10T13:32:23.000Z</time>
|
|
</trkpt>
|
|
<trkpt lat="55.151118" lon="8.700212">
|
|
<ele>-28.557873</ele>
|
|
<time>2026-07-10T13:32:24.000Z</time>
|
|
</trkpt>
|
|
<trkpt lat="55.151115" lon="8.700291">
|
|
<ele>-28.559531</ele>
|
|
<time>2026-07-10T13:32:25.000Z</time>
|
|
</trkpt>
|
|
<trkpt lat="55.151116" lon="8.700374">
|
|
<ele>-28.561270</ele>
|
|
<time>2026-07-10T13:32:26.000Z</time>
|
|
</trkpt>
|
|
<trkpt lat="55.151119" lon="8.700457">
|
|
<ele>-28.566215</ele>
|
|
<time>2026-07-10T13:32:27.000Z</time>
|
|
</trkpt>
|
|
<trkpt lat="55.151118" lon="8.700538">
|
|
<ele>-28.572841</ele>
|
|
<time>2026-07-10T13:32:28.000Z</time>
|
|
</trkpt>
|
|
<trkpt lat="55.151115" lon="8.700621">
|
|
<ele>-28.579643</ele>
|
|
<time>2026-07-10T13:32:29.000Z</time>
|
|
</trkpt>
|
|
<trkpt lat="55.151114" lon="8.700704">
|
|
<ele>-28.586432</ele>
|
|
<time>2026-07-10T13:32:30.000Z</time>
|
|
</trkpt>
|
|
<trkpt lat="55.151112" lon="8.700789">
|
|
<ele>-28.593390</ele>
|
|
<time>2026-07-10T13:32:31.000Z</time>
|
|
</trkpt>
|
|
<trkpt lat="55.151112" lon="8.700877">
|
|
<ele>-28.600587</ele>
|
|
<time>2026-07-10T13:32:32.000Z</time>
|
|
</trkpt>
|
|
<trkpt lat="55.151112" lon="8.700964">
|
|
<ele>-28.607702</ele>
|
|
<time>2026-07-10T13:32:33.000Z</time>
|
|
</trkpt>
|
|
<trkpt lat="55.151111" lon="8.701049">
|
|
<ele>-28.614655</ele>
|
|
<time>2026-07-10T13:32:34.000Z</time>
|
|
</trkpt>
|
|
<trkpt lat="55.151108" lon="8.701133">
|
|
<ele>-28.621538</ele>
|
|
<time>2026-07-10T13:32:35.000Z</time>
|
|
</trkpt>
|
|
<trkpt lat="55.151108" lon="8.701215">
|
|
<ele>-28.628245</ele>
|
|
<time>2026-07-10T13:32:36.000Z</time>
|
|
</trkpt>
|
|
<trkpt lat="55.151109" lon="8.701295">
|
|
<ele>-28.634789</ele>
|
|
<time>2026-07-10T13:32:37.000Z</time>
|
|
</trkpt>
|
|
<trkpt lat="55.151112" lon="8.701373">
|
|
<ele>-28.641183</ele>
|
|
<time>2026-07-10T13:32:38.000Z</time>
|
|
</trkpt>
|
|
<trkpt lat="55.151111" lon="8.701451">
|
|
<ele>-28.647563</ele>
|
|
<time>2026-07-10T13:32:39.000Z</time>
|
|
</trkpt>
|
|
<trkpt lat="55.151108" lon="8.701529">
|
|
<ele>-28.653957</ele>
|
|
<time>2026-07-10T13:32:40.000Z</time>
|
|
</trkpt>
|
|
<trkpt lat="55.151107" lon="8.701602">
|
|
<ele>-28.659929</ele>
|
|
<time>2026-07-10T13:32:41.000Z</time>
|
|
</trkpt>
|
|
<trkpt lat="55.151104" lon="8.701679">
|
|
<ele>-28.666241</ele>
|
|
<time>2026-07-10T13:32:42.000Z</time>
|
|
</trkpt>
|
|
<trkpt lat="55.151104" lon="8.701756">
|
|
<ele>-28.672538</ele>
|
|
<time>2026-07-10T13:32:43.000Z</time>
|
|
</trkpt>
|
|
<trkpt lat="55.151103" lon="8.701832">
|
|
<ele>-28.678756</ele>
|
|
<time>2026-07-10T13:32:44.000Z</time>
|
|
</trkpt>
|
|
<trkpt lat="55.151100" lon="8.701906">
|
|
<ele>-28.684823</ele>
|
|
<time>2026-07-10T13:32:45.000Z</time>
|
|
</trkpt>
|
|
<trkpt lat="55.151100" lon="8.701977">
|
|
<ele>-28.690630</ele>
|
|
<time>2026-07-10T13:32:46.000Z</time>
|
|
</trkpt>
|
|
<trkpt lat="55.151100" lon="8.702046">
|
|
<ele>-28.696273</ele>
|
|
<time>2026-07-10T13:32:47.000Z</time>
|
|
</trkpt>
|
|
<trkpt lat="55.151100" lon="8.702116">
|
|
<ele>-28.701998</ele>
|
|
<time>2026-07-10T13:32:48.000Z</time>
|
|
</trkpt>
|
|
<trkpt lat="55.151099" lon="8.702182">
|
|
<ele>-28.707397</ele>
|
|
<time>2026-07-10T13:32:49.000Z</time>
|
|
</trkpt>
|
|
<trkpt lat="55.151096" lon="8.702243">
|
|
<ele>-28.712405</ele>
|
|
<time>2026-07-10T13:32:50.000Z</time>
|
|
</trkpt>
|
|
<trkpt lat="55.151096" lon="8.702300">
|
|
<ele>-28.717066</ele>
|
|
<time>2026-07-10T13:32:51.000Z</time>
|
|
</trkpt>
|
|
<trkpt lat="55.151096" lon="8.702350">
|
|
<ele>-28.721155</ele>
|
|
<time>2026-07-10T13:32:52.000Z</time>
|
|
</trkpt>
|
|
<trkpt lat="55.151096" lon="8.702386">
|
|
<ele>-28.724100</ele>
|
|
<time>2026-07-10T13:32:53.000Z</time>
|
|
</trkpt>
|
|
<trkpt lat="55.151095" lon="8.702406">
|
|
<ele>-28.725742</ele>
|
|
<time>2026-07-10T13:32:54.000Z</time>
|
|
</trkpt>
|
|
<trkpt lat="55.151097" lon="8.702404">
|
|
<ele>-28.726071</ele>
|
|
<time>2026-07-10T13:33:00.000Z</time>
|
|
</trkpt>
|
|
<trkpt lat="55.151100" lon="8.702450">
|
|
<ele>-28.729858</ele>
|
|
<time>2026-07-10T13:33:01.000Z</time>
|
|
</trkpt>
|
|
<trkpt lat="55.151117" lon="8.702503">
|
|
<ele>-28.734829</ele>
|
|
<time>2026-07-10T13:33:02.000Z</time>
|
|
</trkpt>
|
|
<trkpt lat="55.151137" lon="8.702541">
|
|
<ele>-28.739054</ele>
|
|
<time>2026-07-10T13:33:03.000Z</time>
|
|
</trkpt>
|
|
<trkpt lat="55.151164" lon="8.702577">
|
|
<ele>-28.743912</ele>
|
|
<time>2026-07-10T13:33:04.000Z</time>
|
|
</trkpt>
|
|
<trkpt lat="55.151197" lon="8.702609">
|
|
<ele>-28.749312</ele>
|
|
<time>2026-07-10T13:33:05.000Z</time>
|
|
</trkpt>
|
|
<trkpt lat="55.151231" lon="8.702642">
|
|
<ele>-28.754876</ele>
|
|
<time>2026-07-10T13:33:06.000Z</time>
|
|
</trkpt>
|
|
<trkpt lat="55.151270" lon="8.702678">
|
|
<ele>-28.761187</ele>
|
|
<time>2026-07-10T13:33:07.000Z</time>
|
|
</trkpt>
|
|
<trkpt lat="55.151315" lon="8.702709">
|
|
<ele>-28.768109</ele>
|
|
<time>2026-07-10T13:33:08.000Z</time>
|
|
</trkpt>
|
|
<trkpt lat="55.151357" lon="8.702737">
|
|
<ele>-28.774542</ele>
|
|
<time>2026-07-10T13:33:09.000Z</time>
|
|
</trkpt>
|
|
<trkpt lat="55.151398" lon="8.702765">
|
|
<ele>-28.780841</ele>
|
|
<time>2026-07-10T13:33:10.000Z</time>
|
|
</trkpt>
|
|
<trkpt lat="55.151440" lon="8.702795">
|
|
<ele>-28.787333</ele>
|
|
<time>2026-07-10T13:33:11.000Z</time>
|
|
</trkpt>
|
|
<trkpt lat="55.151481" lon="8.702825">
|
|
<ele>-28.793694</ele>
|
|
<time>2026-07-10T13:33:12.000Z</time>
|
|
</trkpt>
|
|
<trkpt lat="55.151526" lon="8.702856">
|
|
<ele>-28.800616</ele>
|
|
<time>2026-07-10T13:33:13.000Z</time>
|
|
</trkpt>
|
|
<trkpt lat="55.151571" lon="8.702888">
|
|
<ele>-28.807568</ele>
|
|
<time>2026-07-10T13:33:14.000Z</time>
|
|
</trkpt>
|
|
<trkpt lat="55.151618" lon="8.702921">
|
|
<ele>-28.814816</ele>
|
|
<time>2026-07-10T13:33:15.000Z</time>
|
|
</trkpt>
|
|
<trkpt lat="55.151665" lon="8.702954">
|
|
<ele>-28.819018</ele>
|
|
<time>2026-07-10T13:33:16.000Z</time>
|
|
</trkpt>
|
|
<trkpt lat="55.151710" lon="8.702984">
|
|
<ele>-28.818196</ele>
|
|
<time>2026-07-10T13:33:17.000Z</time>
|
|
</trkpt>
|
|
<trkpt lat="55.151757" lon="8.703015">
|
|
<ele>-28.817338</ele>
|
|
<time>2026-07-10T13:33:18.000Z</time>
|
|
</trkpt>
|
|
<trkpt lat="55.151800" lon="8.703051">
|
|
<ele>-28.816525</ele>
|
|
<time>2026-07-10T13:33:19.000Z</time>
|
|
</trkpt>
|
|
<trkpt lat="55.151846" lon="8.703088">
|
|
<ele>-28.815660</ele>
|
|
<time>2026-07-10T13:33:20.000Z</time>
|
|
</trkpt>
|
|
<trkpt lat="55.151892" lon="8.703123">
|
|
<ele>-28.814804</ele>
|
|
<time>2026-07-10T13:33:21.000Z</time>
|
|
</trkpt>
|
|
<trkpt lat="55.151938" lon="8.703156">
|
|
<ele>-28.813956</ele>
|
|
<time>2026-07-10T13:33:22.000Z</time>
|
|
</trkpt>
|
|
<trkpt lat="55.151984" lon="8.703188">
|
|
<ele>-28.813111</ele>
|
|
<time>2026-07-10T13:33:23.000Z</time>
|
|
</trkpt>
|
|
<trkpt lat="55.152035" lon="8.703220">
|
|
<ele>-28.812186</ele>
|
|
<time>2026-07-10T13:33:24.000Z</time>
|
|
</trkpt>
|
|
<trkpt lat="55.152087" lon="8.703254">
|
|
<ele>-28.811238</ele>
|
|
<time>2026-07-10T13:33:25.000Z</time>
|
|
</trkpt>
|
|
<trkpt lat="55.152137" lon="8.703285">
|
|
<ele>-28.810333</ele>
|
|
<time>2026-07-10T13:33:26.000Z</time>
|
|
</trkpt>
|
|
<trkpt lat="55.152189" lon="8.703313">
|
|
<ele>-28.809404</ele>
|
|
<time>2026-07-10T13:33:27.000Z</time>
|
|
</trkpt>
|
|
<trkpt lat="55.152236" lon="8.703340">
|
|
<ele>-28.808559</ele>
|
|
<time>2026-07-10T13:33:28.000Z</time>
|
|
</trkpt>
|
|
<trkpt lat="55.152284" lon="8.703366">
|
|
<ele>-28.807702</ele>
|
|
<time>2026-07-10T13:33:29.000Z</time>
|
|
</trkpt>
|
|
<trkpt lat="55.152331" lon="8.703389">
|
|
<ele>-28.806868</ele>
|
|
<time>2026-07-10T13:33:30.000Z</time>
|
|
</trkpt>
|
|
<trkpt lat="55.152382" lon="8.703410">
|
|
<ele>-28.805974</ele>
|
|
<time>2026-07-10T13:33:31.000Z</time>
|
|
</trkpt>
|
|
<trkpt lat="55.152435" lon="8.703423">
|
|
<ele>-28.805060</ele>
|
|
<time>2026-07-10T13:33:32.000Z</time>
|
|
</trkpt>
|
|
<trkpt lat="55.152489" lon="8.703435">
|
|
<ele>-28.804131</ele>
|
|
<time>2026-07-10T13:33:33.000Z</time>
|
|
</trkpt>
|
|
<trkpt lat="55.152541" lon="8.703446">
|
|
<ele>-28.803237</ele>
|
|
<time>2026-07-10T13:33:34.000Z</time>
|
|
</trkpt>
|
|
<trkpt lat="55.152593" lon="8.703454">
|
|
<ele>-28.802346</ele>
|
|
<time>2026-07-10T13:33:35.000Z</time>
|
|
</trkpt>
|
|
<trkpt lat="55.152649" lon="8.703458">
|
|
<ele>-28.801389</ele>
|
|
<time>2026-07-10T13:33:36.000Z</time>
|
|
</trkpt>
|
|
<trkpt lat="55.152703" lon="8.703463">
|
|
<ele>-28.800466</ele>
|
|
<time>2026-07-10T13:33:37.000Z</time>
|
|
</trkpt>
|
|
<trkpt lat="55.152759" lon="8.703468">
|
|
<ele>-28.799509</ele>
|
|
<time>2026-07-10T13:33:38.000Z</time>
|
|
</trkpt>
|
|
<trkpt lat="55.152809" lon="8.703474">
|
|
<ele>-28.798653</ele>
|
|
<time>2026-07-10T13:33:39.000Z</time>
|
|
</trkpt>
|
|
<trkpt lat="55.152862" lon="8.703478">
|
|
<ele>-28.797748</ele>
|
|
<time>2026-07-10T13:33:40.000Z</time>
|
|
</trkpt>
|
|
<trkpt lat="55.152915" lon="8.703483">
|
|
<ele>-28.796842</ele>
|
|
<time>2026-07-10T13:33:41.000Z</time>
|
|
</trkpt>
|
|
<trkpt lat="55.152970" lon="8.703488">
|
|
<ele>-28.795902</ele>
|
|
<time>2026-07-10T13:33:42.000Z</time>
|
|
</trkpt>
|
|
<trkpt lat="55.153023" lon="8.703492">
|
|
<ele>-28.794996</ele>
|
|
<time>2026-07-10T13:33:43.000Z</time>
|
|
</trkpt>
|
|
<trkpt lat="55.153077" lon="8.703495">
|
|
<ele>-28.794074</ele>
|
|
<time>2026-07-10T13:33:44.000Z</time>
|
|
</trkpt>
|
|
<trkpt lat="55.153130" lon="8.703496">
|
|
<ele>-28.793169</ele>
|
|
<time>2026-07-10T13:33:45.000Z</time>
|
|
</trkpt>
|
|
<trkpt lat="55.153183" lon="8.703499">
|
|
<ele>-28.792264</ele>
|
|
<time>2026-07-10T13:33:46.000Z</time>
|
|
</trkpt>
|
|
<trkpt lat="55.153233" lon="8.703512">
|
|
<ele>-28.791401</ele>
|
|
<time>2026-07-10T13:33:47.000Z</time>
|
|
</trkpt>
|
|
<trkpt lat="55.153271" lon="8.703547">
|
|
<ele>-28.790668</ele>
|
|
<time>2026-07-10T13:33:48.000Z</time>
|
|
</trkpt>
|
|
<trkpt lat="55.153296" lon="8.703608">
|
|
<ele>-28.789935</ele>
|
|
<time>2026-07-10T13:33:49.000Z</time>
|
|
</trkpt>
|
|
<trkpt lat="55.153316" lon="8.703683">
|
|
<ele>-28.789128</ele>
|
|
<time>2026-07-10T13:33:50.000Z</time>
|
|
</trkpt>
|
|
<trkpt lat="55.153328" lon="8.703772">
|
|
<ele>-28.792314</ele>
|
|
<time>2026-07-10T13:33:51.000Z</time>
|
|
</trkpt>
|
|
<trkpt lat="55.153339" lon="8.703862">
|
|
<ele>-28.800523</ele>
|
|
<time>2026-07-10T13:33:52.000Z</time>
|
|
</trkpt>
|
|
<trkpt lat="55.153353" lon="8.703949">
|
|
<ele>-28.808585</ele>
|
|
<time>2026-07-10T13:33:53.000Z</time>
|
|
</trkpt>
|
|
<trkpt lat="55.153372" lon="8.704036">
|
|
<ele>-28.816893</ele>
|
|
<time>2026-07-10T13:33:54.000Z</time>
|
|
</trkpt>
|
|
<trkpt lat="55.153390" lon="8.704125">
|
|
<ele>-28.825314</ele>
|
|
<time>2026-07-10T13:33:55.000Z</time>
|
|
</trkpt>
|
|
<trkpt lat="55.153406" lon="8.704214">
|
|
<ele>-28.833636</ele>
|
|
<time>2026-07-10T13:33:56.000Z</time>
|
|
</trkpt>
|
|
<trkpt lat="55.153425" lon="8.704304">
|
|
<ele>-28.842194</ele>
|
|
<time>2026-07-10T13:33:57.000Z</time>
|
|
</trkpt>
|
|
<trkpt lat="55.153444" lon="8.704396">
|
|
<ele>-28.850920</ele>
|
|
<time>2026-07-10T13:33:58.000Z</time>
|
|
</trkpt>
|
|
<trkpt lat="55.153464" lon="8.704488">
|
|
<ele>-28.859700</ele>
|
|
<time>2026-07-10T13:33:59.000Z</time>
|
|
</trkpt>
|
|
<trkpt lat="55.153486" lon="8.704578">
|
|
<ele>-28.868432</ele>
|
|
<time>2026-07-10T13:34:00.000Z</time>
|
|
</trkpt>
|
|
<trkpt lat="55.153506" lon="8.704671">
|
|
<ele>-28.877295</ele>
|
|
<time>2026-07-10T13:34:01.000Z</time>
|
|
</trkpt>
|
|
<trkpt lat="55.153528" lon="8.704766">
|
|
<ele>-28.886439</ele>
|
|
<time>2026-07-10T13:34:02.000Z</time>
|
|
</trkpt>
|
|
<trkpt lat="55.153547" lon="8.704862">
|
|
<ele>-28.895501</ele>
|
|
<time>2026-07-10T13:34:03.000Z</time>
|
|
</trkpt>
|
|
<trkpt lat="55.153566" lon="8.704963">
|
|
<ele>-28.904985</ele>
|
|
<time>2026-07-10T13:34:04.000Z</time>
|
|
</trkpt>
|
|
<trkpt lat="55.153585" lon="8.705064">
|
|
<ele>-28.914470</ele>
|
|
<time>2026-07-10T13:34:05.000Z</time>
|
|
</trkpt>
|
|
<trkpt lat="55.153604" lon="8.705165">
|
|
<ele>-28.923955</ele>
|
|
<time>2026-07-10T13:34:06.000Z</time>
|
|
</trkpt>
|
|
<trkpt lat="55.153622" lon="8.705266">
|
|
<ele>-28.933392</ele>
|
|
<time>2026-07-10T13:34:07.000Z</time>
|
|
</trkpt>
|
|
<trkpt lat="55.153638" lon="8.705368">
|
|
<ele>-28.942826</ele>
|
|
<time>2026-07-10T13:34:08.000Z</time>
|
|
</trkpt>
|
|
<trkpt lat="55.153652" lon="8.705470">
|
|
<ele>-28.952183</ele>
|
|
<time>2026-07-10T13:34:09.000Z</time>
|
|
</trkpt>
|
|
<trkpt lat="55.153664" lon="8.705575">
|
|
<ele>-28.961734</ele>
|
|
<time>2026-07-10T13:34:10.000Z</time>
|
|
</trkpt>
|
|
<trkpt lat="55.153677" lon="8.705681">
|
|
<ele>-28.971405</ele>
|
|
<time>2026-07-10T13:34:11.000Z</time>
|
|
</trkpt>
|
|
<trkpt lat="55.153686" lon="8.705785">
|
|
<ele>-28.980787</ele>
|
|
<time>2026-07-10T13:34:12.000Z</time>
|
|
</trkpt>
|
|
<trkpt lat="55.153696" lon="8.705889">
|
|
<ele>-28.990194</ele>
|
|
<time>2026-07-10T13:34:13.000Z</time>
|
|
</trkpt>
|
|
<trkpt lat="55.153704" lon="8.705996">
|
|
<ele>-28.999819</ele>
|
|
<time>2026-07-10T13:34:14.000Z</time>
|
|
</trkpt>
|
|
<trkpt lat="55.153711" lon="8.706103">
|
|
<ele>-29.009426</ele>
|
|
<time>2026-07-10T13:34:15.000Z</time>
|
|
</trkpt>
|
|
<trkpt lat="55.153715" lon="8.706210">
|
|
<ele>-29.018990</ele>
|
|
<time>2026-07-10T13:34:16.000Z</time>
|
|
</trkpt>
|
|
<trkpt lat="55.153723" lon="8.706316">
|
|
<ele>-29.028527</ele>
|
|
<time>2026-07-10T13:34:17.000Z</time>
|
|
</trkpt>
|
|
<trkpt lat="55.153731" lon="8.706422">
|
|
<ele>-29.038064</ele>
|
|
<time>2026-07-10T13:34:18.000Z</time>
|
|
</trkpt>
|
|
<trkpt lat="55.153738" lon="8.706528">
|
|
<ele>-29.047582</ele>
|
|
<time>2026-07-10T13:34:19.000Z</time>
|
|
</trkpt>
|
|
<trkpt lat="55.153746" lon="8.706634">
|
|
<ele>-29.057119</ele>
|
|
<time>2026-07-10T13:34:20.000Z</time>
|
|
</trkpt>
|
|
<trkpt lat="55.153754" lon="8.706741">
|
|
<ele>-29.066744</ele>
|
|
<time>2026-07-10T13:34:21.000Z</time>
|
|
</trkpt>
|
|
<trkpt lat="55.153761" lon="8.706845">
|
|
<ele>-29.075768</ele>
|
|
<time>2026-07-10T13:34:22.000Z</time>
|
|
</trkpt>
|
|
<trkpt lat="55.153768" lon="8.706949">
|
|
<ele>-29.084665</ele>
|
|
<time>2026-07-10T13:34:23.000Z</time>
|
|
</trkpt>
|
|
<trkpt lat="55.153772" lon="8.707055">
|
|
<ele>-29.093690</ele>
|
|
<time>2026-07-10T13:34:24.000Z</time>
|
|
</trkpt>
|
|
<trkpt lat="55.153775" lon="8.707160">
|
|
<ele>-29.102621</ele>
|
|
<time>2026-07-10T13:34:25.000Z</time>
|
|
</trkpt>
|
|
<trkpt lat="55.153779" lon="8.707263">
|
|
<ele>-29.111392</ele>
|
|
<time>2026-07-10T13:34:26.000Z</time>
|
|
</trkpt>
|
|
<trkpt lat="55.153784" lon="8.707366">
|
|
<ele>-29.120174</ele>
|
|
<time>2026-07-10T13:34:27.000Z</time>
|
|
</trkpt>
|
|
<trkpt lat="55.153791" lon="8.707468">
|
|
<ele>-29.128902</ele>
|
|
<time>2026-07-10T13:34:28.000Z</time>
|
|
</trkpt>
|
|
<trkpt lat="55.153794" lon="8.707568">
|
|
<ele>-29.137409</ele>
|
|
<time>2026-07-10T13:34:29.000Z</time>
|
|
</trkpt>
|
|
<trkpt lat="55.153799" lon="8.707670">
|
|
<ele>-29.146107</ele>
|
|
<time>2026-07-10T13:34:30.000Z</time>
|
|
</trkpt>
|
|
<trkpt lat="55.153806" lon="8.707768">
|
|
<ele>-29.154497</ele>
|
|
<time>2026-07-10T13:34:31.000Z</time>
|
|
</trkpt>
|
|
<trkpt lat="55.153810" lon="8.707865">
|
|
<ele>-29.162760</ele>
|
|
<time>2026-07-10T13:34:32.000Z</time>
|
|
</trkpt>
|
|
<trkpt lat="55.153814" lon="8.707961">
|
|
<ele>-29.170937</ele>
|
|
<time>2026-07-10T13:34:33.000Z</time>
|
|
</trkpt>
|
|
<trkpt lat="55.153820" lon="8.708060">
|
|
<ele>-29.179395</ele>
|
|
<time>2026-07-10T13:34:34.000Z</time>
|
|
</trkpt>
|
|
<trkpt lat="55.153821" lon="8.708155">
|
|
<ele>-29.187467</ele>
|
|
<time>2026-07-10T13:34:35.000Z</time>
|
|
</trkpt>
|
|
<trkpt lat="55.153825" lon="8.708246">
|
|
<ele>-29.195221</ele>
|
|
<time>2026-07-10T13:34:36.000Z</time>
|
|
</trkpt>
|
|
<trkpt lat="55.153829" lon="8.708338">
|
|
<ele>-29.203060</ele>
|
|
<time>2026-07-10T13:34:37.000Z</time>
|
|
</trkpt>
|
|
<trkpt lat="55.153833" lon="8.708434">
|
|
<ele>-29.211237</ele>
|
|
<time>2026-07-10T13:34:38.000Z</time>
|
|
</trkpt>
|
|
<trkpt lat="55.153836" lon="8.708528">
|
|
<ele>-29.219236</ele>
|
|
<time>2026-07-10T13:34:39.000Z</time>
|
|
</trkpt>
|
|
<trkpt lat="55.153839" lon="8.708623">
|
|
<ele>-29.227319</ele>
|
|
<time>2026-07-10T13:34:40.000Z</time>
|
|
</trkpt>
|
|
<trkpt lat="55.153839" lon="8.708716">
|
|
<ele>-29.235220</ele>
|
|
<time>2026-07-10T13:34:41.000Z</time>
|
|
</trkpt>
|
|
<trkpt lat="55.153840" lon="8.708809">
|
|
<ele>-29.243122</ele>
|
|
<time>2026-07-10T13:34:42.000Z</time>
|
|
</trkpt>
|
|
<trkpt lat="55.153844" lon="8.708903">
|
|
<ele>-29.251130</ele>
|
|
<time>2026-07-10T13:34:43.000Z</time>
|
|
</trkpt>
|
|
<trkpt lat="55.153848" lon="8.708997">
|
|
<ele>-29.259138</ele>
|
|
<time>2026-07-10T13:34:44.000Z</time>
|
|
</trkpt>
|
|
<trkpt lat="55.153853" lon="8.709090">
|
|
<ele>-29.267074</ele>
|
|
<time>2026-07-10T13:34:45.000Z</time>
|
|
</trkpt>
|
|
<trkpt lat="55.153858" lon="8.709182">
|
|
<ele>-29.274925</ele>
|
|
<time>2026-07-10T13:34:46.000Z</time>
|
|
</trkpt>
|
|
<trkpt lat="55.153858" lon="8.709276">
|
|
<ele>-29.282911</ele>
|
|
<time>2026-07-10T13:34:47.000Z</time>
|
|
</trkpt>
|
|
<trkpt lat="55.153859" lon="8.709369">
|
|
<ele>-29.290814</ele>
|
|
<time>2026-07-10T13:34:48.000Z</time>
|
|
</trkpt>
|
|
<trkpt lat="55.153863" lon="8.709458">
|
|
<ele>-29.298398</ele>
|
|
<time>2026-07-10T13:34:49.000Z</time>
|
|
</trkpt>
|
|
<trkpt lat="55.153866" lon="8.709545">
|
|
<ele>-29.305803</ele>
|
|
<time>2026-07-10T13:34:50.000Z</time>
|
|
</trkpt>
|
|
<trkpt lat="55.153867" lon="8.709641">
|
|
<ele>-29.313960</ele>
|
|
<time>2026-07-10T13:34:51.000Z</time>
|
|
</trkpt>
|
|
<trkpt lat="55.153871" lon="8.709734">
|
|
<ele>-29.321883</ele>
|
|
<time>2026-07-10T13:34:52.000Z</time>
|
|
</trkpt>
|
|
<trkpt lat="55.153875" lon="8.709823">
|
|
<ele>-29.329468</ele>
|
|
<time>2026-07-10T13:34:53.000Z</time>
|
|
</trkpt>
|
|
<trkpt lat="55.153879" lon="8.709908">
|
|
<ele>-29.336714</ele>
|
|
<time>2026-07-10T13:34:54.000Z</time>
|
|
</trkpt>
|
|
<trkpt lat="55.153887" lon="8.709989">
|
|
<ele>-29.345814</ele>
|
|
<time>2026-07-10T13:34:55.000Z</time>
|
|
</trkpt>
|
|
<trkpt lat="55.153896" lon="8.710064">
|
|
<ele>-29.354341</ele>
|
|
<time>2026-07-10T13:34:56.000Z</time>
|
|
</trkpt>
|
|
<trkpt lat="55.153909" lon="8.710129">
|
|
<ele>-29.362003</ele>
|
|
<time>2026-07-10T13:34:57.000Z</time>
|
|
</trkpt>
|
|
<trkpt lat="55.153925" lon="8.710175">
|
|
<ele>-29.367995</ele>
|
|
<time>2026-07-10T13:34:58.000Z</time>
|
|
</trkpt>
|
|
<trkpt lat="55.153961" lon="8.710212">
|
|
<ele>-29.376125</ele>
|
|
<time>2026-07-10T13:34:59.000Z</time>
|
|
</trkpt>
|
|
<trkpt lat="55.153999" lon="8.710213">
|
|
<ele>-29.383525</ele>
|
|
<time>2026-07-10T13:35:00.000Z</time>
|
|
</trkpt>
|
|
<trkpt lat="55.154037" lon="8.710191">
|
|
<ele>-29.391319</ele>
|
|
<time>2026-07-10T13:35:01.000Z</time>
|
|
</trkpt>
|
|
<trkpt lat="55.154076" lon="8.710147">
|
|
<ele>-29.400355</ele>
|
|
<time>2026-07-10T13:35:02.000Z</time>
|
|
</trkpt>
|
|
<trkpt lat="55.154112" lon="8.710092">
|
|
<ele>-29.409660</ele>
|
|
<time>2026-07-10T13:35:03.000Z</time>
|
|
</trkpt>
|
|
<trkpt lat="55.154145" lon="8.710028">
|
|
<ele>-29.419252</ele>
|
|
<time>2026-07-10T13:35:04.000Z</time>
|
|
</trkpt>
|
|
<trkpt lat="55.154177" lon="8.709959">
|
|
<ele>-29.429139</ele>
|
|
<time>2026-07-10T13:35:05.000Z</time>
|
|
</trkpt>
|
|
<trkpt lat="55.154210" lon="8.709891">
|
|
<ele>-29.439066</ele>
|
|
<time>2026-07-10T13:35:06.000Z</time>
|
|
</trkpt>
|
|
<trkpt lat="55.154243" lon="8.709826">
|
|
<ele>-29.448740</ele>
|
|
<time>2026-07-10T13:35:07.000Z</time>
|
|
</trkpt>
|
|
<trkpt lat="55.154280" lon="8.709759">
|
|
<ele>-29.459108</ele>
|
|
<time>2026-07-10T13:35:08.000Z</time>
|
|
</trkpt>
|
|
<trkpt lat="55.154315" lon="8.709693">
|
|
<ele>-29.469126</ele>
|
|
<time>2026-07-10T13:35:09.000Z</time>
|
|
</trkpt>
|
|
<trkpt lat="55.154349" lon="8.709625">
|
|
<ele>-29.479180</ele>
|
|
<time>2026-07-10T13:35:10.000Z</time>
|
|
</trkpt>
|
|
<trkpt lat="55.154382" lon="8.709556">
|
|
<ele>-29.489191</ele>
|
|
<time>2026-07-10T13:35:11.000Z</time>
|
|
</trkpt>
|
|
<trkpt lat="55.154414" lon="8.709489">
|
|
<ele>-29.498907</ele>
|
|
<time>2026-07-10T13:35:12.000Z</time>
|
|
</trkpt>
|
|
<trkpt lat="55.154448" lon="8.709423">
|
|
<ele>-29.508794</ele>
|
|
<time>2026-07-10T13:35:13.000Z</time>
|
|
</trkpt>
|
|
<trkpt lat="55.154482" lon="8.709355">
|
|
<ele>-29.518848</ele>
|
|
<time>2026-07-10T13:35:14.000Z</time>
|
|
</trkpt>
|
|
<trkpt lat="55.154516" lon="8.709285">
|
|
<ele>-29.529070</ele>
|
|
<time>2026-07-10T13:35:15.000Z</time>
|
|
</trkpt>
|
|
<trkpt lat="55.154547" lon="8.709215">
|
|
<ele>-29.538924</ele>
|
|
<time>2026-07-10T13:35:16.000Z</time>
|
|
</trkpt>
|
|
<trkpt lat="55.154582" lon="8.709147">
|
|
<ele>-29.549107</ele>
|
|
<time>2026-07-10T13:35:17.000Z</time>
|
|
</trkpt>
|
|
<trkpt lat="55.154616" lon="8.709079">
|
|
<ele>-29.559160</ele>
|
|
<time>2026-07-10T13:35:18.000Z</time>
|
|
</trkpt>
|
|
<trkpt lat="55.154649" lon="8.709009">
|
|
<ele>-29.569257</ele>
|
|
<time>2026-07-10T13:35:19.000Z</time>
|
|
</trkpt>
|
|
<trkpt lat="55.154681" lon="8.708939">
|
|
<ele>-29.579231</ele>
|
|
<time>2026-07-10T13:35:20.000Z</time>
|
|
</trkpt>
|
|
<trkpt lat="55.154715" lon="8.708870">
|
|
<ele>-29.589369</ele>
|
|
<time>2026-07-10T13:35:21.000Z</time>
|
|
</trkpt>
|
|
<trkpt lat="55.154751" lon="8.708804">
|
|
<ele>-29.599521</ele>
|
|
<time>2026-07-10T13:35:22.000Z</time>
|
|
</trkpt>
|
|
<trkpt lat="55.154788" lon="8.708738">
|
|
<ele>-29.609808</ele>
|
|
<time>2026-07-10T13:35:23.000Z</time>
|
|
</trkpt>
|
|
<trkpt lat="55.154822" lon="8.708669">
|
|
<ele>-29.619946</ele>
|
|
<time>2026-07-10T13:35:24.000Z</time>
|
|
</trkpt>
|
|
<trkpt lat="55.154855" lon="8.708602">
|
|
<ele>-29.629788</ele>
|
|
<time>2026-07-10T13:35:25.000Z</time>
|
|
</trkpt>
|
|
<trkpt lat="55.154887" lon="8.708536">
|
|
<ele>-29.639418</ele>
|
|
<time>2026-07-10T13:35:26.000Z</time>
|
|
</trkpt>
|
|
<trkpt lat="55.154925" lon="8.708467">
|
|
<ele>-29.650081</ele>
|
|
<time>2026-07-10T13:35:27.000Z</time>
|
|
</trkpt>
|
|
<trkpt lat="55.154959" lon="8.708401">
|
|
<ele>-29.659968</ele>
|
|
<time>2026-07-10T13:35:28.000Z</time>
|
|
</trkpt>
|
|
<trkpt lat="55.154993" lon="8.708336">
|
|
<ele>-29.669773</ele>
|
|
<time>2026-07-10T13:35:29.000Z</time>
|
|
</trkpt>
|
|
<trkpt lat="55.155024" lon="8.708271">
|
|
<ele>-29.679193</ele>
|
|
<time>2026-07-10T13:35:30.000Z</time>
|
|
</trkpt>
|
|
<trkpt lat="55.155056" lon="8.708206">
|
|
<ele>-29.688139</ele>
|
|
<time>2026-07-10T13:35:31.000Z</time>
|
|
</trkpt>
|
|
<trkpt lat="55.155084" lon="8.708143">
|
|
<ele>-29.693761</ele>
|
|
<time>2026-07-10T13:35:32.000Z</time>
|
|
</trkpt>
|
|
<trkpt lat="55.155115" lon="8.708086">
|
|
<ele>-29.699304</ele>
|
|
<time>2026-07-10T13:35:33.000Z</time>
|
|
</trkpt>
|
|
<trkpt lat="55.155142" lon="8.708037">
|
|
<ele>-29.704098</ele>
|
|
<time>2026-07-10T13:35:34.000Z</time>
|
|
</trkpt>
|
|
<trkpt lat="55.155163" lon="8.707992">
|
|
<ele>-29.708191</ele>
|
|
<time>2026-07-10T13:35:35.000Z</time>
|
|
</trkpt>
|
|
<trkpt lat="55.155187" lon="8.707948">
|
|
<ele>-29.712476</ele>
|
|
<time>2026-07-10T13:35:36.000Z</time>
|
|
</trkpt>
|
|
<trkpt lat="55.155205" lon="8.707915">
|
|
<ele>-29.715689</ele>
|
|
<time>2026-07-10T13:35:37.000Z</time>
|
|
</trkpt>
|
|
<trkpt lat="55.155218" lon="8.707892">
|
|
<ele>-29.717968</ele>
|
|
<time>2026-07-10T13:35:38.000Z</time>
|
|
</trkpt>
|
|
<trkpt lat="55.155226" lon="8.707881">
|
|
<ele>-29.719222</ele>
|
|
<time>2026-07-10T13:35:39.000Z</time>
|
|
</trkpt>
|
|
<trkpt lat="55.155239" lon="8.707853">
|
|
<ele>-29.721763</ele>
|
|
<time>2026-07-10T13:35:57.000Z</time>
|
|
</trkpt>
|
|
<trkpt lat="55.155251" lon="8.707824">
|
|
<ele>-29.724285</ele>
|
|
<time>2026-07-10T13:35:58.000Z</time>
|
|
</trkpt>
|
|
<trkpt lat="55.155279" lon="8.707764">
|
|
<ele>-29.729742</ele>
|
|
<time>2026-07-10T13:35:59.000Z</time>
|
|
</trkpt>
|
|
<trkpt lat="55.155298" lon="8.707717">
|
|
<ele>-29.733797</ele>
|
|
<time>2026-07-10T13:36:00.000Z</time>
|
|
</trkpt>
|
|
<trkpt lat="55.155319" lon="8.707667">
|
|
<ele>-29.738168</ele>
|
|
<time>2026-07-10T13:36:01.000Z</time>
|
|
</trkpt>
|
|
<trkpt lat="55.155347" lon="8.707617">
|
|
<ele>-29.743099</ele>
|
|
<time>2026-07-10T13:36:02.000Z</time>
|
|
</trkpt>
|
|
<trkpt lat="55.155378" lon="8.707566">
|
|
<ele>-29.748344</ele>
|
|
<time>2026-07-10T13:36:03.000Z</time>
|
|
</trkpt>
|
|
<trkpt lat="55.155408" lon="8.707511">
|
|
<ele>-29.753699</ele>
|
|
<time>2026-07-10T13:36:04.000Z</time>
|
|
</trkpt>
|
|
<trkpt lat="55.155440" lon="8.707451">
|
|
<ele>-29.759481</ele>
|
|
<time>2026-07-10T13:36:05.000Z</time>
|
|
</trkpt>
|
|
<trkpt lat="55.155473" lon="8.707387">
|
|
<ele>-29.765553</ele>
|
|
<time>2026-07-10T13:36:06.000Z</time>
|
|
</trkpt>
|
|
<trkpt lat="55.155504" lon="8.707322">
|
|
<ele>-29.771516</ele>
|
|
<time>2026-07-10T13:36:07.000Z</time>
|
|
</trkpt>
|
|
<trkpt lat="55.155534" lon="8.707255">
|
|
<ele>-29.777512</ele>
|
|
<time>2026-07-10T13:36:08.000Z</time>
|
|
</trkpt>
|
|
<trkpt lat="55.155565" lon="8.707187">
|
|
<ele>-29.783639</ele>
|
|
<time>2026-07-10T13:36:09.000Z</time>
|
|
</trkpt>
|
|
<trkpt lat="55.155595" lon="8.707120">
|
|
<ele>-29.789635</ele>
|
|
<time>2026-07-10T13:36:10.000Z</time>
|
|
</trkpt>
|
|
<trkpt lat="55.155627" lon="8.707051">
|
|
<ele>-29.795894</ele>
|
|
<time>2026-07-10T13:36:11.000Z</time>
|
|
</trkpt>
|
|
<trkpt lat="55.155660" lon="8.706986">
|
|
<ele>-29.802018</ele>
|
|
<time>2026-07-10T13:36:12.000Z</time>
|
|
</trkpt>
|
|
<trkpt lat="55.155691" lon="8.706921">
|
|
<ele>-29.807982</ele>
|
|
<time>2026-07-10T13:36:13.000Z</time>
|
|
</trkpt>
|
|
<trkpt lat="55.155725" lon="8.706852">
|
|
<ele>-29.814400</ele>
|
|
<time>2026-07-10T13:36:14.000Z</time>
|
|
</trkpt>
|
|
<trkpt lat="55.155755" lon="8.706784">
|
|
<ele>-29.820451</ele>
|
|
<time>2026-07-10T13:36:15.000Z</time>
|
|
</trkpt>
|
|
<trkpt lat="55.155787" lon="8.706720">
|
|
<ele>-29.826441</ele>
|
|
<time>2026-07-10T13:36:16.000Z</time>
|
|
</trkpt>
|
|
<trkpt lat="55.155819" lon="8.706654">
|
|
<ele>-29.832538</ele>
|
|
<time>2026-07-10T13:36:17.000Z</time>
|
|
</trkpt>
|
|
<trkpt lat="55.155852" lon="8.706587">
|
|
<ele>-29.838768</ele>
|
|
<time>2026-07-10T13:36:18.000Z</time>
|
|
</trkpt>
|
|
<trkpt lat="55.155886" lon="8.706522">
|
|
<ele>-29.844975</ele>
|
|
<time>2026-07-10T13:36:19.000Z</time>
|
|
</trkpt>
|
|
<trkpt lat="55.155920" lon="8.706459">
|
|
<ele>-29.851079</ele>
|
|
<time>2026-07-10T13:36:20.000Z</time>
|
|
</trkpt>
|
|
<trkpt lat="55.155956" lon="8.706397">
|
|
<ele>-29.857305</ele>
|
|
<time>2026-07-10T13:36:21.000Z</time>
|
|
</trkpt>
|
|
<trkpt lat="55.155994" lon="8.706334">
|
|
<ele>-29.863758</ele>
|
|
<time>2026-07-10T13:36:22.000Z</time>
|
|
</trkpt>
|
|
<trkpt lat="55.156031" lon="8.706269">
|
|
<ele>-29.870220</ele>
|
|
<time>2026-07-10T13:36:23.000Z</time>
|
|
</trkpt>
|
|
<trkpt lat="55.156067" lon="8.706202">
|
|
<ele>-29.876698</ele>
|
|
<time>2026-07-10T13:36:24.000Z</time>
|
|
</trkpt>
|
|
<trkpt lat="55.156104" lon="8.706134">
|
|
<ele>-29.883312</ele>
|
|
<time>2026-07-10T13:36:25.000Z</time>
|
|
</trkpt>
|
|
<trkpt lat="55.156143" lon="8.706068">
|
|
<ele>-29.890000</ele>
|
|
<time>2026-07-10T13:36:26.000Z</time>
|
|
</trkpt>
|
|
<trkpt lat="55.156185" lon="8.705998">
|
|
<ele>-29.897149</ele>
|
|
<time>2026-07-10T13:36:27.000Z</time>
|
|
</trkpt>
|
|
<trkpt lat="55.156223" lon="8.705927">
|
|
<ele>-29.904001</ele>
|
|
<time>2026-07-10T13:36:28.000Z</time>
|
|
</trkpt>
|
|
<trkpt lat="55.156261" lon="8.705858">
|
|
<ele>-29.906560</ele>
|
|
<time>2026-07-10T13:36:29.000Z</time>
|
|
</trkpt>
|
|
<trkpt lat="55.156299" lon="8.705790">
|
|
<ele>-29.898619</ele>
|
|
<time>2026-07-10T13:36:30.000Z</time>
|
|
</trkpt>
|
|
<trkpt lat="55.156337" lon="8.705722">
|
|
<ele>-29.890678</ele>
|
|
<time>2026-07-10T13:36:31.000Z</time>
|
|
</trkpt>
|
|
<trkpt lat="55.156377" lon="8.705654">
|
|
<ele>-29.882531</ele>
|
|
<time>2026-07-10T13:36:32.000Z</time>
|
|
</trkpt>
|
|
<trkpt lat="55.156418" lon="8.705589">
|
|
<ele>-29.874448</ele>
|
|
<time>2026-07-10T13:36:33.000Z</time>
|
|
</trkpt>
|
|
<trkpt lat="55.156463" lon="8.705527">
|
|
<ele>-29.866080</ele>
|
|
<time>2026-07-10T13:36:34.000Z</time>
|
|
</trkpt>
|
|
<trkpt lat="55.156511" lon="8.705472">
|
|
<ele>-29.857697</ele>
|
|
<time>2026-07-10T13:36:35.000Z</time>
|
|
</trkpt>
|
|
<trkpt lat="55.156558" lon="8.705424">
|
|
<ele>-29.849746</ele>
|
|
<time>2026-07-10T13:36:36.000Z</time>
|
|
</trkpt>
|
|
<trkpt lat="55.156608" lon="8.705385">
|
|
<ele>-29.841748</ele>
|
|
<time>2026-07-10T13:36:37.000Z</time>
|
|
</trkpt>
|
|
<trkpt lat="55.156658" lon="8.705354">
|
|
<ele>-29.833997</ele>
|
|
<time>2026-07-10T13:36:38.000Z</time>
|
|
</trkpt>
|
|
<trkpt lat="55.156712" lon="8.705326">
|
|
<ele>-29.825768</ele>
|
|
<time>2026-07-10T13:36:39.000Z</time>
|
|
</trkpt>
|
|
<trkpt lat="55.156765" lon="8.705299">
|
|
<ele>-29.817703</ele>
|
|
<time>2026-07-10T13:36:40.000Z</time>
|
|
</trkpt>
|
|
<trkpt lat="55.156820" lon="8.705273">
|
|
<ele>-29.809378</ele>
|
|
<time>2026-07-10T13:36:41.000Z</time>
|
|
</trkpt>
|
|
<trkpt lat="55.156877" lon="8.705247">
|
|
<ele>-29.800772</ele>
|
|
<time>2026-07-10T13:36:42.000Z</time>
|
|
</trkpt>
|
|
<trkpt lat="55.156934" lon="8.705222">
|
|
<ele>-29.792185</ele>
|
|
<time>2026-07-10T13:36:43.000Z</time>
|
|
</trkpt>
|
|
<trkpt lat="55.156991" lon="8.705196">
|
|
<ele>-29.783579</ele>
|
|
<time>2026-07-10T13:36:44.000Z</time>
|
|
</trkpt>
|
|
<trkpt lat="55.157048" lon="8.705172">
|
|
<ele>-29.775013</ele>
|
|
<time>2026-07-10T13:36:45.000Z</time>
|
|
</trkpt>
|
|
<trkpt lat="55.157106" lon="8.705148">
|
|
<ele>-29.766304</ele>
|
|
<time>2026-07-10T13:36:46.000Z</time>
|
|
</trkpt>
|
|
<trkpt lat="55.157162" lon="8.705122">
|
|
<ele>-29.757839</ele>
|
|
<time>2026-07-10T13:36:47.000Z</time>
|
|
</trkpt>
|
|
<trkpt lat="55.157215" lon="8.705101">
|
|
<ele>-29.749899</ele>
|
|
<time>2026-07-10T13:36:48.000Z</time>
|
|
</trkpt>
|
|
<trkpt lat="55.157273" lon="8.705078">
|
|
<ele>-29.741209</ele>
|
|
<time>2026-07-10T13:36:49.000Z</time>
|
|
</trkpt>
|
|
<trkpt lat="55.157330" lon="8.705052">
|
|
<ele>-29.732603</ele>
|
|
<time>2026-07-10T13:36:50.000Z</time>
|
|
</trkpt>
|
|
<trkpt lat="55.157383" lon="8.705025">
|
|
<ele>-29.724537</ele>
|
|
<time>2026-07-10T13:36:51.000Z</time>
|
|
</trkpt>
|
|
<trkpt lat="55.157436" lon="8.704998">
|
|
<ele>-29.716472</ele>
|
|
<time>2026-07-10T13:36:52.000Z</time>
|
|
</trkpt>
|
|
<trkpt lat="55.157488" lon="8.704973">
|
|
<ele>-29.708592</ele>
|
|
<time>2026-07-10T13:36:53.000Z</time>
|
|
</trkpt>
|
|
<trkpt lat="55.157544" lon="8.704944">
|
|
<ele>-29.700059</ele>
|
|
<time>2026-07-10T13:36:54.000Z</time>
|
|
</trkpt>
|
|
<trkpt lat="55.157597" lon="8.704919">
|
|
<ele>-29.692039</ele>
|
|
<time>2026-07-10T13:36:55.000Z</time>
|
|
</trkpt>
|
|
<trkpt lat="55.157651" lon="8.704894">
|
|
<ele>-29.683877</ele>
|
|
<time>2026-07-10T13:36:56.000Z</time>
|
|
</trkpt>
|
|
<trkpt lat="55.157704" lon="8.704867">
|
|
<ele>-29.675812</ele>
|
|
<time>2026-07-10T13:36:57.000Z</time>
|
|
</trkpt>
|
|
<trkpt lat="55.157757" lon="8.704837">
|
|
<ele>-29.667673</ele>
|
|
<time>2026-07-10T13:36:58.000Z</time>
|
|
</trkpt>
|
|
<trkpt lat="55.157810" lon="8.704807">
|
|
<ele>-29.659534</ele>
|
|
<time>2026-07-10T13:36:59.000Z</time>
|
|
</trkpt>
|
|
<trkpt lat="55.157865" lon="8.704778">
|
|
<ele>-29.651141</ele>
|
|
<time>2026-07-10T13:37:00.000Z</time>
|
|
</trkpt>
|
|
<trkpt lat="55.157921" lon="8.704750">
|
|
<ele>-29.641246</ele>
|
|
<time>2026-07-10T13:37:01.000Z</time>
|
|
</trkpt>
|
|
<trkpt lat="55.157975" lon="8.704721">
|
|
<ele>-29.629624</ele>
|
|
<time>2026-07-10T13:37:02.000Z</time>
|
|
</trkpt>
|
|
<trkpt lat="55.158032" lon="8.704694">
|
|
<ele>-29.617474</ele>
|
|
<time>2026-07-10T13:37:03.000Z</time>
|
|
</trkpt>
|
|
<trkpt lat="55.158089" lon="8.704668">
|
|
<ele>-29.605354</ele>
|
|
<time>2026-07-10T13:37:04.000Z</time>
|
|
</trkpt>
|
|
<trkpt lat="55.158141" lon="8.704641">
|
|
<ele>-29.594194</ele>
|
|
<time>2026-07-10T13:37:05.000Z</time>
|
|
</trkpt>
|
|
<trkpt lat="55.158191" lon="8.704609">
|
|
<ele>-29.583240</ele>
|
|
<time>2026-07-10T13:37:06.000Z</time>
|
|
</trkpt>
|
|
<trkpt lat="55.158242" lon="8.704577">
|
|
<ele>-29.572093</ele>
|
|
<time>2026-07-10T13:37:07.000Z</time>
|
|
</trkpt>
|
|
<trkpt lat="55.158294" lon="8.704549">
|
|
<ele>-29.560898</ele>
|
|
<time>2026-07-10T13:37:08.000Z</time>
|
|
</trkpt>
|
|
<trkpt lat="55.158343" lon="8.704522">
|
|
<ele>-29.550328</ele>
|
|
<time>2026-07-10T13:37:09.000Z</time>
|
|
</trkpt>
|
|
<trkpt lat="55.158393" lon="8.704495">
|
|
<ele>-29.539562</ele>
|
|
<time>2026-07-10T13:37:10.000Z</time>
|
|
</trkpt>
|
|
<trkpt lat="55.158442" lon="8.704468">
|
|
<ele>-29.528992</ele>
|
|
<time>2026-07-10T13:37:11.000Z</time>
|
|
</trkpt>
|
|
<trkpt lat="55.158490" lon="8.704440">
|
|
<ele>-29.518582</ele>
|
|
<time>2026-07-10T13:37:12.000Z</time>
|
|
</trkpt>
|
|
<trkpt lat="55.158537" lon="8.704409">
|
|
<ele>-29.508247</ele>
|
|
<time>2026-07-10T13:37:13.000Z</time>
|
|
</trkpt>
|
|
<trkpt lat="55.158586" lon="8.704381">
|
|
<ele>-29.497642</ele>
|
|
<time>2026-07-10T13:37:14.000Z</time>
|
|
</trkpt>
|
|
<trkpt lat="55.158633" lon="8.704356">
|
|
<ele>-29.487534</ele>
|
|
<time>2026-07-10T13:37:15.000Z</time>
|
|
</trkpt>
|
|
<trkpt lat="55.158682" lon="8.704328">
|
|
<ele>-29.476929</ele>
|
|
<time>2026-07-10T13:37:16.000Z</time>
|
|
</trkpt>
|
|
<trkpt lat="55.158727" lon="8.704298">
|
|
<ele>-29.467021</ele>
|
|
<time>2026-07-10T13:37:17.000Z</time>
|
|
</trkpt>
|
|
<trkpt lat="55.158772" lon="8.704269">
|
|
<ele>-29.457154</ele>
|
|
<time>2026-07-10T13:37:18.000Z</time>
|
|
</trkpt>
|
|
<trkpt lat="55.158815" lon="8.704242">
|
|
<ele>-29.447754</ele>
|
|
<time>2026-07-10T13:37:19.000Z</time>
|
|
</trkpt>
|
|
<trkpt lat="55.158860" lon="8.704219">
|
|
<ele>-29.438109</ele>
|
|
<time>2026-07-10T13:37:20.000Z</time>
|
|
</trkpt>
|
|
<trkpt lat="55.158903" lon="8.704202">
|
|
<ele>-29.429038</ele>
|
|
<time>2026-07-10T13:37:21.000Z</time>
|
|
</trkpt>
|
|
<trkpt lat="55.158950" lon="8.704188">
|
|
<ele>-29.419229</ele>
|
|
<time>2026-07-10T13:37:22.000Z</time>
|
|
</trkpt>
|
|
<trkpt lat="55.158997" lon="8.704173">
|
|
<ele>-29.409399</ele>
|
|
<time>2026-07-10T13:37:23.000Z</time>
|
|
</trkpt>
|
|
<trkpt lat="55.159044" lon="8.704158">
|
|
<ele>-29.399569</ele>
|
|
<time>2026-07-10T13:37:24.000Z</time>
|
|
</trkpt>
|
|
<trkpt lat="55.159091" lon="8.704146">
|
|
<ele>-29.389796</ele>
|
|
<time>2026-07-10T13:37:25.000Z</time>
|
|
</trkpt>
|
|
<trkpt lat="55.159139" lon="8.704140">
|
|
<ele>-29.379894</ele>
|
|
<time>2026-07-10T13:37:26.000Z</time>
|
|
</trkpt>
|
|
<trkpt lat="55.159186" lon="8.704136">
|
|
<ele>-29.370212</ele>
|
|
<time>2026-07-10T13:37:27.000Z</time>
|
|
</trkpt>
|
|
<trkpt lat="55.159235" lon="8.704132">
|
|
<ele>-29.360119</ele>
|
|
<time>2026-07-10T13:37:28.000Z</time>
|
|
</trkpt>
|
|
<trkpt lat="55.159281" lon="8.704130">
|
|
<ele>-29.350651</ele>
|
|
<time>2026-07-10T13:37:29.000Z</time>
|
|
</trkpt>
|
|
<trkpt lat="55.159326" lon="8.704129">
|
|
<ele>-29.341391</ele>
|
|
<time>2026-07-10T13:37:30.000Z</time>
|
|
</trkpt>
|
|
<trkpt lat="55.159371" lon="8.704131">
|
|
<ele>-29.332129</ele>
|
|
<time>2026-07-10T13:37:31.000Z</time>
|
|
</trkpt>
|
|
<trkpt lat="55.159418" lon="8.704132">
|
|
<ele>-29.322458</ele>
|
|
<time>2026-07-10T13:37:32.000Z</time>
|
|
</trkpt>
|
|
<trkpt lat="55.159469" lon="8.704129">
|
|
<ele>-29.311958</ele>
|
|
<time>2026-07-10T13:37:33.000Z</time>
|
|
</trkpt>
|
|
<trkpt lat="55.159520" lon="8.704121">
|
|
<ele>-29.301423</ele>
|
|
<time>2026-07-10T13:37:34.000Z</time>
|
|
</trkpt>
|
|
<trkpt lat="55.159570" lon="8.704110">
|
|
<ele>-29.291054</ele>
|
|
<time>2026-07-10T13:37:35.000Z</time>
|
|
</trkpt>
|
|
<trkpt lat="55.159615" lon="8.704101">
|
|
<ele>-29.281735</ele>
|
|
<time>2026-07-10T13:37:36.000Z</time>
|
|
</trkpt>
|
|
<trkpt lat="55.159661" lon="8.704091">
|
|
<ele>-29.277087</ele>
|
|
<time>2026-07-10T13:37:37.000Z</time>
|
|
</trkpt>
|
|
<trkpt lat="55.159705" lon="8.704085">
|
|
<ele>-29.279869</ele>
|
|
<time>2026-07-10T13:37:38.000Z</time>
|
|
</trkpt>
|
|
<trkpt lat="55.159754" lon="8.704080">
|
|
<ele>-29.282963</ele>
|
|
<time>2026-07-10T13:37:39.000Z</time>
|
|
</trkpt>
|
|
<trkpt lat="55.159803" lon="8.704073">
|
|
<ele>-29.286063</ele>
|
|
<time>2026-07-10T13:37:40.000Z</time>
|
|
</trkpt>
|
|
<trkpt lat="55.159848" lon="8.704067">
|
|
<ele>-29.288908</ele>
|
|
<time>2026-07-10T13:37:41.000Z</time>
|
|
</trkpt>
|
|
<trkpt lat="55.159894" lon="8.704064">
|
|
<ele>-29.291810</ele>
|
|
<time>2026-07-10T13:37:42.000Z</time>
|
|
</trkpt>
|
|
<trkpt lat="55.159940" lon="8.704060">
|
|
<ele>-29.294713</ele>
|
|
<time>2026-07-10T13:37:43.000Z</time>
|
|
</trkpt>
|
|
<trkpt lat="55.159991" lon="8.704055">
|
|
<ele>-29.297933</ele>
|
|
<time>2026-07-10T13:37:44.000Z</time>
|
|
</trkpt>
|
|
<trkpt lat="55.160040" lon="8.704048">
|
|
<ele>-29.301033</ele>
|
|
<time>2026-07-10T13:37:45.000Z</time>
|
|
</trkpt>
|
|
<trkpt lat="55.160090" lon="8.704042">
|
|
<ele>-29.304192</ele>
|
|
<time>2026-07-10T13:37:46.000Z</time>
|
|
</trkpt>
|
|
<trkpt lat="55.160140" lon="8.704038">
|
|
<ele>-29.307347</ele>
|
|
<time>2026-07-10T13:37:47.000Z</time>
|
|
</trkpt>
|
|
<trkpt lat="55.160193" lon="8.704033">
|
|
<ele>-29.310693</ele>
|
|
<time>2026-07-10T13:37:48.000Z</time>
|
|
</trkpt>
|
|
<trkpt lat="55.160243" lon="8.704029">
|
|
<ele>-29.313849</ele>
|
|
<time>2026-07-10T13:37:49.000Z</time>
|
|
</trkpt>
|
|
<trkpt lat="55.160292" lon="8.704025">
|
|
<ele>-29.316941</ele>
|
|
<time>2026-07-10T13:37:50.000Z</time>
|
|
</trkpt>
|
|
<trkpt lat="55.160340" lon="8.704023">
|
|
<ele>-29.319968</ele>
|
|
<time>2026-07-10T13:37:51.000Z</time>
|
|
</trkpt>
|
|
<trkpt lat="55.160387" lon="8.704024">
|
|
<ele>-29.322931</ele>
|
|
<time>2026-07-10T13:37:52.000Z</time>
|
|
</trkpt>
|
|
<trkpt lat="55.160436" lon="8.704025">
|
|
<ele>-29.326020</ele>
|
|
<time>2026-07-10T13:37:53.000Z</time>
|
|
</trkpt>
|
|
<trkpt lat="55.160485" lon="8.704022">
|
|
<ele>-29.329111</ele>
|
|
<time>2026-07-10T13:37:54.000Z</time>
|
|
</trkpt>
|
|
<trkpt lat="55.160532" lon="8.704019">
|
|
<ele>-29.332076</ele>
|
|
<time>2026-07-10T13:37:55.000Z</time>
|
|
</trkpt>
|
|
<trkpt lat="55.160581" lon="8.704016">
|
|
<ele>-29.335167</ele>
|
|
<time>2026-07-10T13:37:56.000Z</time>
|
|
</trkpt>
|
|
<trkpt lat="55.160627" lon="8.704015">
|
|
<ele>-29.338067</ele>
|
|
<time>2026-07-10T13:37:57.000Z</time>
|
|
</trkpt>
|
|
<trkpt lat="55.160676" lon="8.704015">
|
|
<ele>-29.341156</ele>
|
|
<time>2026-07-10T13:37:58.000Z</time>
|
|
</trkpt>
|
|
<trkpt lat="55.160724" lon="8.704014">
|
|
<ele>-29.344182</ele>
|
|
<time>2026-07-10T13:37:59.000Z</time>
|
|
</trkpt>
|
|
<trkpt lat="55.160771" lon="8.704013">
|
|
<ele>-29.347146</ele>
|
|
<time>2026-07-10T13:38:00.000Z</time>
|
|
</trkpt>
|
|
<trkpt lat="55.160817" lon="8.704011">
|
|
<ele>-29.350046</ele>
|
|
<time>2026-07-10T13:38:01.000Z</time>
|
|
</trkpt>
|
|
<trkpt lat="55.160863" lon="8.704010">
|
|
<ele>-29.352947</ele>
|
|
<time>2026-07-10T13:38:02.000Z</time>
|
|
</trkpt>
|
|
<trkpt lat="55.160909" lon="8.704010">
|
|
<ele>-29.355846</ele>
|
|
<time>2026-07-10T13:38:03.000Z</time>
|
|
</trkpt>
|
|
<trkpt lat="55.160958" lon="8.704009">
|
|
<ele>-29.358936</ele>
|
|
<time>2026-07-10T13:38:04.000Z</time>
|
|
</trkpt>
|
|
<trkpt lat="55.161005" lon="8.704005">
|
|
<ele>-29.361902</ele>
|
|
<time>2026-07-10T13:38:05.000Z</time>
|
|
</trkpt>
|
|
<trkpt lat="55.161053" lon="8.704003">
|
|
<ele>-29.364929</ele>
|
|
<time>2026-07-10T13:38:06.000Z</time>
|
|
</trkpt>
|
|
<trkpt lat="55.161101" lon="8.704001">
|
|
<ele>-29.367956</ele>
|
|
<time>2026-07-10T13:38:07.000Z</time>
|
|
</trkpt>
|
|
<trkpt lat="55.161146" lon="8.703997">
|
|
<ele>-29.370796</ele>
|
|
<time>2026-07-10T13:38:08.000Z</time>
|
|
</trkpt>
|
|
<trkpt lat="55.161192" lon="8.703995">
|
|
<ele>-29.373697</ele>
|
|
<time>2026-07-10T13:38:09.000Z</time>
|
|
</trkpt>
|
|
<trkpt lat="55.161238" lon="8.703995">
|
|
<ele>-29.376597</ele>
|
|
<time>2026-07-10T13:38:10.000Z</time>
|
|
</trkpt>
|
|
<trkpt lat="55.161284" lon="8.703994">
|
|
<ele>-29.379497</ele>
|
|
<time>2026-07-10T13:38:11.000Z</time>
|
|
</trkpt>
|
|
<trkpt lat="55.161330" lon="8.703994">
|
|
<ele>-29.382397</ele>
|
|
<time>2026-07-10T13:38:12.000Z</time>
|
|
</trkpt>
|
|
<trkpt lat="55.161376" lon="8.703993">
|
|
<ele>-29.385297</ele>
|
|
<time>2026-07-10T13:38:13.000Z</time>
|
|
</trkpt>
|
|
<trkpt lat="55.161425" lon="8.703991">
|
|
<ele>-29.388387</ele>
|
|
<time>2026-07-10T13:38:14.000Z</time>
|
|
</trkpt>
|
|
<trkpt lat="55.161471" lon="8.703989">
|
|
<ele>-29.395392</ele>
|
|
<time>2026-07-10T13:38:15.000Z</time>
|
|
</trkpt>
|
|
<trkpt lat="55.161516" lon="8.703988">
|
|
<ele>-29.404172</ele>
|
|
<time>2026-07-10T13:38:16.000Z</time>
|
|
</trkpt>
|
|
<trkpt lat="55.161562" lon="8.703987">
|
|
<ele>-29.413148</ele>
|
|
<time>2026-07-10T13:38:17.000Z</time>
|
|
</trkpt>
|
|
<trkpt lat="55.161608" lon="8.703985">
|
|
<ele>-29.422126</ele>
|
|
<time>2026-07-10T13:38:18.000Z</time>
|
|
</trkpt>
|
|
<trkpt lat="55.161654" lon="8.703983">
|
|
<ele>-29.431104</ele>
|
|
<time>2026-07-10T13:38:19.000Z</time>
|
|
</trkpt>
|
|
<trkpt lat="55.161703" lon="8.703981">
|
|
<ele>-29.440667</ele>
|
|
<time>2026-07-10T13:38:20.000Z</time>
|
|
</trkpt>
|
|
<trkpt lat="55.161750" lon="8.703980">
|
|
<ele>-29.449838</ele>
|
|
<time>2026-07-10T13:38:21.000Z</time>
|
|
</trkpt>
|
|
<trkpt lat="55.161799" lon="8.703978">
|
|
<ele>-29.459401</ele>
|
|
<time>2026-07-10T13:38:22.000Z</time>
|
|
</trkpt>
|
|
<trkpt lat="55.161845" lon="8.703976">
|
|
<ele>-29.468378</ele>
|
|
<time>2026-07-10T13:38:23.000Z</time>
|
|
</trkpt>
|
|
<trkpt lat="55.161890" lon="8.703974">
|
|
<ele>-29.477161</ele>
|
|
<time>2026-07-10T13:38:24.000Z</time>
|
|
</trkpt>
|
|
<trkpt lat="55.161936" lon="8.703971">
|
|
<ele>-29.486142</ele>
|
|
<time>2026-07-10T13:38:25.000Z</time>
|
|
</trkpt>
|
|
<trkpt lat="55.161982" lon="8.703969">
|
|
<ele>-29.495120</ele>
|
|
<time>2026-07-10T13:38:26.000Z</time>
|
|
</trkpt>
|
|
<trkpt lat="55.162029" lon="8.703966">
|
|
<ele>-29.504297</ele>
|
|
<time>2026-07-10T13:38:27.000Z</time>
|
|
</trkpt>
|
|
<trkpt lat="55.162077" lon="8.703963">
|
|
<ele>-29.513668</ele>
|
|
<time>2026-07-10T13:38:28.000Z</time>
|
|
</trkpt>
|
|
<trkpt lat="55.162124" lon="8.703961">
|
|
<ele>-29.522841</ele>
|
|
<time>2026-07-10T13:38:29.000Z</time>
|
|
</trkpt>
|
|
<trkpt lat="55.162173" lon="8.703961">
|
|
<ele>-29.532401</ele>
|
|
<time>2026-07-10T13:38:30.000Z</time>
|
|
</trkpt>
|
|
<trkpt lat="55.162222" lon="8.703959">
|
|
<ele>-29.541964</ele>
|
|
<time>2026-07-10T13:38:31.000Z</time>
|
|
</trkpt>
|
|
<trkpt lat="55.162269" lon="8.703956">
|
|
<ele>-29.551140</ele>
|
|
<time>2026-07-10T13:38:32.000Z</time>
|
|
</trkpt>
|
|
<trkpt lat="55.162319" lon="8.703953">
|
|
<ele>-29.560902</ele>
|
|
<time>2026-07-10T13:38:33.000Z</time>
|
|
</trkpt>
|
|
<trkpt lat="55.162367" lon="8.703952">
|
|
<ele>-29.570268</ele>
|
|
<time>2026-07-10T13:38:34.000Z</time>
|
|
</trkpt>
|
|
<trkpt lat="55.162414" lon="8.703954">
|
|
<ele>-29.579440</ele>
|
|
<time>2026-07-10T13:38:35.000Z</time>
|
|
</trkpt>
|
|
<trkpt lat="55.162463" lon="8.703954">
|
|
<ele>-29.589001</ele>
|
|
<time>2026-07-10T13:38:36.000Z</time>
|
|
</trkpt>
|
|
<trkpt lat="55.162511" lon="8.703951">
|
|
<ele>-29.598372</ele>
|
|
<time>2026-07-10T13:38:37.000Z</time>
|
|
</trkpt>
|
|
<trkpt lat="55.162558" lon="8.703950">
|
|
<ele>-29.607543</ele>
|
|
<time>2026-07-10T13:38:38.000Z</time>
|
|
</trkpt>
|
|
<trkpt lat="55.162608" lon="8.703949">
|
|
<ele>-29.617299</ele>
|
|
<time>2026-07-10T13:38:39.000Z</time>
|
|
</trkpt>
|
|
<trkpt lat="55.162657" lon="8.703945">
|
|
<ele>-29.626870</ele>
|
|
<time>2026-07-10T13:38:40.000Z</time>
|
|
</trkpt>
|
|
<trkpt lat="55.162704" lon="8.703943">
|
|
<ele>-29.636043</ele>
|
|
<time>2026-07-10T13:38:41.000Z</time>
|
|
</trkpt>
|
|
<trkpt lat="55.162753" lon="8.703941">
|
|
<ele>-29.645606</ele>
|
|
<time>2026-07-10T13:38:42.000Z</time>
|
|
</trkpt>
|
|
<trkpt lat="55.162802" lon="8.703939">
|
|
<ele>-29.655169</ele>
|
|
<time>2026-07-10T13:38:43.000Z</time>
|
|
</trkpt>
|
|
<trkpt lat="55.162848" lon="8.703934">
|
|
<ele>-29.664161</ele>
|
|
<time>2026-07-10T13:38:44.000Z</time>
|
|
</trkpt>
|
|
<trkpt lat="55.162894" lon="8.703934">
|
|
<ele>-29.673136</ele>
|
|
<time>2026-07-10T13:38:45.000Z</time>
|
|
</trkpt>
|
|
<trkpt lat="55.162943" lon="8.703933">
|
|
<ele>-29.682697</ele>
|
|
<time>2026-07-10T13:38:46.000Z</time>
|
|
</trkpt>
|
|
<trkpt lat="55.162989" lon="8.703931">
|
|
<ele>-29.691675</ele>
|
|
<time>2026-07-10T13:38:47.000Z</time>
|
|
</trkpt>
|
|
<trkpt lat="55.163038" lon="8.703928">
|
|
<ele>-29.701241</ele>
|
|
<time>2026-07-10T13:38:48.000Z</time>
|
|
</trkpt>
|
|
<trkpt lat="55.163085" lon="8.703926">
|
|
<ele>-29.710414</ele>
|
|
<time>2026-07-10T13:38:49.000Z</time>
|
|
</trkpt>
|
|
<trkpt lat="55.163131" lon="8.703923">
|
|
<ele>-29.719395</ele>
|
|
<time>2026-07-10T13:38:50.000Z</time>
|
|
</trkpt>
|
|
<trkpt lat="55.163180" lon="8.703920">
|
|
<ele>-29.728962</ele>
|
|
<time>2026-07-10T13:38:51.000Z</time>
|
|
</trkpt>
|
|
<trkpt lat="55.163225" lon="8.703917">
|
|
<ele>-29.737748</ele>
|
|
<time>2026-07-10T13:38:52.000Z</time>
|
|
</trkpt>
|
|
<trkpt lat="55.163271" lon="8.703911">
|
|
<ele>-29.738602</ele>
|
|
<time>2026-07-10T13:38:53.000Z</time>
|
|
</trkpt>
|
|
<trkpt lat="55.163317" lon="8.703908">
|
|
<ele>-29.736303</ele>
|
|
<time>2026-07-10T13:38:54.000Z</time>
|
|
</trkpt>
|
|
<trkpt lat="55.163363" lon="8.703907">
|
|
<ele>-29.734006</ele>
|
|
<time>2026-07-10T13:38:55.000Z</time>
|
|
</trkpt>
|
|
<trkpt lat="55.163409" lon="8.703906">
|
|
<ele>-29.731708</ele>
|
|
<time>2026-07-10T13:38:56.000Z</time>
|
|
</trkpt>
|
|
<trkpt lat="55.163459" lon="8.703902">
|
|
<ele>-29.729208</ele>
|
|
<time>2026-07-10T13:38:57.000Z</time>
|
|
</trkpt>
|
|
<trkpt lat="55.163509" lon="8.703899">
|
|
<ele>-29.726710</ele>
|
|
<time>2026-07-10T13:38:58.000Z</time>
|
|
</trkpt>
|
|
<trkpt lat="55.163558" lon="8.703895">
|
|
<ele>-29.724260</ele>
|
|
<time>2026-07-10T13:38:59.000Z</time>
|
|
</trkpt>
|
|
<trkpt lat="55.163607" lon="8.703891">
|
|
<ele>-29.721810</ele>
|
|
<time>2026-07-10T13:39:00.000Z</time>
|
|
</trkpt>
|
|
<trkpt lat="55.163654" lon="8.703888">
|
|
<ele>-29.719461</ele>
|
|
<time>2026-07-10T13:39:01.000Z</time>
|
|
</trkpt>
|
|
<trkpt lat="55.163703" lon="8.703887">
|
|
<ele>-29.717014</ele>
|
|
<time>2026-07-10T13:39:02.000Z</time>
|
|
</trkpt>
|
|
<trkpt lat="55.163751" lon="8.703885">
|
|
<ele>-29.714616</ele>
|
|
<time>2026-07-10T13:39:03.000Z</time>
|
|
</trkpt>
|
|
<trkpt lat="55.163797" lon="8.703882">
|
|
<ele>-29.712317</ele>
|
|
<time>2026-07-10T13:39:04.000Z</time>
|
|
</trkpt>
|
|
<trkpt lat="55.163845" lon="8.703878">
|
|
<ele>-29.709917</ele>
|
|
<time>2026-07-10T13:39:05.000Z</time>
|
|
</trkpt>
|
|
<trkpt lat="55.163894" lon="8.703873">
|
|
<ele>-29.707465</ele>
|
|
<time>2026-07-10T13:39:06.000Z</time>
|
|
</trkpt>
|
|
<trkpt lat="55.163942" lon="8.703871">
|
|
<ele>-29.705067</ele>
|
|
<time>2026-07-10T13:39:07.000Z</time>
|
|
</trkpt>
|
|
<trkpt lat="55.163988" lon="8.703869">
|
|
<ele>-29.702769</ele>
|
|
<time>2026-07-10T13:39:08.000Z</time>
|
|
</trkpt>
|
|
<trkpt lat="55.164034" lon="8.703868">
|
|
<ele>-29.700472</ele>
|
|
<time>2026-07-10T13:39:09.000Z</time>
|
|
</trkpt>
|
|
<trkpt lat="55.164080" lon="8.703866">
|
|
<ele>-29.698174</ele>
|
|
<time>2026-07-10T13:39:10.000Z</time>
|
|
</trkpt>
|
|
<trkpt lat="55.164125" lon="8.703864">
|
|
<ele>-29.695925</ele>
|
|
<time>2026-07-10T13:39:11.000Z</time>
|
|
</trkpt>
|
|
<trkpt lat="55.164170" lon="8.703860">
|
|
<ele>-29.693675</ele>
|
|
<time>2026-07-10T13:39:12.000Z</time>
|
|
</trkpt>
|
|
<trkpt lat="55.164213" lon="8.703857">
|
|
<ele>-29.691526</ele>
|
|
<time>2026-07-10T13:39:13.000Z</time>
|
|
</trkpt>
|
|
<trkpt lat="55.164259" lon="8.703853">
|
|
<ele>-29.689226</ele>
|
|
<time>2026-07-10T13:39:14.000Z</time>
|
|
</trkpt>
|
|
<trkpt lat="55.164304" lon="8.703848">
|
|
<ele>-29.686974</ele>
|
|
<time>2026-07-10T13:39:15.000Z</time>
|
|
</trkpt>
|
|
<trkpt lat="55.164347" lon="8.703844">
|
|
<ele>-29.684823</ele>
|
|
<time>2026-07-10T13:39:16.000Z</time>
|
|
</trkpt>
|
|
<trkpt lat="55.164391" lon="8.703838">
|
|
<ele>-29.682619</ele>
|
|
<time>2026-07-10T13:39:17.000Z</time>
|
|
</trkpt>
|
|
<trkpt lat="55.164434" lon="8.703832">
|
|
<ele>-29.680465</ele>
|
|
<time>2026-07-10T13:39:18.000Z</time>
|
|
</trkpt>
|
|
<trkpt lat="55.164477" lon="8.703827">
|
|
<ele>-29.678312</ele>
|
|
<time>2026-07-10T13:39:19.000Z</time>
|
|
</trkpt>
|
|
<trkpt lat="55.164518" lon="8.703821">
|
|
<ele>-29.676258</ele>
|
|
<time>2026-07-10T13:39:20.000Z</time>
|
|
</trkpt>
|
|
<trkpt lat="55.164563" lon="8.703815">
|
|
<ele>-29.674004</ele>
|
|
<time>2026-07-10T13:39:21.000Z</time>
|
|
</trkpt>
|
|
<trkpt lat="55.164605" lon="8.703809">
|
|
<ele>-29.671899</ele>
|
|
<time>2026-07-10T13:39:22.000Z</time>
|
|
</trkpt>
|
|
<trkpt lat="55.164647" lon="8.703805">
|
|
<ele>-29.669798</ele>
|
|
<time>2026-07-10T13:39:23.000Z</time>
|
|
</trkpt>
|
|
<trkpt lat="55.164688" lon="8.703800">
|
|
<ele>-29.667746</ele>
|
|
<time>2026-07-10T13:39:24.000Z</time>
|
|
</trkpt>
|
|
<trkpt lat="55.164726" lon="8.703790">
|
|
<ele>-29.665826</ele>
|
|
<time>2026-07-10T13:39:25.000Z</time>
|
|
</trkpt>
|
|
<trkpt lat="55.164764" lon="8.703781">
|
|
<ele>-29.663911</ele>
|
|
<time>2026-07-10T13:39:26.000Z</time>
|
|
</trkpt>
|
|
<trkpt lat="55.164802" lon="8.703775">
|
|
<ele>-29.662006</ele>
|
|
<time>2026-07-10T13:39:27.000Z</time>
|
|
</trkpt>
|
|
<trkpt lat="55.164841" lon="8.703769">
|
|
<ele>-29.660051</ele>
|
|
<time>2026-07-10T13:39:28.000Z</time>
|
|
</trkpt>
|
|
<trkpt lat="55.164882" lon="8.703761">
|
|
<ele>-29.657990</ele>
|
|
<time>2026-07-10T13:39:29.000Z</time>
|
|
</trkpt>
|
|
<trkpt lat="55.164921" lon="8.703752">
|
|
<ele>-29.656026</ele>
|
|
<time>2026-07-10T13:39:30.000Z</time>
|
|
</trkpt>
|
|
<trkpt lat="55.164962" lon="8.703742">
|
|
<ele>-29.653958</ele>
|
|
<time>2026-07-10T13:39:31.000Z</time>
|
|
</trkpt>
|
|
<trkpt lat="55.165002" lon="8.703732">
|
|
<ele>-29.651940</ele>
|
|
<time>2026-07-10T13:39:32.000Z</time>
|
|
</trkpt>
|
|
<trkpt lat="55.165043" lon="8.703722">
|
|
<ele>-29.649272</ele>
|
|
<time>2026-07-10T13:39:33.000Z</time>
|
|
</trkpt>
|
|
<trkpt lat="55.165085" lon="8.703710">
|
|
<ele>-29.644864</ele>
|
|
<time>2026-07-10T13:39:34.000Z</time>
|
|
</trkpt>
|
|
<trkpt lat="55.165124" lon="8.703699">
|
|
<ele>-29.640773</ele>
|
|
<time>2026-07-10T13:39:35.000Z</time>
|
|
</trkpt>
|
|
<trkpt lat="55.165166" lon="8.703689">
|
|
<ele>-29.636384</ele>
|
|
<time>2026-07-10T13:39:36.000Z</time>
|
|
</trkpt>
|
|
<trkpt lat="55.165206" lon="8.703680">
|
|
<ele>-29.632207</ele>
|
|
<time>2026-07-10T13:39:37.000Z</time>
|
|
</trkpt>
|
|
<trkpt lat="55.165246" lon="8.703673">
|
|
<ele>-29.628044</ele>
|
|
<time>2026-07-10T13:39:38.000Z</time>
|
|
</trkpt>
|
|
<trkpt lat="55.165287" lon="8.703664">
|
|
<ele>-29.623764</ele>
|
|
<time>2026-07-10T13:39:39.000Z</time>
|
|
</trkpt>
|
|
<trkpt lat="55.165330" lon="8.703653">
|
|
<ele>-29.619264</ele>
|
|
<time>2026-07-10T13:39:40.000Z</time>
|
|
</trkpt>
|
|
<trkpt lat="55.165372" lon="8.703640">
|
|
<ele>-29.614847</ele>
|
|
<time>2026-07-10T13:39:41.000Z</time>
|
|
</trkpt>
|
|
<trkpt lat="55.165414" lon="8.703628">
|
|
<ele>-29.610440</ele>
|
|
<time>2026-07-10T13:39:42.000Z</time>
|
|
</trkpt>
|
|
<trkpt lat="55.165454" lon="8.703615">
|
|
<ele>-29.606226</ele>
|
|
<time>2026-07-10T13:39:43.000Z</time>
|
|
</trkpt>
|
|
<trkpt lat="55.165494" lon="8.703605">
|
|
<ele>-29.602042</ele>
|
|
<time>2026-07-10T13:39:44.000Z</time>
|
|
</trkpt>
|
|
<trkpt lat="55.165536" lon="8.703595">
|
|
<ele>-29.597652</ele>
|
|
<time>2026-07-10T13:39:45.000Z</time>
|
|
</trkpt>
|
|
<trkpt lat="55.165578" lon="8.703583">
|
|
<ele>-29.593245</ele>
|
|
<time>2026-07-10T13:39:46.000Z</time>
|
|
</trkpt>
|
|
<trkpt lat="55.165619" lon="8.703572">
|
|
<ele>-29.588949</ele>
|
|
<time>2026-07-10T13:39:47.000Z</time>
|
|
</trkpt>
|
|
<trkpt lat="55.165661" lon="8.703562">
|
|
<ele>-29.584559</ele>
|
|
<time>2026-07-10T13:39:48.000Z</time>
|
|
</trkpt>
|
|
<trkpt lat="55.165703" lon="8.703552">
|
|
<ele>-29.580170</ele>
|
|
<time>2026-07-10T13:39:49.000Z</time>
|
|
</trkpt>
|
|
<trkpt lat="55.165743" lon="8.703542">
|
|
<ele>-29.575985</ele>
|
|
<time>2026-07-10T13:39:50.000Z</time>
|
|
</trkpt>
|
|
<trkpt lat="55.165783" lon="8.703531">
|
|
<ele>-29.571792</ele>
|
|
<time>2026-07-10T13:39:51.000Z</time>
|
|
</trkpt>
|
|
<trkpt lat="55.165826" lon="8.703518">
|
|
<ele>-29.567272</ele>
|
|
<time>2026-07-10T13:39:52.000Z</time>
|
|
</trkpt>
|
|
<trkpt lat="55.165871" lon="8.703507">
|
|
<ele>-29.562567</ele>
|
|
<time>2026-07-10T13:39:53.000Z</time>
|
|
</trkpt>
|
|
<trkpt lat="55.165917" lon="8.703495">
|
|
<ele>-29.557750</ele>
|
|
<time>2026-07-10T13:39:54.000Z</time>
|
|
</trkpt>
|
|
<trkpt lat="55.165960" lon="8.703482">
|
|
<ele>-29.553231</ele>
|
|
<time>2026-07-10T13:39:55.000Z</time>
|
|
</trkpt>
|
|
<trkpt lat="55.166005" lon="8.703469">
|
|
<ele>-29.548508</ele>
|
|
<time>2026-07-10T13:39:56.000Z</time>
|
|
</trkpt>
|
|
<trkpt lat="55.166048" lon="8.703456">
|
|
<ele>-29.543989</ele>
|
|
<time>2026-07-10T13:39:57.000Z</time>
|
|
</trkpt>
|
|
<trkpt lat="55.166093" lon="8.703442">
|
|
<ele>-29.539255</ele>
|
|
<time>2026-07-10T13:39:58.000Z</time>
|
|
</trkpt>
|
|
<trkpt lat="55.166136" lon="8.703430">
|
|
<ele>-29.534746</ele>
|
|
<time>2026-07-10T13:39:59.000Z</time>
|
|
</trkpt>
|
|
<trkpt lat="55.166180" lon="8.703418">
|
|
<ele>-29.530134</ele>
|
|
<time>2026-07-10T13:40:00.000Z</time>
|
|
</trkpt>
|
|
<trkpt lat="55.166221" lon="8.703407">
|
|
<ele>-29.525838</ele>
|
|
<time>2026-07-10T13:40:01.000Z</time>
|
|
</trkpt>
|
|
<trkpt lat="55.166266" lon="8.703397">
|
|
<ele>-29.521140</ele>
|
|
<time>2026-07-10T13:40:02.000Z</time>
|
|
</trkpt>
|
|
<trkpt lat="55.166310" lon="8.703387">
|
|
<ele>-29.516545</ele>
|
|
<time>2026-07-10T13:40:03.000Z</time>
|
|
</trkpt>
|
|
<trkpt lat="55.166352" lon="8.703378">
|
|
<ele>-29.512163</ele>
|
|
<time>2026-07-10T13:40:04.000Z</time>
|
|
</trkpt>
|
|
<trkpt lat="55.166394" lon="8.703369">
|
|
<ele>-29.507781</ele>
|
|
<time>2026-07-10T13:40:05.000Z</time>
|
|
</trkpt>
|
|
<trkpt lat="55.166436" lon="8.703356">
|
|
<ele>-29.503364</ele>
|
|
<time>2026-07-10T13:40:06.000Z</time>
|
|
</trkpt>
|
|
<trkpt lat="55.166476" lon="8.703342">
|
|
<ele>-29.499139</ele>
|
|
<time>2026-07-10T13:40:07.000Z</time>
|
|
</trkpt>
|
|
<trkpt lat="55.166516" lon="8.703329">
|
|
<ele>-29.494926</ele>
|
|
<time>2026-07-10T13:40:08.000Z</time>
|
|
</trkpt>
|
|
<trkpt lat="55.166557" lon="8.703316">
|
|
<ele>-29.490611</ele>
|
|
<time>2026-07-10T13:40:09.000Z</time>
|
|
</trkpt>
|
|
<trkpt lat="55.166596" lon="8.703303">
|
|
<ele>-29.486499</ele>
|
|
<time>2026-07-10T13:40:10.000Z</time>
|
|
</trkpt>
|
|
<trkpt lat="55.166636" lon="8.703293">
|
|
<ele>-29.482315</ele>
|
|
<time>2026-07-10T13:40:11.000Z</time>
|
|
</trkpt>
|
|
<trkpt lat="55.166672" lon="8.703285">
|
|
<ele>-29.478557</ele>
|
|
<time>2026-07-10T13:40:12.000Z</time>
|
|
</trkpt>
|
|
<trkpt lat="55.166712" lon="8.703276">
|
|
<ele>-29.474380</ele>
|
|
<time>2026-07-10T13:40:13.000Z</time>
|
|
</trkpt>
|
|
<trkpt lat="55.166748" lon="8.703265">
|
|
<ele>-29.470595</ele>
|
|
<time>2026-07-10T13:40:14.000Z</time>
|
|
</trkpt>
|
|
<trkpt lat="55.166786" lon="8.703255">
|
|
<ele>-29.466616</ele>
|
|
<time>2026-07-10T13:40:15.000Z</time>
|
|
</trkpt>
|
|
<trkpt lat="55.166824" lon="8.703245">
|
|
<ele>-29.463017</ele>
|
|
<time>2026-07-10T13:40:16.000Z</time>
|
|
</trkpt>
|
|
<trkpt lat="55.166861" lon="8.703234">
|
|
<ele>-29.460102</ele>
|
|
<time>2026-07-10T13:40:17.000Z</time>
|
|
</trkpt>
|
|
<trkpt lat="55.166896" lon="8.703224">
|
|
<ele>-29.457349</ele>
|
|
<time>2026-07-10T13:40:18.000Z</time>
|
|
</trkpt>
|
|
<trkpt lat="55.166935" lon="8.703214">
|
|
<ele>-29.454288</ele>
|
|
<time>2026-07-10T13:40:19.000Z</time>
|
|
</trkpt>
|
|
<trkpt lat="55.166973" lon="8.703204">
|
|
<ele>-29.451304</ele>
|
|
<time>2026-07-10T13:40:20.000Z</time>
|
|
</trkpt>
|
|
<trkpt lat="55.167011" lon="8.703194">
|
|
<ele>-29.448320</ele>
|
|
<time>2026-07-10T13:40:21.000Z</time>
|
|
</trkpt>
|
|
<trkpt lat="55.167049" lon="8.703184">
|
|
<ele>-29.445336</ele>
|
|
<time>2026-07-10T13:40:22.000Z</time>
|
|
</trkpt>
|
|
<trkpt lat="55.167087" lon="8.703174">
|
|
<ele>-29.442352</ele>
|
|
<time>2026-07-10T13:40:23.000Z</time>
|
|
</trkpt>
|
|
<trkpt lat="55.167125" lon="8.703165">
|
|
<ele>-29.439374</ele>
|
|
<time>2026-07-10T13:40:24.000Z</time>
|
|
</trkpt>
|
|
<trkpt lat="55.167163" lon="8.703154">
|
|
<ele>-29.436383</ele>
|
|
<time>2026-07-10T13:40:25.000Z</time>
|
|
</trkpt>
|
|
<trkpt lat="55.167203" lon="8.703144">
|
|
<ele>-29.433246</ele>
|
|
<time>2026-07-10T13:40:26.000Z</time>
|
|
</trkpt>
|
|
<trkpt lat="55.167244" lon="8.703136">
|
|
<ele>-29.430042</ele>
|
|
<time>2026-07-10T13:40:27.000Z</time>
|
|
</trkpt>
|
|
<trkpt lat="55.167282" lon="8.703129">
|
|
<ele>-29.427075</ele>
|
|
<time>2026-07-10T13:40:28.000Z</time>
|
|
</trkpt>
|
|
<trkpt lat="55.167320" lon="8.703119">
|
|
<ele>-29.424091</ele>
|
|
<time>2026-07-10T13:40:29.000Z</time>
|
|
</trkpt>
|
|
<trkpt lat="55.167359" lon="8.703106">
|
|
<ele>-29.421008</ele>
|
|
<time>2026-07-10T13:40:30.000Z</time>
|
|
</trkpt>
|
|
<trkpt lat="55.167401" lon="8.703091">
|
|
<ele>-29.417680</ele>
|
|
<time>2026-07-10T13:40:31.000Z</time>
|
|
</trkpt>
|
|
<trkpt lat="55.167442" lon="8.703078">
|
|
<ele>-29.414444</ele>
|
|
<time>2026-07-10T13:40:32.000Z</time>
|
|
</trkpt>
|
|
<trkpt lat="55.167480" lon="8.703064">
|
|
<ele>-29.411429</ele>
|
|
<time>2026-07-10T13:40:33.000Z</time>
|
|
</trkpt>
|
|
<trkpt lat="55.167519" lon="8.703050">
|
|
<ele>-29.408337</ele>
|
|
<time>2026-07-10T13:40:34.000Z</time>
|
|
</trkpt>
|
|
<trkpt lat="55.167558" lon="8.703038">
|
|
<ele>-29.405263</ele>
|
|
<time>2026-07-10T13:40:35.000Z</time>
|
|
</trkpt>
|
|
<trkpt lat="55.167598" lon="8.703031">
|
|
<ele>-29.402141</ele>
|
|
<time>2026-07-10T13:40:36.000Z</time>
|
|
</trkpt>
|
|
<trkpt lat="55.167637" lon="8.703024">
|
|
<ele>-29.399097</ele>
|
|
<time>2026-07-10T13:40:37.000Z</time>
|
|
</trkpt>
|
|
<trkpt lat="55.167678" lon="8.703013">
|
|
<ele>-29.395876</ele>
|
|
<time>2026-07-10T13:40:38.000Z</time>
|
|
</trkpt>
|
|
<trkpt lat="55.167718" lon="8.703000">
|
|
<ele>-29.392717</ele>
|
|
<time>2026-07-10T13:40:39.000Z</time>
|
|
</trkpt>
|
|
<trkpt lat="55.167760" lon="8.702989">
|
|
<ele>-29.389419</ele>
|
|
<time>2026-07-10T13:40:40.000Z</time>
|
|
</trkpt>
|
|
<trkpt lat="55.167803" lon="8.702979">
|
|
<ele>-29.386050</ele>
|
|
<time>2026-07-10T13:40:41.000Z</time>
|
|
</trkpt>
|
|
<trkpt lat="55.167847" lon="8.702968">
|
|
<ele>-29.382599</ele>
|
|
<time>2026-07-10T13:40:42.000Z</time>
|
|
</trkpt>
|
|
<trkpt lat="55.167889" lon="8.702957">
|
|
<ele>-29.379301</ele>
|
|
<time>2026-07-10T13:40:43.000Z</time>
|
|
</trkpt>
|
|
<trkpt lat="55.167931" lon="8.702945">
|
|
<ele>-29.375997</ele>
|
|
<time>2026-07-10T13:40:44.000Z</time>
|
|
</trkpt>
|
|
<trkpt lat="55.167974" lon="8.702934">
|
|
<ele>-29.372622</ele>
|
|
<time>2026-07-10T13:40:45.000Z</time>
|
|
</trkpt>
|
|
<trkpt lat="55.168019" lon="8.702923">
|
|
<ele>-29.369094</ele>
|
|
<time>2026-07-10T13:40:46.000Z</time>
|
|
</trkpt>
|
|
<trkpt lat="55.168061" lon="8.702912">
|
|
<ele>-29.365796</ele>
|
|
<time>2026-07-10T13:40:47.000Z</time>
|
|
</trkpt>
|
|
<trkpt lat="55.168103" lon="8.702901">
|
|
<ele>-29.362499</ele>
|
|
<time>2026-07-10T13:40:48.000Z</time>
|
|
</trkpt>
|
|
<trkpt lat="55.168145" lon="8.702892">
|
|
<ele>-29.359213</ele>
|
|
<time>2026-07-10T13:40:49.000Z</time>
|
|
</trkpt>
|
|
<trkpt lat="55.168187" lon="8.702882">
|
|
<ele>-29.355921</ele>
|
|
<time>2026-07-10T13:40:50.000Z</time>
|
|
</trkpt>
|
|
<trkpt lat="55.168227" lon="8.702872">
|
|
<ele>-29.352784</ele>
|
|
<time>2026-07-10T13:40:51.000Z</time>
|
|
</trkpt>
|
|
<trkpt lat="55.168267" lon="8.702859">
|
|
<ele>-29.349625</ele>
|
|
<time>2026-07-10T13:40:52.000Z</time>
|
|
</trkpt>
|
|
<trkpt lat="55.168308" lon="8.702845">
|
|
<ele>-29.346381</ele>
|
|
<time>2026-07-10T13:40:53.000Z</time>
|
|
</trkpt>
|
|
<trkpt lat="55.168347" lon="8.702834">
|
|
<ele>-29.343313</ele>
|
|
<time>2026-07-10T13:40:54.000Z</time>
|
|
</trkpt>
|
|
<trkpt lat="55.168389" lon="8.702823">
|
|
<ele>-29.340016</ele>
|
|
<time>2026-07-10T13:40:55.000Z</time>
|
|
</trkpt>
|
|
<trkpt lat="55.168431" lon="8.702810">
|
|
<ele>-29.336704</ele>
|
|
<time>2026-07-10T13:40:56.000Z</time>
|
|
</trkpt>
|
|
<trkpt lat="55.168472" lon="8.702800">
|
|
<ele>-29.333489</ele>
|
|
<time>2026-07-10T13:40:57.000Z</time>
|
|
</trkpt>
|
|
<trkpt lat="55.168511" lon="8.702787">
|
|
<ele>-29.330406</ele>
|
|
<time>2026-07-10T13:40:58.000Z</time>
|
|
</trkpt>
|
|
<trkpt lat="55.168552" lon="8.702774">
|
|
<ele>-29.327171</ele>
|
|
<time>2026-07-10T13:40:59.000Z</time>
|
|
</trkpt>
|
|
<trkpt lat="55.168591" lon="8.702763">
|
|
<ele>-29.319998</ele>
|
|
<time>2026-07-10T13:41:00.000Z</time>
|
|
</trkpt>
|
|
<trkpt lat="55.168632" lon="8.702752">
|
|
<ele>-29.282425</ele>
|
|
<time>2026-07-10T13:41:01.000Z</time>
|
|
</trkpt>
|
|
<trkpt lat="55.168670" lon="8.702740">
|
|
<ele>-29.247448</ele>
|
|
<time>2026-07-10T13:41:02.000Z</time>
|
|
</trkpt>
|
|
<trkpt lat="55.168709" lon="8.702729">
|
|
<ele>-29.211665</ele>
|
|
<time>2026-07-10T13:41:03.000Z</time>
|
|
</trkpt>
|
|
<trkpt lat="55.168747" lon="8.702718">
|
|
<ele>-29.176776</ele>
|
|
<time>2026-07-10T13:41:04.000Z</time>
|
|
</trkpt>
|
|
<trkpt lat="55.168786" lon="8.702707">
|
|
<ele>-29.140993</ele>
|
|
<time>2026-07-10T13:41:05.000Z</time>
|
|
</trkpt>
|
|
<trkpt lat="55.168827" lon="8.702695">
|
|
<ele>-29.103339</ele>
|
|
<time>2026-07-10T13:41:06.000Z</time>
|
|
</trkpt>
|
|
<trkpt lat="55.168865" lon="8.702683">
|
|
<ele>-29.068362</ele>
|
|
<time>2026-07-10T13:41:07.000Z</time>
|
|
</trkpt>
|
|
<trkpt lat="55.168903" lon="8.702675">
|
|
<ele>-29.033692</ele>
|
|
<time>2026-07-10T13:41:08.000Z</time>
|
|
</trkpt>
|
|
<trkpt lat="55.168941" lon="8.702668">
|
|
<ele>-28.999081</ele>
|
|
<time>2026-07-10T13:41:09.000Z</time>
|
|
</trkpt>
|
|
<trkpt lat="55.168979" lon="8.702660">
|
|
<ele>-28.964411</ele>
|
|
<time>2026-07-10T13:41:10.000Z</time>
|
|
</trkpt>
|
|
<trkpt lat="55.169021" lon="8.702649">
|
|
<ele>-28.925943</ele>
|
|
<time>2026-07-10T13:41:11.000Z</time>
|
|
</trkpt>
|
|
<trkpt lat="55.169059" lon="8.702637">
|
|
<ele>-28.890966</ele>
|
|
<time>2026-07-10T13:41:12.000Z</time>
|
|
</trkpt>
|
|
<trkpt lat="55.169099" lon="8.702628">
|
|
<ele>-28.854435</ele>
|
|
<time>2026-07-10T13:41:13.000Z</time>
|
|
</trkpt>
|
|
<trkpt lat="55.169140" lon="8.702620">
|
|
<ele>-28.817066</ele>
|
|
<time>2026-07-10T13:41:14.000Z</time>
|
|
</trkpt>
|
|
<trkpt lat="55.169178" lon="8.702613">
|
|
<ele>-28.782454</ele>
|
|
<time>2026-07-10T13:41:15.000Z</time>
|
|
</trkpt>
|
|
<trkpt lat="55.169216" lon="8.702607">
|
|
<ele>-28.747893</ele>
|
|
<time>2026-07-10T13:41:16.000Z</time>
|
|
</trkpt>
|
|
<trkpt lat="55.169255" lon="8.702601">
|
|
<ele>-28.712429</ele>
|
|
<time>2026-07-10T13:41:17.000Z</time>
|
|
</trkpt>
|
|
<trkpt lat="55.169297" lon="8.702594">
|
|
<ele>-28.674212</ele>
|
|
<time>2026-07-10T13:41:18.000Z</time>
|
|
</trkpt>
|
|
<trkpt lat="55.169339" lon="8.702586">
|
|
<ele>-28.635943</ele>
|
|
<time>2026-07-10T13:41:19.000Z</time>
|
|
</trkpt>
|
|
<trkpt lat="55.169381" lon="8.702580">
|
|
<ele>-28.597771</ele>
|
|
<time>2026-07-10T13:41:20.000Z</time>
|
|
</trkpt>
|
|
<trkpt lat="55.169424" lon="8.702575">
|
|
<ele>-28.558735</ele>
|
|
<time>2026-07-10T13:41:21.000Z</time>
|
|
</trkpt>
|
|
<trkpt lat="55.169469" lon="8.702567">
|
|
<ele>-28.517763</ele>
|
|
<time>2026-07-10T13:41:22.000Z</time>
|
|
</trkpt>
|
|
<trkpt lat="55.169512" lon="8.702560">
|
|
<ele>-28.478644</ele>
|
|
<time>2026-07-10T13:41:23.000Z</time>
|
|
</trkpt>
|
|
<trkpt lat="55.169557" lon="8.702556">
|
|
<ele>-28.437829</ele>
|
|
<time>2026-07-10T13:41:24.000Z</time>
|
|
</trkpt>
|
|
<trkpt lat="55.169599" lon="8.702552">
|
|
<ele>-28.399728</ele>
|
|
<time>2026-07-10T13:41:25.000Z</time>
|
|
</trkpt>
|
|
<trkpt lat="55.169644" lon="8.702547">
|
|
<ele>-28.358883</ele>
|
|
<time>2026-07-10T13:41:26.000Z</time>
|
|
</trkpt>
|
|
<trkpt lat="55.169687" lon="8.702543">
|
|
<ele>-28.319878</ele>
|
|
<time>2026-07-10T13:41:27.000Z</time>
|
|
</trkpt>
|
|
<trkpt lat="55.169732" lon="8.702541">
|
|
<ele>-28.279102</ele>
|
|
<time>2026-07-10T13:41:28.000Z</time>
|
|
</trkpt>
|
|
<trkpt lat="55.169774" lon="8.702540">
|
|
<ele>-28.241054</ele>
|
|
<time>2026-07-10T13:41:29.000Z</time>
|
|
</trkpt>
|
|
<trkpt lat="55.169816" lon="8.702541">
|
|
<ele>-28.203005</ele>
|
|
<time>2026-07-10T13:41:30.000Z</time>
|
|
</trkpt>
|
|
<trkpt lat="55.169856" lon="8.702542">
|
|
<ele>-28.166768</ele>
|
|
<time>2026-07-10T13:41:31.000Z</time>
|
|
</trkpt>
|
|
<trkpt lat="55.169896" lon="8.702546">
|
|
<ele>-28.130476</ele>
|
|
<time>2026-07-10T13:41:32.000Z</time>
|
|
</trkpt>
|
|
<trkpt lat="55.169937" lon="8.702548">
|
|
<ele>-28.093322</ele>
|
|
<time>2026-07-10T13:41:33.000Z</time>
|
|
</trkpt>
|
|
<trkpt lat="55.169975" lon="8.702551">
|
|
<ele>-28.058866</ele>
|
|
<time>2026-07-10T13:41:34.000Z</time>
|
|
</trkpt>
|
|
<trkpt lat="55.170013" lon="8.702556">
|
|
<ele>-28.024347</ele>
|
|
<time>2026-07-10T13:41:35.000Z</time>
|
|
</trkpt>
|
|
<trkpt lat="55.170051" lon="8.702562">
|
|
<ele>-27.989786</ele>
|
|
<time>2026-07-10T13:41:36.000Z</time>
|
|
</trkpt>
|
|
<trkpt lat="55.170089" lon="8.702567">
|
|
<ele>-27.955267</ele>
|
|
<time>2026-07-10T13:41:37.000Z</time>
|
|
</trkpt>
|
|
<trkpt lat="55.170128" lon="8.702572">
|
|
<ele>-27.919845</ele>
|
|
<time>2026-07-10T13:41:38.000Z</time>
|
|
</trkpt>
|
|
<trkpt lat="55.170165" lon="8.702578">
|
|
<ele>-27.886186</ele>
|
|
<time>2026-07-10T13:41:39.000Z</time>
|
|
</trkpt>
|
|
<trkpt lat="55.170199" lon="8.702582">
|
|
<ele>-27.855318</ele>
|
|
<time>2026-07-10T13:41:40.000Z</time>
|
|
</trkpt>
|
|
<trkpt lat="55.170235" lon="8.702587">
|
|
<ele>-27.822606</ele>
|
|
<time>2026-07-10T13:41:41.000Z</time>
|
|
</trkpt>
|
|
<trkpt lat="55.170270" lon="8.702591">
|
|
<ele>-27.790834</ele>
|
|
<time>2026-07-10T13:41:42.000Z</time>
|
|
</trkpt>
|
|
<trkpt lat="55.170301" lon="8.702595">
|
|
<ele>-27.762677</ele>
|
|
<time>2026-07-10T13:41:43.000Z</time>
|
|
</trkpt>
|
|
<trkpt lat="55.170331" lon="8.702603">
|
|
<ele>-27.735189</ele>
|
|
<time>2026-07-10T13:41:44.000Z</time>
|
|
</trkpt>
|
|
<trkpt lat="55.170361" lon="8.702616">
|
|
<ele>-27.707194</ele>
|
|
<time>2026-07-10T13:41:45.000Z</time>
|
|
</trkpt>
|
|
<trkpt lat="55.170391" lon="8.702629">
|
|
<ele>-27.677796</ele>
|
|
<time>2026-07-10T13:41:46.000Z</time>
|
|
</trkpt>
|
|
<trkpt lat="55.170418" lon="8.702639">
|
|
<ele>-27.650608</ele>
|
|
<time>2026-07-10T13:41:47.000Z</time>
|
|
</trkpt>
|
|
<trkpt lat="55.170445" lon="8.702648">
|
|
<ele>-27.623531</ele>
|
|
<time>2026-07-10T13:41:48.000Z</time>
|
|
</trkpt>
|
|
<trkpt lat="55.170472" lon="8.702656">
|
|
<ele>-27.596553</ele>
|
|
<time>2026-07-10T13:41:49.000Z</time>
|
|
</trkpt>
|
|
<trkpt lat="55.170503" lon="8.702667">
|
|
<ele>-27.565392</ele>
|
|
<time>2026-07-10T13:41:50.000Z</time>
|
|
</trkpt>
|
|
<trkpt lat="55.170532" lon="8.702678">
|
|
<ele>-27.536160</ele>
|
|
<time>2026-07-10T13:41:51.000Z</time>
|
|
</trkpt>
|
|
<trkpt lat="55.170560" lon="8.702689">
|
|
<ele>-27.507890</ele>
|
|
<time>2026-07-10T13:41:52.000Z</time>
|
|
</trkpt>
|
|
<trkpt lat="55.170591" lon="8.702700">
|
|
<ele>-27.476729</ele>
|
|
<time>2026-07-10T13:41:53.000Z</time>
|
|
</trkpt>
|
|
<trkpt lat="55.170621" lon="8.702712">
|
|
<ele>-27.446412</ele>
|
|
<time>2026-07-10T13:41:54.000Z</time>
|
|
</trkpt>
|
|
<trkpt lat="55.170652" lon="8.702724">
|
|
<ele>-27.415135</ele>
|
|
<time>2026-07-10T13:41:55.000Z</time>
|
|
</trkpt>
|
|
<trkpt lat="55.170681" lon="8.702739">
|
|
<ele>-27.385345</ele>
|
|
<time>2026-07-10T13:41:56.000Z</time>
|
|
</trkpt>
|
|
<trkpt lat="55.170710" lon="8.702752">
|
|
<ele>-27.355853</ele>
|
|
<time>2026-07-10T13:41:57.000Z</time>
|
|
</trkpt>
|
|
<trkpt lat="55.170743" lon="8.702766">
|
|
<ele>-27.322402</ele>
|
|
<time>2026-07-10T13:41:58.000Z</time>
|
|
</trkpt>
|
|
<trkpt lat="55.170775" lon="8.702778">
|
|
<ele>-27.290162</ele>
|
|
<time>2026-07-10T13:41:59.000Z</time>
|
|
</trkpt>
|
|
<trkpt lat="55.170809" lon="8.702790">
|
|
<ele>-27.255993</ele>
|
|
<time>2026-07-10T13:42:00.000Z</time>
|
|
</trkpt>
|
|
<trkpt lat="55.170843" lon="8.702802">
|
|
<ele>-27.221823</ele>
|
|
<time>2026-07-10T13:42:01.000Z</time>
|
|
</trkpt>
|
|
<trkpt lat="55.170877" lon="8.702816">
|
|
<ele>-27.187414</ele>
|
|
<time>2026-07-10T13:42:02.000Z</time>
|
|
</trkpt>
|
|
<trkpt lat="55.170908" lon="8.702828">
|
|
<ele>-27.156137</ele>
|
|
<time>2026-07-10T13:42:03.000Z</time>
|
|
</trkpt>
|
|
<trkpt lat="55.170943" lon="8.702841">
|
|
<ele>-27.120889</ele>
|
|
<time>2026-07-10T13:42:04.000Z</time>
|
|
</trkpt>
|
|
<trkpt lat="55.170977" lon="8.702856">
|
|
<ele>-27.086346</ele>
|
|
<time>2026-07-10T13:42:05.000Z</time>
|
|
</trkpt>
|
|
<trkpt lat="55.171011" lon="8.702870">
|
|
<ele>-27.051937</ele>
|
|
<time>2026-07-10T13:42:06.000Z</time>
|
|
</trkpt>
|
|
<trkpt lat="55.171045" lon="8.702884">
|
|
<ele>-27.017527</ele>
|
|
<time>2026-07-10T13:42:07.000Z</time>
|
|
</trkpt>
|
|
<trkpt lat="55.171081" lon="8.702898">
|
|
<ele>-26.981197</ele>
|
|
<time>2026-07-10T13:42:08.000Z</time>
|
|
</trkpt>
|
|
<trkpt lat="55.171118" lon="8.702913">
|
|
<ele>-26.943782</ele>
|
|
<time>2026-07-10T13:42:09.000Z</time>
|
|
</trkpt>
|
|
<trkpt lat="55.171152" lon="8.702928">
|
|
<ele>-26.909239</ele>
|
|
<time>2026-07-10T13:42:10.000Z</time>
|
|
</trkpt>
|
|
<trkpt lat="55.171187" lon="8.702942">
|
|
<ele>-26.873870</ele>
|
|
<time>2026-07-10T13:42:11.000Z</time>
|
|
</trkpt>
|
|
<trkpt lat="55.171226" lon="8.702958">
|
|
<ele>-26.834408</ele>
|
|
<time>2026-07-10T13:42:12.000Z</time>
|
|
</trkpt>
|
|
<trkpt lat="55.171264" lon="8.702974">
|
|
<ele>-26.795905</ele>
|
|
<time>2026-07-10T13:42:13.000Z</time>
|
|
</trkpt>
|
|
<trkpt lat="55.171302" lon="8.702991">
|
|
<ele>-26.757266</ele>
|
|
<time>2026-07-10T13:42:14.000Z</time>
|
|
</trkpt>
|
|
<trkpt lat="55.171339" lon="8.703007">
|
|
<ele>-26.719720</ele>
|
|
<time>2026-07-10T13:42:15.000Z</time>
|
|
</trkpt>
|
|
<trkpt lat="55.171374" lon="8.703020">
|
|
<ele>-26.684472</ele>
|
|
<time>2026-07-10T13:42:16.000Z</time>
|
|
</trkpt>
|
|
<trkpt lat="55.171409" lon="8.703033">
|
|
<ele>-26.649224</ele>
|
|
<time>2026-07-10T13:42:17.000Z</time>
|
|
</trkpt>
|
|
<trkpt lat="55.171446" lon="8.703047">
|
|
<ele>-26.611931</ele>
|
|
<time>2026-07-10T13:42:18.000Z</time>
|
|
</trkpt>
|
|
<trkpt lat="55.171482" lon="8.703063">
|
|
<ele>-26.575341</ele>
|
|
<time>2026-07-10T13:42:19.000Z</time>
|
|
</trkpt>
|
|
<trkpt lat="55.171520" lon="8.703080">
|
|
<ele>-26.536702</ele>
|
|
<time>2026-07-10T13:42:20.000Z</time>
|
|
</trkpt>
|
|
<trkpt lat="55.171558" lon="8.703097">
|
|
<ele>-26.498063</ele>
|
|
<time>2026-07-10T13:42:21.000Z</time>
|
|
</trkpt>
|
|
<trkpt lat="55.171597" lon="8.703115">
|
|
<ele>-26.458329</ele>
|
|
<time>2026-07-10T13:42:22.000Z</time>
|
|
</trkpt>
|
|
<trkpt lat="55.171639" lon="8.703134">
|
|
<ele>-26.415594</ele>
|
|
<time>2026-07-10T13:42:23.000Z</time>
|
|
</trkpt>
|
|
<trkpt lat="55.171681" lon="8.703153">
|
|
<ele>-26.372858</ele>
|
|
<time>2026-07-10T13:42:24.000Z</time>
|
|
</trkpt>
|
|
<trkpt lat="55.171723" lon="8.703171">
|
|
<ele>-26.330260</ele>
|
|
<time>2026-07-10T13:42:25.000Z</time>
|
|
</trkpt>
|
|
<trkpt lat="55.171765" lon="8.703186">
|
|
<ele>-26.288031</ele>
|
|
<time>2026-07-10T13:42:26.000Z</time>
|
|
</trkpt>
|
|
<trkpt lat="55.171807" lon="8.703204">
|
|
<ele>-26.245433</ele>
|
|
<time>2026-07-10T13:42:27.000Z</time>
|
|
</trkpt>
|
|
<trkpt lat="55.171848" lon="8.703222">
|
|
<ele>-26.203791</ele>
|
|
<time>2026-07-10T13:42:28.000Z</time>
|
|
</trkpt>
|
|
<trkpt lat="55.171888" lon="8.703242">
|
|
<ele>-26.162809</ele>
|
|
<time>2026-07-10T13:42:29.000Z</time>
|
|
</trkpt>
|
|
<trkpt lat="55.171932" lon="8.703260">
|
|
<ele>-26.118295</ele>
|
|
<time>2026-07-10T13:42:30.000Z</time>
|
|
</trkpt>
|
|
<trkpt lat="55.171971" lon="8.703278">
|
|
<ele>-26.078561</ele>
|
|
<time>2026-07-10T13:42:31.000Z</time>
|
|
</trkpt>
|
|
<trkpt lat="55.172013" lon="8.703293">
|
|
<ele>-26.036332</ele>
|
|
<time>2026-07-10T13:42:32.000Z</time>
|
|
</trkpt>
|
|
<trkpt lat="55.172055" lon="8.703313">
|
|
<ele>-25.993452</ele>
|
|
<time>2026-07-10T13:42:33.000Z</time>
|
|
</trkpt>
|
|
<trkpt lat="55.172097" lon="8.703334">
|
|
<ele>-25.950422</ele>
|
|
<time>2026-07-10T13:42:34.000Z</time>
|
|
</trkpt>
|
|
<trkpt lat="55.172137" lon="8.703353">
|
|
<ele>-25.920426</ele>
|
|
<time>2026-07-10T13:42:35.000Z</time>
|
|
</trkpt>
|
|
<trkpt lat="55.172176" lon="8.703371">
|
|
<ele>-25.912183</ele>
|
|
<time>2026-07-10T13:42:36.000Z</time>
|
|
</trkpt>
|
|
<trkpt lat="55.172217" lon="8.703390">
|
|
<ele>-25.903515</ele>
|
|
<time>2026-07-10T13:42:37.000Z</time>
|
|
</trkpt>
|
|
<trkpt lat="55.172257" lon="8.703409">
|
|
<ele>-25.895044</ele>
|
|
<time>2026-07-10T13:42:38.000Z</time>
|
|
</trkpt>
|
|
<trkpt lat="55.172299" lon="8.703427">
|
|
<ele>-25.886207</ele>
|
|
<time>2026-07-10T13:42:39.000Z</time>
|
|
</trkpt>
|
|
<trkpt lat="55.172341" lon="8.703445">
|
|
<ele>-25.877370</ele>
|
|
<time>2026-07-10T13:42:40.000Z</time>
|
|
</trkpt>
|
|
<trkpt lat="55.172384" lon="8.703461">
|
|
<ele>-25.868385</ele>
|
|
<time>2026-07-10T13:42:41.000Z</time>
|
|
</trkpt>
|
|
<trkpt lat="55.172428" lon="8.703476">
|
|
<ele>-25.859224</ele>
|
|
<time>2026-07-10T13:42:42.000Z</time>
|
|
</trkpt>
|
|
<trkpt lat="55.172467" lon="8.703491">
|
|
<ele>-25.851063</ele>
|
|
<time>2026-07-10T13:42:43.000Z</time>
|
|
</trkpt>
|
|
<trkpt lat="55.172508" lon="8.703509">
|
|
<ele>-25.842424</ele>
|
|
<time>2026-07-10T13:42:44.000Z</time>
|
|
</trkpt>
|
|
<trkpt lat="55.172546" lon="8.703529">
|
|
<ele>-25.834314</ele>
|
|
<time>2026-07-10T13:42:45.000Z</time>
|
|
</trkpt>
|
|
<trkpt lat="55.172588" lon="8.703549">
|
|
<ele>-25.825419</ele>
|
|
<time>2026-07-10T13:42:46.000Z</time>
|
|
</trkpt>
|
|
<trkpt lat="55.172627" lon="8.703569">
|
|
<ele>-25.817113</ele>
|
|
<time>2026-07-10T13:42:47.000Z</time>
|
|
</trkpt>
|
|
<trkpt lat="55.172670" lon="8.703587">
|
|
<ele>-25.808077</ele>
|
|
<time>2026-07-10T13:42:48.000Z</time>
|
|
</trkpt>
|
|
<trkpt lat="55.172715" lon="8.703605">
|
|
<ele>-25.798643</ele>
|
|
<time>2026-07-10T13:42:49.000Z</time>
|
|
</trkpt>
|
|
<trkpt lat="55.172757" lon="8.703622">
|
|
<ele>-25.789833</ele>
|
|
<time>2026-07-10T13:42:50.000Z</time>
|
|
</trkpt>
|
|
<trkpt lat="55.172799" lon="8.703638">
|
|
<ele>-25.781048</ele>
|
|
<time>2026-07-10T13:42:51.000Z</time>
|
|
</trkpt>
|
|
<trkpt lat="55.172841" lon="8.703653">
|
|
<ele>-25.772288</ele>
|
|
<time>2026-07-10T13:42:52.000Z</time>
|
|
</trkpt>
|
|
<trkpt lat="55.172883" lon="8.703670">
|
|
<ele>-25.763478</ele>
|
|
<time>2026-07-10T13:42:53.000Z</time>
|
|
</trkpt>
|
|
<trkpt lat="55.172924" lon="8.703686">
|
|
<ele>-25.754892</ele>
|
|
<time>2026-07-10T13:42:54.000Z</time>
|
|
</trkpt>
|
|
<trkpt lat="55.172963" lon="8.703700">
|
|
<ele>-25.746756</ele>
|
|
<time>2026-07-10T13:42:55.000Z</time>
|
|
</trkpt>
|
|
<trkpt lat="55.173005" lon="8.703713">
|
|
<ele>-25.738039</ele>
|
|
<time>2026-07-10T13:42:56.000Z</time>
|
|
</trkpt>
|
|
<trkpt lat="55.173045" lon="8.703727">
|
|
<ele>-25.729702</ele>
|
|
<time>2026-07-10T13:42:57.000Z</time>
|
|
</trkpt>
|
|
<trkpt lat="55.173085" lon="8.703740">
|
|
<ele>-25.721387</ele>
|
|
<time>2026-07-10T13:42:58.000Z</time>
|
|
</trkpt>
|
|
<trkpt lat="55.173126" lon="8.703755">
|
|
<ele>-25.712827</ele>
|
|
<time>2026-07-10T13:42:59.000Z</time>
|
|
</trkpt>
|
|
<trkpt lat="55.173165" lon="8.703776">
|
|
<ele>-25.704488</ele>
|
|
<time>2026-07-10T13:43:00.000Z</time>
|
|
</trkpt>
|
|
<trkpt lat="55.173206" lon="8.703797">
|
|
<ele>-25.695757</ele>
|
|
<time>2026-07-10T13:43:01.000Z</time>
|
|
</trkpt>
|
|
<trkpt lat="55.173249" lon="8.703815">
|
|
<ele>-25.686721</ele>
|
|
<time>2026-07-10T13:43:02.000Z</time>
|
|
</trkpt>
|
|
<trkpt lat="55.173290" lon="8.703834">
|
|
<ele>-25.678053</ele>
|
|
<time>2026-07-10T13:43:03.000Z</time>
|
|
</trkpt>
|
|
<trkpt lat="55.173329" lon="8.703855">
|
|
<ele>-25.669714</ele>
|
|
<time>2026-07-10T13:43:04.000Z</time>
|
|
</trkpt>
|
|
<trkpt lat="55.173371" lon="8.703873">
|
|
<ele>-25.660877</ele>
|
|
<time>2026-07-10T13:43:05.000Z</time>
|
|
</trkpt>
|
|
<trkpt lat="55.173413" lon="8.703891">
|
|
<ele>-25.652040</ele>
|
|
<time>2026-07-10T13:43:06.000Z</time>
|
|
</trkpt>
|
|
<trkpt lat="55.173455" lon="8.703906">
|
|
<ele>-25.643279</ele>
|
|
<time>2026-07-10T13:43:07.000Z</time>
|
|
</trkpt>
|
|
<trkpt lat="55.173498" lon="8.703923">
|
|
<ele>-25.634269</ele>
|
|
<time>2026-07-10T13:43:08.000Z</time>
|
|
</trkpt>
|
|
<trkpt lat="55.173543" lon="8.703938">
|
|
<ele>-25.624907</ele>
|
|
<time>2026-07-10T13:43:09.000Z</time>
|
|
</trkpt>
|
|
<trkpt lat="55.173585" lon="8.703953">
|
|
<ele>-25.616147</ele>
|
|
<time>2026-07-10T13:43:10.000Z</time>
|
|
</trkpt>
|
|
<trkpt lat="55.173627" lon="8.703970">
|
|
<ele>-25.607336</ele>
|
|
<time>2026-07-10T13:43:11.000Z</time>
|
|
</trkpt>
|
|
<trkpt lat="55.173668" lon="8.703985">
|
|
<ele>-25.598776</ele>
|
|
<time>2026-07-10T13:43:12.000Z</time>
|
|
</trkpt>
|
|
<trkpt lat="55.173709" lon="8.704001">
|
|
<ele>-25.590191</ele>
|
|
<time>2026-07-10T13:43:13.000Z</time>
|
|
</trkpt>
|
|
<trkpt lat="55.173749" lon="8.704018">
|
|
<ele>-25.581778</ele>
|
|
<time>2026-07-10T13:43:14.000Z</time>
|
|
</trkpt>
|
|
<trkpt lat="55.173789" lon="8.704036">
|
|
<ele>-25.573338</ele>
|
|
<time>2026-07-10T13:43:15.000Z</time>
|
|
</trkpt>
|
|
<trkpt lat="55.173827" lon="8.704050">
|
|
<ele>-25.565401</ele>
|
|
<time>2026-07-10T13:43:16.000Z</time>
|
|
</trkpt>
|
|
<trkpt lat="55.173865" lon="8.704065">
|
|
<ele>-25.557440</ele>
|
|
<time>2026-07-10T13:43:17.000Z</time>
|
|
</trkpt>
|
|
<trkpt lat="55.173908" lon="8.704080">
|
|
<ele>-25.540089</ele>
|
|
<time>2026-07-10T13:43:18.000Z</time>
|
|
</trkpt>
|
|
<trkpt lat="55.173946" lon="8.704091">
|
|
<ele>-25.523018</ele>
|
|
<time>2026-07-10T13:43:19.000Z</time>
|
|
</trkpt>
|
|
<trkpt lat="55.173985" lon="8.704100">
|
|
<ele>-25.505583</ele>
|
|
<time>2026-07-10T13:43:20.000Z</time>
|
|
</trkpt>
|
|
<trkpt lat="55.174026" lon="8.704111">
|
|
<ele>-25.487199</ele>
|
|
<time>2026-07-10T13:43:21.000Z</time>
|
|
</trkpt>
|
|
<trkpt lat="55.174066" lon="8.704128">
|
|
<ele>-25.468956</ele>
|
|
<time>2026-07-10T13:43:22.000Z</time>
|
|
</trkpt>
|
|
<trkpt lat="55.174108" lon="8.704145">
|
|
<ele>-25.449850</ele>
|
|
<time>2026-07-10T13:43:23.000Z</time>
|
|
</trkpt>
|
|
<trkpt lat="55.174148" lon="8.704160">
|
|
<ele>-25.431720</ele>
|
|
<time>2026-07-10T13:43:24.000Z</time>
|
|
</trkpt>
|
|
<trkpt lat="55.174188" lon="8.704173">
|
|
<ele>-25.413688</ele>
|
|
<time>2026-07-10T13:43:25.000Z</time>
|
|
</trkpt>
|
|
<trkpt lat="55.174230" lon="8.704190">
|
|
<ele>-25.394582</ele>
|
|
<time>2026-07-10T13:43:26.000Z</time>
|
|
</trkpt>
|
|
<trkpt lat="55.174270" lon="8.704212">
|
|
<ele>-25.376000</ele>
|
|
<time>2026-07-10T13:43:27.000Z</time>
|
|
</trkpt>
|
|
<trkpt lat="55.174310" lon="8.704239">
|
|
<ele>-25.356999</ele>
|
|
<time>2026-07-10T13:43:28.000Z</time>
|
|
</trkpt>
|
|
<trkpt lat="55.174351" lon="8.704263">
|
|
<ele>-25.337839</ele>
|
|
<time>2026-07-10T13:43:29.000Z</time>
|
|
</trkpt>
|
|
<trkpt lat="55.174394" lon="8.704284">
|
|
<ele>-25.318053</ele>
|
|
<time>2026-07-10T13:43:30.000Z</time>
|
|
</trkpt>
|
|
<trkpt lat="55.174438" lon="8.704304">
|
|
<ele>-25.297906</ele>
|
|
<time>2026-07-10T13:43:31.000Z</time>
|
|
</trkpt>
|
|
<trkpt lat="55.174482" lon="8.704323">
|
|
<ele>-25.277820</ele>
|
|
<time>2026-07-10T13:43:32.000Z</time>
|
|
</trkpt>
|
|
<trkpt lat="55.174527" lon="8.704341">
|
|
<ele>-25.257361</ele>
|
|
<time>2026-07-10T13:43:33.000Z</time>
|
|
</trkpt>
|
|
<trkpt lat="55.174574" lon="8.704357">
|
|
<ele>-25.236140</ele>
|
|
<time>2026-07-10T13:43:34.000Z</time>
|
|
</trkpt>
|
|
<trkpt lat="55.174620" lon="8.704373">
|
|
<ele>-25.215354</ele>
|
|
<time>2026-07-10T13:43:35.000Z</time>
|
|
</trkpt>
|
|
<trkpt lat="55.174665" lon="8.704392">
|
|
<ele>-25.194838</ele>
|
|
<time>2026-07-10T13:43:36.000Z</time>
|
|
</trkpt>
|
|
<trkpt lat="55.174710" lon="8.704413">
|
|
<ele>-25.174197</ele>
|
|
<time>2026-07-10T13:43:37.000Z</time>
|
|
</trkpt>
|
|
<trkpt lat="55.174752" lon="8.704433">
|
|
<ele>-25.154906</ele>
|
|
<time>2026-07-10T13:43:38.000Z</time>
|
|
</trkpt>
|
|
<trkpt lat="55.174794" lon="8.704451">
|
|
<ele>-25.135741</ele>
|
|
<time>2026-07-10T13:43:39.000Z</time>
|
|
</trkpt>
|
|
<trkpt lat="55.174834" lon="8.704468">
|
|
<ele>-25.117498</ele>
|
|
<time>2026-07-10T13:43:40.000Z</time>
|
|
</trkpt>
|
|
<trkpt lat="55.174873" lon="8.704483">
|
|
<ele>-25.099800</ele>
|
|
<time>2026-07-10T13:43:41.000Z</time>
|
|
</trkpt>
|
|
<trkpt lat="55.174912" lon="8.704495">
|
|
<ele>-25.082250</ele>
|
|
<time>2026-07-10T13:43:42.000Z</time>
|
|
</trkpt>
|
|
<trkpt lat="55.174954" lon="8.704510">
|
|
<ele>-25.063252</ele>
|
|
<time>2026-07-10T13:43:43.000Z</time>
|
|
</trkpt>
|
|
<trkpt lat="55.174997" lon="8.704530">
|
|
<ele>-25.043533</ele>
|
|
<time>2026-07-10T13:43:44.000Z</time>
|
|
</trkpt>
|
|
<trkpt lat="55.175043" lon="8.704551">
|
|
<ele>-25.022463</ele>
|
|
<time>2026-07-10T13:43:45.000Z</time>
|
|
</trkpt>
|
|
<trkpt lat="55.175087" lon="8.704573">
|
|
<ele>-25.002182</ele>
|
|
<time>2026-07-10T13:43:46.000Z</time>
|
|
</trkpt>
|
|
<trkpt lat="55.175129" lon="8.704598">
|
|
<ele>-24.982521</ele>
|
|
<time>2026-07-10T13:43:47.000Z</time>
|
|
</trkpt>
|
|
<trkpt lat="55.175171" lon="8.704619">
|
|
<ele>-24.963162</ele>
|
|
<time>2026-07-10T13:43:48.000Z</time>
|
|
</trkpt>
|
|
<trkpt lat="55.175213" lon="8.704639">
|
|
<ele>-24.943871</ele>
|
|
<time>2026-07-10T13:43:49.000Z</time>
|
|
</trkpt>
|
|
<trkpt lat="55.175255" lon="8.704660">
|
|
<ele>-24.924512</ele>
|
|
<time>2026-07-10T13:43:50.000Z</time>
|
|
</trkpt>
|
|
<trkpt lat="55.175297" lon="8.704682">
|
|
<ele>-24.905082</ele>
|
|
<time>2026-07-10T13:43:51.000Z</time>
|
|
</trkpt>
|
|
<trkpt lat="55.175339" lon="8.704706">
|
|
<ele>-24.885501</ele>
|
|
<time>2026-07-10T13:43:52.000Z</time>
|
|
</trkpt>
|
|
<trkpt lat="55.175380" lon="8.704727">
|
|
<ele>-24.866568</ele>
|
|
<time>2026-07-10T13:43:53.000Z</time>
|
|
</trkpt>
|
|
<trkpt lat="55.175423" lon="8.704748">
|
|
<ele>-24.846782</ele>
|
|
<time>2026-07-10T13:43:54.000Z</time>
|
|
</trkpt>
|
|
<trkpt lat="55.175465" lon="8.704771">
|
|
<ele>-24.827278</ele>
|
|
<time>2026-07-10T13:43:55.000Z</time>
|
|
</trkpt>
|
|
<trkpt lat="55.175508" lon="8.704792">
|
|
<ele>-24.807492</ele>
|
|
<time>2026-07-10T13:43:56.000Z</time>
|
|
</trkpt>
|
|
<trkpt lat="55.175554" lon="8.704812">
|
|
<ele>-24.786485</ele>
|
|
<time>2026-07-10T13:43:57.000Z</time>
|
|
</trkpt>
|
|
<trkpt lat="55.175599" lon="8.704830">
|
|
<ele>-24.766027</ele>
|
|
<time>2026-07-10T13:43:58.000Z</time>
|
|
</trkpt>
|
|
<trkpt lat="55.175641" lon="8.704845">
|
|
<ele>-24.742514</ele>
|
|
<time>2026-07-10T13:43:59.000Z</time>
|
|
</trkpt>
|
|
<trkpt lat="55.175682" lon="8.704865">
|
|
<ele>-24.716209</ele>
|
|
<time>2026-07-10T13:44:00.000Z</time>
|
|
</trkpt>
|
|
<trkpt lat="55.175724" lon="8.704888">
|
|
<ele>-24.689010</ele>
|
|
<time>2026-07-10T13:44:01.000Z</time>
|
|
</trkpt>
|
|
<trkpt lat="55.175764" lon="8.704911">
|
|
<ele>-24.662989</ele>
|
|
<time>2026-07-10T13:44:02.000Z</time>
|
|
</trkpt>
|
|
<trkpt lat="55.175804" lon="8.704932">
|
|
<ele>-24.637179</ele>
|
|
<time>2026-07-10T13:44:03.000Z</time>
|
|
</trkpt>
|
|
<trkpt lat="55.175843" lon="8.704953">
|
|
<ele>-24.611960</ele>
|
|
<time>2026-07-10T13:44:04.000Z</time>
|
|
</trkpt>
|
|
<trkpt lat="55.175884" lon="8.704973">
|
|
<ele>-24.585654</ele>
|
|
<time>2026-07-10T13:44:05.000Z</time>
|
|
</trkpt>
|
|
<trkpt lat="55.175922" lon="8.704989">
|
|
<ele>-24.561498</ele>
|
|
<time>2026-07-10T13:44:06.000Z</time>
|
|
</trkpt>
|
|
<trkpt lat="55.175964" lon="8.705007">
|
|
<ele>-24.534773</ele>
|
|
<time>2026-07-10T13:44:07.000Z</time>
|
|
</trkpt>
|
|
<trkpt lat="55.176002" lon="8.705023">
|
|
<ele>-24.510617</ele>
|
|
<time>2026-07-10T13:44:08.000Z</time>
|
|
</trkpt>
|
|
<trkpt lat="55.176041" lon="8.705040">
|
|
<ele>-24.485777</ele>
|
|
<time>2026-07-10T13:44:09.000Z</time>
|
|
</trkpt>
|
|
<trkpt lat="55.176083" lon="8.705055">
|
|
<ele>-24.459283</ele>
|
|
<time>2026-07-10T13:44:10.000Z</time>
|
|
</trkpt>
|
|
<trkpt lat="55.176124" lon="8.705070">
|
|
<ele>-24.433395</ele>
|
|
<time>2026-07-10T13:44:11.000Z</time>
|
|
</trkpt>
|
|
<trkpt lat="55.176162" lon="8.705086">
|
|
<ele>-24.409239</ele>
|
|
<time>2026-07-10T13:44:12.000Z</time>
|
|
</trkpt>
|
|
<trkpt lat="55.176200" lon="8.705103">
|
|
<ele>-24.384998</ele>
|
|
<time>2026-07-10T13:44:13.000Z</time>
|
|
</trkpt>
|
|
<trkpt lat="55.176237" lon="8.705119">
|
|
<ele>-24.361443</ele>
|
|
<time>2026-07-10T13:44:14.000Z</time>
|
|
</trkpt>
|
|
<trkpt lat="55.176276" lon="8.705136">
|
|
<ele>-24.336603</ele>
|
|
<time>2026-07-10T13:44:15.000Z</time>
|
|
</trkpt>
|
|
<trkpt lat="55.176315" lon="8.705154">
|
|
<ele>-24.311675</ele>
|
|
<time>2026-07-10T13:44:16.000Z</time>
|
|
</trkpt>
|
|
<trkpt lat="55.176353" lon="8.705172">
|
|
<ele>-24.287344</ele>
|
|
<time>2026-07-10T13:44:17.000Z</time>
|
|
</trkpt>
|
|
<trkpt lat="55.176390" lon="8.705190">
|
|
<ele>-24.263609</ele>
|
|
<time>2026-07-10T13:44:18.000Z</time>
|
|
</trkpt>
|
|
<trkpt lat="55.176424" lon="8.705208">
|
|
<ele>-24.241656</ele>
|
|
<time>2026-07-10T13:44:19.000Z</time>
|
|
</trkpt>
|
|
<trkpt lat="55.176460" lon="8.705222">
|
|
<ele>-24.218863</ele>
|
|
<time>2026-07-10T13:44:20.000Z</time>
|
|
</trkpt>
|
|
<trkpt lat="55.176498" lon="8.705235">
|
|
<ele>-24.194932</ele>
|
|
<time>2026-07-10T13:44:21.000Z</time>
|
|
</trkpt>
|
|
<trkpt lat="55.176536" lon="8.705252">
|
|
<ele>-24.170691</ele>
|
|
<time>2026-07-10T13:44:22.000Z</time>
|
|
</trkpt>
|
|
<trkpt lat="55.176573" lon="8.705272">
|
|
<ele>-24.146758</ele>
|
|
<time>2026-07-10T13:44:23.000Z</time>
|
|
</trkpt>
|
|
<trkpt lat="55.176609" lon="8.705287">
|
|
<ele>-24.123886</ele>
|
|
<time>2026-07-10T13:44:24.000Z</time>
|
|
</trkpt>
|
|
<trkpt lat="55.176650" lon="8.705302">
|
|
<ele>-24.097998</ele>
|
|
<time>2026-07-10T13:44:25.000Z</time>
|
|
</trkpt>
|
|
<trkpt lat="55.176685" lon="8.705313">
|
|
<ele>-24.076020</ele>
|
|
<time>2026-07-10T13:44:26.000Z</time>
|
|
</trkpt>
|
|
<trkpt lat="55.176723" lon="8.705325">
|
|
<ele>-24.052155</ele>
|
|
<time>2026-07-10T13:44:27.000Z</time>
|
|
</trkpt>
|
|
<trkpt lat="55.176761" lon="8.705340">
|
|
<ele>-24.028079</ele>
|
|
<time>2026-07-10T13:44:28.000Z</time>
|
|
</trkpt>
|
|
<trkpt lat="55.176799" lon="8.705357">
|
|
<ele>-24.003838</ele>
|
|
<time>2026-07-10T13:44:29.000Z</time>
|
|
</trkpt>
|
|
<trkpt lat="55.176838" lon="8.705372">
|
|
<ele>-23.979159</ele>
|
|
<time>2026-07-10T13:44:30.000Z</time>
|
|
</trkpt>
|
|
<trkpt lat="55.176877" lon="8.705388">
|
|
<ele>-23.954401</ele>
|
|
<time>2026-07-10T13:44:31.000Z</time>
|
|
</trkpt>
|
|
<trkpt lat="55.176918" lon="8.705403">
|
|
<ele>-23.928513</ele>
|
|
<time>2026-07-10T13:44:32.000Z</time>
|
|
</trkpt>
|
|
<trkpt lat="55.176959" lon="8.705422">
|
|
<ele>-23.902300</ele>
|
|
<time>2026-07-10T13:44:33.000Z</time>
|
|
</trkpt>
|
|
<trkpt lat="55.176996" lon="8.705454">
|
|
<ele>-23.876795</ele>
|
|
<time>2026-07-10T13:44:34.000Z</time>
|
|
</trkpt>
|
|
<trkpt lat="55.177033" lon="8.705486">
|
|
<ele>-23.851289</ele>
|
|
<time>2026-07-10T13:44:35.000Z</time>
|
|
</trkpt>
|
|
<trkpt lat="55.177072" lon="8.705508">
|
|
<ele>-23.825964</ele>
|
|
<time>2026-07-10T13:44:36.000Z</time>
|
|
</trkpt>
|
|
<trkpt lat="55.177117" lon="8.705506">
|
|
<ele>-23.798142</ele>
|
|
<time>2026-07-10T13:44:37.000Z</time>
|
|
</trkpt>
|
|
<trkpt lat="55.177159" lon="8.705503">
|
|
<ele>-23.772162</ele>
|
|
<time>2026-07-10T13:44:38.000Z</time>
|
|
</trkpt>
|
|
<trkpt lat="55.177206" lon="8.705511">
|
|
<ele>-23.742976</ele>
|
|
<time>2026-07-10T13:44:39.000Z</time>
|
|
</trkpt>
|
|
<trkpt lat="55.177242" lon="8.705521">
|
|
<ele>-23.720447</ele>
|
|
<time>2026-07-10T13:44:40.000Z</time>
|
|
</trkpt>
|
|
<trkpt lat="55.177280" lon="8.705529">
|
|
<ele>-23.696791</ele>
|
|
<time>2026-07-10T13:44:41.000Z</time>
|
|
</trkpt>
|
|
<trkpt lat="55.177321" lon="8.705538">
|
|
<ele>-23.671252</ele>
|
|
<time>2026-07-10T13:44:42.000Z</time>
|
|
</trkpt>
|
|
<trkpt lat="55.177365" lon="8.705544">
|
|
<ele>-23.646421</ele>
|
|
<time>2026-07-10T13:44:43.000Z</time>
|
|
</trkpt>
|
|
<trkpt lat="55.177407" lon="8.705550">
|
|
<ele>-23.643063</ele>
|
|
<time>2026-07-10T13:44:44.000Z</time>
|
|
</trkpt>
|
|
<trkpt lat="55.177450" lon="8.705557">
|
|
<ele>-23.639621</ele>
|
|
<time>2026-07-10T13:44:45.000Z</time>
|
|
</trkpt>
|
|
<trkpt lat="55.177496" lon="8.705565">
|
|
<ele>-23.635937</ele>
|
|
<time>2026-07-10T13:44:46.000Z</time>
|
|
</trkpt>
|
|
<trkpt lat="55.177542" lon="8.705575">
|
|
<ele>-23.632242</ele>
|
|
<time>2026-07-10T13:44:47.000Z</time>
|
|
</trkpt>
|
|
<trkpt lat="55.177588" lon="8.705584">
|
|
<ele>-23.628553</ele>
|
|
<time>2026-07-10T13:44:48.000Z</time>
|
|
</trkpt>
|
|
<trkpt lat="55.177633" lon="8.705593">
|
|
<ele>-23.624943</ele>
|
|
<time>2026-07-10T13:44:49.000Z</time>
|
|
</trkpt>
|
|
<trkpt lat="55.177679" lon="8.705603">
|
|
<ele>-23.621249</ele>
|
|
<time>2026-07-10T13:44:50.000Z</time>
|
|
</trkpt>
|
|
<trkpt lat="55.177724" lon="8.705613">
|
|
<ele>-23.617634</ele>
|
|
<time>2026-07-10T13:44:51.000Z</time>
|
|
</trkpt>
|
|
<trkpt lat="55.177769" lon="8.705623">
|
|
<ele>-23.614018</ele>
|
|
<time>2026-07-10T13:44:52.000Z</time>
|
|
</trkpt>
|
|
<trkpt lat="55.177813" lon="8.705633">
|
|
<ele>-23.610482</ele>
|
|
<time>2026-07-10T13:44:53.000Z</time>
|
|
</trkpt>
|
|
<trkpt lat="55.177856" lon="8.705641">
|
|
<ele>-23.607035</ele>
|
|
<time>2026-07-10T13:44:54.000Z</time>
|
|
</trkpt>
|
|
<trkpt lat="55.177896" lon="8.705651">
|
|
<ele>-23.603815</ele>
|
|
<time>2026-07-10T13:44:55.000Z</time>
|
|
</trkpt>
|
|
<trkpt lat="55.177942" lon="8.705661">
|
|
<ele>-23.600121</ele>
|
|
<time>2026-07-10T13:44:56.000Z</time>
|
|
</trkpt>
|
|
<trkpt lat="55.177986" lon="8.705671">
|
|
<ele>-23.596584</ele>
|
|
<time>2026-07-10T13:44:57.000Z</time>
|
|
</trkpt>
|
|
<trkpt lat="55.178028" lon="8.705681">
|
|
<ele>-23.593206</ele>
|
|
<time>2026-07-10T13:44:58.000Z</time>
|
|
</trkpt>
|
|
<trkpt lat="55.178070" lon="8.705694">
|
|
<ele>-23.589807</ele>
|
|
<time>2026-07-10T13:44:59.000Z</time>
|
|
</trkpt>
|
|
<trkpt lat="55.178111" lon="8.705709">
|
|
<ele>-23.586469</ele>
|
|
<time>2026-07-10T13:45:00.000Z</time>
|
|
</trkpt>
|
|
<trkpt lat="55.178154" lon="8.705726">
|
|
<ele>-23.582955</ele>
|
|
<time>2026-07-10T13:45:01.000Z</time>
|
|
</trkpt>
|
|
<trkpt lat="55.178193" lon="8.705741">
|
|
<ele>-23.579773</ele>
|
|
<time>2026-07-10T13:45:02.000Z</time>
|
|
</trkpt>
|
|
<trkpt lat="55.178234" lon="8.705756">
|
|
<ele>-23.576434</ele>
|
|
<time>2026-07-10T13:45:03.000Z</time>
|
|
</trkpt>
|
|
<trkpt lat="55.178271" lon="8.705773">
|
|
<ele>-23.573386</ele>
|
|
<time>2026-07-10T13:45:04.000Z</time>
|
|
</trkpt>
|
|
<trkpt lat="55.178310" lon="8.705793">
|
|
<ele>-23.570147</ele>
|
|
<time>2026-07-10T13:45:05.000Z</time>
|
|
</trkpt>
|
|
<trkpt lat="55.178348" lon="8.705815">
|
|
<ele>-23.566957</ele>
|
|
<time>2026-07-10T13:45:06.000Z</time>
|
|
</trkpt>
|
|
<trkpt lat="55.178386" lon="8.705839">
|
|
<ele>-23.563737</ele>
|
|
<time>2026-07-10T13:45:07.000Z</time>
|
|
</trkpt>
|
|
<trkpt lat="55.178423" lon="8.705868">
|
|
<ele>-23.560507</ele>
|
|
<time>2026-07-10T13:45:08.000Z</time>
|
|
</trkpt>
|
|
<trkpt lat="55.178466" lon="8.705899">
|
|
<ele>-23.556800</ele>
|
|
<time>2026-07-10T13:45:09.000Z</time>
|
|
</trkpt>
|
|
<trkpt lat="55.178507" lon="8.705926">
|
|
<ele>-23.553309</ele>
|
|
<time>2026-07-10T13:45:10.000Z</time>
|
|
</trkpt>
|
|
<trkpt lat="55.178552" lon="8.705951">
|
|
<ele>-23.549547</ele>
|
|
<time>2026-07-10T13:45:11.000Z</time>
|
|
</trkpt>
|
|
<trkpt lat="55.178596" lon="8.705975">
|
|
<ele>-23.545873</ele>
|
|
<time>2026-07-10T13:45:12.000Z</time>
|
|
</trkpt>
|
|
<trkpt lat="55.178640" lon="8.706001">
|
|
<ele>-23.542172</ele>
|
|
<time>2026-07-10T13:45:13.000Z</time>
|
|
</trkpt>
|
|
<trkpt lat="55.178684" lon="8.706027">
|
|
<ele>-23.538471</ele>
|
|
<time>2026-07-10T13:45:14.000Z</time>
|
|
</trkpt>
|
|
<trkpt lat="55.178726" lon="8.706051">
|
|
<ele>-23.534950</ele>
|
|
<time>2026-07-10T13:45:15.000Z</time>
|
|
</trkpt>
|
|
<trkpt lat="55.178770" lon="8.706076">
|
|
<ele>-23.531263</ele>
|
|
<time>2026-07-10T13:45:16.000Z</time>
|
|
</trkpt>
|
|
<trkpt lat="55.178814" lon="8.706102">
|
|
<ele>-23.527562</ele>
|
|
<time>2026-07-10T13:45:17.000Z</time>
|
|
</trkpt>
|
|
<trkpt lat="55.178856" lon="8.706128">
|
|
<ele>-23.524012</ele>
|
|
<time>2026-07-10T13:45:18.000Z</time>
|
|
</trkpt>
|
|
<trkpt lat="55.178896" lon="8.706154">
|
|
<ele>-23.520611</ele>
|
|
<time>2026-07-10T13:45:19.000Z</time>
|
|
</trkpt>
|
|
<trkpt lat="55.178933" lon="8.706180">
|
|
<ele>-23.517434</ele>
|
|
<time>2026-07-10T13:45:20.000Z</time>
|
|
</trkpt>
|
|
<trkpt lat="55.178980" lon="8.706210">
|
|
<ele>-23.513447</ele>
|
|
<time>2026-07-10T13:45:21.000Z</time>
|
|
</trkpt>
|
|
<trkpt lat="55.179025" lon="8.706240">
|
|
<ele>-23.509609</ele>
|
|
<time>2026-07-10T13:45:22.000Z</time>
|
|
</trkpt>
|
|
<trkpt lat="55.179070" lon="8.706267">
|
|
<ele>-23.505818</ele>
|
|
<time>2026-07-10T13:45:23.000Z</time>
|
|
</trkpt>
|
|
<trkpt lat="55.179117" lon="8.706295">
|
|
<ele>-23.518385</ele>
|
|
<time>2026-07-10T13:45:24.000Z</time>
|
|
</trkpt>
|
|
<trkpt lat="55.179161" lon="8.706319">
|
|
<ele>-23.553409</ele>
|
|
<time>2026-07-10T13:45:25.000Z</time>
|
|
</trkpt>
|
|
<trkpt lat="55.179205" lon="8.706343">
|
|
<ele>-23.588432</ele>
|
|
<time>2026-07-10T13:45:26.000Z</time>
|
|
</trkpt>
|
|
<trkpt lat="55.179256" lon="8.706372">
|
|
<ele>-23.629184</ele>
|
|
<time>2026-07-10T13:45:27.000Z</time>
|
|
</trkpt>
|
|
<trkpt lat="55.179305" lon="8.706402">
|
|
<ele>-23.668633</ele>
|
|
<time>2026-07-10T13:45:28.000Z</time>
|
|
</trkpt>
|
|
<trkpt lat="55.179354" lon="8.706432">
|
|
<ele>-23.708082</ele>
|
|
<time>2026-07-10T13:45:29.000Z</time>
|
|
</trkpt>
|
|
<trkpt lat="55.179403" lon="8.706461">
|
|
<ele>-23.747391</ele>
|
|
<time>2026-07-10T13:45:30.000Z</time>
|
|
</trkpt>
|
|
<trkpt lat="55.179453" lon="8.706491">
|
|
<ele>-23.787558</ele>
|
|
<time>2026-07-10T13:45:31.000Z</time>
|
|
</trkpt>
|
|
<trkpt lat="55.179500" lon="8.706518">
|
|
<ele>-23.825150</ele>
|
|
<time>2026-07-10T13:45:32.000Z</time>
|
|
</trkpt>
|
|
<trkpt lat="55.179550" lon="8.706546">
|
|
<ele>-23.865045</ele>
|
|
<time>2026-07-10T13:45:33.000Z</time>
|
|
</trkpt>
|
|
<trkpt lat="55.179603" lon="8.706575">
|
|
<ele>-23.907244</ele>
|
|
<time>2026-07-10T13:45:34.000Z</time>
|
|
</trkpt>
|
|
<trkpt lat="55.179655" lon="8.706604">
|
|
<ele>-23.948719</ele>
|
|
<time>2026-07-10T13:45:35.000Z</time>
|
|
</trkpt>
|
|
<trkpt lat="55.179704" lon="8.706634">
|
|
<ele>-23.988168</ele>
|
|
<time>2026-07-10T13:45:36.000Z</time>
|
|
</trkpt>
|
|
<trkpt lat="55.179759" lon="8.706666">
|
|
<ele>-24.032214</ele>
|
|
<time>2026-07-10T13:45:37.000Z</time>
|
|
</trkpt>
|
|
<trkpt lat="55.179809" lon="8.706699">
|
|
<ele>-24.072822</ele>
|
|
<time>2026-07-10T13:45:38.000Z</time>
|
|
</trkpt>
|
|
<trkpt lat="55.179863" lon="8.706732">
|
|
<ele>-24.116288</ele>
|
|
<time>2026-07-10T13:45:39.000Z</time>
|
|
</trkpt>
|
|
<trkpt lat="55.179916" lon="8.706764">
|
|
<ele>-24.158894</ele>
|
|
<time>2026-07-10T13:45:40.000Z</time>
|
|
</trkpt>
|
|
<trkpt lat="55.179970" lon="8.706796">
|
|
<ele>-24.202219</ele>
|
|
<time>2026-07-10T13:45:41.000Z</time>
|
|
</trkpt>
|
|
<trkpt lat="55.180024" lon="8.706829">
|
|
<ele>-24.245685</ele>
|
|
<time>2026-07-10T13:45:42.000Z</time>
|
|
</trkpt>
|
|
<trkpt lat="55.180080" lon="8.706864">
|
|
<ele>-24.290873</ele>
|
|
<time>2026-07-10T13:45:43.000Z</time>
|
|
</trkpt>
|
|
<trkpt lat="55.180133" lon="8.706897">
|
|
<ele>-24.333622</ele>
|
|
<time>2026-07-10T13:45:44.000Z</time>
|
|
</trkpt>
|
|
<trkpt lat="55.180187" lon="8.706928">
|
|
<ele>-24.376810</ele>
|
|
<time>2026-07-10T13:45:45.000Z</time>
|
|
</trkpt>
|
|
<trkpt lat="55.180241" lon="8.706960">
|
|
<ele>-24.420135</ele>
|
|
<time>2026-07-10T13:45:46.000Z</time>
|
|
</trkpt>
|
|
<trkpt lat="55.180294" lon="8.706993">
|
|
<ele>-24.462884</ele>
|
|
<time>2026-07-10T13:45:47.000Z</time>
|
|
</trkpt>
|
|
<trkpt lat="55.180346" lon="8.707027">
|
|
<ele>-24.505068</ele>
|
|
<time>2026-07-10T13:45:48.000Z</time>
|
|
</trkpt>
|
|
<trkpt lat="55.180395" lon="8.707058">
|
|
<ele>-24.544662</ele>
|
|
<time>2026-07-10T13:45:49.000Z</time>
|
|
</trkpt>
|
|
<trkpt lat="55.180446" lon="8.707086">
|
|
<ele>-24.585281</ele>
|
|
<time>2026-07-10T13:45:50.000Z</time>
|
|
</trkpt>
|
|
<trkpt lat="55.180495" lon="8.707116">
|
|
<ele>-24.624731</ele>
|
|
<time>2026-07-10T13:45:51.000Z</time>
|
|
</trkpt>
|
|
<trkpt lat="55.180544" lon="8.707147">
|
|
<ele>-24.664325</ele>
|
|
<time>2026-07-10T13:45:52.000Z</time>
|
|
</trkpt>
|
|
<trkpt lat="55.180589" lon="8.707179">
|
|
<ele>-24.701236</ele>
|
|
<time>2026-07-10T13:45:53.000Z</time>
|
|
</trkpt>
|
|
<trkpt lat="55.180632" lon="8.707211">
|
|
<ele>-24.736743</ele>
|
|
<time>2026-07-10T13:45:54.000Z</time>
|
|
</trkpt>
|
|
<trkpt lat="55.180677" lon="8.707240">
|
|
<ele>-24.773185</ele>
|
|
<time>2026-07-10T13:45:55.000Z</time>
|
|
</trkpt>
|
|
<trkpt lat="55.180723" lon="8.707275">
|
|
<ele>-24.811301</ele>
|
|
<time>2026-07-10T13:45:56.000Z</time>
|
|
</trkpt>
|
|
<trkpt lat="55.180768" lon="8.707319">
|
|
<ele>-24.850469</ele>
|
|
<time>2026-07-10T13:45:57.000Z</time>
|
|
</trkpt>
|
|
<trkpt lat="55.180807" lon="8.707370">
|
|
<ele>-24.883068</ele>
|
|
<time>2026-07-10T13:45:58.000Z</time>
|
|
</trkpt>
|
|
<trkpt lat="55.180843" lon="8.707426">
|
|
<ele>-24.910258</ele>
|
|
<time>2026-07-10T13:45:59.000Z</time>
|
|
</trkpt>
|
|
<trkpt lat="55.180880" lon="8.707483">
|
|
<ele>-24.938084</ele>
|
|
<time>2026-07-10T13:46:00.000Z</time>
|
|
</trkpt>
|
|
<trkpt lat="55.180916" lon="8.707541">
|
|
<ele>-24.965706</ele>
|
|
<time>2026-07-10T13:46:01.000Z</time>
|
|
</trkpt>
|
|
<trkpt lat="55.180955" lon="8.707605">
|
|
<ele>-24.995885</ele>
|
|
<time>2026-07-10T13:46:02.000Z</time>
|
|
</trkpt>
|
|
<trkpt lat="55.180995" lon="8.707665">
|
|
<ele>-25.025625</ele>
|
|
<time>2026-07-10T13:46:03.000Z</time>
|
|
</trkpt>
|
|
<trkpt lat="55.181034" lon="8.707724">
|
|
<ele>-25.054726</ele>
|
|
<time>2026-07-10T13:46:04.000Z</time>
|
|
</trkpt>
|
|
<trkpt lat="55.181072" lon="8.707785">
|
|
<ele>-25.083834</ele>
|
|
<time>2026-07-10T13:46:05.000Z</time>
|
|
</trkpt>
|
|
<trkpt lat="55.181109" lon="8.707845">
|
|
<ele>-25.112308</ele>
|
|
<time>2026-07-10T13:46:06.000Z</time>
|
|
</trkpt>
|
|
<trkpt lat="55.181145" lon="8.707903">
|
|
<ele>-25.139930</ele>
|
|
<time>2026-07-10T13:46:07.000Z</time>
|
|
</trkpt>
|
|
<trkpt lat="55.181186" lon="8.707962">
|
|
<ele>-25.169895</ele>
|
|
<time>2026-07-10T13:46:08.000Z</time>
|
|
</trkpt>
|
|
<trkpt lat="55.181224" lon="8.708023">
|
|
<ele>-25.199003</ele>
|
|
<time>2026-07-10T13:46:09.000Z</time>
|
|
</trkpt>
|
|
<trkpt lat="55.181263" lon="8.708084">
|
|
<ele>-25.228529</ele>
|
|
<time>2026-07-10T13:46:10.000Z</time>
|
|
</trkpt>
|
|
<trkpt lat="55.181302" lon="8.708148">
|
|
<ele>-25.258709</ele>
|
|
<time>2026-07-10T13:46:11.000Z</time>
|
|
</trkpt>
|
|
<trkpt lat="55.181344" lon="8.708219">
|
|
<ele>-25.291672</ele>
|
|
<time>2026-07-10T13:46:12.000Z</time>
|
|
</trkpt>
|
|
<trkpt lat="55.181387" lon="8.708285">
|
|
<ele>-25.323958</ele>
|
|
<time>2026-07-10T13:46:13.000Z</time>
|
|
</trkpt>
|
|
<trkpt lat="55.181430" lon="8.708350">
|
|
<ele>-25.356033</ele>
|
|
<time>2026-07-10T13:46:14.000Z</time>
|
|
</trkpt>
|
|
<trkpt lat="55.181470" lon="8.708411">
|
|
<ele>-25.385983</ele>
|
|
<time>2026-07-10T13:46:15.000Z</time>
|
|
</trkpt>
|
|
<trkpt lat="55.181512" lon="8.708475">
|
|
<ele>-25.417420</ele>
|
|
<time>2026-07-10T13:46:16.000Z</time>
|
|
</trkpt>
|
|
<trkpt lat="55.181558" lon="8.708543">
|
|
<ele>-25.451411</ele>
|
|
<time>2026-07-10T13:46:17.000Z</time>
|
|
</trkpt>
|
|
<trkpt lat="55.181604" lon="8.708612">
|
|
<ele>-25.485612</ele>
|
|
<time>2026-07-10T13:46:18.000Z</time>
|
|
</trkpt>
|
|
<trkpt lat="55.181651" lon="8.708682">
|
|
<ele>-25.520451</ele>
|
|
<time>2026-07-10T13:46:19.000Z</time>
|
|
</trkpt>
|
|
<trkpt lat="55.181700" lon="8.708751">
|
|
<ele>-25.555955</ele>
|
|
<time>2026-07-10T13:46:20.000Z</time>
|
|
</trkpt>
|
|
<trkpt lat="55.181747" lon="8.708821">
|
|
<ele>-25.590794</ele>
|
|
<time>2026-07-10T13:46:21.000Z</time>
|
|
</trkpt>
|
|
<trkpt lat="55.181796" lon="8.708890">
|
|
<ele>-25.626298</ele>
|
|
<time>2026-07-10T13:46:22.000Z</time>
|
|
</trkpt>
|
|
<trkpt lat="55.181846" lon="8.708958">
|
|
<ele>-25.662045</ele>
|
|
<time>2026-07-10T13:46:23.000Z</time>
|
|
</trkpt>
|
|
<trkpt lat="55.181894" lon="8.709027">
|
|
<ele>-25.697110</ele>
|
|
<time>2026-07-10T13:46:24.000Z</time>
|
|
</trkpt>
|
|
<trkpt lat="55.181941" lon="8.709102">
|
|
<ele>-25.733014</ele>
|
|
<time>2026-07-10T13:46:25.000Z</time>
|
|
</trkpt>
|
|
<trkpt lat="55.181990" lon="8.709180">
|
|
<ele>-25.770405</ele>
|
|
<time>2026-07-10T13:46:26.000Z</time>
|
|
</trkpt>
|
|
<trkpt lat="55.182040" lon="8.709258">
|
|
<ele>-25.808215</ele>
|
|
<time>2026-07-10T13:46:27.000Z</time>
|
|
</trkpt>
|
|
<trkpt lat="55.182090" lon="8.709336">
|
|
<ele>-25.846026</ele>
|
|
<time>2026-07-10T13:46:28.000Z</time>
|
|
</trkpt>
|
|
<trkpt lat="55.182141" lon="8.709412">
|
|
<ele>-25.883838</ele>
|
|
<time>2026-07-10T13:46:29.000Z</time>
|
|
</trkpt>
|
|
<trkpt lat="55.182191" lon="8.709488">
|
|
<ele>-25.918575</ele>
|
|
<time>2026-07-10T13:46:30.000Z</time>
|
|
</trkpt>
|
|
<trkpt lat="55.182238" lon="8.709561">
|
|
<ele>-25.951378</ele>
|
|
<time>2026-07-10T13:46:31.000Z</time>
|
|
</trkpt>
|
|
<trkpt lat="55.182286" lon="8.709635">
|
|
<ele>-25.984771</ele>
|
|
<time>2026-07-10T13:46:32.000Z</time>
|
|
</trkpt>
|
|
<trkpt lat="55.182329" lon="8.709712">
|
|
<ele>-26.016884</ele>
|
|
<time>2026-07-10T13:46:33.000Z</time>
|
|
</trkpt>
|
|
<trkpt lat="55.182376" lon="8.709787">
|
|
<ele>-26.050086</ele>
|
|
<time>2026-07-10T13:46:34.000Z</time>
|
|
</trkpt>
|
|
<trkpt lat="55.182425" lon="8.709861">
|
|
<ele>-26.083872</ele>
|
|
<time>2026-07-10T13:46:35.000Z</time>
|
|
</trkpt>
|
|
<trkpt lat="55.182474" lon="8.709934">
|
|
<ele>-26.117464</ele>
|
|
<time>2026-07-10T13:46:36.000Z</time>
|
|
</trkpt>
|
|
<trkpt lat="55.182520" lon="8.710009">
|
|
<ele>-26.150282</ele>
|
|
<time>2026-07-10T13:46:37.000Z</time>
|
|
</trkpt>
|
|
<trkpt lat="55.182565" lon="8.710084">
|
|
<ele>-26.182720</ele>
|
|
<time>2026-07-10T13:46:38.000Z</time>
|
|
</trkpt>
|
|
<trkpt lat="55.182608" lon="8.710154">
|
|
<ele>-26.213376</ele>
|
|
<time>2026-07-10T13:46:39.000Z</time>
|
|
</trkpt>
|
|
<trkpt lat="55.182647" lon="8.710220">
|
|
<ele>-26.241695</ele>
|
|
<time>2026-07-10T13:46:40.000Z</time>
|
|
</trkpt>
|
|
<trkpt lat="55.182698" lon="8.710303">
|
|
<ele>-26.278049</ele>
|
|
<time>2026-07-10T13:46:41.000Z</time>
|
|
</trkpt>
|
|
<trkpt lat="55.182740" lon="8.710373">
|
|
<ele>-26.308324</ele>
|
|
<time>2026-07-10T13:46:42.000Z</time>
|
|
</trkpt>
|
|
<trkpt lat="55.182783" lon="8.710444">
|
|
<ele>-26.339183</ele>
|
|
<time>2026-07-10T13:46:43.000Z</time>
|
|
</trkpt>
|
|
<trkpt lat="55.182829" lon="8.710513">
|
|
<ele>-26.370809</ele>
|
|
<time>2026-07-10T13:46:44.000Z</time>
|
|
</trkpt>
|
|
<trkpt lat="55.182874" lon="8.710581">
|
|
<ele>-26.401845</ele>
|
|
<time>2026-07-10T13:46:45.000Z</time>
|
|
</trkpt>
|
|
<trkpt lat="55.182914" lon="8.710647">
|
|
<ele>-26.430542</ele>
|
|
<time>2026-07-10T13:46:46.000Z</time>
|
|
</trkpt>
|
|
<trkpt lat="55.182955" lon="8.710716">
|
|
<ele>-26.460234</ele>
|
|
<time>2026-07-10T13:46:47.000Z</time>
|
|
</trkpt>
|
|
<trkpt lat="55.182998" lon="8.710784">
|
|
<ele>-26.490486</ele>
|
|
<time>2026-07-10T13:46:48.000Z</time>
|
|
</trkpt>
|
|
<trkpt lat="55.183036" lon="8.710853">
|
|
<ele>-26.519069</ele>
|
|
<time>2026-07-10T13:46:49.000Z</time>
|
|
</trkpt>
|
|
<trkpt lat="55.183075" lon="8.710920">
|
|
<ele>-26.547596</ele>
|
|
<time>2026-07-10T13:46:50.000Z</time>
|
|
</trkpt>
|
|
<trkpt lat="55.183115" lon="8.710989">
|
|
<ele>-26.576913</ele>
|
|
<time>2026-07-10T13:46:51.000Z</time>
|
|
</trkpt>
|
|
<trkpt lat="55.183151" lon="8.711057">
|
|
<ele>-26.604561</ele>
|
|
<time>2026-07-10T13:46:52.000Z</time>
|
|
</trkpt>
|
|
<trkpt lat="55.183193" lon="8.711128">
|
|
<ele>-26.635043</ele>
|
|
<time>2026-07-10T13:46:53.000Z</time>
|
|
</trkpt>
|
|
<trkpt lat="55.183232" lon="8.711195">
|
|
<ele>-26.663570</ele>
|
|
<time>2026-07-10T13:46:54.000Z</time>
|
|
</trkpt>
|
|
<trkpt lat="55.183274" lon="8.711261">
|
|
<ele>-26.693035</ele>
|
|
<time>2026-07-10T13:46:55.000Z</time>
|
|
</trkpt>
|
|
<trkpt lat="55.183316" lon="8.711328">
|
|
<ele>-26.722701</ele>
|
|
<time>2026-07-10T13:46:56.000Z</time>
|
|
</trkpt>
|
|
<trkpt lat="55.183357" lon="8.711396">
|
|
<ele>-26.752186</ele>
|
|
<time>2026-07-10T13:46:57.000Z</time>
|
|
</trkpt>
|
|
<trkpt lat="55.183396" lon="8.711467">
|
|
<ele>-26.781560</ele>
|
|
<time>2026-07-10T13:46:58.000Z</time>
|
|
</trkpt>
|
|
<trkpt lat="55.183437" lon="8.711538">
|
|
<ele>-26.811668</ele>
|
|
<time>2026-07-10T13:46:59.000Z</time>
|
|
</trkpt>
|
|
<trkpt lat="55.183476" lon="8.711612">
|
|
<ele>-26.844264</ele>
|
|
<time>2026-07-10T13:47:00.000Z</time>
|
|
</trkpt>
|
|
<trkpt lat="55.183519" lon="8.711689">
|
|
<ele>-26.881403</ele>
|
|
<time>2026-07-10T13:47:01.000Z</time>
|
|
</trkpt>
|
|
<trkpt lat="55.183565" lon="8.711765">
|
|
<ele>-26.919593</ele>
|
|
<time>2026-07-10T13:47:02.000Z</time>
|
|
</trkpt>
|
|
<trkpt lat="55.183610" lon="8.711837">
|
|
<ele>-26.956403</ele>
|
|
<time>2026-07-10T13:47:03.000Z</time>
|
|
</trkpt>
|
|
<trkpt lat="55.183652" lon="8.711906">
|
|
<ele>-26.991179</ele>
|
|
<time>2026-07-10T13:47:04.000Z</time>
|
|
</trkpt>
|
|
<trkpt lat="55.183697" lon="8.711976">
|
|
<ele>-27.027527</ele>
|
|
<time>2026-07-10T13:47:05.000Z</time>
|
|
</trkpt>
|
|
<trkpt lat="55.183739" lon="8.712046">
|
|
<ele>-27.062540</ele>
|
|
<time>2026-07-10T13:47:06.000Z</time>
|
|
</trkpt>
|
|
<trkpt lat="55.183780" lon="8.712117">
|
|
<ele>-27.097361</ele>
|
|
<time>2026-07-10T13:47:07.000Z</time>
|
|
</trkpt>
|
|
<trkpt lat="55.183818" lon="8.712190">
|
|
<ele>-27.131423</ele>
|
|
<time>2026-07-10T13:47:08.000Z</time>
|
|
</trkpt>
|
|
<trkpt lat="55.183855" lon="8.712265">
|
|
<ele>-27.165600</ele>
|
|
<time>2026-07-10T13:47:09.000Z</time>
|
|
</trkpt>
|
|
<trkpt lat="55.183890" lon="8.712340">
|
|
<ele>-27.199000</ele>
|
|
<time>2026-07-10T13:47:10.000Z</time>
|
|
</trkpt>
|
|
<trkpt lat="55.183924" lon="8.712412">
|
|
<ele>-27.231217</ele>
|
|
<time>2026-07-10T13:47:11.000Z</time>
|
|
</trkpt>
|
|
<trkpt lat="55.183958" lon="8.712479">
|
|
<ele>-27.262126</ele>
|
|
<time>2026-07-10T13:47:12.000Z</time>
|
|
</trkpt>
|
|
<trkpt lat="55.183994" lon="8.712545">
|
|
<ele>-27.293599</ele>
|
|
<time>2026-07-10T13:47:13.000Z</time>
|
|
</trkpt>
|
|
<trkpt lat="55.184033" lon="8.712612">
|
|
<ele>-27.326591</ele>
|
|
<time>2026-07-10T13:47:14.000Z</time>
|
|
</trkpt>
|
|
<trkpt lat="55.184074" lon="8.712677">
|
|
<ele>-27.359988</ele>
|
|
<time>2026-07-10T13:47:15.000Z</time>
|
|
</trkpt>
|
|
<trkpt lat="55.184112" lon="8.712738">
|
|
<ele>-27.391118</ele>
|
|
<time>2026-07-10T13:47:16.000Z</time>
|
|
</trkpt>
|
|
<trkpt lat="55.184150" lon="8.712807">
|
|
<ele>-27.424174</ele>
|
|
<time>2026-07-10T13:47:17.000Z</time>
|
|
</trkpt>
|
|
<trkpt lat="55.184186" lon="8.712885">
|
|
<ele>-27.458757</ele>
|
|
<time>2026-07-10T13:47:18.000Z</time>
|
|
</trkpt>
|
|
<trkpt lat="55.184220" lon="8.712961">
|
|
<ele>-27.492049</ele>
|
|
<time>2026-07-10T13:47:19.000Z</time>
|
|
</trkpt>
|
|
<trkpt lat="55.184252" lon="8.713028">
|
|
<ele>-27.522168</ele>
|
|
<time>2026-07-10T13:47:20.000Z</time>
|
|
</trkpt>
|
|
<trkpt lat="55.184287" lon="8.713095">
|
|
<ele>-27.553481</ele>
|
|
<time>2026-07-10T13:47:21.000Z</time>
|
|
</trkpt>
|
|
<trkpt lat="55.184325" lon="8.713165">
|
|
<ele>-27.586786</ele>
|
|
<time>2026-07-10T13:47:22.000Z</time>
|
|
</trkpt>
|
|
<trkpt lat="55.184363" lon="8.713247">
|
|
<ele>-27.623201</ele>
|
|
<time>2026-07-10T13:47:23.000Z</time>
|
|
</trkpt>
|
|
<trkpt lat="55.184407" lon="8.713329">
|
|
<ele>-27.662002</ele>
|
|
<time>2026-07-10T13:47:24.000Z</time>
|
|
</trkpt>
|
|
<trkpt lat="55.184451" lon="8.713418">
|
|
<ele>-27.702596</ele>
|
|
<time>2026-07-10T13:47:25.000Z</time>
|
|
</trkpt>
|
|
<trkpt lat="55.184500" lon="8.713511">
|
|
<ele>-27.746230</ele>
|
|
<time>2026-07-10T13:47:26.000Z</time>
|
|
</trkpt>
|
|
<trkpt lat="55.184544" lon="8.713607">
|
|
<ele>-27.788677</ele>
|
|
<time>2026-07-10T13:47:27.000Z</time>
|
|
</trkpt>
|
|
<trkpt lat="55.184585" lon="8.713700">
|
|
<ele>-27.829191</ele>
|
|
<time>2026-07-10T13:47:28.000Z</time>
|
|
</trkpt>
|
|
<trkpt lat="55.184622" lon="8.713792">
|
|
<ele>-27.867993</ele>
|
|
<time>2026-07-10T13:47:29.000Z</time>
|
|
</trkpt>
|
|
<trkpt lat="55.184658" lon="8.713885">
|
|
<ele>-27.906735</ele>
|
|
<time>2026-07-10T13:47:30.000Z</time>
|
|
</trkpt>
|
|
<trkpt lat="55.184696" lon="8.713972">
|
|
<ele>-27.925275</ele>
|
|
<time>2026-07-10T13:47:31.000Z</time>
|
|
</trkpt>
|
|
<trkpt lat="55.184737" lon="8.714058">
|
|
<ele>-27.941392</ele>
|
|
<time>2026-07-10T13:47:32.000Z</time>
|
|
</trkpt>
|
|
<trkpt lat="55.184777" lon="8.714144">
|
|
<ele>-27.957348</ele>
|
|
<time>2026-07-10T13:47:33.000Z</time>
|
|
</trkpt>
|
|
<trkpt lat="55.184817" lon="8.714227">
|
|
<ele>-27.972972</ele>
|
|
<time>2026-07-10T13:47:34.000Z</time>
|
|
</trkpt>
|
|
<trkpt lat="55.184851" lon="8.714311">
|
|
<ele>-27.987784</ele>
|
|
<time>2026-07-10T13:47:35.000Z</time>
|
|
</trkpt>
|
|
<trkpt lat="55.184885" lon="8.714391">
|
|
<ele>-28.002130</ele>
|
|
<time>2026-07-10T13:47:36.000Z</time>
|
|
</trkpt>
|
|
<trkpt lat="55.184919" lon="8.714470">
|
|
<ele>-28.016361</ele>
|
|
<time>2026-07-10T13:47:37.000Z</time>
|
|
</trkpt>
|
|
<trkpt lat="55.184950" lon="8.714547">
|
|
<ele>-28.029914</ele>
|
|
<time>2026-07-10T13:47:38.000Z</time>
|
|
</trkpt>
|
|
<trkpt lat="55.184984" lon="8.714619">
|
|
<ele>-28.043354</ele>
|
|
<time>2026-07-10T13:47:39.000Z</time>
|
|
</trkpt>
|
|
<trkpt lat="55.185015" lon="8.714687">
|
|
<ele>-28.055871</ele>
|
|
<time>2026-07-10T13:47:40.000Z</time>
|
|
</trkpt>
|
|
<trkpt lat="55.185048" lon="8.714758">
|
|
<ele>-28.069041</ele>
|
|
<time>2026-07-10T13:47:41.000Z</time>
|
|
</trkpt>
|
|
<trkpt lat="55.185079" lon="8.714830">
|
|
<ele>-28.082012</ele>
|
|
<time>2026-07-10T13:47:42.000Z</time>
|
|
</trkpt>
|
|
<trkpt lat="55.185110" lon="8.714903">
|
|
<ele>-28.095099</ele>
|
|
<time>2026-07-10T13:47:43.000Z</time>
|
|
</trkpt>
|
|
<trkpt lat="55.185146" lon="8.714975">
|
|
<ele>-28.108866</ele>
|
|
<time>2026-07-10T13:47:44.000Z</time>
|
|
</trkpt>
|
|
<trkpt lat="55.185183" lon="8.715050">
|
|
<ele>-28.123124</ele>
|
|
<time>2026-07-10T13:47:45.000Z</time>
|
|
</trkpt>
|
|
<trkpt lat="55.185219" lon="8.715126">
|
|
<ele>-28.137329</ele>
|
|
<time>2026-07-10T13:47:46.000Z</time>
|
|
</trkpt>
|
|
<trkpt lat="55.185256" lon="8.715203">
|
|
<ele>-28.151806</ele>
|
|
<time>2026-07-10T13:47:47.000Z</time>
|
|
</trkpt>
|
|
<trkpt lat="55.185289" lon="8.715281">
|
|
<ele>-28.165771</ele>
|
|
<time>2026-07-10T13:47:48.000Z</time>
|
|
</trkpt>
|
|
<trkpt lat="55.185321" lon="8.715360">
|
|
<ele>-28.179704</ele>
|
|
<time>2026-07-10T13:47:49.000Z</time>
|
|
</trkpt>
|
|
<trkpt lat="55.185357" lon="8.715439">
|
|
<ele>-28.194244</ele>
|
|
<time>2026-07-10T13:47:50.000Z</time>
|
|
</trkpt>
|
|
<trkpt lat="55.185389" lon="8.715517">
|
|
<ele>-28.208060</ele>
|
|
<time>2026-07-10T13:47:51.000Z</time>
|
|
</trkpt>
|
|
<trkpt lat="55.185423" lon="8.715598">
|
|
<ele>-28.222521</ele>
|
|
<time>2026-07-10T13:47:52.000Z</time>
|
|
</trkpt>
|
|
<trkpt lat="55.185458" lon="8.715673">
|
|
<ele>-28.236455</ele>
|
|
<time>2026-07-10T13:47:53.000Z</time>
|
|
</trkpt>
|
|
<trkpt lat="55.185491" lon="8.715746">
|
|
<ele>-28.249849</ele>
|
|
<time>2026-07-10T13:47:54.000Z</time>
|
|
</trkpt>
|
|
<trkpt lat="55.185521" lon="8.715822">
|
|
<ele>-28.263139</ele>
|
|
<time>2026-07-10T13:47:55.000Z</time>
|
|
</trkpt>
|
|
<trkpt lat="55.185549" lon="8.715902">
|
|
<ele>-28.276637</ele>
|
|
<time>2026-07-10T13:47:56.000Z</time>
|
|
</trkpt>
|
|
<trkpt lat="55.185570" lon="8.715982">
|
|
<ele>-28.289302</ele>
|
|
<time>2026-07-10T13:47:57.000Z</time>
|
|
</trkpt>
|
|
<trkpt lat="55.185595" lon="8.716077">
|
|
<ele>-28.304349</ele>
|
|
<time>2026-07-10T13:47:58.000Z</time>
|
|
</trkpt>
|
|
<trkpt lat="55.185617" lon="8.716165">
|
|
<ele>-28.318168</ele>
|
|
<time>2026-07-10T13:47:59.000Z</time>
|
|
</trkpt>
|
|
<trkpt lat="55.185634" lon="8.716252">
|
|
<ele>-28.331395</ele>
|
|
<time>2026-07-10T13:48:00.000Z</time>
|
|
</trkpt>
|
|
<trkpt lat="55.185646" lon="8.716341">
|
|
<ele>-28.344549</ele>
|
|
<time>2026-07-10T13:48:01.000Z</time>
|
|
</trkpt>
|
|
<trkpt lat="55.185655" lon="8.716427">
|
|
<ele>-28.357126</ele>
|
|
<time>2026-07-10T13:48:02.000Z</time>
|
|
</trkpt>
|
|
<trkpt lat="55.185659" lon="8.716512">
|
|
<ele>-28.372643</ele>
|
|
<time>2026-07-10T13:48:03.000Z</time>
|
|
</trkpt>
|
|
<trkpt lat="55.185661" lon="8.716594">
|
|
<ele>-28.392583</ele>
|
|
<time>2026-07-10T13:48:04.000Z</time>
|
|
</trkpt>
|
|
<trkpt lat="55.185662" lon="8.716668">
|
|
<ele>-28.410567</ele>
|
|
<time>2026-07-10T13:48:05.000Z</time>
|
|
</trkpt>
|
|
<trkpt lat="55.185666" lon="8.716733">
|
|
<ele>-28.426450</ele>
|
|
<time>2026-07-10T13:48:06.000Z</time>
|
|
</trkpt>
|
|
<trkpt lat="55.185671" lon="8.716785">
|
|
<ele>-28.439262</ele>
|
|
<time>2026-07-10T13:48:07.000Z</time>
|
|
</trkpt>
|
|
<trkpt lat="55.185678" lon="8.716828">
|
|
<ele>-28.450125</ele>
|
|
<time>2026-07-10T13:48:08.000Z</time>
|
|
</trkpt>
|
|
<trkpt lat="55.185684" lon="8.716868">
|
|
<ele>-28.460173</ele>
|
|
<time>2026-07-10T13:48:09.000Z</time>
|
|
</trkpt>
|
|
<trkpt lat="55.185695" lon="8.716907">
|
|
<ele>-28.470742</ele>
|
|
<time>2026-07-10T13:48:10.000Z</time>
|
|
</trkpt>
|
|
<trkpt lat="55.185710" lon="8.716948">
|
|
<ele>-28.482573</ele>
|
|
<time>2026-07-10T13:48:11.000Z</time>
|
|
</trkpt>
|
|
<trkpt lat="55.185734" lon="8.716985">
|
|
<ele>-28.496179</ele>
|
|
<time>2026-07-10T13:48:12.000Z</time>
|
|
</trkpt>
|
|
<trkpt lat="55.185762" lon="8.717021">
|
|
<ele>-28.510959</ele>
|
|
<time>2026-07-10T13:48:13.000Z</time>
|
|
</trkpt>
|
|
<trkpt lat="55.185793" lon="8.717045">
|
|
<ele>-28.525383</ele>
|
|
<time>2026-07-10T13:48:14.000Z</time>
|
|
</trkpt>
|
|
<trkpt lat="55.185827" lon="8.717061">
|
|
<ele>-28.540365</ele>
|
|
<time>2026-07-10T13:48:15.000Z</time>
|
|
</trkpt>
|
|
<trkpt lat="55.185856" lon="8.717081">
|
|
<ele>-28.553628</ele>
|
|
<time>2026-07-10T13:48:16.000Z</time>
|
|
</trkpt>
|
|
<trkpt lat="55.185880" lon="8.717100">
|
|
<ele>-28.564836</ele>
|
|
<time>2026-07-10T13:48:17.000Z</time>
|
|
</trkpt>
|
|
<trkpt lat="55.185896" lon="8.717112">
|
|
<ele>-28.572242</ele>
|
|
<time>2026-07-10T13:48:18.000Z</time>
|
|
</trkpt>
|
|
<trkpt lat="55.185975" lon="8.717141">
|
|
<ele>-28.606591</ele>
|
|
<time>2026-07-10T13:48:28.000Z</time>
|
|
</trkpt>
|
|
<trkpt lat="55.186011" lon="8.717166">
|
|
<ele>-28.623071</ele>
|
|
<time>2026-07-10T13:48:29.000Z</time>
|
|
</trkpt>
|
|
<trkpt lat="55.186046" lon="8.717191">
|
|
<ele>-28.639156</ele>
|
|
<time>2026-07-10T13:48:30.000Z</time>
|
|
</trkpt>
|
|
<trkpt lat="55.186085" lon="8.717216">
|
|
<ele>-28.656829</ele>
|
|
<time>2026-07-10T13:48:31.000Z</time>
|
|
</trkpt>
|
|
<trkpt lat="55.186126" lon="8.717239">
|
|
<ele>-28.675150</ele>
|
|
<time>2026-07-10T13:48:32.000Z</time>
|
|
</trkpt>
|
|
<trkpt lat="55.186169" lon="8.717262">
|
|
<ele>-28.694282</ele>
|
|
<time>2026-07-10T13:48:33.000Z</time>
|
|
</trkpt>
|
|
<trkpt lat="55.186212" lon="8.717287">
|
|
<ele>-28.713563</ele>
|
|
<time>2026-07-10T13:48:34.000Z</time>
|
|
</trkpt>
|
|
<trkpt lat="55.186257" lon="8.717321">
|
|
<ele>-28.734418</ele>
|
|
<time>2026-07-10T13:48:35.000Z</time>
|
|
</trkpt>
|
|
<trkpt lat="55.186300" lon="8.717359">
|
|
<ele>-28.754914</ele>
|
|
<time>2026-07-10T13:48:36.000Z</time>
|
|
</trkpt>
|
|
<trkpt lat="55.186345" lon="8.717403">
|
|
<ele>-28.776845</ele>
|
|
<time>2026-07-10T13:48:37.000Z</time>
|
|
</trkpt>
|
|
<trkpt lat="55.186387" lon="8.717449">
|
|
<ele>-28.797925</ele>
|
|
<time>2026-07-10T13:48:38.000Z</time>
|
|
</trkpt>
|
|
<trkpt lat="55.186429" lon="8.717494">
|
|
<ele>-28.818876</ele>
|
|
<time>2026-07-10T13:48:39.000Z</time>
|
|
</trkpt>
|
|
<trkpt lat="55.186472" lon="8.717535">
|
|
<ele>-28.839710</ele>
|
|
<time>2026-07-10T13:48:40.000Z</time>
|
|
</trkpt>
|
|
<trkpt lat="55.186518" lon="8.717573">
|
|
<ele>-28.861353</ele>
|
|
<time>2026-07-10T13:48:41.000Z</time>
|
|
</trkpt>
|
|
<trkpt lat="55.186564" lon="8.717610">
|
|
<ele>-28.882894</ele>
|
|
<time>2026-07-10T13:48:42.000Z</time>
|
|
</trkpt>
|
|
<trkpt lat="55.186609" lon="8.717651">
|
|
<ele>-28.904480</ele>
|
|
<time>2026-07-10T13:48:43.000Z</time>
|
|
</trkpt>
|
|
<trkpt lat="55.186654" lon="8.717694">
|
|
<ele>-28.926294</ele>
|
|
<time>2026-07-10T13:48:44.000Z</time>
|
|
</trkpt>
|
|
<trkpt lat="55.186702" lon="8.717740">
|
|
<ele>-28.949577</ele>
|
|
<time>2026-07-10T13:48:45.000Z</time>
|
|
</trkpt>
|
|
<trkpt lat="55.186752" lon="8.717787">
|
|
<ele>-28.973725</ele>
|
|
<time>2026-07-10T13:48:46.000Z</time>
|
|
</trkpt>
|
|
<trkpt lat="55.186801" lon="8.717831">
|
|
<ele>-28.997157</ele>
|
|
<time>2026-07-10T13:48:47.000Z</time>
|
|
</trkpt>
|
|
<trkpt lat="55.186851" lon="8.717877">
|
|
<ele>-29.021191</ele>
|
|
<time>2026-07-10T13:48:48.000Z</time>
|
|
</trkpt>
|
|
<trkpt lat="55.186900" lon="8.717923">
|
|
<ele>-29.044849</ele>
|
|
<time>2026-07-10T13:48:49.000Z</time>
|
|
</trkpt>
|
|
<trkpt lat="55.186950" lon="8.717970">
|
|
<ele>-29.068997</ele>
|
|
<time>2026-07-10T13:48:50.000Z</time>
|
|
</trkpt>
|
|
<trkpt lat="55.187001" lon="8.718017">
|
|
<ele>-29.093520</ele>
|
|
<time>2026-07-10T13:48:51.000Z</time>
|
|
</trkpt>
|
|
<trkpt lat="55.187053" lon="8.718064">
|
|
<ele>-29.118421</ele>
|
|
<time>2026-07-10T13:48:52.000Z</time>
|
|
</trkpt>
|
|
<trkpt lat="55.187102" lon="8.718112">
|
|
<ele>-29.127004</ele>
|
|
<time>2026-07-10T13:48:53.000Z</time>
|
|
</trkpt>
|
|
<trkpt lat="55.187152" lon="8.718159">
|
|
<ele>-29.120905</ele>
|
|
<time>2026-07-10T13:48:54.000Z</time>
|
|
</trkpt>
|
|
<trkpt lat="55.187200" lon="8.718209">
|
|
<ele>-29.114903</ele>
|
|
<time>2026-07-10T13:48:55.000Z</time>
|
|
</trkpt>
|
|
<trkpt lat="55.187246" lon="8.718261">
|
|
<ele>-29.109019</ele>
|
|
<time>2026-07-10T13:48:56.000Z</time>
|
|
</trkpt>
|
|
<trkpt lat="55.187292" lon="8.718312">
|
|
<ele>-29.103168</ele>
|
|
<time>2026-07-10T13:48:57.000Z</time>
|
|
</trkpt>
|
|
<trkpt lat="55.187337" lon="8.718362">
|
|
<ele>-29.097441</ele>
|
|
<time>2026-07-10T13:48:58.000Z</time>
|
|
</trkpt>
|
|
<trkpt lat="55.187381" lon="8.718412">
|
|
<ele>-29.091804</ele>
|
|
<time>2026-07-10T13:48:59.000Z</time>
|
|
</trkpt>
|
|
<trkpt lat="55.187429" lon="8.718465">
|
|
<ele>-29.085706</ele>
|
|
<time>2026-07-10T13:49:00.000Z</time>
|
|
</trkpt>
|
|
<trkpt lat="55.187474" lon="8.718517">
|
|
<ele>-29.079912</ele>
|
|
<time>2026-07-10T13:49:01.000Z</time>
|
|
</trkpt>
|
|
<trkpt lat="55.187517" lon="8.718571">
|
|
<ele>-29.074225</ele>
|
|
<time>2026-07-10T13:49:02.000Z</time>
|
|
</trkpt>
|
|
<trkpt lat="55.187563" lon="8.718625">
|
|
<ele>-29.068274</ele>
|
|
<time>2026-07-10T13:49:03.000Z</time>
|
|
</trkpt>
|
|
<trkpt lat="55.187610" lon="8.718675">
|
|
<ele>-29.062364</ele>
|
|
<time>2026-07-10T13:49:04.000Z</time>
|
|
</trkpt>
|
|
<trkpt lat="55.187657" lon="8.718724">
|
|
<ele>-29.056485</ele>
|
|
<time>2026-07-10T13:49:05.000Z</time>
|
|
</trkpt>
|
|
<trkpt lat="55.187700" lon="8.718771">
|
|
<ele>-29.051038</ele>
|
|
<time>2026-07-10T13:49:06.000Z</time>
|
|
</trkpt>
|
|
<trkpt lat="55.187746" lon="8.718820">
|
|
<ele>-29.045252</ele>
|
|
<time>2026-07-10T13:49:07.000Z</time>
|
|
</trkpt>
|
|
<trkpt lat="55.187792" lon="8.718868">
|
|
<ele>-29.039497</ele>
|
|
<time>2026-07-10T13:49:08.000Z</time>
|
|
</trkpt>
|
|
<trkpt lat="55.187837" lon="8.718916">
|
|
<ele>-29.033834</ele>
|
|
<time>2026-07-10T13:49:09.000Z</time>
|
|
</trkpt>
|
|
<trkpt lat="55.187882" lon="8.718965">
|
|
<ele>-29.028140</ele>
|
|
<time>2026-07-10T13:49:10.000Z</time>
|
|
</trkpt>
|
|
<trkpt lat="55.187925" lon="8.719014">
|
|
<ele>-29.022626</ele>
|
|
<time>2026-07-10T13:49:11.000Z</time>
|
|
</trkpt>
|
|
<trkpt lat="55.187971" lon="8.719065">
|
|
<ele>-29.016775</ele>
|
|
<time>2026-07-10T13:49:12.000Z</time>
|
|
</trkpt>
|
|
<trkpt lat="55.188017" lon="8.719114">
|
|
<ele>-29.010989</ele>
|
|
<time>2026-07-10T13:49:13.000Z</time>
|
|
</trkpt>
|
|
<trkpt lat="55.188063" lon="8.719165">
|
|
<ele>-29.005138</ele>
|
|
<time>2026-07-10T13:49:14.000Z</time>
|
|
</trkpt>
|
|
<trkpt lat="55.188109" lon="8.719217">
|
|
<ele>-28.999254</ele>
|
|
<time>2026-07-10T13:49:15.000Z</time>
|
|
</trkpt>
|
|
<trkpt lat="55.188155" lon="8.719268">
|
|
<ele>-28.993403</ele>
|
|
<time>2026-07-10T13:49:16.000Z</time>
|
|
</trkpt>
|
|
<trkpt lat="55.188204" lon="8.719317">
|
|
<ele>-28.987339</ele>
|
|
<time>2026-07-10T13:49:17.000Z</time>
|
|
</trkpt>
|
|
<trkpt lat="55.188250" lon="8.719366">
|
|
<ele>-28.981553</ele>
|
|
<time>2026-07-10T13:49:18.000Z</time>
|
|
</trkpt>
|
|
<trkpt lat="55.188296" lon="8.719416">
|
|
<ele>-28.975734</ele>
|
|
<time>2026-07-10T13:49:19.000Z</time>
|
|
</trkpt>
|
|
<trkpt lat="55.188345" lon="8.719467">
|
|
<ele>-28.969609</ele>
|
|
<time>2026-07-10T13:49:20.000Z</time>
|
|
</trkpt>
|
|
<trkpt lat="55.188390" lon="8.719518">
|
|
<ele>-28.963848</ele>
|
|
<time>2026-07-10T13:49:21.000Z</time>
|
|
</trkpt>
|
|
<trkpt lat="55.188436" lon="8.719570">
|
|
<ele>-28.957964</ele>
|
|
<time>2026-07-10T13:49:22.000Z</time>
|
|
</trkpt>
|
|
<trkpt lat="55.188482" lon="8.719625">
|
|
<ele>-28.951978</ele>
|
|
<time>2026-07-10T13:49:23.000Z</time>
|
|
</trkpt>
|
|
<trkpt lat="55.188528" lon="8.719677">
|
|
<ele>-28.946094</ele>
|
|
<time>2026-07-10T13:49:24.000Z</time>
|
|
</trkpt>
|
|
<trkpt lat="55.188574" lon="8.719728">
|
|
<ele>-28.940243</ele>
|
|
<time>2026-07-10T13:49:25.000Z</time>
|
|
</trkpt>
|
|
<trkpt lat="55.188620" lon="8.719779">
|
|
<ele>-28.932806</ele>
|
|
<time>2026-07-10T13:49:26.000Z</time>
|
|
</trkpt>
|
|
<trkpt lat="55.188666" lon="8.719830">
|
|
<ele>-28.923068</ele>
|
|
<time>2026-07-10T13:49:27.000Z</time>
|
|
</trkpt>
|
|
<trkpt lat="55.188715" lon="8.719881">
|
|
<ele>-28.912872</ele>
|
|
<time>2026-07-10T13:49:28.000Z</time>
|
|
</trkpt>
|
|
<trkpt lat="55.188761" lon="8.719931">
|
|
<ele>-28.903188</ele>
|
|
<time>2026-07-10T13:49:29.000Z</time>
|
|
</trkpt>
|
|
<trkpt lat="55.188807" lon="8.719981">
|
|
<ele>-28.893503</ele>
|
|
<time>2026-07-10T13:49:30.000Z</time>
|
|
</trkpt>
|
|
<trkpt lat="55.188856" lon="8.720031">
|
|
<ele>-28.883359</ele>
|
|
<time>2026-07-10T13:49:31.000Z</time>
|
|
</trkpt>
|
|
<trkpt lat="55.188901" lon="8.720081">
|
|
<ele>-28.873827</ele>
|
|
<time>2026-07-10T13:49:32.000Z</time>
|
|
</trkpt>
|
|
<trkpt lat="55.188947" lon="8.720132">
|
|
<ele>-28.864088</ele>
|
|
<time>2026-07-10T13:49:33.000Z</time>
|
|
</trkpt>
|
|
<trkpt lat="55.188996" lon="8.720185">
|
|
<ele>-28.853786</ele>
|
|
<time>2026-07-10T13:49:34.000Z</time>
|
|
</trkpt>
|
|
<trkpt lat="55.189047" lon="8.720237">
|
|
<ele>-28.843230</ele>
|
|
<time>2026-07-10T13:49:35.000Z</time>
|
|
</trkpt>
|
|
<trkpt lat="55.189093" lon="8.720291">
|
|
<ele>-28.833325</ele>
|
|
<time>2026-07-10T13:49:36.000Z</time>
|
|
</trkpt>
|
|
<trkpt lat="55.189139" lon="8.720345">
|
|
<ele>-28.823419</ele>
|
|
<time>2026-07-10T13:49:37.000Z</time>
|
|
</trkpt>
|
|
<trkpt lat="55.189187" lon="8.720396">
|
|
<ele>-28.813376</ele>
|
|
<time>2026-07-10T13:49:38.000Z</time>
|
|
</trkpt>
|
|
<trkpt lat="55.189235" lon="8.720448">
|
|
<ele>-28.803280</ele>
|
|
<time>2026-07-10T13:49:39.000Z</time>
|
|
</trkpt>
|
|
<trkpt lat="55.189282" lon="8.720502">
|
|
<ele>-28.793226</ele>
|
|
<time>2026-07-10T13:49:40.000Z</time>
|
|
</trkpt>
|
|
<trkpt lat="55.189325" lon="8.720556">
|
|
<ele>-28.783761</ele>
|
|
<time>2026-07-10T13:49:41.000Z</time>
|
|
</trkpt>
|
|
<trkpt lat="55.189370" lon="8.720613">
|
|
<ele>-28.773827</ele>
|
|
<time>2026-07-10T13:49:42.000Z</time>
|
|
</trkpt>
|
|
<trkpt lat="55.189413" lon="8.720670">
|
|
<ele>-28.764181</ele>
|
|
<time>2026-07-10T13:49:43.000Z</time>
|
|
</trkpt>
|
|
<trkpt lat="55.189459" lon="8.720734">
|
|
<ele>-28.753672</ele>
|
|
<time>2026-07-10T13:49:44.000Z</time>
|
|
</trkpt>
|
|
<trkpt lat="55.189503" lon="8.720793">
|
|
<ele>-28.743760</ele>
|
|
<time>2026-07-10T13:49:45.000Z</time>
|
|
</trkpt>
|
|
<trkpt lat="55.189545" lon="8.720851">
|
|
<ele>-28.734193</ele>
|
|
<time>2026-07-10T13:49:46.000Z</time>
|
|
</trkpt>
|
|
<trkpt lat="55.189586" lon="8.720910">
|
|
<ele>-28.724701</ele>
|
|
<time>2026-07-10T13:49:47.000Z</time>
|
|
</trkpt>
|
|
<trkpt lat="55.189623" lon="8.720969">
|
|
<ele>-28.715751</ele>
|
|
<time>2026-07-10T13:49:48.000Z</time>
|
|
</trkpt>
|
|
<trkpt lat="55.189663" lon="8.721030">
|
|
<ele>-28.706264</ele>
|
|
<time>2026-07-10T13:49:49.000Z</time>
|
|
</trkpt>
|
|
<trkpt lat="55.189704" lon="8.721085">
|
|
<ele>-28.697026</ele>
|
|
<time>2026-07-10T13:49:50.000Z</time>
|
|
</trkpt>
|
|
<trkpt lat="55.189744" lon="8.721140">
|
|
<ele>-28.687930</ele>
|
|
<time>2026-07-10T13:49:51.000Z</time>
|
|
</trkpt>
|
|
<trkpt lat="55.189784" lon="8.721193">
|
|
<ele>-28.678958</ele>
|
|
<time>2026-07-10T13:49:52.000Z</time>
|
|
</trkpt>
|
|
<trkpt lat="55.189820" lon="8.721249">
|
|
<ele>-28.670345</ele>
|
|
<time>2026-07-10T13:49:53.000Z</time>
|
|
</trkpt>
|
|
<trkpt lat="55.189861" lon="8.721312">
|
|
<ele>-28.660589</ele>
|
|
<time>2026-07-10T13:49:54.000Z</time>
|
|
</trkpt>
|
|
<trkpt lat="55.189904" lon="8.721374">
|
|
<ele>-28.650626</ele>
|
|
<time>2026-07-10T13:49:55.000Z</time>
|
|
</trkpt>
|
|
<trkpt lat="55.189946" lon="8.721437">
|
|
<ele>-28.640735</ele>
|
|
<time>2026-07-10T13:49:56.000Z</time>
|
|
</trkpt>
|
|
<trkpt lat="55.189987" lon="8.721497">
|
|
<ele>-28.631178</ele>
|
|
<time>2026-07-10T13:49:57.000Z</time>
|
|
</trkpt>
|
|
<trkpt lat="55.190027" lon="8.721555">
|
|
<ele>-28.621890</ele>
|
|
<time>2026-07-10T13:49:58.000Z</time>
|
|
</trkpt>
|
|
<trkpt lat="55.190071" lon="8.721615">
|
|
<ele>-28.621310</ele>
|
|
<time>2026-07-10T13:49:59.000Z</time>
|
|
</trkpt>
|
|
<trkpt lat="55.190110" lon="8.721680">
|
|
<ele>-28.640743</ele>
|
|
<time>2026-07-10T13:50:00.000Z</time>
|
|
</trkpt>
|
|
<trkpt lat="55.190152" lon="8.721746">
|
|
<ele>-28.661111</ele>
|
|
<time>2026-07-10T13:50:01.000Z</time>
|
|
</trkpt>
|
|
<trkpt lat="55.190193" lon="8.721815">
|
|
<ele>-28.681636</ele>
|
|
<time>2026-07-10T13:50:02.000Z</time>
|
|
</trkpt>
|
|
<trkpt lat="55.190232" lon="8.721882">
|
|
<ele>-28.701355</ele>
|
|
<time>2026-07-10T13:50:03.000Z</time>
|
|
</trkpt>
|
|
<trkpt lat="55.190274" lon="8.721944">
|
|
<ele>-28.721183</ele>
|
|
<time>2026-07-10T13:50:04.000Z</time>
|
|
</trkpt>
|
|
<trkpt lat="55.190316" lon="8.722005">
|
|
<ele>-28.740878</ele>
|
|
<time>2026-07-10T13:50:05.000Z</time>
|
|
</trkpt>
|
|
<trkpt lat="55.190357" lon="8.722067">
|
|
<ele>-28.760431</ele>
|
|
<time>2026-07-10T13:50:06.000Z</time>
|
|
</trkpt>
|
|
<trkpt lat="55.190400" lon="8.722135">
|
|
<ele>-28.781343</ele>
|
|
<time>2026-07-10T13:50:07.000Z</time>
|
|
</trkpt>
|
|
<trkpt lat="55.190441" lon="8.722199">
|
|
<ele>-28.801168</ele>
|
|
<time>2026-07-10T13:50:08.000Z</time>
|
|
</trkpt>
|
|
<trkpt lat="55.190480" lon="8.722264">
|
|
<ele>-28.820601</ele>
|
|
<time>2026-07-10T13:50:09.000Z</time>
|
|
</trkpt>
|
|
<trkpt lat="55.190521" lon="8.722327">
|
|
<ele>-28.840289</ele>
|
|
<time>2026-07-10T13:50:10.000Z</time>
|
|
</trkpt>
|
|
<trkpt lat="55.190560" lon="8.722391">
|
|
<ele>-28.859580</ele>
|
|
<time>2026-07-10T13:50:11.000Z</time>
|
|
</trkpt>
|
|
<trkpt lat="55.190600" lon="8.722453">
|
|
<ele>-28.878861</ele>
|
|
<time>2026-07-10T13:50:12.000Z</time>
|
|
</trkpt>
|
|
<trkpt lat="55.190634" lon="8.722516">
|
|
<ele>-28.896727</ele>
|
|
<time>2026-07-10T13:50:13.000Z</time>
|
|
</trkpt>
|
|
<trkpt lat="55.190668" lon="8.722582">
|
|
<ele>-28.915047</ele>
|
|
<time>2026-07-10T13:50:14.000Z</time>
|
|
</trkpt>
|
|
<trkpt lat="55.190706" lon="8.722652">
|
|
<ele>-28.934954</ele>
|
|
<time>2026-07-10T13:50:15.000Z</time>
|
|
</trkpt>
|
|
<trkpt lat="55.190741" lon="8.722717">
|
|
<ele>-28.953367</ele>
|
|
<time>2026-07-10T13:50:16.000Z</time>
|
|
</trkpt>
|
|
<trkpt lat="55.190779" lon="8.722786">
|
|
<ele>-28.973125</ele>
|
|
<time>2026-07-10T13:50:17.000Z</time>
|
|
</trkpt>
|
|
<trkpt lat="55.190814" lon="8.722852">
|
|
<ele>-28.991689</ele>
|
|
<time>2026-07-10T13:50:18.000Z</time>
|
|
</trkpt>
|
|
<trkpt lat="55.190852" lon="8.722922">
|
|
<ele>-29.011596</ele>
|
|
<time>2026-07-10T13:50:19.000Z</time>
|
|
</trkpt>
|
|
<trkpt lat="55.190885" lon="8.722995">
|
|
<ele>-29.030785</ele>
|
|
<time>2026-07-10T13:50:20.000Z</time>
|
|
</trkpt>
|
|
<trkpt lat="55.190917" lon="8.723067">
|
|
<ele>-29.049589</ele>
|
|
<time>2026-07-10T13:50:21.000Z</time>
|
|
</trkpt>
|
|
<trkpt lat="55.190951" lon="8.723144">
|
|
<ele>-29.069649</ele>
|
|
<time>2026-07-10T13:50:22.000Z</time>
|
|
</trkpt>
|
|
<trkpt lat="55.190984" lon="8.723225">
|
|
<ele>-29.090156</ele>
|
|
<time>2026-07-10T13:50:23.000Z</time>
|
|
</trkpt>
|
|
<trkpt lat="55.191013" lon="8.723305">
|
|
<ele>-29.109685</ele>
|
|
<time>2026-07-10T13:50:24.000Z</time>
|
|
</trkpt>
|
|
<trkpt lat="55.191045" lon="8.723389">
|
|
<ele>-29.130496</ele>
|
|
<time>2026-07-10T13:50:25.000Z</time>
|
|
</trkpt>
|
|
<trkpt lat="55.191077" lon="8.723471">
|
|
<ele>-29.150965</ele>
|
|
<time>2026-07-10T13:50:26.000Z</time>
|
|
</trkpt>
|
|
<trkpt lat="55.191110" lon="8.723557">
|
|
<ele>-29.172319</ele>
|
|
<time>2026-07-10T13:50:27.000Z</time>
|
|
</trkpt>
|
|
<trkpt lat="55.191141" lon="8.723641">
|
|
<ele>-29.192932</ele>
|
|
<time>2026-07-10T13:50:28.000Z</time>
|
|
</trkpt>
|
|
<trkpt lat="55.191175" lon="8.723720">
|
|
<ele>-29.213320</ele>
|
|
<time>2026-07-10T13:50:29.000Z</time>
|
|
</trkpt>
|
|
<trkpt lat="55.191206" lon="8.723801">
|
|
<ele>-29.233416</ele>
|
|
<time>2026-07-10T13:50:30.000Z</time>
|
|
</trkpt>
|
|
<trkpt lat="55.191238" lon="8.723883">
|
|
<ele>-29.253885</ele>
|
|
<time>2026-07-10T13:50:31.000Z</time>
|
|
</trkpt>
|
|
<trkpt lat="55.191265" lon="8.723967">
|
|
<ele>-29.250838</ele>
|
|
<time>2026-07-10T13:50:32.000Z</time>
|
|
</trkpt>
|
|
<trkpt lat="55.191291" lon="8.724054">
|
|
<ele>-29.221839</ele>
|
|
<time>2026-07-10T13:50:33.000Z</time>
|
|
</trkpt>
|
|
<trkpt lat="55.191314" lon="8.724139">
|
|
<ele>-29.194062</ele>
|
|
<time>2026-07-10T13:50:34.000Z</time>
|
|
</trkpt>
|
|
<trkpt lat="55.191337" lon="8.724220">
|
|
<ele>-29.167346</ele>
|
|
<time>2026-07-10T13:50:35.000Z</time>
|
|
</trkpt>
|
|
<trkpt lat="55.191363" lon="8.724300">
|
|
<ele>-29.140162</ele>
|
|
<time>2026-07-10T13:50:36.000Z</time>
|
|
</trkpt>
|
|
<trkpt lat="55.191390" lon="8.724380">
|
|
<ele>-29.112718</ele>
|
|
<time>2026-07-10T13:50:37.000Z</time>
|
|
</trkpt>
|
|
<trkpt lat="55.191413" lon="8.724454">
|
|
<ele>-29.087836</ele>
|
|
<time>2026-07-10T13:50:38.000Z</time>
|
|
</trkpt>
|
|
<trkpt lat="55.191437" lon="8.724524">
|
|
<ele>-29.063723</ele>
|
|
<time>2026-07-10T13:50:39.000Z</time>
|
|
</trkpt>
|
|
<trkpt lat="55.191462" lon="8.724594">
|
|
<ele>-29.039340</ele>
|
|
<time>2026-07-10T13:50:40.000Z</time>
|
|
</trkpt>
|
|
<trkpt lat="55.191485" lon="8.724669">
|
|
<ele>-29.014199</ele>
|
|
<time>2026-07-10T13:50:41.000Z</time>
|
|
</trkpt>
|
|
<trkpt lat="55.191509" lon="8.724748">
|
|
<ele>-28.987772</ele>
|
|
<time>2026-07-10T13:50:42.000Z</time>
|
|
</trkpt>
|
|
<trkpt lat="55.191534" lon="8.724827">
|
|
<ele>-28.961099</ele>
|
|
<time>2026-07-10T13:50:43.000Z</time>
|
|
</trkpt>
|
|
<trkpt lat="55.191553" lon="8.724908">
|
|
<ele>-28.935239</ele>
|
|
<time>2026-07-10T13:50:44.000Z</time>
|
|
</trkpt>
|
|
<trkpt lat="55.191571" lon="8.724995">
|
|
<ele>-28.907912</ele>
|
|
<time>2026-07-10T13:50:45.000Z</time>
|
|
</trkpt>
|
|
<trkpt lat="55.191586" lon="8.725081">
|
|
<ele>-28.881358</ele>
|
|
<time>2026-07-10T13:50:46.000Z</time>
|
|
</trkpt>
|
|
<trkpt lat="55.191601" lon="8.725166">
|
|
<ele>-28.855085</ele>
|
|
<time>2026-07-10T13:50:47.000Z</time>
|
|
</trkpt>
|
|
<trkpt lat="55.191617" lon="8.725257">
|
|
<ele>-28.826967</ele>
|
|
<time>2026-07-10T13:50:48.000Z</time>
|
|
</trkpt>
|
|
<trkpt lat="55.191633" lon="8.725354">
|
|
<ele>-28.797151</ele>
|
|
<time>2026-07-10T13:50:49.000Z</time>
|
|
</trkpt>
|
|
<trkpt lat="55.191651" lon="8.725450">
|
|
<ele>-28.767313</ele>
|
|
<time>2026-07-10T13:50:50.000Z</time>
|
|
</trkpt>
|
|
<trkpt lat="55.191666" lon="8.725545">
|
|
<ele>-28.738206</ele>
|
|
<time>2026-07-10T13:50:51.000Z</time>
|
|
</trkpt>
|
|
<trkpt lat="55.191681" lon="8.725639">
|
|
<ele>-28.709384</ele>
|
|
<time>2026-07-10T13:50:52.000Z</time>
|
|
</trkpt>
|
|
<trkpt lat="55.191696" lon="8.725734">
|
|
<ele>-28.680277</ele>
|
|
<time>2026-07-10T13:50:53.000Z</time>
|
|
</trkpt>
|
|
<trkpt lat="55.191708" lon="8.725827">
|
|
<ele>-28.652122</ele>
|
|
<time>2026-07-10T13:50:54.000Z</time>
|
|
</trkpt>
|
|
<trkpt lat="55.191722" lon="8.725923">
|
|
<ele>-28.622863</ele>
|
|
<time>2026-07-10T13:50:55.000Z</time>
|
|
</trkpt>
|
|
<trkpt lat="55.191735" lon="8.726018">
|
|
<ele>-28.594014</ele>
|
|
<time>2026-07-10T13:50:56.000Z</time>
|
|
</trkpt>
|
|
<trkpt lat="55.191750" lon="8.726112">
|
|
<ele>-28.565192</ele>
|
|
<time>2026-07-10T13:50:57.000Z</time>
|
|
</trkpt>
|
|
<trkpt lat="55.191767" lon="8.726205">
|
|
<ele>-28.536356</ele>
|
|
<time>2026-07-10T13:50:58.000Z</time>
|
|
</trkpt>
|
|
<trkpt lat="55.191785" lon="8.726295">
|
|
<ele>-28.508195</ele>
|
|
<time>2026-07-10T13:50:59.000Z</time>
|
|
</trkpt>
|
|
<trkpt lat="55.191801" lon="8.726381">
|
|
<ele>-28.481485</ele>
|
|
<time>2026-07-10T13:51:00.000Z</time>
|
|
</trkpt>
|
|
<trkpt lat="55.191819" lon="8.726469">
|
|
<ele>-28.453881</ele>
|
|
<time>2026-07-10T13:51:01.000Z</time>
|
|
</trkpt>
|
|
<trkpt lat="55.191833" lon="8.726558">
|
|
<ele>-28.426620</ele>
|
|
<time>2026-07-10T13:51:02.000Z</time>
|
|
</trkpt>
|
|
<trkpt lat="55.191844" lon="8.726644">
|
|
<ele>-28.400595</ele>
|
|
<time>2026-07-10T13:51:03.000Z</time>
|
|
</trkpt>
|
|
<trkpt lat="55.191855" lon="8.726728">
|
|
<ele>-28.375145</ele>
|
|
<time>2026-07-10T13:51:04.000Z</time>
|
|
</trkpt>
|
|
<trkpt lat="55.191865" lon="8.726818">
|
|
<ele>-28.348070</ele>
|
|
<time>2026-07-10T13:51:05.000Z</time>
|
|
</trkpt>
|
|
<trkpt lat="55.191881" lon="8.726908">
|
|
<ele>-28.315808</ele>
|
|
<time>2026-07-10T13:51:06.000Z</time>
|
|
</trkpt>
|
|
<trkpt lat="55.191899" lon="8.726997">
|
|
<ele>-28.278881</ele>
|
|
<time>2026-07-10T13:51:07.000Z</time>
|
|
</trkpt>
|
|
<trkpt lat="55.191915" lon="8.727082">
|
|
<ele>-28.243877</ele>
|
|
<time>2026-07-10T13:51:08.000Z</time>
|
|
</trkpt>
|
|
<trkpt lat="55.191933" lon="8.727163">
|
|
<ele>-28.209882</ele>
|
|
<time>2026-07-10T13:51:09.000Z</time>
|
|
</trkpt>
|
|
<trkpt lat="55.191947" lon="8.727237">
|
|
<ele>-28.179393</ele>
|
|
<time>2026-07-10T13:51:10.000Z</time>
|
|
</trkpt>
|
|
<trkpt lat="55.191959" lon="8.727305">
|
|
<ele>-28.151557</ele>
|
|
<time>2026-07-10T13:51:11.000Z</time>
|
|
</trkpt>
|
|
<trkpt lat="55.191970" lon="8.727370">
|
|
<ele>-28.125042</ele>
|
|
<time>2026-07-10T13:51:12.000Z</time>
|
|
</trkpt>
|
|
<trkpt lat="55.191981" lon="8.727430">
|
|
<ele>-28.100395</ele>
|
|
<time>2026-07-10T13:51:13.000Z</time>
|
|
</trkpt>
|
|
<trkpt lat="55.191988" lon="8.727486">
|
|
<ele>-28.077975</ele>
|
|
<time>2026-07-10T13:51:14.000Z</time>
|
|
</trkpt>
|
|
<trkpt lat="55.191997" lon="8.727533">
|
|
<ele>-28.058587</ele>
|
|
<time>2026-07-10T13:51:15.000Z</time>
|
|
</trkpt>
|
|
<trkpt lat="55.192008" lon="8.727570">
|
|
<ele>-28.042271</ele>
|
|
<time>2026-07-10T13:51:16.000Z</time>
|
|
</trkpt>
|
|
<trkpt lat="55.192020" lon="8.727600">
|
|
<ele>-28.027945</ele>
|
|
<time>2026-07-10T13:51:17.000Z</time>
|
|
</trkpt>
|
|
<trkpt lat="55.192034" lon="8.727623">
|
|
<ele>-28.014795</ele>
|
|
<time>2026-07-10T13:51:18.000Z</time>
|
|
</trkpt>
|
|
<trkpt lat="55.192055" lon="8.727649">
|
|
<ele>-27.997177</ele>
|
|
<time>2026-07-10T13:51:19.000Z</time>
|
|
</trkpt>
|
|
<trkpt lat="55.192071" lon="8.727671">
|
|
<ele>-27.983241</ele>
|
|
<time>2026-07-10T13:51:20.000Z</time>
|
|
</trkpt>
|
|
<trkpt lat="55.192086" lon="8.727693">
|
|
<ele>-27.969838</ele>
|
|
<time>2026-07-10T13:51:21.000Z</time>
|
|
</trkpt>
|
|
<trkpt lat="55.192101" lon="8.727711">
|
|
<ele>-27.957381</ele>
|
|
<time>2026-07-10T13:51:22.000Z</time>
|
|
</trkpt>
|
|
<trkpt lat="55.192116" lon="8.727723">
|
|
<ele>-27.946083</ele>
|
|
<time>2026-07-10T13:51:23.000Z</time>
|
|
</trkpt>
|
|
<trkpt lat="55.192131" lon="8.727732">
|
|
<ele>-27.935220</ele>
|
|
<time>2026-07-10T13:51:24.000Z</time>
|
|
</trkpt>
|
|
<trkpt lat="55.192143" lon="8.727740">
|
|
<ele>-27.926423</ele>
|
|
<time>2026-07-10T13:51:25.000Z</time>
|
|
</trkpt>
|
|
<trkpt lat="55.192161" lon="8.727743">
|
|
<ele>-27.914035</ele>
|
|
<time>2026-07-10T13:51:26.000Z</time>
|
|
</trkpt>
|
|
<trkpt lat="55.192183" lon="8.727732">
|
|
<ele>-27.898360</ele>
|
|
<time>2026-07-10T13:51:27.000Z</time>
|
|
</trkpt>
|
|
<trkpt lat="55.192206" lon="8.727705">
|
|
<ele>-27.879391</ele>
|
|
<time>2026-07-10T13:51:28.000Z</time>
|
|
</trkpt>
|
|
<trkpt lat="55.192230" lon="8.727667">
|
|
<ele>-27.857227</ele>
|
|
<time>2026-07-10T13:51:29.000Z</time>
|
|
</trkpt>
|
|
<trkpt lat="55.192258" lon="8.727622">
|
|
<ele>-27.831193</ele>
|
|
<time>2026-07-10T13:51:30.000Z</time>
|
|
</trkpt>
|
|
<trkpt lat="55.192290" lon="8.727578">
|
|
<ele>-27.803322</ele>
|
|
<time>2026-07-10T13:51:31.000Z</time>
|
|
</trkpt>
|
|
<trkpt lat="55.192325" lon="8.727540">
|
|
<ele>-27.775111</ele>
|
|
<time>2026-07-10T13:51:32.000Z</time>
|
|
</trkpt>
|
|
<trkpt lat="55.192364" lon="8.727509">
|
|
<ele>-27.745768</ele>
|
|
<time>2026-07-10T13:51:33.000Z</time>
|
|
</trkpt>
|
|
<trkpt lat="55.192405" lon="8.727483">
|
|
<ele>-27.715894</ele>
|
|
<time>2026-07-10T13:51:34.000Z</time>
|
|
</trkpt>
|
|
<trkpt lat="55.192444" lon="8.727457">
|
|
<ele>-27.687304</ele>
|
|
<time>2026-07-10T13:51:35.000Z</time>
|
|
</trkpt>
|
|
<trkpt lat="55.192487" lon="8.727431">
|
|
<ele>-27.656138</ele>
|
|
<time>2026-07-10T13:51:36.000Z</time>
|
|
</trkpt>
|
|
<trkpt lat="55.192532" lon="8.727406">
|
|
<ele>-27.623794</ele>
|
|
<time>2026-07-10T13:51:37.000Z</time>
|
|
</trkpt>
|
|
<trkpt lat="55.192573" lon="8.727383">
|
|
<ele>-27.594298</ele>
|
|
<time>2026-07-10T13:51:38.000Z</time>
|
|
</trkpt>
|
|
<trkpt lat="55.192621" lon="8.727357">
|
|
<ele>-27.559875</ele>
|
|
<time>2026-07-10T13:51:39.000Z</time>
|
|
</trkpt>
|
|
<trkpt lat="55.192667" lon="8.727332">
|
|
<ele>-27.526877</ele>
|
|
<time>2026-07-10T13:51:40.000Z</time>
|
|
</trkpt>
|
|
<trkpt lat="55.192713" lon="8.727307">
|
|
<ele>-27.493879</ele>
|
|
<time>2026-07-10T13:51:41.000Z</time>
|
|
</trkpt>
|
|
<trkpt lat="55.192760" lon="8.727286">
|
|
<ele>-27.460647</ele>
|
|
<time>2026-07-10T13:51:42.000Z</time>
|
|
</trkpt>
|
|
<trkpt lat="55.192808" lon="8.727266">
|
|
<ele>-27.426843</ele>
|
|
<time>2026-07-10T13:51:43.000Z</time>
|
|
</trkpt>
|
|
<trkpt lat="55.192855" lon="8.727248">
|
|
<ele>-27.393881</ele>
|
|
<time>2026-07-10T13:51:44.000Z</time>
|
|
</trkpt>
|
|
<trkpt lat="55.192903" lon="8.727233">
|
|
<ele>-27.360476</ele>
|
|
<time>2026-07-10T13:51:45.000Z</time>
|
|
</trkpt>
|
|
<trkpt lat="55.192949" lon="8.727220">
|
|
<ele>-27.328552</ele>
|
|
<time>2026-07-10T13:51:46.000Z</time>
|
|
</trkpt>
|
|
<trkpt lat="55.192995" lon="8.727209">
|
|
<ele>-27.296743</ele>
|
|
<time>2026-07-10T13:51:47.000Z</time>
|
|
</trkpt>
|
|
<trkpt lat="55.193042" lon="8.727199">
|
|
<ele>-27.264305</ele>
|
|
<time>2026-07-10T13:51:48.000Z</time>
|
|
</trkpt>
|
|
<trkpt lat="55.193091" lon="8.727191">
|
|
<ele>-27.230588</ele>
|
|
<time>2026-07-10T13:51:49.000Z</time>
|
|
</trkpt>
|
|
<trkpt lat="55.193140" lon="8.727186">
|
|
<ele>-27.196960</ele>
|
|
<time>2026-07-10T13:51:50.000Z</time>
|
|
</trkpt>
|
|
<trkpt lat="55.193186" lon="8.727186">
|
|
<ele>-27.165443</ele>
|
|
<time>2026-07-10T13:51:51.000Z</time>
|
|
</trkpt>
|
|
<trkpt lat="55.193232" lon="8.727188">
|
|
<ele>-27.133917</ele>
|
|
<time>2026-07-10T13:51:52.000Z</time>
|
|
</trkpt>
|
|
<trkpt lat="55.193280" lon="8.727195">
|
|
<ele>-27.100547</ele>
|
|
<time>2026-07-10T13:51:53.000Z</time>
|
|
</trkpt>
|
|
<trkpt lat="55.193328" lon="8.727203">
|
|
<ele>-27.048479</ele>
|
|
<time>2026-07-10T13:51:54.000Z</time>
|
|
</trkpt>
|
|
<trkpt lat="55.193378" lon="8.727210">
|
|
<ele>-26.994313</ele>
|
|
<time>2026-07-10T13:51:55.000Z</time>
|
|
</trkpt>
|
|
<trkpt lat="55.193425" lon="8.727215">
|
|
<ele>-26.943465</ele>
|
|
<time>2026-07-10T13:51:56.000Z</time>
|
|
</trkpt>
|
|
<trkpt lat="55.193467" lon="8.727216">
|
|
<ele>-26.898106</ele>
|
|
<time>2026-07-10T13:51:57.000Z</time>
|
|
</trkpt>
|
|
<trkpt lat="55.193509" lon="8.727212">
|
|
<ele>-26.852685</ele>
|
|
<time>2026-07-10T13:51:58.000Z</time>
|
|
</trkpt>
|
|
<trkpt lat="55.193550" lon="8.727207">
|
|
<ele>-26.808303</ele>
|
|
<time>2026-07-10T13:51:59.000Z</time>
|
|
</trkpt>
|
|
<trkpt lat="55.193594" lon="8.727203">
|
|
<ele>-26.760725</ele>
|
|
<time>2026-07-10T13:52:00.000Z</time>
|
|
</trkpt>
|
|
<trkpt lat="55.193638" lon="8.727202">
|
|
<ele>-26.713206</ele>
|
|
<time>2026-07-10T13:52:01.000Z</time>
|
|
</trkpt>
|
|
<trkpt lat="55.193677" lon="8.727198">
|
|
<ele>-26.671019</ele>
|
|
<time>2026-07-10T13:52:02.000Z</time>
|
|
</trkpt>
|
|
<trkpt lat="55.193719" lon="8.727194">
|
|
<ele>-26.625597</ele>
|
|
<time>2026-07-10T13:52:03.000Z</time>
|
|
</trkpt>
|
|
<trkpt lat="55.193761" lon="8.727191">
|
|
<ele>-26.580205</ele>
|
|
<time>2026-07-10T13:52:04.000Z</time>
|
|
</trkpt>
|
|
<trkpt lat="55.193803" lon="8.727188">
|
|
<ele>-26.534813</ele>
|
|
<time>2026-07-10T13:52:05.000Z</time>
|
|
</trkpt>
|
|
<trkpt lat="55.193845" lon="8.727187">
|
|
<ele>-26.489454</ele>
|
|
<time>2026-07-10T13:52:06.000Z</time>
|
|
</trkpt>
|
|
<trkpt lat="55.193885" lon="8.727185">
|
|
<ele>-26.446241</ele>
|
|
<time>2026-07-10T13:52:07.000Z</time>
|
|
</trkpt>
|
|
<trkpt lat="55.193920" lon="8.727183">
|
|
<ele>-26.408426</ele>
|
|
<time>2026-07-10T13:52:08.000Z</time>
|
|
</trkpt>
|
|
<trkpt lat="55.193956" lon="8.727180">
|
|
<ele>-26.369506</ele>
|
|
<time>2026-07-10T13:52:09.000Z</time>
|
|
</trkpt>
|
|
<trkpt lat="55.193993" lon="8.727169">
|
|
<ele>-26.328980</ele>
|
|
<time>2026-07-10T13:52:10.000Z</time>
|
|
</trkpt>
|
|
<trkpt lat="55.194034" lon="8.727150">
|
|
<ele>-26.283182</ele>
|
|
<time>2026-07-10T13:52:11.000Z</time>
|
|
</trkpt>
|
|
<trkpt lat="55.194075" lon="8.727138">
|
|
<ele>-26.238294</ele>
|
|
<time>2026-07-10T13:52:12.000Z</time>
|
|
</trkpt>
|
|
<trkpt lat="55.194108" lon="8.727130">
|
|
<ele>-26.202319</ele>
|
|
<time>2026-07-10T13:52:13.000Z</time>
|
|
</trkpt>
|
|
<trkpt lat="55.194140" lon="8.727125">
|
|
<ele>-26.167625</ele>
|
|
<time>2026-07-10T13:52:14.000Z</time>
|
|
</trkpt>
|
|
<trkpt lat="55.194179" lon="8.727126">
|
|
<ele>-26.125506</ele>
|
|
<time>2026-07-10T13:52:15.000Z</time>
|
|
</trkpt>
|
|
<trkpt lat="55.194215" lon="8.727127">
|
|
<ele>-26.086626</ele>
|
|
<time>2026-07-10T13:52:16.000Z</time>
|
|
</trkpt>
|
|
<trkpt lat="55.194251" lon="8.727127">
|
|
<ele>-26.047750</ele>
|
|
<time>2026-07-10T13:52:17.000Z</time>
|
|
</trkpt>
|
|
<trkpt lat="55.194286" lon="8.727124">
|
|
<ele>-26.009909</ele>
|
|
<time>2026-07-10T13:52:18.000Z</time>
|
|
</trkpt>
|
|
<trkpt lat="55.194324" lon="8.727120">
|
|
<ele>-25.968800</ele>
|
|
<time>2026-07-10T13:52:19.000Z</time>
|
|
</trkpt>
|
|
<trkpt lat="55.194361" lon="8.727119">
|
|
<ele>-25.928840</ele>
|
|
<time>2026-07-10T13:52:20.000Z</time>
|
|
</trkpt>
|
|
<trkpt lat="55.194406" lon="8.727124">
|
|
<ele>-25.880148</ele>
|
|
<time>2026-07-10T13:52:21.000Z</time>
|
|
</trkpt>
|
|
<trkpt lat="55.194451" lon="8.727135">
|
|
<ele>-25.831083</ele>
|
|
<time>2026-07-10T13:52:22.000Z</time>
|
|
</trkpt>
|
|
<trkpt lat="55.194496" lon="8.727146">
|
|
<ele>-25.782018</ele>
|
|
<time>2026-07-10T13:52:23.000Z</time>
|
|
</trkpt>
|
|
<trkpt lat="55.194534" lon="8.727152">
|
|
<ele>-25.740817</ele>
|
|
<time>2026-07-10T13:52:24.000Z</time>
|
|
</trkpt>
|
|
<trkpt lat="55.194571" lon="8.727153">
|
|
<ele>-25.700857</ele>
|
|
<time>2026-07-10T13:52:25.000Z</time>
|
|
</trkpt>
|
|
<trkpt lat="55.194609" lon="8.727151">
|
|
<ele>-25.659803</ele>
|
|
<time>2026-07-10T13:52:26.000Z</time>
|
|
</trkpt>
|
|
<trkpt lat="55.194646" lon="8.727146">
|
|
<ele>-25.619729</ele>
|
|
<time>2026-07-10T13:52:27.000Z</time>
|
|
</trkpt>
|
|
<trkpt lat="55.194690" lon="8.727132">
|
|
<ele>-25.571437</ele>
|
|
<time>2026-07-10T13:52:28.000Z</time>
|
|
</trkpt>
|
|
<trkpt lat="55.194729" lon="8.727125">
|
|
<ele>-25.529102</ele>
|
|
<time>2026-07-10T13:52:29.000Z</time>
|
|
</trkpt>
|
|
<trkpt lat="55.194765" lon="8.727117">
|
|
<ele>-25.489915</ele>
|
|
<time>2026-07-10T13:52:30.000Z</time>
|
|
</trkpt>
|
|
<trkpt lat="55.194800" lon="8.727113">
|
|
<ele>-25.452039</ele>
|
|
<time>2026-07-10T13:52:31.000Z</time>
|
|
</trkpt>
|
|
<trkpt lat="55.194838" lon="8.727109">
|
|
<ele>-25.410930</ele>
|
|
<time>2026-07-10T13:52:32.000Z</time>
|
|
</trkpt>
|
|
<trkpt lat="55.194872" lon="8.727108">
|
|
<ele>-25.374209</ele>
|
|
<time>2026-07-10T13:52:33.000Z</time>
|
|
</trkpt>
|
|
<trkpt lat="55.194908" lon="8.727105">
|
|
<ele>-25.335290</ele>
|
|
<time>2026-07-10T13:52:34.000Z</time>
|
|
</trkpt>
|
|
<trkpt lat="55.194946" lon="8.727099">
|
|
<ele>-25.294088</ele>
|
|
<time>2026-07-10T13:52:35.000Z</time>
|
|
</trkpt>
|
|
<trkpt lat="55.194983" lon="8.727094">
|
|
<ele>-25.254014</ele>
|
|
<time>2026-07-10T13:52:36.000Z</time>
|
|
</trkpt>
|
|
<trkpt lat="55.195017" lon="8.727092">
|
|
<ele>-25.217278</ele>
|
|
<time>2026-07-10T13:52:37.000Z</time>
|
|
</trkpt>
|
|
<trkpt lat="55.195052" lon="8.727092">
|
|
<ele>-25.179482</ele>
|
|
<time>2026-07-10T13:52:38.000Z</time>
|
|
</trkpt>
|
|
<trkpt lat="55.195085" lon="8.727093">
|
|
<ele>-25.155881</ele>
|
|
<time>2026-07-10T13:52:39.000Z</time>
|
|
</trkpt>
|
|
<trkpt lat="55.195113" lon="8.727098">
|
|
<ele>-25.149228</ele>
|
|
<time>2026-07-10T13:52:40.000Z</time>
|
|
</trkpt>
|
|
<trkpt lat="55.195134" lon="8.727101">
|
|
<ele>-25.144247</ele>
|
|
<time>2026-07-10T13:52:41.000Z</time>
|
|
</trkpt>
|
|
<trkpt lat="55.195150" lon="8.727104">
|
|
<ele>-25.140443</ele>
|
|
<time>2026-07-10T13:52:42.000Z</time>
|
|
</trkpt>
|
|
<trkpt lat="55.195152" lon="8.727104">
|
|
<ele>-25.139970</ele>
|
|
<time>2026-07-10T13:52:43.000Z</time>
|
|
</trkpt>
|
|
<trkpt lat="55.195152" lon="8.727101">
|
|
<ele>-25.139566</ele>
|
|
<time>2026-07-10T13:52:44.000Z</time>
|
|
</trkpt>
|
|
<trkpt lat="55.195282" lon="8.727107">
|
|
<ele>-25.108825</ele>
|
|
<time>2026-07-10T13:55:19.000Z</time>
|
|
</trkpt>
|
|
<trkpt lat="55.195310" lon="8.727104">
|
|
<ele>-25.102194</ele>
|
|
<time>2026-07-10T13:55:20.000Z</time>
|
|
</trkpt>
|
|
<trkpt lat="55.195339" lon="8.727099">
|
|
<ele>-25.095305</ele>
|
|
<time>2026-07-10T13:55:21.000Z</time>
|
|
</trkpt>
|
|
<trkpt lat="55.195366" lon="8.727093">
|
|
<ele>-25.088872</ele>
|
|
<time>2026-07-10T13:55:22.000Z</time>
|
|
</trkpt>
|
|
<trkpt lat="55.195398" lon="8.727087">
|
|
<ele>-25.081264</ele>
|
|
<time>2026-07-10T13:55:23.000Z</time>
|
|
</trkpt>
|
|
<trkpt lat="55.195427" lon="8.727084">
|
|
<ele>-25.074397</ele>
|
|
<time>2026-07-10T13:55:24.000Z</time>
|
|
</trkpt>
|
|
<trkpt lat="55.195456" lon="8.727079">
|
|
<ele>-25.067509</ele>
|
|
<time>2026-07-10T13:55:25.000Z</time>
|
|
</trkpt>
|
|
<trkpt lat="55.195488" lon="8.727073">
|
|
<ele>-25.059901</ele>
|
|
<time>2026-07-10T13:55:26.000Z</time>
|
|
</trkpt>
|
|
<trkpt lat="55.195514" lon="8.727070">
|
|
<ele>-25.053742</ele>
|
|
<time>2026-07-10T13:55:27.000Z</time>
|
|
</trkpt>
|
|
<trkpt lat="55.195543" lon="8.727072">
|
|
<ele>-25.046881</ele>
|
|
<time>2026-07-10T13:55:28.000Z</time>
|
|
</trkpt>
|
|
<trkpt lat="55.195561" lon="8.727073">
|
|
<ele>-25.042624</ele>
|
|
<time>2026-07-10T13:55:29.000Z</time>
|
|
</trkpt>
|
|
<trkpt lat="55.195572" lon="8.727070">
|
|
<ele>-25.039993</ele>
|
|
<time>2026-07-10T13:55:30.000Z</time>
|
|
</trkpt>
|
|
<trkpt lat="55.195573" lon="8.727063">
|
|
<ele>-25.039019</ele>
|
|
<time>2026-07-10T13:55:31.000Z</time>
|
|
</trkpt>
|
|
<trkpt lat="55.195576" lon="8.727057">
|
|
<ele>-25.037943</ele>
|
|
<time>2026-07-10T13:55:32.000Z</time>
|
|
</trkpt>
|
|
<trkpt lat="55.195560" lon="8.727032">
|
|
<ele>-25.032875</ele>
|
|
<time>2026-07-10T13:55:38.000Z</time>
|
|
</trkpt>
|
|
<trkpt lat="55.195543" lon="8.727034">
|
|
<ele>-25.028847</ele>
|
|
<time>2026-07-10T13:55:39.000Z</time>
|
|
</trkpt>
|
|
<trkpt lat="55.195512" lon="8.727037">
|
|
<ele>-25.021508</ele>
|
|
<time>2026-07-10T13:55:40.000Z</time>
|
|
</trkpt>
|
|
<trkpt lat="55.195490" lon="8.727038">
|
|
<ele>-25.016306</ele>
|
|
<time>2026-07-10T13:55:41.000Z</time>
|
|
</trkpt>
|
|
<trkpt lat="55.195457" lon="8.727036">
|
|
<ele>-25.008500</ele>
|
|
<time>2026-07-10T13:55:42.000Z</time>
|
|
</trkpt>
|
|
<trkpt lat="55.195428" lon="8.727035">
|
|
<ele>-25.001644</ele>
|
|
<time>2026-07-10T13:55:43.000Z</time>
|
|
</trkpt>
|
|
<trkpt lat="55.195401" lon="8.727034">
|
|
<ele>-24.995260</ele>
|
|
<time>2026-07-10T13:55:44.000Z</time>
|
|
</trkpt>
|
|
<trkpt lat="55.195382" lon="8.727032">
|
|
<ele>-24.990761</ele>
|
|
<time>2026-07-10T13:55:45.000Z</time>
|
|
</trkpt>
|
|
<trkpt lat="55.195363" lon="8.727031">
|
|
<ele>-24.986267</ele>
|
|
<time>2026-07-10T13:55:46.000Z</time>
|
|
</trkpt>
|
|
<trkpt lat="55.195353" lon="8.727030">
|
|
<ele>-24.983900</ele>
|
|
<time>2026-07-10T13:55:47.000Z</time>
|
|
</trkpt>
|
|
<trkpt lat="55.195347" lon="8.727030">
|
|
<ele>-24.982481</ele>
|
|
<time>2026-07-10T13:55:48.000Z</time>
|
|
</trkpt>
|
|
<trkpt lat="55.195347" lon="8.727030">
|
|
<ele>-24.982481</ele>
|
|
<time>2026-07-10T13:55:49.000Z</time>
|
|
</trkpt>
|
|
<trkpt lat="55.195347" lon="8.727032">
|
|
<ele>-24.982211</ele>
|
|
<time>2026-07-10T13:55:50.000Z</time>
|
|
</trkpt>
|
|
<trkpt lat="55.195362" lon="8.727038">
|
|
<ele>-24.978574</ele>
|
|
<time>2026-07-10T13:57:27.000Z</time>
|
|
</trkpt>
|
|
<trkpt lat="55.195405" lon="8.727055">
|
|
<ele>-24.968154</ele>
|
|
<time>2026-07-10T13:57:28.000Z</time>
|
|
</trkpt>
|
|
<trkpt lat="55.195421" lon="8.727054">
|
|
<ele>-24.964370</ele>
|
|
<time>2026-07-10T13:57:29.000Z</time>
|
|
</trkpt>
|
|
<trkpt lat="55.195442" lon="8.727053">
|
|
<ele>-24.959404</ele>
|
|
<time>2026-07-10T13:57:30.000Z</time>
|
|
</trkpt>
|
|
<trkpt lat="55.195468" lon="8.727051">
|
|
<ele>-24.953252</ele>
|
|
<time>2026-07-10T13:57:31.000Z</time>
|
|
</trkpt>
|
|
<trkpt lat="55.195502" lon="8.727048">
|
|
<ele>-24.945204</ele>
|
|
<time>2026-07-10T13:57:32.000Z</time>
|
|
</trkpt>
|
|
<trkpt lat="55.195536" lon="8.727045">
|
|
<ele>-24.937157</ele>
|
|
<time>2026-07-10T13:57:33.000Z</time>
|
|
</trkpt>
|
|
<trkpt lat="55.195570" lon="8.727040">
|
|
<ele>-24.929092</ele>
|
|
<time>2026-07-10T13:57:34.000Z</time>
|
|
</trkpt>
|
|
<trkpt lat="55.195607" lon="8.727037">
|
|
<ele>-24.920336</ele>
|
|
<time>2026-07-10T13:57:35.000Z</time>
|
|
</trkpt>
|
|
<trkpt lat="55.195647" lon="8.727030">
|
|
<ele>-24.910833</ele>
|
|
<time>2026-07-10T13:57:36.000Z</time>
|
|
</trkpt>
|
|
<trkpt lat="55.195687" lon="8.727025">
|
|
<ele>-24.901354</ele>
|
|
<time>2026-07-10T13:57:37.000Z</time>
|
|
</trkpt>
|
|
<trkpt lat="55.195729" lon="8.727020">
|
|
<ele>-24.891403</ele>
|
|
<time>2026-07-10T13:57:38.000Z</time>
|
|
</trkpt>
|
|
<trkpt lat="55.195772" lon="8.727017">
|
|
<ele>-24.881230</ele>
|
|
<time>2026-07-10T13:57:39.000Z</time>
|
|
</trkpt>
|
|
<trkpt lat="55.195819" lon="8.727012">
|
|
<ele>-24.870100</ele>
|
|
<time>2026-07-10T13:57:40.000Z</time>
|
|
</trkpt>
|
|
<trkpt lat="55.195867" lon="8.727009">
|
|
<ele>-24.858746</ele>
|
|
<time>2026-07-10T13:57:41.000Z</time>
|
|
</trkpt>
|
|
<trkpt lat="55.195913" lon="8.727006">
|
|
<ele>-24.847865</ele>
|
|
<time>2026-07-10T13:57:42.000Z</time>
|
|
</trkpt>
|
|
<trkpt lat="55.195960" lon="8.727002">
|
|
<ele>-24.836741</ele>
|
|
<time>2026-07-10T13:57:43.000Z</time>
|
|
</trkpt>
|
|
<trkpt lat="55.196011" lon="8.726998">
|
|
<ele>-24.824673</ele>
|
|
<time>2026-07-10T13:57:44.000Z</time>
|
|
</trkpt>
|
|
<trkpt lat="55.196063" lon="8.726998">
|
|
<ele>-24.812381</ele>
|
|
<time>2026-07-10T13:57:45.000Z</time>
|
|
</trkpt>
|
|
<trkpt lat="55.196114" lon="8.726994">
|
|
<ele>-24.800314</ele>
|
|
<time>2026-07-10T13:57:46.000Z</time>
|
|
</trkpt>
|
|
<trkpt lat="55.196167" lon="8.726988">
|
|
<ele>-24.787759</ele>
|
|
<time>2026-07-10T13:57:47.000Z</time>
|
|
</trkpt>
|
|
<trkpt lat="55.196221" lon="8.726973">
|
|
<ele>-24.774835</ele>
|
|
<time>2026-07-10T13:57:48.000Z</time>
|
|
</trkpt>
|
|
<trkpt lat="55.196272" lon="8.726948">
|
|
<ele>-24.762316</ele>
|
|
<time>2026-07-10T13:57:49.000Z</time>
|
|
</trkpt>
|
|
<trkpt lat="55.196318" lon="8.726920">
|
|
<ele>-24.750805</ele>
|
|
<time>2026-07-10T13:57:50.000Z</time>
|
|
</trkpt>
|
|
<trkpt lat="55.196369" lon="8.726897">
|
|
<ele>-24.738356</ele>
|
|
<time>2026-07-10T13:57:51.000Z</time>
|
|
</trkpt>
|
|
<trkpt lat="55.196422" lon="8.726883">
|
|
<ele>-24.743951</ele>
|
|
<time>2026-07-10T13:57:52.000Z</time>
|
|
</trkpt>
|
|
<trkpt lat="55.196471" lon="8.726878">
|
|
<ele>-24.757596</ele>
|
|
<time>2026-07-10T13:57:53.000Z</time>
|
|
</trkpt>
|
|
<trkpt lat="55.196521" lon="8.726876">
|
|
<ele>-24.771499</ele>
|
|
<time>2026-07-10T13:57:54.000Z</time>
|
|
</trkpt>
|
|
<trkpt lat="55.196571" lon="8.726874">
|
|
<ele>-24.785402</ele>
|
|
<time>2026-07-10T13:57:55.000Z</time>
|
|
</trkpt>
|
|
<trkpt lat="55.196624" lon="8.726871">
|
|
<ele>-24.800143</ele>
|
|
<time>2026-07-10T13:57:56.000Z</time>
|
|
</trkpt>
|
|
<trkpt lat="55.196673" lon="8.726867">
|
|
<ele>-24.813779</ele>
|
|
<time>2026-07-10T13:57:57.000Z</time>
|
|
</trkpt>
|
|
<trkpt lat="55.196724" lon="8.726861">
|
|
<ele>-24.827988</ele>
|
|
<time>2026-07-10T13:57:58.000Z</time>
|
|
</trkpt>
|
|
<trkpt lat="55.196778" lon="8.726854">
|
|
<ele>-24.843041</ele>
|
|
<time>2026-07-10T13:57:59.000Z</time>
|
|
</trkpt>
|
|
<trkpt lat="55.196830" lon="8.726847">
|
|
<ele>-24.857539</ele>
|
|
<time>2026-07-10T13:58:00.000Z</time>
|
|
</trkpt>
|
|
<trkpt lat="55.196879" lon="8.726845">
|
|
<ele>-24.871164</ele>
|
|
<time>2026-07-10T13:58:01.000Z</time>
|
|
</trkpt>
|
|
<trkpt lat="55.196929" lon="8.726845">
|
|
<ele>-24.885063</ele>
|
|
<time>2026-07-10T13:58:02.000Z</time>
|
|
</trkpt>
|
|
<trkpt lat="55.196979" lon="8.726843">
|
|
<ele>-24.898966</ele>
|
|
<time>2026-07-10T13:58:03.000Z</time>
|
|
</trkpt>
|
|
<trkpt lat="55.197029" lon="8.726839">
|
|
<ele>-24.912880</ele>
|
|
<time>2026-07-10T13:58:04.000Z</time>
|
|
</trkpt>
|
|
<trkpt lat="55.197082" lon="8.726835">
|
|
<ele>-24.927627</ele>
|
|
<time>2026-07-10T13:58:05.000Z</time>
|
|
</trkpt>
|
|
<trkpt lat="55.197131" lon="8.726830">
|
|
<ele>-24.941272</ele>
|
|
<time>2026-07-10T13:58:06.000Z</time>
|
|
</trkpt>
|
|
<trkpt lat="55.197180" lon="8.726826">
|
|
<ele>-24.954908</ele>
|
|
<time>2026-07-10T13:58:07.000Z</time>
|
|
</trkpt>
|
|
<trkpt lat="55.197227" lon="8.726823">
|
|
<ele>-24.967982</ele>
|
|
<time>2026-07-10T13:58:08.000Z</time>
|
|
</trkpt>
|
|
<trkpt lat="55.197275" lon="8.726818">
|
|
<ele>-24.981349</ele>
|
|
<time>2026-07-10T13:58:09.000Z</time>
|
|
</trkpt>
|
|
<trkpt lat="55.197322" lon="8.726812">
|
|
<ele>-24.994449</ele>
|
|
<time>2026-07-10T13:58:10.000Z</time>
|
|
</trkpt>
|
|
<trkpt lat="55.197373" lon="8.726809">
|
|
<ele>-25.008634</ele>
|
|
<time>2026-07-10T13:58:11.000Z</time>
|
|
</trkpt>
|
|
<trkpt lat="55.197426" lon="8.726803">
|
|
<ele>-25.023399</ele>
|
|
<time>2026-07-10T13:58:12.000Z</time>
|
|
</trkpt>
|
|
<trkpt lat="55.197479" lon="8.726797">
|
|
<ele>-25.038163</ele>
|
|
<time>2026-07-10T13:58:13.000Z</time>
|
|
</trkpt>
|
|
<trkpt lat="55.197534" lon="8.726792">
|
|
<ele>-25.053473</ele>
|
|
<time>2026-07-10T13:58:14.000Z</time>
|
|
</trkpt>
|
|
<trkpt lat="55.197592" lon="8.726789">
|
|
<ele>-25.069603</ele>
|
|
<time>2026-07-10T13:58:15.000Z</time>
|
|
</trkpt>
|
|
<trkpt lat="55.197647" lon="8.726785">
|
|
<ele>-25.084905</ele>
|
|
<time>2026-07-10T13:58:16.000Z</time>
|
|
</trkpt>
|
|
<trkpt lat="55.197702" lon="8.726781">
|
|
<ele>-25.100208</ele>
|
|
<time>2026-07-10T13:58:17.000Z</time>
|
|
</trkpt>
|
|
<trkpt lat="55.197758" lon="8.726776">
|
|
<ele>-25.115796</ele>
|
|
<time>2026-07-10T13:58:18.000Z</time>
|
|
</trkpt>
|
|
<trkpt lat="55.197811" lon="8.726770">
|
|
<ele>-25.130560</ele>
|
|
<time>2026-07-10T13:58:19.000Z</time>
|
|
</trkpt>
|
|
<trkpt lat="55.197866" lon="8.726766">
|
|
<ele>-25.145862</ele>
|
|
<time>2026-07-10T13:58:20.000Z</time>
|
|
</trkpt>
|
|
<trkpt lat="55.197922" lon="8.726763">
|
|
<ele>-25.161437</ele>
|
|
<time>2026-07-10T13:58:21.000Z</time>
|
|
</trkpt>
|
|
<trkpt lat="55.197976" lon="8.726761">
|
|
<ele>-25.176451</ele>
|
|
<time>2026-07-10T13:58:22.000Z</time>
|
|
</trkpt>
|
|
<trkpt lat="55.198029" lon="8.726759">
|
|
<ele>-25.191188</ele>
|
|
<time>2026-07-10T13:58:23.000Z</time>
|
|
</trkpt>
|
|
<trkpt lat="55.198084" lon="8.726755">
|
|
<ele>-25.206491</ele>
|
|
<time>2026-07-10T13:58:24.000Z</time>
|
|
</trkpt>
|
|
<trkpt lat="55.198140" lon="8.726746">
|
|
<ele>-25.222123</ele>
|
|
<time>2026-07-10T13:58:25.000Z</time>
|
|
</trkpt>
|
|
<trkpt lat="55.198193" lon="8.726741">
|
|
<ele>-25.238546</ele>
|
|
<time>2026-07-10T13:58:26.000Z</time>
|
|
</trkpt>
|
|
<trkpt lat="55.198247" lon="8.726738">
|
|
<ele>-25.262524</ele>
|
|
<time>2026-07-10T13:58:27.000Z</time>
|
|
</trkpt>
|
|
<trkpt lat="55.198305" lon="8.726736">
|
|
<ele>-25.288270</ele>
|
|
<time>2026-07-10T13:58:28.000Z</time>
|
|
</trkpt>
|
|
<trkpt lat="55.198362" lon="8.726731">
|
|
<ele>-25.313599</ele>
|
|
<time>2026-07-10T13:58:29.000Z</time>
|
|
</trkpt>
|
|
<trkpt lat="55.198419" lon="8.726723">
|
|
<ele>-25.338977</ele>
|
|
<time>2026-07-10T13:58:30.000Z</time>
|
|
</trkpt>
|
|
<trkpt lat="55.198477" lon="8.726717">
|
|
<ele>-25.364762</ele>
|
|
<time>2026-07-10T13:58:31.000Z</time>
|
|
</trkpt>
|
|
<trkpt lat="55.198539" lon="8.726711">
|
|
<ele>-25.392320</ele>
|
|
<time>2026-07-10T13:58:32.000Z</time>
|
|
</trkpt>
|
|
<trkpt lat="55.198603" lon="8.726706">
|
|
<ele>-25.420752</ele>
|
|
<time>2026-07-10T13:58:33.000Z</time>
|
|
</trkpt>
|
|
<trkpt lat="55.198664" lon="8.726703">
|
|
<ele>-25.447835</ele>
|
|
<time>2026-07-10T13:58:34.000Z</time>
|
|
</trkpt>
|
|
<trkpt lat="55.198726" lon="8.726698">
|
|
<ele>-25.475381</ele>
|
|
<time>2026-07-10T13:58:35.000Z</time>
|
|
</trkpt>
|
|
<trkpt lat="55.198786" lon="8.726693">
|
|
<ele>-25.502039</ele>
|
|
<time>2026-07-10T13:58:36.000Z</time>
|
|
</trkpt>
|
|
<trkpt lat="55.198847" lon="8.726687">
|
|
<ele>-25.529154</ele>
|
|
<time>2026-07-10T13:58:37.000Z</time>
|
|
</trkpt>
|
|
<trkpt lat="55.198908" lon="8.726683">
|
|
<ele>-25.556245</ele>
|
|
<time>2026-07-10T13:58:38.000Z</time>
|
|
</trkpt>
|
|
<trkpt lat="55.198971" lon="8.726679">
|
|
<ele>-25.584224</ele>
|
|
<time>2026-07-10T13:58:39.000Z</time>
|
|
</trkpt>
|
|
<trkpt lat="55.199033" lon="8.726677">
|
|
<ele>-25.611744</ele>
|
|
<time>2026-07-10T13:58:40.000Z</time>
|
|
</trkpt>
|
|
<trkpt lat="55.199090" lon="8.726673">
|
|
<ele>-25.637062</ele>
|
|
<time>2026-07-10T13:58:41.000Z</time>
|
|
</trkpt>
|
|
<trkpt lat="55.199147" lon="8.726666">
|
|
<ele>-25.662421</ele>
|
|
<time>2026-07-10T13:58:42.000Z</time>
|
|
</trkpt>
|
|
<trkpt lat="55.199205" lon="8.726660">
|
|
<ele>-25.688207</ele>
|
|
<time>2026-07-10T13:58:43.000Z</time>
|
|
</trkpt>
|
|
<trkpt lat="55.199263" lon="8.726655">
|
|
<ele>-25.713979</ele>
|
|
<time>2026-07-10T13:58:44.000Z</time>
|
|
</trkpt>
|
|
<trkpt lat="55.199322" lon="8.726650">
|
|
<ele>-25.740194</ele>
|
|
<time>2026-07-10T13:58:45.000Z</time>
|
|
</trkpt>
|
|
<trkpt lat="55.199380" lon="8.726645">
|
|
<ele>-25.765966</ele>
|
|
<time>2026-07-10T13:58:46.000Z</time>
|
|
</trkpt>
|
|
<trkpt lat="55.199441" lon="8.726639">
|
|
<ele>-25.793081</ele>
|
|
<time>2026-07-10T13:58:47.000Z</time>
|
|
</trkpt>
|
|
<trkpt lat="55.199500" lon="8.726636">
|
|
<ele>-25.819276</ele>
|
|
<time>2026-07-10T13:58:48.000Z</time>
|
|
</trkpt>
|
|
<trkpt lat="55.199561" lon="8.726634">
|
|
<ele>-25.846353</ele>
|
|
<time>2026-07-10T13:58:49.000Z</time>
|
|
</trkpt>
|
|
<trkpt lat="55.199622" lon="8.726630">
|
|
<ele>-25.873445</ele>
|
|
<time>2026-07-10T13:58:50.000Z</time>
|
|
</trkpt>
|
|
<trkpt lat="55.199683" lon="8.726625">
|
|
<ele>-25.900547</ele>
|
|
<time>2026-07-10T13:58:51.000Z</time>
|
|
</trkpt>
|
|
<trkpt lat="55.199743" lon="8.726620">
|
|
<ele>-25.927205</ele>
|
|
<time>2026-07-10T13:58:52.000Z</time>
|
|
</trkpt>
|
|
<trkpt lat="55.199801" lon="8.726615">
|
|
<ele>-25.952977</ele>
|
|
<time>2026-07-10T13:58:53.000Z</time>
|
|
</trkpt>
|
|
<trkpt lat="55.199861" lon="8.726608">
|
|
<ele>-25.979665</ele>
|
|
<time>2026-07-10T13:58:54.000Z</time>
|
|
</trkpt>
|
|
<trkpt lat="55.199919" lon="8.726602">
|
|
<ele>-26.005450</ele>
|
|
<time>2026-07-10T13:58:55.000Z</time>
|
|
</trkpt>
|
|
<trkpt lat="55.199979" lon="8.726596">
|
|
<ele>-26.032122</ele>
|
|
<time>2026-07-10T13:58:56.000Z</time>
|
|
</trkpt>
|
|
<trkpt lat="55.200037" lon="8.726592">
|
|
<ele>-26.067307</ele>
|
|
<time>2026-07-10T13:58:57.000Z</time>
|
|
</trkpt>
|
|
<trkpt lat="55.200095" lon="8.726588">
|
|
<ele>-26.102570</ele>
|
|
<time>2026-07-10T13:58:58.000Z</time>
|
|
</trkpt>
|
|
<trkpt lat="55.200156" lon="8.726585">
|
|
<ele>-26.139643</ele>
|
|
<time>2026-07-10T13:58:59.000Z</time>
|
|
</trkpt>
|
|
<trkpt lat="55.200217" lon="8.726582">
|
|
<ele>-26.176715</ele>
|
|
<time>2026-07-10T13:59:00.000Z</time>
|
|
</trkpt>
|
|
<trkpt lat="55.200277" lon="8.726577">
|
|
<ele>-26.213207</ele>
|
|
<time>2026-07-10T13:59:01.000Z</time>
|
|
</trkpt>
|
|
<trkpt lat="55.200335" lon="8.726570">
|
|
<ele>-26.248527</ele>
|
|
<time>2026-07-10T13:59:02.000Z</time>
|
|
</trkpt>
|
|
<trkpt lat="55.200396" lon="8.726565">
|
|
<ele>-26.285625</ele>
|
|
<time>2026-07-10T13:59:03.000Z</time>
|
|
</trkpt>
|
|
<trkpt lat="55.200457" lon="8.726561">
|
|
<ele>-26.322709</ele>
|
|
<time>2026-07-10T13:59:04.000Z</time>
|
|
</trkpt>
|
|
<trkpt lat="55.200518" lon="8.726557">
|
|
<ele>-26.359794</ele>
|
|
<time>2026-07-10T13:59:05.000Z</time>
|
|
</trkpt>
|
|
<trkpt lat="55.200579" lon="8.726552">
|
|
<ele>-26.396892</ele>
|
|
<time>2026-07-10T13:59:06.000Z</time>
|
|
</trkpt>
|
|
<trkpt lat="55.200641" lon="8.726549">
|
|
<ele>-26.434572</ele>
|
|
<time>2026-07-10T13:59:07.000Z</time>
|
|
</trkpt>
|
|
<trkpt lat="55.200705" lon="8.726545">
|
|
<ele>-26.473478</ele>
|
|
<time>2026-07-10T13:59:08.000Z</time>
|
|
</trkpt>
|
|
<trkpt lat="55.200766" lon="8.726541">
|
|
<ele>-26.510562</ele>
|
|
<time>2026-07-10T13:59:09.000Z</time>
|
|
</trkpt>
|
|
<trkpt lat="55.200827" lon="8.726538">
|
|
<ele>-26.547635</ele>
|
|
<time>2026-07-10T13:59:10.000Z</time>
|
|
</trkpt>
|
|
<trkpt lat="55.200888" lon="8.726536">
|
|
<ele>-26.584699</ele>
|
|
<time>2026-07-10T13:59:11.000Z</time>
|
|
</trkpt>
|
|
<trkpt lat="55.200950" lon="8.726532">
|
|
<ele>-26.622391</ele>
|
|
<time>2026-07-10T13:59:12.000Z</time>
|
|
</trkpt>
|
|
<trkpt lat="55.201014" lon="8.726527">
|
|
<ele>-26.661310</ele>
|
|
<time>2026-07-10T13:59:13.000Z</time>
|
|
</trkpt>
|
|
<trkpt lat="55.201075" lon="8.726522">
|
|
<ele>-26.698409</ele>
|
|
<time>2026-07-10T13:59:14.000Z</time>
|
|
</trkpt>
|
|
<trkpt lat="55.201137" lon="8.726519">
|
|
<ele>-26.736089</ele>
|
|
<time>2026-07-10T13:59:15.000Z</time>
|
|
</trkpt>
|
|
<trkpt lat="55.201201" lon="8.726515">
|
|
<ele>-26.774994</ele>
|
|
<time>2026-07-10T13:59:16.000Z</time>
|
|
</trkpt>
|
|
<trkpt lat="55.201261" lon="8.726509">
|
|
<ele>-26.811504</ele>
|
|
<time>2026-07-10T13:59:17.000Z</time>
|
|
</trkpt>
|
|
<trkpt lat="55.201323" lon="8.726505">
|
|
<ele>-26.849195</ele>
|
|
<time>2026-07-10T13:59:18.000Z</time>
|
|
</trkpt>
|
|
<trkpt lat="55.201383" lon="8.726501">
|
|
<ele>-26.885672</ele>
|
|
<time>2026-07-10T13:59:19.000Z</time>
|
|
</trkpt>
|
|
<trkpt lat="55.201441" lon="8.726497">
|
|
<ele>-26.920935</ele>
|
|
<time>2026-07-10T13:59:20.000Z</time>
|
|
</trkpt>
|
|
<trkpt lat="55.201502" lon="8.726492">
|
|
<ele>-26.958034</ele>
|
|
<time>2026-07-10T13:59:21.000Z</time>
|
|
</trkpt>
|
|
<trkpt lat="55.201560" lon="8.726489">
|
|
<ele>-26.993285</ele>
|
|
<time>2026-07-10T13:59:22.000Z</time>
|
|
</trkpt>
|
|
<trkpt lat="55.201621" lon="8.726485">
|
|
<ele>-27.030369</ele>
|
|
<time>2026-07-10T13:59:23.000Z</time>
|
|
</trkpt>
|
|
<trkpt lat="55.201682" lon="8.726481">
|
|
<ele>-27.067453</ele>
|
|
<time>2026-07-10T13:59:24.000Z</time>
|
|
</trkpt>
|
|
<trkpt lat="55.201742" lon="8.726477">
|
|
<ele>-27.103930</ele>
|
|
<time>2026-07-10T13:59:25.000Z</time>
|
|
</trkpt>
|
|
<trkpt lat="55.201800" lon="8.726473">
|
|
<ele>-27.130420</ele>
|
|
<time>2026-07-10T13:59:26.000Z</time>
|
|
</trkpt>
|
|
<trkpt lat="55.201861" lon="8.726469">
|
|
<ele>-27.144533</ele>
|
|
<time>2026-07-10T13:59:27.000Z</time>
|
|
</trkpt>
|
|
<trkpt lat="55.201922" lon="8.726464">
|
|
<ele>-27.158652</ele>
|
|
<time>2026-07-10T13:59:28.000Z</time>
|
|
</trkpt>
|
|
<trkpt lat="55.201983" lon="8.726459">
|
|
<ele>-27.172770</ele>
|
|
<time>2026-07-10T13:59:29.000Z</time>
|
|
</trkpt>
|
|
<trkpt lat="55.202044" lon="8.726456">
|
|
<ele>-27.186879</ele>
|
|
<time>2026-07-10T13:59:30.000Z</time>
|
|
</trkpt>
|
|
<trkpt lat="55.202105" lon="8.726452">
|
|
<ele>-27.200992</ele>
|
|
<time>2026-07-10T13:59:31.000Z</time>
|
|
</trkpt>
|
|
<trkpt lat="55.202167" lon="8.726446">
|
|
<ele>-27.215348</ele>
|
|
<time>2026-07-10T13:59:32.000Z</time>
|
|
</trkpt>
|
|
<trkpt lat="55.202231" lon="8.726439">
|
|
<ele>-27.230174</ele>
|
|
<time>2026-07-10T13:59:33.000Z</time>
|
|
</trkpt>
|
|
<trkpt lat="55.202292" lon="8.726432">
|
|
<ele>-27.244307</ele>
|
|
<time>2026-07-10T13:59:34.000Z</time>
|
|
</trkpt>
|
|
<trkpt lat="55.202354" lon="8.726425">
|
|
<ele>-27.258671</ele>
|
|
<time>2026-07-10T13:59:35.000Z</time>
|
|
</trkpt>
|
|
<trkpt lat="55.202417" lon="8.726421">
|
|
<ele>-27.273246</ele>
|
|
<time>2026-07-10T13:59:36.000Z</time>
|
|
</trkpt>
|
|
<trkpt lat="55.202479" lon="8.726417">
|
|
<ele>-27.287590</ele>
|
|
<time>2026-07-10T13:59:37.000Z</time>
|
|
</trkpt>
|
|
<trkpt lat="55.202541" lon="8.726413">
|
|
<ele>-27.301934</ele>
|
|
<time>2026-07-10T13:59:38.000Z</time>
|
|
</trkpt>
|
|
<trkpt lat="55.202604" lon="8.726406">
|
|
<ele>-27.316529</ele>
|
|
<time>2026-07-10T13:59:39.000Z</time>
|
|
</trkpt>
|
|
<trkpt lat="55.202667" lon="8.726400">
|
|
<ele>-27.331116</ele>
|
|
<time>2026-07-10T13:59:40.000Z</time>
|
|
</trkpt>
|
|
<trkpt lat="55.202730" lon="8.726396">
|
|
<ele>-27.345691</ele>
|
|
<time>2026-07-10T13:59:41.000Z</time>
|
|
</trkpt>
|
|
<trkpt lat="55.202791" lon="8.726394">
|
|
<ele>-27.359797</ele>
|
|
<time>2026-07-10T13:59:42.000Z</time>
|
|
</trkpt>
|
|
<trkpt lat="55.202854" lon="8.726390">
|
|
<ele>-27.374372</ele>
|
|
<time>2026-07-10T13:59:43.000Z</time>
|
|
</trkpt>
|
|
<trkpt lat="55.202918" lon="8.726384">
|
|
<ele>-27.389190</ele>
|
|
<time>2026-07-10T13:59:44.000Z</time>
|
|
</trkpt>
|
|
<trkpt lat="55.202978" lon="8.726379">
|
|
<ele>-27.403078</ele>
|
|
<time>2026-07-10T13:59:45.000Z</time>
|
|
</trkpt>
|
|
<trkpt lat="55.203041" lon="8.726376">
|
|
<ele>-27.417649</ele>
|
|
<time>2026-07-10T13:59:46.000Z</time>
|
|
</trkpt>
|
|
<trkpt lat="55.203104" lon="8.726372">
|
|
<ele>-27.432224</ele>
|
|
<time>2026-07-10T13:59:47.000Z</time>
|
|
</trkpt>
|
|
<trkpt lat="55.203166" lon="8.726366">
|
|
<ele>-27.446580</ele>
|
|
<time>2026-07-10T13:59:48.000Z</time>
|
|
</trkpt>
|
|
<trkpt lat="55.203227" lon="8.726360">
|
|
<ele>-27.460705</ele>
|
|
<time>2026-07-10T13:59:49.000Z</time>
|
|
</trkpt>
|
|
<trkpt lat="55.203289" lon="8.726356">
|
|
<ele>-27.475049</ele>
|
|
<time>2026-07-10T13:59:50.000Z</time>
|
|
</trkpt>
|
|
<trkpt lat="55.203353" lon="8.726353">
|
|
<ele>-27.489851</ele>
|
|
<time>2026-07-10T13:59:51.000Z</time>
|
|
</trkpt>
|
|
<trkpt lat="55.203413" lon="8.726348">
|
|
<ele>-27.503739</ele>
|
|
<time>2026-07-10T13:59:52.000Z</time>
|
|
</trkpt>
|
|
<trkpt lat="55.203475" lon="8.726341">
|
|
<ele>-27.518103</ele>
|
|
<time>2026-07-10T13:59:53.000Z</time>
|
|
</trkpt>
|
|
<trkpt lat="55.203536" lon="8.726333">
|
|
<ele>-27.532246</ele>
|
|
<time>2026-07-10T13:59:54.000Z</time>
|
|
</trkpt>
|
|
<trkpt lat="55.203597" lon="8.726329">
|
|
<ele>-27.538646</ele>
|
|
<time>2026-07-10T13:59:55.000Z</time>
|
|
</trkpt>
|
|
<trkpt lat="55.203657" lon="8.726326">
|
|
<ele>-27.533004</ele>
|
|
<time>2026-07-10T13:59:56.000Z</time>
|
|
</trkpt>
|
|
<trkpt lat="55.203717" lon="8.726322">
|
|
<ele>-27.527361</ele>
|
|
<time>2026-07-10T13:59:57.000Z</time>
|
|
</trkpt>
|
|
<trkpt lat="55.203776" lon="8.726317">
|
|
<ele>-27.521809</ele>
|
|
<time>2026-07-10T13:59:58.000Z</time>
|
|
</trkpt>
|
|
<trkpt lat="55.203836" lon="8.726312">
|
|
<ele>-27.516164</ele>
|
|
<time>2026-07-10T13:59:59.000Z</time>
|
|
</trkpt>
|
|
<trkpt lat="55.203893" lon="8.726307">
|
|
<ele>-27.510800</ele>
|
|
<time>2026-07-10T14:00:00.000Z</time>
|
|
</trkpt>
|
|
<trkpt lat="55.203951" lon="8.726302">
|
|
<ele>-27.505342</ele>
|
|
<time>2026-07-10T14:00:01.000Z</time>
|
|
</trkpt>
|
|
<trkpt lat="55.204011" lon="8.726297">
|
|
<ele>-27.499696</ele>
|
|
<time>2026-07-10T14:00:02.000Z</time>
|
|
</trkpt>
|
|
<trkpt lat="55.204070" lon="8.726292">
|
|
<ele>-27.494145</ele>
|
|
<time>2026-07-10T14:00:03.000Z</time>
|
|
</trkpt>
|
|
<trkpt lat="55.204131" lon="8.726287">
|
|
<ele>-27.488405</ele>
|
|
<time>2026-07-10T14:00:04.000Z</time>
|
|
</trkpt>
|
|
<trkpt lat="55.204192" lon="8.726282">
|
|
<ele>-27.482666</ele>
|
|
<time>2026-07-10T14:00:05.000Z</time>
|
|
</trkpt>
|
|
<trkpt lat="55.204251" lon="8.726279">
|
|
<ele>-27.477118</ele>
|
|
<time>2026-07-10T14:00:06.000Z</time>
|
|
</trkpt>
|
|
<trkpt lat="55.204309" lon="8.726273">
|
|
<ele>-27.471658</ele>
|
|
<time>2026-07-10T14:00:07.000Z</time>
|
|
</trkpt>
|
|
<trkpt lat="55.204366" lon="8.726268">
|
|
<ele>-27.466294</ele>
|
|
<time>2026-07-10T14:00:08.000Z</time>
|
|
</trkpt>
|
|
<trkpt lat="55.204424" lon="8.726264">
|
|
<ele>-27.460838</ele>
|
|
<time>2026-07-10T14:00:09.000Z</time>
|
|
</trkpt>
|
|
<trkpt lat="55.204484" lon="8.726259">
|
|
<ele>-27.455193</ele>
|
|
<time>2026-07-10T14:00:10.000Z</time>
|
|
</trkpt>
|
|
<trkpt lat="55.204543" lon="8.726256">
|
|
<ele>-27.449645</ele>
|
|
<time>2026-07-10T14:00:11.000Z</time>
|
|
</trkpt>
|
|
<trkpt lat="55.204602" lon="8.726252">
|
|
<ele>-27.444096</ele>
|
|
<time>2026-07-10T14:00:12.000Z</time>
|
|
</trkpt>
|
|
<trkpt lat="55.204661" lon="8.726248">
|
|
<ele>-27.438546</ele>
|
|
<time>2026-07-10T14:00:13.000Z</time>
|
|
</trkpt>
|
|
<trkpt lat="55.204722" lon="8.726244">
|
|
<ele>-27.432809</ele>
|
|
<time>2026-07-10T14:00:14.000Z</time>
|
|
</trkpt>
|
|
<trkpt lat="55.204783" lon="8.726239">
|
|
<ele>-27.427070</ele>
|
|
<time>2026-07-10T14:00:15.000Z</time>
|
|
</trkpt>
|
|
<trkpt lat="55.204843" lon="8.726235">
|
|
<ele>-27.421426</ele>
|
|
<time>2026-07-10T14:00:16.000Z</time>
|
|
</trkpt>
|
|
<trkpt lat="55.204900" lon="8.726231">
|
|
<ele>-27.416065</ele>
|
|
<time>2026-07-10T14:00:17.000Z</time>
|
|
</trkpt>
|
|
<trkpt lat="55.204957" lon="8.726228">
|
|
<ele>-27.410705</ele>
|
|
<time>2026-07-10T14:00:18.000Z</time>
|
|
</trkpt>
|
|
<trkpt lat="55.205014" lon="8.726224">
|
|
<ele>-27.405344</ele>
|
|
<time>2026-07-10T14:00:19.000Z</time>
|
|
</trkpt>
|
|
<trkpt lat="55.205068" lon="8.726223">
|
|
<ele>-27.400268</ele>
|
|
<time>2026-07-10T14:00:20.000Z</time>
|
|
</trkpt>
|
|
<trkpt lat="55.205124" lon="8.726220">
|
|
<ele>-27.395003</ele>
|
|
<time>2026-07-10T14:00:21.000Z</time>
|
|
</trkpt>
|
|
<trkpt lat="55.205179" lon="8.726215">
|
|
<ele>-27.389826</ele>
|
|
<time>2026-07-10T14:00:22.000Z</time>
|
|
</trkpt>
|
|
<trkpt lat="55.205235" lon="8.726210">
|
|
<ele>-27.384556</ele>
|
|
<time>2026-07-10T14:00:23.000Z</time>
|
|
</trkpt>
|
|
<trkpt lat="55.205289" lon="8.726204">
|
|
<ele>-27.379471</ele>
|
|
<time>2026-07-10T14:00:24.000Z</time>
|
|
</trkpt>
|
|
<trkpt lat="55.205345" lon="8.726199">
|
|
<ele>-27.374201</ele>
|
|
<time>2026-07-10T14:00:25.000Z</time>
|
|
</trkpt>
|
|
<trkpt lat="55.205399" lon="8.726195">
|
|
<ele>-27.359381</ele>
|
|
<time>2026-07-10T14:00:26.000Z</time>
|
|
</trkpt>
|
|
<trkpt lat="55.205452" lon="8.726192">
|
|
<ele>-27.336458</ele>
|
|
<time>2026-07-10T14:00:27.000Z</time>
|
|
</trkpt>
|
|
<trkpt lat="55.205507" lon="8.726188">
|
|
<ele>-27.312662</ele>
|
|
<time>2026-07-10T14:00:28.000Z</time>
|
|
</trkpt>
|
|
<trkpt lat="55.205563" lon="8.726184">
|
|
<ele>-27.288434</ele>
|
|
<time>2026-07-10T14:00:29.000Z</time>
|
|
</trkpt>
|
|
<trkpt lat="55.205618" lon="8.726180">
|
|
<ele>-27.264638</ele>
|
|
<time>2026-07-10T14:00:30.000Z</time>
|
|
</trkpt>
|
|
<trkpt lat="55.205673" lon="8.726175">
|
|
<ele>-27.240830</ele>
|
|
<time>2026-07-10T14:00:31.000Z</time>
|
|
</trkpt>
|
|
<trkpt lat="55.205727" lon="8.726171">
|
|
<ele>-27.217465</ele>
|
|
<time>2026-07-10T14:00:32.000Z</time>
|
|
</trkpt>
|
|
<trkpt lat="55.205780" lon="8.726169">
|
|
<ele>-27.194549</ele>
|
|
<time>2026-07-10T14:00:33.000Z</time>
|
|
</trkpt>
|
|
<trkpt lat="55.205833" lon="8.726166">
|
|
<ele>-27.171626</ele>
|
|
<time>2026-07-10T14:00:34.000Z</time>
|
|
</trkpt>
|
|
<trkpt lat="55.205887" lon="8.726162">
|
|
<ele>-27.148261</ele>
|
|
<time>2026-07-10T14:00:35.000Z</time>
|
|
</trkpt>
|
|
<trkpt lat="55.205942" lon="8.726159">
|
|
<ele>-27.124474</ele>
|
|
<time>2026-07-10T14:00:36.000Z</time>
|
|
</trkpt>
|
|
<trkpt lat="55.205997" lon="8.726154">
|
|
<ele>-27.100666</ele>
|
|
<time>2026-07-10T14:00:37.000Z</time>
|
|
</trkpt>
|
|
<trkpt lat="55.206047" lon="8.726151">
|
|
<ele>-27.079039</ele>
|
|
<time>2026-07-10T14:00:38.000Z</time>
|
|
</trkpt>
|
|
<trkpt lat="55.206099" lon="8.726147">
|
|
<ele>-27.056539</ele>
|
|
<time>2026-07-10T14:00:39.000Z</time>
|
|
</trkpt>
|
|
<trkpt lat="55.206150" lon="8.726141">
|
|
<ele>-27.034443</ele>
|
|
<time>2026-07-10T14:00:40.000Z</time>
|
|
</trkpt>
|
|
<trkpt lat="55.206204" lon="8.726137">
|
|
<ele>-27.011078</ele>
|
|
<time>2026-07-10T14:00:41.000Z</time>
|
|
</trkpt>
|
|
<trkpt lat="55.206257" lon="8.726132">
|
|
<ele>-26.988134</ele>
|
|
<time>2026-07-10T14:00:42.000Z</time>
|
|
</trkpt>
|
|
<trkpt lat="55.206310" lon="8.726128">
|
|
<ele>-26.965201</ele>
|
|
<time>2026-07-10T14:00:43.000Z</time>
|
|
</trkpt>
|
|
<trkpt lat="55.206364" lon="8.726123">
|
|
<ele>-26.941825</ele>
|
|
<time>2026-07-10T14:00:44.000Z</time>
|
|
</trkpt>
|
|
<trkpt lat="55.206418" lon="8.726119">
|
|
<ele>-26.918461</ele>
|
|
<time>2026-07-10T14:00:45.000Z</time>
|
|
</trkpt>
|
|
<trkpt lat="55.206469" lon="8.726116">
|
|
<ele>-26.896402</ele>
|
|
<time>2026-07-10T14:00:46.000Z</time>
|
|
</trkpt>
|
|
<trkpt lat="55.206520" lon="8.726112">
|
|
<ele>-26.874333</ele>
|
|
<time>2026-07-10T14:00:47.000Z</time>
|
|
</trkpt>
|
|
<trkpt lat="55.206575" lon="8.726109">
|
|
<ele>-26.850546</ele>
|
|
<time>2026-07-10T14:00:48.000Z</time>
|
|
</trkpt>
|
|
<trkpt lat="55.206631" lon="8.726106">
|
|
<ele>-26.826327</ele>
|
|
<time>2026-07-10T14:00:49.000Z</time>
|
|
</trkpt>
|
|
<trkpt lat="55.206684" lon="8.726102">
|
|
<ele>-26.803394</ele>
|
|
<time>2026-07-10T14:00:50.000Z</time>
|
|
</trkpt>
|
|
<trkpt lat="55.206738" lon="8.726097">
|
|
<ele>-26.780018</ele>
|
|
<time>2026-07-10T14:00:51.000Z</time>
|
|
</trkpt>
|
|
<trkpt lat="55.206791" lon="8.726092">
|
|
<ele>-26.757074</ele>
|
|
<time>2026-07-10T14:00:52.000Z</time>
|
|
</trkpt>
|
|
<trkpt lat="55.206845" lon="8.726090">
|
|
<ele>-26.733725</ele>
|
|
<time>2026-07-10T14:00:53.000Z</time>
|
|
</trkpt>
|
|
<trkpt lat="55.206902" lon="8.726087">
|
|
<ele>-26.709074</ele>
|
|
<time>2026-07-10T14:00:54.000Z</time>
|
|
</trkpt>
|
|
<trkpt lat="55.206955" lon="8.726082">
|
|
<ele>-26.686129</ele>
|
|
<time>2026-07-10T14:00:55.000Z</time>
|
|
</trkpt>
|
|
<trkpt lat="55.207008" lon="8.726077">
|
|
<ele>-26.663185</ele>
|
|
<time>2026-07-10T14:00:56.000Z</time>
|
|
</trkpt>
|
|
<trkpt lat="55.207063" lon="8.726072">
|
|
<ele>-26.639377</ele>
|
|
<time>2026-07-10T14:00:57.000Z</time>
|
|
</trkpt>
|
|
<trkpt lat="55.207119" lon="8.726069">
|
|
<ele>-26.615158</ele>
|
|
<time>2026-07-10T14:00:58.000Z</time>
|
|
</trkpt>
|
|
<trkpt lat="55.207173" lon="8.726063">
|
|
<ele>-26.594777</ele>
|
|
<time>2026-07-10T14:00:59.000Z</time>
|
|
</trkpt>
|
|
<trkpt lat="55.207226" lon="8.726058">
|
|
<ele>-26.599134</ele>
|
|
<time>2026-07-10T14:01:00.000Z</time>
|
|
</trkpt>
|
|
<trkpt lat="55.207281" lon="8.726052">
|
|
<ele>-26.603657</ele>
|
|
<time>2026-07-10T14:01:01.000Z</time>
|
|
</trkpt>
|
|
<trkpt lat="55.207337" lon="8.726048">
|
|
<ele>-26.608257</ele>
|
|
<time>2026-07-10T14:01:02.000Z</time>
|
|
</trkpt>
|
|
<trkpt lat="55.207391" lon="8.726046">
|
|
<ele>-26.612691</ele>
|
|
<time>2026-07-10T14:01:03.000Z</time>
|
|
</trkpt>
|
|
<trkpt lat="55.207447" lon="8.726042">
|
|
<ele>-26.617291</ele>
|
|
<time>2026-07-10T14:01:04.000Z</time>
|
|
</trkpt>
|
|
<trkpt lat="55.207501" lon="8.726037">
|
|
<ele>-26.621730</ele>
|
|
<time>2026-07-10T14:01:05.000Z</time>
|
|
</trkpt>
|
|
<trkpt lat="55.207555" lon="8.726032">
|
|
<ele>-26.626168</ele>
|
|
<time>2026-07-10T14:01:06.000Z</time>
|
|
</trkpt>
|
|
<trkpt lat="55.207612" lon="8.726030">
|
|
<ele>-26.630848</ele>
|
|
<time>2026-07-10T14:01:07.000Z</time>
|
|
</trkpt>
|
|
<trkpt lat="55.207669" lon="8.726027">
|
|
<ele>-26.635529</ele>
|
|
<time>2026-07-10T14:01:08.000Z</time>
|
|
</trkpt>
|
|
<trkpt lat="55.207723" lon="8.726024">
|
|
<ele>-26.639963</ele>
|
|
<time>2026-07-10T14:01:09.000Z</time>
|
|
</trkpt>
|
|
<trkpt lat="55.207779" lon="8.726021">
|
|
<ele>-26.644562</ele>
|
|
<time>2026-07-10T14:01:10.000Z</time>
|
|
</trkpt>
|
|
<trkpt lat="55.207832" lon="8.726017">
|
|
<ele>-26.648916</ele>
|
|
<time>2026-07-10T14:01:11.000Z</time>
|
|
</trkpt>
|
|
<trkpt lat="55.207887" lon="8.726012">
|
|
<ele>-26.653437</ele>
|
|
<time>2026-07-10T14:01:12.000Z</time>
|
|
</trkpt>
|
|
<trkpt lat="55.207943" lon="8.726009">
|
|
<ele>-26.658036</ele>
|
|
<time>2026-07-10T14:01:13.000Z</time>
|
|
</trkpt>
|
|
<trkpt lat="55.207997" lon="8.726006">
|
|
<ele>-26.662470</ele>
|
|
<time>2026-07-10T14:01:14.000Z</time>
|
|
</trkpt>
|
|
<trkpt lat="55.208050" lon="8.726003">
|
|
<ele>-26.666823</ele>
|
|
<time>2026-07-10T14:01:15.000Z</time>
|
|
</trkpt>
|
|
<trkpt lat="55.208104" lon="8.725998">
|
|
<ele>-26.671261</ele>
|
|
<time>2026-07-10T14:01:16.000Z</time>
|
|
</trkpt>
|
|
<trkpt lat="55.208158" lon="8.725993">
|
|
<ele>-26.675700</ele>
|
|
<time>2026-07-10T14:01:17.000Z</time>
|
|
</trkpt>
|
|
<trkpt lat="55.208212" lon="8.725987">
|
|
<ele>-26.680141</ele>
|
|
<time>2026-07-10T14:01:18.000Z</time>
|
|
</trkpt>
|
|
<trkpt lat="55.208265" lon="8.725982">
|
|
<ele>-26.684498</ele>
|
|
<time>2026-07-10T14:01:19.000Z</time>
|
|
</trkpt>
|
|
<trkpt lat="55.208321" lon="8.725979">
|
|
<ele>-26.689097</ele>
|
|
<time>2026-07-10T14:01:20.000Z</time>
|
|
</trkpt>
|
|
<trkpt lat="55.208374" lon="8.725975">
|
|
<ele>-26.693451</ele>
|
|
<time>2026-07-10T14:01:21.000Z</time>
|
|
</trkpt>
|
|
<trkpt lat="55.208428" lon="8.725970">
|
|
<ele>-26.697890</ele>
|
|
<time>2026-07-10T14:01:22.000Z</time>
|
|
</trkpt>
|
|
<trkpt lat="55.208481" lon="8.725965">
|
|
<ele>-26.702246</ele>
|
|
<time>2026-07-10T14:01:23.000Z</time>
|
|
</trkpt>
|
|
<trkpt lat="55.208535" lon="8.725961">
|
|
<ele>-26.706682</ele>
|
|
<time>2026-07-10T14:01:24.000Z</time>
|
|
</trkpt>
|
|
<trkpt lat="55.208588" lon="8.725957">
|
|
<ele>-26.711037</ele>
|
|
<time>2026-07-10T14:01:25.000Z</time>
|
|
</trkpt>
|
|
<trkpt lat="55.208641" lon="8.725954">
|
|
<ele>-26.715389</ele>
|
|
<time>2026-07-10T14:01:26.000Z</time>
|
|
</trkpt>
|
|
<trkpt lat="55.208695" lon="8.725950">
|
|
<ele>-26.719826</ele>
|
|
<time>2026-07-10T14:01:27.000Z</time>
|
|
</trkpt>
|
|
<trkpt lat="55.208748" lon="8.725945">
|
|
<ele>-26.724182</ele>
|
|
<time>2026-07-10T14:01:28.000Z</time>
|
|
</trkpt>
|
|
<trkpt lat="55.208801" lon="8.725941">
|
|
<ele>-26.728537</ele>
|
|
<time>2026-07-10T14:01:29.000Z</time>
|
|
</trkpt>
|
|
<trkpt lat="55.208854" lon="8.725938">
|
|
<ele>-26.732889</ele>
|
|
<time>2026-07-10T14:01:30.000Z</time>
|
|
</trkpt>
|
|
<trkpt lat="55.208907" lon="8.725936">
|
|
<ele>-26.737241</ele>
|
|
<time>2026-07-10T14:01:31.000Z</time>
|
|
</trkpt>
|
|
<trkpt lat="55.208958" lon="8.725932">
|
|
<ele>-26.741431</ele>
|
|
<time>2026-07-10T14:01:32.000Z</time>
|
|
</trkpt>
|
|
<trkpt lat="55.209011" lon="8.725929">
|
|
<ele>-26.747543</ele>
|
|
<time>2026-07-10T14:01:33.000Z</time>
|
|
</trkpt>
|
|
<trkpt lat="55.209065" lon="8.725926">
|
|
<ele>-26.754004</ele>
|
|
<time>2026-07-10T14:01:34.000Z</time>
|
|
</trkpt>
|
|
<trkpt lat="55.209122" lon="8.725922">
|
|
<ele>-26.760826</ele>
|
|
<time>2026-07-10T14:01:35.000Z</time>
|
|
</trkpt>
|
|
<trkpt lat="55.209174" lon="8.725917">
|
|
<ele>-26.767053</ele>
|
|
<time>2026-07-10T14:01:36.000Z</time>
|
|
</trkpt>
|
|
<trkpt lat="55.209225" lon="8.725912">
|
|
<ele>-26.773162</ele>
|
|
<time>2026-07-10T14:01:37.000Z</time>
|
|
</trkpt>
|
|
<trkpt lat="55.209278" lon="8.725909">
|
|
<ele>-26.779503</ele>
|
|
<time>2026-07-10T14:01:38.000Z</time>
|
|
</trkpt>
|
|
<trkpt lat="55.209332" lon="8.725904">
|
|
<ele>-26.785969</ele>
|
|
<time>2026-07-10T14:01:39.000Z</time>
|
|
</trkpt>
|
|
<trkpt lat="55.209385" lon="8.725901">
|
|
<ele>-26.792311</ele>
|
|
<time>2026-07-10T14:01:40.000Z</time>
|
|
</trkpt>
|
|
<trkpt lat="55.209439" lon="8.725898">
|
|
<ele>-26.798771</ele>
|
|
<time>2026-07-10T14:01:41.000Z</time>
|
|
</trkpt>
|
|
<trkpt lat="55.209492" lon="8.725894">
|
|
<ele>-26.805115</ele>
|
|
<time>2026-07-10T14:01:42.000Z</time>
|
|
</trkpt>
|
|
<trkpt lat="55.209545" lon="8.725889">
|
|
<ele>-26.811462</ele>
|
|
<time>2026-07-10T14:01:43.000Z</time>
|
|
</trkpt>
|
|
<trkpt lat="55.209598" lon="8.725884">
|
|
<ele>-26.817809</ele>
|
|
<time>2026-07-10T14:01:44.000Z</time>
|
|
</trkpt>
|
|
<trkpt lat="55.209652" lon="8.725881">
|
|
<ele>-26.824270</ele>
|
|
<time>2026-07-10T14:01:45.000Z</time>
|
|
</trkpt>
|
|
<trkpt lat="55.209706" lon="8.725877">
|
|
<ele>-26.830733</ele>
|
|
<time>2026-07-10T14:01:46.000Z</time>
|
|
</trkpt>
|
|
<trkpt lat="55.209759" lon="8.725872">
|
|
<ele>-26.837081</ele>
|
|
<time>2026-07-10T14:01:47.000Z</time>
|
|
</trkpt>
|
|
<trkpt lat="55.209811" lon="8.725869">
|
|
<ele>-26.843302</ele>
|
|
<time>2026-07-10T14:01:48.000Z</time>
|
|
</trkpt>
|
|
<trkpt lat="55.209862" lon="8.725864">
|
|
<ele>-26.849411</ele>
|
|
<time>2026-07-10T14:01:49.000Z</time>
|
|
</trkpt>
|
|
<trkpt lat="55.209915" lon="8.725860">
|
|
<ele>-26.855754</ele>
|
|
<time>2026-07-10T14:01:50.000Z</time>
|
|
</trkpt>
|
|
<trkpt lat="55.209969" lon="8.725855">
|
|
<ele>-26.862221</ele>
|
|
<time>2026-07-10T14:01:51.000Z</time>
|
|
</trkpt>
|
|
<trkpt lat="55.210022" lon="8.725850">
|
|
<ele>-26.868568</ele>
|
|
<time>2026-07-10T14:01:52.000Z</time>
|
|
</trkpt>
|
|
<trkpt lat="55.210077" lon="8.725845">
|
|
<ele>-26.875154</ele>
|
|
<time>2026-07-10T14:01:53.000Z</time>
|
|
</trkpt>
|
|
<trkpt lat="55.210133" lon="8.725840">
|
|
<ele>-26.881859</ele>
|
|
<time>2026-07-10T14:01:54.000Z</time>
|
|
</trkpt>
|
|
<trkpt lat="55.210186" lon="8.725835">
|
|
<ele>-26.888206</ele>
|
|
<time>2026-07-10T14:01:55.000Z</time>
|
|
</trkpt>
|
|
<trkpt lat="55.210240" lon="8.725831">
|
|
<ele>-26.894670</ele>
|
|
<time>2026-07-10T14:01:56.000Z</time>
|
|
</trkpt>
|
|
<trkpt lat="55.210293" lon="8.725827">
|
|
<ele>-26.901013</ele>
|
|
<time>2026-07-10T14:01:57.000Z</time>
|
|
</trkpt>
|
|
<trkpt lat="55.210346" lon="8.725822">
|
|
<ele>-26.907361</ele>
|
|
<time>2026-07-10T14:01:58.000Z</time>
|
|
</trkpt>
|
|
<trkpt lat="55.210398" lon="8.725818">
|
|
<ele>-26.913585</ele>
|
|
<time>2026-07-10T14:01:59.000Z</time>
|
|
</trkpt>
|
|
<trkpt lat="55.210449" lon="8.725813">
|
|
<ele>-26.919693</ele>
|
|
<time>2026-07-10T14:02:00.000Z</time>
|
|
</trkpt>
|
|
<trkpt lat="55.210502" lon="8.725812">
|
|
<ele>-26.926031</ele>
|
|
<time>2026-07-10T14:02:01.000Z</time>
|
|
</trkpt>
|
|
<trkpt lat="55.210552" lon="8.725821">
|
|
<ele>-26.932042</ele>
|
|
<time>2026-07-10T14:02:02.000Z</time>
|
|
</trkpt>
|
|
<trkpt lat="55.210605" lon="8.725839">
|
|
<ele>-26.938498</ele>
|
|
<time>2026-07-10T14:02:03.000Z</time>
|
|
</trkpt>
|
|
<trkpt lat="55.210656" lon="8.725857">
|
|
<ele>-26.944719</ele>
|
|
<time>2026-07-10T14:02:04.000Z</time>
|
|
</trkpt>
|
|
<trkpt lat="55.210709" lon="8.725870">
|
|
<ele>-26.951119</ele>
|
|
<time>2026-07-10T14:02:05.000Z</time>
|
|
</trkpt>
|
|
<trkpt lat="55.210762" lon="8.725874">
|
|
<ele>-26.958191</ele>
|
|
<time>2026-07-10T14:02:06.000Z</time>
|
|
</trkpt>
|
|
<trkpt lat="55.210816" lon="8.725869">
|
|
<ele>-26.975305</ele>
|
|
<time>2026-07-10T14:02:07.000Z</time>
|
|
</trkpt>
|
|
<trkpt lat="55.210869" lon="8.725864">
|
|
<ele>-26.992103</ele>
|
|
<time>2026-07-10T14:02:08.000Z</time>
|
|
</trkpt>
|
|
<trkpt lat="55.210922" lon="8.725858">
|
|
<ele>-27.008912</ele>
|
|
<time>2026-07-10T14:02:09.000Z</time>
|
|
</trkpt>
|
|
<trkpt lat="55.210977" lon="8.725854">
|
|
<ele>-27.026334</ele>
|
|
<time>2026-07-10T14:02:10.000Z</time>
|
|
</trkpt>
|
|
<trkpt lat="55.211033" lon="8.725852">
|
|
<ele>-27.044061</ele>
|
|
<time>2026-07-10T14:02:11.000Z</time>
|
|
</trkpt>
|
|
<trkpt lat="55.211086" lon="8.725847">
|
|
<ele>-27.060859</ele>
|
|
<time>2026-07-10T14:02:12.000Z</time>
|
|
</trkpt>
|
|
<trkpt lat="55.211140" lon="8.725842">
|
|
<ele>-27.077973</ele>
|
|
<time>2026-07-10T14:02:13.000Z</time>
|
|
</trkpt>
|
|
<trkpt lat="55.211193" lon="8.725838">
|
|
<ele>-27.094763</ele>
|
|
<time>2026-07-10T14:02:14.000Z</time>
|
|
</trkpt>
|
|
<trkpt lat="55.211246" lon="8.725834">
|
|
<ele>-27.111552</ele>
|
|
<time>2026-07-10T14:02:15.000Z</time>
|
|
</trkpt>
|
|
<trkpt lat="55.211299" lon="8.725831">
|
|
<ele>-27.128335</ele>
|
|
<time>2026-07-10T14:02:16.000Z</time>
|
|
</trkpt>
|
|
<trkpt lat="55.211349" lon="8.725828">
|
|
<ele>-27.144168</ele>
|
|
<time>2026-07-10T14:02:17.000Z</time>
|
|
</trkpt>
|
|
<trkpt lat="55.211403" lon="8.725826">
|
|
<ele>-27.161262</ele>
|
|
<time>2026-07-10T14:02:18.000Z</time>
|
|
</trkpt>
|
|
<trkpt lat="55.211457" lon="8.725824">
|
|
<ele>-27.178357</ele>
|
|
<time>2026-07-10T14:02:19.000Z</time>
|
|
</trkpt>
|
|
<trkpt lat="55.211510" lon="8.725821">
|
|
<ele>-27.195139</ele>
|
|
<time>2026-07-10T14:02:20.000Z</time>
|
|
</trkpt>
|
|
<trkpt lat="55.211563" lon="8.725817">
|
|
<ele>-27.211929</ele>
|
|
<time>2026-07-10T14:02:21.000Z</time>
|
|
</trkpt>
|
|
<trkpt lat="55.211618" lon="8.725809">
|
|
<ele>-27.229395</ele>
|
|
<time>2026-07-10T14:02:22.000Z</time>
|
|
</trkpt>
|
|
<trkpt lat="55.211673" lon="8.725800">
|
|
<ele>-27.246878</ele>
|
|
<time>2026-07-10T14:02:23.000Z</time>
|
|
</trkpt>
|
|
<trkpt lat="55.211727" lon="8.725786">
|
|
<ele>-27.264154</ele>
|
|
<time>2026-07-10T14:02:24.000Z</time>
|
|
</trkpt>
|
|
<trkpt lat="55.211781" lon="8.725761">
|
|
<ele>-27.281831</ele>
|
|
<time>2026-07-10T14:02:25.000Z</time>
|
|
</trkpt>
|
|
<trkpt lat="55.211835" lon="8.725732">
|
|
<ele>-27.299705</ele>
|
|
<time>2026-07-10T14:02:26.000Z</time>
|
|
</trkpt>
|
|
<trkpt lat="55.211892" lon="8.725707">
|
|
<ele>-27.318301</ele>
|
|
<time>2026-07-10T14:02:27.000Z</time>
|
|
</trkpt>
|
|
<trkpt lat="55.211950" lon="8.725693">
|
|
<ele>-27.336831</ele>
|
|
<time>2026-07-10T14:02:28.000Z</time>
|
|
</trkpt>
|
|
<trkpt lat="55.212009" lon="8.725687">
|
|
<ele>-27.355535</ele>
|
|
<time>2026-07-10T14:02:29.000Z</time>
|
|
</trkpt>
|
|
<trkpt lat="55.212073" lon="8.725681">
|
|
<ele>-27.375819</ele>
|
|
<time>2026-07-10T14:02:30.000Z</time>
|
|
</trkpt>
|
|
<trkpt lat="55.212134" lon="8.725674">
|
|
<ele>-27.395166</ele>
|
|
<time>2026-07-10T14:02:31.000Z</time>
|
|
</trkpt>
|
|
<trkpt lat="55.212195" lon="8.725665">
|
|
<ele>-27.414540</ele>
|
|
<time>2026-07-10T14:02:32.000Z</time>
|
|
</trkpt>
|
|
<trkpt lat="55.212255" lon="8.725661">
|
|
<ele>-27.433543</ele>
|
|
<time>2026-07-10T14:02:33.000Z</time>
|
|
</trkpt>
|
|
<trkpt lat="55.212313" lon="8.725659">
|
|
<ele>-27.451903</ele>
|
|
<time>2026-07-10T14:02:34.000Z</time>
|
|
</trkpt>
|
|
<trkpt lat="55.212374" lon="8.725656">
|
|
<ele>-27.471216</ele>
|
|
<time>2026-07-10T14:02:35.000Z</time>
|
|
</trkpt>
|
|
<trkpt lat="55.212434" lon="8.725652">
|
|
<ele>-27.490219</ele>
|
|
<time>2026-07-10T14:02:36.000Z</time>
|
|
</trkpt>
|
|
<trkpt lat="55.212492" lon="8.725647">
|
|
<ele>-27.508598</ele>
|
|
<time>2026-07-10T14:02:37.000Z</time>
|
|
</trkpt>
|
|
<trkpt lat="55.212552" lon="8.725644">
|
|
<ele>-27.525114</ele>
|
|
<time>2026-07-10T14:02:38.000Z</time>
|
|
</trkpt>
|
|
<trkpt lat="55.212609" lon="8.725639">
|
|
<ele>-27.509386</ele>
|
|
<time>2026-07-10T14:02:39.000Z</time>
|
|
</trkpt>
|
|
<trkpt lat="55.212667" lon="8.725633">
|
|
<ele>-27.493375</ele>
|
|
<time>2026-07-10T14:02:40.000Z</time>
|
|
</trkpt>
|
|
<trkpt lat="55.212723" lon="8.725628">
|
|
<ele>-27.477923</ele>
|
|
<time>2026-07-10T14:02:41.000Z</time>
|
|
</trkpt>
|
|
<trkpt lat="55.212777" lon="8.725622">
|
|
<ele>-27.463012</ele>
|
|
<time>2026-07-10T14:02:42.000Z</time>
|
|
</trkpt>
|
|
<trkpt lat="55.212834" lon="8.725617">
|
|
<ele>-27.447285</ele>
|
|
<time>2026-07-10T14:02:43.000Z</time>
|
|
</trkpt>
|
|
<trkpt lat="55.212888" lon="8.725613">
|
|
<ele>-27.432391</ele>
|
|
<time>2026-07-10T14:02:44.000Z</time>
|
|
</trkpt>
|
|
<trkpt lat="55.212945" lon="8.725608">
|
|
<ele>-27.416663</ele>
|
|
<time>2026-07-10T14:02:45.000Z</time>
|
|
</trkpt>
|
|
<trkpt lat="55.213001" lon="8.725604">
|
|
<ele>-27.401218</ele>
|
|
<time>2026-07-10T14:02:46.000Z</time>
|
|
</trkpt>
|
|
<trkpt lat="55.213056" lon="8.725599">
|
|
<ele>-27.386041</ele>
|
|
<time>2026-07-10T14:02:47.000Z</time>
|
|
</trkpt>
|
|
<trkpt lat="55.213113" lon="8.725596">
|
|
<ele>-27.370327</ele>
|
|
<time>2026-07-10T14:02:48.000Z</time>
|
|
</trkpt>
|
|
<trkpt lat="55.213170" lon="8.725592">
|
|
<ele>-27.354606</ele>
|
|
<time>2026-07-10T14:02:49.000Z</time>
|
|
</trkpt>
|
|
<trkpt lat="55.213226" lon="8.725586">
|
|
<ele>-27.339145</ele>
|
|
<time>2026-07-10T14:02:50.000Z</time>
|
|
</trkpt>
|
|
<trkpt lat="55.213281" lon="8.725579">
|
|
<ele>-27.323949</ele>
|
|
<time>2026-07-10T14:02:51.000Z</time>
|
|
</trkpt>
|
|
<trkpt lat="55.213337" lon="8.725574">
|
|
<ele>-27.308497</ele>
|
|
<time>2026-07-10T14:02:52.000Z</time>
|
|
</trkpt>
|
|
<trkpt lat="55.213390" lon="8.725570">
|
|
<ele>-27.293878</ele>
|
|
<time>2026-07-10T14:02:53.000Z</time>
|
|
</trkpt>
|
|
<trkpt lat="55.213445" lon="8.725564">
|
|
<ele>-27.278692</ele>
|
|
<time>2026-07-10T14:02:54.000Z</time>
|
|
</trkpt>
|
|
<trkpt lat="55.213502" lon="8.725561">
|
|
<ele>-27.262977</ele>
|
|
<time>2026-07-10T14:02:55.000Z</time>
|
|
</trkpt>
|
|
<trkpt lat="55.213558" lon="8.725557">
|
|
<ele>-27.247532</ele>
|
|
<time>2026-07-10T14:02:56.000Z</time>
|
|
</trkpt>
|
|
<trkpt lat="55.213612" lon="8.725552">
|
|
<ele>-27.232630</ele>
|
|
<time>2026-07-10T14:02:57.000Z</time>
|
|
</trkpt>
|
|
<trkpt lat="55.213665" lon="8.725548">
|
|
<ele>-27.218012</ele>
|
|
<time>2026-07-10T14:02:58.000Z</time>
|
|
</trkpt>
|
|
<trkpt lat="55.213718" lon="8.725546">
|
|
<ele>-27.203403</ele>
|
|
<time>2026-07-10T14:02:59.000Z</time>
|
|
</trkpt>
|
|
<trkpt lat="55.213772" lon="8.725544">
|
|
<ele>-27.188518</ele>
|
|
<time>2026-07-10T14:03:00.000Z</time>
|
|
</trkpt>
|
|
<trkpt lat="55.213825" lon="8.725542">
|
|
<ele>-27.173910</ele>
|
|
<time>2026-07-10T14:03:01.000Z</time>
|
|
</trkpt>
|
|
<trkpt lat="55.213878" lon="8.725537">
|
|
<ele>-27.159283</ele>
|
|
<time>2026-07-10T14:03:02.000Z</time>
|
|
</trkpt>
|
|
<trkpt lat="55.213932" lon="8.725532">
|
|
<ele>-27.144381</ele>
|
|
<time>2026-07-10T14:03:03.000Z</time>
|
|
</trkpt>
|
|
<trkpt lat="55.213985" lon="8.725529">
|
|
<ele>-27.129768</ele>
|
|
<time>2026-07-10T14:03:04.000Z</time>
|
|
</trkpt>
|
|
<trkpt lat="55.214035" lon="8.725526">
|
|
<ele>-27.115982</ele>
|
|
<time>2026-07-10T14:03:05.000Z</time>
|
|
</trkpt>
|
|
<trkpt lat="55.214087" lon="8.725522">
|
|
<ele>-27.101638</ele>
|
|
<time>2026-07-10T14:03:06.000Z</time>
|
|
</trkpt>
|
|
<trkpt lat="55.214134" lon="8.725517">
|
|
<ele>-27.088662</ele>
|
|
<time>2026-07-10T14:03:07.000Z</time>
|
|
</trkpt>
|
|
<trkpt lat="55.214187" lon="8.725515">
|
|
<ele>-27.074053</ele>
|
|
<time>2026-07-10T14:03:08.000Z</time>
|
|
</trkpt>
|
|
<trkpt lat="55.214239" lon="8.725513">
|
|
<ele>-27.059720</ele>
|
|
<time>2026-07-10T14:03:09.000Z</time>
|
|
</trkpt>
|
|
<trkpt lat="55.214294" lon="8.725511">
|
|
<ele>-27.044560</ele>
|
|
<time>2026-07-10T14:03:10.000Z</time>
|
|
</trkpt>
|
|
<trkpt lat="55.214344" lon="8.725508">
|
|
<ele>-27.030773</ele>
|
|
<time>2026-07-10T14:03:11.000Z</time>
|
|
</trkpt>
|
|
<trkpt lat="55.214398" lon="8.725504">
|
|
<ele>-27.037962</ele>
|
|
<time>2026-07-10T14:03:12.000Z</time>
|
|
</trkpt>
|
|
<trkpt lat="55.214451" lon="8.725501">
|
|
<ele>-27.045256</ele>
|
|
<time>2026-07-10T14:03:13.000Z</time>
|
|
</trkpt>
|
|
<trkpt lat="55.214504" lon="8.725498">
|
|
<ele>-27.052550</ele>
|
|
<time>2026-07-10T14:03:14.000Z</time>
|
|
</trkpt>
|
|
<trkpt lat="55.214557" lon="8.725498">
|
|
<ele>-27.059840</ele>
|
|
<time>2026-07-10T14:03:15.000Z</time>
|
|
</trkpt>
|
|
<trkpt lat="55.214606" lon="8.725497">
|
|
<ele>-27.066581</ele>
|
|
<time>2026-07-10T14:03:16.000Z</time>
|
|
</trkpt>
|
|
<trkpt lat="55.214656" lon="8.725494">
|
|
<ele>-27.073462</ele>
|
|
<time>2026-07-10T14:03:17.000Z</time>
|
|
</trkpt>
|
|
<trkpt lat="55.214705" lon="8.725488">
|
|
<ele>-27.080219</ele>
|
|
<time>2026-07-10T14:03:18.000Z</time>
|
|
</trkpt>
|
|
<trkpt lat="55.214754" lon="8.725483">
|
|
<ele>-27.086970</ele>
|
|
<time>2026-07-10T14:03:19.000Z</time>
|
|
</trkpt>
|
|
<trkpt lat="55.214801" lon="8.725477">
|
|
<ele>-27.093452</ele>
|
|
<time>2026-07-10T14:03:20.000Z</time>
|
|
</trkpt>
|
|
<trkpt lat="55.214850" lon="8.725472">
|
|
<ele>-27.100203</ele>
|
|
<time>2026-07-10T14:03:21.000Z</time>
|
|
</trkpt>
|
|
<trkpt lat="55.214897" lon="8.725467">
|
|
<ele>-27.106680</ele>
|
|
<time>2026-07-10T14:03:22.000Z</time>
|
|
</trkpt>
|
|
<trkpt lat="55.214950" lon="8.725463">
|
|
<ele>-27.113977</ele>
|
|
<time>2026-07-10T14:03:23.000Z</time>
|
|
</trkpt>
|
|
<trkpt lat="55.215001" lon="8.725459">
|
|
<ele>-27.120999</ele>
|
|
<time>2026-07-10T14:03:24.000Z</time>
|
|
</trkpt>
|
|
<trkpt lat="55.215054" lon="8.725455">
|
|
<ele>-27.128296</ele>
|
|
<time>2026-07-10T14:03:25.000Z</time>
|
|
</trkpt>
|
|
<trkpt lat="55.215107" lon="8.725451">
|
|
<ele>-27.135593</ele>
|
|
<time>2026-07-10T14:03:26.000Z</time>
|
|
</trkpt>
|
|
<trkpt lat="55.215160" lon="8.725445">
|
|
<ele>-27.142899</ele>
|
|
<time>2026-07-10T14:03:27.000Z</time>
|
|
</trkpt>
|
|
<trkpt lat="55.215215" lon="8.725440">
|
|
<ele>-27.150474</ele>
|
|
<time>2026-07-10T14:03:28.000Z</time>
|
|
</trkpt>
|
|
<trkpt lat="55.215274" lon="8.725433">
|
|
<ele>-27.158608</ele>
|
|
<time>2026-07-10T14:03:29.000Z</time>
|
|
</trkpt>
|
|
<trkpt lat="55.215334" lon="8.725427">
|
|
<ele>-27.166875</ele>
|
|
<time>2026-07-10T14:03:30.000Z</time>
|
|
</trkpt>
|
|
<trkpt lat="55.215395" lon="8.725423">
|
|
<ele>-27.175271</ele>
|
|
<time>2026-07-10T14:03:31.000Z</time>
|
|
</trkpt>
|
|
<trkpt lat="55.215457" lon="8.725421">
|
|
<ele>-27.183801</ele>
|
|
<time>2026-07-10T14:03:32.000Z</time>
|
|
</trkpt>
|
|
<trkpt lat="55.215516" lon="8.725419">
|
|
<ele>-27.191918</ele>
|
|
<time>2026-07-10T14:03:33.000Z</time>
|
|
</trkpt>
|
|
<trkpt lat="55.215574" lon="8.725417">
|
|
<ele>-27.199897</ele>
|
|
<time>2026-07-10T14:03:34.000Z</time>
|
|
</trkpt>
|
|
<trkpt lat="55.215631" lon="8.725412">
|
|
<ele>-27.207747</ele>
|
|
<time>2026-07-10T14:03:35.000Z</time>
|
|
</trkpt>
|
|
<trkpt lat="55.215688" lon="8.725407">
|
|
<ele>-27.215598</ele>
|
|
<time>2026-07-10T14:03:36.000Z</time>
|
|
</trkpt>
|
|
<trkpt lat="55.215746" lon="8.725404">
|
|
<ele>-27.223579</ele>
|
|
<time>2026-07-10T14:03:37.000Z</time>
|
|
</trkpt>
|
|
<trkpt lat="55.215806" lon="8.725402">
|
|
<ele>-27.231834</ele>
|
|
<time>2026-07-10T14:03:38.000Z</time>
|
|
</trkpt>
|
|
<trkpt lat="55.215862" lon="8.725397">
|
|
<ele>-27.239546</ele>
|
|
<time>2026-07-10T14:03:39.000Z</time>
|
|
</trkpt>
|
|
<trkpt lat="55.215917" lon="8.725392">
|
|
<ele>-27.247122</ele>
|
|
<time>2026-07-10T14:03:40.000Z</time>
|
|
</trkpt>
|
|
<trkpt lat="55.215974" lon="8.725389">
|
|
<ele>-27.254966</ele>
|
|
<time>2026-07-10T14:03:41.000Z</time>
|
|
</trkpt>
|
|
<trkpt lat="55.216031" lon="8.725383">
|
|
<ele>-27.262820</ele>
|
|
<time>2026-07-10T14:03:42.000Z</time>
|
|
</trkpt>
|
|
<trkpt lat="55.216088" lon="8.725379">
|
|
<ele>-27.270667</ele>
|
|
<time>2026-07-10T14:03:43.000Z</time>
|
|
</trkpt>
|
|
<trkpt lat="55.216145" lon="8.725376">
|
|
<ele>-27.278813</ele>
|
|
<time>2026-07-10T14:03:44.000Z</time>
|
|
</trkpt>
|
|
<trkpt lat="55.216203" lon="8.725372">
|
|
<ele>-27.291652</ele>
|
|
<time>2026-07-10T14:03:45.000Z</time>
|
|
</trkpt>
|
|
<trkpt lat="55.216260" lon="8.725367">
|
|
<ele>-27.304276</ele>
|
|
<time>2026-07-10T14:03:46.000Z</time>
|
|
</trkpt>
|
|
<trkpt lat="55.216317" lon="8.725364">
|
|
<ele>-27.316890</ele>
|
|
<time>2026-07-10T14:03:47.000Z</time>
|
|
</trkpt>
|
|
<trkpt lat="55.216375" lon="8.725361">
|
|
<ele>-27.329725</ele>
|
|
<time>2026-07-10T14:03:48.000Z</time>
|
|
</trkpt>
|
|
<trkpt lat="55.216432" lon="8.725357">
|
|
<ele>-27.342344</ele>
|
|
<time>2026-07-10T14:03:49.000Z</time>
|
|
</trkpt>
|
|
<trkpt lat="55.216489" lon="8.725352">
|
|
<ele>-27.354968</ele>
|
|
<time>2026-07-10T14:03:50.000Z</time>
|
|
</trkpt>
|
|
<trkpt lat="55.216545" lon="8.725347">
|
|
<ele>-27.367371</ele>
|
|
<time>2026-07-10T14:03:51.000Z</time>
|
|
</trkpt>
|
|
<trkpt lat="55.216600" lon="8.725340">
|
|
<ele>-27.379569</ele>
|
|
<time>2026-07-10T14:03:52.000Z</time>
|
|
</trkpt>
|
|
<trkpt lat="55.216658" lon="8.725335">
|
|
<ele>-27.392414</ele>
|
|
<time>2026-07-10T14:03:53.000Z</time>
|
|
</trkpt>
|
|
<trkpt lat="55.216716" lon="8.725329">
|
|
<ele>-27.405266</ele>
|
|
<time>2026-07-10T14:03:54.000Z</time>
|
|
</trkpt>
|
|
<trkpt lat="55.216772" lon="8.725324">
|
|
<ele>-27.417669</ele>
|
|
<time>2026-07-10T14:03:55.000Z</time>
|
|
</trkpt>
|
|
<trkpt lat="55.216832" lon="8.725321">
|
|
<ele>-27.430946</ele>
|
|
<time>2026-07-10T14:03:56.000Z</time>
|
|
</trkpt>
|
|
<trkpt lat="55.216890" lon="8.725316">
|
|
<ele>-27.443791</ele>
|
|
<time>2026-07-10T14:03:57.000Z</time>
|
|
</trkpt>
|
|
<trkpt lat="55.216947" lon="8.725310">
|
|
<ele>-27.456422</ele>
|
|
<time>2026-07-10T14:03:58.000Z</time>
|
|
</trkpt>
|
|
<trkpt lat="55.217004" lon="8.725306">
|
|
<ele>-27.469041</ele>
|
|
<time>2026-07-10T14:03:59.000Z</time>
|
|
</trkpt>
|
|
<trkpt lat="55.217062" lon="8.725303">
|
|
<ele>-27.481876</ele>
|
|
<time>2026-07-10T14:04:00.000Z</time>
|
|
</trkpt>
|
|
<trkpt lat="55.217122" lon="8.725299">
|
|
<ele>-27.495157</ele>
|
|
<time>2026-07-10T14:04:01.000Z</time>
|
|
</trkpt>
|
|
<trkpt lat="55.217179" lon="8.725296">
|
|
<ele>-27.507771</ele>
|
|
<time>2026-07-10T14:04:02.000Z</time>
|
|
</trkpt>
|
|
<trkpt lat="55.217236" lon="8.725292">
|
|
<ele>-27.520390</ele>
|
|
<time>2026-07-10T14:04:03.000Z</time>
|
|
</trkpt>
|
|
<trkpt lat="55.217292" lon="8.725288">
|
|
<ele>-27.532787</ele>
|
|
<time>2026-07-10T14:04:04.000Z</time>
|
|
</trkpt>
|
|
<trkpt lat="55.217351" lon="8.725286">
|
|
<ele>-27.545840</ele>
|
|
<time>2026-07-10T14:04:05.000Z</time>
|
|
</trkpt>
|
|
<trkpt lat="55.217410" lon="8.725283">
|
|
<ele>-27.558897</ele>
|
|
<time>2026-07-10T14:04:06.000Z</time>
|
|
</trkpt>
|
|
<trkpt lat="55.217469" lon="8.725278">
|
|
<ele>-27.571962</ele>
|
|
<time>2026-07-10T14:04:07.000Z</time>
|
|
</trkpt>
|
|
<trkpt lat="55.217527" lon="8.725274">
|
|
<ele>-27.584802</ele>
|
|
<time>2026-07-10T14:04:08.000Z</time>
|
|
</trkpt>
|
|
<trkpt lat="55.217584" lon="8.725269">
|
|
<ele>-27.597426</ele>
|
|
<time>2026-07-10T14:04:09.000Z</time>
|
|
</trkpt>
|
|
<trkpt lat="55.217641" lon="8.725266">
|
|
<ele>-27.610040</ele>
|
|
<time>2026-07-10T14:04:10.000Z</time>
|
|
</trkpt>
|
|
<trkpt lat="55.217698" lon="8.725263">
|
|
<ele>-27.622654</ele>
|
|
<time>2026-07-10T14:04:11.000Z</time>
|
|
</trkpt>
|
|
<trkpt lat="55.217756" lon="8.725258">
|
|
<ele>-27.635499</ele>
|
|
<time>2026-07-10T14:04:12.000Z</time>
|
|
</trkpt>
|
|
<trkpt lat="55.217813" lon="8.725254">
|
|
<ele>-27.648117</ele>
|
|
<time>2026-07-10T14:04:13.000Z</time>
|
|
</trkpt>
|
|
<trkpt lat="55.217870" lon="8.725249">
|
|
<ele>-27.660741</ele>
|
|
<time>2026-07-10T14:04:14.000Z</time>
|
|
</trkpt>
|
|
<trkpt lat="55.217927" lon="8.725246">
|
|
<ele>-27.673355</ele>
|
|
<time>2026-07-10T14:04:15.000Z</time>
|
|
</trkpt>
|
|
<trkpt lat="55.217984" lon="8.725244">
|
|
<ele>-27.665431</ele>
|
|
<time>2026-07-10T14:04:16.000Z</time>
|
|
</trkpt>
|
|
<trkpt lat="55.218041" lon="8.725240">
|
|
<ele>-27.652382</ele>
|
|
<time>2026-07-10T14:04:17.000Z</time>
|
|
</trkpt>
|
|
<trkpt lat="55.218100" lon="8.725235">
|
|
<ele>-27.638869</ele>
|
|
<time>2026-07-10T14:04:18.000Z</time>
|
|
</trkpt>
|
|
<trkpt lat="55.218160" lon="8.725230">
|
|
<ele>-27.625128</ele>
|
|
<time>2026-07-10T14:04:19.000Z</time>
|
|
</trkpt>
|
|
<trkpt lat="55.218217" lon="8.725226">
|
|
<ele>-27.612078</ele>
|
|
<time>2026-07-10T14:04:20.000Z</time>
|
|
</trkpt>
|
|
<trkpt lat="55.218274" lon="8.725222">
|
|
<ele>-27.599029</ele>
|
|
<time>2026-07-10T14:04:21.000Z</time>
|
|
</trkpt>
|
|
<trkpt lat="55.218331" lon="8.725219">
|
|
<ele>-27.585983</ele>
|
|
<time>2026-07-10T14:04:22.000Z</time>
|
|
</trkpt>
|
|
<trkpt lat="55.218388" lon="8.725217">
|
|
<ele>-27.572942</ele>
|
|
<time>2026-07-10T14:04:23.000Z</time>
|
|
</trkpt>
|
|
<trkpt lat="55.218444" lon="8.725212">
|
|
<ele>-27.560114</ele>
|
|
<time>2026-07-10T14:04:24.000Z</time>
|
|
</trkpt>
|
|
<trkpt lat="55.218502" lon="8.725207">
|
|
<ele>-27.546830</ele>
|
|
<time>2026-07-10T14:04:25.000Z</time>
|
|
</trkpt>
|
|
<trkpt lat="55.218557" lon="8.725204">
|
|
<ele>-27.534243</ele>
|
|
<time>2026-07-10T14:04:26.000Z</time>
|
|
</trkpt>
|
|
<trkpt lat="55.218614" lon="8.725201">
|
|
<ele>-27.521197</ele>
|
|
<time>2026-07-10T14:04:27.000Z</time>
|
|
</trkpt>
|
|
<trkpt lat="55.218671" lon="8.725197">
|
|
<ele>-27.508148</ele>
|
|
<time>2026-07-10T14:04:28.000Z</time>
|
|
</trkpt>
|
|
<trkpt lat="55.218726" lon="8.725192">
|
|
<ele>-27.495549</ele>
|
|
<time>2026-07-10T14:04:29.000Z</time>
|
|
</trkpt>
|
|
<trkpt lat="55.218778" lon="8.725189">
|
|
<ele>-27.483647</ele>
|
|
<time>2026-07-10T14:04:30.000Z</time>
|
|
</trkpt>
|
|
<trkpt lat="55.218834" lon="8.725186">
|
|
<ele>-27.470831</ele>
|
|
<time>2026-07-10T14:04:31.000Z</time>
|
|
</trkpt>
|
|
<trkpt lat="55.218889" lon="8.725185">
|
|
<ele>-27.458248</ele>
|
|
<time>2026-07-10T14:04:32.000Z</time>
|
|
</trkpt>
|
|
<trkpt lat="55.218946" lon="8.725183">
|
|
<ele>-27.445206</ele>
|
|
<time>2026-07-10T14:04:33.000Z</time>
|
|
</trkpt>
|
|
<trkpt lat="55.219002" lon="8.725180">
|
|
<ele>-27.432390</ele>
|
|
<time>2026-07-10T14:04:34.000Z</time>
|
|
</trkpt>
|
|
<trkpt lat="55.219055" lon="8.725176">
|
|
<ele>-27.420254</ele>
|
|
<time>2026-07-10T14:04:35.000Z</time>
|
|
</trkpt>
|
|
<trkpt lat="55.219109" lon="8.725174">
|
|
<ele>-27.407899</ele>
|
|
<time>2026-07-10T14:04:36.000Z</time>
|
|
</trkpt>
|
|
<trkpt lat="55.219162" lon="8.725172">
|
|
<ele>-27.395772</ele>
|
|
<time>2026-07-10T14:04:37.000Z</time>
|
|
</trkpt>
|
|
<trkpt lat="55.219215" lon="8.725169">
|
|
<ele>-27.383641</ele>
|
|
<time>2026-07-10T14:04:38.000Z</time>
|
|
</trkpt>
|
|
<trkpt lat="55.219269" lon="8.725166">
|
|
<ele>-27.371282</ele>
|
|
<time>2026-07-10T14:04:39.000Z</time>
|
|
</trkpt>
|
|
<trkpt lat="55.219322" lon="8.725165">
|
|
<ele>-27.359157</ele>
|
|
<time>2026-07-10T14:04:40.000Z</time>
|
|
</trkpt>
|
|
<trkpt lat="55.219376" lon="8.725162">
|
|
<ele>-27.346798</ele>
|
|
<time>2026-07-10T14:04:41.000Z</time>
|
|
</trkpt>
|
|
<trkpt lat="55.219428" lon="8.725159">
|
|
<ele>-27.334896</ele>
|
|
<time>2026-07-10T14:04:42.000Z</time>
|
|
</trkpt>
|
|
<trkpt lat="55.219478" lon="8.725156">
|
|
<ele>-27.323451</ele>
|
|
<time>2026-07-10T14:04:43.000Z</time>
|
|
</trkpt>
|
|
<trkpt lat="55.219532" lon="8.725152">
|
|
<ele>-27.311087</ele>
|
|
<time>2026-07-10T14:04:44.000Z</time>
|
|
</trkpt>
|
|
<trkpt lat="55.219584" lon="8.725149">
|
|
<ele>-27.299185</ele>
|
|
<time>2026-07-10T14:04:45.000Z</time>
|
|
</trkpt>
|
|
<trkpt lat="55.219635" lon="8.725144">
|
|
<ele>-27.287500</ele>
|
|
<time>2026-07-10T14:04:46.000Z</time>
|
|
</trkpt>
|
|
<trkpt lat="55.219687" lon="8.725141">
|
|
<ele>-27.275598</ele>
|
|
<time>2026-07-10T14:04:47.000Z</time>
|
|
</trkpt>
|
|
<trkpt lat="55.219738" lon="8.725139">
|
|
<ele>-27.263869</ele>
|
|
<time>2026-07-10T14:04:48.000Z</time>
|
|
</trkpt>
|
|
<trkpt lat="55.219793" lon="8.725138">
|
|
<ele>-27.249733</ele>
|
|
<time>2026-07-10T14:04:49.000Z</time>
|
|
</trkpt>
|
|
<trkpt lat="55.219849" lon="8.725135">
|
|
<ele>-27.235335</ele>
|
|
<time>2026-07-10T14:04:50.000Z</time>
|
|
</trkpt>
|
|
<trkpt lat="55.219902" lon="8.725131">
|
|
<ele>-27.221702</ele>
|
|
<time>2026-07-10T14:04:51.000Z</time>
|
|
</trkpt>
|
|
<trkpt lat="55.219957" lon="8.725127">
|
|
<ele>-27.207555</ele>
|
|
<time>2026-07-10T14:04:52.000Z</time>
|
|
</trkpt>
|
|
<trkpt lat="55.220013" lon="8.725124">
|
|
<ele>-27.193156</ele>
|
|
<time>2026-07-10T14:04:53.000Z</time>
|
|
</trkpt>
|
|
<trkpt lat="55.220067" lon="8.725120">
|
|
<ele>-27.179266</ele>
|
|
<time>2026-07-10T14:04:54.000Z</time>
|
|
</trkpt>
|
|
<trkpt lat="55.220124" lon="8.725118">
|
|
<ele>-27.164615</ele>
|
|
<time>2026-07-10T14:04:55.000Z</time>
|
|
</trkpt>
|
|
<trkpt lat="55.220176" lon="8.725125">
|
|
<ele>-27.151211</ele>
|
|
<time>2026-07-10T14:04:56.000Z</time>
|
|
</trkpt>
|
|
<trkpt lat="55.220229" lon="8.725137">
|
|
<ele>-27.137478</ele>
|
|
<time>2026-07-10T14:04:57.000Z</time>
|
|
</trkpt>
|
|
<trkpt lat="55.220285" lon="8.725151">
|
|
<ele>-27.122940</ele>
|
|
<time>2026-07-10T14:04:58.000Z</time>
|
|
</trkpt>
|
|
<trkpt lat="55.220341" lon="8.725158">
|
|
<ele>-27.108512</ele>
|
|
<time>2026-07-10T14:04:59.000Z</time>
|
|
</trkpt>
|
|
<trkpt lat="55.220397" lon="8.725162">
|
|
<ele>-27.094108</ele>
|
|
<time>2026-07-10T14:05:00.000Z</time>
|
|
</trkpt>
|
|
<trkpt lat="55.220457" lon="8.725161">
|
|
<ele>-27.078688</ele>
|
|
<time>2026-07-10T14:05:01.000Z</time>
|
|
</trkpt>
|
|
<trkpt lat="55.220512" lon="8.725158">
|
|
<ele>-27.064547</ele>
|
|
<time>2026-07-10T14:05:02.000Z</time>
|
|
</trkpt>
|
|
<trkpt lat="55.220566" lon="8.725154">
|
|
<ele>-27.050657</ele>
|
|
<time>2026-07-10T14:05:03.000Z</time>
|
|
</trkpt>
|
|
<trkpt lat="55.220623" lon="8.725151">
|
|
<ele>-27.036001</ele>
|
|
<time>2026-07-10T14:05:04.000Z</time>
|
|
</trkpt>
|
|
<trkpt lat="55.220676" lon="8.725149">
|
|
<ele>-27.022377</ele>
|
|
<time>2026-07-10T14:05:05.000Z</time>
|
|
</trkpt>
|
|
<trkpt lat="55.220731" lon="8.725144">
|
|
<ele>-27.008224</ele>
|
|
<time>2026-07-10T14:05:06.000Z</time>
|
|
</trkpt>
|
|
<trkpt lat="55.220787" lon="8.725137">
|
|
<ele>-26.993795</ele>
|
|
<time>2026-07-10T14:05:07.000Z</time>
|
|
</trkpt>
|
|
<trkpt lat="55.220841" lon="8.725130">
|
|
<ele>-26.979880</ele>
|
|
<time>2026-07-10T14:05:08.000Z</time>
|
|
</trkpt>
|
|
<trkpt lat="55.220894" lon="8.725124">
|
|
<ele>-26.966231</ele>
|
|
<time>2026-07-10T14:05:09.000Z</time>
|
|
</trkpt>
|
|
<trkpt lat="55.220948" lon="8.725118">
|
|
<ele>-26.952325</ele>
|
|
<time>2026-07-10T14:05:10.000Z</time>
|
|
</trkpt>
|
|
<trkpt lat="55.221005" lon="8.725113">
|
|
<ele>-26.937658</ele>
|
|
<time>2026-07-10T14:05:11.000Z</time>
|
|
</trkpt>
|
|
<trkpt lat="55.221062" lon="8.725109">
|
|
<ele>-26.922998</ele>
|
|
<time>2026-07-10T14:05:12.000Z</time>
|
|
</trkpt>
|
|
<trkpt lat="55.221116" lon="8.725104">
|
|
<ele>-26.909101</ele>
|
|
<time>2026-07-10T14:05:13.000Z</time>
|
|
</trkpt>
|
|
<trkpt lat="55.221174" lon="8.725100">
|
|
<ele>-26.894184</ele>
|
|
<time>2026-07-10T14:05:14.000Z</time>
|
|
</trkpt>
|
|
<trkpt lat="55.221231" lon="8.725093">
|
|
<ele>-26.879499</ele>
|
|
<time>2026-07-10T14:05:15.000Z</time>
|
|
</trkpt>
|
|
<trkpt lat="55.221288" lon="8.725089">
|
|
<ele>-26.864839</ele>
|
|
<time>2026-07-10T14:05:16.000Z</time>
|
|
</trkpt>
|
|
<trkpt lat="55.221345" lon="8.725084">
|
|
<ele>-26.850172</ele>
|
|
<time>2026-07-10T14:05:17.000Z</time>
|
|
</trkpt>
|
|
<trkpt lat="55.221402" lon="8.725081">
|
|
<ele>-26.835516</ele>
|
|
<time>2026-07-10T14:05:18.000Z</time>
|
|
</trkpt>
|
|
<trkpt lat="55.221459" lon="8.725078">
|
|
<ele>-26.820861</ele>
|
|
<time>2026-07-10T14:05:19.000Z</time>
|
|
</trkpt>
|
|
<trkpt lat="55.221512" lon="8.725073">
|
|
<ele>-26.807221</ele>
|
|
<time>2026-07-10T14:05:20.000Z</time>
|
|
</trkpt>
|
|
<trkpt lat="55.221566" lon="8.725064">
|
|
<ele>-26.785192</ele>
|
|
<time>2026-07-10T14:05:21.000Z</time>
|
|
</trkpt>
|
|
<trkpt lat="55.221619" lon="8.725049">
|
|
<ele>-26.758847</ele>
|
|
<time>2026-07-10T14:05:22.000Z</time>
|
|
</trkpt>
|
|
<trkpt lat="55.221671" lon="8.725027">
|
|
<ele>-26.732596</ele>
|
|
<time>2026-07-10T14:05:23.000Z</time>
|
|
</trkpt>
|
|
<trkpt lat="55.221722" lon="8.725004">
|
|
<ele>-26.706754</ele>
|
|
<time>2026-07-10T14:05:24.000Z</time>
|
|
</trkpt>
|
|
<trkpt lat="55.221775" lon="8.724984">
|
|
<ele>-26.680150</ele>
|
|
<time>2026-07-10T14:05:25.000Z</time>
|
|
</trkpt>
|
|
<trkpt lat="55.221829" lon="8.724973">
|
|
<ele>-26.653473</ele>
|
|
<time>2026-07-10T14:05:26.000Z</time>
|
|
</trkpt>
|
|
<trkpt lat="55.221883" lon="8.724969">
|
|
<ele>-26.626950</ele>
|
|
<time>2026-07-10T14:05:27.000Z</time>
|
|
</trkpt>
|
|
<trkpt lat="55.221940" lon="8.724967">
|
|
<ele>-26.598973</ele>
|
|
<time>2026-07-10T14:05:28.000Z</time>
|
|
</trkpt>
|
|
<trkpt lat="55.221998" lon="8.724965">
|
|
<ele>-26.570506</ele>
|
|
<time>2026-07-10T14:05:29.000Z</time>
|
|
</trkpt>
|
|
<trkpt lat="55.222055" lon="8.724960">
|
|
<ele>-26.542499</ele>
|
|
<time>2026-07-10T14:05:30.000Z</time>
|
|
</trkpt>
|
|
<trkpt lat="55.222112" lon="8.724955">
|
|
<ele>-26.514493</ele>
|
|
<time>2026-07-10T14:05:31.000Z</time>
|
|
</trkpt>
|
|
<trkpt lat="55.222169" lon="8.724950">
|
|
<ele>-26.486487</ele>
|
|
<time>2026-07-10T14:05:32.000Z</time>
|
|
</trkpt>
|
|
<trkpt lat="55.222227" lon="8.724944">
|
|
<ele>-26.457975</ele>
|
|
<time>2026-07-10T14:05:33.000Z</time>
|
|
</trkpt>
|
|
<trkpt lat="55.222283" lon="8.724939">
|
|
<ele>-26.430459</ele>
|
|
<time>2026-07-10T14:05:34.000Z</time>
|
|
</trkpt>
|
|
<trkpt lat="55.222336" lon="8.724933">
|
|
<ele>-26.404396</ele>
|
|
<time>2026-07-10T14:05:35.000Z</time>
|
|
</trkpt>
|
|
<trkpt lat="55.222390" lon="8.724928">
|
|
<ele>-26.377860</ele>
|
|
<time>2026-07-10T14:05:36.000Z</time>
|
|
</trkpt>
|
|
<trkpt lat="55.222446" lon="8.724922">
|
|
<ele>-26.350328</ele>
|
|
<time>2026-07-10T14:05:37.000Z</time>
|
|
</trkpt>
|
|
<trkpt lat="55.222499" lon="8.724917">
|
|
<ele>-26.324282</ele>
|
|
<time>2026-07-10T14:05:38.000Z</time>
|
|
</trkpt>
|
|
<trkpt lat="55.222550" lon="8.724912">
|
|
<ele>-26.299216</ele>
|
|
<time>2026-07-10T14:05:39.000Z</time>
|
|
</trkpt>
|
|
<trkpt lat="55.222602" lon="8.724905">
|
|
<ele>-26.273623</ele>
|
|
<time>2026-07-10T14:05:40.000Z</time>
|
|
</trkpt>
|
|
<trkpt lat="55.222654" lon="8.724900">
|
|
<ele>-26.248067</ele>
|
|
<time>2026-07-10T14:05:41.000Z</time>
|
|
</trkpt>
|
|
<trkpt lat="55.222710" lon="8.724895">
|
|
<ele>-26.220551</ele>
|
|
<time>2026-07-10T14:05:42.000Z</time>
|
|
</trkpt>
|
|
<trkpt lat="55.222763" lon="8.724891">
|
|
<ele>-26.194518</ele>
|
|
<time>2026-07-10T14:05:43.000Z</time>
|
|
</trkpt>
|
|
<trkpt lat="55.222818" lon="8.724888">
|
|
<ele>-26.167515</ele>
|
|
<time>2026-07-10T14:05:44.000Z</time>
|
|
</trkpt>
|
|
<trkpt lat="55.222874" lon="8.724886">
|
|
<ele>-26.140029</ele>
|
|
<time>2026-07-10T14:05:45.000Z</time>
|
|
</trkpt>
|
|
<trkpt lat="55.222927" lon="8.724885">
|
|
<ele>-26.114019</ele>
|
|
<time>2026-07-10T14:05:46.000Z</time>
|
|
</trkpt>
|
|
<trkpt lat="55.222982" lon="8.724887">
|
|
<ele>-26.087023</ele>
|
|
<time>2026-07-10T14:05:47.000Z</time>
|
|
</trkpt>
|
|
<trkpt lat="55.223038" lon="8.724895">
|
|
<ele>-26.059452</ele>
|
|
<time>2026-07-10T14:05:48.000Z</time>
|
|
</trkpt>
|
|
<trkpt lat="55.223090" lon="8.724907">
|
|
<ele>-26.033714</ele>
|
|
<time>2026-07-10T14:05:49.000Z</time>
|
|
</trkpt>
|
|
<trkpt lat="55.223140" lon="8.724918">
|
|
<ele>-26.008985</ele>
|
|
<time>2026-07-10T14:05:50.000Z</time>
|
|
</trkpt>
|
|
<trkpt lat="55.223193" lon="8.724923">
|
|
<ele>-25.982939</ele>
|
|
<time>2026-07-10T14:05:51.000Z</time>
|
|
</trkpt>
|
|
<trkpt lat="55.223244" lon="8.724923">
|
|
<ele>-25.957912</ele>
|
|
<time>2026-07-10T14:05:52.000Z</time>
|
|
</trkpt>
|
|
<trkpt lat="55.223296" lon="8.724920">
|
|
<ele>-25.932381</ele>
|
|
<time>2026-07-10T14:05:53.000Z</time>
|
|
</trkpt>
|
|
<trkpt lat="55.223347" lon="8.724915">
|
|
<ele>-25.917142</ele>
|
|
<time>2026-07-10T14:05:54.000Z</time>
|
|
</trkpt>
|
|
<trkpt lat="55.223400" lon="8.724908">
|
|
<ele>-25.912037</ele>
|
|
<time>2026-07-10T14:05:55.000Z</time>
|
|
</trkpt>
|
|
<trkpt lat="55.223453" lon="8.724905">
|
|
<ele>-25.906943</ele>
|
|
<time>2026-07-10T14:05:56.000Z</time>
|
|
</trkpt>
|
|
<trkpt lat="55.223503" lon="8.724904">
|
|
<ele>-25.902139</ele>
|
|
<time>2026-07-10T14:05:57.000Z</time>
|
|
</trkpt>
|
|
<trkpt lat="55.223557" lon="8.724900">
|
|
<ele>-25.896948</ele>
|
|
<time>2026-07-10T14:05:58.000Z</time>
|
|
</trkpt>
|
|
<trkpt lat="55.223610" lon="8.724896">
|
|
<ele>-25.891852</ele>
|
|
<time>2026-07-10T14:05:59.000Z</time>
|
|
</trkpt>
|
|
<trkpt lat="55.223663" lon="8.724890">
|
|
<ele>-25.886750</ele>
|
|
<time>2026-07-10T14:06:00.000Z</time>
|
|
</trkpt>
|
|
<trkpt lat="55.223711" lon="8.724883">
|
|
<ele>-25.882123</ele>
|
|
<time>2026-07-10T14:06:01.000Z</time>
|
|
</trkpt>
|
|
<trkpt lat="55.223755" lon="8.724876">
|
|
<ele>-25.877879</ele>
|
|
<time>2026-07-10T14:06:02.000Z</time>
|
|
</trkpt>
|
|
<trkpt lat="55.223796" lon="8.724869">
|
|
<ele>-25.873922</ele>
|
|
<time>2026-07-10T14:06:03.000Z</time>
|
|
</trkpt>
|
|
<trkpt lat="55.223831" lon="8.724856">
|
|
<ele>-25.870485</ele>
|
|
<time>2026-07-10T14:06:04.000Z</time>
|
|
</trkpt>
|
|
<trkpt lat="55.223857" lon="8.724830">
|
|
<ele>-25.867610</ele>
|
|
<time>2026-07-10T14:06:05.000Z</time>
|
|
</trkpt>
|
|
<trkpt lat="55.223878" lon="8.724784">
|
|
<ele>-25.864382</ele>
|
|
<time>2026-07-10T14:06:06.000Z</time>
|
|
</trkpt>
|
|
<trkpt lat="55.223892" lon="8.724724">
|
|
<ele>-25.860830</ele>
|
|
<time>2026-07-10T14:06:07.000Z</time>
|
|
</trkpt>
|
|
<trkpt lat="55.223902" lon="8.724657">
|
|
<ele>-25.857035</ele>
|
|
<time>2026-07-10T14:06:08.000Z</time>
|
|
</trkpt>
|
|
<trkpt lat="55.223912" lon="8.724589">
|
|
<ele>-25.853188</ele>
|
|
<time>2026-07-10T14:06:09.000Z</time>
|
|
</trkpt>
|
|
<trkpt lat="55.223928" lon="8.724523">
|
|
<ele>-25.849258</ele>
|
|
<time>2026-07-10T14:06:10.000Z</time>
|
|
</trkpt>
|
|
<trkpt lat="55.223949" lon="8.724459">
|
|
<ele>-25.845213</ele>
|
|
<time>2026-07-10T14:06:11.000Z</time>
|
|
</trkpt>
|
|
<trkpt lat="55.223974" lon="8.724394">
|
|
<ele>-25.840918</ele>
|
|
<time>2026-07-10T14:06:12.000Z</time>
|
|
</trkpt>
|
|
<trkpt lat="55.223995" lon="8.724329">
|
|
<ele>-25.836825</ele>
|
|
<time>2026-07-10T14:06:13.000Z</time>
|
|
</trkpt>
|
|
<trkpt lat="55.224022" lon="8.724262">
|
|
<ele>-25.832330</ele>
|
|
<time>2026-07-10T14:06:14.000Z</time>
|
|
</trkpt>
|
|
<trkpt lat="55.224049" lon="8.724195">
|
|
<ele>-25.827835</ele>
|
|
<time>2026-07-10T14:06:15.000Z</time>
|
|
</trkpt>
|
|
<trkpt lat="55.224076" lon="8.724130">
|
|
<ele>-25.823429</ele>
|
|
<time>2026-07-10T14:06:16.000Z</time>
|
|
</trkpt>
|
|
<trkpt lat="55.224102" lon="8.724064">
|
|
<ele>-25.819035</ele>
|
|
<time>2026-07-10T14:06:17.000Z</time>
|
|
</trkpt>
|
|
<trkpt lat="55.224129" lon="8.723999">
|
|
<ele>-25.814629</ele>
|
|
<time>2026-07-10T14:06:18.000Z</time>
|
|
</trkpt>
|
|
<trkpt lat="55.224158" lon="8.723935">
|
|
<ele>-25.810151</ele>
|
|
<time>2026-07-10T14:06:19.000Z</time>
|
|
</trkpt>
|
|
<trkpt lat="55.224192" lon="8.723870">
|
|
<ele>-25.805318</ele>
|
|
<time>2026-07-10T14:06:20.000Z</time>
|
|
</trkpt>
|
|
<trkpt lat="55.224228" lon="8.723810">
|
|
<ele>-25.800547</ele>
|
|
<time>2026-07-10T14:06:21.000Z</time>
|
|
</trkpt>
|
|
<trkpt lat="55.224265" lon="8.723751">
|
|
<ele>-25.795743</ele>
|
|
<time>2026-07-10T14:06:22.000Z</time>
|
|
</trkpt>
|
|
<trkpt lat="55.224299" lon="8.723691">
|
|
<ele>-25.791109</ele>
|
|
<time>2026-07-10T14:06:23.000Z</time>
|
|
</trkpt>
|
|
<trkpt lat="55.224334" lon="8.723629">
|
|
<ele>-25.786329</ele>
|
|
<time>2026-07-10T14:06:24.000Z</time>
|
|
</trkpt>
|
|
<trkpt lat="55.224371" lon="8.723565">
|
|
<ele>-25.781336</ele>
|
|
<time>2026-07-10T14:06:25.000Z</time>
|
|
</trkpt>
|
|
<trkpt lat="55.224404" lon="8.723497">
|
|
<ele>-25.776445</ele>
|
|
<time>2026-07-10T14:06:26.000Z</time>
|
|
</trkpt>
|
|
<trkpt lat="55.224435" lon="8.723430">
|
|
<ele>-25.771718</ele>
|
|
<time>2026-07-10T14:06:27.000Z</time>
|
|
</trkpt>
|
|
<trkpt lat="55.224465" lon="8.723364">
|
|
<ele>-25.767094</ele>
|
|
<time>2026-07-10T14:06:28.000Z</time>
|
|
</trkpt>
|
|
<trkpt lat="55.224496" lon="8.723299">
|
|
<ele>-25.762451</ele>
|
|
<time>2026-07-10T14:06:29.000Z</time>
|
|
</trkpt>
|
|
<trkpt lat="55.224529" lon="8.723234">
|
|
<ele>-25.757684</ele>
|
|
<time>2026-07-10T14:06:30.000Z</time>
|
|
</trkpt>
|
|
<trkpt lat="55.224566" lon="8.723168">
|
|
<ele>-25.752613</ele>
|
|
<time>2026-07-10T14:06:31.000Z</time>
|
|
</trkpt>
|
|
<trkpt lat="55.224601" lon="8.723102">
|
|
<ele>-25.747676</ele>
|
|
<time>2026-07-10T14:06:32.000Z</time>
|
|
</trkpt>
|
|
<trkpt lat="55.224641" lon="8.723033">
|
|
<ele>-25.769152</ele>
|
|
<time>2026-07-10T14:06:33.000Z</time>
|
|
</trkpt>
|
|
<trkpt lat="55.224680" lon="8.722966">
|
|
<ele>-25.795430</ele>
|
|
<time>2026-07-10T14:06:34.000Z</time>
|
|
</trkpt>
|
|
<trkpt lat="55.224716" lon="8.722902">
|
|
<ele>-25.820103</ele>
|
|
<time>2026-07-10T14:06:35.000Z</time>
|
|
</trkpt>
|
|
<trkpt lat="55.224753" lon="8.722835">
|
|
<ele>-25.845702</ele>
|
|
<time>2026-07-10T14:06:36.000Z</time>
|
|
</trkpt>
|
|
<trkpt lat="55.224787" lon="8.722769">
|
|
<ele>-25.870114</ele>
|
|
<time>2026-07-10T14:06:37.000Z</time>
|
|
</trkpt>
|
|
<trkpt lat="55.224822" lon="8.722703">
|
|
<ele>-25.894851</ele>
|
|
<time>2026-07-10T14:06:38.000Z</time>
|
|
</trkpt>
|
|
<trkpt lat="55.224861" lon="8.722637">
|
|
<ele>-25.920937</ele>
|
|
<time>2026-07-10T14:06:39.000Z</time>
|
|
</trkpt>
|
|
<trkpt lat="55.224899" lon="8.722573">
|
|
<ele>-25.946296</ele>
|
|
<time>2026-07-10T14:06:40.000Z</time>
|
|
</trkpt>
|
|
<trkpt lat="55.224937" lon="8.722508">
|
|
<ele>-25.971845</ele>
|
|
<time>2026-07-10T14:06:41.000Z</time>
|
|
</trkpt>
|
|
<trkpt lat="55.224975" lon="8.722442">
|
|
<ele>-25.997587</ele>
|
|
<time>2026-07-10T14:06:42.000Z</time>
|
|
</trkpt>
|
|
<trkpt lat="55.225011" lon="8.722375">
|
|
<ele>-26.022853</ele>
|
|
<time>2026-07-10T14:06:43.000Z</time>
|
|
</trkpt>
|
|
<trkpt lat="55.225045" lon="8.722307">
|
|
<ele>-26.047675</ele>
|
|
<time>2026-07-10T14:06:44.000Z</time>
|
|
</trkpt>
|
|
<trkpt lat="55.225086" lon="8.722241">
|
|
<ele>-26.074462</ele>
|
|
<time>2026-07-10T14:06:45.000Z</time>
|
|
</trkpt>
|
|
<trkpt lat="55.225123" lon="8.722175">
|
|
<ele>-26.099864</ele>
|
|
<time>2026-07-10T14:06:46.000Z</time>
|
|
</trkpt>
|
|
<trkpt lat="55.225158" lon="8.722109">
|
|
<ele>-26.124601</ele>
|
|
<time>2026-07-10T14:06:47.000Z</time>
|
|
</trkpt>
|
|
<trkpt lat="55.225195" lon="8.722043">
|
|
<ele>-26.150003</ele>
|
|
<time>2026-07-10T14:06:48.000Z</time>
|
|
</trkpt>
|
|
<trkpt lat="55.225229" lon="8.721977">
|
|
<ele>-26.174415</ele>
|
|
<time>2026-07-10T14:06:49.000Z</time>
|
|
</trkpt>
|
|
<trkpt lat="55.225265" lon="8.721910">
|
|
<ele>-26.199681</ele>
|
|
<time>2026-07-10T14:06:50.000Z</time>
|
|
</trkpt>
|
|
<trkpt lat="55.225303" lon="8.721845">
|
|
<ele>-26.225231</ele>
|
|
<time>2026-07-10T14:06:51.000Z</time>
|
|
</trkpt>
|
|
<trkpt lat="55.225341" lon="8.721778">
|
|
<ele>-26.251166</ele>
|
|
<time>2026-07-10T14:06:52.000Z</time>
|
|
</trkpt>
|
|
<trkpt lat="55.225378" lon="8.721712">
|
|
<ele>-26.276568</ele>
|
|
<time>2026-07-10T14:06:53.000Z</time>
|
|
</trkpt>
|
|
<trkpt lat="55.225412" lon="8.721645">
|
|
<ele>-26.301184</ele>
|
|
<time>2026-07-10T14:06:54.000Z</time>
|
|
</trkpt>
|
|
<trkpt lat="55.225447" lon="8.721575">
|
|
<ele>-26.326736</ele>
|
|
<time>2026-07-10T14:06:55.000Z</time>
|
|
</trkpt>
|
|
<trkpt lat="55.225482" lon="8.721509">
|
|
<ele>-26.351473</ele>
|
|
<time>2026-07-10T14:06:56.000Z</time>
|
|
</trkpt>
|
|
<trkpt lat="55.225521" lon="8.721445">
|
|
<ele>-26.377181</ele>
|
|
<time>2026-07-10T14:06:57.000Z</time>
|
|
</trkpt>
|
|
<trkpt lat="55.225559" lon="8.721381">
|
|
<ele>-26.402539</ele>
|
|
<time>2026-07-10T14:06:58.000Z</time>
|
|
</trkpt>
|
|
<trkpt lat="55.225597" lon="8.721313">
|
|
<ele>-26.428670</ele>
|
|
<time>2026-07-10T14:06:59.000Z</time>
|
|
</trkpt>
|
|
<trkpt lat="55.225634" lon="8.721245">
|
|
<ele>-26.454466</ele>
|
|
<time>2026-07-10T14:07:00.000Z</time>
|
|
</trkpt>
|
|
<trkpt lat="55.225669" lon="8.721177">
|
|
<ele>-26.479608</ele>
|
|
<time>2026-07-10T14:07:01.000Z</time>
|
|
</trkpt>
|
|
<trkpt lat="55.225708" lon="8.721109">
|
|
<ele>-26.506078</ele>
|
|
<time>2026-07-10T14:07:02.000Z</time>
|
|
</trkpt>
|
|
<trkpt lat="55.225745" lon="8.721043">
|
|
<ele>-26.531480</ele>
|
|
<time>2026-07-10T14:07:03.000Z</time>
|
|
</trkpt>
|
|
<trkpt lat="55.225780" lon="8.720976">
|
|
<ele>-26.556418</ele>
|
|
<time>2026-07-10T14:07:04.000Z</time>
|
|
</trkpt>
|
|
<trkpt lat="55.225818" lon="8.720909">
|
|
<ele>-26.582354</ele>
|
|
<time>2026-07-10T14:07:05.000Z</time>
|
|
</trkpt>
|
|
<trkpt lat="55.225856" lon="8.720844">
|
|
<ele>-26.607903</ele>
|
|
<time>2026-07-10T14:07:06.000Z</time>
|
|
</trkpt>
|
|
<trkpt lat="55.225893" lon="8.720777">
|
|
<ele>-26.644239</ele>
|
|
<time>2026-07-10T14:07:07.000Z</time>
|
|
</trkpt>
|
|
<trkpt lat="55.225929" lon="8.720711">
|
|
<ele>-26.682042</ele>
|
|
<time>2026-07-10T14:07:08.000Z</time>
|
|
</trkpt>
|
|
<trkpt lat="55.225966" lon="8.720644">
|
|
<ele>-26.720646</ele>
|
|
<time>2026-07-10T14:07:09.000Z</time>
|
|
</trkpt>
|
|
<trkpt lat="55.226001" lon="8.720579">
|
|
<ele>-26.757649</ele>
|
|
<time>2026-07-10T14:07:10.000Z</time>
|
|
</trkpt>
|
|
<trkpt lat="55.226039" lon="8.720512">
|
|
<ele>-26.796762</ele>
|
|
<time>2026-07-10T14:07:11.000Z</time>
|
|
</trkpt>
|
|
<trkpt lat="55.226077" lon="8.720445">
|
|
<ele>-26.835874</ele>
|
|
<time>2026-07-10T14:07:12.000Z</time>
|
|
</trkpt>
|
|
<trkpt lat="55.226112" lon="8.720377">
|
|
<ele>-26.873790</ele>
|
|
<time>2026-07-10T14:07:13.000Z</time>
|
|
</trkpt>
|
|
<trkpt lat="55.226149" lon="8.720310">
|
|
<ele>-26.912394</ele>
|
|
<time>2026-07-10T14:07:14.000Z</time>
|
|
</trkpt>
|
|
<trkpt lat="55.226184" lon="8.720242">
|
|
<ele>-26.950310</ele>
|
|
<time>2026-07-10T14:07:15.000Z</time>
|
|
</trkpt>
|
|
<trkpt lat="55.226222" lon="8.720172">
|
|
<ele>-26.990312</ele>
|
|
<time>2026-07-10T14:07:16.000Z</time>
|
|
</trkpt>
|
|
<trkpt lat="55.226256" lon="8.720101">
|
|
<ele>-27.028688</ele>
|
|
<time>2026-07-10T14:07:17.000Z</time>
|
|
</trkpt>
|
|
<trkpt lat="55.226291" lon="8.720032">
|
|
<ele>-27.066912</ele>
|
|
<time>2026-07-10T14:07:18.000Z</time>
|
|
</trkpt>
|
|
<trkpt lat="55.226329" lon="8.719963">
|
|
<ele>-27.106615</ele>
|
|
<time>2026-07-10T14:07:19.000Z</time>
|
|
</trkpt>
|
|
<trkpt lat="55.226366" lon="8.719896">
|
|
<ele>-27.145220</ele>
|
|
<time>2026-07-10T14:07:20.000Z</time>
|
|
</trkpt>
|
|
<trkpt lat="55.226402" lon="8.719827">
|
|
<ele>-27.183929</ele>
|
|
<time>2026-07-10T14:07:21.000Z</time>
|
|
</trkpt>
|
|
<trkpt lat="55.226440" lon="8.719761">
|
|
<ele>-27.222750</ele>
|
|
<time>2026-07-10T14:07:22.000Z</time>
|
|
</trkpt>
|
|
<trkpt lat="55.226477" lon="8.719696">
|
|
<ele>-27.260763</ele>
|
|
<time>2026-07-10T14:07:23.000Z</time>
|
|
</trkpt>
|
|
<trkpt lat="55.226512" lon="8.719628">
|
|
<ele>-27.298679</ele>
|
|
<time>2026-07-10T14:07:24.000Z</time>
|
|
</trkpt>
|
|
<trkpt lat="55.226549" lon="8.719560">
|
|
<ele>-27.337581</ele>
|
|
<time>2026-07-10T14:07:25.000Z</time>
|
|
</trkpt>
|
|
<trkpt lat="55.226585" lon="8.719493">
|
|
<ele>-27.375684</ele>
|
|
<time>2026-07-10T14:07:26.000Z</time>
|
|
</trkpt>
|
|
<trkpt lat="55.226623" lon="8.719426">
|
|
<ele>-27.414797</ele>
|
|
<time>2026-07-10T14:07:27.000Z</time>
|
|
</trkpt>
|
|
<trkpt lat="55.226661" lon="8.719359">
|
|
<ele>-27.453909</ele>
|
|
<time>2026-07-10T14:07:28.000Z</time>
|
|
</trkpt>
|
|
<trkpt lat="55.226698" lon="8.719291">
|
|
<ele>-27.492812</ele>
|
|
<time>2026-07-10T14:07:29.000Z</time>
|
|
</trkpt>
|
|
<trkpt lat="55.226733" lon="8.719223">
|
|
<ele>-27.530727</ele>
|
|
<time>2026-07-10T14:07:30.000Z</time>
|
|
</trkpt>
|
|
<trkpt lat="55.226767" lon="8.719153">
|
|
<ele>-27.568786</ele>
|
|
<time>2026-07-10T14:07:31.000Z</time>
|
|
</trkpt>
|
|
<trkpt lat="55.226802" lon="8.719083">
|
|
<ele>-27.607319</ele>
|
|
<time>2026-07-10T14:07:32.000Z</time>
|
|
</trkpt>
|
|
<trkpt lat="55.226841" lon="8.719016">
|
|
<ele>-27.646947</ele>
|
|
<time>2026-07-10T14:07:33.000Z</time>
|
|
</trkpt>
|
|
<trkpt lat="55.226879" lon="8.718948">
|
|
<ele>-27.686354</ele>
|
|
<time>2026-07-10T14:07:34.000Z</time>
|
|
</trkpt>
|
|
<trkpt lat="55.226916" lon="8.718880">
|
|
<ele>-27.725256</ele>
|
|
<time>2026-07-10T14:07:35.000Z</time>
|
|
</trkpt>
|
|
<trkpt lat="55.226952" lon="8.718810">
|
|
<ele>-27.764272</ele>
|
|
<time>2026-07-10T14:07:36.000Z</time>
|
|
</trkpt>
|
|
<trkpt lat="55.226991" lon="8.718739">
|
|
<ele>-27.805075</ele>
|
|
<time>2026-07-10T14:07:37.000Z</time>
|
|
</trkpt>
|
|
<trkpt lat="55.227022" lon="8.718670">
|
|
<ele>-27.841434</ele>
|
|
<time>2026-07-10T14:07:38.000Z</time>
|
|
</trkpt>
|
|
<trkpt lat="55.227058" lon="8.718599">
|
|
<ele>-27.880758</ele>
|
|
<time>2026-07-10T14:07:39.000Z</time>
|
|
</trkpt>
|
|
<trkpt lat="55.227094" lon="8.718527">
|
|
<ele>-27.919274</ele>
|
|
<time>2026-07-10T14:07:40.000Z</time>
|
|
</trkpt>
|
|
<trkpt lat="55.227126" lon="8.718453">
|
|
<ele>-27.941226</ele>
|
|
<time>2026-07-10T14:07:41.000Z</time>
|
|
</trkpt>
|
|
<trkpt lat="55.227160" lon="8.718377">
|
|
<ele>-27.964059</ele>
|
|
<time>2026-07-10T14:07:42.000Z</time>
|
|
</trkpt>
|
|
<trkpt lat="55.227193" lon="8.718300">
|
|
<ele>-27.986827</ele>
|
|
<time>2026-07-10T14:07:43.000Z</time>
|
|
</trkpt>
|
|
<trkpt lat="55.227222" lon="8.718222">
|
|
<ele>-28.008837</ele>
|
|
<time>2026-07-10T14:07:44.000Z</time>
|
|
</trkpt>
|
|
<trkpt lat="55.227249" lon="8.718140">
|
|
<ele>-28.031219</ele>
|
|
<time>2026-07-10T14:07:45.000Z</time>
|
|
</trkpt>
|
|
<trkpt lat="55.227280" lon="8.718058">
|
|
<ele>-28.054474</ele>
|
|
<time>2026-07-10T14:07:46.000Z</time>
|
|
</trkpt>
|
|
<trkpt lat="55.227310" lon="8.717977">
|
|
<ele>-28.077304</ele>
|
|
<time>2026-07-10T14:07:47.000Z</time>
|
|
</trkpt>
|
|
<trkpt lat="55.227336" lon="8.717894">
|
|
<ele>-28.099689</ele>
|
|
<time>2026-07-10T14:07:48.000Z</time>
|
|
</trkpt>
|
|
<trkpt lat="55.227363" lon="8.717811">
|
|
<ele>-28.122276</ele>
|
|
<time>2026-07-10T14:07:49.000Z</time>
|
|
</trkpt>
|
|
<trkpt lat="55.227388" lon="8.717727">
|
|
<ele>-28.144673</ele>
|
|
<time>2026-07-10T14:07:50.000Z</time>
|
|
</trkpt>
|
|
<trkpt lat="55.227408" lon="8.717640">
|
|
<ele>-28.166847</ele>
|
|
<time>2026-07-10T14:07:51.000Z</time>
|
|
</trkpt>
|
|
<trkpt lat="55.227431" lon="8.717553">
|
|
<ele>-28.189514</ele>
|
|
<time>2026-07-10T14:07:52.000Z</time>
|
|
</trkpt>
|
|
<trkpt lat="55.227453" lon="8.717463">
|
|
<ele>-28.212660</ele>
|
|
<time>2026-07-10T14:07:53.000Z</time>
|
|
</trkpt>
|
|
<trkpt lat="55.227472" lon="8.717375">
|
|
<ele>-28.234903</ele>
|
|
<time>2026-07-10T14:07:54.000Z</time>
|
|
</trkpt>
|
|
<trkpt lat="55.227491" lon="8.717290">
|
|
<ele>-28.256484</ele>
|
|
<time>2026-07-10T14:07:55.000Z</time>
|
|
</trkpt>
|
|
<trkpt lat="55.227508" lon="8.717200">
|
|
<ele>-28.278895</ele>
|
|
<time>2026-07-10T14:07:56.000Z</time>
|
|
</trkpt>
|
|
<trkpt lat="55.227526" lon="8.717106">
|
|
<ele>-28.302334</ele>
|
|
<time>2026-07-10T14:07:57.000Z</time>
|
|
</trkpt>
|
|
<trkpt lat="55.227547" lon="8.717008">
|
|
<ele>-28.327080</ele>
|
|
<time>2026-07-10T14:07:58.000Z</time>
|
|
</trkpt>
|
|
<trkpt lat="55.227564" lon="8.716915">
|
|
<ele>-28.350166</ele>
|
|
<time>2026-07-10T14:07:59.000Z</time>
|
|
</trkpt>
|
|
<trkpt lat="55.227586" lon="8.716824">
|
|
<ele>-28.373529</ele>
|
|
<time>2026-07-10T14:08:00.000Z</time>
|
|
</trkpt>
|
|
<trkpt lat="55.227605" lon="8.716732">
|
|
<ele>-28.396658</ele>
|
|
<time>2026-07-10T14:08:01.000Z</time>
|
|
</trkpt>
|
|
<trkpt lat="55.227625" lon="8.716638">
|
|
<ele>-28.420374</ele>
|
|
<time>2026-07-10T14:08:02.000Z</time>
|
|
</trkpt>
|
|
<trkpt lat="55.227641" lon="8.716543">
|
|
<ele>-28.443789</ele>
|
|
<time>2026-07-10T14:08:03.000Z</time>
|
|
</trkpt>
|
|
<trkpt lat="55.227654" lon="8.716446">
|
|
<ele>-28.467343</ele>
|
|
<time>2026-07-10T14:08:04.000Z</time>
|
|
</trkpt>
|
|
<trkpt lat="55.227669" lon="8.716352">
|
|
<ele>-28.490416</ele>
|
|
<time>2026-07-10T14:08:05.000Z</time>
|
|
</trkpt>
|
|
<trkpt lat="55.227684" lon="8.716260">
|
|
<ele>-28.513035</ele>
|
|
<time>2026-07-10T14:08:06.000Z</time>
|
|
</trkpt>
|
|
<trkpt lat="55.227700" lon="8.716173">
|
|
<ele>-28.534643</ele>
|
|
<time>2026-07-10T14:08:07.000Z</time>
|
|
</trkpt>
|
|
<trkpt lat="55.227715" lon="8.716083">
|
|
<ele>-28.556807</ele>
|
|
<time>2026-07-10T14:08:08.000Z</time>
|
|
</trkpt>
|
|
<trkpt lat="55.227730" lon="8.715994">
|
|
<ele>-28.578744</ele>
|
|
<time>2026-07-10T14:08:09.000Z</time>
|
|
</trkpt>
|
|
<trkpt lat="55.227746" lon="8.715906">
|
|
<ele>-28.600577</ele>
|
|
<time>2026-07-10T14:08:10.000Z</time>
|
|
</trkpt>
|
|
<trkpt lat="55.227761" lon="8.715821">
|
|
<ele>-28.621610</ele>
|
|
<time>2026-07-10T14:08:11.000Z</time>
|
|
</trkpt>
|
|
<trkpt lat="55.227775" lon="8.715738">
|
|
<ele>-28.642070</ele>
|
|
<time>2026-07-10T14:08:12.000Z</time>
|
|
</trkpt>
|
|
<trkpt lat="55.227786" lon="8.715653">
|
|
<ele>-28.662673</ele>
|
|
<time>2026-07-10T14:08:13.000Z</time>
|
|
</trkpt>
|
|
<trkpt lat="55.227798" lon="8.715571">
|
|
<ele>-28.651773</ele>
|
|
<time>2026-07-10T14:08:14.000Z</time>
|
|
</trkpt>
|
|
<trkpt lat="55.227808" lon="8.715494">
|
|
<ele>-28.640707</ele>
|
|
<time>2026-07-10T14:08:15.000Z</time>
|
|
</trkpt>
|
|
<trkpt lat="55.227817" lon="8.715425">
|
|
<ele>-28.630788</ele>
|
|
<time>2026-07-10T14:08:16.000Z</time>
|
|
</trkpt>
|
|
<trkpt lat="55.227828" lon="8.715358">
|
|
<ele>-28.621019</ele>
|
|
<time>2026-07-10T14:08:17.000Z</time>
|
|
</trkpt>
|
|
<trkpt lat="55.227839" lon="8.715285">
|
|
<ele>-28.610439</ele>
|
|
<time>2026-07-10T14:08:18.000Z</time>
|
|
</trkpt>
|
|
<trkpt lat="55.227849" lon="8.715214">
|
|
<ele>-28.600191</ele>
|
|
<time>2026-07-10T14:08:19.000Z</time>
|
|
</trkpt>
|
|
<trkpt lat="55.227865" lon="8.715149">
|
|
<ele>-28.590270</ele>
|
|
<time>2026-07-10T14:08:20.000Z</time>
|
|
</trkpt>
|
|
<trkpt lat="55.227888" lon="8.715092">
|
|
<ele>-28.580486</ele>
|
|
<time>2026-07-10T14:08:21.000Z</time>
|
|
</trkpt>
|
|
<trkpt lat="55.227924" lon="8.715052">
|
|
<ele>-28.570015</ele>
|
|
<time>2026-07-10T14:08:22.000Z</time>
|
|
</trkpt>
|
|
<trkpt lat="55.227968" lon="8.715034">
|
|
<ele>-28.558914</ele>
|
|
<time>2026-07-10T14:08:23.000Z</time>
|
|
</trkpt>
|
|
<trkpt lat="55.228013" lon="8.715031">
|
|
<ele>-28.547849</ele>
|
|
<time>2026-07-10T14:08:24.000Z</time>
|
|
</trkpt>
|
|
<trkpt lat="55.228058" lon="8.715042">
|
|
<ele>-28.536686</ele>
|
|
<time>2026-07-10T14:08:25.000Z</time>
|
|
</trkpt>
|
|
<trkpt lat="55.228100" lon="8.715062">
|
|
<ele>-28.525993</ele>
|
|
<time>2026-07-10T14:08:26.000Z</time>
|
|
</trkpt>
|
|
<trkpt lat="55.228143" lon="8.715088">
|
|
<ele>-28.514817</ele>
|
|
<time>2026-07-10T14:08:27.000Z</time>
|
|
</trkpt>
|
|
<trkpt lat="55.228189" lon="8.715113">
|
|
<ele>-28.502985</ele>
|
|
<time>2026-07-10T14:08:28.000Z</time>
|
|
</trkpt>
|
|
<trkpt lat="55.228235" lon="8.715132">
|
|
<ele>-28.491373</ele>
|
|
<time>2026-07-10T14:08:29.000Z</time>
|
|
</trkpt>
|
|
<trkpt lat="55.228283" lon="8.715148">
|
|
<ele>-28.479369</ele>
|
|
<time>2026-07-10T14:08:30.000Z</time>
|
|
</trkpt>
|
|
<trkpt lat="55.228326" lon="8.715165">
|
|
<ele>-28.468538</ele>
|
|
<time>2026-07-10T14:08:31.000Z</time>
|
|
</trkpt>
|
|
<trkpt lat="55.228373" lon="8.715184">
|
|
<ele>-28.456688</ele>
|
|
<time>2026-07-10T14:08:32.000Z</time>
|
|
</trkpt>
|
|
<trkpt lat="55.228422" lon="8.715203">
|
|
<ele>-28.444358</ele>
|
|
<time>2026-07-10T14:08:33.000Z</time>
|
|
</trkpt>
|
|
<trkpt lat="55.228468" lon="8.715219">
|
|
<ele>-28.432835</ele>
|
|
<time>2026-07-10T14:08:34.000Z</time>
|
|
</trkpt>
|
|
<trkpt lat="55.228514" lon="8.715235">
|
|
<ele>-28.421313</ele>
|
|
<time>2026-07-10T14:08:35.000Z</time>
|
|
</trkpt>
|
|
<trkpt lat="55.228559" lon="8.715252">
|
|
<ele>-28.410003</ele>
|
|
<time>2026-07-10T14:08:36.000Z</time>
|
|
</trkpt>
|
|
<trkpt lat="55.228606" lon="8.715272">
|
|
<ele>-28.398120</ele>
|
|
<time>2026-07-10T14:08:37.000Z</time>
|
|
</trkpt>
|
|
<trkpt lat="55.228655" lon="8.715289">
|
|
<ele>-28.385847</ele>
|
|
<time>2026-07-10T14:08:38.000Z</time>
|
|
</trkpt>
|
|
<trkpt lat="55.228702" lon="8.715303">
|
|
<ele>-28.374134</ele>
|
|
<time>2026-07-10T14:08:39.000Z</time>
|
|
</trkpt>
|
|
<trkpt lat="55.228750" lon="8.715318">
|
|
<ele>-28.362154</ele>
|
|
<time>2026-07-10T14:08:40.000Z</time>
|
|
</trkpt>
|
|
<trkpt lat="55.228796" lon="8.715336">
|
|
<ele>-28.350574</ele>
|
|
<time>2026-07-10T14:08:41.000Z</time>
|
|
</trkpt>
|
|
<trkpt lat="55.228843" lon="8.715355">
|
|
<ele>-28.338724</ele>
|
|
<time>2026-07-10T14:08:42.000Z</time>
|
|
</trkpt>
|
|
<trkpt lat="55.228891" lon="8.715373">
|
|
<ele>-28.326663</ele>
|
|
<time>2026-07-10T14:08:43.000Z</time>
|
|
</trkpt>
|
|
<trkpt lat="55.228937" lon="8.715391">
|
|
<ele>-28.315083</ele>
|
|
<time>2026-07-10T14:08:44.000Z</time>
|
|
</trkpt>
|
|
<trkpt lat="55.228983" lon="8.715411">
|
|
<ele>-28.303439</ele>
|
|
<time>2026-07-10T14:08:45.000Z</time>
|
|
</trkpt>
|
|
<trkpt lat="55.229030" lon="8.715428">
|
|
<ele>-28.291648</ele>
|
|
<time>2026-07-10T14:08:46.000Z</time>
|
|
</trkpt>
|
|
<trkpt lat="55.229078" lon="8.715442">
|
|
<ele>-28.279692</ele>
|
|
<time>2026-07-10T14:08:47.000Z</time>
|
|
</trkpt>
|
|
<trkpt lat="55.229124" lon="8.715458">
|
|
<ele>-28.268170</ele>
|
|
<time>2026-07-10T14:08:48.000Z</time>
|
|
</trkpt>
|
|
<trkpt lat="55.229171" lon="8.715477">
|
|
<ele>-28.256319</ele>
|
|
<time>2026-07-10T14:08:49.000Z</time>
|
|
</trkpt>
|
|
<trkpt lat="55.229221" lon="8.715496">
|
|
<ele>-28.243749</ele>
|
|
<time>2026-07-10T14:08:50.000Z</time>
|
|
</trkpt>
|
|
<trkpt lat="55.229271" lon="8.715514">
|
|
<ele>-28.231208</ele>
|
|
<time>2026-07-10T14:08:51.000Z</time>
|
|
</trkpt>
|
|
<trkpt lat="55.229314" lon="8.715533">
|
|
<ele>-28.219654</ele>
|
|
<time>2026-07-10T14:08:52.000Z</time>
|
|
</trkpt>
|
|
<trkpt lat="55.229362" lon="8.715556">
|
|
<ele>-28.199685</ele>
|
|
<time>2026-07-10T14:08:53.000Z</time>
|
|
</trkpt>
|
|
<trkpt lat="55.229410" lon="8.715580">
|
|
<ele>-28.179654</ele>
|
|
<time>2026-07-10T14:08:54.000Z</time>
|
|
</trkpt>
|
|
<trkpt lat="55.229456" lon="8.715600">
|
|
<ele>-28.160635</ele>
|
|
<time>2026-07-10T14:08:55.000Z</time>
|
|
</trkpt>
|
|
<trkpt lat="55.229503" lon="8.715619">
|
|
<ele>-28.141279</ele>
|
|
<time>2026-07-10T14:08:56.000Z</time>
|
|
</trkpt>
|
|
<trkpt lat="55.229551" lon="8.715638">
|
|
<ele>-28.121532</ele>
|
|
<time>2026-07-10T14:08:57.000Z</time>
|
|
</trkpt>
|
|
<trkpt lat="55.229598" lon="8.715654">
|
|
<ele>-28.102319</ele>
|
|
<time>2026-07-10T14:08:58.000Z</time>
|
|
</trkpt>
|
|
<trkpt lat="55.229644" lon="8.715669">
|
|
<ele>-28.083542</ele>
|
|
<time>2026-07-10T14:08:59.000Z</time>
|
|
</trkpt>
|
|
<trkpt lat="55.229684" lon="8.715684">
|
|
<ele>-28.067127</ele>
|
|
<time>2026-07-10T14:09:00.000Z</time>
|
|
</trkpt>
|
|
<trkpt lat="55.229726" lon="8.715705">
|
|
<ele>-28.049600</ele>
|
|
<time>2026-07-10T14:09:01.000Z</time>
|
|
</trkpt>
|
|
<trkpt lat="55.229773" lon="8.715727">
|
|
<ele>-28.030079</ele>
|
|
<time>2026-07-10T14:09:02.000Z</time>
|
|
</trkpt>
|
|
<trkpt lat="55.229826" lon="8.715747">
|
|
<ele>-28.008322</ele>
|
|
<time>2026-07-10T14:09:03.000Z</time>
|
|
</trkpt>
|
|
<trkpt lat="55.229874" lon="8.715763">
|
|
<ele>-27.988715</ele>
|
|
<time>2026-07-10T14:09:04.000Z</time>
|
|
</trkpt>
|
|
<trkpt lat="55.229920" lon="8.715775">
|
|
<ele>-27.970052</ele>
|
|
<time>2026-07-10T14:09:05.000Z</time>
|
|
</trkpt>
|
|
<trkpt lat="55.229967" lon="8.715791">
|
|
<ele>-27.950838</ele>
|
|
<time>2026-07-10T14:09:06.000Z</time>
|
|
</trkpt>
|
|
<trkpt lat="55.230016" lon="8.715811">
|
|
<ele>-27.930649</ele>
|
|
<time>2026-07-10T14:09:07.000Z</time>
|
|
</trkpt>
|
|
<trkpt lat="55.230062" lon="8.715833">
|
|
<ele>-27.911514</ele>
|
|
<time>2026-07-10T14:09:08.000Z</time>
|
|
</trkpt>
|
|
<trkpt lat="55.230109" lon="8.715853">
|
|
<ele>-27.892106</ele>
|
|
<time>2026-07-10T14:09:09.000Z</time>
|
|
</trkpt>
|
|
<trkpt lat="55.230159" lon="8.715873">
|
|
<ele>-27.871525</ele>
|
|
<time>2026-07-10T14:09:10.000Z</time>
|
|
</trkpt>
|
|
<trkpt lat="55.230211" lon="8.715897">
|
|
<ele>-27.849946</ele>
|
|
<time>2026-07-10T14:09:11.000Z</time>
|
|
</trkpt>
|
|
<trkpt lat="55.230262" lon="8.715921">
|
|
<ele>-27.828756</ele>
|
|
<time>2026-07-10T14:09:12.000Z</time>
|
|
</trkpt>
|
|
<trkpt lat="55.230314" lon="8.715945">
|
|
<ele>-27.807177</ele>
|
|
<time>2026-07-10T14:09:13.000Z</time>
|
|
</trkpt>
|
|
<trkpt lat="55.230364" lon="8.715967">
|
|
<ele>-27.786490</ele>
|
|
<time>2026-07-10T14:09:14.000Z</time>
|
|
</trkpt>
|
|
<trkpt lat="55.230418" lon="8.715990">
|
|
<ele>-27.764189</ele>
|
|
<time>2026-07-10T14:09:15.000Z</time>
|
|
</trkpt>
|
|
<trkpt lat="55.230470" lon="8.716013">
|
|
<ele>-27.742668</ele>
|
|
<time>2026-07-10T14:09:16.000Z</time>
|
|
</trkpt>
|
|
<trkpt lat="55.230522" lon="8.716038">
|
|
<ele>-27.721030</ele>
|
|
<time>2026-07-10T14:09:17.000Z</time>
|
|
</trkpt>
|
|
<trkpt lat="55.230572" lon="8.716064">
|
|
<ele>-27.700101</ele>
|
|
<time>2026-07-10T14:09:18.000Z</time>
|
|
</trkpt>
|
|
<trkpt lat="55.230625" lon="8.716089">
|
|
<ele>-27.678076</ele>
|
|
<time>2026-07-10T14:09:19.000Z</time>
|
|
</trkpt>
|
|
<trkpt lat="55.230679" lon="8.716113">
|
|
<ele>-27.655720</ele>
|
|
<time>2026-07-10T14:09:20.000Z</time>
|
|
</trkpt>
|
|
<trkpt lat="55.230731" lon="8.716137">
|
|
<ele>-27.634142</ele>
|
|
<time>2026-07-10T14:09:21.000Z</time>
|
|
</trkpt>
|
|
<trkpt lat="55.230781" lon="8.716161">
|
|
<ele>-27.613338</ele>
|
|
<time>2026-07-10T14:09:22.000Z</time>
|
|
</trkpt>
|
|
<trkpt lat="55.230831" lon="8.716184">
|
|
<ele>-27.592594</ele>
|
|
<time>2026-07-10T14:09:23.000Z</time>
|
|
</trkpt>
|
|
<trkpt lat="55.230885" lon="8.716207">
|
|
<ele>-27.570294</ele>
|
|
<time>2026-07-10T14:09:24.000Z</time>
|
|
</trkpt>
|
|
<trkpt lat="55.230937" lon="8.716231">
|
|
<ele>-27.548715</ele>
|
|
<time>2026-07-10T14:09:25.000Z</time>
|
|
</trkpt>
|
|
<trkpt lat="55.230988" lon="8.716258">
|
|
<ele>-27.527336</ele>
|
|
<time>2026-07-10T14:09:26.000Z</time>
|
|
</trkpt>
|
|
<trkpt lat="55.231040" lon="8.716282">
|
|
<ele>-27.505758</ele>
|
|
<time>2026-07-10T14:09:27.000Z</time>
|
|
</trkpt>
|
|
<trkpt lat="55.231090" lon="8.716305">
|
|
<ele>-27.496784</ele>
|
|
<time>2026-07-10T14:09:28.000Z</time>
|
|
</trkpt>
|
|
<trkpt lat="55.231144" lon="8.716329">
|
|
<ele>-27.492532</ele>
|
|
<time>2026-07-10T14:09:29.000Z</time>
|
|
</trkpt>
|
|
<trkpt lat="55.231197" lon="8.716352">
|
|
<ele>-27.488364</ele>
|
|
<time>2026-07-10T14:09:30.000Z</time>
|
|
</trkpt>
|
|
<trkpt lat="55.231250" lon="8.716377">
|
|
<ele>-27.484174</ele>
|
|
<time>2026-07-10T14:09:31.000Z</time>
|
|
</trkpt>
|
|
<trkpt lat="55.231299" lon="8.716404">
|
|
<ele>-27.480253</ele>
|
|
<time>2026-07-10T14:09:32.000Z</time>
|
|
</trkpt>
|
|
<trkpt lat="55.231349" lon="8.716431">
|
|
<ele>-27.476259</ele>
|
|
<time>2026-07-10T14:09:33.000Z</time>
|
|
</trkpt>
|
|
<trkpt lat="55.231400" lon="8.716455">
|
|
<ele>-27.472228</ele>
|
|
<time>2026-07-10T14:09:34.000Z</time>
|
|
</trkpt>
|
|
<trkpt lat="55.231452" lon="8.716477">
|
|
<ele>-27.468145</ele>
|
|
<time>2026-07-10T14:09:35.000Z</time>
|
|
</trkpt>
|
|
<trkpt lat="55.231503" lon="8.716505">
|
|
<ele>-27.464065</ele>
|
|
<time>2026-07-10T14:09:36.000Z</time>
|
|
</trkpt>
|
|
<trkpt lat="55.231556" lon="8.716535">
|
|
<ele>-27.459814</ele>
|
|
<time>2026-07-10T14:09:37.000Z</time>
|
|
</trkpt>
|
|
<trkpt lat="55.231611" lon="8.716562">
|
|
<ele>-27.455454</ele>
|
|
<time>2026-07-10T14:09:38.000Z</time>
|
|
</trkpt>
|
|
<trkpt lat="55.231667" lon="8.716588">
|
|
<ele>-27.451032</ele>
|
|
<time>2026-07-10T14:09:39.000Z</time>
|
|
</trkpt>
|
|
<trkpt lat="55.231720" lon="8.716617">
|
|
<ele>-27.446793</ele>
|
|
<time>2026-07-10T14:09:40.000Z</time>
|
|
</trkpt>
|
|
<trkpt lat="55.231774" lon="8.716648">
|
|
<ele>-27.442456</ele>
|
|
<time>2026-07-10T14:09:41.000Z</time>
|
|
</trkpt>
|
|
<trkpt lat="55.231826" lon="8.716679">
|
|
<ele>-27.438263</ele>
|
|
<time>2026-07-10T14:09:42.000Z</time>
|
|
</trkpt>
|
|
<trkpt lat="55.231877" lon="8.716709">
|
|
<ele>-27.434156</ele>
|
|
<time>2026-07-10T14:09:43.000Z</time>
|
|
</trkpt>
|
|
<trkpt lat="55.231930" lon="8.716741">
|
|
<ele>-27.429877</ele>
|
|
<time>2026-07-10T14:09:44.000Z</time>
|
|
</trkpt>
|
|
<trkpt lat="55.231983" lon="8.716770">
|
|
<ele>-27.425639</ele>
|
|
<time>2026-07-10T14:09:45.000Z</time>
|
|
</trkpt>
|
|
<trkpt lat="55.232036" lon="8.716802">
|
|
<ele>-27.421360</ele>
|
|
<time>2026-07-10T14:09:46.000Z</time>
|
|
</trkpt>
|
|
<trkpt lat="55.232089" lon="8.716836">
|
|
<ele>-27.417052</ele>
|
|
<time>2026-07-10T14:09:47.000Z</time>
|
|
</trkpt>
|
|
<trkpt lat="55.232139" lon="8.716870">
|
|
<ele>-27.412958</ele>
|
|
<time>2026-07-10T14:09:48.000Z</time>
|
|
</trkpt>
|
|
<trkpt lat="55.232193" lon="8.716906">
|
|
<ele>-27.408548</ele>
|
|
<time>2026-07-10T14:09:49.000Z</time>
|
|
</trkpt>
|
|
<trkpt lat="55.232246" lon="8.716944">
|
|
<ele>-27.404177</ele>
|
|
<time>2026-07-10T14:09:50.000Z</time>
|
|
</trkpt>
|
|
<trkpt lat="55.232296" lon="8.716979">
|
|
<ele>-27.400067</ele>
|
|
<time>2026-07-10T14:09:51.000Z</time>
|
|
</trkpt>
|
|
<trkpt lat="55.232349" lon="8.717014">
|
|
<ele>-27.395744</ele>
|
|
<time>2026-07-10T14:09:52.000Z</time>
|
|
</trkpt>
|
|
<trkpt lat="55.232402" lon="8.717047">
|
|
<ele>-27.391450</ele>
|
|
<time>2026-07-10T14:09:53.000Z</time>
|
|
</trkpt>
|
|
<trkpt lat="55.232451" lon="8.717084">
|
|
<ele>-27.387378</ele>
|
|
<time>2026-07-10T14:09:54.000Z</time>
|
|
</trkpt>
|
|
<trkpt lat="55.232502" lon="8.717119">
|
|
<ele>-27.383197</ele>
|
|
<time>2026-07-10T14:09:55.000Z</time>
|
|
</trkpt>
|
|
<trkpt lat="55.232555" lon="8.717154">
|
|
<ele>-27.378874</ele>
|
|
<time>2026-07-10T14:09:56.000Z</time>
|
|
</trkpt>
|
|
<trkpt lat="55.232603" lon="8.717192">
|
|
<ele>-27.374853</ele>
|
|
<time>2026-07-10T14:09:57.000Z</time>
|
|
</trkpt>
|
|
<trkpt lat="55.232651" lon="8.717231">
|
|
<ele>-27.370815</ele>
|
|
<time>2026-07-10T14:09:58.000Z</time>
|
|
</trkpt>
|
|
<trkpt lat="55.232703" lon="8.717271">
|
|
<ele>-27.366480</ele>
|
|
<time>2026-07-10T14:09:59.000Z</time>
|
|
</trkpt>
|
|
<trkpt lat="55.232754" lon="8.717311">
|
|
<ele>-27.362177</ele>
|
|
<time>2026-07-10T14:10:00.000Z</time>
|
|
</trkpt>
|
|
<trkpt lat="55.232806" lon="8.717350">
|
|
<ele>-27.352138</ele>
|
|
<time>2026-07-10T14:10:01.000Z</time>
|
|
</trkpt>
|
|
<trkpt lat="55.232857" lon="8.717392">
|
|
<ele>-27.342136</ele>
|
|
<time>2026-07-10T14:10:02.000Z</time>
|
|
</trkpt>
|
|
<trkpt lat="55.232910" lon="8.717433">
|
|
<ele>-27.331853</ele>
|
|
<time>2026-07-10T14:10:03.000Z</time>
|
|
</trkpt>
|
|
<trkpt lat="55.232963" lon="8.717473">
|
|
<ele>-27.321610</ele>
|
|
<time>2026-07-10T14:10:04.000Z</time>
|
|
</trkpt>
|
|
<trkpt lat="55.233012" lon="8.717513">
|
|
<ele>-27.312016</ele>
|
|
<time>2026-07-10T14:10:05.000Z</time>
|
|
</trkpt>
|
|
<trkpt lat="55.233063" lon="8.717554">
|
|
<ele>-27.302057</ele>
|
|
<time>2026-07-10T14:10:06.000Z</time>
|
|
</trkpt>
|
|
<trkpt lat="55.233116" lon="8.717597">
|
|
<ele>-27.291690</ele>
|
|
<time>2026-07-10T14:10:07.000Z</time>
|
|
</trkpt>
|
|
<trkpt lat="55.233169" lon="8.717641">
|
|
<ele>-27.281281</ele>
|
|
<time>2026-07-10T14:10:08.000Z</time>
|
|
</trkpt>
|
|
<trkpt lat="55.233219" lon="8.717683">
|
|
<ele>-27.271439</ele>
|
|
<time>2026-07-10T14:10:09.000Z</time>
|
|
</trkpt>
|
|
<trkpt lat="55.233273" lon="8.717726">
|
|
<ele>-27.260912</ele>
|
|
<time>2026-07-10T14:10:10.000Z</time>
|
|
</trkpt>
|
|
<trkpt lat="55.233325" lon="8.717768">
|
|
<ele>-27.250749</ele>
|
|
<time>2026-07-10T14:10:11.000Z</time>
|
|
</trkpt>
|
|
<trkpt lat="55.233374" lon="8.717812">
|
|
<ele>-27.240977</ele>
|
|
<time>2026-07-10T14:10:12.000Z</time>
|
|
</trkpt>
|
|
<trkpt lat="55.233425" lon="8.717853">
|
|
<ele>-27.231018</ele>
|
|
<time>2026-07-10T14:10:13.000Z</time>
|
|
</trkpt>
|
|
<trkpt lat="55.233478" lon="8.717893">
|
|
<ele>-27.220775</ele>
|
|
<time>2026-07-10T14:10:14.000Z</time>
|
|
</trkpt>
|
|
<trkpt lat="55.233527" lon="8.717931">
|
|
<ele>-27.211264</ele>
|
|
<time>2026-07-10T14:10:15.000Z</time>
|
|
</trkpt>
|
|
<trkpt lat="55.233576" lon="8.717967">
|
|
<ele>-27.201834</ele>
|
|
<time>2026-07-10T14:10:16.000Z</time>
|
|
</trkpt>
|
|
<trkpt lat="55.233621" lon="8.718004">
|
|
<ele>-27.193011</ele>
|
|
<time>2026-07-10T14:10:17.000Z</time>
|
|
</trkpt>
|
|
<trkpt lat="55.233663" lon="8.718039">
|
|
<ele>-27.184756</ele>
|
|
<time>2026-07-10T14:10:18.000Z</time>
|
|
</trkpt>
|
|
<trkpt lat="55.233704" lon="8.718076">
|
|
<ele>-27.176571</ele>
|
|
<time>2026-07-10T14:10:19.000Z</time>
|
|
</trkpt>
|
|
<trkpt lat="55.233744" lon="8.718107">
|
|
<ele>-27.168808</ele>
|
|
<time>2026-07-10T14:10:20.000Z</time>
|
|
</trkpt>
|
|
<trkpt lat="55.233782" lon="8.718134">
|
|
<ele>-27.161530</ele>
|
|
<time>2026-07-10T14:10:21.000Z</time>
|
|
</trkpt>
|
|
<trkpt lat="55.233828" lon="8.718167">
|
|
<ele>-27.152707</ele>
|
|
<time>2026-07-10T14:10:22.000Z</time>
|
|
</trkpt>
|
|
<trkpt lat="55.233873" lon="8.718208">
|
|
<ele>-27.143705</ele>
|
|
<time>2026-07-10T14:10:23.000Z</time>
|
|
</trkpt>
|
|
<trkpt lat="55.233916" lon="8.718246">
|
|
<ele>-27.135158</ele>
|
|
<time>2026-07-10T14:10:24.000Z</time>
|
|
</trkpt>
|
|
<trkpt lat="55.233949" lon="8.718278">
|
|
<ele>-27.128464</ele>
|
|
<time>2026-07-10T14:10:25.000Z</time>
|
|
</trkpt>
|
|
<trkpt lat="55.233978" lon="8.718302">
|
|
<ele>-27.122772</ele>
|
|
<time>2026-07-10T14:10:26.000Z</time>
|
|
</trkpt>
|
|
<trkpt lat="55.234004" lon="8.718310">
|
|
<ele>-27.118086</ele>
|
|
<time>2026-07-10T14:10:27.000Z</time>
|
|
</trkpt>
|
|
<trkpt lat="55.234024" lon="8.718298">
|
|
<ele>-27.114334</ele>
|
|
<time>2026-07-10T14:10:28.000Z</time>
|
|
</trkpt>
|
|
<trkpt lat="55.234036" lon="8.718263">
|
|
<ele>-27.110200</ele>
|
|
<time>2026-07-10T14:10:29.000Z</time>
|
|
</trkpt>
|
|
<trkpt lat="55.234050" lon="8.718216">
|
|
<ele>-27.104832</ele>
|
|
<time>2026-07-10T14:10:30.000Z</time>
|
|
</trkpt>
|
|
<trkpt lat="55.234063" lon="8.718158">
|
|
<ele>-27.098524</ele>
|
|
<time>2026-07-10T14:10:31.000Z</time>
|
|
</trkpt>
|
|
<trkpt lat="55.234077" lon="8.718091">
|
|
<ele>-27.091301</ele>
|
|
<time>2026-07-10T14:10:32.000Z</time>
|
|
</trkpt>
|
|
<trkpt lat="55.234088" lon="8.718024">
|
|
<ele>-27.084243</ele>
|
|
<time>2026-07-10T14:10:33.000Z</time>
|
|
</trkpt>
|
|
<trkpt lat="55.234101" lon="8.717949">
|
|
<ele>-27.076309</ele>
|
|
<time>2026-07-10T14:10:34.000Z</time>
|
|
</trkpt>
|
|
<trkpt lat="55.234115" lon="8.717869">
|
|
<ele>-27.067838</ele>
|
|
<time>2026-07-10T14:10:35.000Z</time>
|
|
</trkpt>
|
|
<trkpt lat="55.234128" lon="8.717794">
|
|
<ele>-27.059903</ele>
|
|
<time>2026-07-10T14:10:36.000Z</time>
|
|
</trkpt>
|
|
<trkpt lat="55.234144" lon="8.717720">
|
|
<ele>-27.051892</ele>
|
|
<time>2026-07-10T14:10:37.000Z</time>
|
|
</trkpt>
|
|
<trkpt lat="55.234161" lon="8.717640">
|
|
<ele>-27.043251</ele>
|
|
<time>2026-07-10T14:10:38.000Z</time>
|
|
</trkpt>
|
|
<trkpt lat="55.234171" lon="8.717557">
|
|
<ele>-27.073906</ele>
|
|
<time>2026-07-10T14:10:39.000Z</time>
|
|
</trkpt>
|
|
<trkpt lat="55.234181" lon="8.717477">
|
|
<ele>-27.104835</ele>
|
|
<time>2026-07-10T14:10:40.000Z</time>
|
|
</trkpt>
|
|
<trkpt lat="55.234195" lon="8.717400">
|
|
<ele>-27.135355</ele>
|
|
<time>2026-07-10T14:10:41.000Z</time>
|
|
</trkpt>
|
|
<trkpt lat="55.234208" lon="8.717323">
|
|
<ele>-27.165682</ele>
|
|
<time>2026-07-10T14:10:42.000Z</time>
|
|
</trkpt>
|
|
<trkpt lat="55.234222" lon="8.717244">
|
|
<ele>-27.196923</ele>
|
|
<time>2026-07-10T14:10:43.000Z</time>
|
|
</trkpt>
|
|
<trkpt lat="55.234235" lon="8.717168">
|
|
<ele>-27.226887</ele>
|
|
<time>2026-07-10T14:10:44.000Z</time>
|
|
</trkpt>
|
|
<trkpt lat="55.234249" lon="8.717093">
|
|
<ele>-27.256689</ele>
|
|
<time>2026-07-10T14:10:45.000Z</time>
|
|
</trkpt>
|
|
<trkpt lat="55.234260" lon="8.717017">
|
|
<ele>-27.286300</ele>
|
|
<time>2026-07-10T14:10:46.000Z</time>
|
|
</trkpt>
|
|
<trkpt lat="55.234273" lon="8.716936">
|
|
<ele>-27.318078</ele>
|
|
<time>2026-07-10T14:10:47.000Z</time>
|
|
</trkpt>
|
|
<trkpt lat="55.234287" lon="8.716855">
|
|
<ele>-27.350041</ele>
|
|
<time>2026-07-10T14:10:48.000Z</time>
|
|
</trkpt>
|
|
<trkpt lat="55.234299" lon="8.716774">
|
|
<ele>-27.381645</ele>
|
|
<time>2026-07-10T14:10:49.000Z</time>
|
|
</trkpt>
|
|
<trkpt lat="55.234313" lon="8.716692">
|
|
<ele>-27.413970</ele>
|
|
<time>2026-07-10T14:10:50.000Z</time>
|
|
</trkpt>
|
|
<trkpt lat="55.234327" lon="8.716607">
|
|
<ele>-27.447382</ele>
|
|
<time>2026-07-10T14:10:51.000Z</time>
|
|
</trkpt>
|
|
<trkpt lat="55.234345" lon="8.716520">
|
|
<ele>-27.482332</ele>
|
|
<time>2026-07-10T14:10:52.000Z</time>
|
|
</trkpt>
|
|
<trkpt lat="55.234359" lon="8.716435">
|
|
<ele>-27.515744</ele>
|
|
<time>2026-07-10T14:10:53.000Z</time>
|
|
</trkpt>
|
|
<trkpt lat="55.234372" lon="8.716350">
|
|
<ele>-27.548978</ele>
|
|
<time>2026-07-10T14:10:54.000Z</time>
|
|
</trkpt>
|
|
<trkpt lat="55.234387" lon="8.716264">
|
|
<ele>-27.582941</ele>
|
|
<time>2026-07-10T14:10:55.000Z</time>
|
|
</trkpt>
|
|
<trkpt lat="55.234402" lon="8.716180">
|
|
<ele>-27.616181</ele>
|
|
<time>2026-07-10T14:10:56.000Z</time>
|
|
</trkpt>
|
|
<trkpt lat="55.234418" lon="8.716098">
|
|
<ele>-27.648911</ele>
|
|
<time>2026-07-10T14:10:57.000Z</time>
|
|
</trkpt>
|
|
<trkpt lat="55.234432" lon="8.716026">
|
|
<ele>-27.677638</ele>
|
|
<time>2026-07-10T14:10:58.000Z</time>
|
|
</trkpt>
|
|
<trkpt lat="55.234444" lon="8.715957">
|
|
<ele>-27.704880</ele>
|
|
<time>2026-07-10T14:10:59.000Z</time>
|
|
</trkpt>
|
|
<trkpt lat="55.234457" lon="8.715889">
|
|
<ele>-27.731965</ele>
|
|
<time>2026-07-10T14:11:00.000Z</time>
|
|
</trkpt>
|
|
<trkpt lat="55.234465" lon="8.715823">
|
|
<ele>-27.757446</ele>
|
|
<time>2026-07-10T14:11:01.000Z</time>
|
|
</trkpt>
|
|
<trkpt lat="55.234474" lon="8.715754">
|
|
<ele>-27.784176</ele>
|
|
<time>2026-07-10T14:11:02.000Z</time>
|
|
</trkpt>
|
|
<trkpt lat="55.234487" lon="8.715680">
|
|
<ele>-27.813417</ele>
|
|
<time>2026-07-10T14:11:03.000Z</time>
|
|
</trkpt>
|
|
<trkpt lat="55.234506" lon="8.715593">
|
|
<ele>-27.848599</ele>
|
|
<time>2026-07-10T14:11:04.000Z</time>
|
|
</trkpt>
|
|
<trkpt lat="55.234526" lon="8.715504">
|
|
<ele>-27.884725</ele>
|
|
<time>2026-07-10T14:11:05.000Z</time>
|
|
</trkpt>
|
|
<trkpt lat="55.234550" lon="8.715411">
|
|
<ele>-27.923275</ele>
|
|
<time>2026-07-10T14:11:06.000Z</time>
|
|
</trkpt>
|
|
<trkpt lat="55.234571" lon="8.715319">
|
|
<ele>-27.960698</ele>
|
|
<time>2026-07-10T14:11:07.000Z</time>
|
|
</trkpt>
|
|
<trkpt lat="55.234590" lon="8.715228">
|
|
<ele>-27.997294</ele>
|
|
<time>2026-07-10T14:11:08.000Z</time>
|
|
</trkpt>
|
|
<trkpt lat="55.234609" lon="8.715139">
|
|
<ele>-28.033182</ele>
|
|
<time>2026-07-10T14:11:09.000Z</time>
|
|
</trkpt>
|
|
<trkpt lat="55.234627" lon="8.715048">
|
|
<ele>-28.069556</ele>
|
|
<time>2026-07-10T14:11:10.000Z</time>
|
|
</trkpt>
|
|
<trkpt lat="55.234643" lon="8.714959">
|
|
<ele>-28.104797</ele>
|
|
<time>2026-07-10T14:11:11.000Z</time>
|
|
</trkpt>
|
|
<trkpt lat="55.234659" lon="8.714870">
|
|
<ele>-28.140037</ele>
|
|
<time>2026-07-10T14:11:12.000Z</time>
|
|
</trkpt>
|
|
<trkpt lat="55.234677" lon="8.714778">
|
|
<ele>-28.176768</ele>
|
|
<time>2026-07-10T14:11:13.000Z</time>
|
|
</trkpt>
|
|
<trkpt lat="55.234691" lon="8.714685">
|
|
<ele>-28.213092</ele>
|
|
<time>2026-07-10T14:11:14.000Z</time>
|
|
</trkpt>
|
|
<trkpt lat="55.234703" lon="8.714590">
|
|
<ele>-28.239032</ele>
|
|
<time>2026-07-10T14:11:15.000Z</time>
|
|
</trkpt>
|
|
<trkpt lat="55.234714" lon="8.714493">
|
|
<ele>-28.250658</ele>
|
|
<time>2026-07-10T14:11:16.000Z</time>
|
|
</trkpt>
|
|
<trkpt lat="55.234725" lon="8.714398">
|
|
<ele>-28.262055</ele>
|
|
<time>2026-07-10T14:11:17.000Z</time>
|
|
</trkpt>
|
|
<trkpt lat="55.234737" lon="8.714303">
|
|
<ele>-28.273494</ele>
|
|
<time>2026-07-10T14:11:18.000Z</time>
|
|
</trkpt>
|
|
<trkpt lat="55.234748" lon="8.714205">
|
|
<ele>-28.285236</ele>
|
|
<time>2026-07-10T14:11:19.000Z</time>
|
|
</trkpt>
|
|
<trkpt lat="55.234761" lon="8.714109">
|
|
<ele>-28.296836</ele>
|
|
<time>2026-07-10T14:11:20.000Z</time>
|
|
</trkpt>
|
|
<trkpt lat="55.234776" lon="8.714016">
|
|
<ele>-28.308198</ele>
|
|
<time>2026-07-10T14:11:21.000Z</time>
|
|
</trkpt>
|
|
<trkpt lat="55.234790" lon="8.713926">
|
|
<ele>-28.319165</ele>
|
|
<time>2026-07-10T14:11:22.000Z</time>
|
|
</trkpt>
|
|
<trkpt lat="55.234802" lon="8.713831">
|
|
<ele>-28.330604</ele>
|
|
<time>2026-07-10T14:11:23.000Z</time>
|
|
</trkpt>
|
|
<trkpt lat="55.234815" lon="8.713740">
|
|
<ele>-28.341633</ele>
|
|
<time>2026-07-10T14:11:24.000Z</time>
|
|
</trkpt>
|
|
<trkpt lat="55.234833" lon="8.713651">
|
|
<ele>-28.352735</ele>
|
|
<time>2026-07-10T14:11:25.000Z</time>
|
|
</trkpt>
|
|
<trkpt lat="55.234851" lon="8.713562">
|
|
<ele>-28.363836</ele>
|
|
<time>2026-07-10T14:11:26.000Z</time>
|
|
</trkpt>
|
|
<trkpt lat="55.234870" lon="8.713474">
|
|
<ele>-28.374898</ele>
|
|
<time>2026-07-10T14:11:27.000Z</time>
|
|
</trkpt>
|
|
<trkpt lat="55.234883" lon="8.713383">
|
|
<ele>-28.385927</ele>
|
|
<time>2026-07-10T14:11:28.000Z</time>
|
|
</trkpt>
|
|
<trkpt lat="55.234899" lon="8.713288">
|
|
<ele>-28.397572</ele>
|
|
<time>2026-07-10T14:11:29.000Z</time>
|
|
</trkpt>
|
|
<trkpt lat="55.234917" lon="8.713197">
|
|
<ele>-28.408896</ele>
|
|
<time>2026-07-10T14:11:30.000Z</time>
|
|
</trkpt>
|
|
<trkpt lat="55.234932" lon="8.713105">
|
|
<ele>-28.420145</ele>
|
|
<time>2026-07-10T14:11:31.000Z</time>
|
|
</trkpt>
|
|
<trkpt lat="55.234950" lon="8.713013">
|
|
<ele>-28.431579</ele>
|
|
<time>2026-07-10T14:11:32.000Z</time>
|
|
</trkpt>
|
|
<trkpt lat="55.234971" lon="8.712922">
|
|
<ele>-28.443120</ele>
|
|
<time>2026-07-10T14:11:33.000Z</time>
|
|
</trkpt>
|
|
<trkpt lat="55.234988" lon="8.712833">
|
|
<ele>-28.454155</ele>
|
|
<time>2026-07-10T14:11:34.000Z</time>
|
|
</trkpt>
|
|
<trkpt lat="55.235011" lon="8.712749">
|
|
<ele>-28.465109</ele>
|
|
<time>2026-07-10T14:11:35.000Z</time>
|
|
</trkpt>
|
|
<trkpt lat="55.235034" lon="8.712667">
|
|
<ele>-28.475853</ele>
|
|
<time>2026-07-10T14:11:36.000Z</time>
|
|
</trkpt>
|
|
<trkpt lat="55.235057" lon="8.712581">
|
|
<ele>-28.487020</ele>
|
|
<time>2026-07-10T14:11:37.000Z</time>
|
|
</trkpt>
|
|
<trkpt lat="55.235079" lon="8.712497">
|
|
<ele>-28.497887</ele>
|
|
<time>2026-07-10T14:11:38.000Z</time>
|
|
</trkpt>
|
|
<trkpt lat="55.235098" lon="8.712410">
|
|
<ele>-28.508839</ele>
|
|
<time>2026-07-10T14:11:39.000Z</time>
|
|
</trkpt>
|
|
<trkpt lat="55.235116" lon="8.712320">
|
|
<ele>-28.520051</ele>
|
|
<time>2026-07-10T14:11:40.000Z</time>
|
|
</trkpt>
|
|
<trkpt lat="55.235132" lon="8.712234">
|
|
<ele>-28.530686</ele>
|
|
<time>2026-07-10T14:11:41.000Z</time>
|
|
</trkpt>
|
|
<trkpt lat="55.235151" lon="8.712147">
|
|
<ele>-28.541638</ele>
|
|
<time>2026-07-10T14:11:42.000Z</time>
|
|
</trkpt>
|
|
<trkpt lat="55.235172" lon="8.712059">
|
|
<ele>-28.552853</ele>
|
|
<time>2026-07-10T14:11:43.000Z</time>
|
|
</trkpt>
|
|
<trkpt lat="55.235197" lon="8.711969">
|
|
<ele>-28.564622</ele>
|
|
<time>2026-07-10T14:11:44.000Z</time>
|
|
</trkpt>
|
|
<trkpt lat="55.235217" lon="8.711881">
|
|
<ele>-28.575759</ele>
|
|
<time>2026-07-10T14:11:45.000Z</time>
|
|
</trkpt>
|
|
<trkpt lat="55.235241" lon="8.711796">
|
|
<ele>-28.586910</ele>
|
|
<time>2026-07-10T14:11:46.000Z</time>
|
|
</trkpt>
|
|
<trkpt lat="55.235264" lon="8.711713">
|
|
<ele>-28.597758</ele>
|
|
<time>2026-07-10T14:11:47.000Z</time>
|
|
</trkpt>
|
|
<trkpt lat="55.235281" lon="8.711630">
|
|
<ele>-28.609870</ele>
|
|
<time>2026-07-10T14:11:48.000Z</time>
|
|
</trkpt>
|
|
<trkpt lat="55.235300" lon="8.711546">
|
|
<ele>-28.626374</ele>
|
|
<time>2026-07-10T14:11:49.000Z</time>
|
|
</trkpt>
|
|
<trkpt lat="55.235318" lon="8.711461">
|
|
<ele>-28.642933</ele>
|
|
<time>2026-07-10T14:11:50.000Z</time>
|
|
</trkpt>
|
|
<trkpt lat="55.235333" lon="8.711370">
|
|
<ele>-28.660232</ele>
|
|
<time>2026-07-10T14:11:51.000Z</time>
|
|
</trkpt>
|
|
<trkpt lat="55.235348" lon="8.711276">
|
|
<ele>-28.678059</ele>
|
|
<time>2026-07-10T14:11:52.000Z</time>
|
|
</trkpt>
|
|
<trkpt lat="55.235364" lon="8.711181">
|
|
<ele>-28.696149</ele>
|
|
<time>2026-07-10T14:11:53.000Z</time>
|
|
</trkpt>
|
|
<trkpt lat="55.235379" lon="8.711086">
|
|
<ele>-28.714152</ele>
|
|
<time>2026-07-10T14:11:54.000Z</time>
|
|
</trkpt>
|
|
<trkpt lat="55.235393" lon="8.710995">
|
|
<ele>-28.731365</ele>
|
|
<time>2026-07-10T14:11:55.000Z</time>
|
|
</trkpt>
|
|
<trkpt lat="55.235404" lon="8.710907">
|
|
<ele>-28.747817</ele>
|
|
<time>2026-07-10T14:11:56.000Z</time>
|
|
</trkpt>
|
|
<trkpt lat="55.235418" lon="8.710820">
|
|
<ele>-28.764326</ele>
|
|
<time>2026-07-10T14:11:57.000Z</time>
|
|
</trkpt>
|
|
<trkpt lat="55.235437" lon="8.710734">
|
|
<ele>-28.781170</ele>
|
|
<time>2026-07-10T14:11:58.000Z</time>
|
|
</trkpt>
|
|
<trkpt lat="55.235456" lon="8.710651">
|
|
<ele>-28.797504</ele>
|
|
<time>2026-07-10T14:11:59.000Z</time>
|
|
</trkpt>
|
|
<trkpt lat="55.235475" lon="8.710565">
|
|
<ele>-28.814347</ele>
|
|
<time>2026-07-10T14:12:00.000Z</time>
|
|
</trkpt>
|
|
<trkpt lat="55.235497" lon="8.710478">
|
|
<ele>-28.831728</ele>
|
|
<time>2026-07-10T14:12:01.000Z</time>
|
|
</trkpt>
|
|
<trkpt lat="55.235522" lon="8.710392">
|
|
<ele>-28.849357</ele>
|
|
<time>2026-07-10T14:12:02.000Z</time>
|
|
</trkpt>
|
|
<trkpt lat="55.235546" lon="8.710304">
|
|
<ele>-28.867172</ele>
|
|
<time>2026-07-10T14:12:03.000Z</time>
|
|
</trkpt>
|
|
<trkpt lat="55.235573" lon="8.710222">
|
|
<ele>-28.884464</ele>
|
|
<time>2026-07-10T14:12:04.000Z</time>
|
|
</trkpt>
|
|
<trkpt lat="55.235601" lon="8.710142">
|
|
<ele>-28.901607</ele>
|
|
<time>2026-07-10T14:12:05.000Z</time>
|
|
</trkpt>
|
|
<trkpt lat="55.235632" lon="8.710065">
|
|
<ele>-28.918821</ele>
|
|
<time>2026-07-10T14:12:06.000Z</time>
|
|
</trkpt>
|
|
<trkpt lat="55.235668" lon="8.709991">
|
|
<ele>-28.936585</ele>
|
|
<time>2026-07-10T14:12:07.000Z</time>
|
|
</trkpt>
|
|
<trkpt lat="55.235703" lon="8.709917">
|
|
<ele>-28.954144</ele>
|
|
<time>2026-07-10T14:12:08.000Z</time>
|
|
</trkpt>
|
|
<trkpt lat="55.235735" lon="8.709840">
|
|
<ele>-28.971544</ele>
|
|
<time>2026-07-10T14:12:09.000Z</time>
|
|
</trkpt>
|
|
<trkpt lat="55.235767" lon="8.709757">
|
|
<ele>-28.989842</ele>
|
|
<time>2026-07-10T14:12:10.000Z</time>
|
|
</trkpt>
|
|
<trkpt lat="55.235794" lon="8.709670">
|
|
<ele>-29.007931</ele>
|
|
<time>2026-07-10T14:12:11.000Z</time>
|
|
</trkpt>
|
|
<trkpt lat="55.235821" lon="8.709582">
|
|
<ele>-29.026181</ele>
|
|
<time>2026-07-10T14:12:12.000Z</time>
|
|
</trkpt>
|
|
<trkpt lat="55.235845" lon="8.709491">
|
|
<ele>-29.044491</ele>
|
|
<time>2026-07-10T14:12:13.000Z</time>
|
|
</trkpt>
|
|
<trkpt lat="55.235864" lon="8.709397">
|
|
<ele>-29.062704</ele>
|
|
<time>2026-07-10T14:12:14.000Z</time>
|
|
</trkpt>
|
|
<trkpt lat="55.235881" lon="8.709298">
|
|
<ele>-29.081586</ele>
|
|
<time>2026-07-10T14:12:15.000Z</time>
|
|
</trkpt>
|
|
<trkpt lat="55.235892" lon="8.709191">
|
|
<ele>-29.101442</ele>
|
|
<time>2026-07-10T14:12:16.000Z</time>
|
|
</trkpt>
|
|
<trkpt lat="55.235900" lon="8.709091">
|
|
<ele>-29.119883</ele>
|
|
<time>2026-07-10T14:12:17.000Z</time>
|
|
</trkpt>
|
|
<trkpt lat="55.235911" lon="8.708993">
|
|
<ele>-29.138124</ele>
|
|
<time>2026-07-10T14:12:18.000Z</time>
|
|
</trkpt>
|
|
<trkpt lat="55.235918" lon="8.708894">
|
|
<ele>-29.156342</ele>
|
|
<time>2026-07-10T14:12:19.000Z</time>
|
|
</trkpt>
|
|
<trkpt lat="55.235926" lon="8.708791">
|
|
<ele>-29.175326</ele>
|
|
<time>2026-07-10T14:12:20.000Z</time>
|
|
</trkpt>
|
|
<trkpt lat="55.235934" lon="8.708689">
|
|
<ele>-29.208897</ele>
|
|
<time>2026-07-10T14:12:21.000Z</time>
|
|
</trkpt>
|
|
<trkpt lat="55.235941" lon="8.708586">
|
|
<ele>-29.249220</ele>
|
|
<time>2026-07-10T14:12:22.000Z</time>
|
|
</trkpt>
|
|
<trkpt lat="55.235949" lon="8.708482">
|
|
<ele>-29.290015</ele>
|
|
<time>2026-07-10T14:12:23.000Z</time>
|
|
</trkpt>
|
|
<trkpt lat="55.235955" lon="8.708382">
|
|
<ele>-29.329103</ele>
|
|
<time>2026-07-10T14:12:24.000Z</time>
|
|
</trkpt>
|
|
<trkpt lat="55.235960" lon="8.708284">
|
|
<ele>-29.367352</ele>
|
|
<time>2026-07-10T14:12:25.000Z</time>
|
|
</trkpt>
|
|
<trkpt lat="55.235967" lon="8.708186">
|
|
<ele>-29.405746</ele>
|
|
<time>2026-07-10T14:12:26.000Z</time>
|
|
</trkpt>
|
|
<trkpt lat="55.235971" lon="8.708089">
|
|
<ele>-29.443552</ele>
|
|
<time>2026-07-10T14:12:27.000Z</time>
|
|
</trkpt>
|
|
<trkpt lat="55.235976" lon="8.707992">
|
|
<ele>-29.481413</ele>
|
|
<time>2026-07-10T14:12:28.000Z</time>
|
|
</trkpt>
|
|
<trkpt lat="55.235983" lon="8.707894">
|
|
<ele>-29.519807</ele>
|
|
<time>2026-07-10T14:12:29.000Z</time>
|
|
</trkpt>
|
|
<trkpt lat="55.235992" lon="8.707796">
|
|
<ele>-29.558394</ele>
|
|
<time>2026-07-10T14:12:30.000Z</time>
|
|
</trkpt>
|
|
<trkpt lat="55.236002" lon="8.707700">
|
|
<ele>-29.596331</ele>
|
|
<time>2026-07-10T14:12:31.000Z</time>
|
|
</trkpt>
|
|
<trkpt lat="55.236011" lon="8.707610">
|
|
<ele>-29.631851</ele>
|
|
<time>2026-07-10T14:12:32.000Z</time>
|
|
</trkpt>
|
|
<trkpt lat="55.236021" lon="8.707529">
|
|
<ele>-29.664068</ele>
|
|
<time>2026-07-10T14:12:33.000Z</time>
|
|
</trkpt>
|
|
<trkpt lat="55.236029" lon="8.707449">
|
|
<ele>-29.695642</ele>
|
|
<time>2026-07-10T14:12:34.000Z</time>
|
|
</trkpt>
|
|
<trkpt lat="55.236037" lon="8.707362">
|
|
<ele>-29.729899</ele>
|
|
<time>2026-07-10T14:12:35.000Z</time>
|
|
</trkpt>
|
|
<trkpt lat="55.236044" lon="8.707272">
|
|
<ele>-29.765209</ele>
|
|
<time>2026-07-10T14:12:36.000Z</time>
|
|
</trkpt>
|
|
<trkpt lat="55.236053" lon="8.707175">
|
|
<ele>-29.803412</ele>
|
|
<time>2026-07-10T14:12:37.000Z</time>
|
|
</trkpt>
|
|
<trkpt lat="55.236063" lon="8.707075">
|
|
<ele>-29.842879</ele>
|
|
<time>2026-07-10T14:12:38.000Z</time>
|
|
</trkpt>
|
|
<trkpt lat="55.236072" lon="8.706975">
|
|
<ele>-29.882234</ele>
|
|
<time>2026-07-10T14:12:39.000Z</time>
|
|
</trkpt>
|
|
<trkpt lat="55.236080" lon="8.706877">
|
|
<ele>-29.920719</ele>
|
|
<time>2026-07-10T14:12:40.000Z</time>
|
|
</trkpt>
|
|
<trkpt lat="55.236082" lon="8.706777">
|
|
<ele>-29.959616</ele>
|
|
<time>2026-07-10T14:12:41.000Z</time>
|
|
</trkpt>
|
|
<trkpt lat="55.236090" lon="8.706678">
|
|
<ele>-29.998486</ele>
|
|
<time>2026-07-10T14:12:42.000Z</time>
|
|
</trkpt>
|
|
<trkpt lat="55.236097" lon="8.706575">
|
|
<ele>-30.038809</ele>
|
|
<time>2026-07-10T14:12:43.000Z</time>
|
|
</trkpt>
|
|
<trkpt lat="55.236101" lon="8.706472">
|
|
<ele>-30.078941</ele>
|
|
<time>2026-07-10T14:12:44.000Z</time>
|
|
</trkpt>
|
|
<trkpt lat="55.236108" lon="8.706367">
|
|
<ele>-30.120037</ele>
|
|
<time>2026-07-10T14:12:45.000Z</time>
|
|
</trkpt>
|
|
<trkpt lat="55.236112" lon="8.706263">
|
|
<ele>-30.160557</ele>
|
|
<time>2026-07-10T14:12:46.000Z</time>
|
|
</trkpt>
|
|
<trkpt lat="55.236117" lon="8.706160">
|
|
<ele>-30.200742</ele>
|
|
<time>2026-07-10T14:12:47.000Z</time>
|
|
</trkpt>
|
|
<trkpt lat="55.236124" lon="8.706054">
|
|
<ele>-30.242223</ele>
|
|
<time>2026-07-10T14:12:48.000Z</time>
|
|
</trkpt>
|
|
<trkpt lat="55.236131" lon="8.705949">
|
|
<ele>-30.283318</ele>
|
|
<time>2026-07-10T14:12:49.000Z</time>
|
|
</trkpt>
|
|
<trkpt lat="55.236135" lon="8.705846">
|
|
<ele>-30.323451</ele>
|
|
<time>2026-07-10T14:12:50.000Z</time>
|
|
</trkpt>
|
|
<trkpt lat="55.236137" lon="8.705742">
|
|
<ele>-30.363902</ele>
|
|
<time>2026-07-10T14:12:51.000Z</time>
|
|
</trkpt>
|
|
<trkpt lat="55.236137" lon="8.705637">
|
|
<ele>-30.404720</ele>
|
|
<time>2026-07-10T14:12:52.000Z</time>
|
|
</trkpt>
|
|
<trkpt lat="55.236137" lon="8.705533">
|
|
<ele>-30.381932</ele>
|
|
<time>2026-07-10T14:12:53.000Z</time>
|
|
</trkpt>
|
|
<trkpt lat="55.236138" lon="8.705430">
|
|
<ele>-30.355120</ele>
|
|
<time>2026-07-10T14:12:54.000Z</time>
|
|
</trkpt>
|
|
<trkpt lat="55.236140" lon="8.705329">
|
|
<ele>-30.328816</ele>
|
|
<time>2026-07-10T14:12:55.000Z</time>
|
|
</trkpt>
|
|
<trkpt lat="55.236137" lon="8.705228">
|
|
<ele>-30.302493</ele>
|
|
<time>2026-07-10T14:12:56.000Z</time>
|
|
</trkpt>
|
|
<trkpt lat="55.236137" lon="8.705128">
|
|
<ele>-30.276466</ele>
|
|
<time>2026-07-10T14:12:57.000Z</time>
|
|
</trkpt>
|
|
<trkpt lat="55.236136" lon="8.705027">
|
|
<ele>-30.250174</ele>
|
|
<time>2026-07-10T14:12:58.000Z</time>
|
|
</trkpt>
|
|
<trkpt lat="55.236134" lon="8.704930">
|
|
<ele>-30.224911</ele>
|
|
<time>2026-07-10T14:12:59.000Z</time>
|
|
</trkpt>
|
|
<trkpt lat="55.236134" lon="8.704835">
|
|
<ele>-30.200186</ele>
|
|
<time>2026-07-10T14:13:00.000Z</time>
|
|
</trkpt>
|
|
<trkpt lat="55.236132" lon="8.704739">
|
|
<ele>-30.175183</ele>
|
|
<time>2026-07-10T14:13:01.000Z</time>
|
|
</trkpt>
|
|
<trkpt lat="55.236131" lon="8.704645">
|
|
<ele>-30.150713</ele>
|
|
<time>2026-07-10T14:13:02.000Z</time>
|
|
</trkpt>
|
|
<trkpt lat="55.236134" lon="8.704551">
|
|
<ele>-30.126209</ele>
|
|
<time>2026-07-10T14:13:03.000Z</time>
|
|
</trkpt>
|
|
<trkpt lat="55.236134" lon="8.704456">
|
|
<ele>-30.101483</ele>
|
|
<time>2026-07-10T14:13:04.000Z</time>
|
|
</trkpt>
|
|
<trkpt lat="55.236134" lon="8.704362">
|
|
<ele>-30.077017</ele>
|
|
<time>2026-07-10T14:13:05.000Z</time>
|
|
</trkpt>
|
|
<trkpt lat="55.236134" lon="8.704270">
|
|
<ele>-30.053072</ele>
|
|
<time>2026-07-10T14:13:06.000Z</time>
|
|
</trkpt>
|
|
<trkpt lat="55.236134" lon="8.704179">
|
|
<ele>-30.029388</ele>
|
|
<time>2026-07-10T14:13:07.000Z</time>
|
|
</trkpt>
|
|
<trkpt lat="55.236135" lon="8.704086">
|
|
<ele>-30.005178</ele>
|
|
<time>2026-07-10T14:13:08.000Z</time>
|
|
</trkpt>
|
|
<trkpt lat="55.236137" lon="8.703990">
|
|
<ele>-29.980175</ele>
|
|
<time>2026-07-10T14:13:09.000Z</time>
|
|
</trkpt>
|
|
<trkpt lat="55.236137" lon="8.703892">
|
|
<ele>-29.954668</ele>
|
|
<time>2026-07-10T14:13:10.000Z</time>
|
|
</trkpt>
|
|
<trkpt lat="55.236138" lon="8.703794">
|
|
<ele>-29.929158</ele>
|
|
<time>2026-07-10T14:13:11.000Z</time>
|
|
</trkpt>
|
|
<trkpt lat="55.236142" lon="8.703696">
|
|
<ele>-29.903586</ele>
|
|
<time>2026-07-10T14:13:12.000Z</time>
|
|
</trkpt>
|
|
<trkpt lat="55.236145" lon="8.703596">
|
|
<ele>-29.877522</ele>
|
|
<time>2026-07-10T14:13:13.000Z</time>
|
|
</trkpt>
|
|
<trkpt lat="55.236146" lon="8.703495">
|
|
<ele>-29.851231</ele>
|
|
<time>2026-07-10T14:13:14.000Z</time>
|
|
</trkpt>
|
|
<trkpt lat="55.236149" lon="8.703392">
|
|
<ele>-29.824388</ele>
|
|
<time>2026-07-10T14:13:15.000Z</time>
|
|
</trkpt>
|
|
<trkpt lat="55.236149" lon="8.703291">
|
|
<ele>-29.798100</ele>
|
|
<time>2026-07-10T14:13:16.000Z</time>
|
|
</trkpt>
|
|
<trkpt lat="55.236150" lon="8.703194">
|
|
<ele>-29.772850</ele>
|
|
<time>2026-07-10T14:13:17.000Z</time>
|
|
</trkpt>
|
|
<trkpt lat="55.236153" lon="8.703099">
|
|
<ele>-29.748086</ele>
|
|
<time>2026-07-10T14:13:18.000Z</time>
|
|
</trkpt>
|
|
<trkpt lat="55.236154" lon="8.703007">
|
|
<ele>-29.724137</ele>
|
|
<time>2026-07-10T14:13:19.000Z</time>
|
|
</trkpt>
|
|
<trkpt lat="55.236159" lon="8.702913">
|
|
<ele>-29.699565</ele>
|
|
<time>2026-07-10T14:13:20.000Z</time>
|
|
</trkpt>
|
|
<trkpt lat="55.236167" lon="8.702822">
|
|
<ele>-29.675600</ele>
|
|
<time>2026-07-10T14:13:21.000Z</time>
|
|
</trkpt>
|
|
<trkpt lat="55.236178" lon="8.702729">
|
|
<ele>-29.650879</ele>
|
|
<time>2026-07-10T14:13:22.000Z</time>
|
|
</trkpt>
|
|
<trkpt lat="55.236188" lon="8.702639">
|
|
<ele>-29.627014</ele>
|
|
<time>2026-07-10T14:13:23.000Z</time>
|
|
</trkpt>
|
|
<trkpt lat="55.236202" lon="8.702547">
|
|
<ele>-29.602231</ele>
|
|
<time>2026-07-10T14:13:24.000Z</time>
|
|
</trkpt>
|
|
<trkpt lat="55.236214" lon="8.702454">
|
|
<ele>-29.593170</ele>
|
|
<time>2026-07-10T14:13:25.000Z</time>
|
|
</trkpt>
|
|
<trkpt lat="55.236228" lon="8.702362">
|
|
<ele>-29.612474</ele>
|
|
<time>2026-07-10T14:13:26.000Z</time>
|
|
</trkpt>
|
|
<trkpt lat="55.236242" lon="8.702272">
|
|
<ele>-29.631386</ele>
|
|
<time>2026-07-10T14:13:27.000Z</time>
|
|
</trkpt>
|
|
<trkpt lat="55.236260" lon="8.702187">
|
|
<ele>-29.649768</ele>
|
|
<time>2026-07-10T14:13:28.000Z</time>
|
|
</trkpt>
|
|
<trkpt lat="55.236276" lon="8.702098">
|
|
<ele>-29.668686</ele>
|
|
<time>2026-07-10T14:13:29.000Z</time>
|
|
</trkpt>
|
|
<trkpt lat="55.236294" lon="8.702008">
|
|
<ele>-29.688022</ele>
|
|
<time>2026-07-10T14:13:30.000Z</time>
|
|
</trkpt>
|
|
<trkpt lat="55.236310" lon="8.701918">
|
|
<ele>-29.707133</ele>
|
|
<time>2026-07-10T14:13:31.000Z</time>
|
|
</trkpt>
|
|
<trkpt lat="55.236326" lon="8.701829">
|
|
<ele>-29.726051</ele>
|
|
<time>2026-07-10T14:13:32.000Z</time>
|
|
</trkpt>
|
|
<trkpt lat="55.236344" lon="8.701741">
|
|
<ele>-29.745004</ele>
|
|
<time>2026-07-10T14:13:33.000Z</time>
|
|
</trkpt>
|
|
<trkpt lat="55.236359" lon="8.701651">
|
|
<ele>-29.764013</ele>
|
|
<time>2026-07-10T14:13:34.000Z</time>
|
|
</trkpt>
|
|
<trkpt lat="55.236375" lon="8.701560">
|
|
<ele>-29.783318</ele>
|
|
<time>2026-07-10T14:13:35.000Z</time>
|
|
</trkpt>
|
|
<trkpt lat="55.236390" lon="8.701468">
|
|
<ele>-29.802717</ele>
|
|
<time>2026-07-10T14:13:36.000Z</time>
|
|
</trkpt>
|
|
<trkpt lat="55.236405" lon="8.701376">
|
|
<ele>-29.822115</ele>
|
|
<time>2026-07-10T14:13:37.000Z</time>
|
|
</trkpt>
|
|
<trkpt lat="55.236421" lon="8.701288">
|
|
<ele>-29.840840</ele>
|
|
<time>2026-07-10T14:13:38.000Z</time>
|
|
</trkpt>
|
|
<trkpt lat="55.236439" lon="8.701201">
|
|
<ele>-29.859602</ele>
|
|
<time>2026-07-10T14:13:39.000Z</time>
|
|
</trkpt>
|
|
<trkpt lat="55.236457" lon="8.701116">
|
|
<ele>-29.877984</ele>
|
|
<time>2026-07-10T14:13:40.000Z</time>
|
|
</trkpt>
|
|
<trkpt lat="55.236478" lon="8.701032">
|
|
<ele>-29.896578</ele>
|
|
<time>2026-07-10T14:13:41.000Z</time>
|
|
</trkpt>
|
|
<trkpt lat="55.236498" lon="8.700946">
|
|
<ele>-29.915407</ele>
|
|
<time>2026-07-10T14:13:42.000Z</time>
|
|
</trkpt>
|
|
<trkpt lat="55.236516" lon="8.700863">
|
|
<ele>-29.933409</ele>
|
|
<time>2026-07-10T14:13:43.000Z</time>
|
|
</trkpt>
|
|
<trkpt lat="55.236532" lon="8.700780">
|
|
<ele>-29.951170</ele>
|
|
<time>2026-07-10T14:13:44.000Z</time>
|
|
</trkpt>
|
|
<trkpt lat="55.236551" lon="8.700700">
|
|
<ele>-29.968739</ele>
|
|
<time>2026-07-10T14:13:45.000Z</time>
|
|
</trkpt>
|
|
<trkpt lat="55.236569" lon="8.700617">
|
|
<ele>-29.986741</ele>
|
|
<time>2026-07-10T14:13:46.000Z</time>
|
|
</trkpt>
|
|
<trkpt lat="55.236585" lon="8.700530">
|
|
<ele>-30.005273</ele>
|
|
<time>2026-07-10T14:13:47.000Z</time>
|
|
</trkpt>
|
|
<trkpt lat="55.236606" lon="8.700439">
|
|
<ele>-30.025175</ele>
|
|
<time>2026-07-10T14:13:48.000Z</time>
|
|
</trkpt>
|
|
<trkpt lat="55.236628" lon="8.700351">
|
|
<ele>-30.044654</ele>
|
|
<time>2026-07-10T14:13:49.000Z</time>
|
|
</trkpt>
|
|
<trkpt lat="55.236650" lon="8.700263">
|
|
<ele>-30.064133</ele>
|
|
<time>2026-07-10T14:13:50.000Z</time>
|
|
</trkpt>
|
|
<trkpt lat="55.236670" lon="8.700172">
|
|
<ele>-30.083904</ele>
|
|
<time>2026-07-10T14:13:51.000Z</time>
|
|
</trkpt>
|
|
<trkpt lat="55.236693" lon="8.700079">
|
|
<ele>-30.104454</ele>
|
|
<time>2026-07-10T14:13:52.000Z</time>
|
|
</trkpt>
|
|
<trkpt lat="55.236714" lon="8.699983">
|
|
<ele>-30.125299</ele>
|
|
<time>2026-07-10T14:13:53.000Z</time>
|
|
</trkpt>
|
|
<trkpt lat="55.236730" lon="8.699887">
|
|
<ele>-30.145575</ele>
|
|
<time>2026-07-10T14:13:54.000Z</time>
|
|
</trkpt>
|
|
<trkpt lat="55.236750" lon="8.699795">
|
|
<ele>-30.165535</ele>
|
|
<time>2026-07-10T14:13:55.000Z</time>
|
|
</trkpt>
|
|
<trkpt lat="55.236774" lon="8.699705">
|
|
<ele>-30.185677</ele>
|
|
<time>2026-07-10T14:13:56.000Z</time>
|
|
</trkpt>
|
|
<trkpt lat="55.236795" lon="8.699614">
|
|
<ele>-30.205579</ele>
|
|
<time>2026-07-10T14:13:57.000Z</time>
|
|
</trkpt>
|
|
<trkpt lat="55.236815" lon="8.699523">
|
|
<ele>-30.225349</ele>
|
|
<time>2026-07-10T14:13:58.000Z</time>
|
|
</trkpt>
|
|
<trkpt lat="55.236838" lon="8.699431">
|
|
<ele>-30.258289</ele>
|
|
<time>2026-07-10T14:13:59.000Z</time>
|
|
</trkpt>
|
|
<trkpt lat="55.236861" lon="8.699336">
|
|
<ele>-30.292397</ele>
|
|
<time>2026-07-10T14:14:00.000Z</time>
|
|
</trkpt>
|
|
<trkpt lat="55.236883" lon="8.699240">
|
|
<ele>-30.326590</ele>
|
|
<time>2026-07-10T14:14:01.000Z</time>
|
|
</trkpt>
|
|
<trkpt lat="55.236901" lon="8.699144">
|
|
<ele>-30.359987</ele>
|
|
<time>2026-07-10T14:14:02.000Z</time>
|
|
</trkpt>
|
|
<trkpt lat="55.236916" lon="8.699050">
|
|
<ele>-30.392246</ele>
|
|
<time>2026-07-10T14:14:03.000Z</time>
|
|
</trkpt>
|
|
<trkpt lat="55.236931" lon="8.698956">
|
|
<ele>-30.424505</ele>
|
|
<time>2026-07-10T14:14:04.000Z</time>
|
|
</trkpt>
|
|
<trkpt lat="55.236947" lon="8.698859">
|
|
<ele>-30.457876</ele>
|
|
<time>2026-07-10T14:14:05.000Z</time>
|
|
</trkpt>
|
|
<trkpt lat="55.236962" lon="8.698760">
|
|
<ele>-30.491729</ele>
|
|
<time>2026-07-10T14:14:06.000Z</time>
|
|
</trkpt>
|
|
<trkpt lat="55.236975" lon="8.698662">
|
|
<ele>-30.524981</ele>
|
|
<time>2026-07-10T14:14:07.000Z</time>
|
|
</trkpt>
|
|
<trkpt lat="55.236985" lon="8.698563">
|
|
<ele>-30.558208</ele>
|
|
<time>2026-07-10T14:14:08.000Z</time>
|
|
</trkpt>
|
|
<trkpt lat="55.236999" lon="8.698465">
|
|
<ele>-30.591596</ele>
|
|
<time>2026-07-10T14:14:09.000Z</time>
|
|
</trkpt>
|
|
<trkpt lat="55.237010" lon="8.698369">
|
|
<ele>-30.623956</ele>
|
|
<time>2026-07-10T14:14:10.000Z</time>
|
|
</trkpt>
|
|
<trkpt lat="55.237022" lon="8.698276">
|
|
<ele>-30.655468</ele>
|
|
<time>2026-07-10T14:14:11.000Z</time>
|
|
</trkpt>
|
|
<trkpt lat="55.237033" lon="8.698181">
|
|
<ele>-30.687504</ele>
|
|
<time>2026-07-10T14:14:12.000Z</time>
|
|
</trkpt>
|
|
<trkpt lat="55.237044" lon="8.698083">
|
|
<ele>-30.720513</ele>
|
|
<time>2026-07-10T14:14:13.000Z</time>
|
|
</trkpt>
|
|
<trkpt lat="55.237051" lon="8.697986">
|
|
<ele>-30.752825</ele>
|
|
<time>2026-07-10T14:14:14.000Z</time>
|
|
</trkpt>
|
|
<trkpt lat="55.237060" lon="8.697892">
|
|
<ele>-30.784325</ele>
|
|
<time>2026-07-10T14:14:15.000Z</time>
|
|
</trkpt>
|
|
<trkpt lat="55.237071" lon="8.697801">
|
|
<ele>-30.815067</ele>
|
|
<time>2026-07-10T14:14:16.000Z</time>
|
|
</trkpt>
|
|
<trkpt lat="55.237082" lon="8.697709">
|
|
<ele>-30.846132</ele>
|
|
<time>2026-07-10T14:14:17.000Z</time>
|
|
</trkpt>
|
|
<trkpt lat="55.237089" lon="8.697616">
|
|
<ele>-30.877134</ele>
|
|
<time>2026-07-10T14:14:18.000Z</time>
|
|
</trkpt>
|
|
<trkpt lat="55.237097" lon="8.697523">
|
|
<ele>-30.908216</ele>
|
|
<time>2026-07-10T14:14:19.000Z</time>
|
|
</trkpt>
|
|
<trkpt lat="55.237106" lon="8.697434">
|
|
<ele>-30.938087</ele>
|
|
<time>2026-07-10T14:14:20.000Z</time>
|
|
</trkpt>
|
|
<trkpt lat="55.237116" lon="8.697341">
|
|
<ele>-30.969364</ele>
|
|
<time>2026-07-10T14:14:21.000Z</time>
|
|
</trkpt>
|
|
<trkpt lat="55.237125" lon="8.697249">
|
|
<ele>-31.000212</ele>
|
|
<time>2026-07-10T14:14:22.000Z</time>
|
|
</trkpt>
|
|
<trkpt lat="55.237134" lon="8.697157">
|
|
<ele>-31.031060</ele>
|
|
<time>2026-07-10T14:14:23.000Z</time>
|
|
</trkpt>
|
|
<trkpt lat="55.237140" lon="8.697064">
|
|
<ele>-31.061991</ele>
|
|
<time>2026-07-10T14:14:24.000Z</time>
|
|
</trkpt>
|
|
<trkpt lat="55.237152" lon="8.696973">
|
|
<ele>-31.092858</ele>
|
|
<time>2026-07-10T14:14:25.000Z</time>
|
|
</trkpt>
|
|
<trkpt lat="55.237162" lon="8.696882">
|
|
<ele>-31.123485</ele>
|
|
<time>2026-07-10T14:14:26.000Z</time>
|
|
</trkpt>
|
|
<trkpt lat="55.237170" lon="8.696792">
|
|
<ele>-31.153588</ele>
|
|
<time>2026-07-10T14:14:27.000Z</time>
|
|
</trkpt>
|
|
<trkpt lat="55.237178" lon="8.696700">
|
|
<ele>-31.184343</ele>
|
|
<time>2026-07-10T14:14:28.000Z</time>
|
|
</trkpt>
|
|
<trkpt lat="55.237189" lon="8.696609">
|
|
<ele>-31.215085</ele>
|
|
<time>2026-07-10T14:14:29.000Z</time>
|
|
</trkpt>
|
|
<trkpt lat="55.237196" lon="8.696517">
|
|
<ele>-31.245758</ele>
|
|
<time>2026-07-10T14:14:30.000Z</time>
|
|
</trkpt>
|
|
<trkpt lat="55.237205" lon="8.696426">
|
|
<ele>-31.266957</ele>
|
|
<time>2026-07-10T14:14:31.000Z</time>
|
|
</trkpt>
|
|
<trkpt lat="55.237215" lon="8.696334">
|
|
<ele>-31.261936</ele>
|
|
<time>2026-07-10T14:14:32.000Z</time>
|
|
</trkpt>
|
|
<trkpt lat="55.237223" lon="8.696243">
|
|
<ele>-31.257000</ele>
|
|
<time>2026-07-10T14:14:33.000Z</time>
|
|
</trkpt>
|
|
<trkpt lat="55.237232" lon="8.696150">
|
|
<ele>-31.251943</ele>
|
|
<time>2026-07-10T14:14:34.000Z</time>
|
|
</trkpt>
|
|
<trkpt lat="55.237242" lon="8.696059">
|
|
<ele>-31.246975</ele>
|
|
<time>2026-07-10T14:14:35.000Z</time>
|
|
</trkpt>
|
|
<trkpt lat="55.237251" lon="8.695969">
|
|
<ele>-31.242076</ele>
|
|
<time>2026-07-10T14:14:36.000Z</time>
|
|
</trkpt>
|
|
<trkpt lat="55.237265" lon="8.695881">
|
|
<ele>-31.237178</ele>
|
|
<time>2026-07-10T14:14:37.000Z</time>
|
|
</trkpt>
|
|
<trkpt lat="55.237284" lon="8.695794">
|
|
<ele>-31.232184</ele>
|
|
<time>2026-07-10T14:14:38.000Z</time>
|
|
</trkpt>
|
|
<trkpt lat="55.237309" lon="8.695713">
|
|
<ele>-31.227246</ele>
|
|
<time>2026-07-10T14:14:39.000Z</time>
|
|
</trkpt>
|
|
<trkpt lat="55.237336" lon="8.695636">
|
|
<ele>-31.222400</ele>
|
|
<time>2026-07-10T14:14:40.000Z</time>
|
|
</trkpt>
|
|
<trkpt lat="55.237369" lon="8.695567">
|
|
<ele>-31.217571</ele>
|
|
<time>2026-07-10T14:14:41.000Z</time>
|
|
</trkpt>
|
|
<trkpt lat="55.237408" lon="8.695504">
|
|
<ele>-31.212586</ele>
|
|
<time>2026-07-10T14:14:42.000Z</time>
|
|
</trkpt>
|
|
<trkpt lat="55.237450" lon="8.695449">
|
|
<ele>-31.207658</ele>
|
|
<time>2026-07-10T14:14:43.000Z</time>
|
|
</trkpt>
|
|
<trkpt lat="55.237493" lon="8.695399">
|
|
<ele>-31.202807</ele>
|
|
<time>2026-07-10T14:14:44.000Z</time>
|
|
</trkpt>
|
|
<trkpt lat="55.237539" lon="8.695356">
|
|
<ele>-31.197906</ele>
|
|
<time>2026-07-10T14:14:45.000Z</time>
|
|
</trkpt>
|
|
<trkpt lat="55.237585" lon="8.695317">
|
|
<ele>-31.193102</ele>
|
|
<time>2026-07-10T14:14:46.000Z</time>
|
|
</trkpt>
|
|
<trkpt lat="55.237631" lon="8.695284">
|
|
<ele>-31.188429</ele>
|
|
<time>2026-07-10T14:14:47.000Z</time>
|
|
</trkpt>
|
|
<trkpt lat="55.237678" lon="8.695250">
|
|
<ele>-31.183648</ele>
|
|
<time>2026-07-10T14:14:48.000Z</time>
|
|
</trkpt>
|
|
<trkpt lat="55.237727" lon="8.695215">
|
|
<ele>-31.178674</ele>
|
|
<time>2026-07-10T14:14:49.000Z</time>
|
|
</trkpt>
|
|
<trkpt lat="55.237776" lon="8.695180">
|
|
<ele>-31.173699</ele>
|
|
<time>2026-07-10T14:14:50.000Z</time>
|
|
</trkpt>
|
|
<trkpt lat="55.237821" lon="8.695144">
|
|
<ele>-31.169049</ele>
|
|
<time>2026-07-10T14:14:51.000Z</time>
|
|
</trkpt>
|
|
<trkpt lat="55.237867" lon="8.695102">
|
|
<ele>-31.164173</ele>
|
|
<time>2026-07-10T14:14:52.000Z</time>
|
|
</trkpt>
|
|
<trkpt lat="55.237911" lon="8.695054">
|
|
<ele>-31.159301</ele>
|
|
<time>2026-07-10T14:14:53.000Z</time>
|
|
</trkpt>
|
|
<trkpt lat="55.237952" lon="8.694995">
|
|
<ele>-31.154314</ele>
|
|
<time>2026-07-10T14:14:54.000Z</time>
|
|
</trkpt>
|
|
<trkpt lat="55.237985" lon="8.694931">
|
|
<ele>-31.149688</ele>
|
|
<time>2026-07-10T14:14:55.000Z</time>
|
|
</trkpt>
|
|
<trkpt lat="55.238019" lon="8.694861">
|
|
<ele>-31.144758</ele>
|
|
<time>2026-07-10T14:14:56.000Z</time>
|
|
</trkpt>
|
|
<trkpt lat="55.238049" lon="8.694785">
|
|
<ele>-31.139803</ele>
|
|
<time>2026-07-10T14:14:57.000Z</time>
|
|
</trkpt>
|
|
<trkpt lat="55.238073" lon="8.694704">
|
|
<ele>-31.134909</ele>
|
|
<time>2026-07-10T14:14:58.000Z</time>
|
|
</trkpt>
|
|
<trkpt lat="55.238092" lon="8.694619">
|
|
<ele>-31.130015</ele>
|
|
<time>2026-07-10T14:14:59.000Z</time>
|
|
</trkpt>
|
|
<trkpt lat="55.238109" lon="8.694531">
|
|
<ele>-31.125034</ele>
|
|
<time>2026-07-10T14:15:00.000Z</time>
|
|
</trkpt>
|
|
<trkpt lat="55.238119" lon="8.694442">
|
|
<ele>-31.120171</ele>
|
|
<time>2026-07-10T14:15:01.000Z</time>
|
|
</trkpt>
|
|
<trkpt lat="55.238129" lon="8.694352">
|
|
<ele>-31.115255</ele>
|
|
<time>2026-07-10T14:15:02.000Z</time>
|
|
</trkpt>
|
|
<trkpt lat="55.238143" lon="8.694262">
|
|
<ele>-31.110254</ele>
|
|
<time>2026-07-10T14:15:03.000Z</time>
|
|
</trkpt>
|
|
<trkpt lat="55.238155" lon="8.694170">
|
|
<ele>-31.105194</ele>
|
|
<time>2026-07-10T14:15:04.000Z</time>
|
|
</trkpt>
|
|
<trkpt lat="55.238167" lon="8.694078">
|
|
<ele>-31.100135</ele>
|
|
<time>2026-07-10T14:15:05.000Z</time>
|
|
</trkpt>
|
|
<trkpt lat="55.238180" lon="8.693985">
|
|
<ele>-31.102432</ele>
|
|
<time>2026-07-10T14:15:06.000Z</time>
|
|
</trkpt>
|
|
<trkpt lat="55.238189" lon="8.693892">
|
|
<ele>-31.106450</ele>
|
|
<time>2026-07-10T14:15:07.000Z</time>
|
|
</trkpt>
|
|
<trkpt lat="55.238201" lon="8.693798">
|
|
<ele>-31.110552</ele>
|
|
<time>2026-07-10T14:15:08.000Z</time>
|
|
</trkpt>
|
|
<trkpt lat="55.238212" lon="8.693704">
|
|
<ele>-31.114639</ele>
|
|
<time>2026-07-10T14:15:09.000Z</time>
|
|
</trkpt>
|
|
<trkpt lat="55.238224" lon="8.693611">
|
|
<ele>-31.118700</ele>
|
|
<time>2026-07-10T14:15:10.000Z</time>
|
|
</trkpt>
|
|
<trkpt lat="55.238234" lon="8.693516">
|
|
<ele>-31.122814</ele>
|
|
<time>2026-07-10T14:15:11.000Z</time>
|
|
</trkpt>
|
|
<trkpt lat="55.238244" lon="8.693422">
|
|
<ele>-31.126886</ele>
|
|
<time>2026-07-10T14:15:12.000Z</time>
|
|
</trkpt>
|
|
<trkpt lat="55.238258" lon="8.693330">
|
|
<ele>-31.130942</ele>
|
|
<time>2026-07-10T14:15:13.000Z</time>
|
|
</trkpt>
|
|
<trkpt lat="55.238270" lon="8.693240">
|
|
<ele>-31.134878</ele>
|
|
<time>2026-07-10T14:15:14.000Z</time>
|
|
</trkpt>
|
|
<trkpt lat="55.238286" lon="8.693150">
|
|
<ele>-31.138893</ele>
|
|
<time>2026-07-10T14:15:15.000Z</time>
|
|
</trkpt>
|
|
<trkpt lat="55.238301" lon="8.693061">
|
|
<ele>-31.142845</ele>
|
|
<time>2026-07-10T14:15:16.000Z</time>
|
|
</trkpt>
|
|
<trkpt lat="55.238315" lon="8.692973">
|
|
<ele>-31.146736</ele>
|
|
<time>2026-07-10T14:15:17.000Z</time>
|
|
</trkpt>
|
|
<trkpt lat="55.238327" lon="8.692888">
|
|
<ele>-31.150466</ele>
|
|
<time>2026-07-10T14:15:18.000Z</time>
|
|
</trkpt>
|
|
<trkpt lat="55.238336" lon="8.692808">
|
|
<ele>-31.153938</ele>
|
|
<time>2026-07-10T14:15:19.000Z</time>
|
|
</trkpt>
|
|
<trkpt lat="55.238342" lon="8.692734">
|
|
<ele>-31.157122</ele>
|
|
<time>2026-07-10T14:15:20.000Z</time>
|
|
</trkpt>
|
|
<trkpt lat="55.238351" lon="8.692666">
|
|
<ele>-31.160095</ele>
|
|
<time>2026-07-10T14:15:21.000Z</time>
|
|
</trkpt>
|
|
<trkpt lat="55.238356" lon="8.692600">
|
|
<ele>-31.162930</ele>
|
|
<time>2026-07-10T14:15:22.000Z</time>
|
|
</trkpt>
|
|
<trkpt lat="55.238364" lon="8.692532">
|
|
<ele>-31.165887</ele>
|
|
<time>2026-07-10T14:15:23.000Z</time>
|
|
</trkpt>
|
|
<trkpt lat="55.238371" lon="8.692463">
|
|
<ele>-31.168872</ele>
|
|
<time>2026-07-10T14:15:24.000Z</time>
|
|
</trkpt>
|
|
<trkpt lat="55.238380" lon="8.692393">
|
|
<ele>-31.171928</ele>
|
|
<time>2026-07-10T14:15:25.000Z</time>
|
|
</trkpt>
|
|
<trkpt lat="55.238390" lon="8.692322">
|
|
<ele>-31.175042</ele>
|
|
<time>2026-07-10T14:15:26.000Z</time>
|
|
</trkpt>
|
|
<trkpt lat="55.238399" lon="8.692247">
|
|
<ele>-31.178307</ele>
|
|
<time>2026-07-10T14:15:27.000Z</time>
|
|
</trkpt>
|
|
<trkpt lat="55.238409" lon="8.692172">
|
|
<ele>-31.181587</ele>
|
|
<time>2026-07-10T14:15:28.000Z</time>
|
|
</trkpt>
|
|
<trkpt lat="55.238418" lon="8.692097">
|
|
<ele>-31.184851</ele>
|
|
<time>2026-07-10T14:15:29.000Z</time>
|
|
</trkpt>
|
|
<trkpt lat="55.238428" lon="8.692022">
|
|
<ele>-31.188131</ele>
|
|
<time>2026-07-10T14:15:30.000Z</time>
|
|
</trkpt>
|
|
<trkpt lat="55.238436" lon="8.691947">
|
|
<ele>-31.191381</ele>
|
|
<time>2026-07-10T14:15:31.000Z</time>
|
|
</trkpt>
|
|
<trkpt lat="55.238445" lon="8.691874">
|
|
<ele>-31.194562</ele>
|
|
<time>2026-07-10T14:15:32.000Z</time>
|
|
</trkpt>
|
|
<trkpt lat="55.238455" lon="8.691798">
|
|
<ele>-31.197883</ele>
|
|
<time>2026-07-10T14:15:33.000Z</time>
|
|
</trkpt>
|
|
<trkpt lat="55.238464" lon="8.691723">
|
|
<ele>-31.201147</ele>
|
|
<time>2026-07-10T14:15:34.000Z</time>
|
|
</trkpt>
|
|
<trkpt lat="55.238475" lon="8.691648">
|
|
<ele>-31.204445</ele>
|
|
<time>2026-07-10T14:15:35.000Z</time>
|
|
</trkpt>
|
|
<trkpt lat="55.238486" lon="8.691573">
|
|
<ele>-31.207744</ele>
|
|
<time>2026-07-10T14:15:36.000Z</time>
|
|
</trkpt>
|
|
<trkpt lat="55.238494" lon="8.691498">
|
|
<ele>-31.210993</ele>
|
|
<time>2026-07-10T14:15:37.000Z</time>
|
|
</trkpt>
|
|
<trkpt lat="55.238505" lon="8.691422">
|
|
<ele>-31.214332</ele>
|
|
<time>2026-07-10T14:15:38.000Z</time>
|
|
</trkpt>
|
|
<trkpt lat="55.238515" lon="8.691347">
|
|
<ele>-31.217613</ele>
|
|
<time>2026-07-10T14:15:39.000Z</time>
|
|
</trkpt>
|
|
<trkpt lat="55.238529" lon="8.691274">
|
|
<ele>-31.220893</ele>
|
|
<time>2026-07-10T14:15:40.000Z</time>
|
|
</trkpt>
|
|
<trkpt lat="55.238541" lon="8.691201">
|
|
<ele>-31.224128</ele>
|
|
<time>2026-07-10T14:15:41.000Z</time>
|
|
</trkpt>
|
|
<trkpt lat="55.238555" lon="8.691130">
|
|
<ele>-31.227328</ele>
|
|
<time>2026-07-10T14:15:42.000Z</time>
|
|
</trkpt>
|
|
<trkpt lat="55.238567" lon="8.691056">
|
|
<ele>-31.230604</ele>
|
|
<time>2026-07-10T14:15:43.000Z</time>
|
|
</trkpt>
|
|
<trkpt lat="55.238577" lon="8.690983">
|
|
<ele>-31.232665</ele>
|
|
<time>2026-07-10T14:15:44.000Z</time>
|
|
</trkpt>
|
|
<trkpt lat="55.238586" lon="8.690909">
|
|
<ele>-31.224081</ele>
|
|
<time>2026-07-10T14:15:45.000Z</time>
|
|
</trkpt>
|
|
<trkpt lat="55.238596" lon="8.690834">
|
|
<ele>-31.215343</ele>
|
|
<time>2026-07-10T14:15:46.000Z</time>
|
|
</trkpt>
|
|
<trkpt lat="55.238605" lon="8.690756">
|
|
<ele>-31.206315</ele>
|
|
<time>2026-07-10T14:15:47.000Z</time>
|
|
</trkpt>
|
|
<trkpt lat="55.238616" lon="8.690679">
|
|
<ele>-31.197309</ele>
|
|
<time>2026-07-10T14:15:48.000Z</time>
|
|
</trkpt>
|
|
<trkpt lat="55.238627" lon="8.690603">
|
|
<ele>-31.188414</ele>
|
|
<time>2026-07-10T14:15:49.000Z</time>
|
|
</trkpt>
|
|
<trkpt lat="55.238634" lon="8.690528">
|
|
<ele>-31.179792</ele>
|
|
<time>2026-07-10T14:15:50.000Z</time>
|
|
</trkpt>
|
|
<trkpt lat="55.238643" lon="8.690451">
|
|
<ele>-31.170875</ele>
|
|
<time>2026-07-10T14:15:51.000Z</time>
|
|
</trkpt>
|
|
<trkpt lat="55.238653" lon="8.690375">
|
|
<ele>-31.162026</ele>
|
|
<time>2026-07-10T14:15:52.000Z</time>
|
|
</trkpt>
|
|
<trkpt lat="55.238662" lon="8.690300">
|
|
<ele>-31.153332</ele>
|
|
<time>2026-07-10T14:15:53.000Z</time>
|
|
</trkpt>
|
|
<trkpt lat="55.238673" lon="8.690225">
|
|
<ele>-31.144546</ele>
|
|
<time>2026-07-10T14:15:54.000Z</time>
|
|
</trkpt>
|
|
<trkpt lat="55.238680" lon="8.690150">
|
|
<ele>-31.135924</ele>
|
|
<time>2026-07-10T14:15:55.000Z</time>
|
|
</trkpt>
|
|
<trkpt lat="55.238688" lon="8.690075">
|
|
<ele>-31.127268</ele>
|
|
<time>2026-07-10T14:15:56.000Z</time>
|
|
</trkpt>
|
|
<trkpt lat="55.238697" lon="8.689997">
|
|
<ele>-31.118240</ele>
|
|
<time>2026-07-10T14:15:57.000Z</time>
|
|
</trkpt>
|
|
<trkpt lat="55.238708" lon="8.689920">
|
|
<ele>-31.109235</ele>
|
|
<time>2026-07-10T14:15:58.000Z</time>
|
|
</trkpt>
|
|
<trkpt lat="55.238718" lon="8.689843">
|
|
<ele>-31.100276</ele>
|
|
<time>2026-07-10T14:15:59.000Z</time>
|
|
</trkpt>
|
|
<trkpt lat="55.238727" lon="8.689765">
|
|
<ele>-31.091247</ele>
|
|
<time>2026-07-10T14:16:00.000Z</time>
|
|
</trkpt>
|
|
<trkpt lat="55.238737" lon="8.689688">
|
|
<ele>-31.082288</ele>
|
|
<time>2026-07-10T14:16:01.000Z</time>
|
|
</trkpt>
|
|
<trkpt lat="55.238746" lon="8.689615">
|
|
<ele>-31.073815</ele>
|
|
<time>2026-07-10T14:16:02.000Z</time>
|
|
</trkpt>
|
|
<trkpt lat="55.238756" lon="8.689541">
|
|
<ele>-31.065188</ele>
|
|
<time>2026-07-10T14:16:03.000Z</time>
|
|
</trkpt>
|
|
<trkpt lat="55.238765" lon="8.689466">
|
|
<ele>-31.056493</ele>
|
|
<time>2026-07-10T14:16:04.000Z</time>
|
|
</trkpt>
|
|
<trkpt lat="55.238774" lon="8.689389">
|
|
<ele>-31.047576</ele>
|
|
<time>2026-07-10T14:16:05.000Z</time>
|
|
</trkpt>
|
|
<trkpt lat="55.238778" lon="8.689314">
|
|
<ele>-31.039030</ele>
|
|
<time>2026-07-10T14:16:06.000Z</time>
|
|
</trkpt>
|
|
<trkpt lat="55.238782" lon="8.689240">
|
|
<ele>-31.030597</ele>
|
|
<time>2026-07-10T14:16:07.000Z</time>
|
|
</trkpt>
|
|
<trkpt lat="55.238787" lon="8.689167">
|
|
<ele>-31.022256</ele>
|
|
<time>2026-07-10T14:16:08.000Z</time>
|
|
</trkpt>
|
|
<trkpt lat="55.238795" lon="8.689096">
|
|
<ele>-31.014046</ele>
|
|
<time>2026-07-10T14:16:09.000Z</time>
|
|
</trkpt>
|
|
<trkpt lat="55.238802" lon="8.689027">
|
|
<ele>-31.006095</ele>
|
|
<time>2026-07-10T14:16:10.000Z</time>
|
|
</trkpt>
|
|
<trkpt lat="55.238809" lon="8.688958">
|
|
<ele>-30.998144</ele>
|
|
<time>2026-07-10T14:16:11.000Z</time>
|
|
</trkpt>
|
|
<trkpt lat="55.238813" lon="8.688889">
|
|
<ele>-30.990276</ele>
|
|
<time>2026-07-10T14:16:12.000Z</time>
|
|
</trkpt>
|
|
<trkpt lat="55.238816" lon="8.688818">
|
|
<ele>-30.982199</ele>
|
|
<time>2026-07-10T14:16:13.000Z</time>
|
|
</trkpt>
|
|
<trkpt lat="55.238821" lon="8.688746">
|
|
<ele>-30.973971</ele>
|
|
<time>2026-07-10T14:16:14.000Z</time>
|
|
</trkpt>
|
|
<trkpt lat="55.238827" lon="8.688677">
|
|
<ele>-30.966053</ele>
|
|
<time>2026-07-10T14:16:15.000Z</time>
|
|
</trkpt>
|
|
<trkpt lat="55.238828" lon="8.688609">
|
|
<ele>-30.958336</ele>
|
|
<time>2026-07-10T14:16:16.000Z</time>
|
|
</trkpt>
|
|
<trkpt lat="55.238830" lon="8.688542">
|
|
<ele>-30.950724</ele>
|
|
<time>2026-07-10T14:16:17.000Z</time>
|
|
</trkpt>
|
|
<trkpt lat="55.238827" lon="8.688474">
|
|
<ele>-30.942987</ele>
|
|
<time>2026-07-10T14:16:18.000Z</time>
|
|
</trkpt>
|
|
<trkpt lat="55.238826" lon="8.688401">
|
|
<ele>-30.934703</ele>
|
|
<time>2026-07-10T14:16:19.000Z</time>
|
|
</trkpt>
|
|
<trkpt lat="55.238822" lon="8.688330">
|
|
<ele>-30.926609</ele>
|
|
<time>2026-07-10T14:16:20.000Z</time>
|
|
</trkpt>
|
|
<trkpt lat="55.238817" lon="8.688259">
|
|
<ele>-30.918493</ele>
|
|
<time>2026-07-10T14:16:21.000Z</time>
|
|
</trkpt>
|
|
<trkpt lat="55.238808" lon="8.688186">
|
|
<ele>-30.910020</ele>
|
|
<time>2026-07-10T14:16:22.000Z</time>
|
|
</trkpt>
|
|
<trkpt lat="55.238798" lon="8.688113">
|
|
<ele>-30.901503</ele>
|
|
<time>2026-07-10T14:16:23.000Z</time>
|
|
</trkpt>
|
|
<trkpt lat="55.238789" lon="8.688039">
|
|
<ele>-30.892919</ele>
|
|
<time>2026-07-10T14:16:24.000Z</time>
|
|
</trkpt>
|
|
<trkpt lat="55.238779" lon="8.687966">
|
|
<ele>-30.884402</ele>
|
|
<time>2026-07-10T14:16:25.000Z</time>
|
|
</trkpt>
|
|
<trkpt lat="55.238769" lon="8.687895">
|
|
<ele>-30.876105</ele>
|
|
<time>2026-07-10T14:16:26.000Z</time>
|
|
</trkpt>
|
|
<trkpt lat="55.238755" lon="8.687825">
|
|
<ele>-30.865839</ele>
|
|
<time>2026-07-10T14:16:27.000Z</time>
|
|
</trkpt>
|
|
<trkpt lat="55.238743" lon="8.687759">
|
|
<ele>-30.856145</ele>
|
|
<time>2026-07-10T14:16:28.000Z</time>
|
|
</trkpt>
|
|
<trkpt lat="55.238727" lon="8.687689">
|
|
<ele>-30.845590</ele>
|
|
<time>2026-07-10T14:16:29.000Z</time>
|
|
</trkpt>
|
|
<trkpt lat="55.238712" lon="8.687625">
|
|
<ele>-30.835906</ele>
|
|
<time>2026-07-10T14:16:30.000Z</time>
|
|
</trkpt>
|
|
<trkpt lat="55.238697" lon="8.687559">
|
|
<ele>-30.825963</ele>
|
|
<time>2026-07-10T14:16:31.000Z</time>
|
|
</trkpt>
|
|
<trkpt lat="55.238681" lon="8.687498">
|
|
<ele>-30.816566</ele>
|
|
<time>2026-07-10T14:16:32.000Z</time>
|
|
</trkpt>
|
|
<trkpt lat="55.238667" lon="8.687432">
|
|
<ele>-30.806711</ele>
|
|
<time>2026-07-10T14:16:33.000Z</time>
|
|
</trkpt>
|
|
<trkpt lat="55.238656" lon="8.687366">
|
|
<ele>-30.797088</ele>
|
|
<time>2026-07-10T14:16:34.000Z</time>
|
|
</trkpt>
|
|
<trkpt lat="55.238643" lon="8.687298">
|
|
<ele>-30.787051</ele>
|
|
<time>2026-07-10T14:16:35.000Z</time>
|
|
</trkpt>
|
|
<trkpt lat="55.238628" lon="8.687231">
|
|
<ele>-30.776977</ele>
|
|
<time>2026-07-10T14:16:36.000Z</time>
|
|
</trkpt>
|
|
<trkpt lat="55.238613" lon="8.687163">
|
|
<ele>-30.766773</ele>
|
|
<time>2026-07-10T14:16:37.000Z</time>
|
|
</trkpt>
|
|
<trkpt lat="55.238599" lon="8.687097">
|
|
<ele>-30.756918</ele>
|
|
<time>2026-07-10T14:16:38.000Z</time>
|
|
</trkpt>
|
|
<trkpt lat="55.238586" lon="8.687029">
|
|
<ele>-30.746881</ele>
|
|
<time>2026-07-10T14:16:39.000Z</time>
|
|
</trkpt>
|
|
<trkpt lat="55.238572" lon="8.686963">
|
|
<ele>-30.737026</ele>
|
|
<time>2026-07-10T14:16:40.000Z</time>
|
|
</trkpt>
|
|
<trkpt lat="55.238559" lon="8.686897">
|
|
<ele>-30.727253</ele>
|
|
<time>2026-07-10T14:16:41.000Z</time>
|
|
</trkpt>
|
|
<trkpt lat="55.238543" lon="8.686831">
|
|
<ele>-30.717216</ele>
|
|
<time>2026-07-10T14:16:42.000Z</time>
|
|
</trkpt>
|
|
<trkpt lat="55.238525" lon="8.686767">
|
|
<ele>-30.707229</ele>
|
|
<time>2026-07-10T14:16:43.000Z</time>
|
|
</trkpt>
|
|
<trkpt lat="55.238510" lon="8.686702">
|
|
<ele>-30.697416</ele>
|
|
<time>2026-07-10T14:16:44.000Z</time>
|
|
</trkpt>
|
|
<trkpt lat="55.238494" lon="8.686636">
|
|
<ele>-30.687379</ele>
|
|
<time>2026-07-10T14:16:45.000Z</time>
|
|
</trkpt>
|
|
<trkpt lat="55.238479" lon="8.686567">
|
|
<ele>-30.677044</ele>
|
|
<time>2026-07-10T14:16:46.000Z</time>
|
|
</trkpt>
|
|
<trkpt lat="55.238465" lon="8.686498">
|
|
<ele>-30.666795</ele>
|
|
<time>2026-07-10T14:16:47.000Z</time>
|
|
</trkpt>
|
|
<trkpt lat="55.238452" lon="8.686429">
|
|
<ele>-30.656624</ele>
|
|
<time>2026-07-10T14:16:48.000Z</time>
|
|
</trkpt>
|
|
<trkpt lat="55.238437" lon="8.686358">
|
|
<ele>-30.646028</ele>
|
|
<time>2026-07-10T14:16:49.000Z</time>
|
|
</trkpt>
|
|
<trkpt lat="55.238422" lon="8.686289">
|
|
<ele>-30.635693</ele>
|
|
<time>2026-07-10T14:16:50.000Z</time>
|
|
</trkpt>
|
|
<trkpt lat="55.238407" lon="8.686219">
|
|
<ele>-30.625228</ele>
|
|
<time>2026-07-10T14:16:51.000Z</time>
|
|
</trkpt>
|
|
<trkpt lat="55.238393" lon="8.686150">
|
|
<ele>-30.614978</ele>
|
|
<time>2026-07-10T14:16:52.000Z</time>
|
|
</trkpt>
|
|
<trkpt lat="55.238380" lon="8.686082">
|
|
<ele>-30.604941</ele>
|
|
<time>2026-07-10T14:16:53.000Z</time>
|
|
</trkpt>
|
|
<trkpt lat="55.238366" lon="8.686012">
|
|
<ele>-30.594559</ele>
|
|
<time>2026-07-10T14:16:54.000Z</time>
|
|
</trkpt>
|
|
<trkpt lat="55.238353" lon="8.685944">
|
|
<ele>-30.584522</ele>
|
|
<time>2026-07-10T14:16:55.000Z</time>
|
|
</trkpt>
|
|
<trkpt lat="55.238339" lon="8.685875">
|
|
<ele>-30.574272</ele>
|
|
<time>2026-07-10T14:16:56.000Z</time>
|
|
</trkpt>
|
|
<trkpt lat="55.238326" lon="8.685807">
|
|
<ele>-30.564235</ele>
|
|
<time>2026-07-10T14:16:57.000Z</time>
|
|
</trkpt>
|
|
<trkpt lat="55.238312" lon="8.685736">
|
|
<ele>-30.553721</ele>
|
|
<time>2026-07-10T14:16:58.000Z</time>
|
|
</trkpt>
|
|
<trkpt lat="55.238300" lon="8.685663">
|
|
<ele>-30.543088</ele>
|
|
<time>2026-07-10T14:16:59.000Z</time>
|
|
</trkpt>
|
|
<trkpt lat="55.238285" lon="8.685593">
|
|
<ele>-30.532623</ele>
|
|
<time>2026-07-10T14:17:00.000Z</time>
|
|
</trkpt>
|
|
<trkpt lat="55.238269" lon="8.685523">
|
|
<ele>-30.522068</ele>
|
|
<time>2026-07-10T14:17:01.000Z</time>
|
|
</trkpt>
|
|
<trkpt lat="55.238254" lon="8.685456">
|
|
<ele>-30.511995</ele>
|
|
<time>2026-07-10T14:17:02.000Z</time>
|
|
</trkpt>
|
|
<trkpt lat="55.238240" lon="8.685390">
|
|
<ele>-30.502140</ele>
|
|
<time>2026-07-10T14:17:03.000Z</time>
|
|
</trkpt>
|
|
<trkpt lat="55.238229" lon="8.685325">
|
|
<ele>-30.492651</ele>
|
|
<time>2026-07-10T14:17:04.000Z</time>
|
|
</trkpt>
|
|
<trkpt lat="55.238216" lon="8.685255">
|
|
<ele>-30.482348</ele>
|
|
<time>2026-07-10T14:17:05.000Z</time>
|
|
</trkpt>
|
|
<trkpt lat="55.238201" lon="8.685187">
|
|
<ele>-30.472143</ele>
|
|
<time>2026-07-10T14:17:06.000Z</time>
|
|
</trkpt>
|
|
<trkpt lat="55.238187" lon="8.685120">
|
|
<ele>-30.462157</ele>
|
|
<time>2026-07-10T14:17:07.000Z</time>
|
|
</trkpt>
|
|
<trkpt lat="55.238176" lon="8.685054">
|
|
<ele>-30.452534</ele>
|
|
<time>2026-07-10T14:17:08.000Z</time>
|
|
</trkpt>
|
|
<trkpt lat="55.238165" lon="8.684986">
|
|
<ele>-30.442641</ele>
|
|
<time>2026-07-10T14:17:09.000Z</time>
|
|
</trkpt>
|
|
<trkpt lat="55.238157" lon="8.684936">
|
|
<ele>-30.435374</ele>
|
|
<time>2026-07-10T14:17:10.000Z</time>
|
|
</trkpt>
|
|
<trkpt lat="55.238155" lon="8.684907">
|
|
<ele>-30.434137</ele>
|
|
<time>2026-07-10T14:18:45.000Z</time>
|
|
</trkpt>
|
|
<trkpt lat="55.238153" lon="8.684895">
|
|
<ele>-30.434146</ele>
|
|
<time>2026-07-10T14:18:46.000Z</time>
|
|
</trkpt>
|
|
<trkpt lat="55.238147" lon="8.684857">
|
|
<ele>-30.434175</ele>
|
|
<time>2026-07-10T14:18:47.000Z</time>
|
|
</trkpt>
|
|
<trkpt lat="55.238142" lon="8.684825">
|
|
<ele>-30.434199</ele>
|
|
<time>2026-07-10T14:18:48.000Z</time>
|
|
</trkpt>
|
|
<trkpt lat="55.238133" lon="8.684787">
|
|
<ele>-30.434229</ele>
|
|
<time>2026-07-10T14:18:49.000Z</time>
|
|
</trkpt>
|
|
<trkpt lat="55.238123" lon="8.684746">
|
|
<ele>-30.434261</ele>
|
|
<time>2026-07-10T14:18:50.000Z</time>
|
|
</trkpt>
|
|
<trkpt lat="55.238115" lon="8.684706">
|
|
<ele>-30.434292</ele>
|
|
<time>2026-07-10T14:18:51.000Z</time>
|
|
</trkpt>
|
|
<trkpt lat="55.238107" lon="8.684661">
|
|
<ele>-30.434327</ele>
|
|
<time>2026-07-10T14:18:52.000Z</time>
|
|
</trkpt>
|
|
<trkpt lat="55.238095" lon="8.684614">
|
|
<ele>-30.434364</ele>
|
|
<time>2026-07-10T14:18:53.000Z</time>
|
|
</trkpt>
|
|
<trkpt lat="55.238085" lon="8.684570">
|
|
<ele>-30.434399</ele>
|
|
<time>2026-07-10T14:18:54.000Z</time>
|
|
</trkpt>
|
|
<trkpt lat="55.238072" lon="8.684510">
|
|
<ele>-30.434445</ele>
|
|
<time>2026-07-10T14:18:55.000Z</time>
|
|
</trkpt>
|
|
<trkpt lat="55.238061" lon="8.684458">
|
|
<ele>-30.434486</ele>
|
|
<time>2026-07-10T14:18:56.000Z</time>
|
|
</trkpt>
|
|
<trkpt lat="55.238049" lon="8.684402">
|
|
<ele>-30.434529</ele>
|
|
<time>2026-07-10T14:18:57.000Z</time>
|
|
</trkpt>
|
|
<trkpt lat="55.238039" lon="8.684345">
|
|
<ele>-30.434573</ele>
|
|
<time>2026-07-10T14:18:58.000Z</time>
|
|
</trkpt>
|
|
<trkpt lat="55.238030" lon="8.684287">
|
|
<ele>-30.434616</ele>
|
|
<time>2026-07-10T14:18:59.000Z</time>
|
|
</trkpt>
|
|
<trkpt lat="55.238019" lon="8.684231">
|
|
<ele>-30.434659</ele>
|
|
<time>2026-07-10T14:19:00.000Z</time>
|
|
</trkpt>
|
|
<trkpt lat="55.238008" lon="8.684174">
|
|
<ele>-30.434703</ele>
|
|
<time>2026-07-10T14:19:01.000Z</time>
|
|
</trkpt>
|
|
<trkpt lat="55.238000" lon="8.684118">
|
|
<ele>-30.434745</ele>
|
|
<time>2026-07-10T14:19:02.000Z</time>
|
|
</trkpt>
|
|
<trkpt lat="55.237988" lon="8.684062">
|
|
<ele>-30.434789</ele>
|
|
<time>2026-07-10T14:19:03.000Z</time>
|
|
</trkpt>
|
|
<trkpt lat="55.237977" lon="8.684006">
|
|
<ele>-30.434832</ele>
|
|
<time>2026-07-10T14:19:04.000Z</time>
|
|
</trkpt>
|
|
<trkpt lat="55.237964" lon="8.683948">
|
|
<ele>-30.434877</ele>
|
|
<time>2026-07-10T14:19:05.000Z</time>
|
|
</trkpt>
|
|
<trkpt lat="55.237950" lon="8.683889">
|
|
<ele>-30.434924</ele>
|
|
<time>2026-07-10T14:19:06.000Z</time>
|
|
</trkpt>
|
|
<trkpt lat="55.237938" lon="8.683827">
|
|
<ele>-30.434971</ele>
|
|
<time>2026-07-10T14:19:07.000Z</time>
|
|
</trkpt>
|
|
<trkpt lat="55.237927" lon="8.683765">
|
|
<ele>-30.435019</ele>
|
|
<time>2026-07-10T14:19:08.000Z</time>
|
|
</trkpt>
|
|
<trkpt lat="55.237916" lon="8.683701">
|
|
<ele>-30.435067</ele>
|
|
<time>2026-07-10T14:19:09.000Z</time>
|
|
</trkpt>
|
|
<trkpt lat="55.237903" lon="8.683637">
|
|
<ele>-30.435117</ele>
|
|
<time>2026-07-10T14:19:10.000Z</time>
|
|
</trkpt>
|
|
<trkpt lat="55.237889" lon="8.683573">
|
|
<ele>-30.435166</ele>
|
|
<time>2026-07-10T14:19:11.000Z</time>
|
|
</trkpt>
|
|
<trkpt lat="55.237877" lon="8.683508">
|
|
<ele>-30.435216</ele>
|
|
<time>2026-07-10T14:19:12.000Z</time>
|
|
</trkpt>
|
|
<trkpt lat="55.237866" lon="8.683442">
|
|
<ele>-30.435266</ele>
|
|
<time>2026-07-10T14:19:13.000Z</time>
|
|
</trkpt>
|
|
<trkpt lat="55.237854" lon="8.683379">
|
|
<ele>-30.435315</ele>
|
|
<time>2026-07-10T14:19:14.000Z</time>
|
|
</trkpt>
|
|
<trkpt lat="55.237838" lon="8.683318">
|
|
<ele>-30.435363</ele>
|
|
<time>2026-07-10T14:19:15.000Z</time>
|
|
</trkpt>
|
|
<trkpt lat="55.237823" lon="8.683256">
|
|
<ele>-30.435412</ele>
|
|
<time>2026-07-10T14:19:16.000Z</time>
|
|
</trkpt>
|
|
<trkpt lat="55.237809" lon="8.683192">
|
|
<ele>-30.435462</ele>
|
|
<time>2026-07-10T14:19:17.000Z</time>
|
|
</trkpt>
|
|
<trkpt lat="55.237797" lon="8.683128">
|
|
<ele>-30.435511</ele>
|
|
<time>2026-07-10T14:19:18.000Z</time>
|
|
</trkpt>
|
|
<trkpt lat="55.237787" lon="8.683061">
|
|
<ele>-30.435562</ele>
|
|
<time>2026-07-10T14:19:19.000Z</time>
|
|
</trkpt>
|
|
<trkpt lat="55.237778" lon="8.682997">
|
|
<ele>-30.435610</ele>
|
|
<time>2026-07-10T14:19:20.000Z</time>
|
|
</trkpt>
|
|
<trkpt lat="55.237766" lon="8.682933">
|
|
<ele>-30.435659</ele>
|
|
<time>2026-07-10T14:19:21.000Z</time>
|
|
</trkpt>
|
|
<trkpt lat="55.237752" lon="8.682871">
|
|
<ele>-30.435707</ele>
|
|
<time>2026-07-10T14:19:22.000Z</time>
|
|
</trkpt>
|
|
<trkpt lat="55.237739" lon="8.682808">
|
|
<ele>-30.435756</ele>
|
|
<time>2026-07-10T14:19:23.000Z</time>
|
|
</trkpt>
|
|
<trkpt lat="55.237725" lon="8.682745">
|
|
<ele>-30.435805</ele>
|
|
<time>2026-07-10T14:19:24.000Z</time>
|
|
</trkpt>
|
|
<trkpt lat="55.237713" lon="8.682682">
|
|
<ele>-30.435853</ele>
|
|
<time>2026-07-10T14:19:25.000Z</time>
|
|
</trkpt>
|
|
<trkpt lat="55.237702" lon="8.682621">
|
|
<ele>-30.435900</ele>
|
|
<time>2026-07-10T14:19:26.000Z</time>
|
|
</trkpt>
|
|
<trkpt lat="55.237689" lon="8.682560">
|
|
<ele>-30.435947</ele>
|
|
<time>2026-07-10T14:19:27.000Z</time>
|
|
</trkpt>
|
|
<trkpt lat="55.237675" lon="8.682500">
|
|
<ele>-30.435995</ele>
|
|
<time>2026-07-10T14:19:28.000Z</time>
|
|
</trkpt>
|
|
<trkpt lat="55.237664" lon="8.682440">
|
|
<ele>-30.436040</ele>
|
|
<time>2026-07-10T14:19:29.000Z</time>
|
|
</trkpt>
|
|
<trkpt lat="55.237653" lon="8.682380">
|
|
<ele>-30.436086</ele>
|
|
<time>2026-07-10T14:19:30.000Z</time>
|
|
</trkpt>
|
|
<trkpt lat="55.237640" lon="8.682318">
|
|
<ele>-30.436134</ele>
|
|
<time>2026-07-10T14:19:31.000Z</time>
|
|
</trkpt>
|
|
<trkpt lat="55.237626" lon="8.682258">
|
|
<ele>-30.436182</ele>
|
|
<time>2026-07-10T14:19:32.000Z</time>
|
|
</trkpt>
|
|
<trkpt lat="55.237614" lon="8.682197">
|
|
<ele>-30.436228</ele>
|
|
<time>2026-07-10T14:19:33.000Z</time>
|
|
</trkpt>
|
|
<trkpt lat="55.237602" lon="8.682133">
|
|
<ele>-30.436277</ele>
|
|
<time>2026-07-10T14:19:34.000Z</time>
|
|
</trkpt>
|
|
<trkpt lat="55.237587" lon="8.682070">
|
|
<ele>-30.436327</ele>
|
|
<time>2026-07-10T14:19:35.000Z</time>
|
|
</trkpt>
|
|
<trkpt lat="55.237576" lon="8.682007">
|
|
<ele>-30.436375</ele>
|
|
<time>2026-07-10T14:19:36.000Z</time>
|
|
</trkpt>
|
|
<trkpt lat="55.237563" lon="8.681945">
|
|
<ele>-30.435320</ele>
|
|
<time>2026-07-10T14:19:37.000Z</time>
|
|
</trkpt>
|
|
<trkpt lat="55.237549" lon="8.681882">
|
|
<ele>-30.425435</ele>
|
|
<time>2026-07-10T14:19:38.000Z</time>
|
|
</trkpt>
|
|
<trkpt lat="55.237538" lon="8.681819">
|
|
<ele>-30.415803</ele>
|
|
<time>2026-07-10T14:19:39.000Z</time>
|
|
</trkpt>
|
|
<trkpt lat="55.237525" lon="8.681757">
|
|
<ele>-30.406145</ele>
|
|
<time>2026-07-10T14:19:40.000Z</time>
|
|
</trkpt>
|
|
<trkpt lat="55.237511" lon="8.681696">
|
|
<ele>-30.396532</ele>
|
|
<time>2026-07-10T14:19:41.000Z</time>
|
|
</trkpt>
|
|
<trkpt lat="55.237500" lon="8.681635">
|
|
<ele>-30.387179</ele>
|
|
<time>2026-07-10T14:19:42.000Z</time>
|
|
</trkpt>
|
|
<trkpt lat="55.237488" lon="8.681575">
|
|
<ele>-30.377883</ele>
|
|
<time>2026-07-10T14:19:43.000Z</time>
|
|
</trkpt>
|
|
<trkpt lat="55.237476" lon="8.681514">
|
|
<ele>-30.368449</ele>
|
|
<time>2026-07-10T14:19:44.000Z</time>
|
|
</trkpt>
|
|
<trkpt lat="55.237462" lon="8.681452">
|
|
<ele>-30.358700</ele>
|
|
<time>2026-07-10T14:19:45.000Z</time>
|
|
</trkpt>
|
|
<trkpt lat="55.237449" lon="8.681390">
|
|
<ele>-30.349042</ele>
|
|
<time>2026-07-10T14:19:46.000Z</time>
|
|
</trkpt>
|
|
<trkpt lat="55.237435" lon="8.681329">
|
|
<ele>-30.339429</ele>
|
|
<time>2026-07-10T14:19:47.000Z</time>
|
|
</trkpt>
|
|
<trkpt lat="55.237422" lon="8.681267">
|
|
<ele>-30.329771</ele>
|
|
<time>2026-07-10T14:19:48.000Z</time>
|
|
</trkpt>
|
|
<trkpt lat="55.237408" lon="8.681204">
|
|
<ele>-30.319886</ele>
|
|
<time>2026-07-10T14:19:49.000Z</time>
|
|
</trkpt>
|
|
<trkpt lat="55.237398" lon="8.681141">
|
|
<ele>-30.310326</ele>
|
|
<time>2026-07-10T14:19:50.000Z</time>
|
|
</trkpt>
|
|
<trkpt lat="55.237388" lon="8.681076">
|
|
<ele>-30.300483</ele>
|
|
<time>2026-07-10T14:19:51.000Z</time>
|
|
</trkpt>
|
|
<trkpt lat="55.237374" lon="8.681012">
|
|
<ele>-30.290462</ele>
|
|
<time>2026-07-10T14:19:52.000Z</time>
|
|
</trkpt>
|
|
<trkpt lat="55.237362" lon="8.680947">
|
|
<ele>-30.280473</ele>
|
|
<time>2026-07-10T14:19:53.000Z</time>
|
|
</trkpt>
|
|
<trkpt lat="55.237350" lon="8.680882">
|
|
<ele>-30.270485</ele>
|
|
<time>2026-07-10T14:19:54.000Z</time>
|
|
</trkpt>
|
|
<trkpt lat="55.237336" lon="8.680818">
|
|
<ele>-30.260463</ele>
|
|
<time>2026-07-10T14:19:55.000Z</time>
|
|
</trkpt>
|
|
<trkpt lat="55.237323" lon="8.680753">
|
|
<ele>-30.250393</ele>
|
|
<time>2026-07-10T14:19:56.000Z</time>
|
|
</trkpt>
|
|
<trkpt lat="55.237308" lon="8.680687">
|
|
<ele>-30.240005</ele>
|
|
<time>2026-07-10T14:19:57.000Z</time>
|
|
</trkpt>
|
|
<trkpt lat="55.237293" lon="8.680622">
|
|
<ele>-30.229754</ele>
|
|
<time>2026-07-10T14:19:58.000Z</time>
|
|
</trkpt>
|
|
<trkpt lat="55.237279" lon="8.680556">
|
|
<ele>-30.219459</ele>
|
|
<time>2026-07-10T14:19:59.000Z</time>
|
|
</trkpt>
|
|
<trkpt lat="55.237266" lon="8.680491">
|
|
<ele>-30.209388</ele>
|
|
<time>2026-07-10T14:20:00.000Z</time>
|
|
</trkpt>
|
|
<trkpt lat="55.237251" lon="8.680426">
|
|
<ele>-30.199137</ele>
|
|
<time>2026-07-10T14:20:01.000Z</time>
|
|
</trkpt>
|
|
<trkpt lat="55.237237" lon="8.680361">
|
|
<ele>-30.188979</ele>
|
|
<time>2026-07-10T14:20:02.000Z</time>
|
|
</trkpt>
|
|
<trkpt lat="55.237224" lon="8.680293">
|
|
<ele>-30.178493</ele>
|
|
<time>2026-07-10T14:20:03.000Z</time>
|
|
</trkpt>
|
|
<trkpt lat="55.237210" lon="8.680228">
|
|
<ele>-30.168335</ele>
|
|
<time>2026-07-10T14:20:04.000Z</time>
|
|
</trkpt>
|
|
<trkpt lat="55.237198" lon="8.680164">
|
|
<ele>-30.158486</ele>
|
|
<time>2026-07-10T14:20:05.000Z</time>
|
|
</trkpt>
|
|
<trkpt lat="55.237183" lon="8.680100">
|
|
<ele>-30.148369</ele>
|
|
<time>2026-07-10T14:20:06.000Z</time>
|
|
</trkpt>
|
|
<trkpt lat="55.237167" lon="8.680026">
|
|
<ele>-30.136799</ele>
|
|
<time>2026-07-10T14:20:07.000Z</time>
|
|
</trkpt>
|
|
<trkpt lat="55.237152" lon="8.679959">
|
|
<ele>-30.126276</ele>
|
|
<time>2026-07-10T14:20:08.000Z</time>
|
|
</trkpt>
|
|
<trkpt lat="55.237136" lon="8.679886">
|
|
<ele>-30.114842</ele>
|
|
<time>2026-07-10T14:20:09.000Z</time>
|
|
</trkpt>
|
|
<trkpt lat="55.237122" lon="8.679815">
|
|
<ele>-30.103859</ele>
|
|
<time>2026-07-10T14:20:10.000Z</time>
|
|
</trkpt>
|
|
<trkpt lat="55.237110" lon="8.679744">
|
|
<ele>-30.093032</ele>
|
|
<time>2026-07-10T14:20:11.000Z</time>
|
|
</trkpt>
|
|
<trkpt lat="55.237095" lon="8.679674">
|
|
<ele>-30.082100</ele>
|
|
<time>2026-07-10T14:20:12.000Z</time>
|
|
</trkpt>
|
|
<trkpt lat="55.237083" lon="8.679604">
|
|
<ele>-30.071413</ele>
|
|
<time>2026-07-10T14:20:13.000Z</time>
|
|
</trkpt>
|
|
<trkpt lat="55.237068" lon="8.679535">
|
|
<ele>-30.060617</ele>
|
|
<time>2026-07-10T14:20:14.000Z</time>
|
|
</trkpt>
|
|
<trkpt lat="55.237052" lon="8.679466">
|
|
<ele>-30.049728</ele>
|
|
<time>2026-07-10T14:20:15.000Z</time>
|
|
</trkpt>
|
|
<trkpt lat="55.237037" lon="8.679397">
|
|
<ele>-30.038932</ele>
|
|
<time>2026-07-10T14:20:16.000Z</time>
|
|
</trkpt>
|
|
<trkpt lat="55.237023" lon="8.679328">
|
|
<ele>-30.028224</ele>
|
|
<time>2026-07-10T14:20:17.000Z</time>
|
|
</trkpt>
|
|
<trkpt lat="55.237010" lon="8.679258">
|
|
<ele>-30.017461</ele>
|
|
<time>2026-07-10T14:20:18.000Z</time>
|
|
</trkpt>
|
|
<trkpt lat="55.236996" lon="8.679187">
|
|
<ele>-30.006478</ele>
|
|
<time>2026-07-10T14:20:19.000Z</time>
|
|
</trkpt>
|
|
<trkpt lat="55.236983" lon="8.679115">
|
|
<ele>-29.995437</ele>
|
|
<time>2026-07-10T14:20:20.000Z</time>
|
|
</trkpt>
|
|
<trkpt lat="55.236965" lon="8.679041">
|
|
<ele>-29.983675</ele>
|
|
<time>2026-07-10T14:20:21.000Z</time>
|
|
</trkpt>
|
|
<trkpt lat="55.236949" lon="8.678969">
|
|
<ele>-29.975586</ele>
|
|
<time>2026-07-10T14:20:22.000Z</time>
|
|
</trkpt>
|
|
<trkpt lat="55.236934" lon="8.678896">
|
|
<ele>-29.976971</ele>
|
|
<time>2026-07-10T14:20:23.000Z</time>
|
|
</trkpt>
|
|
<trkpt lat="55.236920" lon="8.678825">
|
|
<ele>-29.978312</ele>
|
|
<time>2026-07-10T14:20:24.000Z</time>
|
|
</trkpt>
|
|
<trkpt lat="55.236907" lon="8.678752">
|
|
<ele>-29.979677</ele>
|
|
<time>2026-07-10T14:20:25.000Z</time>
|
|
</trkpt>
|
|
<trkpt lat="55.236893" lon="8.678681">
|
|
<ele>-29.981017</ele>
|
|
<time>2026-07-10T14:20:26.000Z</time>
|
|
</trkpt>
|
|
<trkpt lat="55.236881" lon="8.678611">
|
|
<ele>-29.982322</ele>
|
|
<time>2026-07-10T14:20:27.000Z</time>
|
|
</trkpt>
|
|
<trkpt lat="55.236866" lon="8.678543">
|
|
<ele>-29.983623</ele>
|
|
<time>2026-07-10T14:20:28.000Z</time>
|
|
</trkpt>
|
|
<trkpt lat="55.236850" lon="8.678470">
|
|
<ele>-29.985019</ele>
|
|
<time>2026-07-10T14:20:29.000Z</time>
|
|
</trkpt>
|
|
<trkpt lat="55.236836" lon="8.678401">
|
|
<ele>-29.986326</ele>
|
|
<time>2026-07-10T14:20:30.000Z</time>
|
|
</trkpt>
|
|
<trkpt lat="55.236825" lon="8.678331">
|
|
<ele>-29.987622</ele>
|
|
<time>2026-07-10T14:20:31.000Z</time>
|
|
</trkpt>
|
|
<trkpt lat="55.236812" lon="8.678262">
|
|
<ele>-29.988919</ele>
|
|
<time>2026-07-10T14:20:32.000Z</time>
|
|
</trkpt>
|
|
<trkpt lat="55.236797" lon="8.678193">
|
|
<ele>-29.990237</ele>
|
|
<time>2026-07-10T14:20:33.000Z</time>
|
|
</trkpt>
|
|
<trkpt lat="55.236781" lon="8.678125">
|
|
<ele>-29.991550</ele>
|
|
<time>2026-07-10T14:20:34.000Z</time>
|
|
</trkpt>
|
|
<trkpt lat="55.236765" lon="8.678058">
|
|
<ele>-29.992846</ele>
|
|
<time>2026-07-10T14:20:35.000Z</time>
|
|
</trkpt>
|
|
<trkpt lat="55.236748" lon="8.677988">
|
|
<ele>-29.994204</ele>
|
|
<time>2026-07-10T14:20:36.000Z</time>
|
|
</trkpt>
|
|
<trkpt lat="55.236736" lon="8.677920">
|
|
<ele>-29.995474</ele>
|
|
<time>2026-07-10T14:20:37.000Z</time>
|
|
</trkpt>
|
|
<trkpt lat="55.236721" lon="8.677849">
|
|
<ele>-29.996826</ele>
|
|
<time>2026-07-10T14:20:38.000Z</time>
|
|
</trkpt>
|
|
<trkpt lat="55.236705" lon="8.677776">
|
|
<ele>-29.998221</ele>
|
|
<time>2026-07-10T14:20:39.000Z</time>
|
|
</trkpt>
|
|
<trkpt lat="55.236690" lon="8.677702">
|
|
<ele>-29.999623</ele>
|
|
<time>2026-07-10T14:20:40.000Z</time>
|
|
</trkpt>
|
|
<trkpt lat="55.236675" lon="8.677627">
|
|
<ele>-30.001042</ele>
|
|
<time>2026-07-10T14:20:41.000Z</time>
|
|
</trkpt>
|
|
<trkpt lat="55.236660" lon="8.677553">
|
|
<ele>-30.002443</ele>
|
|
<time>2026-07-10T14:20:42.000Z</time>
|
|
</trkpt>
|
|
<trkpt lat="55.236645" lon="8.677478">
|
|
<ele>-30.003862</ele>
|
|
<time>2026-07-10T14:20:43.000Z</time>
|
|
</trkpt>
|
|
<trkpt lat="55.236629" lon="8.677402">
|
|
<ele>-30.005308</ele>
|
|
<time>2026-07-10T14:20:44.000Z</time>
|
|
</trkpt>
|
|
<trkpt lat="55.236615" lon="8.677327">
|
|
<ele>-30.006716</ele>
|
|
<time>2026-07-10T14:20:45.000Z</time>
|
|
</trkpt>
|
|
<trkpt lat="55.236602" lon="8.677254">
|
|
<ele>-30.008081</ele>
|
|
<time>2026-07-10T14:20:46.000Z</time>
|
|
</trkpt>
|
|
<trkpt lat="55.236587" lon="8.677180">
|
|
<ele>-30.009483</ele>
|
|
<time>2026-07-10T14:20:47.000Z</time>
|
|
</trkpt>
|
|
<trkpt lat="55.236572" lon="8.677109">
|
|
<ele>-30.010834</ele>
|
|
<time>2026-07-10T14:20:48.000Z</time>
|
|
</trkpt>
|
|
<trkpt lat="55.236556" lon="8.677036">
|
|
<ele>-30.012230</ele>
|
|
<time>2026-07-10T14:20:49.000Z</time>
|
|
</trkpt>
|
|
<trkpt lat="55.236541" lon="8.676965">
|
|
<ele>-30.013581</ele>
|
|
<time>2026-07-10T14:20:50.000Z</time>
|
|
</trkpt>
|
|
<trkpt lat="55.236526" lon="8.676894">
|
|
<ele>-30.014932</ele>
|
|
<time>2026-07-10T14:20:51.000Z</time>
|
|
</trkpt>
|
|
<trkpt lat="55.236511" lon="8.676821">
|
|
<ele>-30.016317</ele>
|
|
<time>2026-07-10T14:20:52.000Z</time>
|
|
</trkpt>
|
|
<trkpt lat="55.236496" lon="8.676745">
|
|
<ele>-30.017753</ele>
|
|
<time>2026-07-10T14:20:53.000Z</time>
|
|
</trkpt>
|
|
<trkpt lat="55.236480" lon="8.676665">
|
|
<ele>-30.019266</ele>
|
|
<time>2026-07-10T14:20:54.000Z</time>
|
|
</trkpt>
|
|
<trkpt lat="55.236465" lon="8.676583">
|
|
<ele>-30.020803</ele>
|
|
<time>2026-07-10T14:20:55.000Z</time>
|
|
</trkpt>
|
|
<trkpt lat="55.236450" lon="8.676502">
|
|
<ele>-30.022323</ele>
|
|
<time>2026-07-10T14:20:56.000Z</time>
|
|
</trkpt>
|
|
<trkpt lat="55.236435" lon="8.676422">
|
|
<ele>-30.023826</ele>
|
|
<time>2026-07-10T14:20:57.000Z</time>
|
|
</trkpt>
|
|
<trkpt lat="55.236422" lon="8.676346">
|
|
<ele>-30.025242</ele>
|
|
<time>2026-07-10T14:20:58.000Z</time>
|
|
</trkpt>
|
|
<trkpt lat="55.236405" lon="8.676273">
|
|
<ele>-30.026649</ele>
|
|
<time>2026-07-10T14:20:59.000Z</time>
|
|
</trkpt>
|
|
<trkpt lat="55.236392" lon="8.676201">
|
|
<ele>-30.027997</ele>
|
|
<time>2026-07-10T14:21:00.000Z</time>
|
|
</trkpt>
|
|
<trkpt lat="55.236377" lon="8.676130">
|
|
<ele>-30.029348</ele>
|
|
<time>2026-07-10T14:21:01.000Z</time>
|
|
</trkpt>
|
|
<trkpt lat="55.236362" lon="8.676057">
|
|
<ele>-30.030733</ele>
|
|
<time>2026-07-10T14:21:02.000Z</time>
|
|
</trkpt>
|
|
<trkpt lat="55.236347" lon="8.675985">
|
|
<ele>-30.031447</ele>
|
|
<time>2026-07-10T14:21:03.000Z</time>
|
|
</trkpt>
|
|
<trkpt lat="55.236332" lon="8.675913">
|
|
<ele>-30.031232</ele>
|
|
<time>2026-07-10T14:21:04.000Z</time>
|
|
</trkpt>
|
|
<trkpt lat="55.236316" lon="8.675835">
|
|
<ele>-30.031000</ele>
|
|
<time>2026-07-10T14:21:05.000Z</time>
|
|
</trkpt>
|
|
<trkpt lat="55.236301" lon="8.675762">
|
|
<ele>-30.030783</ele>
|
|
<time>2026-07-10T14:21:06.000Z</time>
|
|
</trkpt>
|
|
<trkpt lat="55.236286" lon="8.675689">
|
|
<ele>-30.030566</ele>
|
|
<time>2026-07-10T14:21:07.000Z</time>
|
|
</trkpt>
|
|
<trkpt lat="55.236270" lon="8.675616">
|
|
<ele>-30.030347</ele>
|
|
<time>2026-07-10T14:21:08.000Z</time>
|
|
</trkpt>
|
|
<trkpt lat="55.236255" lon="8.675543">
|
|
<ele>-30.030130</ele>
|
|
<time>2026-07-10T14:21:09.000Z</time>
|
|
</trkpt>
|
|
<trkpt lat="55.236240" lon="8.675470">
|
|
<ele>-30.029913</ele>
|
|
<time>2026-07-10T14:21:10.000Z</time>
|
|
</trkpt>
|
|
<trkpt lat="55.236225" lon="8.675397">
|
|
<ele>-30.029696</ele>
|
|
<time>2026-07-10T14:21:11.000Z</time>
|
|
</trkpt>
|
|
<trkpt lat="55.236210" lon="8.675326">
|
|
<ele>-30.029484</ele>
|
|
<time>2026-07-10T14:21:12.000Z</time>
|
|
</trkpt>
|
|
<trkpt lat="55.236198" lon="8.675254">
|
|
<ele>-30.029274</ele>
|
|
<time>2026-07-10T14:21:13.000Z</time>
|
|
</trkpt>
|
|
<trkpt lat="55.236183" lon="8.675183">
|
|
<ele>-30.029063</ele>
|
|
<time>2026-07-10T14:21:14.000Z</time>
|
|
</trkpt>
|
|
<trkpt lat="55.236167" lon="8.675112">
|
|
<ele>-30.028849</ele>
|
|
<time>2026-07-10T14:21:15.000Z</time>
|
|
</trkpt>
|
|
<trkpt lat="55.236153" lon="8.675040">
|
|
<ele>-30.028636</ele>
|
|
<time>2026-07-10T14:21:16.000Z</time>
|
|
</trkpt>
|
|
<trkpt lat="55.236141" lon="8.674967">
|
|
<ele>-30.028424</ele>
|
|
<time>2026-07-10T14:21:17.000Z</time>
|
|
</trkpt>
|
|
<trkpt lat="55.236125" lon="8.674890">
|
|
<ele>-30.028194</ele>
|
|
<time>2026-07-10T14:21:18.000Z</time>
|
|
</trkpt>
|
|
<trkpt lat="55.236110" lon="8.674816">
|
|
<ele>-30.027975</ele>
|
|
<time>2026-07-10T14:21:19.000Z</time>
|
|
</trkpt>
|
|
<trkpt lat="55.236094" lon="8.674743">
|
|
<ele>-30.027756</ele>
|
|
<time>2026-07-10T14:21:20.000Z</time>
|
|
</trkpt>
|
|
<trkpt lat="55.236076" lon="8.674667">
|
|
<ele>-30.027526</ele>
|
|
<time>2026-07-10T14:21:21.000Z</time>
|
|
</trkpt>
|
|
<trkpt lat="55.236062" lon="8.674593">
|
|
<ele>-30.027308</ele>
|
|
<time>2026-07-10T14:21:22.000Z</time>
|
|
</trkpt>
|
|
<trkpt lat="55.236049" lon="8.674519">
|
|
<ele>-30.027091</ele>
|
|
<time>2026-07-10T14:21:23.000Z</time>
|
|
</trkpt>
|
|
<trkpt lat="55.236035" lon="8.674448">
|
|
<ele>-30.026881</ele>
|
|
<time>2026-07-10T14:21:24.000Z</time>
|
|
</trkpt>
|
|
<trkpt lat="55.236020" lon="8.674372">
|
|
<ele>-30.026656</ele>
|
|
<time>2026-07-10T14:21:25.000Z</time>
|
|
</trkpt>
|
|
<trkpt lat="55.236007" lon="8.674299">
|
|
<ele>-30.026442</ele>
|
|
<time>2026-07-10T14:21:26.000Z</time>
|
|
</trkpt>
|
|
<trkpt lat="55.235992" lon="8.674226">
|
|
<ele>-30.026225</ele>
|
|
<time>2026-07-10T14:21:27.000Z</time>
|
|
</trkpt>
|
|
<trkpt lat="55.235977" lon="8.674156">
|
|
<ele>-30.026016</ele>
|
|
<time>2026-07-10T14:21:28.000Z</time>
|
|
</trkpt>
|
|
<trkpt lat="55.235961" lon="8.674085">
|
|
<ele>-30.025802</ele>
|
|
<time>2026-07-10T14:21:29.000Z</time>
|
|
</trkpt>
|
|
<trkpt lat="55.235946" lon="8.674013">
|
|
<ele>-30.025588</ele>
|
|
<time>2026-07-10T14:21:30.000Z</time>
|
|
</trkpt>
|
|
<trkpt lat="55.235931" lon="8.673942">
|
|
<ele>-30.025376</ele>
|
|
<time>2026-07-10T14:21:31.000Z</time>
|
|
</trkpt>
|
|
<trkpt lat="55.235916" lon="8.673868">
|
|
<ele>-30.025156</ele>
|
|
<time>2026-07-10T14:21:32.000Z</time>
|
|
</trkpt>
|
|
<trkpt lat="55.235901" lon="8.673796">
|
|
<ele>-30.024942</ele>
|
|
<time>2026-07-10T14:21:33.000Z</time>
|
|
</trkpt>
|
|
<trkpt lat="55.235889" lon="8.673725">
|
|
<ele>-30.024734</ele>
|
|
<time>2026-07-10T14:21:34.000Z</time>
|
|
</trkpt>
|
|
<trkpt lat="55.235874" lon="8.673655">
|
|
<ele>-30.024525</ele>
|
|
<time>2026-07-10T14:21:35.000Z</time>
|
|
</trkpt>
|
|
<trkpt lat="55.235859" lon="8.673585">
|
|
<ele>-30.024316</ele>
|
|
<time>2026-07-10T14:21:36.000Z</time>
|
|
</trkpt>
|
|
<trkpt lat="55.235848" lon="8.673515">
|
|
<ele>-30.024113</ele>
|
|
<time>2026-07-10T14:21:37.000Z</time>
|
|
</trkpt>
|
|
<trkpt lat="55.235836" lon="8.673443">
|
|
<ele>-30.023903</ele>
|
|
<time>2026-07-10T14:21:38.000Z</time>
|
|
</trkpt>
|
|
<trkpt lat="55.235820" lon="8.673370">
|
|
<ele>-30.023684</ele>
|
|
<time>2026-07-10T14:21:39.000Z</time>
|
|
</trkpt>
|
|
<trkpt lat="55.235805" lon="8.673295">
|
|
<ele>-30.023462</ele>
|
|
<time>2026-07-10T14:21:40.000Z</time>
|
|
</trkpt>
|
|
<trkpt lat="55.235789" lon="8.673220">
|
|
<ele>-30.023238</ele>
|
|
<time>2026-07-10T14:21:41.000Z</time>
|
|
</trkpt>
|
|
<trkpt lat="55.235772" lon="8.673147">
|
|
<ele>-30.023017</ele>
|
|
<time>2026-07-10T14:21:42.000Z</time>
|
|
</trkpt>
|
|
<trkpt lat="55.235759" lon="8.673075">
|
|
<ele>-30.022806</ele>
|
|
<time>2026-07-10T14:21:43.000Z</time>
|
|
</trkpt>
|
|
<trkpt lat="55.235745" lon="8.673004">
|
|
<ele>-30.023547</ele>
|
|
<time>2026-07-10T14:21:44.000Z</time>
|
|
</trkpt>
|
|
<trkpt lat="55.235733" lon="8.672934">
|
|
<ele>-30.025035</ele>
|
|
<time>2026-07-10T14:21:45.000Z</time>
|
|
</trkpt>
|
|
<trkpt lat="55.235717" lon="8.672863">
|
|
<ele>-30.026589</ele>
|
|
<time>2026-07-10T14:21:46.000Z</time>
|
|
</trkpt>
|
|
<trkpt lat="55.235703" lon="8.672796">
|
|
<ele>-30.028042</ele>
|
|
<time>2026-07-10T14:21:47.000Z</time>
|
|
</trkpt>
|
|
<trkpt lat="55.235687" lon="8.672724">
|
|
<ele>-30.029615</ele>
|
|
<time>2026-07-10T14:21:48.000Z</time>
|
|
</trkpt>
|
|
<trkpt lat="55.235671" lon="8.672653">
|
|
<ele>-30.031170</ele>
|
|
<time>2026-07-10T14:21:49.000Z</time>
|
|
</trkpt>
|
|
<trkpt lat="55.235657" lon="8.672583">
|
|
<ele>-30.032680</ele>
|
|
<time>2026-07-10T14:21:50.000Z</time>
|
|
</trkpt>
|
|
<trkpt lat="55.235642" lon="8.672515">
|
|
<ele>-30.034164</ele>
|
|
<time>2026-07-10T14:21:51.000Z</time>
|
|
</trkpt>
|
|
<trkpt lat="55.235627" lon="8.672438">
|
|
<ele>-30.035821</ele>
|
|
<time>2026-07-10T14:21:52.000Z</time>
|
|
</trkpt>
|
|
<trkpt lat="55.235616" lon="8.672369">
|
|
<ele>-30.037280</ele>
|
|
<time>2026-07-10T14:21:53.000Z</time>
|
|
</trkpt>
|
|
<trkpt lat="55.235599" lon="8.672291">
|
|
<ele>-30.038980</ele>
|
|
<time>2026-07-10T14:21:54.000Z</time>
|
|
</trkpt>
|
|
<trkpt lat="55.235585" lon="8.672220">
|
|
<ele>-30.040509</ele>
|
|
<time>2026-07-10T14:21:55.000Z</time>
|
|
</trkpt>
|
|
<trkpt lat="55.235568" lon="8.672142">
|
|
<ele>-30.042210</ele>
|
|
<time>2026-07-10T14:21:56.000Z</time>
|
|
</trkpt>
|
|
<trkpt lat="55.235554" lon="8.672071">
|
|
<ele>-30.043739</ele>
|
|
<time>2026-07-10T14:21:57.000Z</time>
|
|
</trkpt>
|
|
<trkpt lat="55.235543" lon="8.671999">
|
|
<ele>-30.045257</ele>
|
|
<time>2026-07-10T14:21:58.000Z</time>
|
|
</trkpt>
|
|
<trkpt lat="55.235531" lon="8.671928">
|
|
<ele>-30.046765</ele>
|
|
<time>2026-07-10T14:21:59.000Z</time>
|
|
</trkpt>
|
|
<trkpt lat="55.235519" lon="8.671854">
|
|
<ele>-30.048331</ele>
|
|
<time>2026-07-10T14:22:00.000Z</time>
|
|
</trkpt>
|
|
<trkpt lat="55.235503" lon="8.671782">
|
|
<ele>-30.049904</ele>
|
|
<time>2026-07-10T14:22:01.000Z</time>
|
|
</trkpt>
|
|
<trkpt lat="55.235488" lon="8.671713">
|
|
<ele>-30.051408</ele>
|
|
<time>2026-07-10T14:22:02.000Z</time>
|
|
</trkpt>
|
|
<trkpt lat="55.235473" lon="8.671649">
|
|
<ele>-30.052817</ele>
|
|
<time>2026-07-10T14:22:03.000Z</time>
|
|
</trkpt>
|
|
<trkpt lat="55.235459" lon="8.671586">
|
|
<ele>-30.054193</ele>
|
|
<time>2026-07-10T14:22:04.000Z</time>
|
|
</trkpt>
|
|
<trkpt lat="55.235447" lon="8.671526">
|
|
<ele>-30.055488</ele>
|
|
<time>2026-07-10T14:22:05.000Z</time>
|
|
</trkpt>
|
|
<trkpt lat="55.235437" lon="8.671471">
|
|
<ele>-30.056663</ele>
|
|
<time>2026-07-10T14:22:06.000Z</time>
|
|
</trkpt>
|
|
<trkpt lat="55.235428" lon="8.671424">
|
|
<ele>-30.057673</ele>
|
|
<time>2026-07-10T14:22:07.000Z</time>
|
|
</trkpt>
|
|
<trkpt lat="55.235416" lon="8.671384">
|
|
<ele>-30.058593</ele>
|
|
<time>2026-07-10T14:22:08.000Z</time>
|
|
</trkpt>
|
|
<trkpt lat="55.235403" lon="8.671343">
|
|
<ele>-30.059548</ele>
|
|
<time>2026-07-10T14:22:09.000Z</time>
|
|
</trkpt>
|
|
<trkpt lat="55.235396" lon="8.671300">
|
|
<ele>-30.060458</ele>
|
|
<time>2026-07-10T14:22:10.000Z</time>
|
|
</trkpt>
|
|
<trkpt lat="55.235392" lon="8.671260">
|
|
<ele>-30.061285</ele>
|
|
<time>2026-07-10T14:22:11.000Z</time>
|
|
</trkpt>
|
|
<trkpt lat="55.235385" lon="8.671216">
|
|
<ele>-30.062215</ele>
|
|
<time>2026-07-10T14:22:12.000Z</time>
|
|
</trkpt>
|
|
<trkpt lat="55.235381" lon="8.671172">
|
|
<ele>-30.063122</ele>
|
|
<time>2026-07-10T14:22:13.000Z</time>
|
|
</trkpt>
|
|
<trkpt lat="55.235379" lon="8.671130">
|
|
<ele>-30.063981</ele>
|
|
<time>2026-07-10T14:22:14.000Z</time>
|
|
</trkpt>
|
|
<trkpt lat="55.235384" lon="8.671089">
|
|
<ele>-30.064834</ele>
|
|
<time>2026-07-10T14:22:15.000Z</time>
|
|
</trkpt>
|
|
<trkpt lat="55.235394" lon="8.671048">
|
|
<ele>-30.065742</ele>
|
|
<time>2026-07-10T14:22:16.000Z</time>
|
|
</trkpt>
|
|
<trkpt lat="55.235409" lon="8.671014">
|
|
<ele>-30.066617</ele>
|
|
<time>2026-07-10T14:22:17.000Z</time>
|
|
</trkpt>
|
|
<trkpt lat="55.235426" lon="8.670989">
|
|
<ele>-30.067410</ele>
|
|
<time>2026-07-10T14:22:18.000Z</time>
|
|
</trkpt>
|
|
<trkpt lat="55.235443" lon="8.670970">
|
|
<ele>-30.068129</ele>
|
|
<time>2026-07-10T14:22:19.000Z</time>
|
|
</trkpt>
|
|
<trkpt lat="55.235468" lon="8.670946">
|
|
<ele>-30.069147</ele>
|
|
<time>2026-07-10T14:22:27.000Z</time>
|
|
</trkpt>
|
|
<trkpt lat="55.235498" lon="8.670914">
|
|
<ele>-30.070401</ele>
|
|
<time>2026-07-10T14:22:28.000Z</time>
|
|
</trkpt>
|
|
<trkpt lat="55.235516" lon="8.670896">
|
|
<ele>-30.071141</ele>
|
|
<time>2026-07-10T14:22:29.000Z</time>
|
|
</trkpt>
|
|
<trkpt lat="55.235542" lon="8.670868">
|
|
<ele>-30.072230</ele>
|
|
<time>2026-07-10T14:22:30.000Z</time>
|
|
</trkpt>
|
|
<trkpt lat="55.235569" lon="8.670841">
|
|
<ele>-30.073340</ele>
|
|
<time>2026-07-10T14:22:31.000Z</time>
|
|
</trkpt>
|
|
<trkpt lat="55.235597" lon="8.670812">
|
|
<ele>-30.074501</ele>
|
|
<time>2026-07-10T14:22:32.000Z</time>
|
|
</trkpt>
|
|
<trkpt lat="55.235629" lon="8.670783">
|
|
<ele>-30.075787</ele>
|
|
<time>2026-07-10T14:22:33.000Z</time>
|
|
</trkpt>
|
|
<trkpt lat="55.235662" lon="8.670754">
|
|
<ele>-30.077105</ele>
|
|
<time>2026-07-10T14:22:34.000Z</time>
|
|
</trkpt>
|
|
<trkpt lat="55.235694" lon="8.670721">
|
|
<ele>-30.078431</ele>
|
|
<time>2026-07-10T14:22:35.000Z</time>
|
|
</trkpt>
|
|
<trkpt lat="55.235730" lon="8.670684">
|
|
<ele>-30.079921</ele>
|
|
<time>2026-07-10T14:22:36.000Z</time>
|
|
</trkpt>
|
|
<trkpt lat="55.235766" lon="8.670643">
|
|
<ele>-30.081453</ele>
|
|
<time>2026-07-10T14:22:37.000Z</time>
|
|
</trkpt>
|
|
<trkpt lat="55.235800" lon="8.670605">
|
|
<ele>-30.082893</ele>
|
|
<time>2026-07-10T14:22:38.000Z</time>
|
|
</trkpt>
|
|
<trkpt lat="55.235838" lon="8.670566">
|
|
<ele>-30.084465</ele>
|
|
<time>2026-07-10T14:22:39.000Z</time>
|
|
</trkpt>
|
|
<trkpt lat="55.235874" lon="8.670529">
|
|
<ele>-30.085955</ele>
|
|
<time>2026-07-10T14:22:40.000Z</time>
|
|
</trkpt>
|
|
<trkpt lat="55.235912" lon="8.670492">
|
|
<ele>-30.088803</ele>
|
|
<time>2026-07-10T14:22:41.000Z</time>
|
|
</trkpt>
|
|
<trkpt lat="55.235951" lon="8.670452">
|
|
<ele>-30.094068</ele>
|
|
<time>2026-07-10T14:22:42.000Z</time>
|
|
</trkpt>
|
|
<trkpt lat="55.235993" lon="8.670411">
|
|
<ele>-30.099669</ele>
|
|
<time>2026-07-10T14:22:43.000Z</time>
|
|
</trkpt>
|
|
<trkpt lat="55.236035" lon="8.670370">
|
|
<ele>-30.105270</ele>
|
|
<time>2026-07-10T14:22:44.000Z</time>
|
|
</trkpt>
|
|
<trkpt lat="55.236077" lon="8.670329">
|
|
<ele>-30.110871</ele>
|
|
<time>2026-07-10T14:22:45.000Z</time>
|
|
</trkpt>
|
|
<trkpt lat="55.236119" lon="8.670288">
|
|
<ele>-30.116472</ele>
|
|
<time>2026-07-10T14:22:46.000Z</time>
|
|
</trkpt>
|
|
<trkpt lat="55.236161" lon="8.670246">
|
|
<ele>-30.122106</ele>
|
|
<time>2026-07-10T14:22:47.000Z</time>
|
|
</trkpt>
|
|
<trkpt lat="55.236203" lon="8.670202">
|
|
<ele>-30.127807</ele>
|
|
<time>2026-07-10T14:22:48.000Z</time>
|
|
</trkpt>
|
|
<trkpt lat="55.236245" lon="8.670160">
|
|
<ele>-30.133441</ele>
|
|
<time>2026-07-10T14:22:49.000Z</time>
|
|
</trkpt>
|
|
<trkpt lat="55.236287" lon="8.670118">
|
|
<ele>-30.139074</ele>
|
|
<time>2026-07-10T14:22:50.000Z</time>
|
|
</trkpt>
|
|
<trkpt lat="55.236328" lon="8.670078">
|
|
<ele>-30.144541</ele>
|
|
<time>2026-07-10T14:22:51.000Z</time>
|
|
</trkpt>
|
|
<trkpt lat="55.236370" lon="8.670037">
|
|
<ele>-30.150143</ele>
|
|
<time>2026-07-10T14:22:52.000Z</time>
|
|
</trkpt>
|
|
<trkpt lat="55.236412" lon="8.669992">
|
|
<ele>-30.155878</ele>
|
|
<time>2026-07-10T14:22:53.000Z</time>
|
|
</trkpt>
|
|
<trkpt lat="55.236451" lon="8.669948">
|
|
<ele>-30.161281</ele>
|
|
<time>2026-07-10T14:22:54.000Z</time>
|
|
</trkpt>
|
|
<trkpt lat="55.236492" lon="8.669906">
|
|
<ele>-30.166814</ele>
|
|
<time>2026-07-10T14:22:55.000Z</time>
|
|
</trkpt>
|
|
<trkpt lat="55.236531" lon="8.669866">
|
|
<ele>-30.172079</ele>
|
|
<time>2026-07-10T14:22:56.000Z</time>
|
|
</trkpt>
|
|
<trkpt lat="55.236573" lon="8.669826">
|
|
<ele>-30.177648</ele>
|
|
<time>2026-07-10T14:22:57.000Z</time>
|
|
</trkpt>
|
|
<trkpt lat="55.236615" lon="8.669785">
|
|
<ele>-30.183249</ele>
|
|
<time>2026-07-10T14:22:58.000Z</time>
|
|
</trkpt>
|
|
<trkpt lat="55.236657" lon="8.669743">
|
|
<ele>-30.188883</ele>
|
|
<time>2026-07-10T14:22:59.000Z</time>
|
|
</trkpt>
|
|
<trkpt lat="55.236699" lon="8.669701">
|
|
<ele>-30.194517</ele>
|
|
<time>2026-07-10T14:23:00.000Z</time>
|
|
</trkpt>
|
|
<trkpt lat="55.236741" lon="8.669659">
|
|
<ele>-30.200150</ele>
|
|
<time>2026-07-10T14:23:01.000Z</time>
|
|
</trkpt>
|
|
<trkpt lat="55.236782" lon="8.669615">
|
|
<ele>-30.205751</ele>
|
|
<time>2026-07-10T14:23:02.000Z</time>
|
|
</trkpt>
|
|
<trkpt lat="55.236824" lon="8.669569">
|
|
<ele>-30.211521</ele>
|
|
<time>2026-07-10T14:23:03.000Z</time>
|
|
</trkpt>
|
|
<trkpt lat="55.236867" lon="8.669524">
|
|
<ele>-30.217356</ele>
|
|
<time>2026-07-10T14:23:04.000Z</time>
|
|
</trkpt>
|
|
<trkpt lat="55.236907" lon="8.669479">
|
|
<ele>-30.222894</ele>
|
|
<time>2026-07-10T14:23:05.000Z</time>
|
|
</trkpt>
|
|
<trkpt lat="55.236947" lon="8.669435">
|
|
<ele>-30.228396</ele>
|
|
<time>2026-07-10T14:23:06.000Z</time>
|
|
</trkpt>
|
|
<trkpt lat="55.236990" lon="8.669391">
|
|
<ele>-30.234197</ele>
|
|
<time>2026-07-10T14:23:07.000Z</time>
|
|
</trkpt>
|
|
<trkpt lat="55.237036" lon="8.669349">
|
|
<ele>-30.240240</ele>
|
|
<time>2026-07-10T14:23:08.000Z</time>
|
|
</trkpt>
|
|
<trkpt lat="55.237080" lon="8.669306">
|
|
<ele>-30.246109</ele>
|
|
<time>2026-07-10T14:23:09.000Z</time>
|
|
</trkpt>
|
|
<trkpt lat="55.237124" lon="8.669263">
|
|
<ele>-30.251979</ele>
|
|
<time>2026-07-10T14:23:10.000Z</time>
|
|
</trkpt>
|
|
<trkpt lat="55.237169" lon="8.669222">
|
|
<ele>-30.257888</ele>
|
|
<time>2026-07-10T14:23:11.000Z</time>
|
|
</trkpt>
|
|
<trkpt lat="55.237215" lon="8.669182">
|
|
<ele>-30.263871</ele>
|
|
<time>2026-07-10T14:23:12.000Z</time>
|
|
</trkpt>
|
|
<trkpt lat="55.237264" lon="8.669138">
|
|
<ele>-30.270285</ele>
|
|
<time>2026-07-10T14:23:13.000Z</time>
|
|
</trkpt>
|
|
<trkpt lat="55.237310" lon="8.669092">
|
|
<ele>-30.276455</ele>
|
|
<time>2026-07-10T14:23:14.000Z</time>
|
|
</trkpt>
|
|
<trkpt lat="55.237356" lon="8.669047">
|
|
<ele>-30.282593</ele>
|
|
<time>2026-07-10T14:23:15.000Z</time>
|
|
</trkpt>
|
|
<trkpt lat="55.237402" lon="8.669004">
|
|
<ele>-30.288667</ele>
|
|
<time>2026-07-10T14:23:16.000Z</time>
|
|
</trkpt>
|
|
<trkpt lat="55.237448" lon="8.668961">
|
|
<ele>-30.294741</ele>
|
|
<time>2026-07-10T14:23:17.000Z</time>
|
|
</trkpt>
|
|
<trkpt lat="55.237494" lon="8.668919">
|
|
<ele>-30.292181</ele>
|
|
<time>2026-07-10T14:23:18.000Z</time>
|
|
</trkpt>
|
|
<trkpt lat="55.237543" lon="8.668876">
|
|
<ele>-30.285678</ele>
|
|
<time>2026-07-10T14:23:19.000Z</time>
|
|
</trkpt>
|
|
<trkpt lat="55.237590" lon="8.668836">
|
|
<ele>-30.279478</ele>
|
|
<time>2026-07-10T14:23:20.000Z</time>
|
|
</trkpt>
|
|
<trkpt lat="55.237638" lon="8.668796">
|
|
<ele>-30.273171</ele>
|
|
<time>2026-07-10T14:23:21.000Z</time>
|
|
</trkpt>
|
|
<trkpt lat="55.237684" lon="8.668758">
|
|
<ele>-30.267136</ele>
|
|
<time>2026-07-10T14:23:22.000Z</time>
|
|
</trkpt>
|
|
<trkpt lat="55.237730" lon="8.668723">
|
|
<ele>-30.261184</ele>
|
|
<time>2026-07-10T14:23:23.000Z</time>
|
|
</trkpt>
|
|
<trkpt lat="55.237776" lon="8.668685">
|
|
<ele>-30.255149</ele>
|
|
<time>2026-07-10T14:23:24.000Z</time>
|
|
</trkpt>
|
|
<trkpt lat="55.237823" lon="8.668648">
|
|
<ele>-30.249035</ele>
|
|
<time>2026-07-10T14:23:25.000Z</time>
|
|
</trkpt>
|
|
<trkpt lat="55.237874" lon="8.668614">
|
|
<ele>-30.242559</ele>
|
|
<time>2026-07-10T14:23:26.000Z</time>
|
|
</trkpt>
|
|
<trkpt lat="55.237920" lon="8.668580">
|
|
<ele>-30.236635</ele>
|
|
<time>2026-07-10T14:23:27.000Z</time>
|
|
</trkpt>
|
|
<trkpt lat="55.237968" lon="8.668544">
|
|
<ele>-30.230439</ele>
|
|
<time>2026-07-10T14:23:28.000Z</time>
|
|
</trkpt>
|
|
<trkpt lat="55.238016" lon="8.668511">
|
|
<ele>-30.224320</ele>
|
|
<time>2026-07-10T14:23:29.000Z</time>
|
|
</trkpt>
|
|
<trkpt lat="55.238063" lon="8.668480">
|
|
<ele>-30.218360</ele>
|
|
<time>2026-07-10T14:23:30.000Z</time>
|
|
</trkpt>
|
|
<trkpt lat="55.238113" lon="8.668451">
|
|
<ele>-30.212109</ele>
|
|
<time>2026-07-10T14:23:31.000Z</time>
|
|
</trkpt>
|
|
<trkpt lat="55.238161" lon="8.668419">
|
|
<ele>-30.206015</ele>
|
|
<time>2026-07-10T14:23:32.000Z</time>
|
|
</trkpt>
|
|
<trkpt lat="55.238208" lon="8.668388">
|
|
<ele>-30.200055</ele>
|
|
<time>2026-07-10T14:23:33.000Z</time>
|
|
</trkpt>
|
|
<trkpt lat="55.238257" lon="8.668357">
|
|
<ele>-30.193873</ele>
|
|
<time>2026-07-10T14:23:34.000Z</time>
|
|
</trkpt>
|
|
<trkpt lat="55.238307" lon="8.668331">
|
|
<ele>-30.187683</ele>
|
|
<time>2026-07-10T14:23:35.000Z</time>
|
|
</trkpt>
|
|
<trkpt lat="55.238358" lon="8.668305">
|
|
<ele>-30.181379</ele>
|
|
<time>2026-07-10T14:23:36.000Z</time>
|
|
</trkpt>
|
|
<trkpt lat="55.238410" lon="8.668279">
|
|
<ele>-30.174962</ele>
|
|
<time>2026-07-10T14:23:37.000Z</time>
|
|
</trkpt>
|
|
<trkpt lat="55.238460" lon="8.668255">
|
|
<ele>-30.168809</ele>
|
|
<time>2026-07-10T14:23:38.000Z</time>
|
|
</trkpt>
|
|
<trkpt lat="55.238510" lon="8.668231">
|
|
<ele>-30.162657</ele>
|
|
<time>2026-07-10T14:23:39.000Z</time>
|
|
</trkpt>
|
|
<trkpt lat="55.238563" lon="8.668206">
|
|
<ele>-30.156143</ele>
|
|
<time>2026-07-10T14:23:40.000Z</time>
|
|
</trkpt>
|
|
<trkpt lat="55.238615" lon="8.668183">
|
|
<ele>-30.149778</ele>
|
|
<time>2026-07-10T14:23:41.000Z</time>
|
|
</trkpt>
|
|
<trkpt lat="55.238667" lon="8.668161">
|
|
<ele>-30.143429</ele>
|
|
<time>2026-07-10T14:23:42.000Z</time>
|
|
</trkpt>
|
|
<trkpt lat="55.238720" lon="8.668142">
|
|
<ele>-30.137008</ele>
|
|
<time>2026-07-10T14:23:43.000Z</time>
|
|
</trkpt>
|
|
<trkpt lat="55.238773" lon="8.668123">
|
|
<ele>-30.130588</ele>
|
|
<time>2026-07-10T14:23:44.000Z</time>
|
|
</trkpt>
|
|
<trkpt lat="55.238827" lon="8.668105">
|
|
<ele>-30.124064</ele>
|
|
<time>2026-07-10T14:23:45.000Z</time>
|
|
</trkpt>
|
|
<trkpt lat="55.238880" lon="8.668087">
|
|
<ele>-30.117657</ele>
|
|
<time>2026-07-10T14:23:46.000Z</time>
|
|
</trkpt>
|
|
<trkpt lat="55.238934" lon="8.668070">
|
|
<ele>-30.111145</ele>
|
|
<time>2026-07-10T14:23:47.000Z</time>
|
|
</trkpt>
|
|
<trkpt lat="55.238987" lon="8.668054">
|
|
<ele>-30.104762</ele>
|
|
<time>2026-07-10T14:23:48.000Z</time>
|
|
</trkpt>
|
|
<trkpt lat="55.239040" lon="8.668039">
|
|
<ele>-30.098390</ele>
|
|
<time>2026-07-10T14:23:49.000Z</time>
|
|
</trkpt>
|
|
<trkpt lat="55.239093" lon="8.668026">
|
|
<ele>-30.092039</ele>
|
|
<time>2026-07-10T14:23:50.000Z</time>
|
|
</trkpt>
|
|
<trkpt lat="55.239148" lon="8.668013">
|
|
<ele>-30.085452</ele>
|
|
<time>2026-07-10T14:23:51.000Z</time>
|
|
</trkpt>
|
|
<trkpt lat="55.239205" lon="8.668002">
|
|
<ele>-30.072185</ele>
|
|
<time>2026-07-10T14:23:52.000Z</time>
|
|
</trkpt>
|
|
<trkpt lat="55.239258" lon="8.667991">
|
|
<ele>-30.056549</ele>
|
|
<time>2026-07-10T14:23:53.000Z</time>
|
|
</trkpt>
|
|
<trkpt lat="55.239312" lon="8.667982">
|
|
<ele>-30.040657</ele>
|
|
<time>2026-07-10T14:23:54.000Z</time>
|
|
</trkpt>
|
|
<trkpt lat="55.239369" lon="8.667972">
|
|
<ele>-30.023874</ele>
|
|
<time>2026-07-10T14:23:55.000Z</time>
|
|
</trkpt>
|
|
<trkpt lat="55.239422" lon="8.667963">
|
|
<ele>-30.008274</ele>
|
|
<time>2026-07-10T14:23:56.000Z</time>
|
|
</trkpt>
|
|
<trkpt lat="55.239477" lon="8.667954">
|
|
<ele>-29.992091</ele>
|
|
<time>2026-07-10T14:23:57.000Z</time>
|
|
</trkpt>
|
|
<trkpt lat="55.239536" lon="8.667944">
|
|
<ele>-29.974725</ele>
|
|
<time>2026-07-10T14:23:58.000Z</time>
|
|
</trkpt>
|
|
<trkpt lat="55.239591" lon="8.667936">
|
|
<ele>-29.958556</ele>
|
|
<time>2026-07-10T14:23:59.000Z</time>
|
|
</trkpt>
|
|
<trkpt lat="55.239647" lon="8.667926">
|
|
<ele>-29.942065</ele>
|
|
<time>2026-07-10T14:24:00.000Z</time>
|
|
</trkpt>
|
|
<trkpt lat="55.239700" lon="8.667918">
|
|
<ele>-29.926480</ele>
|
|
<time>2026-07-10T14:24:01.000Z</time>
|
|
</trkpt>
|
|
<trkpt lat="55.239758" lon="8.667909">
|
|
<ele>-29.909421</ele>
|
|
<time>2026-07-10T14:24:02.000Z</time>
|
|
</trkpt>
|
|
<trkpt lat="55.239811" lon="8.667901">
|
|
<ele>-29.893836</ele>
|
|
<time>2026-07-10T14:24:03.000Z</time>
|
|
</trkpt>
|
|
<trkpt lat="55.239863" lon="8.667894">
|
|
<ele>-29.878557</ele>
|
|
<time>2026-07-10T14:24:04.000Z</time>
|
|
</trkpt>
|
|
<trkpt lat="55.239919" lon="8.667886">
|
|
<ele>-29.862096</ele>
|
|
<time>2026-07-10T14:24:05.000Z</time>
|
|
</trkpt>
|
|
<trkpt lat="55.239975" lon="8.667878">
|
|
<ele>-29.845635</ele>
|
|
<time>2026-07-10T14:24:06.000Z</time>
|
|
</trkpt>
|
|
<trkpt lat="55.240028" lon="8.667870">
|
|
<ele>-29.830050</ele>
|
|
<time>2026-07-10T14:24:07.000Z</time>
|
|
</trkpt>
|
|
<trkpt lat="55.240082" lon="8.667862">
|
|
<ele>-29.814173</ele>
|
|
<time>2026-07-10T14:24:08.000Z</time>
|
|
</trkpt>
|
|
<trkpt lat="55.240135" lon="8.667854">
|
|
<ele>-29.798588</ele>
|
|
<time>2026-07-10T14:24:09.000Z</time>
|
|
</trkpt>
|
|
<trkpt lat="55.240189" lon="8.667847">
|
|
<ele>-29.782725</ele>
|
|
<time>2026-07-10T14:24:10.000Z</time>
|
|
</trkpt>
|
|
<trkpt lat="55.240242" lon="8.667840">
|
|
<ele>-29.767153</ele>
|
|
<time>2026-07-10T14:24:11.000Z</time>
|
|
</trkpt>
|
|
<trkpt lat="55.240296" lon="8.667833">
|
|
<ele>-29.751289</ele>
|
|
<time>2026-07-10T14:24:12.000Z</time>
|
|
</trkpt>
|
|
<trkpt lat="55.240348" lon="8.667824">
|
|
<ele>-29.735981</ele>
|
|
<time>2026-07-10T14:24:13.000Z</time>
|
|
</trkpt>
|
|
<trkpt lat="55.240398" lon="8.667816">
|
|
<ele>-29.721271</ele>
|
|
<time>2026-07-10T14:24:14.000Z</time>
|
|
</trkpt>
|
|
<trkpt lat="55.240452" lon="8.667809">
|
|
<ele>-29.705408</ele>
|
|
<time>2026-07-10T14:24:15.000Z</time>
|
|
</trkpt>
|
|
<trkpt lat="55.240505" lon="8.667802">
|
|
<ele>-29.689836</ele>
|
|
<time>2026-07-10T14:24:16.000Z</time>
|
|
</trkpt>
|
|
<trkpt lat="55.240559" lon="8.667795">
|
|
<ele>-29.673973</ele>
|
|
<time>2026-07-10T14:24:17.000Z</time>
|
|
</trkpt>
|
|
<trkpt lat="55.240611" lon="8.667787">
|
|
<ele>-29.658680</ele>
|
|
<time>2026-07-10T14:24:18.000Z</time>
|
|
</trkpt>
|
|
<trkpt lat="55.240664" lon="8.667780">
|
|
<ele>-29.643108</ele>
|
|
<time>2026-07-10T14:24:19.000Z</time>
|
|
</trkpt>
|
|
<trkpt lat="55.240718" lon="8.667771">
|
|
<ele>-29.627216</ele>
|
|
<time>2026-07-10T14:24:20.000Z</time>
|
|
</trkpt>
|
|
<trkpt lat="55.240772" lon="8.667765">
|
|
<ele>-29.611364</ele>
|
|
<time>2026-07-10T14:24:21.000Z</time>
|
|
</trkpt>
|
|
<trkpt lat="55.240827" lon="8.667759">
|
|
<ele>-29.595219</ele>
|
|
<time>2026-07-10T14:24:22.000Z</time>
|
|
</trkpt>
|
|
<trkpt lat="55.240883" lon="8.667748">
|
|
<ele>-29.578710</ele>
|
|
<time>2026-07-10T14:24:23.000Z</time>
|
|
</trkpt>
|
|
<trkpt lat="55.240936" lon="8.667737">
|
|
<ele>-29.563075</ele>
|
|
<time>2026-07-10T14:24:24.000Z</time>
|
|
</trkpt>
|
|
<trkpt lat="55.240990" lon="8.667726">
|
|
<ele>-29.551943</ele>
|
|
<time>2026-07-10T14:24:25.000Z</time>
|
|
</trkpt>
|
|
<trkpt lat="55.241042" lon="8.667720">
|
|
<ele>-29.544861</ele>
|
|
<time>2026-07-10T14:24:26.000Z</time>
|
|
</trkpt>
|
|
<trkpt lat="55.241092" lon="8.667714">
|
|
<ele>-29.538050</ele>
|
|
<time>2026-07-10T14:24:27.000Z</time>
|
|
</trkpt>
|
|
<trkpt lat="55.241140" lon="8.667707">
|
|
<ele>-29.531504</ele>
|
|
<time>2026-07-10T14:24:28.000Z</time>
|
|
</trkpt>
|
|
<trkpt lat="55.241186" lon="8.667696">
|
|
<ele>-29.525195</ele>
|
|
<time>2026-07-10T14:24:29.000Z</time>
|
|
</trkpt>
|
|
<trkpt lat="55.241233" lon="8.667690">
|
|
<ele>-29.518791</ele>
|
|
<time>2026-07-10T14:24:30.000Z</time>
|
|
</trkpt>
|
|
<trkpt lat="55.241282" lon="8.667688">
|
|
<ele>-29.512130</ele>
|
|
<time>2026-07-10T14:24:31.000Z</time>
|
|
</trkpt>
|
|
<trkpt lat="55.241333" lon="8.667686">
|
|
<ele>-29.505197</ele>
|
|
<time>2026-07-10T14:24:32.000Z</time>
|
|
</trkpt>
|
|
<trkpt lat="55.241385" lon="8.667682">
|
|
<ele>-29.498123</ele>
|
|
<time>2026-07-10T14:24:33.000Z</time>
|
|
</trkpt>
|
|
<trkpt lat="55.241436" lon="8.667677">
|
|
<ele>-29.491181</ele>
|
|
<time>2026-07-10T14:24:34.000Z</time>
|
|
</trkpt>
|
|
<trkpt lat="55.241490" lon="8.667671">
|
|
<ele>-29.483828</ele>
|
|
<time>2026-07-10T14:24:35.000Z</time>
|
|
</trkpt>
|
|
<trkpt lat="55.241544" lon="8.667664">
|
|
<ele>-29.476469</ele>
|
|
<time>2026-07-10T14:24:36.000Z</time>
|
|
</trkpt>
|
|
<trkpt lat="55.241600" lon="8.667657">
|
|
<ele>-29.468839</ele>
|
|
<time>2026-07-10T14:24:37.000Z</time>
|
|
</trkpt>
|
|
<trkpt lat="55.241654" lon="8.667650">
|
|
<ele>-29.461481</ele>
|
|
<time>2026-07-10T14:24:38.000Z</time>
|
|
</trkpt>
|
|
<trkpt lat="55.241708" lon="8.667642">
|
|
<ele>-29.454116</ele>
|
|
<time>2026-07-10T14:24:39.000Z</time>
|
|
</trkpt>
|
|
<trkpt lat="55.241764" lon="8.667632">
|
|
<ele>-29.446466</ele>
|
|
<time>2026-07-10T14:24:40.000Z</time>
|
|
</trkpt>
|
|
<trkpt lat="55.241817" lon="8.667622">
|
|
<ele>-29.439221</ele>
|
|
<time>2026-07-10T14:24:41.000Z</time>
|
|
</trkpt>
|
|
<trkpt lat="55.241872" lon="8.667611">
|
|
<ele>-29.431698</ele>
|
|
<time>2026-07-10T14:24:42.000Z</time>
|
|
</trkpt>
|
|
<trkpt lat="55.241929" lon="8.667603">
|
|
<ele>-29.423927</ele>
|
|
<time>2026-07-10T14:24:43.000Z</time>
|
|
</trkpt>
|
|
<trkpt lat="55.241984" lon="8.667595">
|
|
<ele>-29.416427</ele>
|
|
<time>2026-07-10T14:24:44.000Z</time>
|
|
</trkpt>
|
|
<trkpt lat="55.242038" lon="8.667586">
|
|
<ele>-29.409055</ele>
|
|
<time>2026-07-10T14:24:45.000Z</time>
|
|
</trkpt>
|
|
<trkpt lat="55.242097" lon="8.667576">
|
|
<ele>-29.400999</ele>
|
|
<time>2026-07-10T14:24:46.000Z</time>
|
|
</trkpt>
|
|
<trkpt lat="55.242154" lon="8.667568">
|
|
<ele>-29.393228</ele>
|
|
<time>2026-07-10T14:24:47.000Z</time>
|
|
</trkpt>
|
|
<trkpt lat="55.242210" lon="8.667561">
|
|
<ele>-29.385598</ele>
|
|
<time>2026-07-10T14:24:48.000Z</time>
|
|
</trkpt>
|
|
<trkpt lat="55.242264" lon="8.667550">
|
|
<ele>-29.378210</ele>
|
|
<time>2026-07-10T14:24:49.000Z</time>
|
|
</trkpt>
|
|
<trkpt lat="55.242320" lon="8.667541">
|
|
<ele>-29.370568</ele>
|
|
<time>2026-07-10T14:24:50.000Z</time>
|
|
</trkpt>
|
|
<trkpt lat="55.242379" lon="8.667532">
|
|
<ele>-29.362519</ele>
|
|
<time>2026-07-10T14:24:51.000Z</time>
|
|
</trkpt>
|
|
<trkpt lat="55.242437" lon="8.667524">
|
|
<ele>-29.354613</ele>
|
|
<time>2026-07-10T14:24:52.000Z</time>
|
|
</trkpt>
|
|
<trkpt lat="55.242494" lon="8.667518">
|
|
<ele>-29.346852</ele>
|
|
<time>2026-07-10T14:24:53.000Z</time>
|
|
</trkpt>
|
|
<trkpt lat="55.242551" lon="8.667511">
|
|
<ele>-29.339087</ele>
|
|
<time>2026-07-10T14:24:54.000Z</time>
|
|
</trkpt>
|
|
<trkpt lat="55.242608" lon="8.667504">
|
|
<ele>-29.331321</ele>
|
|
<time>2026-07-10T14:24:55.000Z</time>
|
|
</trkpt>
|
|
<trkpt lat="55.242666" lon="8.667497">
|
|
<ele>-29.323420</ele>
|
|
<time>2026-07-10T14:24:56.000Z</time>
|
|
</trkpt>
|
|
<trkpt lat="55.242722" lon="8.667490">
|
|
<ele>-29.315791</ele>
|
|
<time>2026-07-10T14:24:57.000Z</time>
|
|
</trkpt>
|
|
<trkpt lat="55.242778" lon="8.667481">
|
|
<ele>-29.311302</ele>
|
|
<time>2026-07-10T14:24:58.000Z</time>
|
|
</trkpt>
|
|
<trkpt lat="55.242837" lon="8.667473">
|
|
<ele>-29.310496</ele>
|
|
<time>2026-07-10T14:24:59.000Z</time>
|
|
</trkpt>
|
|
<trkpt lat="55.242895" lon="8.667468">
|
|
<ele>-29.309706</ele>
|
|
<time>2026-07-10T14:25:00.000Z</time>
|
|
</trkpt>
|
|
<trkpt lat="55.242951" lon="8.667461">
|
|
<ele>-29.308942</ele>
|
|
<time>2026-07-10T14:25:01.000Z</time>
|
|
</trkpt>
|
|
<trkpt lat="55.243005" lon="8.667455">
|
|
<ele>-29.308206</ele>
|
|
<time>2026-07-10T14:25:02.000Z</time>
|
|
</trkpt>
|
|
<trkpt lat="55.243062" lon="8.667451">
|
|
<ele>-29.307430</ele>
|
|
<time>2026-07-10T14:25:03.000Z</time>
|
|
</trkpt>
|
|
<trkpt lat="55.243118" lon="8.667446">
|
|
<ele>-29.306666</ele>
|
|
<time>2026-07-10T14:25:04.000Z</time>
|
|
</trkpt>
|
|
<trkpt lat="55.243173" lon="8.667441">
|
|
<ele>-29.305917</ele>
|
|
<time>2026-07-10T14:25:05.000Z</time>
|
|
</trkpt>
|
|
<trkpt lat="55.243230" lon="8.667441">
|
|
<ele>-29.305141</ele>
|
|
<time>2026-07-10T14:25:06.000Z</time>
|
|
</trkpt>
|
|
<trkpt lat="55.243287" lon="8.667441">
|
|
<ele>-29.304366</ele>
|
|
<time>2026-07-10T14:25:07.000Z</time>
|
|
</trkpt>
|
|
<trkpt lat="55.243343" lon="8.667439">
|
|
<ele>-29.303603</ele>
|
|
<time>2026-07-10T14:25:08.000Z</time>
|
|
</trkpt>
|
|
<trkpt lat="55.243397" lon="8.667435">
|
|
<ele>-29.302868</ele>
|
|
<time>2026-07-10T14:25:09.000Z</time>
|
|
</trkpt>
|
|
<trkpt lat="55.243450" lon="8.667431">
|
|
<ele>-29.302146</ele>
|
|
<time>2026-07-10T14:25:10.000Z</time>
|
|
</trkpt>
|
|
<trkpt lat="55.243504" lon="8.667430">
|
|
<ele>-29.301411</ele>
|
|
<time>2026-07-10T14:25:11.000Z</time>
|
|
</trkpt>
|
|
<trkpt lat="55.243556" lon="8.667430">
|
|
<ele>-29.300703</ele>
|
|
<time>2026-07-10T14:25:12.000Z</time>
|
|
</trkpt>
|
|
<trkpt lat="55.243606" lon="8.667430">
|
|
<ele>-29.300023</ele>
|
|
<time>2026-07-10T14:25:13.000Z</time>
|
|
</trkpt>
|
|
<trkpt lat="55.243660" lon="8.667431">
|
|
<ele>-29.299288</ele>
|
|
<time>2026-07-10T14:25:14.000Z</time>
|
|
</trkpt>
|
|
<trkpt lat="55.243713" lon="8.667429">
|
|
<ele>-29.298567</ele>
|
|
<time>2026-07-10T14:25:15.000Z</time>
|
|
</trkpt>
|
|
<trkpt lat="55.243767" lon="8.667426">
|
|
<ele>-29.297831</ele>
|
|
<time>2026-07-10T14:25:16.000Z</time>
|
|
</trkpt>
|
|
<trkpt lat="55.243822" lon="8.667422">
|
|
<ele>-29.297082</ele>
|
|
<time>2026-07-10T14:25:17.000Z</time>
|
|
</trkpt>
|
|
<trkpt lat="55.243878" lon="8.667417">
|
|
<ele>-29.296319</ele>
|
|
<time>2026-07-10T14:25:18.000Z</time>
|
|
</trkpt>
|
|
<trkpt lat="55.243935" lon="8.667410">
|
|
<ele>-29.295542</ele>
|
|
<time>2026-07-10T14:25:19.000Z</time>
|
|
</trkpt>
|
|
<trkpt lat="55.243989" lon="8.667405">
|
|
<ele>-29.294806</ele>
|
|
<time>2026-07-10T14:25:20.000Z</time>
|
|
</trkpt>
|
|
<trkpt lat="55.244045" lon="8.667401">
|
|
<ele>-29.294043</ele>
|
|
<time>2026-07-10T14:25:21.000Z</time>
|
|
</trkpt>
|
|
<trkpt lat="55.244104" lon="8.667397">
|
|
<ele>-29.293240</ele>
|
|
<time>2026-07-10T14:25:22.000Z</time>
|
|
</trkpt>
|
|
<trkpt lat="55.244161" lon="8.667393">
|
|
<ele>-29.292463</ele>
|
|
<time>2026-07-10T14:25:23.000Z</time>
|
|
</trkpt>
|
|
<trkpt lat="55.244217" lon="8.667387">
|
|
<ele>-29.291700</ele>
|
|
<time>2026-07-10T14:25:24.000Z</time>
|
|
</trkpt>
|
|
<trkpt lat="55.244276" lon="8.667385">
|
|
<ele>-29.290897</ele>
|
|
<time>2026-07-10T14:25:25.000Z</time>
|
|
</trkpt>
|
|
<trkpt lat="55.244336" lon="8.667385">
|
|
<ele>-29.290080</ele>
|
|
<time>2026-07-10T14:25:26.000Z</time>
|
|
</trkpt>
|
|
<trkpt lat="55.244393" lon="8.667384">
|
|
<ele>-29.289305</ele>
|
|
<time>2026-07-10T14:25:27.000Z</time>
|
|
</trkpt>
|
|
<trkpt lat="55.244451" lon="8.667379">
|
|
<ele>-29.288514</ele>
|
|
<time>2026-07-10T14:25:28.000Z</time>
|
|
</trkpt>
|
|
<trkpt lat="55.244508" lon="8.667373">
|
|
<ele>-29.287737</ele>
|
|
<time>2026-07-10T14:25:29.000Z</time>
|
|
</trkpt>
|
|
<trkpt lat="55.244565" lon="8.667369">
|
|
<ele>-29.287309</ele>
|
|
<time>2026-07-10T14:25:30.000Z</time>
|
|
</trkpt>
|
|
<trkpt lat="55.244623" lon="8.667366">
|
|
<ele>-29.287800</ele>
|
|
<time>2026-07-10T14:25:31.000Z</time>
|
|
</trkpt>
|
|
<trkpt lat="55.244684" lon="8.667365">
|
|
<ele>-29.288316</ele>
|
|
<time>2026-07-10T14:25:32.000Z</time>
|
|
</trkpt>
|
|
<trkpt lat="55.244744" lon="8.667362">
|
|
<ele>-29.288824</ele>
|
|
<time>2026-07-10T14:25:33.000Z</time>
|
|
</trkpt>
|
|
<trkpt lat="55.244803" lon="8.667357">
|
|
<ele>-29.289324</ele>
|
|
<time>2026-07-10T14:25:34.000Z</time>
|
|
</trkpt>
|
|
<trkpt lat="55.244863" lon="8.667350">
|
|
<ele>-29.289832</ele>
|
|
<time>2026-07-10T14:25:35.000Z</time>
|
|
</trkpt>
|
|
<trkpt lat="55.244919" lon="8.667344">
|
|
<ele>-29.290307</ele>
|
|
<time>2026-07-10T14:25:36.000Z</time>
|
|
</trkpt>
|
|
<trkpt lat="55.244977" lon="8.667341">
|
|
<ele>-29.290798</ele>
|
|
<time>2026-07-10T14:25:37.000Z</time>
|
|
</trkpt>
|
|
<trkpt lat="55.245034" lon="8.667340">
|
|
<ele>-29.291280</ele>
|
|
<time>2026-07-10T14:25:38.000Z</time>
|
|
</trkpt>
|
|
<trkpt lat="55.245092" lon="8.667338">
|
|
<ele>-29.291771</ele>
|
|
<time>2026-07-10T14:25:39.000Z</time>
|
|
</trkpt>
|
|
<trkpt lat="55.245153" lon="8.667337">
|
|
<ele>-29.292287</ele>
|
|
<time>2026-07-10T14:25:40.000Z</time>
|
|
</trkpt>
|
|
<trkpt lat="55.245209" lon="8.667333">
|
|
<ele>-29.292761</ele>
|
|
<time>2026-07-10T14:25:41.000Z</time>
|
|
</trkpt>
|
|
<trkpt lat="55.245262" lon="8.667326">
|
|
<ele>-29.293210</ele>
|
|
<time>2026-07-10T14:25:42.000Z</time>
|
|
</trkpt>
|
|
<trkpt lat="55.245321" lon="8.667320">
|
|
<ele>-29.293710</ele>
|
|
<time>2026-07-10T14:25:43.000Z</time>
|
|
</trkpt>
|
|
<trkpt lat="55.245380" lon="8.667318">
|
|
<ele>-29.294209</ele>
|
|
<time>2026-07-10T14:25:44.000Z</time>
|
|
</trkpt>
|
|
<trkpt lat="55.245435" lon="8.667318">
|
|
<ele>-29.294675</ele>
|
|
<time>2026-07-10T14:25:45.000Z</time>
|
|
</trkpt>
|
|
<trkpt lat="55.245496" lon="8.667318">
|
|
<ele>-29.295191</ele>
|
|
<time>2026-07-10T14:25:46.000Z</time>
|
|
</trkpt>
|
|
<trkpt lat="55.245553" lon="8.667316">
|
|
<ele>-29.295673</ele>
|
|
<time>2026-07-10T14:25:47.000Z</time>
|
|
</trkpt>
|
|
<trkpt lat="55.245610" lon="8.667313">
|
|
<ele>-29.296155</ele>
|
|
<time>2026-07-10T14:25:48.000Z</time>
|
|
</trkpt>
|
|
<trkpt lat="55.245666" lon="8.667309">
|
|
<ele>-29.296629</ele>
|
|
<time>2026-07-10T14:25:49.000Z</time>
|
|
</trkpt>
|
|
<trkpt lat="55.245725" lon="8.667306">
|
|
<ele>-29.297129</ele>
|
|
<time>2026-07-10T14:25:50.000Z</time>
|
|
</trkpt>
|
|
<trkpt lat="55.245782" lon="8.667301">
|
|
<ele>-29.297611</ele>
|
|
<time>2026-07-10T14:25:51.000Z</time>
|
|
</trkpt>
|
|
<trkpt lat="55.245838" lon="8.667298">
|
|
<ele>-29.298085</ele>
|
|
<time>2026-07-10T14:25:52.000Z</time>
|
|
</trkpt>
|
|
<trkpt lat="55.245896" lon="8.667295">
|
|
<ele>-29.298576</ele>
|
|
<time>2026-07-10T14:25:53.000Z</time>
|
|
</trkpt>
|
|
<trkpt lat="55.245953" lon="8.667292">
|
|
<ele>-29.299058</ele>
|
|
<time>2026-07-10T14:25:54.000Z</time>
|
|
</trkpt>
|
|
<trkpt lat="55.246011" lon="8.667288">
|
|
<ele>-29.299549</ele>
|
|
<time>2026-07-10T14:25:55.000Z</time>
|
|
</trkpt>
|
|
<trkpt lat="55.246068" lon="8.667282">
|
|
<ele>-29.300032</ele>
|
|
<time>2026-07-10T14:25:56.000Z</time>
|
|
</trkpt>
|
|
<trkpt lat="55.246125" lon="8.667278">
|
|
<ele>-29.300515</ele>
|
|
<time>2026-07-10T14:25:57.000Z</time>
|
|
</trkpt>
|
|
<trkpt lat="55.246181" lon="8.667276">
|
|
<ele>-29.300989</ele>
|
|
<time>2026-07-10T14:25:58.000Z</time>
|
|
</trkpt>
|
|
<trkpt lat="55.246236" lon="8.667274">
|
|
<ele>-29.301454</ele>
|
|
<time>2026-07-10T14:25:59.000Z</time>
|
|
</trkpt>
|
|
<trkpt lat="55.246292" lon="8.667268">
|
|
<ele>-29.301929</ele>
|
|
<time>2026-07-10T14:26:00.000Z</time>
|
|
</trkpt>
|
|
<trkpt lat="55.246346" lon="8.667263">
|
|
<ele>-29.302386</ele>
|
|
<time>2026-07-10T14:26:01.000Z</time>
|
|
</trkpt>
|
|
<trkpt lat="55.246403" lon="8.667262">
|
|
<ele>-29.305772</ele>
|
|
<time>2026-07-10T14:26:02.000Z</time>
|
|
</trkpt>
|
|
<trkpt lat="55.246461" lon="8.667264">
|
|
<ele>-29.309243</ele>
|
|
<time>2026-07-10T14:26:03.000Z</time>
|
|
</trkpt>
|
|
<trkpt lat="55.246520" lon="8.667264">
|
|
<ele>-29.312774</ele>
|
|
<time>2026-07-10T14:26:04.000Z</time>
|
|
</trkpt>
|
|
<trkpt lat="55.246579" lon="8.667262">
|
|
<ele>-29.316305</ele>
|
|
<time>2026-07-10T14:26:05.000Z</time>
|
|
</trkpt>
|
|
<trkpt lat="55.246638" lon="8.667258">
|
|
<ele>-29.319839</ele>
|
|
<time>2026-07-10T14:26:06.000Z</time>
|
|
</trkpt>
|
|
<trkpt lat="55.246698" lon="8.667250">
|
|
<ele>-29.323440</ele>
|
|
<time>2026-07-10T14:26:07.000Z</time>
|
|
</trkpt>
|
|
<trkpt lat="55.246755" lon="8.667244">
|
|
<ele>-29.326857</ele>
|
|
<time>2026-07-10T14:26:08.000Z</time>
|
|
</trkpt>
|
|
<trkpt lat="55.246812" lon="8.667243">
|
|
<ele>-29.330268</ele>
|
|
<time>2026-07-10T14:26:09.000Z</time>
|
|
</trkpt>
|
|
<trkpt lat="55.246869" lon="8.667242">
|
|
<ele>-29.333679</ele>
|
|
<time>2026-07-10T14:26:10.000Z</time>
|
|
</trkpt>
|
|
<trkpt lat="55.246926" lon="8.667238">
|
|
<ele>-29.337093</ele>
|
|
<time>2026-07-10T14:26:11.000Z</time>
|
|
</trkpt>
|
|
<trkpt lat="55.246983" lon="8.667232">
|
|
<ele>-29.340510</ele>
|
|
<time>2026-07-10T14:26:12.000Z</time>
|
|
</trkpt>
|
|
<trkpt lat="55.247041" lon="8.667225">
|
|
<ele>-29.343989</ele>
|
|
<time>2026-07-10T14:26:13.000Z</time>
|
|
</trkpt>
|
|
<trkpt lat="55.247097" lon="8.667222">
|
|
<ele>-29.347342</ele>
|
|
<time>2026-07-10T14:26:14.000Z</time>
|
|
</trkpt>
|
|
<trkpt lat="55.247151" lon="8.667222">
|
|
<ele>-29.350573</ele>
|
|
<time>2026-07-10T14:26:15.000Z</time>
|
|
</trkpt>
|
|
<trkpt lat="55.247208" lon="8.667221">
|
|
<ele>-29.353984</ele>
|
|
<time>2026-07-10T14:26:16.000Z</time>
|
|
</trkpt>
|
|
<trkpt lat="55.247262" lon="8.667216">
|
|
<ele>-29.357220</ele>
|
|
<time>2026-07-10T14:26:17.000Z</time>
|
|
</trkpt>
|
|
<trkpt lat="55.247319" lon="8.667210">
|
|
<ele>-29.360637</ele>
|
|
<time>2026-07-10T14:26:18.000Z</time>
|
|
</trkpt>
|
|
<trkpt lat="55.247376" lon="8.667207">
|
|
<ele>-29.364050</ele>
|
|
<time>2026-07-10T14:26:19.000Z</time>
|
|
</trkpt>
|
|
<trkpt lat="55.247430" lon="8.667206">
|
|
<ele>-29.367282</ele>
|
|
<time>2026-07-10T14:26:20.000Z</time>
|
|
</trkpt>
|
|
<trkpt lat="55.247487" lon="8.667201">
|
|
<ele>-29.370697</ele>
|
|
<time>2026-07-10T14:26:21.000Z</time>
|
|
</trkpt>
|
|
<trkpt lat="55.247545" lon="8.667195">
|
|
<ele>-29.374174</ele>
|
|
<time>2026-07-10T14:26:22.000Z</time>
|
|
</trkpt>
|
|
<trkpt lat="55.247602" lon="8.667192">
|
|
<ele>-29.377586</ele>
|
|
<time>2026-07-10T14:26:23.000Z</time>
|
|
</trkpt>
|
|
<trkpt lat="55.247658" lon="8.667188">
|
|
<ele>-29.380940</ele>
|
|
<time>2026-07-10T14:26:24.000Z</time>
|
|
</trkpt>
|
|
<trkpt lat="55.247712" lon="8.667183">
|
|
<ele>-29.384176</ele>
|
|
<time>2026-07-10T14:26:25.000Z</time>
|
|
</trkpt>
|
|
<trkpt lat="55.247768" lon="8.667177">
|
|
<ele>-29.387534</ele>
|
|
<time>2026-07-10T14:26:26.000Z</time>
|
|
</trkpt>
|
|
<trkpt lat="55.247822" lon="8.667173">
|
|
<ele>-29.390768</ele>
|
|
<time>2026-07-10T14:26:27.000Z</time>
|
|
</trkpt>
|
|
<trkpt lat="55.247878" lon="8.667172">
|
|
<ele>-29.394119</ele>
|
|
<time>2026-07-10T14:26:28.000Z</time>
|
|
</trkpt>
|
|
<trkpt lat="55.247934" lon="8.667173">
|
|
<ele>-29.397471</ele>
|
|
<time>2026-07-10T14:26:29.000Z</time>
|
|
</trkpt>
|
|
<trkpt lat="55.247990" lon="8.667171">
|
|
<ele>-29.400822</ele>
|
|
<time>2026-07-10T14:26:30.000Z</time>
|
|
</trkpt>
|
|
<trkpt lat="55.248043" lon="8.667167">
|
|
<ele>-29.403997</ele>
|
|
<time>2026-07-10T14:26:31.000Z</time>
|
|
</trkpt>
|
|
<trkpt lat="55.248099" lon="8.667162">
|
|
<ele>-29.407352</ele>
|
|
<time>2026-07-10T14:26:32.000Z</time>
|
|
</trkpt>
|
|
<trkpt lat="55.248153" lon="8.667160">
|
|
<ele>-29.411065</ele>
|
|
<time>2026-07-10T14:26:33.000Z</time>
|
|
</trkpt>
|
|
<trkpt lat="55.248207" lon="8.667157">
|
|
<ele>-29.417071</ele>
|
|
<time>2026-07-10T14:26:34.000Z</time>
|
|
</trkpt>
|
|
<trkpt lat="55.248260" lon="8.667153">
|
|
<ele>-29.422969</ele>
|
|
<time>2026-07-10T14:26:35.000Z</time>
|
|
</trkpt>
|
|
<trkpt lat="55.248315" lon="8.667151">
|
|
<ele>-29.429085</ele>
|
|
<time>2026-07-10T14:26:36.000Z</time>
|
|
</trkpt>
|
|
<trkpt lat="55.248372" lon="8.667150">
|
|
<ele>-29.435422</ele>
|
|
<time>2026-07-10T14:26:37.000Z</time>
|
|
</trkpt>
|
|
<trkpt lat="55.248428" lon="8.667149">
|
|
<ele>-29.441648</ele>
|
|
<time>2026-07-10T14:26:38.000Z</time>
|
|
</trkpt>
|
|
<trkpt lat="55.248482" lon="8.667147">
|
|
<ele>-29.447652</ele>
|
|
<time>2026-07-10T14:26:39.000Z</time>
|
|
</trkpt>
|
|
<trkpt lat="55.248536" lon="8.667143">
|
|
<ele>-29.453661</ele>
|
|
<time>2026-07-10T14:26:40.000Z</time>
|
|
</trkpt>
|
|
<trkpt lat="55.248594" lon="8.667139">
|
|
<ele>-29.460114</ele>
|
|
<time>2026-07-10T14:26:41.000Z</time>
|
|
</trkpt>
|
|
<trkpt lat="55.248651" lon="8.667134">
|
|
<ele>-29.466459</ele>
|
|
<time>2026-07-10T14:26:42.000Z</time>
|
|
</trkpt>
|
|
<trkpt lat="55.248707" lon="8.667129">
|
|
<ele>-29.472692</ele>
|
|
<time>2026-07-10T14:26:43.000Z</time>
|
|
</trkpt>
|
|
<trkpt lat="55.248765" lon="8.667124">
|
|
<ele>-29.479148</ele>
|
|
<time>2026-07-10T14:26:44.000Z</time>
|
|
</trkpt>
|
|
<trkpt lat="55.248822" lon="8.667121">
|
|
<ele>-29.485488</ele>
|
|
<time>2026-07-10T14:26:45.000Z</time>
|
|
</trkpt>
|
|
<trkpt lat="55.248880" lon="8.667117">
|
|
<ele>-29.491941</ele>
|
|
<time>2026-07-10T14:26:46.000Z</time>
|
|
</trkpt>
|
|
<trkpt lat="55.248937" lon="8.667114">
|
|
<ele>-29.498281</ele>
|
|
<time>2026-07-10T14:26:47.000Z</time>
|
|
</trkpt>
|
|
<trkpt lat="55.248994" lon="8.667111">
|
|
<ele>-29.504620</ele>
|
|
<time>2026-07-10T14:26:48.000Z</time>
|
|
</trkpt>
|
|
<trkpt lat="55.249050" lon="8.667107">
|
|
<ele>-29.510851</ele>
|
|
<time>2026-07-10T14:26:49.000Z</time>
|
|
</trkpt>
|
|
<trkpt lat="55.249105" lon="8.667104">
|
|
<ele>-29.516968</ele>
|
|
<time>2026-07-10T14:26:50.000Z</time>
|
|
</trkpt>
|
|
<trkpt lat="55.249162" lon="8.667103">
|
|
<ele>-29.523306</ele>
|
|
<time>2026-07-10T14:26:51.000Z</time>
|
|
</trkpt>
|
|
<trkpt lat="55.249219" lon="8.667099">
|
|
<ele>-29.529647</ele>
|
|
<time>2026-07-10T14:26:52.000Z</time>
|
|
</trkpt>
|
|
<trkpt lat="55.249275" lon="8.667095">
|
|
<ele>-29.535878</ele>
|
|
<time>2026-07-10T14:26:53.000Z</time>
|
|
</trkpt>
|
|
<trkpt lat="55.249331" lon="8.667092">
|
|
<ele>-29.542107</ele>
|
|
<time>2026-07-10T14:26:54.000Z</time>
|
|
</trkpt>
|
|
<trkpt lat="55.249390" lon="8.667089">
|
|
<ele>-29.548669</ele>
|
|
<time>2026-07-10T14:26:55.000Z</time>
|
|
</trkpt>
|
|
<trkpt lat="55.249445" lon="8.667085">
|
|
<ele>-29.554788</ele>
|
|
<time>2026-07-10T14:26:56.000Z</time>
|
|
</trkpt>
|
|
<trkpt lat="55.249500" lon="8.667080">
|
|
<ele>-29.560911</ele>
|
|
<time>2026-07-10T14:26:57.000Z</time>
|
|
</trkpt>
|
|
<trkpt lat="55.249553" lon="8.667076">
|
|
<ele>-29.566809</ele>
|
|
<time>2026-07-10T14:26:58.000Z</time>
|
|
</trkpt>
|
|
<trkpt lat="55.249608" lon="8.667072">
|
|
<ele>-29.572928</ele>
|
|
<time>2026-07-10T14:26:59.000Z</time>
|
|
</trkpt>
|
|
<trkpt lat="55.249665" lon="8.667067">
|
|
<ele>-29.579273</ele>
|
|
<time>2026-07-10T14:27:00.000Z</time>
|
|
</trkpt>
|
|
<trkpt lat="55.249721" lon="8.667062">
|
|
<ele>-29.585507</ele>
|
|
<time>2026-07-10T14:27:01.000Z</time>
|
|
</trkpt>
|
|
<trkpt lat="55.249780" lon="8.667057">
|
|
<ele>-29.592074</ele>
|
|
<time>2026-07-10T14:27:02.000Z</time>
|
|
</trkpt>
|
|
<trkpt lat="55.249838" lon="8.667055">
|
|
<ele>-29.598523</ele>
|
|
<time>2026-07-10T14:27:03.000Z</time>
|
|
</trkpt>
|
|
<trkpt lat="55.249898" lon="8.667052">
|
|
<ele>-29.605196</ele>
|
|
<time>2026-07-10T14:27:04.000Z</time>
|
|
</trkpt>
|
|
<trkpt lat="55.249954" lon="8.667049">
|
|
<ele>-29.609876</ele>
|
|
<time>2026-07-10T14:27:05.000Z</time>
|
|
</trkpt>
|
|
<trkpt lat="55.250009" lon="8.667045">
|
|
<ele>-29.609420</ele>
|
|
<time>2026-07-10T14:27:06.000Z</time>
|
|
</trkpt>
|
|
<trkpt lat="55.250066" lon="8.667041">
|
|
<ele>-29.608947</ele>
|
|
<time>2026-07-10T14:27:07.000Z</time>
|
|
</trkpt>
|
|
<trkpt lat="55.250123" lon="8.667039">
|
|
<ele>-29.608474</ele>
|
|
<time>2026-07-10T14:27:08.000Z</time>
|
|
</trkpt>
|
|
<trkpt lat="55.250181" lon="8.667036">
|
|
<ele>-29.607993</ele>
|
|
<time>2026-07-10T14:27:09.000Z</time>
|
|
</trkpt>
|
|
<trkpt lat="55.250238" lon="8.667032">
|
|
<ele>-29.607520</ele>
|
|
<time>2026-07-10T14:27:10.000Z</time>
|
|
</trkpt>
|
|
<trkpt lat="55.250295" lon="8.667029">
|
|
<ele>-29.607047</ele>
|
|
<time>2026-07-10T14:27:11.000Z</time>
|
|
</trkpt>
|
|
<trkpt lat="55.250351" lon="8.667026">
|
|
<ele>-29.606583</ele>
|
|
<time>2026-07-10T14:27:12.000Z</time>
|
|
</trkpt>
|
|
<trkpt lat="55.250406" lon="8.667023">
|
|
<ele>-29.606127</ele>
|
|
<time>2026-07-10T14:27:13.000Z</time>
|
|
</trkpt>
|
|
<trkpt lat="55.250462" lon="8.667021">
|
|
<ele>-29.605662</ele>
|
|
<time>2026-07-10T14:27:14.000Z</time>
|
|
</trkpt>
|
|
<trkpt lat="55.250516" lon="8.667017">
|
|
<ele>-29.605214</ele>
|
|
<time>2026-07-10T14:27:15.000Z</time>
|
|
</trkpt>
|
|
<trkpt lat="55.250572" lon="8.667012">
|
|
<ele>-29.604749</ele>
|
|
<time>2026-07-10T14:27:16.000Z</time>
|
|
</trkpt>
|
|
<trkpt lat="55.250627" lon="8.667009">
|
|
<ele>-29.604293</ele>
|
|
<time>2026-07-10T14:27:17.000Z</time>
|
|
</trkpt>
|
|
<trkpt lat="55.250684" lon="8.667005">
|
|
<ele>-29.603820</ele>
|
|
<time>2026-07-10T14:27:18.000Z</time>
|
|
</trkpt>
|
|
<trkpt lat="55.250740" lon="8.667001">
|
|
<ele>-29.603355</ele>
|
|
<time>2026-07-10T14:27:19.000Z</time>
|
|
</trkpt>
|
|
<trkpt lat="55.250796" lon="8.666999">
|
|
<ele>-29.602891</ele>
|
|
<time>2026-07-10T14:27:20.000Z</time>
|
|
</trkpt>
|
|
<trkpt lat="55.250856" lon="8.666995">
|
|
<ele>-29.602393</ele>
|
|
<time>2026-07-10T14:27:21.000Z</time>
|
|
</trkpt>
|
|
<trkpt lat="55.250913" lon="8.666990">
|
|
<ele>-29.601920</ele>
|
|
<time>2026-07-10T14:27:22.000Z</time>
|
|
</trkpt>
|
|
<trkpt lat="55.250970" lon="8.666985">
|
|
<ele>-29.601446</ele>
|
|
<time>2026-07-10T14:27:23.000Z</time>
|
|
</trkpt>
|
|
<trkpt lat="55.251026" lon="8.666980">
|
|
<ele>-29.600982</ele>
|
|
<time>2026-07-10T14:27:24.000Z</time>
|
|
</trkpt>
|
|
<trkpt lat="55.251080" lon="8.666976">
|
|
<ele>-29.600533</ele>
|
|
<time>2026-07-10T14:27:25.000Z</time>
|
|
</trkpt>
|
|
<trkpt lat="55.251138" lon="8.666972">
|
|
<ele>-29.600052</ele>
|
|
<time>2026-07-10T14:27:26.000Z</time>
|
|
</trkpt>
|
|
<trkpt lat="55.251194" lon="8.666970">
|
|
<ele>-29.599588</ele>
|
|
<time>2026-07-10T14:27:27.000Z</time>
|
|
</trkpt>
|
|
<trkpt lat="55.251251" lon="8.666967">
|
|
<ele>-29.599115</ele>
|
|
<time>2026-07-10T14:27:28.000Z</time>
|
|
</trkpt>
|
|
<trkpt lat="55.251306" lon="8.666964">
|
|
<ele>-29.598659</ele>
|
|
<time>2026-07-10T14:27:29.000Z</time>
|
|
</trkpt>
|
|
<trkpt lat="55.251362" lon="8.666962">
|
|
<ele>-29.598194</ele>
|
|
<time>2026-07-10T14:27:30.000Z</time>
|
|
</trkpt>
|
|
<trkpt lat="55.251416" lon="8.666959">
|
|
<ele>-29.597746</ele>
|
|
<time>2026-07-10T14:27:31.000Z</time>
|
|
</trkpt>
|
|
<trkpt lat="55.251472" lon="8.666956">
|
|
<ele>-29.597282</ele>
|
|
<time>2026-07-10T14:27:32.000Z</time>
|
|
</trkpt>
|
|
<trkpt lat="55.251527" lon="8.666952">
|
|
<ele>-29.596825</ele>
|
|
<time>2026-07-10T14:27:33.000Z</time>
|
|
</trkpt>
|
|
<trkpt lat="55.251584" lon="8.666949">
|
|
<ele>-29.596353</ele>
|
|
<time>2026-07-10T14:27:34.000Z</time>
|
|
</trkpt>
|
|
<trkpt lat="55.251641" lon="8.666946">
|
|
<ele>-29.595880</ele>
|
|
<time>2026-07-10T14:27:35.000Z</time>
|
|
</trkpt>
|
|
<trkpt lat="55.251695" lon="8.666942">
|
|
<ele>-29.595432</ele>
|
|
<time>2026-07-10T14:27:36.000Z</time>
|
|
</trkpt>
|
|
<trkpt lat="55.251752" lon="8.666938">
|
|
<ele>-29.595695</ele>
|
|
<time>2026-07-10T14:27:37.000Z</time>
|
|
</trkpt>
|
|
<trkpt lat="55.251807" lon="8.666934">
|
|
<ele>-29.598241</ele>
|
|
<time>2026-07-10T14:27:38.000Z</time>
|
|
</trkpt>
|
|
<trkpt lat="55.251862" lon="8.666929">
|
|
<ele>-29.600788</ele>
|
|
<time>2026-07-10T14:27:39.000Z</time>
|
|
</trkpt>
|
|
<trkpt lat="55.251916" lon="8.666924">
|
|
<ele>-29.603289</ele>
|
|
<time>2026-07-10T14:27:40.000Z</time>
|
|
</trkpt>
|
|
<trkpt lat="55.251972" lon="8.666918">
|
|
<ele>-29.605884</ele>
|
|
<time>2026-07-10T14:27:41.000Z</time>
|
|
</trkpt>
|
|
<trkpt lat="55.252026" lon="8.666910">
|
|
<ele>-29.608391</ele>
|
|
<time>2026-07-10T14:27:42.000Z</time>
|
|
</trkpt>
|
|
<trkpt lat="55.252083" lon="8.666902">
|
|
<ele>-29.611036</ele>
|
|
<time>2026-07-10T14:27:43.000Z</time>
|
|
</trkpt>
|
|
<trkpt lat="55.252140" lon="8.666897">
|
|
<ele>-29.613675</ele>
|
|
<time>2026-07-10T14:27:44.000Z</time>
|
|
</trkpt>
|
|
<trkpt lat="55.252192" lon="8.666897">
|
|
<ele>-29.616080</ele>
|
|
<time>2026-07-10T14:27:45.000Z</time>
|
|
</trkpt>
|
|
<trkpt lat="55.252247" lon="8.666899">
|
|
<ele>-29.618625</ele>
|
|
<time>2026-07-10T14:27:46.000Z</time>
|
|
</trkpt>
|
|
<trkpt lat="55.252301" lon="8.666898">
|
|
<ele>-29.621122</ele>
|
|
<time>2026-07-10T14:27:47.000Z</time>
|
|
</trkpt>
|
|
<trkpt lat="55.252357" lon="8.666892">
|
|
<ele>-29.623717</ele>
|
|
<time>2026-07-10T14:27:48.000Z</time>
|
|
</trkpt>
|
|
<trkpt lat="55.252410" lon="8.666883">
|
|
<ele>-29.626180</ele>
|
|
<time>2026-07-10T14:27:49.000Z</time>
|
|
</trkpt>
|
|
<trkpt lat="55.252465" lon="8.666876">
|
|
<ele>-29.628731</ele>
|
|
<time>2026-07-10T14:27:50.000Z</time>
|
|
</trkpt>
|
|
<trkpt lat="55.252521" lon="8.666873">
|
|
<ele>-29.631322</ele>
|
|
<time>2026-07-10T14:27:51.000Z</time>
|
|
</trkpt>
|
|
<trkpt lat="55.252575" lon="8.666874">
|
|
<ele>-29.633820</ele>
|
|
<time>2026-07-10T14:27:52.000Z</time>
|
|
</trkpt>
|
|
<trkpt lat="55.252629" lon="8.666875">
|
|
<ele>-29.636317</ele>
|
|
<time>2026-07-10T14:27:53.000Z</time>
|
|
</trkpt>
|
|
<trkpt lat="55.252682" lon="8.666874">
|
|
<ele>-29.638769</ele>
|
|
<time>2026-07-10T14:27:54.000Z</time>
|
|
</trkpt>
|
|
<trkpt lat="55.252735" lon="8.666871">
|
|
<ele>-29.641221</ele>
|
|
<time>2026-07-10T14:27:55.000Z</time>
|
|
</trkpt>
|
|
<trkpt lat="55.252790" lon="8.666869">
|
|
<ele>-29.643766</ele>
|
|
<time>2026-07-10T14:27:56.000Z</time>
|
|
</trkpt>
|
|
<trkpt lat="55.252847" lon="8.666864">
|
|
<ele>-29.646405</ele>
|
|
<time>2026-07-10T14:27:57.000Z</time>
|
|
</trkpt>
|
|
<trkpt lat="55.252904" lon="8.666858">
|
|
<ele>-29.649046</ele>
|
|
<time>2026-07-10T14:27:58.000Z</time>
|
|
</trkpt>
|
|
<trkpt lat="55.252960" lon="8.666852">
|
|
<ele>-29.651641</ele>
|
|
<time>2026-07-10T14:27:59.000Z</time>
|
|
</trkpt>
|
|
<trkpt lat="55.253014" lon="8.666850">
|
|
<ele>-29.654140</ele>
|
|
<time>2026-07-10T14:28:00.000Z</time>
|
|
</trkpt>
|
|
<trkpt lat="55.253072" lon="8.666848">
|
|
<ele>-29.656823</ele>
|
|
<time>2026-07-10T14:28:01.000Z</time>
|
|
</trkpt>
|
|
<trkpt lat="55.253130" lon="8.666847">
|
|
<ele>-29.659505</ele>
|
|
<time>2026-07-10T14:28:02.000Z</time>
|
|
</trkpt>
|
|
<trkpt lat="55.253187" lon="8.666842">
|
|
<ele>-29.662145</ele>
|
|
<time>2026-07-10T14:28:03.000Z</time>
|
|
</trkpt>
|
|
<trkpt lat="55.253243" lon="8.666839">
|
|
<ele>-29.664736</ele>
|
|
<time>2026-07-10T14:28:04.000Z</time>
|
|
</trkpt>
|
|
<trkpt lat="55.253300" lon="8.666836">
|
|
<ele>-29.667374</ele>
|
|
<time>2026-07-10T14:28:05.000Z</time>
|
|
</trkpt>
|
|
<trkpt lat="55.253358" lon="8.666832">
|
|
<ele>-29.670058</ele>
|
|
<time>2026-07-10T14:28:06.000Z</time>
|
|
</trkpt>
|
|
<trkpt lat="55.253414" lon="8.666829">
|
|
<ele>-29.672650</ele>
|
|
<time>2026-07-10T14:28:07.000Z</time>
|
|
</trkpt>
|
|
<trkpt lat="55.253470" lon="8.666825">
|
|
<ele>-29.675242</ele>
|
|
<time>2026-07-10T14:28:08.000Z</time>
|
|
</trkpt>
|
|
<trkpt lat="55.253529" lon="8.666822">
|
|
<ele>-29.677972</ele>
|
|
<time>2026-07-10T14:28:09.000Z</time>
|
|
</trkpt>
|
|
<trkpt lat="55.253583" lon="8.666817">
|
|
<ele>-29.676739</ele>
|
|
<time>2026-07-10T14:28:10.000Z</time>
|
|
</trkpt>
|
|
<trkpt lat="55.253639" lon="8.666812">
|
|
<ele>-29.674956</ele>
|
|
<time>2026-07-10T14:28:11.000Z</time>
|
|
</trkpt>
|
|
<trkpt lat="55.253696" lon="8.666809">
|
|
<ele>-29.673143</ele>
|
|
<time>2026-07-10T14:28:12.000Z</time>
|
|
</trkpt>
|
|
<trkpt lat="55.253754" lon="8.666805">
|
|
<ele>-29.671297</ele>
|
|
<time>2026-07-10T14:28:13.000Z</time>
|
|
</trkpt>
|
|
<trkpt lat="55.253809" lon="8.666801">
|
|
<ele>-29.669546</ele>
|
|
<time>2026-07-10T14:28:14.000Z</time>
|
|
</trkpt>
|
|
<trkpt lat="55.253865" lon="8.666798">
|
|
<ele>-29.667765</ele>
|
|
<time>2026-07-10T14:28:15.000Z</time>
|
|
</trkpt>
|
|
<trkpt lat="55.253923" lon="8.666794">
|
|
<ele>-29.665919</ele>
|
|
<time>2026-07-10T14:28:16.000Z</time>
|
|
</trkpt>
|
|
<trkpt lat="55.253979" lon="8.666790">
|
|
<ele>-29.664137</ele>
|
|
<time>2026-07-10T14:28:17.000Z</time>
|
|
</trkpt>
|
|
<trkpt lat="55.254033" lon="8.666785">
|
|
<ele>-29.662417</ele>
|
|
<time>2026-07-10T14:28:18.000Z</time>
|
|
</trkpt>
|
|
<trkpt lat="55.254090" lon="8.666781">
|
|
<ele>-29.660603</ele>
|
|
<time>2026-07-10T14:28:19.000Z</time>
|
|
</trkpt>
|
|
<trkpt lat="55.254147" lon="8.666780">
|
|
<ele>-29.658790</ele>
|
|
<time>2026-07-10T14:28:20.000Z</time>
|
|
</trkpt>
|
|
<trkpt lat="55.254200" lon="8.666777">
|
|
<ele>-29.657104</ele>
|
|
<time>2026-07-10T14:28:21.000Z</time>
|
|
</trkpt>
|
|
<trkpt lat="55.254254" lon="8.666774">
|
|
<ele>-29.655386</ele>
|
|
<time>2026-07-10T14:28:22.000Z</time>
|
|
</trkpt>
|
|
<trkpt lat="55.254312" lon="8.666771">
|
|
<ele>-29.653541</ele>
|
|
<time>2026-07-10T14:28:23.000Z</time>
|
|
</trkpt>
|
|
<trkpt lat="55.254367" lon="8.666766">
|
|
<ele>-29.651790</ele>
|
|
<time>2026-07-10T14:28:24.000Z</time>
|
|
</trkpt>
|
|
<trkpt lat="55.254418" lon="8.666762">
|
|
<ele>-29.650166</ele>
|
|
<time>2026-07-10T14:28:25.000Z</time>
|
|
</trkpt>
|
|
<trkpt lat="55.254475" lon="8.666759">
|
|
<ele>-29.648353</ele>
|
|
<time>2026-07-10T14:28:26.000Z</time>
|
|
</trkpt>
|
|
<trkpt lat="55.254528" lon="8.666754">
|
|
<ele>-29.646665</ele>
|
|
<time>2026-07-10T14:28:27.000Z</time>
|
|
</trkpt>
|
|
<trkpt lat="55.254581" lon="8.666753">
|
|
<ele>-29.644979</ele>
|
|
<time>2026-07-10T14:28:28.000Z</time>
|
|
</trkpt>
|
|
<trkpt lat="55.254635" lon="8.666749">
|
|
<ele>-29.643261</ele>
|
|
<time>2026-07-10T14:28:29.000Z</time>
|
|
</trkpt>
|
|
<trkpt lat="55.254689" lon="8.666746">
|
|
<ele>-29.641543</ele>
|
|
<time>2026-07-10T14:28:30.000Z</time>
|
|
</trkpt>
|
|
<trkpt lat="55.254745" lon="8.666743">
|
|
<ele>-29.639761</ele>
|
|
<time>2026-07-10T14:28:31.000Z</time>
|
|
</trkpt>
|
|
<trkpt lat="55.254799" lon="8.666741">
|
|
<ele>-29.638043</ele>
|
|
<time>2026-07-10T14:28:32.000Z</time>
|
|
</trkpt>
|
|
<trkpt lat="55.254852" lon="8.666737">
|
|
<ele>-29.636356</ele>
|
|
<time>2026-07-10T14:28:33.000Z</time>
|
|
</trkpt>
|
|
<trkpt lat="55.254905" lon="8.666731">
|
|
<ele>-29.634668</ele>
|
|
<time>2026-07-10T14:28:34.000Z</time>
|
|
</trkpt>
|
|
<trkpt lat="55.254957" lon="8.666727">
|
|
<ele>-29.633012</ele>
|
|
<time>2026-07-10T14:28:35.000Z</time>
|
|
</trkpt>
|
|
<trkpt lat="55.255013" lon="8.666725">
|
|
<ele>-29.631231</ele>
|
|
<time>2026-07-10T14:28:36.000Z</time>
|
|
</trkpt>
|
|
<trkpt lat="55.255071" lon="8.666722">
|
|
<ele>-29.629386</ele>
|
|
<time>2026-07-10T14:28:37.000Z</time>
|
|
</trkpt>
|
|
<trkpt lat="55.255128" lon="8.666717">
|
|
<ele>-29.627571</ele>
|
|
<time>2026-07-10T14:28:38.000Z</time>
|
|
</trkpt>
|
|
<trkpt lat="55.255185" lon="8.666711">
|
|
<ele>-29.625755</ele>
|
|
<time>2026-07-10T14:28:39.000Z</time>
|
|
</trkpt>
|
|
<trkpt lat="55.255241" lon="8.666710">
|
|
<ele>-29.623974</ele>
|
|
<time>2026-07-10T14:28:40.000Z</time>
|
|
</trkpt>
|
|
<trkpt lat="55.255295" lon="8.666712">
|
|
<ele>-29.622257</ele>
|
|
<time>2026-07-10T14:28:41.000Z</time>
|
|
</trkpt>
|
|
<trkpt lat="55.255353" lon="8.666711">
|
|
<ele>-29.621767</ele>
|
|
<time>2026-07-10T14:28:42.000Z</time>
|
|
</trkpt>
|
|
<trkpt lat="55.255410" lon="8.666706">
|
|
<ele>-29.623725</ele>
|
|
<time>2026-07-10T14:28:43.000Z</time>
|
|
</trkpt>
|
|
<trkpt lat="55.255467" lon="8.666701">
|
|
<ele>-29.625683</ele>
|
|
<time>2026-07-10T14:28:44.000Z</time>
|
|
</trkpt>
|
|
<trkpt lat="55.255525" lon="8.666698">
|
|
<ele>-29.627674</ele>
|
|
<time>2026-07-10T14:28:45.000Z</time>
|
|
</trkpt>
|
|
<trkpt lat="55.255582" lon="8.666698">
|
|
<ele>-29.629630</ele>
|
|
<time>2026-07-10T14:28:46.000Z</time>
|
|
</trkpt>
|
|
<trkpt lat="55.255639" lon="8.666696">
|
|
<ele>-29.631586</ele>
|
|
<time>2026-07-10T14:28:47.000Z</time>
|
|
</trkpt>
|
|
<trkpt lat="55.255695" lon="8.666693">
|
|
<ele>-29.633508</ele>
|
|
<time>2026-07-10T14:28:48.000Z</time>
|
|
</trkpt>
|
|
<trkpt lat="55.255750" lon="8.666689">
|
|
<ele>-29.635397</ele>
|
|
<time>2026-07-10T14:28:49.000Z</time>
|
|
</trkpt>
|
|
<trkpt lat="55.255806" lon="8.666688">
|
|
<ele>-29.637318</ele>
|
|
<time>2026-07-10T14:28:50.000Z</time>
|
|
</trkpt>
|
|
<trkpt lat="55.255860" lon="8.666686">
|
|
<ele>-29.639172</ele>
|
|
<time>2026-07-10T14:28:51.000Z</time>
|
|
</trkpt>
|
|
<trkpt lat="55.255914" lon="8.666682">
|
|
<ele>-29.641026</ele>
|
|
<time>2026-07-10T14:28:52.000Z</time>
|
|
</trkpt>
|
|
<trkpt lat="55.255970" lon="8.666680">
|
|
<ele>-29.642948</ele>
|
|
<time>2026-07-10T14:28:53.000Z</time>
|
|
</trkpt>
|
|
<trkpt lat="55.256023" lon="8.666678">
|
|
<ele>-29.644767</ele>
|
|
<time>2026-07-10T14:28:54.000Z</time>
|
|
</trkpt>
|
|
<trkpt lat="55.256077" lon="8.666676">
|
|
<ele>-29.646620</ele>
|
|
<time>2026-07-10T14:28:55.000Z</time>
|
|
</trkpt>
|
|
<trkpt lat="55.256130" lon="8.666674">
|
|
<ele>-29.648439</ele>
|
|
<time>2026-07-10T14:28:56.000Z</time>
|
|
</trkpt>
|
|
<trkpt lat="55.256184" lon="8.666673">
|
|
<ele>-29.650292</ele>
|
|
<time>2026-07-10T14:28:57.000Z</time>
|
|
</trkpt>
|
|
<trkpt lat="55.256237" lon="8.666669">
|
|
<ele>-29.652112</ele>
|
|
<time>2026-07-10T14:28:58.000Z</time>
|
|
</trkpt>
|
|
<trkpt lat="55.256290" lon="8.666665">
|
|
<ele>-29.653933</ele>
|
|
<time>2026-07-10T14:28:59.000Z</time>
|
|
</trkpt>
|
|
<trkpt lat="55.256343" lon="8.666663">
|
|
<ele>-29.655751</ele>
|
|
<time>2026-07-10T14:29:00.000Z</time>
|
|
</trkpt>
|
|
<trkpt lat="55.256396" lon="8.666660">
|
|
<ele>-29.657571</ele>
|
|
<time>2026-07-10T14:29:01.000Z</time>
|
|
</trkpt>
|
|
<trkpt lat="55.256451" lon="8.666655">
|
|
<ele>-29.659461</ele>
|
|
<time>2026-07-10T14:29:02.000Z</time>
|
|
</trkpt>
|
|
<trkpt lat="55.256503" lon="8.666650">
|
|
<ele>-29.661247</ele>
|
|
<time>2026-07-10T14:29:03.000Z</time>
|
|
</trkpt>
|
|
<trkpt lat="55.256556" lon="8.666645">
|
|
<ele>-29.663069</ele>
|
|
<time>2026-07-10T14:29:04.000Z</time>
|
|
</trkpt>
|
|
<trkpt lat="55.256608" lon="8.666646">
|
|
<ele>-29.664853</ele>
|
|
<time>2026-07-10T14:29:05.000Z</time>
|
|
</trkpt>
|
|
<trkpt lat="55.256659" lon="8.666653">
|
|
<ele>-29.666608</ele>
|
|
<time>2026-07-10T14:29:06.000Z</time>
|
|
</trkpt>
|
|
<trkpt lat="55.256708" lon="8.666665">
|
|
<ele>-29.668306</ele>
|
|
<time>2026-07-10T14:29:07.000Z</time>
|
|
</trkpt>
|
|
<trkpt lat="55.256759" lon="8.666683">
|
|
<ele>-29.670091</ele>
|
|
<time>2026-07-10T14:29:08.000Z</time>
|
|
</trkpt>
|
|
<trkpt lat="55.256813" lon="8.666703">
|
|
<ele>-29.671984</ele>
|
|
<time>2026-07-10T14:29:09.000Z</time>
|
|
</trkpt>
|
|
<trkpt lat="55.256867" lon="8.666726">
|
|
<ele>-29.673891</ele>
|
|
<time>2026-07-10T14:29:10.000Z</time>
|
|
</trkpt>
|
|
<trkpt lat="55.256923" lon="8.666751">
|
|
<ele>-29.675874</ele>
|
|
<time>2026-07-10T14:29:11.000Z</time>
|
|
</trkpt>
|
|
<trkpt lat="55.256976" lon="8.666779">
|
|
<ele>-29.677773</ele>
|
|
<time>2026-07-10T14:29:12.000Z</time>
|
|
</trkpt>
|
|
<trkpt lat="55.257029" lon="8.666806">
|
|
<ele>-29.679666</ele>
|
|
<time>2026-07-10T14:29:13.000Z</time>
|
|
</trkpt>
|
|
<trkpt lat="55.257078" lon="8.666834">
|
|
<ele>-29.681435</ele>
|
|
<time>2026-07-10T14:29:14.000Z</time>
|
|
</trkpt>
|
|
<trkpt lat="55.257130" lon="8.666862">
|
|
<ele>-29.682844</ele>
|
|
<time>2026-07-10T14:29:15.000Z</time>
|
|
</trkpt>
|
|
<trkpt lat="55.257183" lon="8.666886">
|
|
<ele>-29.683081</ele>
|
|
<time>2026-07-10T14:29:16.000Z</time>
|
|
</trkpt>
|
|
<trkpt lat="55.257237" lon="8.666911">
|
|
<ele>-29.683322</ele>
|
|
<time>2026-07-10T14:29:17.000Z</time>
|
|
</trkpt>
|
|
<trkpt lat="55.257290" lon="8.666935">
|
|
<ele>-29.683558</ele>
|
|
<time>2026-07-10T14:29:18.000Z</time>
|
|
</trkpt>
|
|
<trkpt lat="55.257343" lon="8.666959">
|
|
<ele>-29.683795</ele>
|
|
<time>2026-07-10T14:29:19.000Z</time>
|
|
</trkpt>
|
|
<trkpt lat="55.257397" lon="8.666981">
|
|
<ele>-29.684035</ele>
|
|
<time>2026-07-10T14:29:20.000Z</time>
|
|
</trkpt>
|
|
<trkpt lat="55.257450" lon="8.667000">
|
|
<ele>-29.684268</ele>
|
|
<time>2026-07-10T14:29:21.000Z</time>
|
|
</trkpt>
|
|
<trkpt lat="55.257504" lon="8.667015">
|
|
<ele>-29.684505</ele>
|
|
<time>2026-07-10T14:29:22.000Z</time>
|
|
</trkpt>
|
|
<trkpt lat="55.257557" lon="8.667025">
|
|
<ele>-29.684735</ele>
|
|
<time>2026-07-10T14:29:23.000Z</time>
|
|
</trkpt>
|
|
<trkpt lat="55.257612" lon="8.667026">
|
|
<ele>-29.684973</ele>
|
|
<time>2026-07-10T14:29:24.000Z</time>
|
|
</trkpt>
|
|
<trkpt lat="55.257666" lon="8.667023">
|
|
<ele>-29.685206</ele>
|
|
<time>2026-07-10T14:29:25.000Z</time>
|
|
</trkpt>
|
|
<trkpt lat="55.257717" lon="8.667015">
|
|
<ele>-29.685427</ele>
|
|
<time>2026-07-10T14:29:26.000Z</time>
|
|
</trkpt>
|
|
<trkpt lat="55.257769" lon="8.667003">
|
|
<ele>-29.685654</ele>
|
|
<time>2026-07-10T14:29:27.000Z</time>
|
|
</trkpt>
|
|
<trkpt lat="55.257819" lon="8.666990">
|
|
<ele>-29.685872</ele>
|
|
<time>2026-07-10T14:29:28.000Z</time>
|
|
</trkpt>
|
|
<trkpt lat="55.257869" lon="8.666971">
|
|
<ele>-29.686094</ele>
|
|
<time>2026-07-10T14:29:29.000Z</time>
|
|
</trkpt>
|
|
<trkpt lat="55.257918" lon="8.666950">
|
|
<ele>-29.686312</ele>
|
|
<time>2026-07-10T14:29:30.000Z</time>
|
|
</trkpt>
|
|
<trkpt lat="55.257969" lon="8.666926">
|
|
<ele>-29.686540</ele>
|
|
<time>2026-07-10T14:29:31.000Z</time>
|
|
</trkpt>
|
|
<trkpt lat="55.258021" lon="8.666900">
|
|
<ele>-29.686773</ele>
|
|
<time>2026-07-10T14:29:32.000Z</time>
|
|
</trkpt>
|
|
<trkpt lat="55.258072" lon="8.666871">
|
|
<ele>-29.687005</ele>
|
|
<time>2026-07-10T14:29:33.000Z</time>
|
|
</trkpt>
|
|
<trkpt lat="55.258124" lon="8.666839">
|
|
<ele>-29.687243</ele>
|
|
<time>2026-07-10T14:29:34.000Z</time>
|
|
</trkpt>
|
|
<trkpt lat="55.258173" lon="8.666808">
|
|
<ele>-29.687468</ele>
|
|
<time>2026-07-10T14:29:35.000Z</time>
|
|
</trkpt>
|
|
<trkpt lat="55.258223" lon="8.666779">
|
|
<ele>-29.687696</ele>
|
|
<time>2026-07-10T14:29:36.000Z</time>
|
|
</trkpt>
|
|
<trkpt lat="55.258273" lon="8.666753">
|
|
<ele>-29.687921</ele>
|
|
<time>2026-07-10T14:29:37.000Z</time>
|
|
</trkpt>
|
|
<trkpt lat="55.258323" lon="8.666725">
|
|
<ele>-29.688148</ele>
|
|
<time>2026-07-10T14:29:38.000Z</time>
|
|
</trkpt>
|
|
<trkpt lat="55.258374" lon="8.666693">
|
|
<ele>-29.688382</ele>
|
|
<time>2026-07-10T14:29:39.000Z</time>
|
|
</trkpt>
|
|
<trkpt lat="55.258424" lon="8.666659">
|
|
<ele>-29.688614</ele>
|
|
<time>2026-07-10T14:29:40.000Z</time>
|
|
</trkpt>
|
|
<trkpt lat="55.258471" lon="8.666626">
|
|
<ele>-29.688833</ele>
|
|
<time>2026-07-10T14:29:41.000Z</time>
|
|
</trkpt>
|
|
<trkpt lat="55.258522" lon="8.666595">
|
|
<ele>-29.689066</ele>
|
|
<time>2026-07-10T14:29:42.000Z</time>
|
|
</trkpt>
|
|
<trkpt lat="55.258574" lon="8.666565">
|
|
<ele>-29.689302</ele>
|
|
<time>2026-07-10T14:29:43.000Z</time>
|
|
</trkpt>
|
|
<trkpt lat="55.258624" lon="8.666534">
|
|
<ele>-29.689532</ele>
|
|
<time>2026-07-10T14:29:44.000Z</time>
|
|
</trkpt>
|
|
<trkpt lat="55.258673" lon="8.666503">
|
|
<ele>-29.689757</ele>
|
|
<time>2026-07-10T14:29:45.000Z</time>
|
|
</trkpt>
|
|
<trkpt lat="55.258719" lon="8.666475">
|
|
<ele>-29.689967</ele>
|
|
<time>2026-07-10T14:29:46.000Z</time>
|
|
</trkpt>
|
|
<trkpt lat="55.258769" lon="8.666448">
|
|
<ele>-29.690193</ele>
|
|
<time>2026-07-10T14:29:47.000Z</time>
|
|
</trkpt>
|
|
<trkpt lat="55.258818" lon="8.666420">
|
|
<ele>-29.690416</ele>
|
|
<time>2026-07-10T14:29:48.000Z</time>
|
|
</trkpt>
|
|
<trkpt lat="55.258868" lon="8.666390">
|
|
<ele>-29.688832</ele>
|
|
<time>2026-07-10T14:29:49.000Z</time>
|
|
</trkpt>
|
|
<trkpt lat="55.258917" lon="8.666361">
|
|
<ele>-29.684709</ele>
|
|
<time>2026-07-10T14:29:50.000Z</time>
|
|
</trkpt>
|
|
<trkpt lat="55.258967" lon="8.666333">
|
|
<ele>-29.680526</ele>
|
|
<time>2026-07-10T14:29:51.000Z</time>
|
|
</trkpt>
|
|
<trkpt lat="55.259020" lon="8.666305">
|
|
<ele>-29.676113</ele>
|
|
<time>2026-07-10T14:29:52.000Z</time>
|
|
</trkpt>
|
|
<trkpt lat="55.259066" lon="8.666277">
|
|
<ele>-29.672232</ele>
|
|
<time>2026-07-10T14:29:53.000Z</time>
|
|
</trkpt>
|
|
<trkpt lat="55.259116" lon="8.666249">
|
|
<ele>-29.668048</ele>
|
|
<time>2026-07-10T14:29:54.000Z</time>
|
|
</trkpt>
|
|
<trkpt lat="55.259165" lon="8.666220">
|
|
<ele>-29.663926</ele>
|
|
<time>2026-07-10T14:29:55.000Z</time>
|
|
</trkpt>
|
|
<trkpt lat="55.259215" lon="8.666189">
|
|
<ele>-29.659698</ele>
|
|
<time>2026-07-10T14:29:56.000Z</time>
|
|
</trkpt>
|
|
<trkpt lat="55.259265" lon="8.666161">
|
|
<ele>-29.655514</ele>
|
|
<time>2026-07-10T14:29:57.000Z</time>
|
|
</trkpt>
|
|
<trkpt lat="55.259313" lon="8.666134">
|
|
<ele>-29.651496</ele>
|
|
<time>2026-07-10T14:29:58.000Z</time>
|
|
</trkpt>
|
|
<trkpt lat="55.259360" lon="8.666104">
|
|
<ele>-29.647509</ele>
|
|
<time>2026-07-10T14:29:59.000Z</time>
|
|
</trkpt>
|
|
<trkpt lat="55.259410" lon="8.666073">
|
|
<ele>-29.643282</ele>
|
|
<time>2026-07-10T14:30:00.000Z</time>
|
|
</trkpt>
|
|
<trkpt lat="55.259460" lon="8.666044">
|
|
<ele>-29.639084</ele>
|
|
<time>2026-07-10T14:30:01.000Z</time>
|
|
</trkpt>
|
|
<trkpt lat="55.259508" lon="8.666015">
|
|
<ele>-29.635037</ele>
|
|
<time>2026-07-10T14:30:02.000Z</time>
|
|
</trkpt>
|
|
<trkpt lat="55.259555" lon="8.665984">
|
|
<ele>-29.631034</ele>
|
|
<time>2026-07-10T14:30:03.000Z</time>
|
|
</trkpt>
|
|
<trkpt lat="55.259604" lon="8.665952">
|
|
<ele>-29.626867</ele>
|
|
<time>2026-07-10T14:30:04.000Z</time>
|
|
</trkpt>
|
|
<trkpt lat="55.259653" lon="8.665922">
|
|
<ele>-29.622730</ele>
|
|
<time>2026-07-10T14:30:05.000Z</time>
|
|
</trkpt>
|
|
<trkpt lat="55.259704" lon="8.665893">
|
|
<ele>-29.618456</ele>
|
|
<time>2026-07-10T14:30:06.000Z</time>
|
|
</trkpt>
|
|
<trkpt lat="55.259756" lon="8.665866">
|
|
<ele>-29.614133</ele>
|
|
<time>2026-07-10T14:30:07.000Z</time>
|
|
</trkpt>
|
|
<trkpt lat="55.259806" lon="8.665838">
|
|
<ele>-29.609949</ele>
|
|
<time>2026-07-10T14:30:08.000Z</time>
|
|
</trkpt>
|
|
<trkpt lat="55.259856" lon="8.665810">
|
|
<ele>-29.605765</ele>
|
|
<time>2026-07-10T14:30:09.000Z</time>
|
|
</trkpt>
|
|
<trkpt lat="55.259906" lon="8.665779">
|
|
<ele>-29.601538</ele>
|
|
<time>2026-07-10T14:30:10.000Z</time>
|
|
</trkpt>
|
|
<trkpt lat="55.259955" lon="8.665748">
|
|
<ele>-29.597385</ele>
|
|
<time>2026-07-10T14:30:11.000Z</time>
|
|
</trkpt>
|
|
<trkpt lat="55.260005" lon="8.665718">
|
|
<ele>-29.593173</ele>
|
|
<time>2026-07-10T14:30:12.000Z</time>
|
|
</trkpt>
|
|
<trkpt lat="55.260055" lon="8.665690">
|
|
<ele>-29.588989</ele>
|
|
<time>2026-07-10T14:30:13.000Z</time>
|
|
</trkpt>
|
|
<trkpt lat="55.260105" lon="8.665664">
|
|
<ele>-29.584832</ele>
|
|
<time>2026-07-10T14:30:14.000Z</time>
|
|
</trkpt>
|
|
<trkpt lat="55.260157" lon="8.665637">
|
|
<ele>-29.580509</ele>
|
|
<time>2026-07-10T14:30:15.000Z</time>
|
|
</trkpt>
|
|
<trkpt lat="55.260205" lon="8.665612">
|
|
<ele>-29.576518</ele>
|
|
<time>2026-07-10T14:30:16.000Z</time>
|
|
</trkpt>
|
|
<trkpt lat="55.260258" lon="8.665584">
|
|
<ele>-29.572105</ele>
|
|
<time>2026-07-10T14:30:17.000Z</time>
|
|
</trkpt>
|
|
<trkpt lat="55.260310" lon="8.665557">
|
|
<ele>-29.567782</ele>
|
|
<time>2026-07-10T14:30:18.000Z</time>
|
|
</trkpt>
|
|
<trkpt lat="55.260359" lon="8.665529">
|
|
<ele>-29.563674</ele>
|
|
<time>2026-07-10T14:30:19.000Z</time>
|
|
</trkpt>
|
|
<trkpt lat="55.260410" lon="8.665499">
|
|
<ele>-29.559386</ele>
|
|
<time>2026-07-10T14:30:20.000Z</time>
|
|
</trkpt>
|
|
<trkpt lat="55.260463" lon="8.665472">
|
|
<ele>-29.554987</ele>
|
|
<time>2026-07-10T14:30:21.000Z</time>
|
|
</trkpt>
|
|
<trkpt lat="55.260512" lon="8.665445">
|
|
<ele>-29.550893</ele>
|
|
<time>2026-07-10T14:30:22.000Z</time>
|
|
</trkpt>
|
|
<trkpt lat="55.260561" lon="8.665419">
|
|
<ele>-29.547175</ele>
|
|
<time>2026-07-10T14:30:23.000Z</time>
|
|
</trkpt>
|
|
<trkpt lat="55.260615" lon="8.665392">
|
|
<ele>-29.547257</ele>
|
|
<time>2026-07-10T14:30:24.000Z</time>
|
|
</trkpt>
|
|
<trkpt lat="55.260665" lon="8.665364">
|
|
<ele>-29.547334</ele>
|
|
<time>2026-07-10T14:30:25.000Z</time>
|
|
</trkpt>
|
|
<trkpt lat="55.260715" lon="8.665335">
|
|
<ele>-29.547412</ele>
|
|
<time>2026-07-10T14:30:26.000Z</time>
|
|
</trkpt>
|
|
<trkpt lat="55.260768" lon="8.665306">
|
|
<ele>-29.547493</ele>
|
|
<time>2026-07-10T14:30:27.000Z</time>
|
|
</trkpt>
|
|
<trkpt lat="55.260817" lon="8.665277">
|
|
<ele>-29.547569</ele>
|
|
<time>2026-07-10T14:30:28.000Z</time>
|
|
</trkpt>
|
|
<trkpt lat="55.260867" lon="8.665249">
|
|
<ele>-29.547646</ele>
|
|
<time>2026-07-10T14:30:29.000Z</time>
|
|
</trkpt>
|
|
<trkpt lat="55.260918" lon="8.665222">
|
|
<ele>-29.547725</ele>
|
|
<time>2026-07-10T14:30:30.000Z</time>
|
|
</trkpt>
|
|
<trkpt lat="55.260970" lon="8.665193">
|
|
<ele>-29.547805</ele>
|
|
<time>2026-07-10T14:30:31.000Z</time>
|
|
</trkpt>
|
|
<trkpt lat="55.261021" lon="8.665163">
|
|
<ele>-29.547884</ele>
|
|
<time>2026-07-10T14:30:32.000Z</time>
|
|
</trkpt>
|
|
<trkpt lat="55.261073" lon="8.665135">
|
|
<ele>-29.547964</ele>
|
|
<time>2026-07-10T14:30:33.000Z</time>
|
|
</trkpt>
|
|
<trkpt lat="55.261124" lon="8.665108">
|
|
<ele>-29.548042</ele>
|
|
<time>2026-07-10T14:30:34.000Z</time>
|
|
</trkpt>
|
|
<trkpt lat="55.261176" lon="8.665081">
|
|
<ele>-29.548122</ele>
|
|
<time>2026-07-10T14:30:35.000Z</time>
|
|
</trkpt>
|
|
<trkpt lat="55.261227" lon="8.665056">
|
|
<ele>-29.548200</ele>
|
|
<time>2026-07-10T14:30:36.000Z</time>
|
|
</trkpt>
|
|
<trkpt lat="55.261279" lon="8.665034">
|
|
<ele>-29.548278</ele>
|
|
<time>2026-07-10T14:30:37.000Z</time>
|
|
</trkpt>
|
|
<trkpt lat="55.261329" lon="8.665016">
|
|
<ele>-29.548353</ele>
|
|
<time>2026-07-10T14:30:38.000Z</time>
|
|
</trkpt>
|
|
<trkpt lat="55.261382" lon="8.665000">
|
|
<ele>-29.548432</ele>
|
|
<time>2026-07-10T14:30:39.000Z</time>
|
|
</trkpt>
|
|
<trkpt lat="55.261432" lon="8.664987">
|
|
<ele>-29.548507</ele>
|
|
<time>2026-07-10T14:30:40.000Z</time>
|
|
</trkpt>
|
|
<trkpt lat="55.261484" lon="8.664975">
|
|
<ele>-29.548584</ele>
|
|
<time>2026-07-10T14:30:41.000Z</time>
|
|
</trkpt>
|
|
<trkpt lat="55.261533" lon="8.664966">
|
|
<ele>-29.548656</ele>
|
|
<time>2026-07-10T14:30:42.000Z</time>
|
|
</trkpt>
|
|
<trkpt lat="55.261585" lon="8.664958">
|
|
<ele>-29.548733</ele>
|
|
<time>2026-07-10T14:30:43.000Z</time>
|
|
</trkpt>
|
|
<trkpt lat="55.261638" lon="8.664952">
|
|
<ele>-29.548811</ele>
|
|
<time>2026-07-10T14:30:44.000Z</time>
|
|
</trkpt>
|
|
<trkpt lat="55.261691" lon="8.664950">
|
|
<ele>-29.548889</ele>
|
|
<time>2026-07-10T14:30:45.000Z</time>
|
|
</trkpt>
|
|
<trkpt lat="55.261742" lon="8.664952">
|
|
<ele>-29.548964</ele>
|
|
<time>2026-07-10T14:30:46.000Z</time>
|
|
</trkpt>
|
|
<trkpt lat="55.261795" lon="8.664957">
|
|
<ele>-29.549042</ele>
|
|
<time>2026-07-10T14:30:47.000Z</time>
|
|
</trkpt>
|
|
<trkpt lat="55.261848" lon="8.664963">
|
|
<ele>-29.549120</ele>
|
|
<time>2026-07-10T14:30:48.000Z</time>
|
|
</trkpt>
|
|
<trkpt lat="55.261903" lon="8.664967">
|
|
<ele>-29.549201</ele>
|
|
<time>2026-07-10T14:30:49.000Z</time>
|
|
</trkpt>
|
|
<trkpt lat="55.261959" lon="8.664970">
|
|
<ele>-29.549283</ele>
|
|
<time>2026-07-10T14:30:50.000Z</time>
|
|
</trkpt>
|
|
<trkpt lat="55.262011" lon="8.664978">
|
|
<ele>-29.549360</ele>
|
|
<time>2026-07-10T14:30:51.000Z</time>
|
|
</trkpt>
|
|
<trkpt lat="55.262063" lon="8.664985">
|
|
<ele>-29.549437</ele>
|
|
<time>2026-07-10T14:30:52.000Z</time>
|
|
</trkpt>
|
|
<trkpt lat="55.262119" lon="8.664990">
|
|
<ele>-29.549519</ele>
|
|
<time>2026-07-10T14:30:53.000Z</time>
|
|
</trkpt>
|
|
<trkpt lat="55.262171" lon="8.664994">
|
|
<ele>-29.549596</ele>
|
|
<time>2026-07-10T14:30:54.000Z</time>
|
|
</trkpt>
|
|
<trkpt lat="55.262227" lon="8.664999">
|
|
<ele>-29.549678</ele>
|
|
<time>2026-07-10T14:30:55.000Z</time>
|
|
</trkpt>
|
|
<trkpt lat="55.262282" lon="8.665004">
|
|
<ele>-29.549759</ele>
|
|
<time>2026-07-10T14:30:56.000Z</time>
|
|
</trkpt>
|
|
<trkpt lat="55.262333" lon="8.665011">
|
|
<ele>-29.552406</ele>
|
|
<time>2026-07-10T14:30:57.000Z</time>
|
|
</trkpt>
|
|
<trkpt lat="55.262385" lon="8.665019">
|
|
<ele>-29.561294</ele>
|
|
<time>2026-07-10T14:30:58.000Z</time>
|
|
</trkpt>
|
|
<trkpt lat="55.262436" lon="8.665025">
|
|
<ele>-29.569997</ele>
|
|
<time>2026-07-10T14:30:59.000Z</time>
|
|
</trkpt>
|
|
<trkpt lat="55.262488" lon="8.665030">
|
|
<ele>-29.578865</ele>
|
|
<time>2026-07-10T14:31:00.000Z</time>
|
|
</trkpt>
|
|
<trkpt lat="55.262539" lon="8.665035">
|
|
<ele>-29.587562</ele>
|
|
<time>2026-07-10T14:31:01.000Z</time>
|
|
</trkpt>
|
|
<trkpt lat="55.262592" lon="8.665042">
|
|
<ele>-29.596612</ele>
|
|
<time>2026-07-10T14:31:02.000Z</time>
|
|
</trkpt>
|
|
<trkpt lat="55.262646" lon="8.665050">
|
|
<ele>-29.605839</ele>
|
|
<time>2026-07-10T14:31:03.000Z</time>
|
|
</trkpt>
|
|
<trkpt lat="55.262699" lon="8.665056">
|
|
<ele>-29.614882</ele>
|
|
<time>2026-07-10T14:31:04.000Z</time>
|
|
</trkpt>
|
|
<trkpt lat="55.262752" lon="8.665064">
|
|
<ele>-29.623940</ele>
|
|
<time>2026-07-10T14:31:05.000Z</time>
|
|
</trkpt>
|
|
<trkpt lat="55.262805" lon="8.665071">
|
|
<ele>-29.632990</ele>
|
|
<time>2026-07-10T14:31:06.000Z</time>
|
|
</trkpt>
|
|
<trkpt lat="55.262859" lon="8.665078">
|
|
<ele>-29.642210</ele>
|
|
<time>2026-07-10T14:31:07.000Z</time>
|
|
</trkpt>
|
|
<trkpt lat="55.262911" lon="8.665085">
|
|
<ele>-29.651090</ele>
|
|
<time>2026-07-10T14:31:08.000Z</time>
|
|
</trkpt>
|
|
<trkpt lat="55.262962" lon="8.665091">
|
|
<ele>-29.659793</ele>
|
|
<time>2026-07-10T14:31:09.000Z</time>
|
|
</trkpt>
|
|
<trkpt lat="55.263016" lon="8.665096">
|
|
<ele>-29.669001</ele>
|
|
<time>2026-07-10T14:31:10.000Z</time>
|
|
</trkpt>
|
|
<trkpt lat="55.263068" lon="8.665099">
|
|
<ele>-29.677860</ele>
|
|
<time>2026-07-10T14:31:11.000Z</time>
|
|
</trkpt>
|
|
<trkpt lat="55.263118" lon="8.665101">
|
|
<ele>-29.686375</ele>
|
|
<time>2026-07-10T14:31:12.000Z</time>
|
|
</trkpt>
|
|
<trkpt lat="55.263169" lon="8.665107">
|
|
<ele>-29.695079</ele>
|
|
<time>2026-07-10T14:31:13.000Z</time>
|
|
</trkpt>
|
|
<trkpt lat="55.263222" lon="8.665115">
|
|
<ele>-29.704136</ele>
|
|
<time>2026-07-10T14:31:14.000Z</time>
|
|
</trkpt>
|
|
<trkpt lat="55.263275" lon="8.665121">
|
|
<ele>-29.713179</ele>
|
|
<time>2026-07-10T14:31:15.000Z</time>
|
|
</trkpt>
|
|
<trkpt lat="55.263327" lon="8.665122">
|
|
<ele>-29.722034</ele>
|
|
<time>2026-07-10T14:31:16.000Z</time>
|
|
</trkpt>
|
|
<trkpt lat="55.263381" lon="8.665121">
|
|
<ele>-29.731229</ele>
|
|
<time>2026-07-10T14:31:17.000Z</time>
|
|
</trkpt>
|
|
<trkpt lat="55.263439" lon="8.665115">
|
|
<ele>-29.741122</ele>
|
|
<time>2026-07-10T14:31:18.000Z</time>
|
|
</trkpt>
|
|
<trkpt lat="55.263491" lon="8.665109">
|
|
<ele>-29.749995</ele>
|
|
<time>2026-07-10T14:31:19.000Z</time>
|
|
</trkpt>
|
|
<trkpt lat="55.263542" lon="8.665100">
|
|
<ele>-29.758723</ele>
|
|
<time>2026-07-10T14:31:20.000Z</time>
|
|
</trkpt>
|
|
<trkpt lat="55.263595" lon="8.665090">
|
|
<ele>-29.767799</ele>
|
|
<time>2026-07-10T14:31:21.000Z</time>
|
|
</trkpt>
|
|
<trkpt lat="55.263646" lon="8.665079">
|
|
<ele>-29.776549</ele>
|
|
<time>2026-07-10T14:31:22.000Z</time>
|
|
</trkpt>
|
|
<trkpt lat="55.263698" lon="8.665064">
|
|
<ele>-29.785521</ele>
|
|
<time>2026-07-10T14:31:23.000Z</time>
|
|
</trkpt>
|
|
<trkpt lat="55.263751" lon="8.665045">
|
|
<ele>-29.794732</ele>
|
|
<time>2026-07-10T14:31:24.000Z</time>
|
|
</trkpt>
|
|
<trkpt lat="55.263805" lon="8.665021">
|
|
<ele>-29.804217</ele>
|
|
<time>2026-07-10T14:31:25.000Z</time>
|
|
</trkpt>
|
|
<trkpt lat="55.263859" lon="8.664997">
|
|
<ele>-29.813702</ele>
|
|
<time>2026-07-10T14:31:26.000Z</time>
|
|
</trkpt>
|
|
<trkpt lat="55.263912" lon="8.664974">
|
|
<ele>-29.822998</ele>
|
|
<time>2026-07-10T14:31:27.000Z</time>
|
|
</trkpt>
|
|
<trkpt lat="55.263967" lon="8.664954">
|
|
<ele>-29.832562</ele>
|
|
<time>2026-07-10T14:31:28.000Z</time>
|
|
</trkpt>
|
|
<trkpt lat="55.264023" lon="8.664932">
|
|
<ele>-29.842333</ele>
|
|
<time>2026-07-10T14:31:29.000Z</time>
|
|
</trkpt>
|
|
<trkpt lat="55.264077" lon="8.664911">
|
|
<ele>-29.851751</ele>
|
|
<time>2026-07-10T14:31:30.000Z</time>
|
|
</trkpt>
|
|
<trkpt lat="55.264133" lon="8.664889">
|
|
<ele>-29.860019</ele>
|
|
<time>2026-07-10T14:31:31.000Z</time>
|
|
</trkpt>
|
|
<trkpt lat="55.264186" lon="8.664867">
|
|
<ele>-29.866737</ele>
|
|
<time>2026-07-10T14:31:32.000Z</time>
|
|
</trkpt>
|
|
<trkpt lat="55.264240" lon="8.664844">
|
|
<ele>-29.873592</ele>
|
|
<time>2026-07-10T14:31:33.000Z</time>
|
|
</trkpt>
|
|
<trkpt lat="55.264294" lon="8.664820">
|
|
<ele>-29.880463</ele>
|
|
<time>2026-07-10T14:31:34.000Z</time>
|
|
</trkpt>
|
|
<trkpt lat="55.264347" lon="8.664797">
|
|
<ele>-29.887197</ele>
|
|
<time>2026-07-10T14:31:35.000Z</time>
|
|
</trkpt>
|
|
<trkpt lat="55.264401" lon="8.664772">
|
|
<ele>-29.894086</ele>
|
|
<time>2026-07-10T14:31:36.000Z</time>
|
|
</trkpt>
|
|
<trkpt lat="55.264455" lon="8.664747">
|
|
<ele>-29.900975</ele>
|
|
<time>2026-07-10T14:31:37.000Z</time>
|
|
</trkpt>
|
|
<trkpt lat="55.264511" lon="8.664721">
|
|
<ele>-29.908120</ele>
|
|
<time>2026-07-10T14:31:38.000Z</time>
|
|
</trkpt>
|
|
<trkpt lat="55.264564" lon="8.664695">
|
|
<ele>-29.914909</ele>
|
|
<time>2026-07-10T14:31:39.000Z</time>
|
|
</trkpt>
|
|
<trkpt lat="55.264618" lon="8.664672">
|
|
<ele>-29.921763</ele>
|
|
<time>2026-07-10T14:31:40.000Z</time>
|
|
</trkpt>
|
|
<trkpt lat="55.264672" lon="8.664651">
|
|
<ele>-29.928585</ele>
|
|
<time>2026-07-10T14:31:41.000Z</time>
|
|
</trkpt>
|
|
<trkpt lat="55.264727" lon="8.664631">
|
|
<ele>-29.935514</ele>
|
|
<time>2026-07-10T14:31:42.000Z</time>
|
|
</trkpt>
|
|
<trkpt lat="55.264782" lon="8.664608">
|
|
<ele>-29.942488</ele>
|
|
<time>2026-07-10T14:31:43.000Z</time>
|
|
</trkpt>
|
|
<trkpt lat="55.264835" lon="8.664582">
|
|
<ele>-29.949276</ele>
|
|
<time>2026-07-10T14:31:44.000Z</time>
|
|
</trkpt>
|
|
<trkpt lat="55.264889" lon="8.664557">
|
|
<ele>-29.956165</ele>
|
|
<time>2026-07-10T14:31:45.000Z</time>
|
|
</trkpt>
|
|
<trkpt lat="55.264942" lon="8.664534">
|
|
<ele>-29.962899</ele>
|
|
<time>2026-07-10T14:31:46.000Z</time>
|
|
</trkpt>
|
|
<trkpt lat="55.264997" lon="8.664511">
|
|
<ele>-29.969874</ele>
|
|
<time>2026-07-10T14:31:47.000Z</time>
|
|
</trkpt>
|
|
<trkpt lat="55.265053" lon="8.664485">
|
|
<ele>-29.977019</ele>
|
|
<time>2026-07-10T14:31:48.000Z</time>
|
|
</trkpt>
|
|
<trkpt lat="55.265107" lon="8.664461">
|
|
<ele>-29.983890</ele>
|
|
<time>2026-07-10T14:31:49.000Z</time>
|
|
</trkpt>
|
|
<trkpt lat="55.265163" lon="8.664437">
|
|
<ele>-29.991001</ele>
|
|
<time>2026-07-10T14:31:50.000Z</time>
|
|
</trkpt>
|
|
<trkpt lat="55.265218" lon="8.664413">
|
|
<ele>-29.997992</ele>
|
|
<time>2026-07-10T14:31:51.000Z</time>
|
|
</trkpt>
|
|
<trkpt lat="55.265274" lon="8.664390">
|
|
<ele>-30.005086</ele>
|
|
<time>2026-07-10T14:31:52.000Z</time>
|
|
</trkpt>
|
|
<trkpt lat="55.265329" lon="8.664366">
|
|
<ele>-30.012077</ele>
|
|
<time>2026-07-10T14:31:53.000Z</time>
|
|
</trkpt>
|
|
<trkpt lat="55.265385" lon="8.664343">
|
|
<ele>-30.019171</ele>
|
|
<time>2026-07-10T14:31:54.000Z</time>
|
|
</trkpt>
|
|
<trkpt lat="55.265442" lon="8.664320">
|
|
<ele>-30.026386</ele>
|
|
<time>2026-07-10T14:31:55.000Z</time>
|
|
</trkpt>
|
|
<trkpt lat="55.265500" lon="8.664292">
|
|
<ele>-30.033806</ele>
|
|
<time>2026-07-10T14:31:56.000Z</time>
|
|
</trkpt>
|
|
<trkpt lat="55.265556" lon="8.664262">
|
|
<ele>-30.041028</ele>
|
|
<time>2026-07-10T14:31:57.000Z</time>
|
|
</trkpt>
|
|
<trkpt lat="55.265610" lon="8.664231">
|
|
<ele>-30.048036</ele>
|
|
<time>2026-07-10T14:31:58.000Z</time>
|
|
</trkpt>
|
|
<trkpt lat="55.265663" lon="8.664202">
|
|
<ele>-30.054884</ele>
|
|
<time>2026-07-10T14:31:59.000Z</time>
|
|
</trkpt>
|
|
<trkpt lat="55.265716" lon="8.664173">
|
|
<ele>-30.061732</ele>
|
|
<time>2026-07-10T14:32:00.000Z</time>
|
|
</trkpt>
|
|
<trkpt lat="55.265769" lon="8.664142">
|
|
<ele>-30.068623</ele>
|
|
<time>2026-07-10T14:32:01.000Z</time>
|
|
</trkpt>
|
|
<trkpt lat="55.265820" lon="8.664110">
|
|
<ele>-30.075304</ele>
|
|
<time>2026-07-10T14:32:02.000Z</time>
|
|
</trkpt>
|
|
<trkpt lat="55.265871" lon="8.664077">
|
|
<ele>-30.068218</ele>
|
|
<time>2026-07-10T14:32:03.000Z</time>
|
|
</trkpt>
|
|
<trkpt lat="55.265917" lon="8.664043">
|
|
<ele>-30.053540</ele>
|
|
<time>2026-07-10T14:32:04.000Z</time>
|
|
</trkpt>
|
|
<trkpt lat="55.265962" lon="8.664006">
|
|
<ele>-30.038926</ele>
|
|
<time>2026-07-10T14:32:05.000Z</time>
|
|
</trkpt>
|
|
<trkpt lat="55.266004" lon="8.663968">
|
|
<ele>-30.025030</ele>
|
|
<time>2026-07-10T14:32:06.000Z</time>
|
|
</trkpt>
|
|
<trkpt lat="55.266044" lon="8.663921">
|
|
<ele>-30.010874</ele>
|
|
<time>2026-07-10T14:32:07.000Z</time>
|
|
</trkpt>
|
|
<trkpt lat="55.266083" lon="8.663872">
|
|
<ele>-29.996769</ele>
|
|
<time>2026-07-10T14:32:08.000Z</time>
|
|
</trkpt>
|
|
<trkpt lat="55.266123" lon="8.663821">
|
|
<ele>-29.982230</ele>
|
|
<time>2026-07-10T14:32:09.000Z</time>
|
|
</trkpt>
|
|
<trkpt lat="55.266161" lon="8.663769">
|
|
<ele>-29.968059</ele>
|
|
<time>2026-07-10T14:32:10.000Z</time>
|
|
</trkpt>
|
|
<trkpt lat="55.266204" lon="8.663711">
|
|
<ele>-29.952111</ele>
|
|
<time>2026-07-10T14:32:11.000Z</time>
|
|
</trkpt>
|
|
<trkpt lat="55.266242" lon="8.663652">
|
|
<ele>-29.937191</ele>
|
|
<time>2026-07-10T14:32:12.000Z</time>
|
|
</trkpt>
|
|
<trkpt lat="55.266279" lon="8.663593">
|
|
<ele>-29.922489</ele>
|
|
<time>2026-07-10T14:32:13.000Z</time>
|
|
</trkpt>
|
|
<trkpt lat="55.266314" lon="8.663531">
|
|
<ele>-29.907865</ele>
|
|
<time>2026-07-10T14:32:14.000Z</time>
|
|
</trkpt>
|
|
<trkpt lat="55.266348" lon="8.663470">
|
|
<ele>-29.893567</ele>
|
|
<time>2026-07-10T14:32:15.000Z</time>
|
|
</trkpt>
|
|
<trkpt lat="55.266382" lon="8.663412">
|
|
<ele>-29.879624</ele>
|
|
<time>2026-07-10T14:32:16.000Z</time>
|
|
</trkpt>
|
|
<trkpt lat="55.266416" lon="8.663351">
|
|
<ele>-29.865325</ele>
|
|
<time>2026-07-10T14:32:17.000Z</time>
|
|
</trkpt>
|
|
<trkpt lat="55.266450" lon="8.663288">
|
|
<ele>-29.850786</ele>
|
|
<time>2026-07-10T14:32:18.000Z</time>
|
|
</trkpt>
|
|
<trkpt lat="55.266481" lon="8.663223">
|
|
<ele>-29.836583</ele>
|
|
<time>2026-07-10T14:32:19.000Z</time>
|
|
</trkpt>
|
|
<trkpt lat="55.266512" lon="8.663160">
|
|
<ele>-29.822635</ele>
|
|
<time>2026-07-10T14:32:20.000Z</time>
|
|
</trkpt>
|
|
<trkpt lat="55.266545" lon="8.663096">
|
|
<ele>-29.808172</ele>
|
|
<time>2026-07-10T14:32:21.000Z</time>
|
|
</trkpt>
|
|
<trkpt lat="55.266576" lon="8.663032">
|
|
<ele>-29.794097</ele>
|
|
<time>2026-07-10T14:32:22.000Z</time>
|
|
</trkpt>
|
|
<trkpt lat="55.266605" lon="8.662969">
|
|
<ele>-29.780527</ele>
|
|
<time>2026-07-10T14:32:23.000Z</time>
|
|
</trkpt>
|
|
<trkpt lat="55.266633" lon="8.662905">
|
|
<ele>-29.767006</ele>
|
|
<time>2026-07-10T14:32:24.000Z</time>
|
|
</trkpt>
|
|
<trkpt lat="55.266665" lon="8.662845">
|
|
<ele>-29.753236</ele>
|
|
<time>2026-07-10T14:32:25.000Z</time>
|
|
</trkpt>
|
|
<trkpt lat="55.266699" lon="8.662785">
|
|
<ele>-29.739057</ele>
|
|
<time>2026-07-10T14:32:26.000Z</time>
|
|
</trkpt>
|
|
<trkpt lat="55.266733" lon="8.662725">
|
|
<ele>-29.724878</ele>
|
|
<time>2026-07-10T14:32:27.000Z</time>
|
|
</trkpt>
|
|
<trkpt lat="55.266769" lon="8.662665">
|
|
<ele>-29.710278</ele>
|
|
<time>2026-07-10T14:32:28.000Z</time>
|
|
</trkpt>
|
|
<trkpt lat="55.266806" lon="8.662607">
|
|
<ele>-29.695689</ele>
|
|
<time>2026-07-10T14:32:29.000Z</time>
|
|
</trkpt>
|
|
<trkpt lat="55.266842" lon="8.662552">
|
|
<ele>-29.681653</ele>
|
|
<time>2026-07-10T14:32:30.000Z</time>
|
|
</trkpt>
|
|
<trkpt lat="55.266884" lon="8.662501">
|
|
<ele>-29.666634</ele>
|
|
<time>2026-07-10T14:32:31.000Z</time>
|
|
</trkpt>
|
|
<trkpt lat="55.266926" lon="8.662453">
|
|
<ele>-29.651895</ele>
|
|
<time>2026-07-10T14:32:32.000Z</time>
|
|
</trkpt>
|
|
<trkpt lat="55.266968" lon="8.662404">
|
|
<ele>-29.637064</ele>
|
|
<time>2026-07-10T14:32:33.000Z</time>
|
|
</trkpt>
|
|
<trkpt lat="55.267011" lon="8.662359">
|
|
<ele>-29.622341</ele>
|
|
<time>2026-07-10T14:32:34.000Z</time>
|
|
</trkpt>
|
|
<trkpt lat="55.267057" lon="8.662318">
|
|
<ele>-29.607169</ele>
|
|
<time>2026-07-10T14:32:35.000Z</time>
|
|
</trkpt>
|
|
<trkpt lat="55.267103" lon="8.662277">
|
|
<ele>-29.591997</ele>
|
|
<time>2026-07-10T14:32:36.000Z</time>
|
|
</trkpt>
|
|
<trkpt lat="55.267150" lon="8.662240">
|
|
<ele>-29.576849</ele>
|
|
<time>2026-07-10T14:32:37.000Z</time>
|
|
</trkpt>
|
|
<trkpt lat="55.267198" lon="8.662207">
|
|
<ele>-29.561689</ele>
|
|
<time>2026-07-10T14:32:38.000Z</time>
|
|
</trkpt>
|
|
<trkpt lat="55.267245" lon="8.662176">
|
|
<ele>-29.548915</ele>
|
|
<time>2026-07-10T14:32:39.000Z</time>
|
|
</trkpt>
|
|
<trkpt lat="55.267295" lon="8.662147">
|
|
<ele>-29.548364</ele>
|
|
<time>2026-07-10T14:32:40.000Z</time>
|
|
</trkpt>
|
|
<trkpt lat="55.267345" lon="8.662121">
|
|
<ele>-29.547819</ele>
|
|
<time>2026-07-10T14:32:41.000Z</time>
|
|
</trkpt>
|
|
<trkpt lat="55.267393" lon="8.662098">
|
|
<ele>-29.547298</ele>
|
|
<time>2026-07-10T14:32:42.000Z</time>
|
|
</trkpt>
|
|
<trkpt lat="55.267439" lon="8.662081">
|
|
<ele>-29.546807</ele>
|
|
<time>2026-07-10T14:32:43.000Z</time>
|
|
</trkpt>
|
|
<trkpt lat="55.267487" lon="8.662067">
|
|
<ele>-29.546298</ele>
|
|
<time>2026-07-10T14:32:44.000Z</time>
|
|
</trkpt>
|
|
<trkpt lat="55.267538" lon="8.662056">
|
|
<ele>-29.545760</ele>
|
|
<time>2026-07-10T14:32:45.000Z</time>
|
|
</trkpt>
|
|
<trkpt lat="55.267589" lon="8.662050">
|
|
<ele>-29.545226</ele>
|
|
<time>2026-07-10T14:32:46.000Z</time>
|
|
</trkpt>
|
|
<trkpt lat="55.267642" lon="8.662045">
|
|
<ele>-29.544671</ele>
|
|
<time>2026-07-10T14:32:47.000Z</time>
|
|
</trkpt>
|
|
<trkpt lat="55.267692" lon="8.662038">
|
|
<ele>-29.544146</ele>
|
|
<time>2026-07-10T14:32:48.000Z</time>
|
|
</trkpt>
|
|
<trkpt lat="55.267745" lon="8.662030">
|
|
<ele>-29.543590</ele>
|
|
<time>2026-07-10T14:32:49.000Z</time>
|
|
</trkpt>
|
|
<trkpt lat="55.267795" lon="8.662021">
|
|
<ele>-29.543064</ele>
|
|
<time>2026-07-10T14:32:50.000Z</time>
|
|
</trkpt>
|
|
<trkpt lat="55.267848" lon="8.662013">
|
|
<ele>-29.542508</ele>
|
|
<time>2026-07-10T14:32:51.000Z</time>
|
|
</trkpt>
|
|
<trkpt lat="55.267898" lon="8.662007">
|
|
<ele>-29.541983</ele>
|
|
<time>2026-07-10T14:32:52.000Z</time>
|
|
</trkpt>
|
|
<trkpt lat="55.267951" lon="8.662002">
|
|
<ele>-29.541428</ele>
|
|
<time>2026-07-10T14:32:53.000Z</time>
|
|
</trkpt>
|
|
<trkpt lat="55.267999" lon="8.661998">
|
|
<ele>-29.540926</ele>
|
|
<time>2026-07-10T14:32:54.000Z</time>
|
|
</trkpt>
|
|
<trkpt lat="55.268046" lon="8.661993">
|
|
<ele>-29.540433</ele>
|
|
<time>2026-07-10T14:32:55.000Z</time>
|
|
</trkpt>
|
|
<trkpt lat="55.268095" lon="8.661984">
|
|
<ele>-29.539918</ele>
|
|
<time>2026-07-10T14:32:56.000Z</time>
|
|
</trkpt>
|
|
<trkpt lat="55.268142" lon="8.661977">
|
|
<ele>-29.539425</ele>
|
|
<time>2026-07-10T14:32:57.000Z</time>
|
|
</trkpt>
|
|
<trkpt lat="55.268191" lon="8.661970">
|
|
<ele>-29.538911</ele>
|
|
<time>2026-07-10T14:32:58.000Z</time>
|
|
</trkpt>
|
|
<trkpt lat="55.268240" lon="8.661961">
|
|
<ele>-29.538395</ele>
|
|
<time>2026-07-10T14:32:59.000Z</time>
|
|
</trkpt>
|
|
<trkpt lat="55.268286" lon="8.661951">
|
|
<ele>-29.537910</ele>
|
|
<time>2026-07-10T14:33:00.000Z</time>
|
|
</trkpt>
|
|
<trkpt lat="55.268332" lon="8.661938">
|
|
<ele>-29.537423</ele>
|
|
<time>2026-07-10T14:33:01.000Z</time>
|
|
</trkpt>
|
|
<trkpt lat="55.268382" lon="8.661928">
|
|
<ele>-29.536897</ele>
|
|
<time>2026-07-10T14:33:02.000Z</time>
|
|
</trkpt>
|
|
<trkpt lat="55.268431" lon="8.661922">
|
|
<ele>-29.536383</ele>
|
|
<time>2026-07-10T14:33:03.000Z</time>
|
|
</trkpt>
|
|
<trkpt lat="55.268481" lon="8.661917">
|
|
<ele>-29.535859</ele>
|
|
<time>2026-07-10T14:33:04.000Z</time>
|
|
</trkpt>
|
|
<trkpt lat="55.268530" lon="8.661912">
|
|
<ele>-29.535346</ele>
|
|
<time>2026-07-10T14:33:05.000Z</time>
|
|
</trkpt>
|
|
<trkpt lat="55.268580" lon="8.661909">
|
|
<ele>-29.534823</ele>
|
|
<time>2026-07-10T14:33:06.000Z</time>
|
|
</trkpt>
|
|
<trkpt lat="55.268630" lon="8.661904">
|
|
<ele>-29.534299</ele>
|
|
<time>2026-07-10T14:33:07.000Z</time>
|
|
</trkpt>
|
|
<trkpt lat="55.268679" lon="8.661897">
|
|
<ele>-29.533785</ele>
|
|
<time>2026-07-10T14:33:08.000Z</time>
|
|
</trkpt>
|
|
<trkpt lat="55.268730" lon="8.661890">
|
|
<ele>-29.533250</ele>
|
|
<time>2026-07-10T14:33:09.000Z</time>
|
|
</trkpt>
|
|
<trkpt lat="55.268783" lon="8.661886">
|
|
<ele>-29.532695</ele>
|
|
<time>2026-07-10T14:33:10.000Z</time>
|
|
</trkpt>
|
|
<trkpt lat="55.268833" lon="8.661885">
|
|
<ele>-29.532172</ele>
|
|
<time>2026-07-10T14:33:11.000Z</time>
|
|
</trkpt>
|
|
<trkpt lat="55.268886" lon="8.661882">
|
|
<ele>-29.531617</ele>
|
|
<time>2026-07-10T14:33:12.000Z</time>
|
|
</trkpt>
|
|
<trkpt lat="55.268938" lon="8.661876">
|
|
<ele>-29.531072</ele>
|
|
<time>2026-07-10T14:33:13.000Z</time>
|
|
</trkpt>
|
|
<trkpt lat="55.268989" lon="8.661867">
|
|
<ele>-29.530536</ele>
|
|
<time>2026-07-10T14:33:14.000Z</time>
|
|
</trkpt>
|
|
<trkpt lat="55.269041" lon="8.661858">
|
|
<ele>-29.524452</ele>
|
|
<time>2026-07-10T14:33:15.000Z</time>
|
|
</trkpt>
|
|
<trkpt lat="55.269091" lon="8.661850">
|
|
<ele>-29.508375</ele>
|
|
<time>2026-07-10T14:33:16.000Z</time>
|
|
</trkpt>
|
|
<trkpt lat="55.269146" lon="8.661841">
|
|
<ele>-29.490686</ele>
|
|
<time>2026-07-10T14:33:17.000Z</time>
|
|
</trkpt>
|
|
<trkpt lat="55.269200" lon="8.661835">
|
|
<ele>-29.473359</ele>
|
|
<time>2026-07-10T14:33:18.000Z</time>
|
|
</trkpt>
|
|
<trkpt lat="55.269253" lon="8.661830">
|
|
<ele>-29.456362</ele>
|
|
<time>2026-07-10T14:33:19.000Z</time>
|
|
</trkpt>
|
|
<trkpt lat="55.269306" lon="8.661823">
|
|
<ele>-29.439342</ele>
|
|
<time>2026-07-10T14:33:20.000Z</time>
|
|
</trkpt>
|
|
<trkpt lat="55.269360" lon="8.661817">
|
|
<ele>-29.422015</ele>
|
|
<time>2026-07-10T14:33:21.000Z</time>
|
|
</trkpt>
|
|
<trkpt lat="55.269413" lon="8.661809">
|
|
<ele>-29.404980</ele>
|
|
<time>2026-07-10T14:33:22.000Z</time>
|
|
</trkpt>
|
|
<trkpt lat="55.269466" lon="8.661802">
|
|
<ele>-29.387960</ele>
|
|
<time>2026-07-10T14:33:23.000Z</time>
|
|
</trkpt>
|
|
<trkpt lat="55.269514" lon="8.661797">
|
|
<ele>-29.372562</ele>
|
|
<time>2026-07-10T14:33:24.000Z</time>
|
|
</trkpt>
|
|
<trkpt lat="55.269565" lon="8.661793">
|
|
<ele>-29.356214</ele>
|
|
<time>2026-07-10T14:33:25.000Z</time>
|
|
</trkpt>
|
|
<trkpt lat="55.269622" lon="8.661785">
|
|
<ele>-29.337902</ele>
|
|
<time>2026-07-10T14:33:26.000Z</time>
|
|
</trkpt>
|
|
<trkpt lat="55.269676" lon="8.661776">
|
|
<ele>-29.320532</ele>
|
|
<time>2026-07-10T14:33:27.000Z</time>
|
|
</trkpt>
|
|
<trkpt lat="55.269729" lon="8.661768">
|
|
<ele>-29.303497</ele>
|
|
<time>2026-07-10T14:33:28.000Z</time>
|
|
</trkpt>
|
|
<trkpt lat="55.269783" lon="8.661759">
|
|
<ele>-29.286127</ele>
|
|
<time>2026-07-10T14:33:29.000Z</time>
|
|
</trkpt>
|
|
<trkpt lat="55.269835" lon="8.661748">
|
|
<ele>-29.269355</ele>
|
|
<time>2026-07-10T14:33:30.000Z</time>
|
|
</trkpt>
|
|
<trkpt lat="55.269888" lon="8.661735">
|
|
<ele>-29.252218</ele>
|
|
<time>2026-07-10T14:33:31.000Z</time>
|
|
</trkpt>
|
|
<trkpt lat="55.269938" lon="8.661726">
|
|
<ele>-29.236122</ele>
|
|
<time>2026-07-10T14:33:32.000Z</time>
|
|
</trkpt>
|
|
<trkpt lat="55.269991" lon="8.661720">
|
|
<ele>-29.219115</ele>
|
|
<time>2026-07-10T14:33:33.000Z</time>
|
|
</trkpt>
|
|
<trkpt lat="55.270041" lon="8.661714">
|
|
<ele>-29.203066</ele>
|
|
<time>2026-07-10T14:33:34.000Z</time>
|
|
</trkpt>
|
|
<trkpt lat="55.270088" lon="8.661705">
|
|
<ele>-29.187926</ele>
|
|
<time>2026-07-10T14:33:35.000Z</time>
|
|
</trkpt>
|
|
<trkpt lat="55.270129" lon="8.661700">
|
|
<ele>-29.174765</ele>
|
|
<time>2026-07-10T14:33:36.000Z</time>
|
|
</trkpt>
|
|
<trkpt lat="55.270162" lon="8.661700">
|
|
<ele>-29.164197</ele>
|
|
<time>2026-07-10T14:33:37.000Z</time>
|
|
</trkpt>
|
|
<trkpt lat="55.270177" lon="8.661702">
|
|
<ele>-29.159380</ele>
|
|
<time>2026-07-10T14:33:38.000Z</time>
|
|
</trkpt>
|
|
<trkpt lat="55.270288" lon="8.661685">
|
|
<ele>-29.123699</ele>
|
|
<time>2026-07-10T14:35:53.000Z</time>
|
|
</trkpt>
|
|
<trkpt lat="55.270321" lon="8.661677">
|
|
<ele>-29.113031</ele>
|
|
<time>2026-07-10T14:35:54.000Z</time>
|
|
</trkpt>
|
|
<trkpt lat="55.270358" lon="8.661673">
|
|
<ele>-29.101160</ele>
|
|
<time>2026-07-10T14:35:55.000Z</time>
|
|
</trkpt>
|
|
<trkpt lat="55.270393" lon="8.661672">
|
|
<ele>-29.089951</ele>
|
|
<time>2026-07-10T14:35:56.000Z</time>
|
|
</trkpt>
|
|
<trkpt lat="55.270432" lon="8.661673">
|
|
<ele>-29.077461</ele>
|
|
<time>2026-07-10T14:35:57.000Z</time>
|
|
</trkpt>
|
|
<trkpt lat="55.270475" lon="8.661670">
|
|
<ele>-29.063680</ele>
|
|
<time>2026-07-10T14:35:58.000Z</time>
|
|
</trkpt>
|
|
<trkpt lat="55.270520" lon="8.661664">
|
|
<ele>-29.049228</ele>
|
|
<time>2026-07-10T14:35:59.000Z</time>
|
|
</trkpt>
|
|
<trkpt lat="55.270563" lon="8.661656">
|
|
<ele>-29.035381</ele>
|
|
<time>2026-07-10T14:36:00.000Z</time>
|
|
</trkpt>
|
|
<trkpt lat="55.270607" lon="8.661646">
|
|
<ele>-29.021173</ele>
|
|
<time>2026-07-10T14:36:01.000Z</time>
|
|
</trkpt>
|
|
<trkpt lat="55.270648" lon="8.661637">
|
|
<ele>-29.007942</ele>
|
|
<time>2026-07-10T14:36:02.000Z</time>
|
|
</trkpt>
|
|
<trkpt lat="55.270696" lon="8.661629">
|
|
<ele>-28.992501</ele>
|
|
<time>2026-07-10T14:36:03.000Z</time>
|
|
</trkpt>
|
|
<trkpt lat="55.270742" lon="8.661621">
|
|
<ele>-28.977699</ele>
|
|
<time>2026-07-10T14:36:04.000Z</time>
|
|
</trkpt>
|
|
<trkpt lat="55.270788" lon="8.661614">
|
|
<ele>-28.962913</ele>
|
|
<time>2026-07-10T14:36:05.000Z</time>
|
|
</trkpt>
|
|
<trkpt lat="55.270837" lon="8.661609">
|
|
<ele>-28.959201</ele>
|
|
<time>2026-07-10T14:36:06.000Z</time>
|
|
</trkpt>
|
|
<trkpt lat="55.270882" lon="8.661605">
|
|
<ele>-28.969510</ele>
|
|
<time>2026-07-10T14:36:07.000Z</time>
|
|
</trkpt>
|
|
<trkpt lat="55.270929" lon="8.661596">
|
|
<ele>-28.980327</ele>
|
|
<time>2026-07-10T14:36:08.000Z</time>
|
|
</trkpt>
|
|
<trkpt lat="55.270973" lon="8.661586">
|
|
<ele>-28.990478</ele>
|
|
<time>2026-07-10T14:36:09.000Z</time>
|
|
</trkpt>
|
|
<trkpt lat="55.271017" lon="8.661578">
|
|
<ele>-29.000598</ele>
|
|
<time>2026-07-10T14:36:10.000Z</time>
|
|
</trkpt>
|
|
<trkpt lat="55.271061" lon="8.661572">
|
|
<ele>-29.010696</ele>
|
|
<time>2026-07-10T14:36:11.000Z</time>
|
|
</trkpt>
|
|
<trkpt lat="55.271104" lon="8.661569">
|
|
<ele>-29.020541</ele>
|
|
<time>2026-07-10T14:36:12.000Z</time>
|
|
</trkpt>
|
|
<trkpt lat="55.271150" lon="8.661568">
|
|
<ele>-29.031067</ele>
|
|
<time>2026-07-10T14:36:13.000Z</time>
|
|
</trkpt>
|
|
<trkpt lat="55.271195" lon="8.661564">
|
|
<ele>-29.041376</ele>
|
|
<time>2026-07-10T14:36:14.000Z</time>
|
|
</trkpt>
|
|
<trkpt lat="55.271242" lon="8.661561">
|
|
<ele>-29.052136</ele>
|
|
<time>2026-07-10T14:36:15.000Z</time>
|
|
</trkpt>
|
|
<trkpt lat="55.271291" lon="8.661557">
|
|
<ele>-29.063359</ele>
|
|
<time>2026-07-10T14:36:16.000Z</time>
|
|
</trkpt>
|
|
<trkpt lat="55.271338" lon="8.661552">
|
|
<ele>-29.074132</ele>
|
|
<time>2026-07-10T14:36:17.000Z</time>
|
|
</trkpt>
|
|
<trkpt lat="55.271387" lon="8.661546">
|
|
<ele>-29.085370</ele>
|
|
<time>2026-07-10T14:36:18.000Z</time>
|
|
</trkpt>
|
|
<trkpt lat="55.271437" lon="8.661538">
|
|
<ele>-29.096857</ele>
|
|
<time>2026-07-10T14:36:19.000Z</time>
|
|
</trkpt>
|
|
<trkpt lat="55.271487" lon="8.661529">
|
|
<ele>-29.108357</ele>
|
|
<time>2026-07-10T14:36:20.000Z</time>
|
|
</trkpt>
|
|
<trkpt lat="55.271536" lon="8.661521">
|
|
<ele>-29.119616</ele>
|
|
<time>2026-07-10T14:36:21.000Z</time>
|
|
</trkpt>
|
|
<trkpt lat="55.271583" lon="8.661517">
|
|
<ele>-29.130382</ele>
|
|
<time>2026-07-10T14:36:22.000Z</time>
|
|
</trkpt>
|
|
<trkpt lat="55.271632" lon="8.661512">
|
|
<ele>-29.141611</ele>
|
|
<time>2026-07-10T14:36:23.000Z</time>
|
|
</trkpt>
|
|
<trkpt lat="55.271680" lon="8.661507">
|
|
<ele>-29.152613</ele>
|
|
<time>2026-07-10T14:36:24.000Z</time>
|
|
</trkpt>
|
|
<trkpt lat="55.271729" lon="8.661502">
|
|
<ele>-29.163843</ele>
|
|
<time>2026-07-10T14:36:25.000Z</time>
|
|
</trkpt>
|
|
<trkpt lat="55.271776" lon="8.661497">
|
|
<ele>-29.174616</ele>
|
|
<time>2026-07-10T14:36:26.000Z</time>
|
|
</trkpt>
|
|
<trkpt lat="55.271828" lon="8.661491">
|
|
<ele>-29.186538</ele>
|
|
<time>2026-07-10T14:36:27.000Z</time>
|
|
</trkpt>
|
|
<trkpt lat="55.271880" lon="8.661482">
|
|
<ele>-29.198493</ele>
|
|
<time>2026-07-10T14:36:28.000Z</time>
|
|
</trkpt>
|
|
<trkpt lat="55.271930" lon="8.661473">
|
|
<ele>-29.209993</ele>
|
|
<time>2026-07-10T14:36:29.000Z</time>
|
|
</trkpt>
|
|
<trkpt lat="55.271983" lon="8.661465">
|
|
<ele>-29.222164</ele>
|
|
<time>2026-07-10T14:36:30.000Z</time>
|
|
</trkpt>
|
|
<trkpt lat="55.272035" lon="8.661458">
|
|
<ele>-29.234096</ele>
|
|
<time>2026-07-10T14:36:31.000Z</time>
|
|
</trkpt>
|
|
<trkpt lat="55.272085" lon="8.661451">
|
|
<ele>-29.245572</ele>
|
|
<time>2026-07-10T14:36:32.000Z</time>
|
|
</trkpt>
|
|
<trkpt lat="55.272140" lon="8.661441">
|
|
<ele>-29.258223</ele>
|
|
<time>2026-07-10T14:36:33.000Z</time>
|
|
</trkpt>
|
|
<trkpt lat="55.272193" lon="8.661430">
|
|
<ele>-29.270433</ele>
|
|
<time>2026-07-10T14:36:34.000Z</time>
|
|
</trkpt>
|
|
<trkpt lat="55.272246" lon="8.661419">
|
|
<ele>-29.282644</ele>
|
|
<time>2026-07-10T14:36:35.000Z</time>
|
|
</trkpt>
|
|
<trkpt lat="55.272300" lon="8.661415">
|
|
<ele>-29.295009</ele>
|
|
<time>2026-07-10T14:36:36.000Z</time>
|
|
</trkpt>
|
|
<trkpt lat="55.272353" lon="8.661412">
|
|
<ele>-29.307142</ele>
|
|
<time>2026-07-10T14:36:37.000Z</time>
|
|
</trkpt>
|
|
<trkpt lat="55.272406" lon="8.661407">
|
|
<ele>-29.319285</ele>
|
|
<time>2026-07-10T14:36:38.000Z</time>
|
|
</trkpt>
|
|
<trkpt lat="55.272460" lon="8.661400">
|
|
<ele>-29.331674</ele>
|
|
<time>2026-07-10T14:36:39.000Z</time>
|
|
</trkpt>
|
|
<trkpt lat="55.272514" lon="8.661395">
|
|
<ele>-29.344046</ele>
|
|
<time>2026-07-10T14:36:40.000Z</time>
|
|
</trkpt>
|
|
<trkpt lat="55.272567" lon="8.661388">
|
|
<ele>-29.356206</ele>
|
|
<time>2026-07-10T14:36:41.000Z</time>
|
|
</trkpt>
|
|
<trkpt lat="55.272617" lon="8.661382">
|
|
<ele>-29.364121</ele>
|
|
<time>2026-07-10T14:36:42.000Z</time>
|
|
</trkpt>
|
|
<trkpt lat="55.272671" lon="8.661375">
|
|
<ele>-29.354046</ele>
|
|
<time>2026-07-10T14:36:43.000Z</time>
|
|
</trkpt>
|
|
<trkpt lat="55.272728" lon="8.661368">
|
|
<ele>-29.343415</ele>
|
|
<time>2026-07-10T14:36:44.000Z</time>
|
|
</trkpt>
|
|
<trkpt lat="55.272785" lon="8.661359">
|
|
<ele>-29.332767</ele>
|
|
<time>2026-07-10T14:36:45.000Z</time>
|
|
</trkpt>
|
|
<trkpt lat="55.272838" lon="8.661351">
|
|
<ele>-29.322869</ele>
|
|
<time>2026-07-10T14:36:46.000Z</time>
|
|
</trkpt>
|
|
<trkpt lat="55.272895" lon="8.661345">
|
|
<ele>-29.312245</ele>
|
|
<time>2026-07-10T14:36:47.000Z</time>
|
|
</trkpt>
|
|
<trkpt lat="55.272950" lon="8.661341">
|
|
<ele>-29.302003</ele>
|
|
<time>2026-07-10T14:36:48.000Z</time>
|
|
</trkpt>
|
|
<trkpt lat="55.273006" lon="8.661337">
|
|
<ele>-29.291575</ele>
|
|
<time>2026-07-10T14:36:49.000Z</time>
|
|
</trkpt>
|
|
<trkpt lat="55.273063" lon="8.661331">
|
|
<ele>-29.280950</ele>
|
|
<time>2026-07-10T14:36:50.000Z</time>
|
|
</trkpt>
|
|
<trkpt lat="55.273117" lon="8.661325">
|
|
<ele>-29.270883</ele>
|
|
<time>2026-07-10T14:36:51.000Z</time>
|
|
</trkpt>
|
|
<trkpt lat="55.273170" lon="8.661320">
|
|
<ele>-29.261007</ele>
|
|
<time>2026-07-10T14:36:52.000Z</time>
|
|
</trkpt>
|
|
<trkpt lat="55.273222" lon="8.661316">
|
|
<ele>-29.251323</ele>
|
|
<time>2026-07-10T14:36:53.000Z</time>
|
|
</trkpt>
|
|
<trkpt lat="55.273273" lon="8.661313">
|
|
<ele>-29.241829</ele>
|
|
<time>2026-07-10T14:36:54.000Z</time>
|
|
</trkpt>
|
|
<trkpt lat="55.273326" lon="8.661314">
|
|
<ele>-29.231967</ele>
|
|
<time>2026-07-10T14:36:55.000Z</time>
|
|
</trkpt>
|
|
<trkpt lat="55.273380" lon="8.661320">
|
|
<ele>-29.221900</ele>
|
|
<time>2026-07-10T14:36:56.000Z</time>
|
|
</trkpt>
|
|
<trkpt lat="55.273430" lon="8.661332">
|
|
<ele>-29.212510</ele>
|
|
<time>2026-07-10T14:36:57.000Z</time>
|
|
</trkpt>
|
|
<trkpt lat="55.273478" lon="8.661347">
|
|
<ele>-29.203439</ele>
|
|
<time>2026-07-10T14:36:58.000Z</time>
|
|
</trkpt>
|
|
<trkpt lat="55.273537" lon="8.661370">
|
|
<ele>-29.192194</ele>
|
|
<time>2026-07-10T14:36:59.000Z</time>
|
|
</trkpt>
|
|
<trkpt lat="55.273589" lon="8.661391">
|
|
<ele>-29.182266</ele>
|
|
<time>2026-07-10T14:37:00.000Z</time>
|
|
</trkpt>
|
|
<trkpt lat="55.273639" lon="8.661416">
|
|
<ele>-29.172593</ele>
|
|
<time>2026-07-10T14:37:01.000Z</time>
|
|
</trkpt>
|
|
<trkpt lat="55.273692" lon="8.661447">
|
|
<ele>-29.162199</ele>
|
|
<time>2026-07-10T14:37:02.000Z</time>
|
|
</trkpt>
|
|
<trkpt lat="55.273742" lon="8.661482">
|
|
<ele>-29.152183</ele>
|
|
<time>2026-07-10T14:37:03.000Z</time>
|
|
</trkpt>
|
|
<trkpt lat="55.273794" lon="8.661520">
|
|
<ele>-29.141703</ele>
|
|
<time>2026-07-10T14:37:04.000Z</time>
|
|
</trkpt>
|
|
<trkpt lat="55.273845" lon="8.661557">
|
|
<ele>-29.131436</ele>
|
|
<time>2026-07-10T14:37:05.000Z</time>
|
|
</trkpt>
|
|
<trkpt lat="55.273898" lon="8.661594">
|
|
<ele>-29.120823</ele>
|
|
<time>2026-07-10T14:37:06.000Z</time>
|
|
</trkpt>
|
|
<trkpt lat="55.273946" lon="8.661633">
|
|
<ele>-29.110982</ele>
|
|
<time>2026-07-10T14:37:07.000Z</time>
|
|
</trkpt>
|
|
<trkpt lat="55.273992" lon="8.661672">
|
|
<ele>-29.101478</ele>
|
|
<time>2026-07-10T14:37:08.000Z</time>
|
|
</trkpt>
|
|
<trkpt lat="55.274042" lon="8.661711">
|
|
<ele>-29.091298</ele>
|
|
<time>2026-07-10T14:37:09.000Z</time>
|
|
</trkpt>
|
|
<trkpt lat="55.274093" lon="8.661753">
|
|
<ele>-29.080816</ele>
|
|
<time>2026-07-10T14:37:10.000Z</time>
|
|
</trkpt>
|
|
<trkpt lat="55.274141" lon="8.661793">
|
|
<ele>-29.070930</ele>
|
|
<time>2026-07-10T14:37:11.000Z</time>
|
|
</trkpt>
|
|
<trkpt lat="55.274187" lon="8.661832">
|
|
<ele>-29.061425</ele>
|
|
<time>2026-07-10T14:37:12.000Z</time>
|
|
</trkpt>
|
|
<trkpt lat="55.274236" lon="8.661872">
|
|
<ele>-29.051371</ele>
|
|
<time>2026-07-10T14:37:13.000Z</time>
|
|
</trkpt>
|
|
<trkpt lat="55.274287" lon="8.661912">
|
|
<ele>-29.040978</ele>
|
|
<time>2026-07-10T14:37:14.000Z</time>
|
|
</trkpt>
|
|
<trkpt lat="55.274336" lon="8.661951">
|
|
<ele>-29.030992</ele>
|
|
<time>2026-07-10T14:37:15.000Z</time>
|
|
</trkpt>
|
|
<trkpt lat="55.274385" lon="8.661993">
|
|
<ele>-29.023611</ele>
|
|
<time>2026-07-10T14:37:16.000Z</time>
|
|
</trkpt>
|
|
<trkpt lat="55.274435" lon="8.662035">
|
|
<ele>-29.016107</ele>
|
|
<time>2026-07-10T14:37:17.000Z</time>
|
|
</trkpt>
|
|
<trkpt lat="55.274484" lon="8.662078">
|
|
<ele>-29.008692</ele>
|
|
<time>2026-07-10T14:37:18.000Z</time>
|
|
</trkpt>
|
|
<trkpt lat="55.274531" lon="8.662118">
|
|
<ele>-29.001621</ele>
|
|
<time>2026-07-10T14:37:19.000Z</time>
|
|
</trkpt>
|
|
<trkpt lat="55.274581" lon="8.662156">
|
|
<ele>-28.994245</ele>
|
|
<time>2026-07-10T14:37:20.000Z</time>
|
|
</trkpt>
|
|
<trkpt lat="55.274630" lon="8.662194">
|
|
<ele>-28.986994</ele>
|
|
<time>2026-07-10T14:37:21.000Z</time>
|
|
</trkpt>
|
|
<trkpt lat="55.274680" lon="8.662231">
|
|
<ele>-28.979649</ele>
|
|
<time>2026-07-10T14:37:22.000Z</time>
|
|
</trkpt>
|
|
<trkpt lat="55.274729" lon="8.662262">
|
|
<ele>-28.972598</ele>
|
|
<time>2026-07-10T14:37:23.000Z</time>
|
|
</trkpt>
|
|
<trkpt lat="55.274778" lon="8.662293">
|
|
<ele>-28.965547</ele>
|
|
<time>2026-07-10T14:37:24.000Z</time>
|
|
</trkpt>
|
|
<trkpt lat="55.274827" lon="8.662324">
|
|
<ele>-28.958497</ele>
|
|
<time>2026-07-10T14:37:25.000Z</time>
|
|
</trkpt>
|
|
<trkpt lat="55.274877" lon="8.662355">
|
|
<ele>-28.951319</ele>
|
|
<time>2026-07-10T14:37:26.000Z</time>
|
|
</trkpt>
|
|
<trkpt lat="55.274928" lon="8.662386">
|
|
<ele>-28.944013</ele>
|
|
<time>2026-07-10T14:37:27.000Z</time>
|
|
</trkpt>
|
|
<trkpt lat="55.274979" lon="8.662411">
|
|
<ele>-28.936845</ele>
|
|
<time>2026-07-10T14:37:28.000Z</time>
|
|
</trkpt>
|
|
<trkpt lat="55.275033" lon="8.662431">
|
|
<ele>-28.929374</ele>
|
|
<time>2026-07-10T14:37:29.000Z</time>
|
|
</trkpt>
|
|
<trkpt lat="55.275089" lon="8.662449">
|
|
<ele>-28.921667</ele>
|
|
<time>2026-07-10T14:37:30.000Z</time>
|
|
</trkpt>
|
|
<trkpt lat="55.275142" lon="8.662465">
|
|
<ele>-28.914388</ele>
|
|
<time>2026-07-10T14:37:31.000Z</time>
|
|
</trkpt>
|
|
<trkpt lat="55.275196" lon="8.662480">
|
|
<ele>-28.906987</ele>
|
|
<time>2026-07-10T14:37:32.000Z</time>
|
|
</trkpt>
|
|
<trkpt lat="55.275249" lon="8.662493">
|
|
<ele>-28.899742</ele>
|
|
<time>2026-07-10T14:37:33.000Z</time>
|
|
</trkpt>
|
|
<trkpt lat="55.275303" lon="8.662502">
|
|
<ele>-28.892400</ele>
|
|
<time>2026-07-10T14:37:34.000Z</time>
|
|
</trkpt>
|
|
<trkpt lat="55.275360" lon="8.662507">
|
|
<ele>-28.884674</ele>
|
|
<time>2026-07-10T14:37:35.000Z</time>
|
|
</trkpt>
|
|
<trkpt lat="55.275413" lon="8.662507">
|
|
<ele>-28.877500</ele>
|
|
<time>2026-07-10T14:37:36.000Z</time>
|
|
</trkpt>
|
|
<trkpt lat="55.275465" lon="8.662507">
|
|
<ele>-28.870460</ele>
|
|
<time>2026-07-10T14:37:37.000Z</time>
|
|
</trkpt>
|
|
<trkpt lat="55.275516" lon="8.662505">
|
|
<ele>-28.863555</ele>
|
|
<time>2026-07-10T14:37:38.000Z</time>
|
|
</trkpt>
|
|
<trkpt lat="55.275570" lon="8.662502">
|
|
<ele>-28.856241</ele>
|
|
<time>2026-07-10T14:37:39.000Z</time>
|
|
</trkpt>
|
|
<trkpt lat="55.275626" lon="8.662499">
|
|
<ele>-28.848657</ele>
|
|
<time>2026-07-10T14:37:40.000Z</time>
|
|
</trkpt>
|
|
<trkpt lat="55.275680" lon="8.662493">
|
|
<ele>-28.841333</ele>
|
|
<time>2026-07-10T14:37:41.000Z</time>
|
|
</trkpt>
|
|
<trkpt lat="55.275737" lon="8.662486">
|
|
<ele>-28.833598</ele>
|
|
<time>2026-07-10T14:37:42.000Z</time>
|
|
</trkpt>
|
|
<trkpt lat="55.275794" lon="8.662477">
|
|
<ele>-28.825851</ele>
|
|
<time>2026-07-10T14:37:43.000Z</time>
|
|
</trkpt>
|
|
<trkpt lat="55.275845" lon="8.662467">
|
|
<ele>-28.818904</ele>
|
|
<time>2026-07-10T14:37:44.000Z</time>
|
|
</trkpt>
|
|
<trkpt lat="55.275891" lon="8.662454">
|
|
<ele>-28.812597</ele>
|
|
<time>2026-07-10T14:37:45.000Z</time>
|
|
</trkpt>
|
|
<trkpt lat="55.275957" lon="8.662431">
|
|
<ele>-28.803488</ele>
|
|
<time>2026-07-10T14:37:46.000Z</time>
|
|
</trkpt>
|
|
<trkpt lat="55.276013" lon="8.662406">
|
|
<ele>-28.795666</ele>
|
|
<time>2026-07-10T14:37:47.000Z</time>
|
|
</trkpt>
|
|
<trkpt lat="55.276066" lon="8.662377">
|
|
<ele>-28.788151</ele>
|
|
<time>2026-07-10T14:37:48.000Z</time>
|
|
</trkpt>
|
|
<trkpt lat="55.276119" lon="8.662349">
|
|
<ele>-28.802038</ele>
|
|
<time>2026-07-10T14:37:49.000Z</time>
|
|
</trkpt>
|
|
<trkpt lat="55.276171" lon="8.662323">
|
|
<ele>-28.817334</ele>
|
|
<time>2026-07-10T14:37:50.000Z</time>
|
|
</trkpt>
|
|
<trkpt lat="55.276225" lon="8.662299">
|
|
<ele>-28.833093</ele>
|
|
<time>2026-07-10T14:37:51.000Z</time>
|
|
</trkpt>
|
|
<trkpt lat="55.276275" lon="8.662280">
|
|
<ele>-28.847565</ele>
|
|
<time>2026-07-10T14:37:52.000Z</time>
|
|
</trkpt>
|
|
<trkpt lat="55.276329" lon="8.662264">
|
|
<ele>-28.863058</ele>
|
|
<time>2026-07-10T14:37:53.000Z</time>
|
|
</trkpt>
|
|
<trkpt lat="55.276386" lon="8.662254">
|
|
<ele>-28.879264</ele>
|
|
<time>2026-07-10T14:37:54.000Z</time>
|
|
</trkpt>
|
|
<trkpt lat="55.276439" lon="8.662249">
|
|
<ele>-28.894279</ele>
|
|
<time>2026-07-10T14:37:55.000Z</time>
|
|
</trkpt>
|
|
<trkpt lat="55.276491" lon="8.662245">
|
|
<ele>-28.909005</ele>
|
|
<time>2026-07-10T14:37:56.000Z</time>
|
|
</trkpt>
|
|
<trkpt lat="55.276546" lon="8.662240">
|
|
<ele>-28.924585</ele>
|
|
<time>2026-07-10T14:37:57.000Z</time>
|
|
</trkpt>
|
|
<trkpt lat="55.276599" lon="8.662229">
|
|
<ele>-28.939683</ele>
|
|
<time>2026-07-10T14:37:58.000Z</time>
|
|
</trkpt>
|
|
<trkpt lat="55.276652" lon="8.662212">
|
|
<ele>-28.954925</ele>
|
|
<time>2026-07-10T14:37:59.000Z</time>
|
|
</trkpt>
|
|
<trkpt lat="55.276705" lon="8.662188">
|
|
<ele>-28.970410</ele>
|
|
<time>2026-07-10T14:38:00.000Z</time>
|
|
</trkpt>
|
|
<trkpt lat="55.276755" lon="8.662154">
|
|
<ele>-28.985579</ele>
|
|
<time>2026-07-10T14:38:01.000Z</time>
|
|
</trkpt>
|
|
<trkpt lat="55.276804" lon="8.662115">
|
|
<ele>-29.000799</ele>
|
|
<time>2026-07-10T14:38:02.000Z</time>
|
|
</trkpt>
|
|
<trkpt lat="55.276853" lon="8.662073">
|
|
<ele>-29.016226</ele>
|
|
<time>2026-07-10T14:38:03.000Z</time>
|
|
</trkpt>
|
|
<trkpt lat="55.276904" lon="8.662034">
|
|
<ele>-29.031963</ele>
|
|
<time>2026-07-10T14:38:04.000Z</time>
|
|
</trkpt>
|
|
<trkpt lat="55.276958" lon="8.661999">
|
|
<ele>-29.048248</ele>
|
|
<time>2026-07-10T14:38:05.000Z</time>
|
|
</trkpt>
|
|
<trkpt lat="55.277010" lon="8.661962">
|
|
<ele>-29.064121</ele>
|
|
<time>2026-07-10T14:38:06.000Z</time>
|
|
</trkpt>
|
|
<trkpt lat="55.277059" lon="8.661919">
|
|
<ele>-29.079619</ele>
|
|
<time>2026-07-10T14:38:07.000Z</time>
|
|
</trkpt>
|
|
<trkpt lat="55.277105" lon="8.661871">
|
|
<ele>-29.094757</ele>
|
|
<time>2026-07-10T14:38:08.000Z</time>
|
|
</trkpt>
|
|
<trkpt lat="55.277156" lon="8.661818">
|
|
<ele>-29.111524</ele>
|
|
<time>2026-07-10T14:38:09.000Z</time>
|
|
</trkpt>
|
|
<trkpt lat="55.277203" lon="8.661765">
|
|
<ele>-29.127327</ele>
|
|
<time>2026-07-10T14:38:10.000Z</time>
|
|
</trkpt>
|
|
<trkpt lat="55.277245" lon="8.661711">
|
|
<ele>-29.142054</ele>
|
|
<time>2026-07-10T14:38:11.000Z</time>
|
|
</trkpt>
|
|
<trkpt lat="55.277291" lon="8.661655">
|
|
<ele>-29.157890</ele>
|
|
<time>2026-07-10T14:38:12.000Z</time>
|
|
</trkpt>
|
|
<trkpt lat="55.277331" lon="8.661596">
|
|
<ele>-29.172670</ele>
|
|
<time>2026-07-10T14:38:13.000Z</time>
|
|
</trkpt>
|
|
<trkpt lat="55.277370" lon="8.661536">
|
|
<ele>-29.187340</ele>
|
|
<time>2026-07-10T14:38:14.000Z</time>
|
|
</trkpt>
|
|
<trkpt lat="55.277412" lon="8.661473">
|
|
<ele>-29.202969</ele>
|
|
<time>2026-07-10T14:38:15.000Z</time>
|
|
</trkpt>
|
|
<trkpt lat="55.277451" lon="8.661411">
|
|
<ele>-29.217853</ele>
|
|
<time>2026-07-10T14:38:16.000Z</time>
|
|
</trkpt>
|
|
<trkpt lat="55.277491" lon="8.661350">
|
|
<ele>-29.232842</ele>
|
|
<time>2026-07-10T14:38:17.000Z</time>
|
|
</trkpt>
|
|
<trkpt lat="55.277529" lon="8.661289">
|
|
<ele>-29.247409</ele>
|
|
<time>2026-07-10T14:38:18.000Z</time>
|
|
</trkpt>
|
|
<trkpt lat="55.277571" lon="8.661221">
|
|
<ele>-29.263572</ele>
|
|
<time>2026-07-10T14:38:19.000Z</time>
|
|
</trkpt>
|
|
<trkpt lat="55.277611" lon="8.661154">
|
|
<ele>-29.279213</ele>
|
|
<time>2026-07-10T14:38:20.000Z</time>
|
|
</trkpt>
|
|
<trkpt lat="55.277653" lon="8.661088">
|
|
<ele>-29.295159</ele>
|
|
<time>2026-07-10T14:38:21.000Z</time>
|
|
</trkpt>
|
|
<trkpt lat="55.277694" lon="8.661023">
|
|
<ele>-29.283553</ele>
|
|
<time>2026-07-10T14:38:22.000Z</time>
|
|
</trkpt>
|
|
<trkpt lat="55.277732" lon="8.660958">
|
|
<ele>-29.270113</ele>
|
|
<time>2026-07-10T14:38:23.000Z</time>
|
|
</trkpt>
|
|
<trkpt lat="55.277774" lon="8.660893">
|
|
<ele>-29.255930</ele>
|
|
<time>2026-07-10T14:38:24.000Z</time>
|
|
</trkpt>
|
|
<trkpt lat="55.277813" lon="8.660829">
|
|
<ele>-29.242407</ele>
|
|
<time>2026-07-10T14:38:25.000Z</time>
|
|
</trkpt>
|
|
<trkpt lat="55.277855" lon="8.660763">
|
|
<ele>-29.228128</ele>
|
|
<time>2026-07-10T14:38:26.000Z</time>
|
|
</trkpt>
|
|
<trkpt lat="55.277893" lon="8.660698">
|
|
<ele>-29.214688</ele>
|
|
<time>2026-07-10T14:38:27.000Z</time>
|
|
</trkpt>
|
|
<trkpt lat="55.277932" lon="8.660632">
|
|
<ele>-29.200966</ele>
|
|
<time>2026-07-10T14:38:28.000Z</time>
|
|
</trkpt>
|
|
<trkpt lat="55.277972" lon="8.660569">
|
|
<ele>-29.187353</ele>
|
|
<time>2026-07-10T14:38:29.000Z</time>
|
|
</trkpt>
|
|
<trkpt lat="55.278010" lon="8.660506">
|
|
<ele>-29.174113</ele>
|
|
<time>2026-07-10T14:38:30.000Z</time>
|
|
</trkpt>
|
|
<trkpt lat="55.278053" lon="8.660441">
|
|
<ele>-29.159739</ele>
|
|
<time>2026-07-10T14:38:31.000Z</time>
|
|
</trkpt>
|
|
<trkpt lat="55.278090" lon="8.660380">
|
|
<ele>-29.146882</ele>
|
|
<time>2026-07-10T14:38:32.000Z</time>
|
|
</trkpt>
|
|
<trkpt lat="55.278129" lon="8.660315">
|
|
<ele>-29.133259</ele>
|
|
<time>2026-07-10T14:38:33.000Z</time>
|
|
</trkpt>
|
|
<trkpt lat="55.278169" lon="8.660250">
|
|
<ele>-29.119452</ele>
|
|
<time>2026-07-10T14:38:34.000Z</time>
|
|
</trkpt>
|
|
<trkpt lat="55.278209" lon="8.660187">
|
|
<ele>-29.105840</ele>
|
|
<time>2026-07-10T14:38:35.000Z</time>
|
|
</trkpt>
|
|
<trkpt lat="55.278248" lon="8.660124">
|
|
<ele>-29.092414</ele>
|
|
<time>2026-07-10T14:38:36.000Z</time>
|
|
</trkpt>
|
|
<trkpt lat="55.278289" lon="8.660058">
|
|
<ele>-29.078323</ele>
|
|
<time>2026-07-10T14:38:37.000Z</time>
|
|
</trkpt>
|
|
<trkpt lat="55.278327" lon="8.659994">
|
|
<ele>-29.064984</ele>
|
|
<time>2026-07-10T14:38:38.000Z</time>
|
|
</trkpt>
|
|
<trkpt lat="55.278366" lon="8.659934">
|
|
<ele>-29.051848</ele>
|
|
<time>2026-07-10T14:38:39.000Z</time>
|
|
</trkpt>
|
|
<trkpt lat="55.278408" lon="8.659871">
|
|
<ele>-29.037854</ele>
|
|
<time>2026-07-10T14:38:40.000Z</time>
|
|
</trkpt>
|
|
<trkpt lat="55.278446" lon="8.659812">
|
|
<ele>-29.025004</ele>
|
|
<time>2026-07-10T14:38:41.000Z</time>
|
|
</trkpt>
|
|
<trkpt lat="55.278487" lon="8.659753">
|
|
<ele>-29.011575</ele>
|
|
<time>2026-07-10T14:38:42.000Z</time>
|
|
</trkpt>
|
|
<trkpt lat="55.278530" lon="8.659693">
|
|
<ele>-28.997661</ele>
|
|
<time>2026-07-10T14:38:43.000Z</time>
|
|
</trkpt>
|
|
<trkpt lat="55.278573" lon="8.659634">
|
|
<ele>-28.983836</ele>
|
|
<time>2026-07-10T14:38:44.000Z</time>
|
|
</trkpt>
|
|
<trkpt lat="55.278617" lon="8.659579">
|
|
<ele>-28.970153</ele>
|
|
<time>2026-07-10T14:38:45.000Z</time>
|
|
</trkpt>
|
|
<trkpt lat="55.278661" lon="8.659521">
|
|
<ele>-28.956215</ele>
|
|
<time>2026-07-10T14:38:46.000Z</time>
|
|
</trkpt>
|
|
<trkpt lat="55.278703" lon="8.659466">
|
|
<ele>-28.942942</ele>
|
|
<time>2026-07-10T14:38:47.000Z</time>
|
|
</trkpt>
|
|
<trkpt lat="55.278747" lon="8.659412">
|
|
<ele>-28.929343</ele>
|
|
<time>2026-07-10T14:38:48.000Z</time>
|
|
</trkpt>
|
|
<trkpt lat="55.278791" lon="8.659358">
|
|
<ele>-28.915743</ele>
|
|
<time>2026-07-10T14:38:49.000Z</time>
|
|
</trkpt>
|
|
<trkpt lat="55.278837" lon="8.659307">
|
|
<ele>-28.901962</ele>
|
|
<time>2026-07-10T14:38:50.000Z</time>
|
|
</trkpt>
|
|
<trkpt lat="55.278884" lon="8.659255">
|
|
<ele>-28.887889</ele>
|
|
<time>2026-07-10T14:38:51.000Z</time>
|
|
</trkpt>
|
|
<trkpt lat="55.278932" lon="8.659204">
|
|
<ele>-28.873676</ele>
|
|
<time>2026-07-10T14:38:52.000Z</time>
|
|
</trkpt>
|
|
<trkpt lat="55.278980" lon="8.659154">
|
|
<ele>-28.859538</ele>
|
|
<time>2026-07-10T14:38:53.000Z</time>
|
|
</trkpt>
|
|
<trkpt lat="55.279031" lon="8.659104">
|
|
<ele>-28.844741</ele>
|
|
<time>2026-07-10T14:38:54.000Z</time>
|
|
</trkpt>
|
|
<trkpt lat="55.279078" lon="8.659058">
|
|
<ele>-28.834241</ele>
|
|
<time>2026-07-10T14:38:55.000Z</time>
|
|
</trkpt>
|
|
<trkpt lat="55.279127" lon="8.659013">
|
|
<ele>-28.824766</ele>
|
|
<time>2026-07-10T14:38:56.000Z</time>
|
|
</trkpt>
|
|
<trkpt lat="55.279178" lon="8.658966">
|
|
<ele>-28.814897</ele>
|
|
<time>2026-07-10T14:38:57.000Z</time>
|
|
</trkpt>
|
|
<trkpt lat="55.279229" lon="8.658920">
|
|
<ele>-28.805073</ele>
|
|
<time>2026-07-10T14:38:58.000Z</time>
|
|
</trkpt>
|
|
<trkpt lat="55.279274" lon="8.658876">
|
|
<ele>-28.796248</ele>
|
|
<time>2026-07-10T14:38:59.000Z</time>
|
|
</trkpt>
|
|
<trkpt lat="55.279322" lon="8.658828">
|
|
<ele>-28.786783</ele>
|
|
<time>2026-07-10T14:39:00.000Z</time>
|
|
</trkpt>
|
|
<trkpt lat="55.279371" lon="8.658783">
|
|
<ele>-28.777308</ele>
|
|
<time>2026-07-10T14:39:01.000Z</time>
|
|
</trkpt>
|
|
<trkpt lat="55.279417" lon="8.658740">
|
|
<ele>-28.768379</ele>
|
|
<time>2026-07-10T14:39:02.000Z</time>
|
|
</trkpt>
|
|
<trkpt lat="55.279468" lon="8.658694">
|
|
<ele>-28.758554</ele>
|
|
<time>2026-07-10T14:39:03.000Z</time>
|
|
</trkpt>
|
|
<trkpt lat="55.279517" lon="8.658651">
|
|
<ele>-28.749168</ele>
|
|
<time>2026-07-10T14:39:04.000Z</time>
|
|
</trkpt>
|
|
<trkpt lat="55.279565" lon="8.658607">
|
|
<ele>-28.739890</ele>
|
|
<time>2026-07-10T14:39:05.000Z</time>
|
|
</trkpt>
|
|
<trkpt lat="55.279613" lon="8.658566">
|
|
<ele>-28.730744</ele>
|
|
<time>2026-07-10T14:39:06.000Z</time>
|
|
</trkpt>
|
|
<trkpt lat="55.279666" lon="8.658521">
|
|
<ele>-28.720657</ele>
|
|
<time>2026-07-10T14:39:07.000Z</time>
|
|
</trkpt>
|
|
<trkpt lat="55.279718" lon="8.658478">
|
|
<ele>-28.710809</ele>
|
|
<time>2026-07-10T14:39:08.000Z</time>
|
|
</trkpt>
|
|
<trkpt lat="55.279769" lon="8.658434">
|
|
<ele>-28.701072</ele>
|
|
<time>2026-07-10T14:39:09.000Z</time>
|
|
</trkpt>
|
|
<trkpt lat="55.279818" lon="8.658392">
|
|
<ele>-28.691729</ele>
|
|
<time>2026-07-10T14:39:10.000Z</time>
|
|
</trkpt>
|
|
<trkpt lat="55.279868" lon="8.658350">
|
|
<ele>-28.682232</ele>
|
|
<time>2026-07-10T14:39:11.000Z</time>
|
|
</trkpt>
|
|
<trkpt lat="55.279918" lon="8.658308">
|
|
<ele>-28.672735</ele>
|
|
<time>2026-07-10T14:39:12.000Z</time>
|
|
</trkpt>
|
|
<trkpt lat="55.279971" lon="8.658264">
|
|
<ele>-28.662690</ele>
|
|
<time>2026-07-10T14:39:13.000Z</time>
|
|
</trkpt>
|
|
<trkpt lat="55.280020" lon="8.658223">
|
|
<ele>-28.653389</ele>
|
|
<time>2026-07-10T14:39:14.000Z</time>
|
|
</trkpt>
|
|
<trkpt lat="55.280070" lon="8.658186">
|
|
<ele>-28.644092</ele>
|
|
<time>2026-07-10T14:39:15.000Z</time>
|
|
</trkpt>
|
|
<trkpt lat="55.280124" lon="8.658151">
|
|
<ele>-28.634230</ele>
|
|
<time>2026-07-10T14:39:16.000Z</time>
|
|
</trkpt>
|
|
<trkpt lat="55.280174" lon="8.658121">
|
|
<ele>-28.625176</ele>
|
|
<time>2026-07-10T14:39:17.000Z</time>
|
|
</trkpt>
|
|
<trkpt lat="55.280225" lon="8.658095">
|
|
<ele>-28.616077</ele>
|
|
<time>2026-07-10T14:39:18.000Z</time>
|
|
</trkpt>
|
|
<trkpt lat="55.280275" lon="8.658067">
|
|
<ele>-28.607084</ele>
|
|
<time>2026-07-10T14:39:19.000Z</time>
|
|
</trkpt>
|
|
<trkpt lat="55.280329" lon="8.658043">
|
|
<ele>-28.597540</ele>
|
|
<time>2026-07-10T14:39:20.000Z</time>
|
|
</trkpt>
|
|
<trkpt lat="55.280380" lon="8.658024">
|
|
<ele>-28.588607</ele>
|
|
<time>2026-07-10T14:39:21.000Z</time>
|
|
</trkpt>
|
|
<trkpt lat="55.280433" lon="8.658010">
|
|
<ele>-28.579424</ele>
|
|
<time>2026-07-10T14:39:22.000Z</time>
|
|
</trkpt>
|
|
<trkpt lat="55.280487" lon="8.657998">
|
|
<ele>-28.570098</ele>
|
|
<time>2026-07-10T14:39:23.000Z</time>
|
|
</trkpt>
|
|
<trkpt lat="55.280540" lon="8.657990">
|
|
<ele>-28.560983</ele>
|
|
<time>2026-07-10T14:39:24.000Z</time>
|
|
</trkpt>
|
|
<trkpt lat="55.280592" lon="8.657986">
|
|
<ele>-28.552065</ele>
|
|
<time>2026-07-10T14:39:25.000Z</time>
|
|
</trkpt>
|
|
<trkpt lat="55.280642" lon="8.657984">
|
|
<ele>-28.543495</ele>
|
|
<time>2026-07-10T14:39:26.000Z</time>
|
|
</trkpt>
|
|
<trkpt lat="55.280696" lon="8.657984">
|
|
<ele>-28.534243</ele>
|
|
<time>2026-07-10T14:39:27.000Z</time>
|
|
</trkpt>
|
|
<trkpt lat="55.280751" lon="8.657986">
|
|
<ele>-28.527779</ele>
|
|
<time>2026-07-10T14:39:28.000Z</time>
|
|
</trkpt>
|
|
<trkpt lat="55.280803" lon="8.657992">
|
|
<ele>-28.522247</ele>
|
|
<time>2026-07-10T14:39:29.000Z</time>
|
|
</trkpt>
|
|
<trkpt lat="55.280852" lon="8.657998">
|
|
<ele>-28.517032</ele>
|
|
<time>2026-07-10T14:39:30.000Z</time>
|
|
</trkpt>
|
|
<trkpt lat="55.280901" lon="8.658005">
|
|
<ele>-28.511812</ele>
|
|
<time>2026-07-10T14:39:31.000Z</time>
|
|
</trkpt>
|
|
<trkpt lat="55.280950" lon="8.658010">
|
|
<ele>-28.506601</ele>
|
|
<time>2026-07-10T14:39:32.000Z</time>
|
|
</trkpt>
|
|
<trkpt lat="55.281006" lon="8.658016">
|
|
<ele>-28.500645</ele>
|
|
<time>2026-07-10T14:39:33.000Z</time>
|
|
</trkpt>
|
|
<trkpt lat="55.281058" lon="8.658024">
|
|
<ele>-28.495103</ele>
|
|
<time>2026-07-10T14:39:34.000Z</time>
|
|
</trkpt>
|
|
<trkpt lat="55.281113" lon="8.658030">
|
|
<ele>-28.489253</ele>
|
|
<time>2026-07-10T14:39:35.000Z</time>
|
|
</trkpt>
|
|
<trkpt lat="55.281170" lon="8.658037">
|
|
<ele>-28.483186</ele>
|
|
<time>2026-07-10T14:39:36.000Z</time>
|
|
</trkpt>
|
|
<trkpt lat="55.281224" lon="8.658044">
|
|
<ele>-28.477438</ele>
|
|
<time>2026-07-10T14:39:37.000Z</time>
|
|
</trkpt>
|
|
<trkpt lat="55.281276" lon="8.658052">
|
|
<ele>-28.471896</ele>
|
|
<time>2026-07-10T14:39:38.000Z</time>
|
|
</trkpt>
|
|
<trkpt lat="55.281324" lon="8.658061">
|
|
<ele>-28.466771</ele>
|
|
<time>2026-07-10T14:39:39.000Z</time>
|
|
</trkpt>
|
|
<trkpt lat="55.281370" lon="8.658068">
|
|
<ele>-28.461869</ele>
|
|
<time>2026-07-10T14:39:40.000Z</time>
|
|
</trkpt>
|
|
<trkpt lat="55.281416" lon="8.658073">
|
|
<ele>-28.456976</ele>
|
|
<time>2026-07-10T14:39:41.000Z</time>
|
|
</trkpt>
|
|
<trkpt lat="55.281461" lon="8.658077">
|
|
<ele>-28.452192</ele>
|
|
<time>2026-07-10T14:39:42.000Z</time>
|
|
</trkpt>
|
|
<trkpt lat="55.281508" lon="8.658081">
|
|
<ele>-28.447196</ele>
|
|
<time>2026-07-10T14:39:43.000Z</time>
|
|
</trkpt>
|
|
<trkpt lat="55.281556" lon="8.658084">
|
|
<ele>-28.442097</ele>
|
|
<time>2026-07-10T14:39:44.000Z</time>
|
|
</trkpt>
|
|
<trkpt lat="55.281605" lon="8.658088">
|
|
<ele>-28.436889</ele>
|
|
<time>2026-07-10T14:39:45.000Z</time>
|
|
</trkpt>
|
|
<trkpt lat="55.281657" lon="8.658096">
|
|
<ele>-28.431347</ele>
|
|
<time>2026-07-10T14:39:46.000Z</time>
|
|
</trkpt>
|
|
<trkpt lat="55.281711" lon="8.658105">
|
|
<ele>-28.425588</ele>
|
|
<time>2026-07-10T14:39:47.000Z</time>
|
|
</trkpt>
|
|
<trkpt lat="55.281760" lon="8.658116">
|
|
<ele>-28.420344</ele>
|
|
<time>2026-07-10T14:39:48.000Z</time>
|
|
</trkpt>
|
|
<trkpt lat="55.281811" lon="8.658125">
|
|
<ele>-28.414902</ele>
|
|
<time>2026-07-10T14:39:49.000Z</time>
|
|
</trkpt>
|
|
<trkpt lat="55.281864" lon="8.658135">
|
|
<ele>-28.409243</ele>
|
|
<time>2026-07-10T14:39:50.000Z</time>
|
|
</trkpt>
|
|
<trkpt lat="55.281918" lon="8.658146">
|
|
<ele>-28.403471</ele>
|
|
<time>2026-07-10T14:39:51.000Z</time>
|
|
</trkpt>
|
|
<trkpt lat="55.281971" lon="8.658156">
|
|
<ele>-28.397812</ele>
|
|
<time>2026-07-10T14:39:52.000Z</time>
|
|
</trkpt>
|
|
<trkpt lat="55.282025" lon="8.658164">
|
|
<ele>-28.392058</ele>
|
|
<time>2026-07-10T14:39:53.000Z</time>
|
|
</trkpt>
|
|
<trkpt lat="55.282078" lon="8.658172">
|
|
<ele>-28.386411</ele>
|
|
<time>2026-07-10T14:39:54.000Z</time>
|
|
</trkpt>
|
|
<trkpt lat="55.282132" lon="8.658181">
|
|
<ele>-28.380652</ele>
|
|
<time>2026-07-10T14:39:55.000Z</time>
|
|
</trkpt>
|
|
<trkpt lat="55.282187" lon="8.658189">
|
|
<ele>-28.374793</ele>
|
|
<time>2026-07-10T14:39:56.000Z</time>
|
|
</trkpt>
|
|
<trkpt lat="55.282243" lon="8.658196">
|
|
<ele>-28.368832</ele>
|
|
<time>2026-07-10T14:39:57.000Z</time>
|
|
</trkpt>
|
|
<trkpt lat="55.282299" lon="8.658202">
|
|
<ele>-28.362876</ele>
|
|
<time>2026-07-10T14:39:58.000Z</time>
|
|
</trkpt>
|
|
<trkpt lat="55.282352" lon="8.658210">
|
|
<ele>-28.357228</ele>
|
|
<time>2026-07-10T14:39:59.000Z</time>
|
|
</trkpt>
|
|
<trkpt lat="55.282406" lon="8.658218">
|
|
<ele>-28.351475</ele>
|
|
<time>2026-07-10T14:40:00.000Z</time>
|
|
</trkpt>
|
|
<trkpt lat="55.282463" lon="8.658226">
|
|
<ele>-28.345404</ele>
|
|
<time>2026-07-10T14:40:01.000Z</time>
|
|
</trkpt>
|
|
<trkpt lat="55.282517" lon="8.658234">
|
|
<ele>-28.347004</ele>
|
|
<time>2026-07-10T14:40:02.000Z</time>
|
|
</trkpt>
|
|
<trkpt lat="55.282570" lon="8.658242">
|
|
<ele>-28.362162</ele>
|
|
<time>2026-07-10T14:40:03.000Z</time>
|
|
</trkpt>
|
|
<trkpt lat="55.282622" lon="8.658249">
|
|
<ele>-28.377022</ele>
|
|
<time>2026-07-10T14:40:04.000Z</time>
|
|
</trkpt>
|
|
<trkpt lat="55.282673" lon="8.658256">
|
|
<ele>-28.391599</ele>
|
|
<time>2026-07-10T14:40:05.000Z</time>
|
|
</trkpt>
|
|
<trkpt lat="55.282730" lon="8.658264">
|
|
<ele>-28.407893</ele>
|
|
<time>2026-07-10T14:40:06.000Z</time>
|
|
</trkpt>
|
|
<trkpt lat="55.282783" lon="8.658273">
|
|
<ele>-28.423065</ele>
|
|
<time>2026-07-10T14:40:07.000Z</time>
|
|
</trkpt>
|
|
<trkpt lat="55.282836" lon="8.658282">
|
|
<ele>-28.438238</ele>
|
|
<time>2026-07-10T14:40:08.000Z</time>
|
|
</trkpt>
|
|
<trkpt lat="55.282894" lon="8.658291">
|
|
<ele>-28.454829</ele>
|
|
<time>2026-07-10T14:40:09.000Z</time>
|
|
</trkpt>
|
|
<trkpt lat="55.282948" lon="8.658301">
|
|
<ele>-28.470301</ele>
|
|
<time>2026-07-10T14:40:10.000Z</time>
|
|
</trkpt>
|
|
<trkpt lat="55.283001" lon="8.658310">
|
|
<ele>-28.485473</ele>
|
|
<time>2026-07-10T14:40:11.000Z</time>
|
|
</trkpt>
|
|
<trkpt lat="55.283053" lon="8.658319">
|
|
<ele>-28.500362</ele>
|
|
<time>2026-07-10T14:40:12.000Z</time>
|
|
</trkpt>
|
|
<trkpt lat="55.283110" lon="8.658329">
|
|
<ele>-28.516685</ele>
|
|
<time>2026-07-10T14:40:13.000Z</time>
|
|
</trkpt>
|
|
<trkpt lat="55.283165" lon="8.658337">
|
|
<ele>-28.532411</ele>
|
|
<time>2026-07-10T14:40:14.000Z</time>
|
|
</trkpt>
|
|
<trkpt lat="55.283219" lon="8.658345">
|
|
<ele>-28.547852</ele>
|
|
<time>2026-07-10T14:40:15.000Z</time>
|
|
</trkpt>
|
|
<trkpt lat="55.283273" lon="8.658352">
|
|
<ele>-28.563281</ele>
|
|
<time>2026-07-10T14:40:16.000Z</time>
|
|
</trkpt>
|
|
<trkpt lat="55.283329" lon="8.658359">
|
|
<ele>-28.579278</ele>
|
|
<time>2026-07-10T14:40:17.000Z</time>
|
|
</trkpt>
|
|
<trkpt lat="55.283384" lon="8.658367">
|
|
<ele>-28.595004</ele>
|
|
<time>2026-07-10T14:40:18.000Z</time>
|
|
</trkpt>
|
|
<trkpt lat="55.283439" lon="8.658375">
|
|
<ele>-28.610730</ele>
|
|
<time>2026-07-10T14:40:19.000Z</time>
|
|
</trkpt>
|
|
<trkpt lat="55.283492" lon="8.658384">
|
|
<ele>-28.625902</ele>
|
|
<time>2026-07-10T14:40:20.000Z</time>
|
|
</trkpt>
|
|
<trkpt lat="55.283545" lon="8.658392">
|
|
<ele>-28.641060</ele>
|
|
<time>2026-07-10T14:40:21.000Z</time>
|
|
</trkpt>
|
|
<trkpt lat="55.283603" lon="8.658401">
|
|
<ele>-28.657651</ele>
|
|
<time>2026-07-10T14:40:22.000Z</time>
|
|
</trkpt>
|
|
<trkpt lat="55.283658" lon="8.658408">
|
|
<ele>-28.673364</ele>
|
|
<time>2026-07-10T14:40:23.000Z</time>
|
|
</trkpt>
|
|
<trkpt lat="55.283715" lon="8.658415">
|
|
<ele>-28.689646</ele>
|
|
<time>2026-07-10T14:40:24.000Z</time>
|
|
</trkpt>
|
|
<trkpt lat="55.283770" lon="8.658421">
|
|
<ele>-28.705348</ele>
|
|
<time>2026-07-10T14:40:25.000Z</time>
|
|
</trkpt>
|
|
<trkpt lat="55.283827" lon="8.658426">
|
|
<ele>-28.721610</ele>
|
|
<time>2026-07-10T14:40:26.000Z</time>
|
|
</trkpt>
|
|
<trkpt lat="55.283885" lon="8.658426">
|
|
<ele>-28.738136</ele>
|
|
<time>2026-07-10T14:40:27.000Z</time>
|
|
</trkpt>
|
|
<trkpt lat="55.283939" lon="8.658422">
|
|
<ele>-28.753537</ele>
|
|
<time>2026-07-10T14:40:28.000Z</time>
|
|
</trkpt>
|
|
<trkpt lat="55.283992" lon="8.658414">
|
|
<ele>-28.768695</ele>
|
|
<time>2026-07-10T14:40:29.000Z</time>
|
|
</trkpt>
|
|
<trkpt lat="55.284047" lon="8.658404">
|
|
<ele>-28.784451</ele>
|
|
<time>2026-07-10T14:40:30.000Z</time>
|
|
</trkpt>
|
|
<trkpt lat="55.284101" lon="8.658387">
|
|
<ele>-28.800083</ele>
|
|
<time>2026-07-10T14:40:31.000Z</time>
|
|
</trkpt>
|
|
<trkpt lat="55.284156" lon="8.658364">
|
|
<ele>-28.816193</ele>
|
|
<time>2026-07-10T14:40:32.000Z</time>
|
|
</trkpt>
|
|
<trkpt lat="55.284207" lon="8.658334">
|
|
<ele>-28.831519</ele>
|
|
<time>2026-07-10T14:40:33.000Z</time>
|
|
</trkpt>
|
|
<trkpt lat="55.284260" lon="8.658299">
|
|
<ele>-28.847654</ele>
|
|
<time>2026-07-10T14:40:34.000Z</time>
|
|
</trkpt>
|
|
<trkpt lat="55.284310" lon="8.658257">
|
|
<ele>-28.841956</ele>
|
|
<time>2026-07-10T14:40:35.000Z</time>
|
|
</trkpt>
|
|
<trkpt lat="55.284358" lon="8.658207">
|
|
<ele>-28.821062</ele>
|
|
<time>2026-07-10T14:40:36.000Z</time>
|
|
</trkpt>
|
|
<trkpt lat="55.284406" lon="8.658157">
|
|
<ele>-28.800167</ele>
|
|
<time>2026-07-10T14:40:37.000Z</time>
|
|
</trkpt>
|
|
<trkpt lat="55.284448" lon="8.658105">
|
|
<ele>-28.780928</ele>
|
|
<time>2026-07-10T14:40:38.000Z</time>
|
|
</trkpt>
|
|
<trkpt lat="55.284490" lon="8.658051">
|
|
<ele>-28.761439</ele>
|
|
<time>2026-07-10T14:40:39.000Z</time>
|
|
</trkpt>
|
|
<trkpt lat="55.284530" lon="8.657993">
|
|
<ele>-28.742018</ele>
|
|
<time>2026-07-10T14:40:40.000Z</time>
|
|
</trkpt>
|
|
<trkpt lat="55.284572" lon="8.657931">
|
|
<ele>-28.721476</ele>
|
|
<time>2026-07-10T14:40:41.000Z</time>
|
|
</trkpt>
|
|
<trkpt lat="55.284610" lon="8.657870">
|
|
<ele>-28.702201</ele>
|
|
<time>2026-07-10T14:40:42.000Z</time>
|
|
</trkpt>
|
|
<trkpt lat="55.284648" lon="8.657808">
|
|
<ele>-28.682781</ele>
|
|
<time>2026-07-10T14:40:43.000Z</time>
|
|
</trkpt>
|
|
<trkpt lat="55.284687" lon="8.657745">
|
|
<ele>-28.662942</ele>
|
|
<time>2026-07-10T14:40:44.000Z</time>
|
|
</trkpt>
|
|
<trkpt lat="55.284725" lon="8.657680">
|
|
<ele>-28.643081</ele>
|
|
<time>2026-07-10T14:40:45.000Z</time>
|
|
</trkpt>
|
|
<trkpt lat="55.284763" lon="8.657616">
|
|
<ele>-28.623369</ele>
|
|
<time>2026-07-10T14:40:46.000Z</time>
|
|
</trkpt>
|
|
<trkpt lat="55.284806" lon="8.657551">
|
|
<ele>-28.602127</ele>
|
|
<time>2026-07-10T14:40:47.000Z</time>
|
|
</trkpt>
|
|
<trkpt lat="55.284848" lon="8.657489">
|
|
<ele>-28.581585</ele>
|
|
<time>2026-07-10T14:40:48.000Z</time>
|
|
</trkpt>
|
|
<trkpt lat="55.284890" lon="8.657427">
|
|
<ele>-28.561043</ele>
|
|
<time>2026-07-10T14:40:49.000Z</time>
|
|
</trkpt>
|
|
<trkpt lat="55.284931" lon="8.657366">
|
|
<ele>-28.540924</ele>
|
|
<time>2026-07-10T14:40:50.000Z</time>
|
|
</trkpt>
|
|
<trkpt lat="55.284974" lon="8.657308">
|
|
<ele>-28.520625</ele>
|
|
<time>2026-07-10T14:40:51.000Z</time>
|
|
</trkpt>
|
|
<trkpt lat="55.285019" lon="8.657253">
|
|
<ele>-28.500099</ele>
|
|
<time>2026-07-10T14:40:52.000Z</time>
|
|
</trkpt>
|
|
<trkpt lat="55.285066" lon="8.657199">
|
|
<ele>-28.479071</ele>
|
|
<time>2026-07-10T14:40:53.000Z</time>
|
|
</trkpt>
|
|
<trkpt lat="55.285112" lon="8.657151">
|
|
<ele>-28.459038</ele>
|
|
<time>2026-07-10T14:40:54.000Z</time>
|
|
</trkpt>
|
|
<trkpt lat="55.285159" lon="8.657102">
|
|
<ele>-28.438575</ele>
|
|
<time>2026-07-10T14:40:55.000Z</time>
|
|
</trkpt>
|
|
<trkpt lat="55.285207" lon="8.657058">
|
|
<ele>-28.418304</ele>
|
|
<time>2026-07-10T14:40:56.000Z</time>
|
|
</trkpt>
|
|
<trkpt lat="55.285254" lon="8.657015">
|
|
<ele>-28.398463</ele>
|
|
<time>2026-07-10T14:40:57.000Z</time>
|
|
</trkpt>
|
|
<trkpt lat="55.285305" lon="8.656976">
|
|
<ele>-28.377637</ele>
|
|
<time>2026-07-10T14:40:58.000Z</time>
|
|
</trkpt>
|
|
<trkpt lat="55.285358" lon="8.656940">
|
|
<ele>-28.356363</ele>
|
|
<time>2026-07-10T14:40:59.000Z</time>
|
|
</trkpt>
|
|
<trkpt lat="55.285412" lon="8.656904">
|
|
<ele>-28.334738</ele>
|
|
<time>2026-07-10T14:41:00.000Z</time>
|
|
</trkpt>
|
|
<trkpt lat="55.285465" lon="8.656872">
|
|
<ele>-28.313756</ele>
|
|
<time>2026-07-10T14:41:01.000Z</time>
|
|
</trkpt>
|
|
<trkpt lat="55.285518" lon="8.656844">
|
|
<ele>-28.293036</ele>
|
|
<time>2026-07-10T14:41:02.000Z</time>
|
|
</trkpt>
|
|
<trkpt lat="55.285572" lon="8.656821">
|
|
<ele>-28.272233</ele>
|
|
<time>2026-07-10T14:41:03.000Z</time>
|
|
</trkpt>
|
|
<trkpt lat="55.285625" lon="8.656800">
|
|
<ele>-28.251892</ele>
|
|
<time>2026-07-10T14:41:04.000Z</time>
|
|
</trkpt>
|
|
<trkpt lat="55.285678" lon="8.656783">
|
|
<ele>-28.231722</ele>
|
|
<time>2026-07-10T14:41:05.000Z</time>
|
|
</trkpt>
|
|
<trkpt lat="55.285733" lon="8.656768">
|
|
<ele>-28.210884</ele>
|
|
<time>2026-07-10T14:41:06.000Z</time>
|
|
</trkpt>
|
|
<trkpt lat="55.285790" lon="8.656756">
|
|
<ele>-28.189392</ele>
|
|
<time>2026-07-10T14:41:07.000Z</time>
|
|
</trkpt>
|
|
<trkpt lat="55.285848" lon="8.656751">
|
|
<ele>-28.165658</ele>
|
|
<time>2026-07-10T14:41:08.000Z</time>
|
|
</trkpt>
|
|
<trkpt lat="55.285905" lon="8.656750">
|
|
<ele>-28.141078</ele>
|
|
<time>2026-07-10T14:41:09.000Z</time>
|
|
</trkpt>
|
|
<trkpt lat="55.285962" lon="8.656749">
|
|
<ele>-28.116498</ele>
|
|
<time>2026-07-10T14:41:10.000Z</time>
|
|
</trkpt>
|
|
<trkpt lat="55.286020" lon="8.656748">
|
|
<ele>-28.091487</ele>
|
|
<time>2026-07-10T14:41:11.000Z</time>
|
|
</trkpt>
|
|
<trkpt lat="55.286079" lon="8.656746">
|
|
<ele>-28.066041</ele>
|
|
<time>2026-07-10T14:41:12.000Z</time>
|
|
</trkpt>
|
|
<trkpt lat="55.286137" lon="8.656746">
|
|
<ele>-28.041031</ele>
|
|
<time>2026-07-10T14:41:13.000Z</time>
|
|
</trkpt>
|
|
<trkpt lat="55.286190" lon="8.656748">
|
|
<ele>-28.018172</ele>
|
|
<time>2026-07-10T14:41:14.000Z</time>
|
|
</trkpt>
|
|
<trkpt lat="55.286244" lon="8.656749">
|
|
<ele>-27.994886</ele>
|
|
<time>2026-07-10T14:41:15.000Z</time>
|
|
</trkpt>
|
|
<trkpt lat="55.286301" lon="8.656749">
|
|
<ele>-27.970307</ele>
|
|
<time>2026-07-10T14:41:16.000Z</time>
|
|
</trkpt>
|
|
<trkpt lat="55.286354" lon="8.656749">
|
|
<ele>-27.947453</ele>
|
|
<time>2026-07-10T14:41:17.000Z</time>
|
|
</trkpt>
|
|
<trkpt lat="55.286409" lon="8.656750">
|
|
<ele>-27.923736</ele>
|
|
<time>2026-07-10T14:41:18.000Z</time>
|
|
</trkpt>
|
|
<trkpt lat="55.286465" lon="8.656751">
|
|
<ele>-27.899587</ele>
|
|
<time>2026-07-10T14:41:19.000Z</time>
|
|
</trkpt>
|
|
<trkpt lat="55.286518" lon="8.656754">
|
|
<ele>-27.876721</ele>
|
|
<time>2026-07-10T14:41:20.000Z</time>
|
|
</trkpt>
|
|
<trkpt lat="55.286573" lon="8.656756">
|
|
<ele>-27.853000</ele>
|
|
<time>2026-07-10T14:41:21.000Z</time>
|
|
</trkpt>
|
|
<trkpt lat="55.286629" lon="8.656756">
|
|
<ele>-27.828852</ele>
|
|
<time>2026-07-10T14:41:22.000Z</time>
|
|
</trkpt>
|
|
<trkpt lat="55.286684" lon="8.656756">
|
|
<ele>-27.805136</ele>
|
|
<time>2026-07-10T14:41:23.000Z</time>
|
|
</trkpt>
|
|
<trkpt lat="55.286741" lon="8.656756">
|
|
<ele>-27.780557</ele>
|
|
<time>2026-07-10T14:41:24.000Z</time>
|
|
</trkpt>
|
|
<trkpt lat="55.286798" lon="8.656760">
|
|
<ele>-27.755959</ele>
|
|
<time>2026-07-10T14:41:25.000Z</time>
|
|
</trkpt>
|
|
<trkpt lat="55.286855" lon="8.656765">
|
|
<ele>-27.731350</ele>
|
|
<time>2026-07-10T14:41:26.000Z</time>
|
|
</trkpt>
|
|
<trkpt lat="55.286912" lon="8.656764">
|
|
<ele>-27.706770</ele>
|
|
<time>2026-07-10T14:41:27.000Z</time>
|
|
</trkpt>
|
|
<trkpt lat="55.286969" lon="8.656762">
|
|
<ele>-27.682186</ele>
|
|
<time>2026-07-10T14:41:28.000Z</time>
|
|
</trkpt>
|
|
<trkpt lat="55.287026" lon="8.656760">
|
|
<ele>-27.657603</ele>
|
|
<time>2026-07-10T14:41:29.000Z</time>
|
|
</trkpt>
|
|
<trkpt lat="55.287083" lon="8.656760">
|
|
<ele>-27.633024</ele>
|
|
<time>2026-07-10T14:41:30.000Z</time>
|
|
</trkpt>
|
|
<trkpt lat="55.287141" lon="8.656758">
|
|
<ele>-27.608009</ele>
|
|
<time>2026-07-10T14:41:31.000Z</time>
|
|
</trkpt>
|
|
<trkpt lat="55.287201" lon="8.656758">
|
|
<ele>-27.582137</ele>
|
|
<time>2026-07-10T14:41:32.000Z</time>
|
|
</trkpt>
|
|
<trkpt lat="55.287264" lon="8.656758">
|
|
<ele>-27.554971</ele>
|
|
<time>2026-07-10T14:41:33.000Z</time>
|
|
</trkpt>
|
|
<trkpt lat="55.287325" lon="8.656758">
|
|
<ele>-27.528667</ele>
|
|
<time>2026-07-10T14:41:34.000Z</time>
|
|
</trkpt>
|
|
<trkpt lat="55.287387" lon="8.656762">
|
|
<ele>-27.501915</ele>
|
|
<time>2026-07-10T14:41:35.000Z</time>
|
|
</trkpt>
|
|
<trkpt lat="55.287447" lon="8.656766">
|
|
<ele>-27.476024</ele>
|
|
<time>2026-07-10T14:41:36.000Z</time>
|
|
</trkpt>
|
|
<trkpt lat="55.287508" lon="8.656772">
|
|
<ele>-27.449679</ele>
|
|
<time>2026-07-10T14:41:37.000Z</time>
|
|
</trkpt>
|
|
<trkpt lat="55.287570" lon="8.656778">
|
|
<ele>-27.422904</ele>
|
|
<time>2026-07-10T14:41:38.000Z</time>
|
|
</trkpt>
|
|
<trkpt lat="55.287631" lon="8.656781">
|
|
<ele>-27.404378</ele>
|
|
<time>2026-07-10T14:41:39.000Z</time>
|
|
</trkpt>
|
|
<trkpt lat="55.287692" lon="8.656784">
|
|
<ele>-27.401854</ele>
|
|
<time>2026-07-10T14:41:40.000Z</time>
|
|
</trkpt>
|
|
<trkpt lat="55.287753" lon="8.656786">
|
|
<ele>-27.399330</ele>
|
|
<time>2026-07-10T14:41:41.000Z</time>
|
|
</trkpt>
|
|
<trkpt lat="55.287812" lon="8.656787">
|
|
<ele>-27.396890</ele>
|
|
<time>2026-07-10T14:41:42.000Z</time>
|
|
</trkpt>
|
|
<trkpt lat="55.287869" lon="8.656786">
|
|
<ele>-27.394532</ele>
|
|
<time>2026-07-10T14:41:43.000Z</time>
|
|
</trkpt>
|
|
<trkpt lat="55.287927" lon="8.656785">
|
|
<ele>-27.392133</ele>
|
|
<time>2026-07-10T14:41:44.000Z</time>
|
|
</trkpt>
|
|
<trkpt lat="55.287987" lon="8.656783">
|
|
<ele>-27.389652</ele>
|
|
<time>2026-07-10T14:41:45.000Z</time>
|
|
</trkpt>
|
|
<trkpt lat="55.288053" lon="8.656784">
|
|
<ele>-27.386922</ele>
|
|
<time>2026-07-10T14:41:46.000Z</time>
|
|
</trkpt>
|
|
<trkpt lat="55.288110" lon="8.656788">
|
|
<ele>-27.384562</ele>
|
|
<time>2026-07-10T14:41:47.000Z</time>
|
|
</trkpt>
|
|
<trkpt lat="55.288167" lon="8.656790">
|
|
<ele>-27.382204</ele>
|
|
<time>2026-07-10T14:41:48.000Z</time>
|
|
</trkpt>
|
|
<trkpt lat="55.288224" lon="8.656792">
|
|
<ele>-27.379847</ele>
|
|
<time>2026-07-10T14:41:49.000Z</time>
|
|
</trkpt>
|
|
<trkpt lat="55.288282" lon="8.656794">
|
|
<ele>-27.377447</ele>
|
|
<time>2026-07-10T14:41:50.000Z</time>
|
|
</trkpt>
|
|
<trkpt lat="55.288339" lon="8.656798">
|
|
<ele>-27.375088</ele>
|
|
<time>2026-07-10T14:41:51.000Z</time>
|
|
</trkpt>
|
|
<trkpt lat="55.288396" lon="8.656801">
|
|
<ele>-27.372729</ele>
|
|
<time>2026-07-10T14:41:52.000Z</time>
|
|
</trkpt>
|
|
<trkpt lat="55.288452" lon="8.656801">
|
|
<ele>-27.370413</ele>
|
|
<time>2026-07-10T14:41:53.000Z</time>
|
|
</trkpt>
|
|
<trkpt lat="55.288506" lon="8.656800">
|
|
<ele>-27.368180</ele>
|
|
<time>2026-07-10T14:41:54.000Z</time>
|
|
</trkpt>
|
|
<trkpt lat="55.288563" lon="8.656798">
|
|
<ele>-27.365822</ele>
|
|
<time>2026-07-10T14:41:55.000Z</time>
|
|
</trkpt>
|
|
<trkpt lat="55.288620" lon="8.656796">
|
|
<ele>-27.363464</ele>
|
|
<time>2026-07-10T14:41:56.000Z</time>
|
|
</trkpt>
|
|
<trkpt lat="55.288675" lon="8.656797">
|
|
<ele>-27.361189</ele>
|
|
<time>2026-07-10T14:41:57.000Z</time>
|
|
</trkpt>
|
|
<trkpt lat="55.288732" lon="8.656800">
|
|
<ele>-27.358831</ele>
|
|
<time>2026-07-10T14:41:58.000Z</time>
|
|
</trkpt>
|
|
<trkpt lat="55.288788" lon="8.656804">
|
|
<ele>-27.356512</ele>
|
|
<time>2026-07-10T14:41:59.000Z</time>
|
|
</trkpt>
|
|
<trkpt lat="55.288843" lon="8.656806">
|
|
<ele>-27.354237</ele>
|
|
<time>2026-07-10T14:42:00.000Z</time>
|
|
</trkpt>
|
|
<trkpt lat="55.288898" lon="8.656811">
|
|
<ele>-27.351959</ele>
|
|
<time>2026-07-10T14:42:01.000Z</time>
|
|
</trkpt>
|
|
<trkpt lat="55.288951" lon="8.656816">
|
|
<ele>-27.349764</ele>
|
|
<time>2026-07-10T14:42:02.000Z</time>
|
|
</trkpt>
|
|
<trkpt lat="55.289007" lon="8.656822">
|
|
<ele>-27.347444</ele>
|
|
<time>2026-07-10T14:42:03.000Z</time>
|
|
</trkpt>
|
|
<trkpt lat="55.289064" lon="8.656823">
|
|
<ele>-27.345086</ele>
|
|
<time>2026-07-10T14:42:04.000Z</time>
|
|
</trkpt>
|
|
<trkpt lat="55.289121" lon="8.656823">
|
|
<ele>-27.342729</ele>
|
|
<time>2026-07-10T14:42:05.000Z</time>
|
|
</trkpt>
|
|
<trkpt lat="55.289179" lon="8.656822">
|
|
<ele>-27.340330</ele>
|
|
<time>2026-07-10T14:42:06.000Z</time>
|
|
</trkpt>
|
|
<trkpt lat="55.289239" lon="8.656824">
|
|
<ele>-27.337848</ele>
|
|
<time>2026-07-10T14:42:07.000Z</time>
|
|
</trkpt>
|
|
<trkpt lat="55.289297" lon="8.656824">
|
|
<ele>-27.335449</ele>
|
|
<time>2026-07-10T14:42:08.000Z</time>
|
|
</trkpt>
|
|
<trkpt lat="55.289355" lon="8.656826">
|
|
<ele>-27.333050</ele>
|
|
<time>2026-07-10T14:42:09.000Z</time>
|
|
</trkpt>
|
|
<trkpt lat="55.289414" lon="8.656828">
|
|
<ele>-27.329111</ele>
|
|
<time>2026-07-10T14:42:10.000Z</time>
|
|
</trkpt>
|
|
<trkpt lat="55.289473" lon="8.656830">
|
|
<ele>-27.308790</ele>
|
|
<time>2026-07-10T14:42:11.000Z</time>
|
|
</trkpt>
|
|
<trkpt lat="55.289531" lon="8.656832">
|
|
<ele>-27.288813</ele>
|
|
<time>2026-07-10T14:42:12.000Z</time>
|
|
</trkpt>
|
|
<trkpt lat="55.289587" lon="8.656834">
|
|
<ele>-27.269525</ele>
|
|
<time>2026-07-10T14:42:13.000Z</time>
|
|
</trkpt>
|
|
<trkpt lat="55.289647" lon="8.656835">
|
|
<ele>-27.248863</ele>
|
|
<time>2026-07-10T14:42:14.000Z</time>
|
|
</trkpt>
|
|
<trkpt lat="55.289704" lon="8.656835">
|
|
<ele>-27.229234</ele>
|
|
<time>2026-07-10T14:42:15.000Z</time>
|
|
</trkpt>
|
|
<trkpt lat="55.289766" lon="8.656834">
|
|
<ele>-27.207883</ele>
|
|
<time>2026-07-10T14:42:16.000Z</time>
|
|
</trkpt>
|
|
<trkpt lat="55.289822" lon="8.656834">
|
|
<ele>-27.188599</ele>
|
|
<time>2026-07-10T14:42:17.000Z</time>
|
|
</trkpt>
|
|
<trkpt lat="55.289878" lon="8.656837">
|
|
<ele>-27.169306</ele>
|
|
<time>2026-07-10T14:42:18.000Z</time>
|
|
</trkpt>
|
|
<trkpt lat="55.289937" lon="8.656839">
|
|
<ele>-27.148985</ele>
|
|
<time>2026-07-10T14:42:19.000Z</time>
|
|
</trkpt>
|
|
<trkpt lat="55.289994" lon="8.656842">
|
|
<ele>-27.129347</ele>
|
|
<time>2026-07-10T14:42:20.000Z</time>
|
|
</trkpt>
|
|
<trkpt lat="55.290054" lon="8.656844">
|
|
<ele>-27.108682</ele>
|
|
<time>2026-07-10T14:42:21.000Z</time>
|
|
</trkpt>
|
|
<trkpt lat="55.290118" lon="8.656848">
|
|
<ele>-27.086629</ele>
|
|
<time>2026-07-10T14:42:22.000Z</time>
|
|
</trkpt>
|
|
<trkpt lat="55.290178" lon="8.656851">
|
|
<ele>-27.065959</ele>
|
|
<time>2026-07-10T14:42:23.000Z</time>
|
|
</trkpt>
|
|
<trkpt lat="55.290236" lon="8.656854">
|
|
<ele>-27.045978</ele>
|
|
<time>2026-07-10T14:42:24.000Z</time>
|
|
</trkpt>
|
|
<trkpt lat="55.290298" lon="8.656854">
|
|
<ele>-27.024627</ele>
|
|
<time>2026-07-10T14:42:25.000Z</time>
|
|
</trkpt>
|
|
<trkpt lat="55.290363" lon="8.656853">
|
|
<ele>-27.002243</ele>
|
|
<time>2026-07-10T14:42:26.000Z</time>
|
|
</trkpt>
|
|
<trkpt lat="55.290428" lon="8.656851">
|
|
<ele>-26.979856</ele>
|
|
<time>2026-07-10T14:42:27.000Z</time>
|
|
</trkpt>
|
|
<trkpt lat="55.290492" lon="8.656850">
|
|
<ele>-26.957816</ele>
|
|
<time>2026-07-10T14:42:28.000Z</time>
|
|
</trkpt>
|
|
<trkpt lat="55.290553" lon="8.656852">
|
|
<ele>-26.936807</ele>
|
|
<time>2026-07-10T14:42:29.000Z</time>
|
|
</trkpt>
|
|
<trkpt lat="55.290612" lon="8.656854">
|
|
<ele>-26.916486</ele>
|
|
<time>2026-07-10T14:42:30.000Z</time>
|
|
</trkpt>
|
|
<trkpt lat="55.290672" lon="8.656855">
|
|
<ele>-26.895823</ele>
|
|
<time>2026-07-10T14:42:31.000Z</time>
|
|
</trkpt>
|
|
<trkpt lat="55.290734" lon="8.656854">
|
|
<ele>-26.874472</ele>
|
|
<time>2026-07-10T14:42:32.000Z</time>
|
|
</trkpt>
|
|
<trkpt lat="55.290792" lon="8.656854">
|
|
<ele>-26.854499</ele>
|
|
<time>2026-07-10T14:42:33.000Z</time>
|
|
</trkpt>
|
|
<trkpt lat="55.290853" lon="8.656853">
|
|
<ele>-26.833492</ele>
|
|
<time>2026-07-10T14:42:34.000Z</time>
|
|
</trkpt>
|
|
<trkpt lat="55.290915" lon="8.656851">
|
|
<ele>-26.812138</ele>
|
|
<time>2026-07-10T14:42:35.000Z</time>
|
|
</trkpt>
|
|
<trkpt lat="55.290974" lon="8.656851">
|
|
<ele>-26.791821</ele>
|
|
<time>2026-07-10T14:42:36.000Z</time>
|
|
</trkpt>
|
|
<trkpt lat="55.291032" lon="8.656854">
|
|
<ele>-26.771840</ele>
|
|
<time>2026-07-10T14:42:37.000Z</time>
|
|
</trkpt>
|
|
<trkpt lat="55.291090" lon="8.656854">
|
|
<ele>-26.751867</ele>
|
|
<time>2026-07-10T14:42:38.000Z</time>
|
|
</trkpt>
|
|
<trkpt lat="55.291149" lon="8.656854">
|
|
<ele>-26.731550</ele>
|
|
<time>2026-07-10T14:42:39.000Z</time>
|
|
</trkpt>
|
|
<trkpt lat="55.291207" lon="8.656856">
|
|
<ele>-26.711573</ele>
|
|
<time>2026-07-10T14:42:40.000Z</time>
|
|
</trkpt>
|
|
<trkpt lat="55.291267" lon="8.656861">
|
|
<ele>-26.700031</ele>
|
|
<time>2026-07-10T14:42:41.000Z</time>
|
|
</trkpt>
|
|
<trkpt lat="55.291330" lon="8.656869">
|
|
<ele>-26.687959</ele>
|
|
<time>2026-07-10T14:42:42.000Z</time>
|
|
</trkpt>
|
|
<trkpt lat="55.291389" lon="8.656875">
|
|
<ele>-26.676665</ele>
|
|
<time>2026-07-10T14:42:43.000Z</time>
|
|
</trkpt>
|
|
<trkpt lat="55.291446" lon="8.656879">
|
|
<ele>-26.665762</ele>
|
|
<time>2026-07-10T14:42:44.000Z</time>
|
|
</trkpt>
|
|
<trkpt lat="55.291510" lon="8.656867">
|
|
<ele>-26.653461</ele>
|
|
<time>2026-07-10T14:42:45.000Z</time>
|
|
</trkpt>
|
|
<trkpt lat="55.291568" lon="8.656843">
|
|
<ele>-26.642073</ele>
|
|
<time>2026-07-10T14:42:46.000Z</time>
|
|
</trkpt>
|
|
<trkpt lat="55.291618" lon="8.656814">
|
|
<ele>-26.632010</ele>
|
|
<time>2026-07-10T14:42:47.000Z</time>
|
|
</trkpt>
|
|
<trkpt lat="55.291662" lon="8.656791">
|
|
<ele>-26.623236</ele>
|
|
<time>2026-07-10T14:42:48.000Z</time>
|
|
</trkpt>
|
|
<trkpt lat="55.291700" lon="8.656780">
|
|
<ele>-26.615876</ele>
|
|
<time>2026-07-10T14:42:49.000Z</time>
|
|
</trkpt>
|
|
<trkpt lat="55.291733" lon="8.656774">
|
|
<ele>-26.609535</ele>
|
|
<time>2026-07-10T14:42:50.000Z</time>
|
|
</trkpt>
|
|
<trkpt lat="55.291757" lon="8.656765">
|
|
<ele>-26.604845</ele>
|
|
<time>2026-07-10T14:42:51.000Z</time>
|
|
</trkpt>
|
|
<trkpt lat="55.291774" lon="8.656749">
|
|
<ele>-26.601159</ele>
|
|
<time>2026-07-10T14:42:52.000Z</time>
|
|
</trkpt>
|
|
<trkpt lat="55.291785" lon="8.656723">
|
|
<ele>-26.597634</ele>
|
|
<time>2026-07-10T14:42:53.000Z</time>
|
|
</trkpt>
|
|
<trkpt lat="55.291793" lon="8.656696">
|
|
<ele>-26.594322</ele>
|
|
<time>2026-07-10T14:42:54.000Z</time>
|
|
</trkpt>
|
|
<trkpt lat="55.291805" lon="8.656673">
|
|
<ele>-26.590927</ele>
|
|
<time>2026-07-10T14:42:55.000Z</time>
|
|
</trkpt>
|
|
<trkpt lat="55.291820" lon="8.656663">
|
|
<ele>-26.587861</ele>
|
|
<time>2026-07-10T14:42:56.000Z</time>
|
|
</trkpt>
|
|
<trkpt lat="55.291830" lon="8.656665">
|
|
<ele>-26.585937</ele>
|
|
<time>2026-07-10T14:42:57.000Z</time>
|
|
</trkpt>
|
|
<trkpt lat="55.291837" lon="8.656670">
|
|
<ele>-26.584493</ele>
|
|
<time>2026-07-10T14:42:58.000Z</time>
|
|
</trkpt>
|
|
<trkpt lat="55.291922" lon="8.656562">
|
|
<ele>-26.564443</ele>
|
|
<time>2026-07-10T14:46:07.000Z</time>
|
|
</trkpt>
|
|
<trkpt lat="55.291946" lon="8.656537">
|
|
<ele>-26.559110</ele>
|
|
<time>2026-07-10T14:46:08.000Z</time>
|
|
</trkpt>
|
|
<trkpt lat="55.291973" lon="8.656508">
|
|
<ele>-26.553061</ele>
|
|
<time>2026-07-10T14:46:09.000Z</time>
|
|
</trkpt>
|
|
<trkpt lat="55.291999" lon="8.656479">
|
|
<ele>-26.547175</ele>
|
|
<time>2026-07-10T14:46:10.000Z</time>
|
|
</trkpt>
|
|
<trkpt lat="55.292034" lon="8.656451">
|
|
<ele>-26.539824</ele>
|
|
<time>2026-07-10T14:46:11.000Z</time>
|
|
</trkpt>
|
|
<trkpt lat="55.292074" lon="8.656425">
|
|
<ele>-26.531673</ele>
|
|
<time>2026-07-10T14:46:12.000Z</time>
|
|
</trkpt>
|
|
<trkpt lat="55.292119" lon="8.656396">
|
|
<ele>-26.522512</ele>
|
|
<time>2026-07-10T14:46:13.000Z</time>
|
|
</trkpt>
|
|
<trkpt lat="55.292167" lon="8.656360">
|
|
<ele>-26.512537</ele>
|
|
<time>2026-07-10T14:46:14.000Z</time>
|
|
</trkpt>
|
|
<trkpt lat="55.292223" lon="8.656323">
|
|
<ele>-26.501102</ele>
|
|
<time>2026-07-10T14:46:15.000Z</time>
|
|
</trkpt>
|
|
<trkpt lat="55.292284" lon="8.656288">
|
|
<ele>-26.488838</ele>
|
|
<time>2026-07-10T14:46:16.000Z</time>
|
|
</trkpt>
|
|
<trkpt lat="55.292345" lon="8.656247">
|
|
<ele>-26.476355</ele>
|
|
<time>2026-07-10T14:46:17.000Z</time>
|
|
</trkpt>
|
|
<trkpt lat="55.292405" lon="8.656203">
|
|
<ele>-26.463929</ele>
|
|
<time>2026-07-10T14:46:18.000Z</time>
|
|
</trkpt>
|
|
<trkpt lat="55.292464" lon="8.656160">
|
|
<ele>-26.451721</ele>
|
|
<time>2026-07-10T14:46:19.000Z</time>
|
|
</trkpt>
|
|
<trkpt lat="55.292524" lon="8.656118">
|
|
<ele>-26.439376</ele>
|
|
<time>2026-07-10T14:46:20.000Z</time>
|
|
</trkpt>
|
|
<trkpt lat="55.292581" lon="8.656076">
|
|
<ele>-26.427563</ele>
|
|
<time>2026-07-10T14:46:21.000Z</time>
|
|
</trkpt>
|
|
<trkpt lat="55.292638" lon="8.656036">
|
|
<ele>-26.415832</ele>
|
|
<time>2026-07-10T14:46:22.000Z</time>
|
|
</trkpt>
|
|
<trkpt lat="55.292699" lon="8.655995">
|
|
<ele>-26.403349</ele>
|
|
<time>2026-07-10T14:46:23.000Z</time>
|
|
</trkpt>
|
|
<trkpt lat="55.292755" lon="8.655957">
|
|
<ele>-26.391876</ele>
|
|
<time>2026-07-10T14:46:24.000Z</time>
|
|
</trkpt>
|
|
<trkpt lat="55.292810" lon="8.655923">
|
|
<ele>-26.380732</ele>
|
|
<time>2026-07-10T14:46:25.000Z</time>
|
|
</trkpt>
|
|
<trkpt lat="55.292868" lon="8.655893">
|
|
<ele>-26.369177</ele>
|
|
<time>2026-07-10T14:46:26.000Z</time>
|
|
</trkpt>
|
|
<trkpt lat="55.292926" lon="8.655864">
|
|
<ele>-26.364601</ele>
|
|
<time>2026-07-10T14:46:27.000Z</time>
|
|
</trkpt>
|
|
<trkpt lat="55.292982" lon="8.655837">
|
|
<ele>-26.361190</ele>
|
|
<time>2026-07-10T14:46:28.000Z</time>
|
|
</trkpt>
|
|
<trkpt lat="55.293042" lon="8.655815">
|
|
<ele>-26.357589</ele>
|
|
<time>2026-07-10T14:46:29.000Z</time>
|
|
</trkpt>
|
|
<trkpt lat="55.293103" lon="8.655798">
|
|
<ele>-26.353961</ele>
|
|
<time>2026-07-10T14:46:30.000Z</time>
|
|
</trkpt>
|
|
<trkpt lat="55.293163" lon="8.655785">
|
|
<ele>-26.350410</ele>
|
|
<time>2026-07-10T14:46:31.000Z</time>
|
|
</trkpt>
|
|
<trkpt lat="55.293220" lon="8.655774">
|
|
<ele>-26.347042</ele>
|
|
<time>2026-07-10T14:46:32.000Z</time>
|
|
</trkpt>
|
|
<trkpt lat="55.293280" lon="8.655765">
|
|
<ele>-26.343504</ele>
|
|
<time>2026-07-10T14:46:33.000Z</time>
|
|
</trkpt>
|
|
<trkpt lat="55.293341" lon="8.655761">
|
|
<ele>-26.339919</ele>
|
|
<time>2026-07-10T14:46:34.000Z</time>
|
|
</trkpt>
|
|
<trkpt lat="55.293401" lon="8.655759">
|
|
<ele>-26.336394</ele>
|
|
<time>2026-07-10T14:46:35.000Z</time>
|
|
</trkpt>
|
|
<trkpt lat="55.293459" lon="8.655756">
|
|
<ele>-26.332985</ele>
|
|
<time>2026-07-10T14:46:36.000Z</time>
|
|
</trkpt>
|
|
<trkpt lat="55.293521" lon="8.655754">
|
|
<ele>-26.329343</ele>
|
|
<time>2026-07-10T14:46:37.000Z</time>
|
|
</trkpt>
|
|
<trkpt lat="55.293581" lon="8.655747">
|
|
<ele>-26.325810</ele>
|
|
<time>2026-07-10T14:46:38.000Z</time>
|
|
</trkpt>
|
|
<trkpt lat="55.293639" lon="8.655736">
|
|
<ele>-26.322384</ele>
|
|
<time>2026-07-10T14:46:39.000Z</time>
|
|
</trkpt>
|
|
<trkpt lat="55.293700" lon="8.655724">
|
|
<ele>-26.318778</ele>
|
|
<time>2026-07-10T14:46:40.000Z</time>
|
|
</trkpt>
|
|
<trkpt lat="55.293760" lon="8.655719">
|
|
<ele>-26.315250</ele>
|
|
<time>2026-07-10T14:46:41.000Z</time>
|
|
</trkpt>
|
|
<trkpt lat="55.293818" lon="8.655720">
|
|
<ele>-26.311842</ele>
|
|
<time>2026-07-10T14:46:42.000Z</time>
|
|
</trkpt>
|
|
<trkpt lat="55.293877" lon="8.655725">
|
|
<ele>-26.308373</ele>
|
|
<time>2026-07-10T14:46:43.000Z</time>
|
|
</trkpt>
|
|
<trkpt lat="55.293936" lon="8.655731">
|
|
<ele>-26.304901</ele>
|
|
<time>2026-07-10T14:46:44.000Z</time>
|
|
</trkpt>
|
|
<trkpt lat="55.293997" lon="8.655735">
|
|
<ele>-26.301315</ele>
|
|
<time>2026-07-10T14:46:45.000Z</time>
|
|
</trkpt>
|
|
<trkpt lat="55.294058" lon="8.655743">
|
|
<ele>-26.297722</ele>
|
|
<time>2026-07-10T14:46:46.000Z</time>
|
|
</trkpt>
|
|
<trkpt lat="55.294117" lon="8.655755">
|
|
<ele>-26.294233</ele>
|
|
<time>2026-07-10T14:46:47.000Z</time>
|
|
</trkpt>
|
|
<trkpt lat="55.294170" lon="8.655770">
|
|
<ele>-26.291080</ele>
|
|
<time>2026-07-10T14:46:48.000Z</time>
|
|
</trkpt>
|
|
<trkpt lat="55.294223" lon="8.655789">
|
|
<ele>-26.287903</ele>
|
|
<time>2026-07-10T14:46:49.000Z</time>
|
|
</trkpt>
|
|
<trkpt lat="55.294275" lon="8.655809">
|
|
<ele>-26.284776</ele>
|
|
<time>2026-07-10T14:46:50.000Z</time>
|
|
</trkpt>
|
|
<trkpt lat="55.294326" lon="8.655833">
|
|
<ele>-26.281674</ele>
|
|
<time>2026-07-10T14:46:51.000Z</time>
|
|
</trkpt>
|
|
<trkpt lat="55.294376" lon="8.655863">
|
|
<ele>-26.278570</ele>
|
|
<time>2026-07-10T14:46:52.000Z</time>
|
|
</trkpt>
|
|
<trkpt lat="55.294415" lon="8.655891">
|
|
<ele>-26.276096</ele>
|
|
<time>2026-07-10T14:46:53.000Z</time>
|
|
</trkpt>
|
|
<trkpt lat="55.294474" lon="8.655929">
|
|
<ele>-26.272404</ele>
|
|
<time>2026-07-10T14:46:54.000Z</time>
|
|
</trkpt>
|
|
<trkpt lat="55.294532" lon="8.655964">
|
|
<ele>-26.268802</ele>
|
|
<time>2026-07-10T14:46:55.000Z</time>
|
|
</trkpt>
|
|
<trkpt lat="55.294586" lon="8.655995">
|
|
<ele>-26.265465</ele>
|
|
<time>2026-07-10T14:46:56.000Z</time>
|
|
</trkpt>
|
|
<trkpt lat="55.294638" lon="8.656024">
|
|
<ele>-26.262260</ele>
|
|
<time>2026-07-10T14:46:57.000Z</time>
|
|
</trkpt>
|
|
<trkpt lat="55.294689" lon="8.656054">
|
|
<ele>-26.193082</ele>
|
|
<time>2026-07-10T14:46:58.000Z</time>
|
|
</trkpt>
|
|
<trkpt lat="55.294742" lon="8.656086">
|
|
<ele>-26.115618</ele>
|
|
<time>2026-07-10T14:46:59.000Z</time>
|
|
</trkpt>
|
|
<trkpt lat="55.294795" lon="8.656121">
|
|
<ele>-26.037355</ele>
|
|
<time>2026-07-10T14:47:00.000Z</time>
|
|
</trkpt>
|
|
<trkpt lat="55.294846" lon="8.656157">
|
|
<ele>-25.961383</ele>
|
|
<time>2026-07-10T14:47:01.000Z</time>
|
|
</trkpt>
|
|
<trkpt lat="55.294898" lon="8.656193">
|
|
<ele>-25.884127</ele>
|
|
<time>2026-07-10T14:47:02.000Z</time>
|
|
</trkpt>
|
|
<trkpt lat="55.294951" lon="8.656228">
|
|
<ele>-25.805864</ele>
|
|
<time>2026-07-10T14:47:03.000Z</time>
|
|
</trkpt>
|
|
<trkpt lat="55.295006" lon="8.656265">
|
|
<ele>-25.724458</ele>
|
|
<time>2026-07-10T14:47:04.000Z</time>
|
|
</trkpt>
|
|
<trkpt lat="55.295059" lon="8.656300">
|
|
<ele>-25.646195</ele>
|
|
<time>2026-07-10T14:47:05.000Z</time>
|
|
</trkpt>
|
|
<trkpt lat="55.295113" lon="8.656336">
|
|
<ele>-25.566361</ele>
|
|
<time>2026-07-10T14:47:06.000Z</time>
|
|
</trkpt>
|
|
<trkpt lat="55.295166" lon="8.656372">
|
|
<ele>-25.487818</ele>
|
|
<time>2026-07-10T14:47:07.000Z</time>
|
|
</trkpt>
|
|
<trkpt lat="55.295219" lon="8.656406">
|
|
<ele>-25.409828</ele>
|
|
<time>2026-07-10T14:47:08.000Z</time>
|
|
</trkpt>
|
|
<trkpt lat="55.295272" lon="8.656438">
|
|
<ele>-25.332365</ele>
|
|
<time>2026-07-10T14:47:09.000Z</time>
|
|
</trkpt>
|
|
<trkpt lat="55.295326" lon="8.656468">
|
|
<ele>-25.254082</ele>
|
|
<time>2026-07-10T14:47:10.000Z</time>
|
|
</trkpt>
|
|
<trkpt lat="55.295377" lon="8.656495">
|
|
<ele>-25.180457</ele>
|
|
<time>2026-07-10T14:47:11.000Z</time>
|
|
</trkpt>
|
|
<trkpt lat="55.295425" lon="8.656517">
|
|
<ele>-25.111890</ele>
|
|
<time>2026-07-10T14:47:12.000Z</time>
|
|
</trkpt>
|
|
<trkpt lat="55.295476" lon="8.656536">
|
|
<ele>-25.039830</ele>
|
|
<time>2026-07-10T14:47:13.000Z</time>
|
|
</trkpt>
|
|
<trkpt lat="55.295521" lon="8.656552">
|
|
<ele>-24.976370</ele>
|
|
<time>2026-07-10T14:47:14.000Z</time>
|
|
</trkpt>
|
|
<trkpt lat="55.295562" lon="8.656563">
|
|
<ele>-24.919043</ele>
|
|
<time>2026-07-10T14:47:15.000Z</time>
|
|
</trkpt>
|
|
<trkpt lat="55.295598" lon="8.656567">
|
|
<ele>-24.869185</ele>
|
|
<time>2026-07-10T14:47:16.000Z</time>
|
|
</trkpt>
|
|
<trkpt lat="55.295628" lon="8.656569">
|
|
<ele>-24.827689</ele>
|
|
<time>2026-07-10T14:47:17.000Z</time>
|
|
</trkpt>
|
|
<trkpt lat="55.295658" lon="8.656571">
|
|
<ele>-24.786193</ele>
|
|
<time>2026-07-10T14:47:18.000Z</time>
|
|
</trkpt>
|
|
<trkpt lat="55.295685" lon="8.656571">
|
|
<ele>-24.748874</ele>
|
|
<time>2026-07-10T14:47:19.000Z</time>
|
|
</trkpt>
|
|
<trkpt lat="55.295712" lon="8.656565">
|
|
<ele>-24.711258</ele>
|
|
<time>2026-07-10T14:47:20.000Z</time>
|
|
</trkpt>
|
|
<trkpt lat="55.295726" lon="8.656558">
|
|
<ele>-24.691138</ele>
|
|
<time>2026-07-10T14:47:21.000Z</time>
|
|
</trkpt>
|
|
<trkpt lat="55.295749" lon="8.656544">
|
|
<ele>-24.657493</ele>
|
|
<time>2026-07-10T14:47:22.000Z</time>
|
|
</trkpt>
|
|
<trkpt lat="55.295760" lon="8.656537">
|
|
<ele>-24.641322</ele>
|
|
<time>2026-07-10T14:47:23.000Z</time>
|
|
</trkpt>
|
|
<trkpt lat="55.295772" lon="8.656535">
|
|
<ele>-24.624661</ele>
|
|
<time>2026-07-10T14:47:24.000Z</time>
|
|
</trkpt>
|
|
<trkpt lat="55.295781" lon="8.656536">
|
|
<ele>-24.612196</ele>
|
|
<time>2026-07-10T14:47:25.000Z</time>
|
|
</trkpt>
|
|
<trkpt lat="55.295760" lon="8.657012">
|
|
<ele>-24.236491</ele>
|
|
<time>2026-07-10T14:49:40.000Z</time>
|
|
</trkpt>
|
|
<trkpt lat="55.295754" lon="8.657063">
|
|
<ele>-24.195509</ele>
|
|
<time>2026-07-10T14:49:41.000Z</time>
|
|
</trkpt>
|
|
<trkpt lat="55.295744" lon="8.657152">
|
|
<ele>-24.124121</ele>
|
|
<time>2026-07-10T14:49:42.000Z</time>
|
|
</trkpt>
|
|
<trkpt lat="55.295736" lon="8.657227">
|
|
<ele>-24.064074</ele>
|
|
<time>2026-07-10T14:49:43.000Z</time>
|
|
</trkpt>
|
|
<trkpt lat="55.295728" lon="8.657310">
|
|
<ele>-23.997829</ele>
|
|
<time>2026-07-10T14:49:44.000Z</time>
|
|
</trkpt>
|
|
<trkpt lat="55.295721" lon="8.657400">
|
|
<ele>-23.926346</ele>
|
|
<time>2026-07-10T14:49:45.000Z</time>
|
|
</trkpt>
|
|
<trkpt lat="55.295712" lon="8.657493">
|
|
<ele>-23.852111</ele>
|
|
<time>2026-07-10T14:49:46.000Z</time>
|
|
</trkpt>
|
|
<trkpt lat="55.295701" lon="8.657592">
|
|
<ele>-23.777004</ele>
|
|
<time>2026-07-10T14:49:47.000Z</time>
|
|
</trkpt>
|
|
<trkpt lat="55.295689" lon="8.657693">
|
|
<ele>-23.803256</ele>
|
|
<time>2026-07-10T14:49:48.000Z</time>
|
|
</trkpt>
|
|
<trkpt lat="55.295679" lon="8.657798">
|
|
<ele>-23.830343</ele>
|
|
<time>2026-07-10T14:49:49.000Z</time>
|
|
</trkpt>
|
|
<trkpt lat="55.295670" lon="8.657904">
|
|
<ele>-23.857612</ele>
|
|
<time>2026-07-10T14:49:50.000Z</time>
|
|
</trkpt>
|
|
<trkpt lat="55.295659" lon="8.658007">
|
|
<ele>-23.884276</ele>
|
|
<time>2026-07-10T14:49:51.000Z</time>
|
|
</trkpt>
|
|
<trkpt lat="55.295648" lon="8.658109">
|
|
<ele>-23.910690</ele>
|
|
<time>2026-07-10T14:49:52.000Z</time>
|
|
</trkpt>
|
|
<trkpt lat="55.295640" lon="8.658210">
|
|
<ele>-23.936636</ele>
|
|
<time>2026-07-10T14:49:53.000Z</time>
|
|
</trkpt>
|
|
<trkpt lat="55.295628" lon="8.658310">
|
|
<ele>-23.962639</ele>
|
|
<time>2026-07-10T14:49:54.000Z</time>
|
|
</trkpt>
|
|
<trkpt lat="55.295618" lon="8.658407">
|
|
<ele>-23.987720</ele>
|
|
<time>2026-07-10T14:49:55.000Z</time>
|
|
</trkpt>
|
|
<trkpt lat="55.295609" lon="8.658504">
|
|
<ele>-24.012726</ele>
|
|
<time>2026-07-10T14:49:56.000Z</time>
|
|
</trkpt>
|
|
<trkpt lat="55.295598" lon="8.658601">
|
|
<ele>-24.037892</ele>
|
|
<time>2026-07-10T14:49:57.000Z</time>
|
|
</trkpt>
|
|
<trkpt lat="55.295586" lon="8.658700">
|
|
<ele>-24.063646</ele>
|
|
<time>2026-07-10T14:49:58.000Z</time>
|
|
</trkpt>
|
|
<trkpt lat="55.295575" lon="8.658799">
|
|
<ele>-24.089310</ele>
|
|
<time>2026-07-10T14:49:59.000Z</time>
|
|
</trkpt>
|
|
<trkpt lat="55.295563" lon="8.658895">
|
|
<ele>-24.114318</ele>
|
|
<time>2026-07-10T14:50:00.000Z</time>
|
|
</trkpt>
|
|
<trkpt lat="55.295553" lon="8.658988">
|
|
<ele>-24.138399</ele>
|
|
<time>2026-07-10T14:50:01.000Z</time>
|
|
</trkpt>
|
|
<trkpt lat="55.295544" lon="8.659095">
|
|
<ele>-24.165919</ele>
|
|
<time>2026-07-10T14:50:02.000Z</time>
|
|
</trkpt>
|
|
<trkpt lat="55.295533" lon="8.659196">
|
|
<ele>-24.192084</ele>
|
|
<time>2026-07-10T14:50:03.000Z</time>
|
|
</trkpt>
|
|
<trkpt lat="55.295521" lon="8.659298">
|
|
<ele>-24.218585</ele>
|
|
<time>2026-07-10T14:50:04.000Z</time>
|
|
</trkpt>
|
|
<trkpt lat="55.295510" lon="8.659400">
|
|
<ele>-24.244999</ele>
|
|
<time>2026-07-10T14:50:05.000Z</time>
|
|
</trkpt>
|
|
<trkpt lat="55.295497" lon="8.659500">
|
|
<ele>-24.271098</ele>
|
|
<time>2026-07-10T14:50:06.000Z</time>
|
|
</trkpt>
|
|
<trkpt lat="55.295484" lon="8.659600">
|
|
<ele>-24.297196</ele>
|
|
<time>2026-07-10T14:50:07.000Z</time>
|
|
</trkpt>
|
|
<trkpt lat="55.295475" lon="8.659701">
|
|
<ele>-24.323207</ele>
|
|
<time>2026-07-10T14:50:08.000Z</time>
|
|
</trkpt>
|
|
<trkpt lat="55.295464" lon="8.659800">
|
|
<ele>-24.348872</ele>
|
|
<time>2026-07-10T14:50:09.000Z</time>
|
|
</trkpt>
|
|
<trkpt lat="55.295453" lon="8.659899">
|
|
<ele>-24.374537</ele>
|
|
<time>2026-07-10T14:50:10.000Z</time>
|
|
</trkpt>
|
|
<trkpt lat="55.295441" lon="8.660000">
|
|
<ele>-24.400789</ele>
|
|
<time>2026-07-10T14:50:11.000Z</time>
|
|
</trkpt>
|
|
<trkpt lat="55.295430" lon="8.660100">
|
|
<ele>-24.426703</ele>
|
|
<time>2026-07-10T14:50:12.000Z</time>
|
|
</trkpt>
|
|
<trkpt lat="55.295418" lon="8.660200">
|
|
<ele>-24.452706</ele>
|
|
<time>2026-07-10T14:50:13.000Z</time>
|
|
</trkpt>
|
|
<trkpt lat="55.295408" lon="8.660302">
|
|
<ele>-24.479041</ele>
|
|
<time>2026-07-10T14:50:14.000Z</time>
|
|
</trkpt>
|
|
<trkpt lat="55.295399" lon="8.660400">
|
|
<ele>-24.504298</ele>
|
|
<time>2026-07-10T14:50:15.000Z</time>
|
|
</trkpt>
|
|
<trkpt lat="55.295388" lon="8.660502">
|
|
<ele>-24.530712</ele>
|
|
<time>2026-07-10T14:50:16.000Z</time>
|
|
</trkpt>
|
|
<trkpt lat="55.295377" lon="8.660605">
|
|
<ele>-24.557377</ele>
|
|
<time>2026-07-10T14:50:17.000Z</time>
|
|
</trkpt>
|
|
<trkpt lat="55.295370" lon="8.660706">
|
|
<ele>-24.580381</ele>
|
|
<time>2026-07-10T14:50:18.000Z</time>
|
|
</trkpt>
|
|
<trkpt lat="55.295362" lon="8.660807">
|
|
<ele>-24.584912</ele>
|
|
<time>2026-07-10T14:50:19.000Z</time>
|
|
</trkpt>
|
|
<trkpt lat="55.295356" lon="8.660910">
|
|
<ele>-24.589512</ele>
|
|
<time>2026-07-10T14:50:20.000Z</time>
|
|
</trkpt>
|
|
<trkpt lat="55.295351" lon="8.661011">
|
|
<ele>-24.594017</ele>
|
|
<time>2026-07-10T14:50:21.000Z</time>
|
|
</trkpt>
|
|
<trkpt lat="55.295344" lon="8.661111">
|
|
<ele>-24.598493</ele>
|
|
<time>2026-07-10T14:50:22.000Z</time>
|
|
</trkpt>
|
|
<trkpt lat="55.295340" lon="8.661213">
|
|
<ele>-24.603036</ele>
|
|
<time>2026-07-10T14:50:23.000Z</time>
|
|
</trkpt>
|
|
<trkpt lat="55.295336" lon="8.661315">
|
|
<ele>-24.607579</ele>
|
|
<time>2026-07-10T14:50:24.000Z</time>
|
|
</trkpt>
|
|
<trkpt lat="55.295330" lon="8.661418">
|
|
<ele>-24.612179</ele>
|
|
<time>2026-07-10T14:50:25.000Z</time>
|
|
</trkpt>
|
|
<trkpt lat="55.295329" lon="8.661521">
|
|
<ele>-24.616756</ele>
|
|
<time>2026-07-10T14:50:26.000Z</time>
|
|
</trkpt>
|
|
<trkpt lat="55.295325" lon="8.661625">
|
|
<ele>-24.621388</ele>
|
|
<time>2026-07-10T14:50:27.000Z</time>
|
|
</trkpt>
|
|
<trkpt lat="55.295321" lon="8.661730">
|
|
<ele>-24.626063</ele>
|
|
<time>2026-07-10T14:50:28.000Z</time>
|
|
</trkpt>
|
|
<trkpt lat="55.295317" lon="8.661835">
|
|
<ele>-24.630739</ele>
|
|
<time>2026-07-10T14:50:29.000Z</time>
|
|
</trkpt>
|
|
<trkpt lat="55.295315" lon="8.661941">
|
|
<ele>-24.635452</ele>
|
|
<time>2026-07-10T14:50:30.000Z</time>
|
|
</trkpt>
|
|
<trkpt lat="55.295315" lon="8.662048">
|
|
<ele>-24.640206</ele>
|
|
<time>2026-07-10T14:50:31.000Z</time>
|
|
</trkpt>
|
|
<trkpt lat="55.295314" lon="8.662155">
|
|
<ele>-24.644961</ele>
|
|
<time>2026-07-10T14:50:32.000Z</time>
|
|
</trkpt>
|
|
<trkpt lat="55.295310" lon="8.662263">
|
|
<ele>-24.649769</ele>
|
|
<time>2026-07-10T14:50:33.000Z</time>
|
|
</trkpt>
|
|
<trkpt lat="55.295306" lon="8.662373">
|
|
<ele>-24.654667</ele>
|
|
<time>2026-07-10T14:50:34.000Z</time>
|
|
</trkpt>
|
|
<trkpt lat="55.295303" lon="8.662482">
|
|
<ele>-24.659516</ele>
|
|
<time>2026-07-10T14:50:35.000Z</time>
|
|
</trkpt>
|
|
<trkpt lat="55.295302" lon="8.662593">
|
|
<ele>-24.664448</ele>
|
|
<time>2026-07-10T14:50:36.000Z</time>
|
|
</trkpt>
|
|
<trkpt lat="55.295298" lon="8.662704">
|
|
<ele>-24.669390</ele>
|
|
<time>2026-07-10T14:50:37.000Z</time>
|
|
</trkpt>
|
|
<trkpt lat="55.295296" lon="8.662817">
|
|
<ele>-24.674413</ele>
|
|
<time>2026-07-10T14:50:38.000Z</time>
|
|
</trkpt>
|
|
<trkpt lat="55.295296" lon="8.662929">
|
|
<ele>-24.679390</ele>
|
|
<time>2026-07-10T14:50:39.000Z</time>
|
|
</trkpt>
|
|
<trkpt lat="55.295297" lon="8.663041">
|
|
<ele>-24.684367</ele>
|
|
<time>2026-07-10T14:50:40.000Z</time>
|
|
</trkpt>
|
|
<trkpt lat="55.295301" lon="8.663153">
|
|
<ele>-24.689353</ele>
|
|
<time>2026-07-10T14:50:41.000Z</time>
|
|
</trkpt>
|
|
<trkpt lat="55.295303" lon="8.663266">
|
|
<ele>-24.694376</ele>
|
|
<time>2026-07-10T14:50:42.000Z</time>
|
|
</trkpt>
|
|
<trkpt lat="55.295306" lon="8.663379">
|
|
<ele>-24.699402</ele>
|
|
<time>2026-07-10T14:50:43.000Z</time>
|
|
</trkpt>
|
|
<trkpt lat="55.295312" lon="8.663492">
|
|
<ele>-24.704445</ele>
|
|
<time>2026-07-10T14:50:44.000Z</time>
|
|
</trkpt>
|
|
<trkpt lat="55.295316" lon="8.663606">
|
|
<ele>-24.709520</ele>
|
|
<time>2026-07-10T14:50:45.000Z</time>
|
|
</trkpt>
|
|
<trkpt lat="55.295322" lon="8.663716">
|
|
<ele>-24.714430</ele>
|
|
<time>2026-07-10T14:50:46.000Z</time>
|
|
</trkpt>
|
|
<trkpt lat="55.295331" lon="8.663823">
|
|
<ele>-24.719235</ele>
|
|
<time>2026-07-10T14:50:47.000Z</time>
|
|
</trkpt>
|
|
<trkpt lat="55.295336" lon="8.663932">
|
|
<ele>-24.718890</ele>
|
|
<time>2026-07-10T14:50:48.000Z</time>
|
|
</trkpt>
|
|
<trkpt lat="55.295341" lon="8.664044">
|
|
<ele>-24.717317</ele>
|
|
<time>2026-07-10T14:50:49.000Z</time>
|
|
</trkpt>
|
|
<trkpt lat="55.295343" lon="8.664159">
|
|
<ele>-24.715706</ele>
|
|
<time>2026-07-10T14:50:50.000Z</time>
|
|
</trkpt>
|
|
<trkpt lat="55.295347" lon="8.664275">
|
|
<ele>-24.714079</ele>
|
|
<time>2026-07-10T14:50:51.000Z</time>
|
|
</trkpt>
|
|
<trkpt lat="55.295354" lon="8.664388">
|
|
<ele>-24.712487</ele>
|
|
<time>2026-07-10T14:50:52.000Z</time>
|
|
</trkpt>
|
|
<trkpt lat="55.295359" lon="8.664501">
|
|
<ele>-24.710900</ele>
|
|
<time>2026-07-10T14:50:53.000Z</time>
|
|
</trkpt>
|
|
<trkpt lat="55.295365" lon="8.664614">
|
|
<ele>-24.709311</ele>
|
|
<time>2026-07-10T14:50:54.000Z</time>
|
|
</trkpt>
|
|
<trkpt lat="55.295369" lon="8.664727">
|
|
<ele>-24.707726</ele>
|
|
<time>2026-07-10T14:50:55.000Z</time>
|
|
</trkpt>
|
|
<trkpt lat="55.295373" lon="8.664842">
|
|
<ele>-24.706113</ele>
|
|
<time>2026-07-10T14:50:56.000Z</time>
|
|
</trkpt>
|
|
<trkpt lat="55.295377" lon="8.664957">
|
|
<ele>-24.704499</ele>
|
|
<time>2026-07-10T14:50:57.000Z</time>
|
|
</trkpt>
|
|
<trkpt lat="55.295381" lon="8.665072">
|
|
<ele>-24.702886</ele>
|
|
<time>2026-07-10T14:50:58.000Z</time>
|
|
</trkpt>
|
|
<trkpt lat="55.295385" lon="8.665189">
|
|
<ele>-24.701245</ele>
|
|
<time>2026-07-10T14:50:59.000Z</time>
|
|
</trkpt>
|
|
<trkpt lat="55.295388" lon="8.665302">
|
|
<ele>-24.699661</ele>
|
|
<time>2026-07-10T14:51:00.000Z</time>
|
|
</trkpt>
|
|
<trkpt lat="55.295393" lon="8.665415">
|
|
<ele>-24.698074</ele>
|
|
<time>2026-07-10T14:51:01.000Z</time>
|
|
</trkpt>
|
|
<trkpt lat="55.295401" lon="8.665530">
|
|
<ele>-24.696452</ele>
|
|
<time>2026-07-10T14:51:02.000Z</time>
|
|
</trkpt>
|
|
<trkpt lat="55.295407" lon="8.665644">
|
|
<ele>-24.694849</ele>
|
|
<time>2026-07-10T14:51:03.000Z</time>
|
|
</trkpt>
|
|
<trkpt lat="55.295412" lon="8.665759">
|
|
<ele>-24.693234</ele>
|
|
<time>2026-07-10T14:51:04.000Z</time>
|
|
</trkpt>
|
|
<trkpt lat="55.295419" lon="8.665873">
|
|
<ele>-24.691628</ele>
|
|
<time>2026-07-10T14:51:05.000Z</time>
|
|
</trkpt>
|
|
<trkpt lat="55.295424" lon="8.665988">
|
|
<ele>-24.690013</ele>
|
|
<time>2026-07-10T14:51:06.000Z</time>
|
|
</trkpt>
|
|
<trkpt lat="55.295431" lon="8.666101">
|
|
<ele>-24.688422</ele>
|
|
<time>2026-07-10T14:51:07.000Z</time>
|
|
</trkpt>
|
|
<trkpt lat="55.295439" lon="8.666214">
|
|
<ele>-24.686828</ele>
|
|
<time>2026-07-10T14:51:08.000Z</time>
|
|
</trkpt>
|
|
<trkpt lat="55.295446" lon="8.666330">
|
|
<ele>-24.685194</ele>
|
|
<time>2026-07-10T14:51:09.000Z</time>
|
|
</trkpt>
|
|
<trkpt lat="55.295451" lon="8.666444">
|
|
<ele>-24.683593</ele>
|
|
<time>2026-07-10T14:51:10.000Z</time>
|
|
</trkpt>
|
|
<trkpt lat="55.295458" lon="8.666557">
|
|
<ele>-24.682002</ele>
|
|
<time>2026-07-10T14:51:11.000Z</time>
|
|
</trkpt>
|
|
<trkpt lat="55.295465" lon="8.666669">
|
|
<ele>-24.680424</ele>
|
|
<time>2026-07-10T14:51:12.000Z</time>
|
|
</trkpt>
|
|
<trkpt lat="55.295468" lon="8.666783">
|
|
<ele>-24.678826</ele>
|
|
<time>2026-07-10T14:51:13.000Z</time>
|
|
</trkpt>
|
|
<trkpt lat="55.295472" lon="8.666899">
|
|
<ele>-24.677199</ele>
|
|
<time>2026-07-10T14:51:14.000Z</time>
|
|
</trkpt>
|
|
<trkpt lat="55.295476" lon="8.667016">
|
|
<ele>-24.675167</ele>
|
|
<time>2026-07-10T14:51:15.000Z</time>
|
|
</trkpt>
|
|
<trkpt lat="55.295479" lon="8.667130">
|
|
<ele>-24.671758</ele>
|
|
<time>2026-07-10T14:51:16.000Z</time>
|
|
</trkpt>
|
|
<trkpt lat="55.295478" lon="8.667246">
|
|
<ele>-24.668293</ele>
|
|
<time>2026-07-10T14:51:17.000Z</time>
|
|
</trkpt>
|
|
<trkpt lat="55.295473" lon="8.667360">
|
|
<ele>-24.664878</ele>
|
|
<time>2026-07-10T14:51:18.000Z</time>
|
|
</trkpt>
|
|
<trkpt lat="55.295463" lon="8.667474">
|
|
<ele>-24.661433</ele>
|
|
<time>2026-07-10T14:51:19.000Z</time>
|
|
</trkpt>
|
|
<trkpt lat="55.295447" lon="8.667586">
|
|
<ele>-24.657984</ele>
|
|
<time>2026-07-10T14:51:20.000Z</time>
|
|
</trkpt>
|
|
<trkpt lat="55.295427" lon="8.667697">
|
|
<ele>-24.654506</ele>
|
|
<time>2026-07-10T14:51:21.000Z</time>
|
|
</trkpt>
|
|
<trkpt lat="55.295403" lon="8.667804">
|
|
<ele>-24.651071</ele>
|
|
<time>2026-07-10T14:51:22.000Z</time>
|
|
</trkpt>
|
|
<trkpt lat="55.295376" lon="8.667907">
|
|
<ele>-24.647684</ele>
|
|
<time>2026-07-10T14:51:23.000Z</time>
|
|
</trkpt>
|
|
<trkpt lat="55.295348" lon="8.668001">
|
|
<ele>-24.644516</ele>
|
|
<time>2026-07-10T14:51:24.000Z</time>
|
|
</trkpt>
|
|
<trkpt lat="55.295316" lon="8.668088">
|
|
<ele>-24.641422</ele>
|
|
<time>2026-07-10T14:51:25.000Z</time>
|
|
</trkpt>
|
|
<trkpt lat="55.295281" lon="8.668174">
|
|
<ele>-24.638264</ele>
|
|
<time>2026-07-10T14:51:26.000Z</time>
|
|
</trkpt>
|
|
<trkpt lat="55.295242" lon="8.668255">
|
|
<ele>-24.635096</ele>
|
|
<time>2026-07-10T14:51:27.000Z</time>
|
|
</trkpt>
|
|
<trkpt lat="55.295199" lon="8.668325">
|
|
<ele>-24.632020</ele>
|
|
<time>2026-07-10T14:51:28.000Z</time>
|
|
</trkpt>
|
|
<trkpt lat="55.295151" lon="8.668388">
|
|
<ele>-24.628877</ele>
|
|
<time>2026-07-10T14:51:29.000Z</time>
|
|
</trkpt>
|
|
<trkpt lat="55.295096" lon="8.668443">
|
|
<ele>-24.625556</ele>
|
|
<time>2026-07-10T14:51:30.000Z</time>
|
|
</trkpt>
|
|
<trkpt lat="55.295039" lon="8.668496">
|
|
<ele>-24.622173</ele>
|
|
<time>2026-07-10T14:51:31.000Z</time>
|
|
</trkpt>
|
|
<trkpt lat="55.294982" lon="8.668543">
|
|
<ele>-24.618869</ele>
|
|
<time>2026-07-10T14:51:32.000Z</time>
|
|
</trkpt>
|
|
<trkpt lat="55.294923" lon="8.668590">
|
|
<ele>-24.615471</ele>
|
|
<time>2026-07-10T14:51:33.000Z</time>
|
|
</trkpt>
|
|
<trkpt lat="55.294863" lon="8.668638">
|
|
<ele>-24.612012</ele>
|
|
<time>2026-07-10T14:51:34.000Z</time>
|
|
</trkpt>
|
|
<trkpt lat="55.294803" lon="8.668690">
|
|
<ele>-24.608502</ele>
|
|
<time>2026-07-10T14:51:35.000Z</time>
|
|
</trkpt>
|
|
<trkpt lat="55.294744" lon="8.668744">
|
|
<ele>-24.605012</ele>
|
|
<time>2026-07-10T14:51:36.000Z</time>
|
|
</trkpt>
|
|
<trkpt lat="55.294684" lon="8.668800">
|
|
<ele>-24.601447</ele>
|
|
<time>2026-07-10T14:51:37.000Z</time>
|
|
</trkpt>
|
|
<trkpt lat="55.294628" lon="8.668862">
|
|
<ele>-24.597974</ele>
|
|
<time>2026-07-10T14:51:38.000Z</time>
|
|
</trkpt>
|
|
<trkpt lat="55.294575" lon="8.668931">
|
|
<ele>-24.594513</ele>
|
|
<time>2026-07-10T14:51:39.000Z</time>
|
|
</trkpt>
|
|
<trkpt lat="55.294523" lon="8.669003">
|
|
<ele>-24.591039</ele>
|
|
<time>2026-07-10T14:51:40.000Z</time>
|
|
</trkpt>
|
|
<trkpt lat="55.294478" lon="8.669080">
|
|
<ele>-24.587744</ele>
|
|
<time>2026-07-10T14:51:41.000Z</time>
|
|
</trkpt>
|
|
<trkpt lat="55.294434" lon="8.669161">
|
|
<ele>-24.584400</ele>
|
|
<time>2026-07-10T14:51:42.000Z</time>
|
|
</trkpt>
|
|
<trkpt lat="55.294395" lon="8.669241">
|
|
<ele>-24.581471</ele>
|
|
<time>2026-07-10T14:51:43.000Z</time>
|
|
</trkpt>
|
|
<trkpt lat="55.294354" lon="8.669325">
|
|
<ele>-24.580643</ele>
|
|
<time>2026-07-10T14:51:44.000Z</time>
|
|
</trkpt>
|
|
<trkpt lat="55.294315" lon="8.669412">
|
|
<ele>-24.579815</ele>
|
|
<time>2026-07-10T14:51:45.000Z</time>
|
|
</trkpt>
|
|
<trkpt lat="55.294275" lon="8.669498">
|
|
<ele>-24.578984</ele>
|
|
<time>2026-07-10T14:51:46.000Z</time>
|
|
</trkpt>
|
|
<trkpt lat="55.294239" lon="8.669580">
|
|
<ele>-24.578210</ele>
|
|
<time>2026-07-10T14:51:47.000Z</time>
|
|
</trkpt>
|
|
<trkpt lat="55.294201" lon="8.669660">
|
|
<ele>-24.577430</ele>
|
|
<time>2026-07-10T14:51:48.000Z</time>
|
|
</trkpt>
|
|
<trkpt lat="55.294164" lon="8.669739">
|
|
<ele>-24.576665</ele>
|
|
<time>2026-07-10T14:51:49.000Z</time>
|
|
</trkpt>
|
|
<trkpt lat="55.294128" lon="8.669816">
|
|
<ele>-24.575920</ele>
|
|
<time>2026-07-10T14:51:50.000Z</time>
|
|
</trkpt>
|
|
<trkpt lat="55.294085" lon="8.669890">
|
|
<ele>-24.575129</ele>
|
|
<time>2026-07-10T14:51:51.000Z</time>
|
|
</trkpt>
|
|
<trkpt lat="55.294039" lon="8.669955">
|
|
<ele>-24.574353</ele>
|
|
<time>2026-07-10T14:51:52.000Z</time>
|
|
</trkpt>
|
|
<trkpt lat="55.293992" lon="8.670009">
|
|
<ele>-24.573615</ele>
|
|
<time>2026-07-10T14:51:53.000Z</time>
|
|
</trkpt>
|
|
<trkpt lat="55.293941" lon="8.670051">
|
|
<ele>-24.572875</ele>
|
|
<time>2026-07-10T14:51:54.000Z</time>
|
|
</trkpt>
|
|
<trkpt lat="55.293883" lon="8.670079">
|
|
<ele>-24.572085</ele>
|
|
<time>2026-07-10T14:51:55.000Z</time>
|
|
</trkpt>
|
|
<trkpt lat="55.293821" lon="8.670096">
|
|
<ele>-24.571261</ele>
|
|
<time>2026-07-10T14:51:56.000Z</time>
|
|
</trkpt>
|
|
<trkpt lat="55.293759" lon="8.670108">
|
|
<ele>-24.570441</ele>
|
|
<time>2026-07-10T14:51:57.000Z</time>
|
|
</trkpt>
|
|
<trkpt lat="55.293694" lon="8.670121">
|
|
<ele>-24.569582</ele>
|
|
<time>2026-07-10T14:51:58.000Z</time>
|
|
</trkpt>
|
|
<trkpt lat="55.293629" lon="8.670136">
|
|
<ele>-24.568720</ele>
|
|
<time>2026-07-10T14:51:59.000Z</time>
|
|
</trkpt>
|
|
<trkpt lat="55.293565" lon="8.670154">
|
|
<ele>-24.567869</ele>
|
|
<time>2026-07-10T14:52:00.000Z</time>
|
|
</trkpt>
|
|
<trkpt lat="55.293503" lon="8.670173">
|
|
<ele>-24.567042</ele>
|
|
<time>2026-07-10T14:52:01.000Z</time>
|
|
</trkpt>
|
|
<trkpt lat="55.293440" lon="8.670192">
|
|
<ele>-24.566202</ele>
|
|
<time>2026-07-10T14:52:02.000Z</time>
|
|
</trkpt>
|
|
<trkpt lat="55.293378" lon="8.670210">
|
|
<ele>-24.565376</ele>
|
|
<time>2026-07-10T14:52:03.000Z</time>
|
|
</trkpt>
|
|
<trkpt lat="55.293317" lon="8.670231">
|
|
<ele>-24.564560</ele>
|
|
<time>2026-07-10T14:52:04.000Z</time>
|
|
</trkpt>
|
|
<trkpt lat="55.293254" lon="8.670251">
|
|
<ele>-24.563719</ele>
|
|
<time>2026-07-10T14:52:05.000Z</time>
|
|
</trkpt>
|
|
<trkpt lat="55.293193" lon="8.670272">
|
|
<ele>-24.562902</ele>
|
|
<time>2026-07-10T14:52:06.000Z</time>
|
|
</trkpt>
|
|
<trkpt lat="55.293134" lon="8.670289">
|
|
<ele>-24.562116</ele>
|
|
<time>2026-07-10T14:52:07.000Z</time>
|
|
</trkpt>
|
|
<trkpt lat="55.293074" lon="8.670304">
|
|
<ele>-24.561320</ele>
|
|
<time>2026-07-10T14:52:08.000Z</time>
|
|
</trkpt>
|
|
<trkpt lat="55.293018" lon="8.670321">
|
|
<ele>-24.560574</ele>
|
|
<time>2026-07-10T14:52:09.000Z</time>
|
|
</trkpt>
|
|
<trkpt lat="55.292965" lon="8.670334">
|
|
<ele>-24.559870</ele>
|
|
<time>2026-07-10T14:52:10.000Z</time>
|
|
</trkpt>
|
|
<trkpt lat="55.292910" lon="8.670349">
|
|
<ele>-24.559139</ele>
|
|
<time>2026-07-10T14:52:11.000Z</time>
|
|
</trkpt>
|
|
<trkpt lat="55.292854" lon="8.670367">
|
|
<ele>-24.558391</ele>
|
|
<time>2026-07-10T14:52:12.000Z</time>
|
|
</trkpt>
|
|
<trkpt lat="55.292800" lon="8.670387">
|
|
<ele>-24.553988</ele>
|
|
<time>2026-07-10T14:52:13.000Z</time>
|
|
</trkpt>
|
|
<trkpt lat="55.292743" lon="8.670408">
|
|
<ele>-24.541799</ele>
|
|
<time>2026-07-10T14:52:14.000Z</time>
|
|
</trkpt>
|
|
<trkpt lat="55.292687" lon="8.670429">
|
|
<ele>-24.529816</ele>
|
|
<time>2026-07-10T14:52:15.000Z</time>
|
|
</trkpt>
|
|
<trkpt lat="55.292629" lon="8.670448">
|
|
<ele>-24.517468</ele>
|
|
<time>2026-07-10T14:52:16.000Z</time>
|
|
</trkpt>
|
|
<trkpt lat="55.292577" lon="8.670464">
|
|
<ele>-24.506419</ele>
|
|
<time>2026-07-10T14:52:17.000Z</time>
|
|
</trkpt>
|
|
<trkpt lat="55.292526" lon="8.670479">
|
|
<ele>-24.495597</ele>
|
|
<time>2026-07-10T14:52:18.000Z</time>
|
|
</trkpt>
|
|
<trkpt lat="55.292473" lon="8.670500">
|
|
<ele>-24.484227</ele>
|
|
<time>2026-07-10T14:52:19.000Z</time>
|
|
</trkpt>
|
|
<trkpt lat="55.292420" lon="8.670527">
|
|
<ele>-24.472677</ele>
|
|
<time>2026-07-10T14:52:20.000Z</time>
|
|
</trkpt>
|
|
<trkpt lat="55.292371" lon="8.670557">
|
|
<ele>-24.461817</ele>
|
|
<time>2026-07-10T14:52:21.000Z</time>
|
|
</trkpt>
|
|
<trkpt lat="55.292322" lon="8.670590">
|
|
<ele>-24.450834</ele>
|
|
<time>2026-07-10T14:52:22.000Z</time>
|
|
</trkpt>
|
|
<trkpt lat="55.292273" lon="8.670628">
|
|
<ele>-24.439624</ele>
|
|
<time>2026-07-10T14:52:23.000Z</time>
|
|
</trkpt>
|
|
<trkpt lat="55.292227" lon="8.670665">
|
|
<ele>-24.429036</ele>
|
|
<time>2026-07-10T14:52:24.000Z</time>
|
|
</trkpt>
|
|
<trkpt lat="55.292185" lon="8.670706">
|
|
<ele>-24.418979</ele>
|
|
<time>2026-07-10T14:52:25.000Z</time>
|
|
</trkpt>
|
|
<trkpt lat="55.292152" lon="8.670757">
|
|
<ele>-24.409780</ele>
|
|
<time>2026-07-10T14:52:26.000Z</time>
|
|
</trkpt>
|
|
<trkpt lat="55.292122" lon="8.670816">
|
|
<ele>-24.400354</ele>
|
|
<time>2026-07-10T14:52:27.000Z</time>
|
|
</trkpt>
|
|
<trkpt lat="55.292084" lon="8.670881">
|
|
<ele>-24.389252</ele>
|
|
<time>2026-07-10T14:52:28.000Z</time>
|
|
</trkpt>
|
|
<trkpt lat="55.292048" lon="8.670952">
|
|
<ele>-24.377923</ele>
|
|
<time>2026-07-10T14:52:29.000Z</time>
|
|
</trkpt>
|
|
<trkpt lat="55.292018" lon="8.671031">
|
|
<ele>-24.366608</ele>
|
|
<time>2026-07-10T14:52:30.000Z</time>
|
|
</trkpt>
|
|
<trkpt lat="55.291992" lon="8.671123">
|
|
<ele>-24.354369</ele>
|
|
<time>2026-07-10T14:52:31.000Z</time>
|
|
</trkpt>
|
|
<trkpt lat="55.291977" lon="8.671221">
|
|
<ele>-24.342276</ele>
|
|
<time>2026-07-10T14:52:32.000Z</time>
|
|
</trkpt>
|
|
<trkpt lat="55.291967" lon="8.671323">
|
|
<ele>-24.329942</ele>
|
|
<time>2026-07-10T14:52:33.000Z</time>
|
|
</trkpt>
|
|
<trkpt lat="55.291962" lon="8.671425">
|
|
<ele>-24.317743</ele>
|
|
<time>2026-07-10T14:52:34.000Z</time>
|
|
</trkpt>
|
|
<trkpt lat="55.291961" lon="8.671524">
|
|
<ele>-24.305943</ele>
|
|
<time>2026-07-10T14:52:35.000Z</time>
|
|
</trkpt>
|
|
<trkpt lat="55.291958" lon="8.671621">
|
|
<ele>-24.294367</ele>
|
|
<time>2026-07-10T14:52:36.000Z</time>
|
|
</trkpt>
|
|
<trkpt lat="55.291958" lon="8.671715">
|
|
<ele>-24.283166</ele>
|
|
<time>2026-07-10T14:52:37.000Z</time>
|
|
</trkpt>
|
|
<trkpt lat="55.291959" lon="8.671809">
|
|
<ele>-24.271963</ele>
|
|
<time>2026-07-10T14:52:38.000Z</time>
|
|
</trkpt>
|
|
<trkpt lat="55.291962" lon="8.671906">
|
|
<ele>-24.260387</ele>
|
|
<time>2026-07-10T14:52:39.000Z</time>
|
|
</trkpt>
|
|
<trkpt lat="55.291964" lon="8.672005">
|
|
<ele>-24.248582</ele>
|
|
<time>2026-07-10T14:52:40.000Z</time>
|
|
</trkpt>
|
|
<trkpt lat="55.291968" lon="8.672107">
|
|
<ele>-24.236398</ele>
|
|
<time>2026-07-10T14:52:41.000Z</time>
|
|
</trkpt>
|
|
<trkpt lat="55.291965" lon="8.672212">
|
|
<ele>-24.223870</ele>
|
|
<time>2026-07-10T14:52:42.000Z</time>
|
|
</trkpt>
|
|
<trkpt lat="55.291967" lon="8.672314">
|
|
<ele>-24.211708</ele>
|
|
<time>2026-07-10T14:52:43.000Z</time>
|
|
</trkpt>
|
|
<trkpt lat="55.291969" lon="8.672418">
|
|
<ele>-24.199308</ele>
|
|
<time>2026-07-10T14:52:44.000Z</time>
|
|
</trkpt>
|
|
<trkpt lat="55.291967" lon="8.672523">
|
|
<ele>-24.186789</ele>
|
|
<time>2026-07-10T14:52:45.000Z</time>
|
|
</trkpt>
|
|
<trkpt lat="55.291962" lon="8.672633">
|
|
<ele>-24.179523</ele>
|
|
<time>2026-07-10T14:52:46.000Z</time>
|
|
</trkpt>
|
|
<trkpt lat="55.291961" lon="8.672741">
|
|
<ele>-24.176300</ele>
|
|
<time>2026-07-10T14:52:47.000Z</time>
|
|
</trkpt>
|
|
<trkpt lat="55.291958" lon="8.672842">
|
|
<ele>-24.173282</ele>
|
|
<time>2026-07-10T14:52:48.000Z</time>
|
|
</trkpt>
|
|
<trkpt lat="55.291958" lon="8.672939">
|
|
<ele>-24.170388</ele>
|
|
<time>2026-07-10T14:52:49.000Z</time>
|
|
</trkpt>
|
|
<trkpt lat="55.291958" lon="8.673034">
|
|
<ele>-24.167553</ele>
|
|
<time>2026-07-10T14:52:50.000Z</time>
|
|
</trkpt>
|
|
<trkpt lat="55.291957" lon="8.673130">
|
|
<ele>-24.164688</ele>
|
|
<time>2026-07-10T14:52:51.000Z</time>
|
|
</trkpt>
|
|
<trkpt lat="55.291953" lon="8.673229">
|
|
<ele>-24.161727</ele>
|
|
<time>2026-07-10T14:52:52.000Z</time>
|
|
</trkpt>
|
|
<trkpt lat="55.291949" lon="8.673329">
|
|
<ele>-24.158735</ele>
|
|
<time>2026-07-10T14:52:53.000Z</time>
|
|
</trkpt>
|
|
<trkpt lat="55.291946" lon="8.673432">
|
|
<ele>-24.155658</ele>
|
|
<time>2026-07-10T14:52:54.000Z</time>
|
|
</trkpt>
|
|
<trkpt lat="55.291944" lon="8.673531">
|
|
<ele>-24.152702</ele>
|
|
<time>2026-07-10T14:52:55.000Z</time>
|
|
</trkpt>
|
|
<trkpt lat="55.291938" lon="8.673631">
|
|
<ele>-24.149702</ele>
|
|
<time>2026-07-10T14:52:56.000Z</time>
|
|
</trkpt>
|
|
<trkpt lat="55.291932" lon="8.673730">
|
|
<ele>-24.146731</ele>
|
|
<time>2026-07-10T14:52:57.000Z</time>
|
|
</trkpt>
|
|
<trkpt lat="55.291920" lon="8.673829">
|
|
<ele>-24.143711</ele>
|
|
<time>2026-07-10T14:52:58.000Z</time>
|
|
</trkpt>
|
|
<trkpt lat="55.291909" lon="8.673922">
|
|
<ele>-24.140877</ele>
|
|
<time>2026-07-10T14:52:59.000Z</time>
|
|
</trkpt>
|
|
<trkpt lat="55.291897" lon="8.674011">
|
|
<ele>-24.138148</ele>
|
|
<time>2026-07-10T14:53:00.000Z</time>
|
|
</trkpt>
|
|
<trkpt lat="55.291886" lon="8.674104">
|
|
<ele>-24.135313</ele>
|
|
<time>2026-07-10T14:53:01.000Z</time>
|
|
</trkpt>
|
|
<trkpt lat="55.291876" lon="8.674197">
|
|
<ele>-24.132489</ele>
|
|
<time>2026-07-10T14:53:02.000Z</time>
|
|
</trkpt>
|
|
<trkpt lat="55.291866" lon="8.674290">
|
|
<ele>-24.129665</ele>
|
|
<time>2026-07-10T14:53:03.000Z</time>
|
|
</trkpt>
|
|
<trkpt lat="55.291852" lon="8.674381">
|
|
<ele>-24.126853</ele>
|
|
<time>2026-07-10T14:53:04.000Z</time>
|
|
</trkpt>
|
|
<trkpt lat="55.291839" lon="8.674478">
|
|
<ele>-24.123879</ele>
|
|
<time>2026-07-10T14:53:05.000Z</time>
|
|
</trkpt>
|
|
<trkpt lat="55.291826" lon="8.674582">
|
|
<ele>-24.120702</ele>
|
|
<time>2026-07-10T14:53:06.000Z</time>
|
|
</trkpt>
|
|
<trkpt lat="55.291817" lon="8.674691">
|
|
<ele>-24.117416</ele>
|
|
<time>2026-07-10T14:53:07.000Z</time>
|
|
</trkpt>
|
|
<trkpt lat="55.291807" lon="8.674798">
|
|
<ele>-24.114180</ele>
|
|
<time>2026-07-10T14:53:08.000Z</time>
|
|
</trkpt>
|
|
<trkpt lat="55.291800" lon="8.674900">
|
|
<ele>-24.111115</ele>
|
|
<time>2026-07-10T14:53:09.000Z</time>
|
|
</trkpt>
|
|
<trkpt lat="55.291797" lon="8.674997">
|
|
<ele>-24.108216</ele>
|
|
<time>2026-07-10T14:53:10.000Z</time>
|
|
</trkpt>
|
|
<trkpt lat="55.291794" lon="8.675086">
|
|
<ele>-24.105556</ele>
|
|
<time>2026-07-10T14:53:11.000Z</time>
|
|
</trkpt>
|
|
<trkpt lat="55.291793" lon="8.675161">
|
|
<ele>-24.103317</ele>
|
|
<time>2026-07-10T14:53:12.000Z</time>
|
|
</trkpt>
|
|
<trkpt lat="55.291790" lon="8.675233">
|
|
<ele>-24.101163</ele>
|
|
<time>2026-07-10T14:53:13.000Z</time>
|
|
</trkpt>
|
|
<trkpt lat="55.291788" lon="8.675317">
|
|
<ele>-24.098655</ele>
|
|
<time>2026-07-10T14:53:14.000Z</time>
|
|
</trkpt>
|
|
<trkpt lat="55.291781" lon="8.675415">
|
|
<ele>-24.095707</ele>
|
|
<time>2026-07-10T14:53:15.000Z</time>
|
|
</trkpt>
|
|
<trkpt lat="55.291775" lon="8.675517">
|
|
<ele>-24.092648</ele>
|
|
<time>2026-07-10T14:53:16.000Z</time>
|
|
</trkpt>
|
|
<trkpt lat="55.291764" lon="8.675628">
|
|
<ele>-24.089286</ele>
|
|
<time>2026-07-10T14:53:17.000Z</time>
|
|
</trkpt>
|
|
<trkpt lat="55.291752" lon="8.675741">
|
|
<ele>-24.077256</ele>
|
|
<time>2026-07-10T14:53:18.000Z</time>
|
|
</trkpt>
|
|
<trkpt lat="55.291739" lon="8.675857">
|
|
<ele>-24.051689</ele>
|
|
<time>2026-07-10T14:53:19.000Z</time>
|
|
</trkpt>
|
|
<trkpt lat="55.291720" lon="8.675981">
|
|
<ele>-24.023919</ele>
|
|
<time>2026-07-10T14:53:20.000Z</time>
|
|
</trkpt>
|
|
<trkpt lat="55.291701" lon="8.676094">
|
|
<ele>-23.998438</ele>
|
|
<time>2026-07-10T14:53:21.000Z</time>
|
|
</trkpt>
|
|
<trkpt lat="55.291684" lon="8.676201">
|
|
<ele>-23.974414</ele>
|
|
<time>2026-07-10T14:53:22.000Z</time>
|
|
</trkpt>
|
|
<trkpt lat="55.291670" lon="8.676309">
|
|
<ele>-23.950460</ele>
|
|
<time>2026-07-10T14:53:23.000Z</time>
|
|
</trkpt>
|
|
<trkpt lat="55.291654" lon="8.676418">
|
|
<ele>-23.926117</ele>
|
|
<time>2026-07-10T14:53:24.000Z</time>
|
|
</trkpt>
|
|
<trkpt lat="55.291646" lon="8.676518">
|
|
<ele>-23.904278</ele>
|
|
<time>2026-07-10T14:53:25.000Z</time>
|
|
</trkpt>
|
|
<trkpt lat="55.291634" lon="8.676619">
|
|
<ele>-23.881966</ele>
|
|
<time>2026-07-10T14:53:26.000Z</time>
|
|
</trkpt>
|
|
<trkpt lat="55.291623" lon="8.676718">
|
|
<ele>-23.860152</ele>
|
|
<time>2026-07-10T14:53:27.000Z</time>
|
|
</trkpt>
|
|
<trkpt lat="55.291610" lon="8.676814">
|
|
<ele>-23.838812</ele>
|
|
<time>2026-07-10T14:53:28.000Z</time>
|
|
</trkpt>
|
|
<trkpt lat="55.291594" lon="8.676909">
|
|
<ele>-23.817387</ele>
|
|
<time>2026-07-10T14:53:29.000Z</time>
|
|
</trkpt>
|
|
<trkpt lat="55.291575" lon="8.676996">
|
|
<ele>-23.797236</ele>
|
|
<time>2026-07-10T14:53:30.000Z</time>
|
|
</trkpt>
|
|
<trkpt lat="55.291555" lon="8.677081">
|
|
<ele>-23.777346</ele>
|
|
<time>2026-07-10T14:53:31.000Z</time>
|
|
</trkpt>
|
|
<trkpt lat="55.291529" lon="8.677169">
|
|
<ele>-23.755905</ele>
|
|
<time>2026-07-10T14:53:32.000Z</time>
|
|
</trkpt>
|
|
<trkpt lat="55.291499" lon="8.677259">
|
|
<ele>-23.733352</ele>
|
|
<time>2026-07-10T14:53:33.000Z</time>
|
|
</trkpt>
|
|
<trkpt lat="55.291469" lon="8.677346">
|
|
<ele>-23.711356</ele>
|
|
<time>2026-07-10T14:53:34.000Z</time>
|
|
</trkpt>
|
|
<trkpt lat="55.291439" lon="8.677431">
|
|
<ele>-23.689729</ele>
|
|
<time>2026-07-10T14:53:35.000Z</time>
|
|
</trkpt>
|
|
<trkpt lat="55.291407" lon="8.677519">
|
|
<ele>-23.667148</ele>
|
|
<time>2026-07-10T14:53:36.000Z</time>
|
|
</trkpt>
|
|
<trkpt lat="55.291372" lon="8.677603">
|
|
<ele>-23.644637</ele>
|
|
<time>2026-07-10T14:53:37.000Z</time>
|
|
</trkpt>
|
|
<trkpt lat="55.291334" lon="8.677693">
|
|
<ele>-23.620406</ele>
|
|
<time>2026-07-10T14:53:38.000Z</time>
|
|
</trkpt>
|
|
<trkpt lat="55.291299" lon="8.677779">
|
|
<ele>-23.597546</ele>
|
|
<time>2026-07-10T14:53:39.000Z</time>
|
|
</trkpt>
|
|
<trkpt lat="55.291262" lon="8.677860">
|
|
<ele>-23.575088</ele>
|
|
<time>2026-07-10T14:53:40.000Z</time>
|
|
</trkpt>
|
|
<trkpt lat="55.291225" lon="8.677943">
|
|
<ele>-23.552292</ele>
|
|
<time>2026-07-10T14:53:41.000Z</time>
|
|
</trkpt>
|
|
<trkpt lat="55.291185" lon="8.678028">
|
|
<ele>-23.528444</ele>
|
|
<time>2026-07-10T14:53:42.000Z</time>
|
|
</trkpt>
|
|
<trkpt lat="55.291150" lon="8.678117">
|
|
<ele>-23.505052</ele>
|
|
<time>2026-07-10T14:53:43.000Z</time>
|
|
</trkpt>
|
|
<trkpt lat="55.291111" lon="8.678210">
|
|
<ele>-23.480074</ele>
|
|
<time>2026-07-10T14:53:44.000Z</time>
|
|
</trkpt>
|
|
<trkpt lat="55.291075" lon="8.678300">
|
|
<ele>-23.456287</ele>
|
|
<time>2026-07-10T14:53:45.000Z</time>
|
|
</trkpt>
|
|
<trkpt lat="55.291040" lon="8.678385">
|
|
<ele>-23.433602</ele>
|
|
<time>2026-07-10T14:53:46.000Z</time>
|
|
</trkpt>
|
|
<trkpt lat="55.291003" lon="8.678473">
|
|
<ele>-23.409944</ele>
|
|
<time>2026-07-10T14:53:47.000Z</time>
|
|
</trkpt>
|
|
<trkpt lat="55.290972" lon="8.678560">
|
|
<ele>-23.406223</ele>
|
|
<time>2026-07-10T14:53:48.000Z</time>
|
|
</trkpt>
|
|
<trkpt lat="55.290939" lon="8.678644">
|
|
<ele>-23.409093</ele>
|
|
<time>2026-07-10T14:53:49.000Z</time>
|
|
</trkpt>
|
|
<trkpt lat="55.290908" lon="8.678727">
|
|
<ele>-23.411885</ele>
|
|
<time>2026-07-10T14:53:50.000Z</time>
|
|
</trkpt>
|
|
<trkpt lat="55.290878" lon="8.678810">
|
|
<ele>-23.414650</ele>
|
|
<time>2026-07-10T14:53:51.000Z</time>
|
|
</trkpt>
|
|
<trkpt lat="55.290852" lon="8.678896">
|
|
<ele>-23.417389</ele>
|
|
<time>2026-07-10T14:53:52.000Z</time>
|
|
</trkpt>
|
|
<trkpt lat="55.290825" lon="8.678981">
|
|
<ele>-23.420127</ele>
|
|
<time>2026-07-10T14:53:53.000Z</time>
|
|
</trkpt>
|
|
<trkpt lat="55.290798" lon="8.679068">
|
|
<ele>-23.422914</ele>
|
|
<time>2026-07-10T14:53:54.000Z</time>
|
|
</trkpt>
|
|
<trkpt lat="55.290771" lon="8.679155">
|
|
<ele>-23.425701</ele>
|
|
<time>2026-07-10T14:53:55.000Z</time>
|
|
</trkpt>
|
|
<trkpt lat="55.290745" lon="8.679240">
|
|
<ele>-23.428415</ele>
|
|
<time>2026-07-10T14:53:56.000Z</time>
|
|
</trkpt>
|
|
<trkpt lat="55.290718" lon="8.679320">
|
|
<ele>-23.431031</ele>
|
|
<time>2026-07-10T14:53:57.000Z</time>
|
|
</trkpt>
|
|
<trkpt lat="55.290692" lon="8.679391">
|
|
<ele>-23.433405</ele>
|
|
<time>2026-07-10T14:53:58.000Z</time>
|
|
</trkpt>
|
|
<trkpt lat="55.290666" lon="8.679458">
|
|
<ele>-23.435686</ele>
|
|
<time>2026-07-10T14:53:59.000Z</time>
|
|
</trkpt>
|
|
<trkpt lat="55.290642" lon="8.679524">
|
|
<ele>-23.437888</ele>
|
|
<time>2026-07-10T14:54:00.000Z</time>
|
|
</trkpt>
|
|
<trkpt lat="55.290615" lon="8.679593">
|
|
<ele>-23.440243</ele>
|
|
<time>2026-07-10T14:54:01.000Z</time>
|
|
</trkpt>
|
|
<trkpt lat="55.290587" lon="8.679667">
|
|
<ele>-23.442742</ele>
|
|
<time>2026-07-10T14:54:02.000Z</time>
|
|
</trkpt>
|
|
<trkpt lat="55.290558" lon="8.679746">
|
|
<ele>-23.445386</ele>
|
|
<time>2026-07-10T14:54:03.000Z</time>
|
|
</trkpt>
|
|
<trkpt lat="55.290533" lon="8.679822">
|
|
<ele>-23.447855</ele>
|
|
<time>2026-07-10T14:54:04.000Z</time>
|
|
</trkpt>
|
|
<trkpt lat="55.290512" lon="8.679895">
|
|
<ele>-23.450155</ele>
|
|
<time>2026-07-10T14:54:05.000Z</time>
|
|
</trkpt>
|
|
<trkpt lat="55.290495" lon="8.679956">
|
|
<ele>-23.452066</ele>
|
|
<time>2026-07-10T14:54:06.000Z</time>
|
|
</trkpt>
|
|
<trkpt lat="55.290478" lon="8.679998">
|
|
<ele>-23.453515</ele>
|
|
<time>2026-07-10T14:54:07.000Z</time>
|
|
</trkpt>
|
|
<trkpt lat="55.290466" lon="8.680029">
|
|
<ele>-23.454570</ele>
|
|
<time>2026-07-10T14:54:08.000Z</time>
|
|
</trkpt>
|
|
<trkpt lat="55.290454" lon="8.680064">
|
|
<ele>-23.455719</ele>
|
|
<time>2026-07-10T14:54:09.000Z</time>
|
|
</trkpt>
|
|
<trkpt lat="55.290451" lon="8.680103">
|
|
<ele>-23.456826</ele>
|
|
<time>2026-07-10T14:54:10.000Z</time>
|
|
</trkpt>
|
|
<trkpt lat="55.290455" lon="8.680145">
|
|
<ele>-23.458023</ele>
|
|
<time>2026-07-10T14:54:11.000Z</time>
|
|
</trkpt>
|
|
<trkpt lat="55.290473" lon="8.680180">
|
|
<ele>-23.459350</ele>
|
|
<time>2026-07-10T14:54:12.000Z</time>
|
|
</trkpt>
|
|
<trkpt lat="55.290499" lon="8.680203">
|
|
<ele>-23.460788</ele>
|
|
<time>2026-07-10T14:54:13.000Z</time>
|
|
</trkpt>
|
|
<trkpt lat="55.290533" lon="8.680216">
|
|
<ele>-23.462507</ele>
|
|
<time>2026-07-10T14:54:14.000Z</time>
|
|
</trkpt>
|
|
<trkpt lat="55.290567" lon="8.680225">
|
|
<ele>-23.464205</ele>
|
|
<time>2026-07-10T14:54:15.000Z</time>
|
|
</trkpt>
|
|
<trkpt lat="55.290609" lon="8.680232">
|
|
<ele>-23.466289</ele>
|
|
<time>2026-07-10T14:54:16.000Z</time>
|
|
</trkpt>
|
|
<trkpt lat="55.290653" lon="8.680234">
|
|
<ele>-23.468464</ele>
|
|
<time>2026-07-10T14:54:17.000Z</time>
|
|
</trkpt>
|
|
<trkpt lat="55.290695" lon="8.680239">
|
|
<ele>-23.470543</ele>
|
|
<time>2026-07-10T14:54:18.000Z</time>
|
|
</trkpt>
|
|
<trkpt lat="55.290736" lon="8.680245">
|
|
<ele>-23.472575</ele>
|
|
<time>2026-07-10T14:54:19.000Z</time>
|
|
</trkpt>
|
|
<trkpt lat="55.290775" lon="8.680253">
|
|
<ele>-23.474515</ele>
|
|
<time>2026-07-10T14:54:20.000Z</time>
|
|
</trkpt>
|
|
<trkpt lat="55.290814" lon="8.680262">
|
|
<ele>-23.476458</ele>
|
|
<time>2026-07-10T14:54:21.000Z</time>
|
|
</trkpt>
|
|
<trkpt lat="55.290855" lon="8.680273">
|
|
<ele>-23.478507</ele>
|
|
<time>2026-07-10T14:54:22.000Z</time>
|
|
</trkpt>
|
|
<trkpt lat="55.290899" lon="8.680286">
|
|
<ele>-23.480711</ele>
|
|
<time>2026-07-10T14:54:23.000Z</time>
|
|
</trkpt>
|
|
<trkpt lat="55.290945" lon="8.680301">
|
|
<ele>-23.483022</ele>
|
|
<time>2026-07-10T14:54:24.000Z</time>
|
|
</trkpt>
|
|
<trkpt lat="55.290990" lon="8.680317">
|
|
<ele>-23.485290</ele>
|
|
<time>2026-07-10T14:54:25.000Z</time>
|
|
</trkpt>
|
|
<trkpt lat="55.291036" lon="8.680337">
|
|
<ele>-23.487631</ele>
|
|
<time>2026-07-10T14:54:26.000Z</time>
|
|
</trkpt>
|
|
<trkpt lat="55.291082" lon="8.680360">
|
|
<ele>-23.489994</ele>
|
|
<time>2026-07-10T14:54:27.000Z</time>
|
|
</trkpt>
|
|
<trkpt lat="55.291129" lon="8.680384">
|
|
<ele>-23.492411</ele>
|
|
<time>2026-07-10T14:54:28.000Z</time>
|
|
</trkpt>
|
|
<trkpt lat="55.291179" lon="8.680409">
|
|
<ele>-23.474742</ele>
|
|
<time>2026-07-10T14:54:29.000Z</time>
|
|
</trkpt>
|
|
<trkpt lat="55.291228" lon="8.680440">
|
|
<ele>-23.451717</ele>
|
|
<time>2026-07-10T14:54:30.000Z</time>
|
|
</trkpt>
|
|
<trkpt lat="55.291278" lon="8.680474">
|
|
<ele>-23.428015</ele>
|
|
<time>2026-07-10T14:54:31.000Z</time>
|
|
</trkpt>
|
|
<trkpt lat="55.291330" lon="8.680509">
|
|
<ele>-23.403396</ele>
|
|
<time>2026-07-10T14:54:32.000Z</time>
|
|
</trkpt>
|
|
<trkpt lat="55.291384" lon="8.680547">
|
|
<ele>-23.377679</ele>
|
|
<time>2026-07-10T14:54:33.000Z</time>
|
|
</trkpt>
|
|
<trkpt lat="55.291435" lon="8.680587">
|
|
<ele>-23.352987</ele>
|
|
<time>2026-07-10T14:54:34.000Z</time>
|
|
</trkpt>
|
|
<trkpt lat="55.291489" lon="8.680628">
|
|
<ele>-23.326979</ele>
|
|
<time>2026-07-10T14:54:35.000Z</time>
|
|
</trkpt>
|
|
<trkpt lat="55.291542" lon="8.680667">
|
|
<ele>-23.301576</ele>
|
|
<time>2026-07-10T14:54:36.000Z</time>
|
|
</trkpt>
|
|
<trkpt lat="55.291596" lon="8.680705">
|
|
<ele>-23.275858</ele>
|
|
<time>2026-07-10T14:54:37.000Z</time>
|
|
</trkpt>
|
|
<trkpt lat="55.291654" lon="8.680738">
|
|
<ele>-23.248906</ele>
|
|
<time>2026-07-10T14:54:38.000Z</time>
|
|
</trkpt>
|
|
<trkpt lat="55.291711" lon="8.680770">
|
|
<ele>-23.222451</ele>
|
|
<time>2026-07-10T14:54:39.000Z</time>
|
|
</trkpt>
|
|
<trkpt lat="55.291767" lon="8.680810">
|
|
<ele>-23.195726</ele>
|
|
<time>2026-07-10T14:54:40.000Z</time>
|
|
</trkpt>
|
|
<trkpt lat="55.291820" lon="8.680853">
|
|
<ele>-23.169916</ele>
|
|
<time>2026-07-10T14:54:41.000Z</time>
|
|
</trkpt>
|
|
<trkpt lat="55.291869" lon="8.680896">
|
|
<ele>-23.145701</ele>
|
|
<time>2026-07-10T14:54:42.000Z</time>
|
|
</trkpt>
|
|
<trkpt lat="55.291919" lon="8.680941">
|
|
<ele>-23.120864</ele>
|
|
<time>2026-07-10T14:54:43.000Z</time>
|
|
</trkpt>
|
|
<trkpt lat="55.291967" lon="8.680985">
|
|
<ele>-23.096927</ele>
|
|
<time>2026-07-10T14:54:44.000Z</time>
|
|
</trkpt>
|
|
<trkpt lat="55.292014" lon="8.681031">
|
|
<ele>-23.073141</ele>
|
|
<time>2026-07-10T14:54:45.000Z</time>
|
|
</trkpt>
|
|
<trkpt lat="55.292063" lon="8.681080">
|
|
<ele>-23.048214</ele>
|
|
<time>2026-07-10T14:54:46.000Z</time>
|
|
</trkpt>
|
|
<trkpt lat="55.292105" lon="8.681134">
|
|
<ele>-23.025203</ele>
|
|
<time>2026-07-10T14:54:47.000Z</time>
|
|
</trkpt>
|
|
<trkpt lat="55.292140" lon="8.681187">
|
|
<ele>-23.004773</ele>
|
|
<time>2026-07-10T14:54:48.000Z</time>
|
|
</trkpt>
|
|
<trkpt lat="55.292176" lon="8.681241">
|
|
<ele>-22.983844</ele>
|
|
<time>2026-07-10T14:54:49.000Z</time>
|
|
</trkpt>
|
|
<trkpt lat="55.292209" lon="8.681293">
|
|
<ele>-22.964244</ele>
|
|
<time>2026-07-10T14:54:50.000Z</time>
|
|
</trkpt>
|
|
<trkpt lat="55.292247" lon="8.681344">
|
|
<ele>-22.943101</ele>
|
|
<time>2026-07-10T14:54:51.000Z</time>
|
|
</trkpt>
|
|
<trkpt lat="55.292284" lon="8.681394">
|
|
<ele>-22.922463</ele>
|
|
<time>2026-07-10T14:54:52.000Z</time>
|
|
</trkpt>
|
|
<trkpt lat="55.292319" lon="8.681440">
|
|
<ele>-22.903137</ele>
|
|
<time>2026-07-10T14:54:53.000Z</time>
|
|
</trkpt>
|
|
<trkpt lat="55.292352" lon="8.681481">
|
|
<ele>-22.885267</ele>
|
|
<time>2026-07-10T14:54:54.000Z</time>
|
|
</trkpt>
|
|
<trkpt lat="55.292384" lon="8.681521">
|
|
<ele>-22.867904</ele>
|
|
<time>2026-07-10T14:54:55.000Z</time>
|
|
</trkpt>
|
|
<trkpt lat="55.292424" lon="8.681562">
|
|
<ele>-22.847429</ele>
|
|
<time>2026-07-10T14:54:56.000Z</time>
|
|
</trkpt>
|
|
<trkpt lat="55.292466" lon="8.681599">
|
|
<ele>-22.826657</ele>
|
|
<time>2026-07-10T14:54:57.000Z</time>
|
|
</trkpt>
|
|
<trkpt lat="55.292508" lon="8.681632">
|
|
<ele>-22.806317</ele>
|
|
<time>2026-07-10T14:54:58.000Z</time>
|
|
</trkpt>
|
|
<trkpt lat="55.292551" lon="8.681666">
|
|
<ele>-22.785470</ele>
|
|
<time>2026-07-10T14:54:59.000Z</time>
|
|
</trkpt>
|
|
<trkpt lat="55.292598" lon="8.681702">
|
|
<ele>-22.762802</ele>
|
|
<time>2026-07-10T14:55:00.000Z</time>
|
|
</trkpt>
|
|
<trkpt lat="55.292646" lon="8.681740">
|
|
<ele>-22.739526</ele>
|
|
<time>2026-07-10T14:55:01.000Z</time>
|
|
</trkpt>
|
|
<trkpt lat="55.292692" lon="8.681778">
|
|
<ele>-22.717053</ele>
|
|
<time>2026-07-10T14:55:02.000Z</time>
|
|
</trkpt>
|
|
<trkpt lat="55.292735" lon="8.681827">
|
|
<ele>-22.694449</ele>
|
|
<time>2026-07-10T14:55:03.000Z</time>
|
|
</trkpt>
|
|
<trkpt lat="55.292776" lon="8.681892">
|
|
<ele>-22.670435</ele>
|
|
<time>2026-07-10T14:55:04.000Z</time>
|
|
</trkpt>
|
|
<trkpt lat="55.292821" lon="8.681951">
|
|
<ele>-22.646020</ele>
|
|
<time>2026-07-10T14:55:05.000Z</time>
|
|
</trkpt>
|
|
<trkpt lat="55.292869" lon="8.682002">
|
|
<ele>-22.621629</ele>
|
|
<time>2026-07-10T14:55:06.000Z</time>
|
|
</trkpt>
|
|
<trkpt lat="55.292918" lon="8.682051">
|
|
<ele>-22.597113</ele>
|
|
<time>2026-07-10T14:55:07.000Z</time>
|
|
</trkpt>
|
|
<trkpt lat="55.292966" lon="8.682107">
|
|
<ele>-22.572059</ele>
|
|
<time>2026-07-10T14:55:08.000Z</time>
|
|
</trkpt>
|
|
<trkpt lat="55.293009" lon="8.682172">
|
|
<ele>-22.547392</ele>
|
|
<time>2026-07-10T14:55:09.000Z</time>
|
|
</trkpt>
|
|
<trkpt lat="55.293053" lon="8.682234">
|
|
<ele>-22.522866</ele>
|
|
<time>2026-07-10T14:55:10.000Z</time>
|
|
</trkpt>
|
|
<trkpt lat="55.293095" lon="8.682290">
|
|
<ele>-22.499940</ele>
|
|
<time>2026-07-10T14:55:11.000Z</time>
|
|
</trkpt>
|
|
<trkpt lat="55.293136" lon="8.682354">
|
|
<ele>-22.476091</ele>
|
|
<time>2026-07-10T14:55:12.000Z</time>
|
|
</trkpt>
|
|
<trkpt lat="55.293174" lon="8.682418">
|
|
<ele>-22.453200</ele>
|
|
<time>2026-07-10T14:55:13.000Z</time>
|
|
</trkpt>
|
|
<trkpt lat="55.293212" lon="8.682475">
|
|
<ele>-22.431473</ele>
|
|
<time>2026-07-10T14:55:14.000Z</time>
|
|
</trkpt>
|
|
<trkpt lat="55.293251" lon="8.682528">
|
|
<ele>-22.410033</ele>
|
|
<time>2026-07-10T14:55:15.000Z</time>
|
|
</trkpt>
|
|
<trkpt lat="55.293293" lon="8.682582">
|
|
<ele>-22.387403</ele>
|
|
<time>2026-07-10T14:55:16.000Z</time>
|
|
</trkpt>
|
|
<trkpt lat="55.293332" lon="8.682635">
|
|
<ele>-22.365963</ele>
|
|
<time>2026-07-10T14:55:17.000Z</time>
|
|
</trkpt>
|
|
<trkpt lat="55.293374" lon="8.682686">
|
|
<ele>-22.343763</ele>
|
|
<time>2026-07-10T14:55:18.000Z</time>
|
|
</trkpt>
|
|
<trkpt lat="55.293415" lon="8.682736">
|
|
<ele>-22.322061</ele>
|
|
<time>2026-07-10T14:55:19.000Z</time>
|
|
</trkpt>
|
|
<trkpt lat="55.293452" lon="8.682783">
|
|
<ele>-22.302208</ele>
|
|
<time>2026-07-10T14:55:20.000Z</time>
|
|
</trkpt>
|
|
<trkpt lat="55.293490" lon="8.682831">
|
|
<ele>-22.281857</ele>
|
|
<time>2026-07-10T14:55:21.000Z</time>
|
|
</trkpt>
|
|
<trkpt lat="55.293523" lon="8.682875">
|
|
<ele>-22.263843</ele>
|
|
<time>2026-07-10T14:55:22.000Z</time>
|
|
</trkpt>
|
|
<trkpt lat="55.293556" lon="8.682920">
|
|
<ele>-22.245679</ele>
|
|
<time>2026-07-10T14:55:23.000Z</time>
|
|
</trkpt>
|
|
<trkpt lat="55.293599" lon="8.682970">
|
|
<ele>-22.223257</ele>
|
|
<time>2026-07-10T14:55:24.000Z</time>
|
|
</trkpt>
|
|
<trkpt lat="55.293644" lon="8.683027">
|
|
<ele>-22.199135</ele>
|
|
<time>2026-07-10T14:55:25.000Z</time>
|
|
</trkpt>
|
|
<trkpt lat="55.293695" lon="8.683084">
|
|
<ele>-22.172852</ele>
|
|
<time>2026-07-10T14:55:26.000Z</time>
|
|
</trkpt>
|
|
<trkpt lat="55.293740" lon="8.683146">
|
|
<ele>-22.147986</ele>
|
|
<time>2026-07-10T14:55:27.000Z</time>
|
|
</trkpt>
|
|
<trkpt lat="55.293787" lon="8.683204">
|
|
<ele>-22.123011</ele>
|
|
<time>2026-07-10T14:55:28.000Z</time>
|
|
</trkpt>
|
|
<trkpt lat="55.293836" lon="8.683263">
|
|
<ele>-22.097181</ele>
|
|
<time>2026-07-10T14:55:29.000Z</time>
|
|
</trkpt>
|
|
<trkpt lat="55.293883" lon="8.683320">
|
|
<ele>-22.072349</ele>
|
|
<time>2026-07-10T14:55:30.000Z</time>
|
|
</trkpt>
|
|
<trkpt lat="55.293931" lon="8.683372">
|
|
<ele>-22.047829</ele>
|
|
<time>2026-07-10T14:55:31.000Z</time>
|
|
</trkpt>
|
|
<trkpt lat="55.293974" lon="8.683427">
|
|
<ele>-22.024701</ele>
|
|
<time>2026-07-10T14:55:32.000Z</time>
|
|
</trkpt>
|
|
<trkpt lat="55.294019" lon="8.683481">
|
|
<ele>-22.001005</ele>
|
|
<time>2026-07-10T14:55:33.000Z</time>
|
|
</trkpt>
|
|
<trkpt lat="55.294062" lon="8.683537">
|
|
<ele>-21.977731</ele>
|
|
<time>2026-07-10T14:55:34.000Z</time>
|
|
</trkpt>
|
|
<trkpt lat="55.294106" lon="8.683593">
|
|
<ele>-21.954106</ele>
|
|
<time>2026-07-10T14:55:35.000Z</time>
|
|
</trkpt>
|
|
<trkpt lat="55.294149" lon="8.683651">
|
|
<ele>-21.930534</ele>
|
|
<time>2026-07-10T14:55:36.000Z</time>
|
|
</trkpt>
|
|
<trkpt lat="55.294196" lon="8.683706">
|
|
<ele>-21.917767</ele>
|
|
<time>2026-07-10T14:55:37.000Z</time>
|
|
</trkpt>
|
|
<trkpt lat="55.294244" lon="8.683755">
|
|
<ele>-21.922611</ele>
|
|
<time>2026-07-10T14:55:38.000Z</time>
|
|
</trkpt>
|
|
<trkpt lat="55.294289" lon="8.683802">
|
|
<ele>-21.927180</ele>
|
|
<time>2026-07-10T14:55:39.000Z</time>
|
|
</trkpt>
|
|
<trkpt lat="55.294331" lon="8.683850">
|
|
<ele>-21.931552</ele>
|
|
<time>2026-07-10T14:55:40.000Z</time>
|
|
</trkpt>
|
|
<trkpt lat="55.294378" lon="8.683899">
|
|
<ele>-21.936322</ele>
|
|
<time>2026-07-10T14:55:41.000Z</time>
|
|
</trkpt>
|
|
<trkpt lat="55.294423" lon="8.683949">
|
|
<ele>-21.940968</ele>
|
|
<time>2026-07-10T14:55:42.000Z</time>
|
|
</trkpt>
|
|
<trkpt lat="55.294468" lon="8.683999">
|
|
<ele>-21.945615</ele>
|
|
<time>2026-07-10T14:55:43.000Z</time>
|
|
</trkpt>
|
|
<trkpt lat="55.294514" lon="8.684043">
|
|
<ele>-21.950186</ele>
|
|
<time>2026-07-10T14:55:44.000Z</time>
|
|
</trkpt>
|
|
<trkpt lat="55.294565" lon="8.684089">
|
|
<ele>-21.955188</ele>
|
|
<time>2026-07-10T14:55:45.000Z</time>
|
|
</trkpt>
|
|
<trkpt lat="55.294612" lon="8.684138">
|
|
<ele>-21.959958</ele>
|
|
<time>2026-07-10T14:55:46.000Z</time>
|
|
</trkpt>
|
|
<trkpt lat="55.294660" lon="8.684189">
|
|
<ele>-21.964853</ele>
|
|
<time>2026-07-10T14:55:47.000Z</time>
|
|
</trkpt>
|
|
<trkpt lat="55.294704" lon="8.684243">
|
|
<ele>-21.969537</ele>
|
|
<time>2026-07-10T14:55:48.000Z</time>
|
|
</trkpt>
|
|
<trkpt lat="55.294747" lon="8.684295">
|
|
<ele>-21.974093</ele>
|
|
<time>2026-07-10T14:55:49.000Z</time>
|
|
</trkpt>
|
|
<trkpt lat="55.294788" lon="8.684344">
|
|
<ele>-21.978420</ele>
|
|
<time>2026-07-10T14:55:50.000Z</time>
|
|
</trkpt>
|
|
<trkpt lat="55.294829" lon="8.684392">
|
|
<ele>-21.982720</ele>
|
|
<time>2026-07-10T14:55:51.000Z</time>
|
|
</trkpt>
|
|
<trkpt lat="55.294870" lon="8.684438">
|
|
<ele>-21.986965</ele>
|
|
<time>2026-07-10T14:55:52.000Z</time>
|
|
</trkpt>
|
|
<trkpt lat="55.294918" lon="8.684479">
|
|
<ele>-21.991623</ele>
|
|
<time>2026-07-10T14:55:53.000Z</time>
|
|
</trkpt>
|
|
<trkpt lat="55.294973" lon="8.684520">
|
|
<ele>-21.996837</ele>
|
|
<time>2026-07-10T14:55:54.000Z</time>
|
|
</trkpt>
|
|
<trkpt lat="55.295034" lon="8.684568">
|
|
<ele>-22.002669</ele>
|
|
<time>2026-07-10T14:55:55.000Z</time>
|
|
</trkpt>
|
|
<trkpt lat="55.295087" lon="8.684618">
|
|
<ele>-22.007919</ele>
|
|
<time>2026-07-10T14:55:56.000Z</time>
|
|
</trkpt>
|
|
<trkpt lat="55.295132" lon="8.684673">
|
|
<ele>-22.012703</ele>
|
|
<time>2026-07-10T14:55:57.000Z</time>
|
|
</trkpt>
|
|
<trkpt lat="55.295175" lon="8.684726">
|
|
<ele>-22.017287</ele>
|
|
<time>2026-07-10T14:55:58.000Z</time>
|
|
</trkpt>
|
|
<trkpt lat="55.295220" lon="8.684776">
|
|
<ele>-22.021934</ele>
|
|
<time>2026-07-10T14:55:59.000Z</time>
|
|
</trkpt>
|
|
<trkpt lat="55.295261" lon="8.684820">
|
|
<ele>-22.026126</ele>
|
|
<time>2026-07-10T14:56:00.000Z</time>
|
|
</trkpt>
|
|
<trkpt lat="55.295305" lon="8.684873">
|
|
<ele>-22.030782</ele>
|
|
<time>2026-07-10T14:56:01.000Z</time>
|
|
</trkpt>
|
|
<trkpt lat="55.295354" lon="8.684939">
|
|
<ele>-22.036170</ele>
|
|
<time>2026-07-10T14:56:02.000Z</time>
|
|
</trkpt>
|
|
<trkpt lat="55.295399" lon="8.685005">
|
|
<ele>-22.041286</ele>
|
|
<time>2026-07-10T14:56:03.000Z</time>
|
|
</trkpt>
|
|
<trkpt lat="55.295445" lon="8.685070">
|
|
<ele>-22.046438</ele>
|
|
<time>2026-07-10T14:56:04.000Z</time>
|
|
</trkpt>
|
|
<trkpt lat="55.295490" lon="8.685129">
|
|
<ele>-22.051338</ele>
|
|
<time>2026-07-10T14:56:05.000Z</time>
|
|
</trkpt>
|
|
<trkpt lat="55.295543" lon="8.685185">
|
|
<ele>-22.056735</ele>
|
|
<time>2026-07-10T14:56:06.000Z</time>
|
|
</trkpt>
|
|
<trkpt lat="55.295595" lon="8.685228">
|
|
<ele>-22.061751</ele>
|
|
<time>2026-07-10T14:56:07.000Z</time>
|
|
</trkpt>
|
|
<trkpt lat="55.295640" lon="8.685269">
|
|
<ele>-22.066174</ele>
|
|
<time>2026-07-10T14:56:08.000Z</time>
|
|
</trkpt>
|
|
<trkpt lat="55.295688" lon="8.685324">
|
|
<ele>-22.071175</ele>
|
|
<time>2026-07-10T14:56:09.000Z</time>
|
|
</trkpt>
|
|
<trkpt lat="55.295741" lon="8.685375">
|
|
<ele>-22.078198</ele>
|
|
<time>2026-07-10T14:56:10.000Z</time>
|
|
</trkpt>
|
|
<trkpt lat="55.295791" lon="8.685422">
|
|
<ele>-22.085486</ele>
|
|
<time>2026-07-10T14:56:11.000Z</time>
|
|
</trkpt>
|
|
<trkpt lat="55.295846" lon="8.685470">
|
|
<ele>-22.093379</ele>
|
|
<time>2026-07-10T14:56:12.000Z</time>
|
|
</trkpt>
|
|
<trkpt lat="55.295903" lon="8.685519">
|
|
<ele>-22.101535</ele>
|
|
<time>2026-07-10T14:56:13.000Z</time>
|
|
</trkpt>
|
|
<trkpt lat="55.295957" lon="8.685563">
|
|
<ele>-22.109185</ele>
|
|
<time>2026-07-10T14:56:14.000Z</time>
|
|
</trkpt>
|
|
<trkpt lat="55.296012" lon="8.685603">
|
|
<ele>-22.116836</ele>
|
|
<time>2026-07-10T14:56:15.000Z</time>
|
|
</trkpt>
|
|
<trkpt lat="55.296064" lon="8.685632">
|
|
<ele>-22.123847</ele>
|
|
<time>2026-07-10T14:56:16.000Z</time>
|
|
</trkpt>
|
|
<trkpt lat="55.296113" lon="8.685659">
|
|
<ele>-22.130447</ele>
|
|
<time>2026-07-10T14:56:17.000Z</time>
|
|
</trkpt>
|
|
<trkpt lat="55.296166" lon="8.685684">
|
|
<ele>-22.137500</ele>
|
|
<time>2026-07-10T14:56:18.000Z</time>
|
|
</trkpt>
|
|
<trkpt lat="55.296222" lon="8.685702">
|
|
<ele>-22.144817</ele>
|
|
<time>2026-07-10T14:56:19.000Z</time>
|
|
</trkpt>
|
|
<trkpt lat="55.296276" lon="8.685716">
|
|
<ele>-22.151832</ele>
|
|
<time>2026-07-10T14:56:20.000Z</time>
|
|
</trkpt>
|
|
<trkpt lat="55.296329" lon="8.685730">
|
|
<ele>-22.158720</ele>
|
|
<time>2026-07-10T14:56:21.000Z</time>
|
|
</trkpt>
|
|
<trkpt lat="55.296383" lon="8.685745">
|
|
<ele>-22.165746</ele>
|
|
<time>2026-07-10T14:56:22.000Z</time>
|
|
</trkpt>
|
|
<trkpt lat="55.296435" lon="8.685760">
|
|
<ele>-22.172518</ele>
|
|
<time>2026-07-10T14:56:23.000Z</time>
|
|
</trkpt>
|
|
<trkpt lat="55.296484" lon="8.685779">
|
|
<ele>-22.178967</ele>
|
|
<time>2026-07-10T14:56:24.000Z</time>
|
|
</trkpt>
|
|
<trkpt lat="55.296538" lon="8.685793">
|
|
<ele>-22.185982</ele>
|
|
<time>2026-07-10T14:56:25.000Z</time>
|
|
</trkpt>
|
|
<trkpt lat="55.296595" lon="8.685804">
|
|
<ele>-22.193352</ele>
|
|
<time>2026-07-10T14:56:26.000Z</time>
|
|
</trkpt>
|
|
<trkpt lat="55.296646" lon="8.685816">
|
|
<ele>-22.199965</ele>
|
|
<time>2026-07-10T14:56:27.000Z</time>
|
|
</trkpt>
|
|
<trkpt lat="55.296699" lon="8.685830">
|
|
<ele>-22.206853</ele>
|
|
<time>2026-07-10T14:56:28.000Z</time>
|
|
</trkpt>
|
|
<trkpt lat="55.296760" lon="8.685842">
|
|
<ele>-22.214741</ele>
|
|
<time>2026-07-10T14:56:29.000Z</time>
|
|
</trkpt>
|
|
<trkpt lat="55.296834" lon="8.685853">
|
|
<ele>-22.224286</ele>
|
|
<time>2026-07-10T14:56:30.000Z</time>
|
|
</trkpt>
|
|
<trkpt lat="55.296906" lon="8.685863">
|
|
<ele>-22.233568</ele>
|
|
<time>2026-07-10T14:56:31.000Z</time>
|
|
</trkpt>
|
|
<trkpt lat="55.296977" lon="8.685876">
|
|
<ele>-22.242742</ele>
|
|
<time>2026-07-10T14:56:32.000Z</time>
|
|
</trkpt>
|
|
<trkpt lat="55.297041" lon="8.685891">
|
|
<ele>-22.251040</ele>
|
|
<time>2026-07-10T14:56:33.000Z</time>
|
|
</trkpt>
|
|
<trkpt lat="55.297106" lon="8.685909">
|
|
<ele>-22.259497</ele>
|
|
<time>2026-07-10T14:56:34.000Z</time>
|
|
</trkpt>
|
|
<trkpt lat="55.297172" lon="8.685921">
|
|
<ele>-22.268024</ele>
|
|
<time>2026-07-10T14:56:35.000Z</time>
|
|
</trkpt>
|
|
<trkpt lat="55.297235" lon="8.685930">
|
|
<ele>-22.276147</ele>
|
|
<time>2026-07-10T14:56:36.000Z</time>
|
|
</trkpt>
|
|
<trkpt lat="55.297290" lon="8.685943">
|
|
<ele>-22.283280</ele>
|
|
<time>2026-07-10T14:56:37.000Z</time>
|
|
</trkpt>
|
|
<trkpt lat="55.297340" lon="8.685958">
|
|
<ele>-22.289798</ele>
|
|
<time>2026-07-10T14:56:38.000Z</time>
|
|
</trkpt>
|
|
<trkpt lat="55.297395" lon="8.685967">
|
|
<ele>-22.296898</ele>
|
|
<time>2026-07-10T14:56:39.000Z</time>
|
|
</trkpt>
|
|
<trkpt lat="55.297454" lon="8.685978">
|
|
<ele>-22.303692</ele>
|
|
<time>2026-07-10T14:56:40.000Z</time>
|
|
</trkpt>
|
|
<trkpt lat="55.297506" lon="8.685989">
|
|
<ele>-22.301380</ele>
|
|
<time>2026-07-10T14:56:41.000Z</time>
|
|
</trkpt>
|
|
<trkpt lat="55.297562" lon="8.686001">
|
|
<ele>-22.298889</ele>
|
|
<time>2026-07-10T14:56:42.000Z</time>
|
|
</trkpt>
|
|
<trkpt lat="55.297615" lon="8.686014">
|
|
<ele>-22.296527</ele>
|
|
<time>2026-07-10T14:56:43.000Z</time>
|
|
</trkpt>
|
|
<trkpt lat="55.297669" lon="8.686028">
|
|
<ele>-22.294117</ele>
|
|
<time>2026-07-10T14:56:44.000Z</time>
|
|
</trkpt>
|
|
<trkpt lat="55.297725" lon="8.686041">
|
|
<ele>-22.291623</ele>
|
|
<time>2026-07-10T14:56:45.000Z</time>
|
|
</trkpt>
|
|
<trkpt lat="55.297788" lon="8.686056">
|
|
<ele>-22.288816</ele>
|
|
<time>2026-07-10T14:56:46.000Z</time>
|
|
</trkpt>
|
|
<trkpt lat="55.297859" lon="8.686076">
|
|
<ele>-22.285642</ele>
|
|
<time>2026-07-10T14:56:47.000Z</time>
|
|
</trkpt>
|
|
<trkpt lat="55.297925" lon="8.686099">
|
|
<ele>-22.282671</ele>
|
|
<time>2026-07-10T14:56:48.000Z</time>
|
|
</trkpt>
|
|
<trkpt lat="55.297995" lon="8.686136">
|
|
<ele>-22.279444</ele>
|
|
<time>2026-07-10T14:56:49.000Z</time>
|
|
</trkpt>
|
|
<trkpt lat="55.298072" lon="8.686172">
|
|
<ele>-22.275926</ele>
|
|
<time>2026-07-10T14:56:50.000Z</time>
|
|
</trkpt>
|
|
<trkpt lat="55.298149" lon="8.686202">
|
|
<ele>-22.272444</ele>
|
|
<time>2026-07-10T14:56:51.000Z</time>
|
|
</trkpt>
|
|
<trkpt lat="55.298227" lon="8.686230">
|
|
<ele>-22.268929</ele>
|
|
<time>2026-07-10T14:56:52.000Z</time>
|
|
</trkpt>
|
|
<trkpt lat="55.298301" lon="8.686253">
|
|
<ele>-22.265611</ele>
|
|
<time>2026-07-10T14:56:53.000Z</time>
|
|
</trkpt>
|
|
<trkpt lat="55.298374" lon="8.686275">
|
|
<ele>-22.262342</ele>
|
|
<time>2026-07-10T14:56:54.000Z</time>
|
|
</trkpt>
|
|
<trkpt lat="55.298442" lon="8.686295">
|
|
<ele>-22.259298</ele>
|
|
<time>2026-07-10T14:56:55.000Z</time>
|
|
</trkpt>
|
|
<trkpt lat="55.298508" lon="8.686313">
|
|
<ele>-22.256349</ele>
|
|
<time>2026-07-10T14:56:56.000Z</time>
|
|
</trkpt>
|
|
<trkpt lat="55.298575" lon="8.686333">
|
|
<ele>-22.253349</ele>
|
|
<time>2026-07-10T14:56:57.000Z</time>
|
|
</trkpt>
|
|
<trkpt lat="55.298640" lon="8.686354">
|
|
<ele>-22.250431</ele>
|
|
<time>2026-07-10T14:56:58.000Z</time>
|
|
</trkpt>
|
|
<trkpt lat="55.298706" lon="8.686374">
|
|
<ele>-22.247474</ele>
|
|
<time>2026-07-10T14:56:59.000Z</time>
|
|
</trkpt>
|
|
<trkpt lat="55.298773" lon="8.686392">
|
|
<ele>-22.244482</ele>
|
|
<time>2026-07-10T14:57:00.000Z</time>
|
|
</trkpt>
|
|
<trkpt lat="55.298839" lon="8.686407">
|
|
<ele>-22.241544</ele>
|
|
<time>2026-07-10T14:57:01.000Z</time>
|
|
</trkpt>
|
|
<trkpt lat="55.298909" lon="8.686426">
|
|
<ele>-22.238416</ele>
|
|
<time>2026-07-10T14:57:02.000Z</time>
|
|
</trkpt>
|
|
<trkpt lat="55.298977" lon="8.686446">
|
|
<ele>-22.235373</ele>
|
|
<time>2026-07-10T14:57:03.000Z</time>
|
|
</trkpt>
|
|
<trkpt lat="55.299041" lon="8.686466">
|
|
<ele>-22.232503</ele>
|
|
<time>2026-07-10T14:57:04.000Z</time>
|
|
</trkpt>
|
|
<trkpt lat="55.299105" lon="8.686487">
|
|
<ele>-22.229628</ele>
|
|
<time>2026-07-10T14:57:05.000Z</time>
|
|
</trkpt>
|
|
<trkpt lat="55.299170" lon="8.686506">
|
|
<ele>-22.226719</ele>
|
|
<time>2026-07-10T14:57:06.000Z</time>
|
|
</trkpt>
|
|
<trkpt lat="55.299236" lon="8.686523">
|
|
<ele>-22.231230</ele>
|
|
<time>2026-07-10T14:57:07.000Z</time>
|
|
</trkpt>
|
|
<trkpt lat="55.299300" lon="8.686540">
|
|
<ele>-22.257842</ele>
|
|
<time>2026-07-10T14:57:08.000Z</time>
|
|
</trkpt>
|
|
<trkpt lat="55.299362" lon="8.686558">
|
|
<ele>-22.283678</ele>
|
|
<time>2026-07-10T14:57:09.000Z</time>
|
|
</trkpt>
|
|
<trkpt lat="55.299425" lon="8.686575">
|
|
<ele>-22.309884</ele>
|
|
<time>2026-07-10T14:57:10.000Z</time>
|
|
</trkpt>
|
|
<trkpt lat="55.299488" lon="8.686592">
|
|
<ele>-22.336089</ele>
|
|
<time>2026-07-10T14:57:11.000Z</time>
|
|
</trkpt>
|
|
<trkpt lat="55.299551" lon="8.686605">
|
|
<ele>-22.362169</ele>
|
|
<time>2026-07-10T14:57:12.000Z</time>
|
|
</trkpt>
|
|
<trkpt lat="55.299615" lon="8.686618">
|
|
<ele>-22.388657</ele>
|
|
<time>2026-07-10T14:57:13.000Z</time>
|
|
</trkpt>
|
|
<trkpt lat="55.299682" lon="8.686630">
|
|
<ele>-22.416346</ele>
|
|
<time>2026-07-10T14:57:14.000Z</time>
|
|
</trkpt>
|
|
<trkpt lat="55.299746" lon="8.686642">
|
|
<ele>-22.442808</ele>
|
|
<time>2026-07-10T14:57:15.000Z</time>
|
|
</trkpt>
|
|
<trkpt lat="55.299807" lon="8.686658">
|
|
<ele>-22.468165</ele>
|
|
<time>2026-07-10T14:57:16.000Z</time>
|
|
</trkpt>
|
|
<trkpt lat="55.299868" lon="8.686676">
|
|
<ele>-22.493596</ele>
|
|
<time>2026-07-10T14:57:17.000Z</time>
|
|
</trkpt>
|
|
<trkpt lat="55.299929" lon="8.686696">
|
|
<ele>-22.519108</ele>
|
|
<time>2026-07-10T14:57:18.000Z</time>
|
|
</trkpt>
|
|
<trkpt lat="55.299990" lon="8.686713">
|
|
<ele>-22.544501</ele>
|
|
<time>2026-07-10T14:57:19.000Z</time>
|
|
</trkpt>
|
|
<trkpt lat="55.300051" lon="8.686730">
|
|
<ele>-22.569894</ele>
|
|
<time>2026-07-10T14:57:20.000Z</time>
|
|
</trkpt>
|
|
<trkpt lat="55.300112" lon="8.686746">
|
|
<ele>-22.595251</ele>
|
|
<time>2026-07-10T14:57:21.000Z</time>
|
|
</trkpt>
|
|
<trkpt lat="55.300172" lon="8.686762">
|
|
<ele>-22.620202</ele>
|
|
<time>2026-07-10T14:57:22.000Z</time>
|
|
</trkpt>
|
|
<trkpt lat="55.300236" lon="8.686780">
|
|
<ele>-22.646850</ele>
|
|
<time>2026-07-10T14:57:23.000Z</time>
|
|
</trkpt>
|
|
<trkpt lat="55.300298" lon="8.686800">
|
|
<ele>-22.672766</ele>
|
|
<time>2026-07-10T14:57:24.000Z</time>
|
|
</trkpt>
|
|
<trkpt lat="55.300359" lon="8.686815">
|
|
<ele>-22.698090</ele>
|
|
<time>2026-07-10T14:57:25.000Z</time>
|
|
</trkpt>
|
|
<trkpt lat="55.300417" lon="8.686829">
|
|
<ele>-22.722160</ele>
|
|
<time>2026-07-10T14:57:26.000Z</time>
|
|
</trkpt>
|
|
<trkpt lat="55.300478" lon="8.686842">
|
|
<ele>-22.747423</ele>
|
|
<time>2026-07-10T14:57:27.000Z</time>
|
|
</trkpt>
|
|
<trkpt lat="55.300537" lon="8.686857">
|
|
<ele>-22.771933</ele>
|
|
<time>2026-07-10T14:57:28.000Z</time>
|
|
</trkpt>
|
|
<trkpt lat="55.300592" lon="8.686874">
|
|
<ele>-22.794893</ele>
|
|
<time>2026-07-10T14:57:29.000Z</time>
|
|
</trkpt>
|
|
<trkpt lat="55.300648" lon="8.686893">
|
|
<ele>-22.818342</ele>
|
|
<time>2026-07-10T14:57:30.000Z</time>
|
|
</trkpt>
|
|
<trkpt lat="55.300702" lon="8.686918">
|
|
<ele>-22.841301</ele>
|
|
<time>2026-07-10T14:57:31.000Z</time>
|
|
</trkpt>
|
|
<trkpt lat="55.300759" lon="8.686947">
|
|
<ele>-22.865699</ele>
|
|
<time>2026-07-10T14:57:32.000Z</time>
|
|
</trkpt>
|
|
<trkpt lat="55.300817" lon="8.686981">
|
|
<ele>-22.890838</ele>
|
|
<time>2026-07-10T14:57:33.000Z</time>
|
|
</trkpt>
|
|
<trkpt lat="55.300877" lon="8.687027">
|
|
<ele>-22.917753</ele>
|
|
<time>2026-07-10T14:57:34.000Z</time>
|
|
</trkpt>
|
|
<trkpt lat="55.300933" lon="8.687083">
|
|
<ele>-22.944246</ele>
|
|
<time>2026-07-10T14:57:35.000Z</time>
|
|
</trkpt>
|
|
<trkpt lat="55.300985" lon="8.687148">
|
|
<ele>-22.962345</ele>
|
|
<time>2026-07-10T14:57:36.000Z</time>
|
|
</trkpt>
|
|
<trkpt lat="55.301035" lon="8.687219">
|
|
<ele>-22.955681</ele>
|
|
<time>2026-07-10T14:57:37.000Z</time>
|
|
</trkpt>
|
|
<trkpt lat="55.301084" lon="8.687291">
|
|
<ele>-22.949060</ele>
|
|
<time>2026-07-10T14:57:38.000Z</time>
|
|
</trkpt>
|
|
<trkpt lat="55.301132" lon="8.687362">
|
|
<ele>-22.942557</ele>
|
|
<time>2026-07-10T14:57:39.000Z</time>
|
|
</trkpt>
|
|
<trkpt lat="55.301180" lon="8.687440">
|
|
<ele>-22.935780</ele>
|
|
<time>2026-07-10T14:57:40.000Z</time>
|
|
</trkpt>
|
|
<trkpt lat="55.301229" lon="8.687519">
|
|
<ele>-22.928887</ele>
|
|
<time>2026-07-10T14:57:41.000Z</time>
|
|
</trkpt>
|
|
<trkpt lat="55.301275" lon="8.687599">
|
|
<ele>-22.922178</ele>
|
|
<time>2026-07-10T14:57:42.000Z</time>
|
|
</trkpt>
|
|
<trkpt lat="55.301325" lon="8.687675">
|
|
<ele>-22.915326</ele>
|
|
<time>2026-07-10T14:57:43.000Z</time>
|
|
</trkpt>
|
|
<trkpt lat="55.301374" lon="8.687751">
|
|
<ele>-22.908551</ele>
|
|
<time>2026-07-10T14:57:44.000Z</time>
|
|
</trkpt>
|
|
<trkpt lat="55.301421" lon="8.687826">
|
|
<ele>-22.901970</ele>
|
|
<time>2026-07-10T14:57:45.000Z</time>
|
|
</trkpt>
|
|
<trkpt lat="55.301470" lon="8.687903">
|
|
<ele>-22.895157</ele>
|
|
<time>2026-07-10T14:57:46.000Z</time>
|
|
</trkpt>
|
|
<trkpt lat="55.301519" lon="8.687977">
|
|
<ele>-22.888460</ele>
|
|
<time>2026-07-10T14:57:47.000Z</time>
|
|
</trkpt>
|
|
<trkpt lat="55.301565" lon="8.688046">
|
|
<ele>-22.882191</ele>
|
|
<time>2026-07-10T14:57:48.000Z</time>
|
|
</trkpt>
|
|
<trkpt lat="55.301612" lon="8.688114">
|
|
<ele>-22.875880</ele>
|
|
<time>2026-07-10T14:57:49.000Z</time>
|
|
</trkpt>
|
|
<trkpt lat="55.301660" lon="8.688181">
|
|
<ele>-22.869526</ele>
|
|
<time>2026-07-10T14:57:50.000Z</time>
|
|
</trkpt>
|
|
<trkpt lat="55.301707" lon="8.688249">
|
|
<ele>-22.863216</ele>
|
|
<time>2026-07-10T14:57:51.000Z</time>
|
|
</trkpt>
|
|
<trkpt lat="55.301756" lon="8.688317">
|
|
<ele>-22.856744</ele>
|
|
<time>2026-07-10T14:57:52.000Z</time>
|
|
</trkpt>
|
|
<trkpt lat="55.301803" lon="8.688383">
|
|
<ele>-22.850508</ele>
|
|
<time>2026-07-10T14:57:53.000Z</time>
|
|
</trkpt>
|
|
<trkpt lat="55.301852" lon="8.688444">
|
|
<ele>-22.844283</ele>
|
|
<time>2026-07-10T14:57:54.000Z</time>
|
|
</trkpt>
|
|
<trkpt lat="55.301903" lon="8.688504">
|
|
<ele>-22.837922</ele>
|
|
<time>2026-07-10T14:57:55.000Z</time>
|
|
</trkpt>
|
|
<trkpt lat="55.301955" lon="8.688563">
|
|
<ele>-22.831506</ele>
|
|
<time>2026-07-10T14:57:56.000Z</time>
|
|
</trkpt>
|
|
<trkpt lat="55.302005" lon="8.688617">
|
|
<ele>-22.825423</ele>
|
|
<time>2026-07-10T14:57:57.000Z</time>
|
|
</trkpt>
|
|
<trkpt lat="55.302054" lon="8.688671">
|
|
<ele>-22.819428</ele>
|
|
<time>2026-07-10T14:57:58.000Z</time>
|
|
</trkpt>
|
|
<trkpt lat="55.302104" lon="8.688727">
|
|
<ele>-22.813282</ele>
|
|
<time>2026-07-10T14:57:59.000Z</time>
|
|
</trkpt>
|
|
<trkpt lat="55.302152" lon="8.688784">
|
|
<ele>-22.807278</ele>
|
|
<time>2026-07-10T14:58:00.000Z</time>
|
|
</trkpt>
|
|
<trkpt lat="55.302199" lon="8.688842">
|
|
<ele>-22.801325</ele>
|
|
<time>2026-07-10T14:58:01.000Z</time>
|
|
</trkpt>
|
|
<trkpt lat="55.302248" lon="8.688899">
|
|
<ele>-22.795234</ele>
|
|
<time>2026-07-10T14:58:02.000Z</time>
|
|
</trkpt>
|
|
<trkpt lat="55.302298" lon="8.688954">
|
|
<ele>-22.789120</ele>
|
|
<time>2026-07-10T14:58:03.000Z</time>
|
|
</trkpt>
|
|
<trkpt lat="55.302348" lon="8.689013">
|
|
<ele>-22.782877</ele>
|
|
<time>2026-07-10T14:58:04.000Z</time>
|
|
</trkpt>
|
|
<trkpt lat="55.302398" lon="8.689072">
|
|
<ele>-22.779864</ele>
|
|
<time>2026-07-10T14:58:05.000Z</time>
|
|
</trkpt>
|
|
<trkpt lat="55.302446" lon="8.689130">
|
|
<ele>-22.794646</ele>
|
|
<time>2026-07-10T14:58:06.000Z</time>
|
|
</trkpt>
|
|
<trkpt lat="55.302493" lon="8.689188">
|
|
<ele>-22.809220</ele>
|
|
<time>2026-07-10T14:58:07.000Z</time>
|
|
</trkpt>
|
|
<trkpt lat="55.302542" lon="8.689246">
|
|
<ele>-22.824211</ele>
|
|
<time>2026-07-10T14:58:08.000Z</time>
|
|
</trkpt>
|
|
<trkpt lat="55.302590" lon="8.689301">
|
|
<ele>-22.838752</ele>
|
|
<time>2026-07-10T14:58:09.000Z</time>
|
|
</trkpt>
|
|
<trkpt lat="55.302638" lon="8.689360">
|
|
<ele>-22.853616</ele>
|
|
<time>2026-07-10T14:58:10.000Z</time>
|
|
</trkpt>
|
|
<trkpt lat="55.302687" lon="8.689416">
|
|
<ele>-22.868449</ele>
|
|
<time>2026-07-10T14:58:11.000Z</time>
|
|
</trkpt>
|
|
<trkpt lat="55.302737" lon="8.689470">
|
|
<ele>-22.883341</ele>
|
|
<time>2026-07-10T14:58:12.000Z</time>
|
|
</trkpt>
|
|
<trkpt lat="55.302788" lon="8.689526">
|
|
<ele>-22.898601</ele>
|
|
<time>2026-07-10T14:58:13.000Z</time>
|
|
</trkpt>
|
|
<trkpt lat="55.302833" lon="8.689581">
|
|
<ele>-22.912510</ele>
|
|
<time>2026-07-10T14:58:14.000Z</time>
|
|
</trkpt>
|
|
<trkpt lat="55.302886" lon="8.689643">
|
|
<ele>-22.928667</ele>
|
|
<time>2026-07-10T14:58:15.000Z</time>
|
|
</trkpt>
|
|
<trkpt lat="55.302934" lon="8.689698">
|
|
<ele>-22.943207</ele>
|
|
<time>2026-07-10T14:58:16.000Z</time>
|
|
</trkpt>
|
|
<trkpt lat="55.302981" lon="8.689754">
|
|
<ele>-22.957617</ele>
|
|
<time>2026-07-10T14:58:17.000Z</time>
|
|
</trkpt>
|
|
<trkpt lat="55.303031" lon="8.689809">
|
|
<ele>-22.972585</ele>
|
|
<time>2026-07-10T14:58:18.000Z</time>
|
|
</trkpt>
|
|
<trkpt lat="55.303079" lon="8.689864">
|
|
<ele>-22.987126</ele>
|
|
<time>2026-07-10T14:58:19.000Z</time>
|
|
</trkpt>
|
|
<trkpt lat="55.303126" lon="8.689924">
|
|
<ele>-23.001867</ele>
|
|
<time>2026-07-10T14:58:20.000Z</time>
|
|
</trkpt>
|
|
<trkpt lat="55.303178" lon="8.689983">
|
|
<ele>-23.017574</ele>
|
|
<time>2026-07-10T14:58:21.000Z</time>
|
|
</trkpt>
|
|
<trkpt lat="55.303230" lon="8.690042">
|
|
<ele>-23.033280</ele>
|
|
<time>2026-07-10T14:58:22.000Z</time>
|
|
</trkpt>
|
|
<trkpt lat="55.303277" lon="8.690098">
|
|
<ele>-23.047690</ele>
|
|
<time>2026-07-10T14:58:23.000Z</time>
|
|
</trkpt>
|
|
<trkpt lat="55.303328" lon="8.690160">
|
|
<ele>-23.063426</ele>
|
|
<time>2026-07-10T14:58:24.000Z</time>
|
|
</trkpt>
|
|
<trkpt lat="55.303377" lon="8.690219">
|
|
<ele>-23.078499</ele>
|
|
<time>2026-07-10T14:58:25.000Z</time>
|
|
</trkpt>
|
|
<trkpt lat="55.303429" lon="8.690276">
|
|
<ele>-23.094051</ele>
|
|
<time>2026-07-10T14:58:26.000Z</time>
|
|
</trkpt>
|
|
<trkpt lat="55.303481" lon="8.690331">
|
|
<ele>-23.109451</ele>
|
|
<time>2026-07-10T14:58:27.000Z</time>
|
|
</trkpt>
|
|
<trkpt lat="55.303531" lon="8.690385">
|
|
<ele>-23.124343</ele>
|
|
<time>2026-07-10T14:58:28.000Z</time>
|
|
</trkpt>
|
|
<trkpt lat="55.303585" lon="8.690441">
|
|
<ele>-23.140254</ele>
|
|
<time>2026-07-10T14:58:29.000Z</time>
|
|
</trkpt>
|
|
<trkpt lat="55.303638" lon="8.690490">
|
|
<ele>-23.155450</ele>
|
|
<time>2026-07-10T14:58:30.000Z</time>
|
|
</trkpt>
|
|
<trkpt lat="55.303697" lon="8.690534">
|
|
<ele>-23.171713</ele>
|
|
<time>2026-07-10T14:58:31.000Z</time>
|
|
</trkpt>
|
|
<trkpt lat="55.303759" lon="8.690570">
|
|
<ele>-23.188281</ele>
|
|
<time>2026-07-10T14:58:32.000Z</time>
|
|
</trkpt>
|
|
<trkpt lat="55.303820" lon="8.690598">
|
|
<ele>-23.204278</ele>
|
|
<time>2026-07-10T14:58:33.000Z</time>
|
|
</trkpt>
|
|
<trkpt lat="55.303882" lon="8.690618">
|
|
<ele>-23.220273</ele>
|
|
<time>2026-07-10T14:58:34.000Z</time>
|
|
</trkpt>
|
|
<trkpt lat="55.303946" lon="8.690632">
|
|
<ele>-23.232093</ele>
|
|
<time>2026-07-10T14:58:35.000Z</time>
|
|
</trkpt>
|
|
<trkpt lat="55.304007" lon="8.690648">
|
|
<ele>-23.221372</ele>
|
|
<time>2026-07-10T14:58:36.000Z</time>
|
|
</trkpt>
|
|
<trkpt lat="55.304068" lon="8.690665">
|
|
<ele>-23.210635</ele>
|
|
<time>2026-07-10T14:58:37.000Z</time>
|
|
</trkpt>
|
|
<trkpt lat="55.304130" lon="8.690681">
|
|
<ele>-23.199742</ele>
|
|
<time>2026-07-10T14:58:38.000Z</time>
|
|
</trkpt>
|
|
<trkpt lat="55.304193" lon="8.690696">
|
|
<ele>-23.188691</ele>
|
|
<time>2026-07-10T14:58:39.000Z</time>
|
|
</trkpt>
|
|
<trkpt lat="55.304256" lon="8.690709">
|
|
<ele>-23.177664</ele>
|
|
<time>2026-07-10T14:58:40.000Z</time>
|
|
</trkpt>
|
|
<trkpt lat="55.304320" lon="8.690723">
|
|
<ele>-23.166453</ele>
|
|
<time>2026-07-10T14:58:41.000Z</time>
|
|
</trkpt>
|
|
<trkpt lat="55.304380" lon="8.690744">
|
|
<ele>-23.155818</ele>
|
|
<time>2026-07-10T14:58:42.000Z</time>
|
|
</trkpt>
|
|
<trkpt lat="55.304437" lon="8.690780">
|
|
<ele>-23.145289</ele>
|
|
<time>2026-07-10T14:58:43.000Z</time>
|
|
</trkpt>
|
|
<trkpt lat="55.304492" lon="8.690838">
|
|
<ele>-23.134138</ele>
|
|
<time>2026-07-10T14:58:44.000Z</time>
|
|
</trkpt>
|
|
<trkpt lat="55.304537" lon="8.690917">
|
|
<ele>-23.123079</ele>
|
|
<time>2026-07-10T14:58:45.000Z</time>
|
|
</trkpt>
|
|
<trkpt lat="55.304567" lon="8.691015">
|
|
<ele>-23.112069</ele>
|
|
<time>2026-07-10T14:58:46.000Z</time>
|
|
</trkpt>
|
|
<trkpt lat="55.304583" lon="8.691124">
|
|
<ele>-23.100931</ele>
|
|
<time>2026-07-10T14:58:47.000Z</time>
|
|
</trkpt>
|
|
<trkpt lat="55.304589" lon="8.691231">
|
|
<ele>-23.090292</ele>
|
|
<time>2026-07-10T14:58:48.000Z</time>
|
|
</trkpt>
|
|
<trkpt lat="55.304593" lon="8.691337">
|
|
<ele>-23.079780</ele>
|
|
<time>2026-07-10T14:58:49.000Z</time>
|
|
</trkpt>
|
|
<trkpt lat="55.304597" lon="8.691449">
|
|
<ele>-23.068677</ele>
|
|
<time>2026-07-10T14:58:50.000Z</time>
|
|
</trkpt>
|
|
<trkpt lat="55.304602" lon="8.691557">
|
|
<ele>-23.057955</ele>
|
|
<time>2026-07-10T14:58:51.000Z</time>
|
|
</trkpt>
|
|
<trkpt lat="55.304609" lon="8.691663">
|
|
<ele>-23.047396</ele>
|
|
<time>2026-07-10T14:58:52.000Z</time>
|
|
</trkpt>
|
|
<trkpt lat="55.304616" lon="8.691773">
|
|
<ele>-23.036444</ele>
|
|
<time>2026-07-10T14:58:53.000Z</time>
|
|
</trkpt>
|
|
<trkpt lat="55.304620" lon="8.691882">
|
|
<ele>-23.025637</ele>
|
|
<time>2026-07-10T14:58:54.000Z</time>
|
|
</trkpt>
|
|
<trkpt lat="55.304623" lon="8.691991">
|
|
<ele>-23.014839</ele>
|
|
<time>2026-07-10T14:58:55.000Z</time>
|
|
</trkpt>
|
|
<trkpt lat="55.304623" lon="8.692102">
|
|
<ele>-23.003855</ele>
|
|
<time>2026-07-10T14:58:56.000Z</time>
|
|
</trkpt>
|
|
<trkpt lat="55.304621" lon="8.692215">
|
|
<ele>-22.992669</ele>
|
|
<time>2026-07-10T14:58:57.000Z</time>
|
|
</trkpt>
|
|
<trkpt lat="55.304613" lon="8.692331">
|
|
<ele>-22.981107</ele>
|
|
<time>2026-07-10T14:58:58.000Z</time>
|
|
</trkpt>
|
|
<trkpt lat="55.304603" lon="8.692442">
|
|
<ele>-22.969987</ele>
|
|
<time>2026-07-10T14:58:59.000Z</time>
|
|
</trkpt>
|
|
<trkpt lat="55.304588" lon="8.692551">
|
|
<ele>-22.958891</ele>
|
|
<time>2026-07-10T14:59:00.000Z</time>
|
|
</trkpt>
|
|
<trkpt lat="55.304573" lon="8.692659">
|
|
<ele>-22.947891</ele>
|
|
<time>2026-07-10T14:59:01.000Z</time>
|
|
</trkpt>
|
|
<trkpt lat="55.304557" lon="8.692764">
|
|
<ele>-22.937136</ele>
|
|
<time>2026-07-10T14:59:02.000Z</time>
|
|
</trkpt>
|
|
<trkpt lat="55.304542" lon="8.692865">
|
|
<ele>-22.926808</ele>
|
|
<time>2026-07-10T14:59:03.000Z</time>
|
|
</trkpt>
|
|
<trkpt lat="55.304522" lon="8.692970">
|
|
<ele>-22.911186</ele>
|
|
<time>2026-07-10T14:59:04.000Z</time>
|
|
</trkpt>
|
|
<trkpt lat="55.304503" lon="8.693073">
|
|
<ele>-22.891261</ele>
|
|
<time>2026-07-10T14:59:05.000Z</time>
|
|
</trkpt>
|
|
<trkpt lat="55.304484" lon="8.693174">
|
|
<ele>-22.871685</ele>
|
|
<time>2026-07-10T14:59:06.000Z</time>
|
|
</trkpt>
|
|
<trkpt lat="55.304465" lon="8.693275">
|
|
<ele>-22.852110</ele>
|
|
<time>2026-07-10T14:59:07.000Z</time>
|
|
</trkpt>
|
|
<trkpt lat="55.304446" lon="8.693376">
|
|
<ele>-22.832534</ele>
|
|
<time>2026-07-10T14:59:08.000Z</time>
|
|
</trkpt>
|
|
<trkpt lat="55.304426" lon="8.693483">
|
|
<ele>-22.811809</ele>
|
|
<time>2026-07-10T14:59:09.000Z</time>
|
|
</trkpt>
|
|
<trkpt lat="55.304407" lon="8.693585">
|
|
<ele>-22.792059</ele>
|
|
<time>2026-07-10T14:59:10.000Z</time>
|
|
</trkpt>
|
|
<trkpt lat="55.304389" lon="8.693690">
|
|
<ele>-22.771879</ele>
|
|
<time>2026-07-10T14:59:11.000Z</time>
|
|
</trkpt>
|
|
<trkpt lat="55.304375" lon="8.693787">
|
|
<ele>-22.753463</ele>
|
|
<time>2026-07-10T14:59:12.000Z</time>
|
|
</trkpt>
|
|
<trkpt lat="55.304363" lon="8.693869">
|
|
<ele>-22.737882</ele>
|
|
<time>2026-07-10T14:59:13.000Z</time>
|
|
</trkpt>
|
|
<trkpt lat="55.304339" lon="8.694000">
|
|
<ele>-22.712557</ele>
|
|
<time>2026-07-10T14:59:14.000Z</time>
|
|
</trkpt>
|
|
<trkpt lat="55.304321" lon="8.694101">
|
|
<ele>-22.693080</ele>
|
|
<time>2026-07-10T14:59:15.000Z</time>
|
|
</trkpt>
|
|
<trkpt lat="55.304305" lon="8.694208">
|
|
<ele>-22.672721</ele>
|
|
<time>2026-07-10T14:59:16.000Z</time>
|
|
</trkpt>
|
|
<trkpt lat="55.304290" lon="8.694312">
|
|
<ele>-22.652977</ele>
|
|
<time>2026-07-10T14:59:17.000Z</time>
|
|
</trkpt>
|
|
<trkpt lat="55.304276" lon="8.694417">
|
|
<ele>-22.633131</ele>
|
|
<time>2026-07-10T14:59:18.000Z</time>
|
|
</trkpt>
|
|
<trkpt lat="55.304264" lon="8.694522">
|
|
<ele>-22.613423</ele>
|
|
<time>2026-07-10T14:59:19.000Z</time>
|
|
</trkpt>
|
|
<trkpt lat="55.304249" lon="8.694627">
|
|
<ele>-22.593501</ele>
|
|
<time>2026-07-10T14:59:20.000Z</time>
|
|
</trkpt>
|
|
<trkpt lat="55.304237" lon="8.694732">
|
|
<ele>-22.573792</ele>
|
|
<time>2026-07-10T14:59:21.000Z</time>
|
|
</trkpt>
|
|
<trkpt lat="55.304222" lon="8.694838">
|
|
<ele>-22.553691</ele>
|
|
<time>2026-07-10T14:59:22.000Z</time>
|
|
</trkpt>
|
|
<trkpt lat="55.304208" lon="8.694944">
|
|
<ele>-22.533666</ele>
|
|
<time>2026-07-10T14:59:23.000Z</time>
|
|
</trkpt>
|
|
<trkpt lat="55.304196" lon="8.695051">
|
|
<ele>-22.513597</ele>
|
|
<time>2026-07-10T14:59:24.000Z</time>
|
|
</trkpt>
|
|
<trkpt lat="55.304185" lon="8.695158">
|
|
<ele>-22.493587</ele>
|
|
<time>2026-07-10T14:59:25.000Z</time>
|
|
</trkpt>
|
|
<trkpt lat="55.304173" lon="8.695262">
|
|
<ele>-22.474059</ele>
|
|
<time>2026-07-10T14:59:26.000Z</time>
|
|
</trkpt>
|
|
<trkpt lat="55.304163" lon="8.695368">
|
|
<ele>-22.454286</ele>
|
|
<time>2026-07-10T14:59:27.000Z</time>
|
|
</trkpt>
|
|
<trkpt lat="55.304155" lon="8.695477">
|
|
<ele>-22.434061</ele>
|
|
<time>2026-07-10T14:59:28.000Z</time>
|
|
</trkpt>
|
|
<trkpt lat="55.304148" lon="8.695585">
|
|
<ele>-22.414057</ele>
|
|
<time>2026-07-10T14:59:29.000Z</time>
|
|
</trkpt>
|
|
<trkpt lat="55.304141" lon="8.695695">
|
|
<ele>-22.393688</ele>
|
|
<time>2026-07-10T14:59:30.000Z</time>
|
|
</trkpt>
|
|
<trkpt lat="55.304136" lon="8.695801">
|
|
<ele>-22.374114</ele>
|
|
<time>2026-07-10T14:59:31.000Z</time>
|
|
</trkpt>
|
|
<trkpt lat="55.304129" lon="8.695915">
|
|
<ele>-22.353013</ele>
|
|
<time>2026-07-10T14:59:32.000Z</time>
|
|
</trkpt>
|
|
<trkpt lat="55.304125" lon="8.696022">
|
|
<ele>-22.335082</ele>
|
|
<time>2026-07-10T14:59:33.000Z</time>
|
|
</trkpt>
|
|
<trkpt lat="55.304117" lon="8.696129">
|
|
<ele>-22.320729</ele>
|
|
<time>2026-07-10T14:59:34.000Z</time>
|
|
</trkpt>
|
|
<trkpt lat="55.304109" lon="8.696233">
|
|
<ele>-22.306772</ele>
|
|
<time>2026-07-10T14:59:35.000Z</time>
|
|
</trkpt>
|
|
<trkpt lat="55.304103" lon="8.696334">
|
|
<ele>-22.293266</ele>
|
|
<time>2026-07-10T14:59:36.000Z</time>
|
|
</trkpt>
|
|
<trkpt lat="55.304098" lon="8.696434">
|
|
<ele>-22.279915</ele>
|
|
<time>2026-07-10T14:59:37.000Z</time>
|
|
</trkpt>
|
|
<trkpt lat="55.304090" lon="8.696536">
|
|
<ele>-22.266221</ele>
|
|
<time>2026-07-10T14:59:38.000Z</time>
|
|
</trkpt>
|
|
<trkpt lat="55.304083" lon="8.696639">
|
|
<ele>-22.252425</ele>
|
|
<time>2026-07-10T14:59:39.000Z</time>
|
|
</trkpt>
|
|
<trkpt lat="55.304076" lon="8.696742">
|
|
<ele>-22.238630</ele>
|
|
<time>2026-07-10T14:59:40.000Z</time>
|
|
</trkpt>
|
|
<trkpt lat="55.304071" lon="8.696837">
|
|
<ele>-22.225941</ele>
|
|
<time>2026-07-10T14:59:41.000Z</time>
|
|
</trkpt>
|
|
<trkpt lat="55.304065" lon="8.696926">
|
|
<ele>-22.214022</ele>
|
|
<time>2026-07-10T14:59:42.000Z</time>
|
|
</trkpt>
|
|
<trkpt lat="55.304060" lon="8.697023">
|
|
<ele>-22.201068</ele>
|
|
<time>2026-07-10T14:59:43.000Z</time>
|
|
</trkpt>
|
|
<trkpt lat="55.304053" lon="8.697100">
|
|
<ele>-22.190698</ele>
|
|
<time>2026-07-10T14:59:44.000Z</time>
|
|
</trkpt>
|
|
<trkpt lat="55.304049" lon="8.697175">
|
|
<ele>-22.180679</ele>
|
|
<time>2026-07-10T14:59:45.000Z</time>
|
|
</trkpt>
|
|
<trkpt lat="55.304047" lon="8.697244">
|
|
<ele>-22.171490</ele>
|
|
<time>2026-07-10T14:59:46.000Z</time>
|
|
</trkpt>
|
|
<trkpt lat="55.304046" lon="8.697313">
|
|
<ele>-22.162311</ele>
|
|
<time>2026-07-10T14:59:47.000Z</time>
|
|
</trkpt>
|
|
<trkpt lat="55.304042" lon="8.697380">
|
|
<ele>-22.153351</ele>
|
|
<time>2026-07-10T14:59:48.000Z</time>
|
|
</trkpt>
|
|
<trkpt lat="55.304037" lon="8.697447">
|
|
<ele>-22.144364</ele>
|
|
<time>2026-07-10T14:59:49.000Z</time>
|
|
</trkpt>
|
|
<trkpt lat="55.304028" lon="8.697514">
|
|
<ele>-22.135209</ele>
|
|
<time>2026-07-10T14:59:50.000Z</time>
|
|
</trkpt>
|
|
<trkpt lat="55.304015" lon="8.697576">
|
|
<ele>-22.126421</ele>
|
|
<time>2026-07-10T14:59:51.000Z</time>
|
|
</trkpt>
|
|
<trkpt lat="55.303996" lon="8.697627">
|
|
<ele>-22.118315</ele>
|
|
<time>2026-07-10T14:59:52.000Z</time>
|
|
</trkpt>
|
|
<trkpt lat="55.303980" lon="8.697674">
|
|
<ele>-22.111031</ele>
|
|
<time>2026-07-10T14:59:53.000Z</time>
|
|
</trkpt>
|
|
<trkpt lat="55.303959" lon="8.697749">
|
|
<ele>-22.099915</ele>
|
|
<time>2026-07-10T14:59:54.000Z</time>
|
|
</trkpt>
|
|
<trkpt lat="55.303949" lon="8.697815">
|
|
<ele>-22.090832</ele>
|
|
<time>2026-07-10T14:59:55.000Z</time>
|
|
</trkpt>
|
|
<trkpt lat="55.303943" lon="8.697883">
|
|
<ele>-22.081680</ele>
|
|
<time>2026-07-10T14:59:56.000Z</time>
|
|
</trkpt>
|
|
<trkpt lat="55.303939" lon="8.697956">
|
|
<ele>-22.071926</ele>
|
|
<time>2026-07-10T14:59:57.000Z</time>
|
|
</trkpt>
|
|
<trkpt lat="55.303934" lon="8.698030">
|
|
<ele>-22.062015</ele>
|
|
<time>2026-07-10T14:59:58.000Z</time>
|
|
</trkpt>
|
|
<trkpt lat="55.303928" lon="8.698101">
|
|
<ele>-22.052469</ele>
|
|
<time>2026-07-10T14:59:59.000Z</time>
|
|
</trkpt>
|
|
<trkpt lat="55.303922" lon="8.698184">
|
|
<ele>-22.041342</ele>
|
|
<time>2026-07-10T15:00:00.000Z</time>
|
|
</trkpt>
|
|
<trkpt lat="55.303915" lon="8.698262">
|
|
<ele>-22.030840</ele>
|
|
<time>2026-07-10T15:00:01.000Z</time>
|
|
</trkpt>
|
|
<trkpt lat="55.303907" lon="8.698344">
|
|
<ele>-22.019775</ele>
|
|
<time>2026-07-10T15:00:02.000Z</time>
|
|
</trkpt>
|
|
<trkpt lat="55.303900" lon="8.698424">
|
|
<ele>-22.009010</ele>
|
|
<time>2026-07-10T15:00:03.000Z</time>
|
|
</trkpt>
|
|
<trkpt lat="55.303893" lon="8.698507">
|
|
<ele>-21.997851</ele>
|
|
<time>2026-07-10T15:00:04.000Z</time>
|
|
</trkpt>
|
|
<trkpt lat="55.303888" lon="8.698596">
|
|
<ele>-21.985957</ele>
|
|
<time>2026-07-10T15:00:05.000Z</time>
|
|
</trkpt>
|
|
<trkpt lat="55.303881" lon="8.698687">
|
|
<ele>-21.973744</ele>
|
|
<time>2026-07-10T15:00:06.000Z</time>
|
|
</trkpt>
|
|
<trkpt lat="55.303873" lon="8.698772">
|
|
<ele>-21.962286</ele>
|
|
<time>2026-07-10T15:00:07.000Z</time>
|
|
</trkpt>
|
|
<trkpt lat="55.303867" lon="8.698851">
|
|
<ele>-21.951686</ele>
|
|
<time>2026-07-10T15:00:08.000Z</time>
|
|
</trkpt>
|
|
<trkpt lat="55.303859" lon="8.698957">
|
|
<ele>-21.937465</ele>
|
|
<time>2026-07-10T15:00:09.000Z</time>
|
|
</trkpt>
|
|
<trkpt lat="55.303854" lon="8.699051">
|
|
<ele>-21.924908</ele>
|
|
<time>2026-07-10T15:00:10.000Z</time>
|
|
</trkpt>
|
|
<trkpt lat="55.303848" lon="8.699142">
|
|
<ele>-21.914192</ele>
|
|
<time>2026-07-10T15:00:11.000Z</time>
|
|
</trkpt>
|
|
<trkpt lat="55.303849" lon="8.699238">
|
|
<ele>-21.904176</ele>
|
|
<time>2026-07-10T15:00:12.000Z</time>
|
|
</trkpt>
|
|
<trkpt lat="55.303854" lon="8.699328">
|
|
<ele>-21.894742</ele>
|
|
<time>2026-07-10T15:00:13.000Z</time>
|
|
</trkpt>
|
|
<trkpt lat="55.303862" lon="8.699421">
|
|
<ele>-21.884930</ele>
|
|
<time>2026-07-10T15:00:14.000Z</time>
|
|
</trkpt>
|
|
<trkpt lat="55.303869" lon="8.699508">
|
|
<ele>-21.875764</ele>
|
|
<time>2026-07-10T15:00:15.000Z</time>
|
|
</trkpt>
|
|
<trkpt lat="55.303875" lon="8.699593">
|
|
<ele>-21.866828</ele>
|
|
<time>2026-07-10T15:00:16.000Z</time>
|
|
</trkpt>
|
|
<trkpt lat="55.303877" lon="8.699676">
|
|
<ele>-21.858162</ele>
|
|
<time>2026-07-10T15:00:17.000Z</time>
|
|
</trkpt>
|
|
<trkpt lat="55.303886" lon="8.699753">
|
|
<ele>-21.849961</ele>
|
|
<time>2026-07-10T15:00:18.000Z</time>
|
|
</trkpt>
|
|
<trkpt lat="55.303899" lon="8.699828">
|
|
<ele>-21.841782</ele>
|
|
<time>2026-07-10T15:00:19.000Z</time>
|
|
</trkpt>
|
|
<trkpt lat="55.303920" lon="8.699898">
|
|
<ele>-21.833528</ele>
|
|
<time>2026-07-10T15:00:20.000Z</time>
|
|
</trkpt>
|
|
<trkpt lat="55.303943" lon="8.699961">
|
|
<ele>-21.825720</ele>
|
|
<time>2026-07-10T15:00:21.000Z</time>
|
|
</trkpt>
|
|
<trkpt lat="55.303965" lon="8.700011">
|
|
<ele>-21.819127</ele>
|
|
<time>2026-07-10T15:00:22.000Z</time>
|
|
</trkpt>
|
|
<trkpt lat="55.303989" lon="8.700057">
|
|
<ele>-21.812617</ele>
|
|
<time>2026-07-10T15:00:23.000Z</time>
|
|
</trkpt>
|
|
<trkpt lat="55.304016" lon="8.700101">
|
|
<ele>-21.805868</ele>
|
|
<time>2026-07-10T15:00:24.000Z</time>
|
|
</trkpt>
|
|
<trkpt lat="55.304040" lon="8.700143">
|
|
<ele>-21.799659</ele>
|
|
<time>2026-07-10T15:00:25.000Z</time>
|
|
</trkpt>
|
|
<trkpt lat="55.304057" lon="8.700181">
|
|
<ele>-21.794617</ele>
|
|
<time>2026-07-10T15:00:26.000Z</time>
|
|
</trkpt>
|
|
<trkpt lat="55.304067" lon="8.700202">
|
|
<ele>-21.791761</ele>
|
|
<time>2026-07-10T15:00:27.000Z</time>
|
|
</trkpt>
|
|
<trkpt lat="55.304070" lon="8.700209">
|
|
<ele>-21.790847</ele>
|
|
<time>2026-07-10T15:00:59.000Z</time>
|
|
</trkpt>
|
|
<trkpt lat="55.304081" lon="8.700223">
|
|
<ele>-21.788358</ele>
|
|
<time>2026-07-10T15:01:02.000Z</time>
|
|
</trkpt>
|
|
<trkpt lat="55.304116" lon="8.700270">
|
|
<ele>-21.780284</ele>
|
|
<time>2026-07-10T15:01:03.000Z</time>
|
|
</trkpt>
|
|
<trkpt lat="55.304140" lon="8.700308">
|
|
<ele>-21.774362</ele>
|
|
<time>2026-07-10T15:01:04.000Z</time>
|
|
</trkpt>
|
|
<trkpt lat="55.304164" lon="8.700349">
|
|
<ele>-21.768227</ele>
|
|
<time>2026-07-10T15:01:05.000Z</time>
|
|
</trkpt>
|
|
<trkpt lat="55.304191" lon="8.700392">
|
|
<ele>-21.761548</ele>
|
|
<time>2026-07-10T15:01:06.000Z</time>
|
|
</trkpt>
|
|
<trkpt lat="55.304222" lon="8.700436">
|
|
<ele>-21.754244</ele>
|
|
<time>2026-07-10T15:01:07.000Z</time>
|
|
</trkpt>
|
|
<trkpt lat="55.304250" lon="8.700477">
|
|
<ele>-21.747564</ele>
|
|
<time>2026-07-10T15:01:08.000Z</time>
|
|
</trkpt>
|
|
<trkpt lat="55.304280" lon="8.700524">
|
|
<ele>-21.740197</ele>
|
|
<time>2026-07-10T15:01:09.000Z</time>
|
|
</trkpt>
|
|
<trkpt lat="55.304309" lon="8.700566">
|
|
<ele>-21.733309</ele>
|
|
<time>2026-07-10T15:01:10.000Z</time>
|
|
</trkpt>
|
|
<trkpt lat="55.304341" lon="8.700611">
|
|
<ele>-21.725797</ele>
|
|
<time>2026-07-10T15:01:11.000Z</time>
|
|
</trkpt>
|
|
<trkpt lat="55.304372" lon="8.700655">
|
|
<ele>-21.718493</ele>
|
|
<time>2026-07-10T15:01:12.000Z</time>
|
|
</trkpt>
|
|
<trkpt lat="55.304405" lon="8.700700">
|
|
<ele>-21.710837</ele>
|
|
<time>2026-07-10T15:01:13.000Z</time>
|
|
</trkpt>
|
|
<trkpt lat="55.304436" lon="8.700745">
|
|
<ele>-21.703467</ele>
|
|
<time>2026-07-10T15:01:14.000Z</time>
|
|
</trkpt>
|
|
<trkpt lat="55.304475" lon="8.700795">
|
|
<ele>-21.694618</ele>
|
|
<time>2026-07-10T15:01:15.000Z</time>
|
|
</trkpt>
|
|
<trkpt lat="55.304509" lon="8.700844">
|
|
<ele>-21.686559</ele>
|
|
<time>2026-07-10T15:01:16.000Z</time>
|
|
</trkpt>
|
|
<trkpt lat="55.304544" lon="8.700897">
|
|
<ele>-21.678090</ele>
|
|
<time>2026-07-10T15:01:17.000Z</time>
|
|
</trkpt>
|
|
<trkpt lat="55.304583" lon="8.700950">
|
|
<ele>-21.669054</ele>
|
|
<time>2026-07-10T15:01:18.000Z</time>
|
|
</trkpt>
|
|
<trkpt lat="55.304622" lon="8.701004">
|
|
<ele>-21.659953</ele>
|
|
<time>2026-07-10T15:01:19.000Z</time>
|
|
</trkpt>
|
|
<trkpt lat="55.304663" lon="8.701058">
|
|
<ele>-21.650562</ele>
|
|
<time>2026-07-10T15:01:20.000Z</time>
|
|
</trkpt>
|
|
<trkpt lat="55.304702" lon="8.701109">
|
|
<ele>-21.641651</ele>
|
|
<time>2026-07-10T15:01:21.000Z</time>
|
|
</trkpt>
|
|
<trkpt lat="55.304745" lon="8.701162">
|
|
<ele>-21.632024</ele>
|
|
<time>2026-07-10T15:01:22.000Z</time>
|
|
</trkpt>
|
|
<trkpt lat="55.304786" lon="8.701214">
|
|
<ele>-21.622757</ele>
|
|
<time>2026-07-10T15:01:23.000Z</time>
|
|
</trkpt>
|
|
<trkpt lat="55.304821" lon="8.701264">
|
|
<ele>-21.614489</ele>
|
|
<time>2026-07-10T15:01:24.000Z</time>
|
|
</trkpt>
|
|
<trkpt lat="55.304851" lon="8.701306">
|
|
<ele>-21.607459</ele>
|
|
<time>2026-07-10T15:01:25.000Z</time>
|
|
</trkpt>
|
|
<trkpt lat="55.304903" lon="8.701372">
|
|
<ele>-21.595702</ele>
|
|
<time>2026-07-10T15:01:26.000Z</time>
|
|
</trkpt>
|
|
<trkpt lat="55.304941" lon="8.701425">
|
|
<ele>-21.597987</ele>
|
|
<time>2026-07-10T15:01:27.000Z</time>
|
|
</trkpt>
|
|
<trkpt lat="55.304981" lon="8.701481">
|
|
<ele>-21.622608</ele>
|
|
<time>2026-07-10T15:01:28.000Z</time>
|
|
</trkpt>
|
|
<trkpt lat="55.305022" lon="8.701536">
|
|
<ele>-21.647440</ele>
|
|
<time>2026-07-10T15:01:29.000Z</time>
|
|
</trkpt>
|
|
<trkpt lat="55.305061" lon="8.701590">
|
|
<ele>-21.671343</ele>
|
|
<time>2026-07-10T15:01:30.000Z</time>
|
|
</trkpt>
|
|
<trkpt lat="55.305103" lon="8.701641">
|
|
<ele>-21.695920</ele>
|
|
<time>2026-07-10T15:01:31.000Z</time>
|
|
</trkpt>
|
|
<trkpt lat="55.305147" lon="8.701690">
|
|
<ele>-21.720997</ele>
|
|
<time>2026-07-10T15:01:32.000Z</time>
|
|
</trkpt>
|
|
<trkpt lat="55.305193" lon="8.701738">
|
|
<ele>-21.746752</ele>
|
|
<time>2026-07-10T15:01:33.000Z</time>
|
|
</trkpt>
|
|
<trkpt lat="55.305238" lon="8.701790">
|
|
<ele>-21.772680</ele>
|
|
<time>2026-07-10T15:01:34.000Z</time>
|
|
</trkpt>
|
|
<trkpt lat="55.305287" lon="8.701841">
|
|
<ele>-21.800095</ele>
|
|
<time>2026-07-10T15:01:35.000Z</time>
|
|
</trkpt>
|
|
<trkpt lat="55.305334" lon="8.701894">
|
|
<ele>-21.826980</ele>
|
|
<time>2026-07-10T15:01:36.000Z</time>
|
|
</trkpt>
|
|
<trkpt lat="55.305385" lon="8.701945">
|
|
<ele>-21.855228</ele>
|
|
<time>2026-07-10T15:01:37.000Z</time>
|
|
</trkpt>
|
|
<trkpt lat="55.305436" lon="8.701993">
|
|
<ele>-21.883079</ele>
|
|
<time>2026-07-10T15:01:38.000Z</time>
|
|
</trkpt>
|
|
<trkpt lat="55.305487" lon="8.702035">
|
|
<ele>-21.910192</ele>
|
|
<time>2026-07-10T15:01:39.000Z</time>
|
|
</trkpt>
|
|
<trkpt lat="55.305539" lon="8.702072">
|
|
<ele>-21.937199</ele>
|
|
<time>2026-07-10T15:01:40.000Z</time>
|
|
</trkpt>
|
|
<trkpt lat="55.305593" lon="8.702109">
|
|
<ele>-21.965100</ele>
|
|
<time>2026-07-10T15:01:41.000Z</time>
|
|
</trkpt>
|
|
<trkpt lat="55.305647" lon="8.702151">
|
|
<ele>-21.993528</ele>
|
|
<time>2026-07-10T15:01:42.000Z</time>
|
|
</trkpt>
|
|
<trkpt lat="55.305697" lon="8.702190">
|
|
<ele>-22.019862</ele>
|
|
<time>2026-07-10T15:01:43.000Z</time>
|
|
</trkpt>
|
|
<trkpt lat="55.305751" lon="8.702231">
|
|
<ele>-22.048180</ele>
|
|
<time>2026-07-10T15:01:44.000Z</time>
|
|
</trkpt>
|
|
<trkpt lat="55.305804" lon="8.702271">
|
|
<ele>-22.075947</ele>
|
|
<time>2026-07-10T15:01:45.000Z</time>
|
|
</trkpt>
|
|
<trkpt lat="55.305857" lon="8.702312">
|
|
<ele>-22.103823</ele>
|
|
<time>2026-07-10T15:01:46.000Z</time>
|
|
</trkpt>
|
|
<trkpt lat="55.305911" lon="8.702353">
|
|
<ele>-22.132141</ele>
|
|
<time>2026-07-10T15:01:47.000Z</time>
|
|
</trkpt>
|
|
<trkpt lat="55.305964" lon="8.702394">
|
|
<ele>-22.160018</ele>
|
|
<time>2026-07-10T15:01:48.000Z</time>
|
|
</trkpt>
|
|
<trkpt lat="55.306017" lon="8.702438">
|
|
<ele>-22.188235</ele>
|
|
<time>2026-07-10T15:01:49.000Z</time>
|
|
</trkpt>
|
|
<trkpt lat="55.306072" lon="8.702481">
|
|
<ele>-22.217214</ele>
|
|
<time>2026-07-10T15:01:50.000Z</time>
|
|
</trkpt>
|
|
<trkpt lat="55.306129" lon="8.702526">
|
|
<ele>-22.247295</ele>
|
|
<time>2026-07-10T15:01:51.000Z</time>
|
|
</trkpt>
|
|
<trkpt lat="55.306180" lon="8.702568">
|
|
<ele>-22.274409</ele>
|
|
<time>2026-07-10T15:01:52.000Z</time>
|
|
</trkpt>
|
|
<trkpt lat="55.306233" lon="8.702607">
|
|
<ele>-22.302069</ele>
|
|
<time>2026-07-10T15:01:53.000Z</time>
|
|
</trkpt>
|
|
<trkpt lat="55.306291" lon="8.702648">
|
|
<ele>-22.332164</ele>
|
|
<time>2026-07-10T15:01:54.000Z</time>
|
|
</trkpt>
|
|
<trkpt lat="55.306344" lon="8.702686">
|
|
<ele>-22.359719</ele>
|
|
<time>2026-07-10T15:01:55.000Z</time>
|
|
</trkpt>
|
|
<trkpt lat="55.306396" lon="8.702721">
|
|
<ele>-22.386525</ele>
|
|
<time>2026-07-10T15:01:56.000Z</time>
|
|
</trkpt>
|
|
<trkpt lat="55.306452" lon="8.702751">
|
|
<ele>-22.414707</ele>
|
|
<time>2026-07-10T15:01:57.000Z</time>
|
|
</trkpt>
|
|
<trkpt lat="55.306507" lon="8.702778">
|
|
<ele>-22.442197</ele>
|
|
<time>2026-07-10T15:01:58.000Z</time>
|
|
</trkpt>
|
|
<trkpt lat="55.306568" lon="8.702804">
|
|
<ele>-22.466450</ele>
|
|
<time>2026-07-10T15:01:59.000Z</time>
|
|
</trkpt>
|
|
<trkpt lat="55.306628" lon="8.702834">
|
|
<ele>-22.485758</ele>
|
|
<time>2026-07-10T15:02:00.000Z</time>
|
|
</trkpt>
|
|
<trkpt lat="55.306685" lon="8.702876">
|
|
<ele>-22.504890</ele>
|
|
<time>2026-07-10T15:02:01.000Z</time>
|
|
</trkpt>
|
|
<trkpt lat="55.306739" lon="8.702928">
|
|
<ele>-22.523950</ele>
|
|
<time>2026-07-10T15:02:02.000Z</time>
|
|
</trkpt>
|
|
<trkpt lat="55.306791" lon="8.702982">
|
|
<ele>-22.542647</ele>
|
|
<time>2026-07-10T15:02:03.000Z</time>
|
|
</trkpt>
|
|
<trkpt lat="55.306844" lon="8.703036">
|
|
<ele>-22.561610</ele>
|
|
<time>2026-07-10T15:02:04.000Z</time>
|
|
</trkpt>
|
|
<trkpt lat="55.306899" lon="8.703092">
|
|
<ele>-22.581286</ele>
|
|
<time>2026-07-10T15:02:05.000Z</time>
|
|
</trkpt>
|
|
<trkpt lat="55.306956" lon="8.703146">
|
|
<ele>-22.601330</ele>
|
|
<time>2026-07-10T15:02:06.000Z</time>
|
|
</trkpt>
|
|
<trkpt lat="55.307014" lon="8.703203">
|
|
<ele>-22.621900</ele>
|
|
<time>2026-07-10T15:02:07.000Z</time>
|
|
</trkpt>
|
|
<trkpt lat="55.307070" lon="8.703262">
|
|
<ele>-22.642111</ele>
|
|
<time>2026-07-10T15:02:08.000Z</time>
|
|
</trkpt>
|
|
<trkpt lat="55.307122" lon="8.703317">
|
|
<ele>-22.660898</ele>
|
|
<time>2026-07-10T15:02:09.000Z</time>
|
|
</trkpt>
|
|
<trkpt lat="55.307177" lon="8.703373">
|
|
<ele>-22.680573</ele>
|
|
<time>2026-07-10T15:02:10.000Z</time>
|
|
</trkpt>
|
|
<trkpt lat="55.307227" lon="8.703426">
|
|
<ele>-22.698648</ele>
|
|
<time>2026-07-10T15:02:11.000Z</time>
|
|
</trkpt>
|
|
<trkpt lat="55.307284" lon="8.703480">
|
|
<ele>-22.718692</ele>
|
|
<time>2026-07-10T15:02:12.000Z</time>
|
|
</trkpt>
|
|
<trkpt lat="55.307334" lon="8.703531">
|
|
<ele>-22.736587</ele>
|
|
<time>2026-07-10T15:02:13.000Z</time>
|
|
</trkpt>
|
|
<trkpt lat="55.307384" lon="8.703581">
|
|
<ele>-22.754395</ele>
|
|
<time>2026-07-10T15:02:14.000Z</time>
|
|
</trkpt>
|
|
<trkpt lat="55.307433" lon="8.703626">
|
|
<ele>-22.771508</ele>
|
|
<time>2026-07-10T15:02:15.000Z</time>
|
|
</trkpt>
|
|
<trkpt lat="55.307495" lon="8.703682">
|
|
<ele>-22.793086</ele>
|
|
<time>2026-07-10T15:02:16.000Z</time>
|
|
</trkpt>
|
|
<trkpt lat="55.307555" lon="8.703730">
|
|
<ele>-22.813492</ele>
|
|
<time>2026-07-10T15:02:17.000Z</time>
|
|
</trkpt>
|
|
<trkpt lat="55.307612" lon="8.703777">
|
|
<ele>-22.832981</ele>
|
|
<time>2026-07-10T15:02:18.000Z</time>
|
|
</trkpt>
|
|
<trkpt lat="55.307666" lon="8.703825">
|
|
<ele>-22.851712</ele>
|
|
<time>2026-07-10T15:02:19.000Z</time>
|
|
</trkpt>
|
|
<trkpt lat="55.307725" lon="8.703879">
|
|
<ele>-22.872303</ele>
|
|
<time>2026-07-10T15:02:20.000Z</time>
|
|
</trkpt>
|
|
<trkpt lat="55.307782" lon="8.703935">
|
|
<ele>-22.892517</ele>
|
|
<time>2026-07-10T15:02:21.000Z</time>
|
|
</trkpt>
|
|
<trkpt lat="55.307837" lon="8.703987">
|
|
<ele>-22.911849</ele>
|
|
<time>2026-07-10T15:02:22.000Z</time>
|
|
</trkpt>
|
|
<trkpt lat="55.307892" lon="8.704037">
|
|
<ele>-22.931017</ele>
|
|
<time>2026-07-10T15:02:23.000Z</time>
|
|
</trkpt>
|
|
<trkpt lat="55.307954" lon="8.704086">
|
|
<ele>-22.952059</ele>
|
|
<time>2026-07-10T15:02:24.000Z</time>
|
|
</trkpt>
|
|
<trkpt lat="55.308015" lon="8.704130">
|
|
<ele>-22.972469</ele>
|
|
<time>2026-07-10T15:02:25.000Z</time>
|
|
</trkpt>
|
|
<trkpt lat="55.308075" lon="8.704169">
|
|
<ele>-22.992271</ele>
|
|
<time>2026-07-10T15:02:26.000Z</time>
|
|
</trkpt>
|
|
<trkpt lat="55.308136" lon="8.704206">
|
|
<ele>-23.012245</ele>
|
|
<time>2026-07-10T15:02:27.000Z</time>
|
|
</trkpt>
|
|
<trkpt lat="55.308197" lon="8.704239">
|
|
<ele>-23.018434</ele>
|
|
<time>2026-07-10T15:02:28.000Z</time>
|
|
</trkpt>
|
|
<trkpt lat="55.308259" lon="8.704273">
|
|
<ele>-23.024603</ele>
|
|
<time>2026-07-10T15:02:29.000Z</time>
|
|
</trkpt>
|
|
<trkpt lat="55.308317" lon="8.704309">
|
|
<ele>-23.030445</ele>
|
|
<time>2026-07-10T15:02:30.000Z</time>
|
|
</trkpt>
|
|
<trkpt lat="55.308376" lon="8.704350">
|
|
<ele>-23.036471</ele>
|
|
<time>2026-07-10T15:02:31.000Z</time>
|
|
</trkpt>
|
|
<trkpt lat="55.308432" lon="8.704393">
|
|
<ele>-23.042275</ele>
|
|
<time>2026-07-10T15:02:32.000Z</time>
|
|
</trkpt>
|
|
<trkpt lat="55.308485" lon="8.704434">
|
|
<ele>-23.047775</ele>
|
|
<time>2026-07-10T15:02:33.000Z</time>
|
|
</trkpt>
|
|
<trkpt lat="55.308539" lon="8.704471">
|
|
<ele>-23.053280</ele>
|
|
<time>2026-07-10T15:02:34.000Z</time>
|
|
</trkpt>
|
|
<trkpt lat="55.308593" lon="8.704505">
|
|
<ele>-23.058728</ele>
|
|
<time>2026-07-10T15:02:35.000Z</time>
|
|
</trkpt>
|
|
<trkpt lat="55.308649" lon="8.704541">
|
|
<ele>-23.064391</ele>
|
|
<time>2026-07-10T15:02:36.000Z</time>
|
|
</trkpt>
|
|
<trkpt lat="55.308704" lon="8.704579">
|
|
<ele>-23.070004</ele>
|
|
<time>2026-07-10T15:02:37.000Z</time>
|
|
</trkpt>
|
|
<trkpt lat="55.308760" lon="8.704623">
|
|
<ele>-23.075830</ele>
|
|
<time>2026-07-10T15:02:38.000Z</time>
|
|
</trkpt>
|
|
<trkpt lat="55.308813" lon="8.704671">
|
|
<ele>-23.081493</ele>
|
|
<time>2026-07-10T15:02:39.000Z</time>
|
|
</trkpt>
|
|
<trkpt lat="55.308866" lon="8.704725">
|
|
<ele>-23.087312</ele>
|
|
<time>2026-07-10T15:02:40.000Z</time>
|
|
</trkpt>
|
|
<trkpt lat="55.308917" lon="8.704782">
|
|
<ele>-23.093052</ele>
|
|
<time>2026-07-10T15:02:41.000Z</time>
|
|
</trkpt>
|
|
<trkpt lat="55.308972" lon="8.704839">
|
|
<ele>-23.099117</ele>
|
|
<time>2026-07-10T15:02:42.000Z</time>
|
|
</trkpt>
|
|
<trkpt lat="55.309033" lon="8.704889">
|
|
<ele>-23.105510</ele>
|
|
<time>2026-07-10T15:02:43.000Z</time>
|
|
</trkpt>
|
|
<trkpt lat="55.309089" lon="8.704924">
|
|
<ele>-23.111155</ele>
|
|
<time>2026-07-10T15:02:44.000Z</time>
|
|
</trkpt>
|
|
<trkpt lat="55.309151" lon="8.704954">
|
|
<ele>-23.117262</ele>
|
|
<time>2026-07-10T15:02:45.000Z</time>
|
|
</trkpt>
|
|
<trkpt lat="55.309212" lon="8.704981">
|
|
<ele>-23.123237</ele>
|
|
<time>2026-07-10T15:02:46.000Z</time>
|
|
</trkpt>
|
|
<trkpt lat="55.309272" lon="8.705004">
|
|
<ele>-23.129069</ele>
|
|
<time>2026-07-10T15:02:47.000Z</time>
|
|
</trkpt>
|
|
<trkpt lat="55.309334" lon="8.705027">
|
|
<ele>-23.135087</ele>
|
|
<time>2026-07-10T15:02:48.000Z</time>
|
|
</trkpt>
|
|
<trkpt lat="55.309396" lon="8.705047">
|
|
<ele>-23.141074</ele>
|
|
<time>2026-07-10T15:02:49.000Z</time>
|
|
</trkpt>
|
|
<trkpt lat="55.309461" lon="8.705066">
|
|
<ele>-23.147332</ele>
|
|
<time>2026-07-10T15:02:50.000Z</time>
|
|
</trkpt>
|
|
<trkpt lat="55.309521" lon="8.705081">
|
|
<ele>-23.153088</ele>
|
|
<time>2026-07-10T15:02:51.000Z</time>
|
|
</trkpt>
|
|
<trkpt lat="55.309582" lon="8.705092">
|
|
<ele>-23.158912</ele>
|
|
<time>2026-07-10T15:02:52.000Z</time>
|
|
</trkpt>
|
|
<trkpt lat="55.309646" lon="8.705100">
|
|
<ele>-23.165006</ele>
|
|
<time>2026-07-10T15:02:53.000Z</time>
|
|
</trkpt>
|
|
<trkpt lat="55.309709" lon="8.705109">
|
|
<ele>-23.171009</ele>
|
|
<time>2026-07-10T15:02:54.000Z</time>
|
|
</trkpt>
|
|
<trkpt lat="55.309770" lon="8.705119">
|
|
<ele>-23.176827</ele>
|
|
<time>2026-07-10T15:02:55.000Z</time>
|
|
</trkpt>
|
|
<trkpt lat="55.309830" lon="8.705126">
|
|
<ele>-23.182538</ele>
|
|
<time>2026-07-10T15:02:56.000Z</time>
|
|
</trkpt>
|
|
<trkpt lat="55.309895" lon="8.705132">
|
|
<ele>-23.200942</ele>
|
|
<time>2026-07-10T15:02:57.000Z</time>
|
|
</trkpt>
|
|
<trkpt lat="55.309956" lon="8.705143">
|
|
<ele>-23.219785</ele>
|
|
<time>2026-07-10T15:02:58.000Z</time>
|
|
</trkpt>
|
|
<trkpt lat="55.310017" lon="8.705153">
|
|
<ele>-23.238612</ele>
|
|
<time>2026-07-10T15:02:59.000Z</time>
|
|
</trkpt>
|
|
<trkpt lat="55.310080" lon="8.705165">
|
|
<ele>-23.258085</ele>
|
|
<time>2026-07-10T15:03:00.000Z</time>
|
|
</trkpt>
|
|
<trkpt lat="55.310143" lon="8.705173">
|
|
<ele>-23.277495</ele>
|
|
<time>2026-07-10T15:03:01.000Z</time>
|
|
</trkpt>
|
|
<trkpt lat="55.310206" lon="8.705181">
|
|
<ele>-23.296905</ele>
|
|
<time>2026-07-10T15:03:02.000Z</time>
|
|
</trkpt>
|
|
<trkpt lat="55.310270" lon="8.705189">
|
|
<ele>-23.316622</ele>
|
|
<time>2026-07-10T15:03:03.000Z</time>
|
|
</trkpt>
|
|
<trkpt lat="55.310330" lon="8.705198">
|
|
<ele>-23.335126</ele>
|
|
<time>2026-07-10T15:03:04.000Z</time>
|
|
</trkpt>
|
|
<trkpt lat="55.310391" lon="8.705209">
|
|
<ele>-23.353970</ele>
|
|
<time>2026-07-10T15:03:05.000Z</time>
|
|
</trkpt>
|
|
<trkpt lat="55.310448" lon="8.705214">
|
|
<ele>-23.371508</ele>
|
|
<time>2026-07-10T15:03:06.000Z</time>
|
|
</trkpt>
|
|
<trkpt lat="55.310510" lon="8.705218">
|
|
<ele>-23.390573</ele>
|
|
<time>2026-07-10T15:03:07.000Z</time>
|
|
</trkpt>
|
|
<trkpt lat="55.310569" lon="8.705225">
|
|
<ele>-23.408744</ele>
|
|
<time>2026-07-10T15:03:08.000Z</time>
|
|
</trkpt>
|
|
<trkpt lat="55.310629" lon="8.705234">
|
|
<ele>-23.427249</ele>
|
|
<time>2026-07-10T15:03:09.000Z</time>
|
|
</trkpt>
|
|
<trkpt lat="55.310689" lon="8.705242">
|
|
<ele>-23.445740</ele>
|
|
<time>2026-07-10T15:03:10.000Z</time>
|
|
</trkpt>
|
|
<trkpt lat="55.310748" lon="8.705249">
|
|
<ele>-23.463912</ele>
|
|
<time>2026-07-10T15:03:11.000Z</time>
|
|
</trkpt>
|
|
<trkpt lat="55.310802" lon="8.705259">
|
|
<ele>-23.480597</ele>
|
|
<time>2026-07-10T15:03:12.000Z</time>
|
|
</trkpt>
|
|
<trkpt lat="55.310862" lon="8.705271">
|
|
<ele>-23.499154</ele>
|
|
<time>2026-07-10T15:03:13.000Z</time>
|
|
</trkpt>
|
|
<trkpt lat="55.310920" lon="8.705284">
|
|
<ele>-23.517122</ele>
|
|
<time>2026-07-10T15:03:14.000Z</time>
|
|
</trkpt>
|
|
<trkpt lat="55.310979" lon="8.705297">
|
|
<ele>-23.535394</ele>
|
|
<time>2026-07-10T15:03:15.000Z</time>
|
|
</trkpt>
|
|
<trkpt lat="55.311043" lon="8.705313">
|
|
<ele>-23.555259</ele>
|
|
<time>2026-07-10T15:03:16.000Z</time>
|
|
</trkpt>
|
|
<trkpt lat="55.311104" lon="8.705326">
|
|
<ele>-23.574141</ele>
|
|
<time>2026-07-10T15:03:17.000Z</time>
|
|
</trkpt>
|
|
<trkpt lat="55.311165" lon="8.705337">
|
|
<ele>-23.592985</ele>
|
|
<time>2026-07-10T15:03:18.000Z</time>
|
|
</trkpt>
|
|
<trkpt lat="55.311228" lon="8.705349">
|
|
<ele>-23.612458</ele>
|
|
<time>2026-07-10T15:03:19.000Z</time>
|
|
</trkpt>
|
|
<trkpt lat="55.311292" lon="8.705366">
|
|
<ele>-23.632348</ele>
|
|
<time>2026-07-10T15:03:20.000Z</time>
|
|
</trkpt>
|
|
<trkpt lat="55.311357" lon="8.705395">
|
|
<ele>-23.652956</ele>
|
|
<time>2026-07-10T15:03:21.000Z</time>
|
|
</trkpt>
|
|
<trkpt lat="55.311422" lon="8.705428">
|
|
<ele>-23.673748</ele>
|
|
<time>2026-07-10T15:03:22.000Z</time>
|
|
</trkpt>
|
|
<trkpt lat="55.311488" lon="8.705465">
|
|
<ele>-23.695036</ele>
|
|
<time>2026-07-10T15:03:23.000Z</time>
|
|
</trkpt>
|
|
<trkpt lat="55.311550" lon="8.705503">
|
|
<ele>-23.715214</ele>
|
|
<time>2026-07-10T15:03:24.000Z</time>
|
|
</trkpt>
|
|
<trkpt lat="55.311612" lon="8.705543">
|
|
<ele>-23.735510</ele>
|
|
<time>2026-07-10T15:03:25.000Z</time>
|
|
</trkpt>
|
|
<trkpt lat="55.311676" lon="8.705582">
|
|
<ele>-23.724983</ele>
|
|
<time>2026-07-10T15:03:26.000Z</time>
|
|
</trkpt>
|
|
<trkpt lat="55.311739" lon="8.705625">
|
|
<ele>-23.713779</ele>
|
|
<time>2026-07-10T15:03:27.000Z</time>
|
|
</trkpt>
|
|
<trkpt lat="55.311802" lon="8.705671">
|
|
<ele>-23.702468</ele>
|
|
<time>2026-07-10T15:03:28.000Z</time>
|
|
</trkpt>
|
|
<trkpt lat="55.311860" lon="8.705716">
|
|
<ele>-23.691957</ele>
|
|
<time>2026-07-10T15:03:29.000Z</time>
|
|
</trkpt>
|
|
<trkpt lat="55.311922" lon="8.705765">
|
|
<ele>-23.680686</ele>
|
|
<time>2026-07-10T15:03:30.000Z</time>
|
|
</trkpt>
|
|
<trkpt lat="55.311980" lon="8.705814">
|
|
<ele>-23.670017</ele>
|
|
<time>2026-07-10T15:03:31.000Z</time>
|
|
</trkpt>
|
|
<trkpt lat="55.312038" lon="8.705863">
|
|
<ele>-23.659347</ele>
|
|
<time>2026-07-10T15:03:32.000Z</time>
|
|
</trkpt>
|
|
<trkpt lat="55.312098" lon="8.705919">
|
|
<ele>-23.648084</ele>
|
|
<time>2026-07-10T15:03:33.000Z</time>
|
|
</trkpt>
|
|
<trkpt lat="55.312157" lon="8.705979">
|
|
<ele>-23.636782</ele>
|
|
<time>2026-07-10T15:03:34.000Z</time>
|
|
</trkpt>
|
|
<trkpt lat="55.312222" lon="8.706041">
|
|
<ele>-23.624521</ele>
|
|
<time>2026-07-10T15:03:35.000Z</time>
|
|
</trkpt>
|
|
<trkpt lat="55.312285" lon="8.706105">
|
|
<ele>-23.612456</ele>
|
|
<time>2026-07-10T15:03:36.000Z</time>
|
|
</trkpt>
|
|
<trkpt lat="55.312345" lon="8.706170">
|
|
<ele>-23.600770</ele>
|
|
<time>2026-07-10T15:03:37.000Z</time>
|
|
</trkpt>
|
|
<trkpt lat="55.312402" lon="8.706234">
|
|
<ele>-23.589556</ele>
|
|
<time>2026-07-10T15:03:38.000Z</time>
|
|
</trkpt>
|
|
<trkpt lat="55.312461" lon="8.706303">
|
|
<ele>-23.577806</ele>
|
|
<time>2026-07-10T15:03:39.000Z</time>
|
|
</trkpt>
|
|
<trkpt lat="55.312517" lon="8.706375">
|
|
<ele>-23.566302</ele>
|
|
<time>2026-07-10T15:03:40.000Z</time>
|
|
</trkpt>
|
|
<trkpt lat="55.312572" lon="8.706449">
|
|
<ele>-23.554818</ele>
|
|
<time>2026-07-10T15:03:41.000Z</time>
|
|
</trkpt>
|
|
<trkpt lat="55.312624" lon="8.706522">
|
|
<ele>-23.543783</ele>
|
|
<time>2026-07-10T15:03:42.000Z</time>
|
|
</trkpt>
|
|
<trkpt lat="55.312675" lon="8.706600">
|
|
<ele>-23.532574</ele>
|
|
<time>2026-07-10T15:03:43.000Z</time>
|
|
</trkpt>
|
|
<trkpt lat="55.312726" lon="8.706684">
|
|
<ele>-23.520985</ele>
|
|
<time>2026-07-10T15:03:44.000Z</time>
|
|
</trkpt>
|
|
<trkpt lat="55.312776" lon="8.706768">
|
|
<ele>-23.509517</ele>
|
|
<time>2026-07-10T15:03:45.000Z</time>
|
|
</trkpt>
|
|
<trkpt lat="55.312825" lon="8.706851">
|
|
<ele>-23.498233</ele>
|
|
<time>2026-07-10T15:03:46.000Z</time>
|
|
</trkpt>
|
|
<trkpt lat="55.312871" lon="8.706937">
|
|
<ele>-23.487098</ele>
|
|
<time>2026-07-10T15:03:47.000Z</time>
|
|
</trkpt>
|
|
<trkpt lat="55.312917" lon="8.707026">
|
|
<ele>-23.475755</ele>
|
|
<time>2026-07-10T15:03:48.000Z</time>
|
|
</trkpt>
|
|
<trkpt lat="55.312962" lon="8.707116">
|
|
<ele>-23.464451</ele>
|
|
<time>2026-07-10T15:03:49.000Z</time>
|
|
</trkpt>
|
|
<trkpt lat="55.313003" lon="8.707204">
|
|
<ele>-23.453721</ele>
|
|
<time>2026-07-10T15:03:50.000Z</time>
|
|
</trkpt>
|
|
<trkpt lat="55.313046" lon="8.707295">
|
|
<ele>-23.442562</ele>
|
|
<time>2026-07-10T15:03:51.000Z</time>
|
|
</trkpt>
|
|
<trkpt lat="55.313088" lon="8.707387">
|
|
<ele>-23.437294</ele>
|
|
<time>2026-07-10T15:03:52.000Z</time>
|
|
</trkpt>
|
|
<trkpt lat="55.313128" lon="8.707479">
|
|
<ele>-23.436465</ele>
|
|
<time>2026-07-10T15:03:53.000Z</time>
|
|
</trkpt>
|
|
<trkpt lat="55.313166" lon="8.707570">
|
|
<ele>-23.435658</ele>
|
|
<time>2026-07-10T15:03:54.000Z</time>
|
|
</trkpt>
|
|
<trkpt lat="55.313204" lon="8.707667">
|
|
<ele>-23.434815</ele>
|
|
<time>2026-07-10T15:03:55.000Z</time>
|
|
</trkpt>
|
|
<trkpt lat="55.313242" lon="8.707766">
|
|
<ele>-23.433961</ele>
|
|
<time>2026-07-10T15:03:56.000Z</time>
|
|
</trkpt>
|
|
<trkpt lat="55.313276" lon="8.707865">
|
|
<ele>-23.433134</ele>
|
|
<time>2026-07-10T15:03:57.000Z</time>
|
|
</trkpt>
|
|
<trkpt lat="55.313309" lon="8.707962">
|
|
<ele>-23.432325</ele>
|
|
<time>2026-07-10T15:03:58.000Z</time>
|
|
</trkpt>
|
|
<trkpt lat="55.313341" lon="8.708065">
|
|
<ele>-23.431486</ele>
|
|
<time>2026-07-10T15:03:59.000Z</time>
|
|
</trkpt>
|
|
<trkpt lat="55.313374" lon="8.708163">
|
|
<ele>-23.430671</ele>
|
|
<time>2026-07-10T15:04:00.000Z</time>
|
|
</trkpt>
|
|
<trkpt lat="55.313405" lon="8.708262">
|
|
<ele>-23.429863</ele>
|
|
<time>2026-07-10T15:04:01.000Z</time>
|
|
</trkpt>
|
|
<trkpt lat="55.313439" lon="8.708366">
|
|
<ele>-23.429005</ele>
|
|
<time>2026-07-10T15:04:02.000Z</time>
|
|
</trkpt>
|
|
<trkpt lat="55.313469" lon="8.708471">
|
|
<ele>-23.428164</ele>
|
|
<time>2026-07-10T15:04:03.000Z</time>
|
|
</trkpt>
|
|
<trkpt lat="55.313495" lon="8.708574">
|
|
<ele>-23.427358</ele>
|
|
<time>2026-07-10T15:04:04.000Z</time>
|
|
</trkpt>
|
|
<trkpt lat="55.313522" lon="8.708679">
|
|
<ele>-23.426534</ele>
|
|
<time>2026-07-10T15:04:05.000Z</time>
|
|
</trkpt>
|
|
<trkpt lat="55.313549" lon="8.708786">
|
|
<ele>-23.425696</ele>
|
|
<time>2026-07-10T15:04:06.000Z</time>
|
|
</trkpt>
|
|
<trkpt lat="55.313576" lon="8.708888">
|
|
<ele>-23.424892</ele>
|
|
<time>2026-07-10T15:04:07.000Z</time>
|
|
</trkpt>
|
|
<trkpt lat="55.313606" lon="8.708991">
|
|
<ele>-23.424064</ele>
|
|
<time>2026-07-10T15:04:08.000Z</time>
|
|
</trkpt>
|
|
<trkpt lat="55.313633" lon="8.709096">
|
|
<ele>-23.423239</ele>
|
|
<time>2026-07-10T15:04:09.000Z</time>
|
|
</trkpt>
|
|
<trkpt lat="55.313659" lon="8.709197">
|
|
<ele>-23.422446</ele>
|
|
<time>2026-07-10T15:04:10.000Z</time>
|
|
</trkpt>
|
|
<trkpt lat="55.313685" lon="8.709301">
|
|
<ele>-23.421634</ele>
|
|
<time>2026-07-10T15:04:11.000Z</time>
|
|
</trkpt>
|
|
<trkpt lat="55.313713" lon="8.709409">
|
|
<ele>-23.420785</ele>
|
|
<time>2026-07-10T15:04:12.000Z</time>
|
|
</trkpt>
|
|
<trkpt lat="55.313739" lon="8.709511">
|
|
<ele>-23.419985</ele>
|
|
<time>2026-07-10T15:04:13.000Z</time>
|
|
</trkpt>
|
|
<trkpt lat="55.313766" lon="8.709612">
|
|
<ele>-23.419187</ele>
|
|
<time>2026-07-10T15:04:14.000Z</time>
|
|
</trkpt>
|
|
<trkpt lat="55.313792" lon="8.709712">
|
|
<ele>-23.418400</ele>
|
|
<time>2026-07-10T15:04:15.000Z</time>
|
|
</trkpt>
|
|
<trkpt lat="55.313819" lon="8.709817">
|
|
<ele>-23.417576</ele>
|
|
<time>2026-07-10T15:04:16.000Z</time>
|
|
</trkpt>
|
|
<trkpt lat="55.313845" lon="8.709915">
|
|
<ele>-23.416802</ele>
|
|
<time>2026-07-10T15:04:17.000Z</time>
|
|
</trkpt>
|
|
<trkpt lat="55.313876" lon="8.710021">
|
|
<ele>-23.415950</ele>
|
|
<time>2026-07-10T15:04:18.000Z</time>
|
|
</trkpt>
|
|
<trkpt lat="55.313904" lon="8.710130">
|
|
<ele>-23.414932</ele>
|
|
<time>2026-07-10T15:04:19.000Z</time>
|
|
</trkpt>
|
|
<trkpt lat="55.313930" lon="8.710238">
|
|
<ele>-23.412123</ele>
|
|
<time>2026-07-10T15:04:20.000Z</time>
|
|
</trkpt>
|
|
<trkpt lat="55.313956" lon="8.710348">
|
|
<ele>-23.409270</ele>
|
|
<time>2026-07-10T15:04:21.000Z</time>
|
|
</trkpt>
|
|
<trkpt lat="55.313984" lon="8.710457">
|
|
<ele>-23.406406</ele>
|
|
<time>2026-07-10T15:04:22.000Z</time>
|
|
</trkpt>
|
|
<trkpt lat="55.314014" lon="8.710561">
|
|
<ele>-23.403613</ele>
|
|
<time>2026-07-10T15:04:23.000Z</time>
|
|
</trkpt>
|
|
<trkpt lat="55.314041" lon="8.710666">
|
|
<ele>-23.400853</ele>
|
|
<time>2026-07-10T15:04:24.000Z</time>
|
|
</trkpt>
|
|
<trkpt lat="55.314071" lon="8.710777">
|
|
<ele>-23.397909</ele>
|
|
<time>2026-07-10T15:04:25.000Z</time>
|
|
</trkpt>
|
|
<trkpt lat="55.314097" lon="8.710888">
|
|
<ele>-23.395034</ele>
|
|
<time>2026-07-10T15:04:26.000Z</time>
|
|
</trkpt>
|
|
<trkpt lat="55.314120" lon="8.710997">
|
|
<ele>-23.392250</ele>
|
|
<time>2026-07-10T15:04:27.000Z</time>
|
|
</trkpt>
|
|
<trkpt lat="55.314148" lon="8.711111">
|
|
<ele>-23.389275</ele>
|
|
<time>2026-07-10T15:04:28.000Z</time>
|
|
</trkpt>
|
|
<trkpt lat="55.314175" lon="8.711216">
|
|
<ele>-23.386515</ele>
|
|
<time>2026-07-10T15:04:29.000Z</time>
|
|
</trkpt>
|
|
<trkpt lat="55.314206" lon="8.711326">
|
|
<ele>-23.383575</ele>
|
|
<time>2026-07-10T15:04:30.000Z</time>
|
|
</trkpt>
|
|
<trkpt lat="55.314235" lon="8.711428">
|
|
<ele>-23.380844</ele>
|
|
<time>2026-07-10T15:04:31.000Z</time>
|
|
</trkpt>
|
|
<trkpt lat="55.314262" lon="8.711528">
|
|
<ele>-23.378193</ele>
|
|
<time>2026-07-10T15:04:32.000Z</time>
|
|
</trkpt>
|
|
<trkpt lat="55.314292" lon="8.711629">
|
|
<ele>-23.375464</ele>
|
|
<time>2026-07-10T15:04:33.000Z</time>
|
|
</trkpt>
|
|
<trkpt lat="55.314322" lon="8.711733">
|
|
<ele>-23.372671</ele>
|
|
<time>2026-07-10T15:04:34.000Z</time>
|
|
</trkpt>
|
|
<trkpt lat="55.314351" lon="8.711838">
|
|
<ele>-23.369875</ele>
|
|
<time>2026-07-10T15:04:35.000Z</time>
|
|
</trkpt>
|
|
<trkpt lat="55.314386" lon="8.711940">
|
|
<ele>-23.367022</ele>
|
|
<time>2026-07-10T15:04:36.000Z</time>
|
|
</trkpt>
|
|
<trkpt lat="55.314421" lon="8.712038">
|
|
<ele>-23.364251</ele>
|
|
<time>2026-07-10T15:04:37.000Z</time>
|
|
</trkpt>
|
|
<trkpt lat="55.314455" lon="8.712139">
|
|
<ele>-23.361440</ele>
|
|
<time>2026-07-10T15:04:38.000Z</time>
|
|
</trkpt>
|
|
<trkpt lat="55.314486" lon="8.712240">
|
|
<ele>-23.358691</ele>
|
|
<time>2026-07-10T15:04:39.000Z</time>
|
|
</trkpt>
|
|
<trkpt lat="55.314509" lon="8.712346">
|
|
<ele>-23.355974</ele>
|
|
<time>2026-07-10T15:04:40.000Z</time>
|
|
</trkpt>
|
|
<trkpt lat="55.314532" lon="8.712449">
|
|
<ele>-23.353324</ele>
|
|
<time>2026-07-10T15:04:41.000Z</time>
|
|
</trkpt>
|
|
<trkpt lat="55.314554" lon="8.712549">
|
|
<ele>-23.350756</ele>
|
|
<time>2026-07-10T15:04:42.000Z</time>
|
|
</trkpt>
|
|
<trkpt lat="55.314577" lon="8.712657">
|
|
<ele>-23.347993</ele>
|
|
<time>2026-07-10T15:04:43.000Z</time>
|
|
</trkpt>
|
|
<trkpt lat="55.314600" lon="8.712769">
|
|
<ele>-23.345141</ele>
|
|
<time>2026-07-10T15:04:44.000Z</time>
|
|
</trkpt>
|
|
<trkpt lat="55.314619" lon="8.712877">
|
|
<ele>-23.342434</ele>
|
|
<time>2026-07-10T15:04:45.000Z</time>
|
|
</trkpt>
|
|
<trkpt lat="55.314638" lon="8.712982">
|
|
<ele>-23.339794</ele>
|
|
<time>2026-07-10T15:04:46.000Z</time>
|
|
</trkpt>
|
|
<trkpt lat="55.314660" lon="8.713089">
|
|
<ele>-23.333175</ele>
|
|
<time>2026-07-10T15:04:47.000Z</time>
|
|
</trkpt>
|
|
<trkpt lat="55.314678" lon="8.713203">
|
|
<ele>-23.325716</ele>
|
|
<time>2026-07-10T15:04:48.000Z</time>
|
|
</trkpt>
|
|
<trkpt lat="55.314692" lon="8.713318">
|
|
<ele>-23.318302</ele>
|
|
<time>2026-07-10T15:04:49.000Z</time>
|
|
</trkpt>
|
|
<trkpt lat="55.314698" lon="8.713438">
|
|
<ele>-23.310708</ele>
|
|
<time>2026-07-10T15:04:50.000Z</time>
|
|
</trkpt>
|
|
<trkpt lat="55.314700" lon="8.713547">
|
|
<ele>-23.303832</ele>
|
|
<time>2026-07-10T15:04:51.000Z</time>
|
|
</trkpt>
|
|
<trkpt lat="55.314697" lon="8.713671">
|
|
<ele>-23.296008</ele>
|
|
<time>2026-07-10T15:04:52.000Z</time>
|
|
</trkpt>
|
|
<trkpt lat="55.314699" lon="8.713792">
|
|
<ele>-23.288376</ele>
|
|
<time>2026-07-10T15:04:53.000Z</time>
|
|
</trkpt>
|
|
<trkpt lat="55.314709" lon="8.713907">
|
|
<ele>-23.281042</ele>
|
|
<time>2026-07-10T15:04:54.000Z</time>
|
|
</trkpt>
|
|
<trkpt lat="55.314729" lon="8.714027">
|
|
<ele>-23.273159</ele>
|
|
<time>2026-07-10T15:04:55.000Z</time>
|
|
</trkpt>
|
|
<trkpt lat="55.314747" lon="8.714146">
|
|
<ele>-23.265396</ele>
|
|
<time>2026-07-10T15:04:56.000Z</time>
|
|
</trkpt>
|
|
<trkpt lat="55.314761" lon="8.714265">
|
|
<ele>-23.257735</ele>
|
|
<time>2026-07-10T15:04:57.000Z</time>
|
|
</trkpt>
|
|
<trkpt lat="55.314774" lon="8.714383">
|
|
<ele>-23.250158</ele>
|
|
<time>2026-07-10T15:04:58.000Z</time>
|
|
</trkpt>
|
|
<trkpt lat="55.314788" lon="8.714497">
|
|
<ele>-23.242805</ele>
|
|
<time>2026-07-10T15:04:59.000Z</time>
|
|
</trkpt>
|
|
<trkpt lat="55.314800" lon="8.714608">
|
|
<ele>-23.235682</ele>
|
|
<time>2026-07-10T15:05:00.000Z</time>
|
|
</trkpt>
|
|
<trkpt lat="55.314816" lon="8.714720">
|
|
<ele>-23.228402</ele>
|
|
<time>2026-07-10T15:05:01.000Z</time>
|
|
</trkpt>
|
|
<trkpt lat="55.314834" lon="8.714833">
|
|
<ele>-23.221004</ele>
|
|
<time>2026-07-10T15:05:02.000Z</time>
|
|
</trkpt>
|
|
<trkpt lat="55.314850" lon="8.714953">
|
|
<ele>-23.213234</ele>
|
|
<time>2026-07-10T15:05:03.000Z</time>
|
|
</trkpt>
|
|
<trkpt lat="55.314866" lon="8.715068">
|
|
<ele>-23.205771</ele>
|
|
<time>2026-07-10T15:05:04.000Z</time>
|
|
</trkpt>
|
|
<trkpt lat="55.314881" lon="8.715183">
|
|
<ele>-23.198332</ele>
|
|
<time>2026-07-10T15:05:05.000Z</time>
|
|
</trkpt>
|
|
<trkpt lat="55.314895" lon="8.715295">
|
|
<ele>-23.191103</ele>
|
|
<time>2026-07-10T15:05:06.000Z</time>
|
|
</trkpt>
|
|
<trkpt lat="55.314909" lon="8.715406">
|
|
<ele>-23.183936</ele>
|
|
<time>2026-07-10T15:05:07.000Z</time>
|
|
</trkpt>
|
|
<trkpt lat="55.314926" lon="8.715519">
|
|
<ele>-23.176567</ele>
|
|
<time>2026-07-10T15:05:08.000Z</time>
|
|
</trkpt>
|
|
<trkpt lat="55.314941" lon="8.715630">
|
|
<ele>-23.169374</ele>
|
|
<time>2026-07-10T15:05:09.000Z</time>
|
|
</trkpt>
|
|
<trkpt lat="55.314956" lon="8.715746">
|
|
<ele>-23.161875</ele>
|
|
<time>2026-07-10T15:05:10.000Z</time>
|
|
</trkpt>
|
|
<trkpt lat="55.314970" lon="8.715863">
|
|
<ele>-23.154337</ele>
|
|
<time>2026-07-10T15:05:11.000Z</time>
|
|
</trkpt>
|
|
<trkpt lat="55.314986" lon="8.715971">
|
|
<ele>-23.147302</ele>
|
|
<time>2026-07-10T15:05:12.000Z</time>
|
|
</trkpt>
|
|
<trkpt lat="55.314999" lon="8.716082">
|
|
<ele>-23.140097</ele>
|
|
<time>2026-07-10T15:05:13.000Z</time>
|
|
</trkpt>
|
|
<trkpt lat="55.315014" lon="8.716195">
|
|
<ele>-23.120364</ele>
|
|
<time>2026-07-10T15:05:14.000Z</time>
|
|
</trkpt>
|
|
<trkpt lat="55.315028" lon="8.716310">
|
|
<ele>-23.100363</ele>
|
|
<time>2026-07-10T15:05:15.000Z</time>
|
|
</trkpt>
|
|
<trkpt lat="55.315042" lon="8.716425">
|
|
<ele>-23.080363</ele>
|
|
<time>2026-07-10T15:05:16.000Z</time>
|
|
</trkpt>
|
|
<trkpt lat="55.315060" lon="8.716535">
|
|
<ele>-23.060898</ele>
|
|
<time>2026-07-10T15:05:17.000Z</time>
|
|
</trkpt>
|
|
<trkpt lat="55.315075" lon="8.716648">
|
|
<ele>-23.041164</ele>
|
|
<time>2026-07-10T15:05:18.000Z</time>
|
|
</trkpt>
|
|
<trkpt lat="55.315090" lon="8.716759">
|
|
<ele>-23.021762</ele>
|
|
<time>2026-07-10T15:05:19.000Z</time>
|
|
</trkpt>
|
|
<trkpt lat="55.315105" lon="8.716873">
|
|
<ele>-23.001863</ele>
|
|
<time>2026-07-10T15:05:20.000Z</time>
|
|
</trkpt>
|
|
<trkpt lat="55.315117" lon="8.716989">
|
|
<ele>-22.981811</ele>
|
|
<time>2026-07-10T15:05:21.000Z</time>
|
|
</trkpt>
|
|
<trkpt lat="55.315132" lon="8.717100">
|
|
<ele>-22.962409</ele>
|
|
<time>2026-07-10T15:05:22.000Z</time>
|
|
</trkpt>
|
|
<trkpt lat="55.315148" lon="8.717213">
|
|
<ele>-22.942606</ele>
|
|
<time>2026-07-10T15:05:23.000Z</time>
|
|
</trkpt>
|
|
<trkpt lat="55.315162" lon="8.717323">
|
|
<ele>-22.923436</ele>
|
|
<time>2026-07-10T15:05:24.000Z</time>
|
|
</trkpt>
|
|
<trkpt lat="55.315178" lon="8.717437">
|
|
<ele>-22.903468</ele>
|
|
<time>2026-07-10T15:05:25.000Z</time>
|
|
</trkpt>
|
|
<trkpt lat="55.315192" lon="8.717543">
|
|
<ele>-22.884961</ele>
|
|
<time>2026-07-10T15:05:26.000Z</time>
|
|
</trkpt>
|
|
<trkpt lat="55.315206" lon="8.717651">
|
|
<ele>-22.866124</ele>
|
|
<time>2026-07-10T15:05:27.000Z</time>
|
|
</trkpt>
|
|
<trkpt lat="55.315223" lon="8.717757">
|
|
<ele>-22.847394</ele>
|
|
<time>2026-07-10T15:05:28.000Z</time>
|
|
</trkpt>
|
|
<trkpt lat="55.315234" lon="8.717855">
|
|
<ele>-22.830407</ele>
|
|
<time>2026-07-10T15:05:29.000Z</time>
|
|
</trkpt>
|
|
<trkpt lat="55.315244" lon="8.717935">
|
|
<ele>-22.816477</ele>
|
|
<time>2026-07-10T15:05:30.000Z</time>
|
|
</trkpt>
|
|
<trkpt lat="55.315248" lon="8.717987">
|
|
<ele>-22.807553</ele>
|
|
<time>2026-07-10T15:05:31.000Z</time>
|
|
</trkpt>
|
|
<trkpt lat="55.315251" lon="8.718013">
|
|
<ele>-22.803042</ele>
|
|
<time>2026-07-10T15:05:32.000Z</time>
|
|
</trkpt>
|
|
<trkpt lat="55.315256" lon="8.718021">
|
|
<ele>-22.801021</ele>
|
|
<time>2026-07-10T15:06:13.000Z</time>
|
|
</trkpt>
|
|
<trkpt lat="55.315262" lon="8.718054">
|
|
<ele>-22.795129</ele>
|
|
<time>2026-07-10T15:06:14.000Z</time>
|
|
</trkpt>
|
|
<trkpt lat="55.315264" lon="8.718090">
|
|
<ele>-22.788977</ele>
|
|
<time>2026-07-10T15:06:15.000Z</time>
|
|
</trkpt>
|
|
<trkpt lat="55.315273" lon="8.718133">
|
|
<ele>-22.781186</ele>
|
|
<time>2026-07-10T15:06:16.000Z</time>
|
|
</trkpt>
|
|
<trkpt lat="55.315283" lon="8.718181">
|
|
<ele>-22.772493</ele>
|
|
<time>2026-07-10T15:06:17.000Z</time>
|
|
</trkpt>
|
|
<trkpt lat="55.315292" lon="8.718228">
|
|
<ele>-22.764059</ele>
|
|
<time>2026-07-10T15:06:18.000Z</time>
|
|
</trkpt>
|
|
<trkpt lat="55.315302" lon="8.718276">
|
|
<ele>-22.755366</ele>
|
|
<time>2026-07-10T15:06:19.000Z</time>
|
|
</trkpt>
|
|
<trkpt lat="55.315314" lon="8.718326">
|
|
<ele>-22.746137</ele>
|
|
<time>2026-07-10T15:06:20.000Z</time>
|
|
</trkpt>
|
|
<trkpt lat="55.315330" lon="8.718375">
|
|
<ele>-22.736530</ele>
|
|
<time>2026-07-10T15:06:21.000Z</time>
|
|
</trkpt>
|
|
<trkpt lat="55.315343" lon="8.718421">
|
|
<ele>-22.727795</ele>
|
|
<time>2026-07-10T15:06:22.000Z</time>
|
|
</trkpt>
|
|
<trkpt lat="55.315358" lon="8.718466">
|
|
<ele>-22.718926</ele>
|
|
<time>2026-07-10T15:06:23.000Z</time>
|
|
</trkpt>
|
|
<trkpt lat="55.315373" lon="8.718510">
|
|
<ele>-22.710203</ele>
|
|
<time>2026-07-10T15:06:24.000Z</time>
|
|
</trkpt>
|
|
<trkpt lat="55.315387" lon="8.718557">
|
|
<ele>-22.701181</ele>
|
|
<time>2026-07-10T15:06:25.000Z</time>
|
|
</trkpt>
|
|
<trkpt lat="55.315398" lon="8.718606">
|
|
<ele>-22.692223</ele>
|
|
<time>2026-07-10T15:06:26.000Z</time>
|
|
</trkpt>
|
|
<trkpt lat="55.315410" lon="8.718659">
|
|
<ele>-22.682522</ele>
|
|
<time>2026-07-10T15:06:27.000Z</time>
|
|
</trkpt>
|
|
<trkpt lat="55.315426" lon="8.718723">
|
|
<ele>-22.670634</ele>
|
|
<time>2026-07-10T15:06:28.000Z</time>
|
|
</trkpt>
|
|
<trkpt lat="55.315443" lon="8.718786">
|
|
<ele>-22.658776</ele>
|
|
<time>2026-07-10T15:06:29.000Z</time>
|
|
</trkpt>
|
|
<trkpt lat="55.315461" lon="8.718856">
|
|
<ele>-22.645713</ele>
|
|
<time>2026-07-10T15:06:30.000Z</time>
|
|
</trkpt>
|
|
<trkpt lat="55.315475" lon="8.718930">
|
|
<ele>-22.632451</ele>
|
|
<time>2026-07-10T15:06:31.000Z</time>
|
|
</trkpt>
|
|
<trkpt lat="55.315489" lon="8.719007">
|
|
<ele>-22.618703</ele>
|
|
<time>2026-07-10T15:06:32.000Z</time>
|
|
</trkpt>
|
|
<trkpt lat="55.315505" lon="8.719085">
|
|
<ele>-22.604603</ele>
|
|
<time>2026-07-10T15:06:33.000Z</time>
|
|
</trkpt>
|
|
<trkpt lat="55.315518" lon="8.719165">
|
|
<ele>-22.591039</ele>
|
|
<time>2026-07-10T15:06:34.000Z</time>
|
|
</trkpt>
|
|
<trkpt lat="55.315533" lon="8.719247">
|
|
<ele>-22.577092</ele>
|
|
<time>2026-07-10T15:06:35.000Z</time>
|
|
</trkpt>
|
|
<trkpt lat="55.315549" lon="8.719328">
|
|
<ele>-22.563210</ele>
|
|
<time>2026-07-10T15:06:36.000Z</time>
|
|
</trkpt>
|
|
<trkpt lat="55.315565" lon="8.719406">
|
|
<ele>-22.549785</ele>
|
|
<time>2026-07-10T15:06:37.000Z</time>
|
|
</trkpt>
|
|
<trkpt lat="55.315582" lon="8.719485">
|
|
<ele>-22.536109</ele>
|
|
<time>2026-07-10T15:06:38.000Z</time>
|
|
</trkpt>
|
|
<trkpt lat="55.315594" lon="8.719567">
|
|
<ele>-22.522400</ele>
|
|
<time>2026-07-10T15:06:39.000Z</time>
|
|
</trkpt>
|
|
<trkpt lat="55.315611" lon="8.719653">
|
|
<ele>-22.507659</ele>
|
|
<time>2026-07-10T15:06:40.000Z</time>
|
|
</trkpt>
|
|
<trkpt lat="55.315629" lon="8.719741">
|
|
<ele>-22.492518</ele>
|
|
<time>2026-07-10T15:06:41.000Z</time>
|
|
</trkpt>
|
|
<trkpt lat="55.315645" lon="8.719830">
|
|
<ele>-22.477405</ele>
|
|
<time>2026-07-10T15:06:42.000Z</time>
|
|
</trkpt>
|
|
<trkpt lat="55.315663" lon="8.719919">
|
|
<ele>-22.462112</ele>
|
|
<time>2026-07-10T15:06:43.000Z</time>
|
|
</trkpt>
|
|
<trkpt lat="55.315679" lon="8.720006">
|
|
<ele>-22.447308</ele>
|
|
<time>2026-07-10T15:06:44.000Z</time>
|
|
</trkpt>
|
|
<trkpt lat="55.315697" lon="8.720096">
|
|
<ele>-22.431862</ele>
|
|
<time>2026-07-10T15:06:45.000Z</time>
|
|
</trkpt>
|
|
<trkpt lat="55.315713" lon="8.720188">
|
|
<ele>-22.416285</ele>
|
|
<time>2026-07-10T15:06:46.000Z</time>
|
|
</trkpt>
|
|
<trkpt lat="55.315729" lon="8.720278">
|
|
<ele>-22.401018</ele>
|
|
<time>2026-07-10T15:06:47.000Z</time>
|
|
</trkpt>
|
|
<trkpt lat="55.315747" lon="8.720367">
|
|
<ele>-22.385725</ele>
|
|
<time>2026-07-10T15:06:48.000Z</time>
|
|
</trkpt>
|
|
<trkpt lat="55.315762" lon="8.720455">
|
|
<ele>-22.370851</ele>
|
|
<time>2026-07-10T15:06:49.000Z</time>
|
|
</trkpt>
|
|
<trkpt lat="55.315778" lon="8.720538">
|
|
<ele>-22.356662</ele>
|
|
<time>2026-07-10T15:06:50.000Z</time>
|
|
</trkpt>
|
|
<trkpt lat="55.315797" lon="8.720620">
|
|
<ele>-22.342326</ele>
|
|
<time>2026-07-10T15:06:51.000Z</time>
|
|
</trkpt>
|
|
<trkpt lat="55.315817" lon="8.720701">
|
|
<ele>-22.328030</ele>
|
|
<time>2026-07-10T15:06:52.000Z</time>
|
|
</trkpt>
|
|
<trkpt lat="55.315836" lon="8.720780">
|
|
<ele>-22.314143</ele>
|
|
<time>2026-07-10T15:06:53.000Z</time>
|
|
</trkpt>
|
|
<trkpt lat="55.315856" lon="8.720863">
|
|
<ele>-22.299549</ele>
|
|
<time>2026-07-10T15:06:54.000Z</time>
|
|
</trkpt>
|
|
<trkpt lat="55.315878" lon="8.720951">
|
|
<ele>-22.283986</ele>
|
|
<time>2026-07-10T15:06:55.000Z</time>
|
|
</trkpt>
|
|
<trkpt lat="55.315894" lon="8.721042">
|
|
<ele>-22.268564</ele>
|
|
<time>2026-07-10T15:06:56.000Z</time>
|
|
</trkpt>
|
|
<trkpt lat="55.315907" lon="8.721137">
|
|
<ele>-22.252744</ele>
|
|
<time>2026-07-10T15:06:57.000Z</time>
|
|
</trkpt>
|
|
<trkpt lat="55.315921" lon="8.721228">
|
|
<ele>-22.237480</ele>
|
|
<time>2026-07-10T15:06:58.000Z</time>
|
|
</trkpt>
|
|
<trkpt lat="55.315934" lon="8.721321">
|
|
<ele>-22.221975</ele>
|
|
<time>2026-07-10T15:06:59.000Z</time>
|
|
</trkpt>
|
|
<trkpt lat="55.315950" lon="8.721416">
|
|
<ele>-22.205933</ele>
|
|
<time>2026-07-10T15:07:00.000Z</time>
|
|
</trkpt>
|
|
<trkpt lat="55.315969" lon="8.721508">
|
|
<ele>-22.190086</ele>
|
|
<time>2026-07-10T15:07:01.000Z</time>
|
|
</trkpt>
|
|
<trkpt lat="55.315987" lon="8.721602">
|
|
<ele>-22.174028</ele>
|
|
<time>2026-07-10T15:07:02.000Z</time>
|
|
</trkpt>
|
|
<trkpt lat="55.316002" lon="8.721697">
|
|
<ele>-22.158065</ele>
|
|
<time>2026-07-10T15:07:03.000Z</time>
|
|
</trkpt>
|
|
<trkpt lat="55.316020" lon="8.721789">
|
|
<ele>-22.142313</ele>
|
|
<time>2026-07-10T15:07:04.000Z</time>
|
|
</trkpt>
|
|
<trkpt lat="55.316042" lon="8.721880">
|
|
<ele>-22.126304</ele>
|
|
<time>2026-07-10T15:07:05.000Z</time>
|
|
</trkpt>
|
|
<trkpt lat="55.316060" lon="8.721971">
|
|
<ele>-22.110705</ele>
|
|
<time>2026-07-10T15:07:06.000Z</time>
|
|
</trkpt>
|
|
<trkpt lat="55.316076" lon="8.722061">
|
|
<ele>-22.095438</ele>
|
|
<time>2026-07-10T15:07:07.000Z</time>
|
|
</trkpt>
|
|
<trkpt lat="55.316095" lon="8.722152">
|
|
<ele>-22.095030</ele>
|
|
<time>2026-07-10T15:07:08.000Z</time>
|
|
</trkpt>
|
|
<trkpt lat="55.316114" lon="8.722245">
|
|
<ele>-22.100983</ele>
|
|
<time>2026-07-10T15:07:09.000Z</time>
|
|
</trkpt>
|
|
<trkpt lat="55.316133" lon="8.722336">
|
|
<ele>-22.106823</ele>
|
|
<time>2026-07-10T15:07:10.000Z</time>
|
|
</trkpt>
|
|
<trkpt lat="55.316151" lon="8.722426">
|
|
<ele>-22.112571</ele>
|
|
<time>2026-07-10T15:07:11.000Z</time>
|
|
</trkpt>
|
|
<trkpt lat="55.316166" lon="8.722517">
|
|
<ele>-22.118279</ele>
|
|
<time>2026-07-10T15:07:12.000Z</time>
|
|
</trkpt>
|
|
<trkpt lat="55.316183" lon="8.722613">
|
|
<ele>-22.124337</ele>
|
|
<time>2026-07-10T15:07:13.000Z</time>
|
|
</trkpt>
|
|
<trkpt lat="55.316202" lon="8.722708">
|
|
<ele>-22.130404</ele>
|
|
<time>2026-07-10T15:07:14.000Z</time>
|
|
</trkpt>
|
|
<trkpt lat="55.316222" lon="8.722800">
|
|
<ele>-22.136338</ele>
|
|
<time>2026-07-10T15:07:15.000Z</time>
|
|
</trkpt>
|
|
<trkpt lat="55.316244" lon="8.722894">
|
|
<ele>-22.142461</ele>
|
|
<time>2026-07-10T15:07:16.000Z</time>
|
|
</trkpt>
|
|
<trkpt lat="55.316263" lon="8.722988">
|
|
<ele>-22.148472</ele>
|
|
<time>2026-07-10T15:07:17.000Z</time>
|
|
</trkpt>
|
|
<trkpt lat="55.316281" lon="8.723083">
|
|
<ele>-22.154504</ele>
|
|
<time>2026-07-10T15:07:18.000Z</time>
|
|
</trkpt>
|
|
<trkpt lat="55.316296" lon="8.723181">
|
|
<ele>-22.160619</ele>
|
|
<time>2026-07-10T15:07:19.000Z</time>
|
|
</trkpt>
|
|
<trkpt lat="55.316313" lon="8.723280">
|
|
<ele>-22.166849</ele>
|
|
<time>2026-07-10T15:07:20.000Z</time>
|
|
</trkpt>
|
|
<trkpt lat="55.316331" lon="8.723378">
|
|
<ele>-22.173054</ele>
|
|
<time>2026-07-10T15:07:21.000Z</time>
|
|
</trkpt>
|
|
<trkpt lat="55.316346" lon="8.723475">
|
|
<ele>-22.179110</ele>
|
|
<time>2026-07-10T15:07:22.000Z</time>
|
|
</trkpt>
|
|
<trkpt lat="55.316361" lon="8.723570">
|
|
<ele>-22.185050</ele>
|
|
<time>2026-07-10T15:07:23.000Z</time>
|
|
</trkpt>
|
|
<trkpt lat="55.316377" lon="8.723667">
|
|
<ele>-22.191135</ele>
|
|
<time>2026-07-10T15:07:24.000Z</time>
|
|
</trkpt>
|
|
<trkpt lat="55.316395" lon="8.723763">
|
|
<ele>-22.197225</ele>
|
|
<time>2026-07-10T15:07:25.000Z</time>
|
|
</trkpt>
|
|
<trkpt lat="55.316408" lon="8.723860">
|
|
<ele>-22.203229</ele>
|
|
<time>2026-07-10T15:07:26.000Z</time>
|
|
</trkpt>
|
|
<trkpt lat="55.316415" lon="8.723961">
|
|
<ele>-22.209359</ele>
|
|
<time>2026-07-10T15:07:27.000Z</time>
|
|
</trkpt>
|
|
<trkpt lat="55.316420" lon="8.724062">
|
|
<ele>-22.215467</ele>
|
|
<time>2026-07-10T15:07:28.000Z</time>
|
|
</trkpt>
|
|
<trkpt lat="55.316429" lon="8.724160">
|
|
<ele>-22.221448</ele>
|
|
<time>2026-07-10T15:07:29.000Z</time>
|
|
</trkpt>
|
|
<trkpt lat="55.316438" lon="8.724259">
|
|
<ele>-22.227488</ele>
|
|
<time>2026-07-10T15:07:30.000Z</time>
|
|
</trkpt>
|
|
<trkpt lat="55.316443" lon="8.724361">
|
|
<ele>-22.233657</ele>
|
|
<time>2026-07-10T15:07:31.000Z</time>
|
|
</trkpt>
|
|
<trkpt lat="55.316451" lon="8.724460">
|
|
<ele>-22.239681</ele>
|
|
<time>2026-07-10T15:07:32.000Z</time>
|
|
</trkpt>
|
|
<trkpt lat="55.316462" lon="8.724560">
|
|
<ele>-22.245818</ele>
|
|
<time>2026-07-10T15:07:33.000Z</time>
|
|
</trkpt>
|
|
<trkpt lat="55.316468" lon="8.724659">
|
|
<ele>-22.251816</ele>
|
|
<time>2026-07-10T15:07:34.000Z</time>
|
|
</trkpt>
|
|
<trkpt lat="55.316472" lon="8.724757">
|
|
<ele>-22.257736</ele>
|
|
<time>2026-07-10T15:07:35.000Z</time>
|
|
</trkpt>
|
|
<trkpt lat="55.316476" lon="8.724854">
|
|
<ele>-22.263595</ele>
|
|
<time>2026-07-10T15:07:36.000Z</time>
|
|
</trkpt>
|
|
<trkpt lat="55.316480" lon="8.724952">
|
|
<ele>-22.269515</ele>
|
|
<time>2026-07-10T15:07:37.000Z</time>
|
|
</trkpt>
|
|
<trkpt lat="55.316484" lon="8.725052">
|
|
<ele>-22.275555</ele>
|
|
<time>2026-07-10T15:07:38.000Z</time>
|
|
</trkpt>
|
|
<trkpt lat="55.316487" lon="8.725151">
|
|
<ele>-22.281332</ele>
|
|
<time>2026-07-10T15:07:39.000Z</time>
|
|
</trkpt>
|
|
<trkpt lat="55.316491" lon="8.725247">
|
|
<ele>-22.281599</ele>
|
|
<time>2026-07-10T15:07:40.000Z</time>
|
|
</trkpt>
|
|
<trkpt lat="55.316496" lon="8.725342">
|
|
<ele>-22.281863</ele>
|
|
<time>2026-07-10T15:07:41.000Z</time>
|
|
</trkpt>
|
|
<trkpt lat="55.316503" lon="8.725435">
|
|
<ele>-22.282123</ele>
|
|
<time>2026-07-10T15:07:42.000Z</time>
|
|
</trkpt>
|
|
<trkpt lat="55.316508" lon="8.725529">
|
|
<ele>-22.282385</ele>
|
|
<time>2026-07-10T15:07:43.000Z</time>
|
|
</trkpt>
|
|
<trkpt lat="55.316514" lon="8.725626">
|
|
<ele>-22.282655</ele>
|
|
<time>2026-07-10T15:07:44.000Z</time>
|
|
</trkpt>
|
|
<trkpt lat="55.316518" lon="8.725721">
|
|
<ele>-22.282919</ele>
|
|
<time>2026-07-10T15:07:45.000Z</time>
|
|
</trkpt>
|
|
<trkpt lat="55.316522" lon="8.725815">
|
|
<ele>-22.283180</ele>
|
|
<time>2026-07-10T15:07:46.000Z</time>
|
|
</trkpt>
|
|
<trkpt lat="55.316526" lon="8.725908">
|
|
<ele>-22.283438</ele>
|
|
<time>2026-07-10T15:07:47.000Z</time>
|
|
</trkpt>
|
|
<trkpt lat="55.316529" lon="8.726004">
|
|
<ele>-22.283704</ele>
|
|
<time>2026-07-10T15:07:48.000Z</time>
|
|
</trkpt>
|
|
<trkpt lat="55.316534" lon="8.726100">
|
|
<ele>-22.283971</ele>
|
|
<time>2026-07-10T15:07:49.000Z</time>
|
|
</trkpt>
|
|
<trkpt lat="55.316541" lon="8.726191">
|
|
<ele>-22.284226</ele>
|
|
<time>2026-07-10T15:07:50.000Z</time>
|
|
</trkpt>
|
|
<trkpt lat="55.316545" lon="8.726282">
|
|
<ele>-22.284479</ele>
|
|
<time>2026-07-10T15:07:51.000Z</time>
|
|
</trkpt>
|
|
<trkpt lat="55.316550" lon="8.726375">
|
|
<ele>-22.284737</ele>
|
|
<time>2026-07-10T15:07:52.000Z</time>
|
|
</trkpt>
|
|
<trkpt lat="55.316555" lon="8.726467">
|
|
<ele>-22.284993</ele>
|
|
<time>2026-07-10T15:07:53.000Z</time>
|
|
</trkpt>
|
|
<trkpt lat="55.316556" lon="8.726557">
|
|
<ele>-22.285243</ele>
|
|
<time>2026-07-10T15:07:54.000Z</time>
|
|
</trkpt>
|
|
<trkpt lat="55.316561" lon="8.726654">
|
|
<ele>-22.285512</ele>
|
|
<time>2026-07-10T15:07:55.000Z</time>
|
|
</trkpt>
|
|
<trkpt lat="55.316568" lon="8.726752">
|
|
<ele>-22.285786</ele>
|
|
<time>2026-07-10T15:07:56.000Z</time>
|
|
</trkpt>
|
|
<trkpt lat="55.316571" lon="8.726851">
|
|
<ele>-22.286061</ele>
|
|
<time>2026-07-10T15:07:57.000Z</time>
|
|
</trkpt>
|
|
<trkpt lat="55.316575" lon="8.726953">
|
|
<ele>-22.286344</ele>
|
|
<time>2026-07-10T15:07:58.000Z</time>
|
|
</trkpt>
|
|
<trkpt lat="55.316580" lon="8.727055">
|
|
<ele>-22.286627</ele>
|
|
<time>2026-07-10T15:07:59.000Z</time>
|
|
</trkpt>
|
|
<trkpt lat="55.316588" lon="8.727153">
|
|
<ele>-22.286902</ele>
|
|
<time>2026-07-10T15:08:00.000Z</time>
|
|
</trkpt>
|
|
<trkpt lat="55.316593" lon="8.727252">
|
|
<ele>-22.287177</ele>
|
|
<time>2026-07-10T15:08:01.000Z</time>
|
|
</trkpt>
|
|
<trkpt lat="55.316594" lon="8.727352">
|
|
<ele>-22.287454</ele>
|
|
<time>2026-07-10T15:08:02.000Z</time>
|
|
</trkpt>
|
|
<trkpt lat="55.316597" lon="8.727453">
|
|
<ele>-22.287734</ele>
|
|
<time>2026-07-10T15:08:03.000Z</time>
|
|
</trkpt>
|
|
<trkpt lat="55.316598" lon="8.727552">
|
|
<ele>-22.288008</ele>
|
|
<time>2026-07-10T15:08:04.000Z</time>
|
|
</trkpt>
|
|
<trkpt lat="55.316602" lon="8.727649">
|
|
<ele>-22.288278</ele>
|
|
<time>2026-07-10T15:08:05.000Z</time>
|
|
</trkpt>
|
|
<trkpt lat="55.316606" lon="8.727746">
|
|
<ele>-22.288547</ele>
|
|
<time>2026-07-10T15:08:06.000Z</time>
|
|
</trkpt>
|
|
<trkpt lat="55.316610" lon="8.727842">
|
|
<ele>-22.288814</ele>
|
|
<time>2026-07-10T15:08:07.000Z</time>
|
|
</trkpt>
|
|
<trkpt lat="55.316613" lon="8.727937">
|
|
<ele>-22.289077</ele>
|
|
<time>2026-07-10T15:08:08.000Z</time>
|
|
</trkpt>
|
|
<trkpt lat="55.316617" lon="8.728030">
|
|
<ele>-22.289336</ele>
|
|
<time>2026-07-10T15:08:09.000Z</time>
|
|
</trkpt>
|
|
<trkpt lat="55.316620" lon="8.728125">
|
|
<ele>-22.289599</ele>
|
|
<time>2026-07-10T15:08:10.000Z</time>
|
|
</trkpt>
|
|
<trkpt lat="55.316620" lon="8.728219">
|
|
<ele>-22.289859</ele>
|
|
<time>2026-07-10T15:08:11.000Z</time>
|
|
</trkpt>
|
|
<trkpt lat="55.316621" lon="8.728315">
|
|
<ele>-22.288833</ele>
|
|
<time>2026-07-10T15:08:12.000Z</time>
|
|
</trkpt>
|
|
<trkpt lat="55.316624" lon="8.728409">
|
|
<ele>-22.281993</ele>
|
|
<time>2026-07-10T15:08:13.000Z</time>
|
|
</trkpt>
|
|
<trkpt lat="55.316624" lon="8.728503">
|
|
<ele>-22.275164</ele>
|
|
<time>2026-07-10T15:08:14.000Z</time>
|
|
</trkpt>
|
|
<trkpt lat="55.316624" lon="8.728596">
|
|
<ele>-22.268408</ele>
|
|
<time>2026-07-10T15:08:15.000Z</time>
|
|
</trkpt>
|
|
<trkpt lat="55.316623" lon="8.728689">
|
|
<ele>-22.261650</ele>
|
|
<time>2026-07-10T15:08:16.000Z</time>
|
|
</trkpt>
|
|
<trkpt lat="55.316618" lon="8.728780">
|
|
<ele>-22.255008</ele>
|
|
<time>2026-07-10T15:08:17.000Z</time>
|
|
</trkpt>
|
|
<trkpt lat="55.316610" lon="8.728875">
|
|
<ele>-22.248032</ele>
|
|
<time>2026-07-10T15:08:18.000Z</time>
|
|
</trkpt>
|
|
<trkpt lat="55.316601" lon="8.728969">
|
|
<ele>-22.241107</ele>
|
|
<time>2026-07-10T15:08:19.000Z</time>
|
|
</trkpt>
|
|
<trkpt lat="55.316590" lon="8.729065">
|
|
<ele>-22.233992</ele>
|
|
<time>2026-07-10T15:08:20.000Z</time>
|
|
</trkpt>
|
|
<trkpt lat="55.316577" lon="8.729161">
|
|
<ele>-22.226823</ele>
|
|
<time>2026-07-10T15:08:21.000Z</time>
|
|
</trkpt>
|
|
<trkpt lat="55.316563" lon="8.729254">
|
|
<ele>-22.219834</ele>
|
|
<time>2026-07-10T15:08:22.000Z</time>
|
|
</trkpt>
|
|
<trkpt lat="55.316553" lon="8.729345">
|
|
<ele>-22.213101</ele>
|
|
<time>2026-07-10T15:08:23.000Z</time>
|
|
</trkpt>
|
|
<trkpt lat="55.316544" lon="8.729437">
|
|
<ele>-22.206319</ele>
|
|
<time>2026-07-10T15:08:24.000Z</time>
|
|
</trkpt>
|
|
<trkpt lat="55.316532" lon="8.729529">
|
|
<ele>-22.199462</ele>
|
|
<time>2026-07-10T15:08:25.000Z</time>
|
|
</trkpt>
|
|
<trkpt lat="55.316517" lon="8.729621">
|
|
<ele>-22.192510</ele>
|
|
<time>2026-07-10T15:08:26.000Z</time>
|
|
</trkpt>
|
|
<trkpt lat="55.316506" lon="8.729715">
|
|
<ele>-22.185538</ele>
|
|
<time>2026-07-10T15:08:27.000Z</time>
|
|
</trkpt>
|
|
<trkpt lat="55.316495" lon="8.729811">
|
|
<ele>-22.178424</ele>
|
|
<time>2026-07-10T15:08:28.000Z</time>
|
|
</trkpt>
|
|
<trkpt lat="55.316483" lon="8.729900">
|
|
<ele>-22.171779</ele>
|
|
<time>2026-07-10T15:08:29.000Z</time>
|
|
</trkpt>
|
|
<trkpt lat="55.316470" lon="8.729987">
|
|
<ele>-22.165244</ele>
|
|
<time>2026-07-10T15:08:30.000Z</time>
|
|
</trkpt>
|
|
<trkpt lat="55.316455" lon="8.730075">
|
|
<ele>-22.158570</ele>
|
|
<time>2026-07-10T15:08:31.000Z</time>
|
|
</trkpt>
|
|
<trkpt lat="55.316439" lon="8.730168">
|
|
<ele>-22.151512</ele>
|
|
<time>2026-07-10T15:08:32.000Z</time>
|
|
</trkpt>
|
|
<trkpt lat="55.316422" lon="8.730263">
|
|
<ele>-22.144277</ele>
|
|
<time>2026-07-10T15:08:33.000Z</time>
|
|
</trkpt>
|
|
<trkpt lat="55.316411" lon="8.730356">
|
|
<ele>-22.137376</ele>
|
|
<time>2026-07-10T15:08:34.000Z</time>
|
|
</trkpt>
|
|
<trkpt lat="55.316398" lon="8.730448">
|
|
<ele>-22.130489</ele>
|
|
<time>2026-07-10T15:08:35.000Z</time>
|
|
</trkpt>
|
|
<trkpt lat="55.316382" lon="8.730540">
|
|
<ele>-22.123500</ele>
|
|
<time>2026-07-10T15:08:36.000Z</time>
|
|
</trkpt>
|
|
<trkpt lat="55.316364" lon="8.730636">
|
|
<ele>-22.116157</ele>
|
|
<time>2026-07-10T15:08:37.000Z</time>
|
|
</trkpt>
|
|
<trkpt lat="55.316350" lon="8.730730">
|
|
<ele>-22.109098</ele>
|
|
<time>2026-07-10T15:08:38.000Z</time>
|
|
</trkpt>
|
|
<trkpt lat="55.316337" lon="8.730826">
|
|
<ele>-22.101929</ele>
|
|
<time>2026-07-10T15:08:39.000Z</time>
|
|
</trkpt>
|
|
<trkpt lat="55.316321" lon="8.730922">
|
|
<ele>-22.094662</ele>
|
|
<time>2026-07-10T15:08:40.000Z</time>
|
|
</trkpt>
|
|
<trkpt lat="55.316303" lon="8.731018">
|
|
<ele>-22.087318</ele>
|
|
<time>2026-07-10T15:08:41.000Z</time>
|
|
</trkpt>
|
|
<trkpt lat="55.316289" lon="8.731108">
|
|
<ele>-22.080540</ele>
|
|
<time>2026-07-10T15:08:42.000Z</time>
|
|
</trkpt>
|
|
<trkpt lat="55.316276" lon="8.731197">
|
|
<ele>-22.073865</ele>
|
|
<time>2026-07-10T15:08:43.000Z</time>
|
|
</trkpt>
|
|
<trkpt lat="55.316261" lon="8.731288">
|
|
<ele>-22.066982</ele>
|
|
<time>2026-07-10T15:08:44.000Z</time>
|
|
</trkpt>
|
|
<trkpt lat="55.316247" lon="8.731385">
|
|
<ele>-22.058973</ele>
|
|
<time>2026-07-10T15:08:45.000Z</time>
|
|
</trkpt>
|
|
<trkpt lat="55.316234" lon="8.731479">
|
|
<ele>-22.044886</ele>
|
|
<time>2026-07-10T15:08:46.000Z</time>
|
|
</trkpt>
|
|
<trkpt lat="55.316219" lon="8.731573">
|
|
<ele>-22.030669</ele>
|
|
<time>2026-07-10T15:08:47.000Z</time>
|
|
</trkpt>
|
|
<trkpt lat="55.316204" lon="8.731668">
|
|
<ele>-22.016312</ele>
|
|
<time>2026-07-10T15:08:48.000Z</time>
|
|
</trkpt>
|
|
<trkpt lat="55.316189" lon="8.731762">
|
|
<ele>-22.002095</ele>
|
|
<time>2026-07-10T15:08:49.000Z</time>
|
|
</trkpt>
|
|
<trkpt lat="55.316178" lon="8.731855">
|
|
<ele>-21.988263</ele>
|
|
<time>2026-07-10T15:08:50.000Z</time>
|
|
</trkpt>
|
|
<trkpt lat="55.316166" lon="8.731945">
|
|
<ele>-21.974801</ele>
|
|
<time>2026-07-10T15:08:51.000Z</time>
|
|
</trkpt>
|
|
<trkpt lat="55.316154" lon="8.732030">
|
|
<ele>-21.962048</ele>
|
|
<time>2026-07-10T15:08:52.000Z</time>
|
|
</trkpt>
|
|
<trkpt lat="55.316139" lon="8.732118">
|
|
<ele>-21.948670</ele>
|
|
<time>2026-07-10T15:08:53.000Z</time>
|
|
</trkpt>
|
|
<trkpt lat="55.316125" lon="8.732206">
|
|
<ele>-21.935364</ele>
|
|
<time>2026-07-10T15:08:54.000Z</time>
|
|
</trkpt>
|
|
<trkpt lat="55.316112" lon="8.732293">
|
|
<ele>-21.922265</ele>
|
|
<time>2026-07-10T15:08:55.000Z</time>
|
|
</trkpt>
|
|
<trkpt lat="55.316097" lon="8.732380">
|
|
<ele>-21.909027</ele>
|
|
<time>2026-07-10T15:08:56.000Z</time>
|
|
</trkpt>
|
|
<trkpt lat="55.316081" lon="8.732470">
|
|
<ele>-21.895295</ele>
|
|
<time>2026-07-10T15:08:57.000Z</time>
|
|
</trkpt>
|
|
<trkpt lat="55.316067" lon="8.732564">
|
|
<ele>-21.881146</ele>
|
|
<time>2026-07-10T15:08:58.000Z</time>
|
|
</trkpt>
|
|
<trkpt lat="55.316055" lon="8.732656">
|
|
<ele>-21.867400</ele>
|
|
<time>2026-07-10T15:08:59.000Z</time>
|
|
</trkpt>
|
|
<trkpt lat="55.316041" lon="8.732748">
|
|
<ele>-21.853532</ele>
|
|
<time>2026-07-10T15:09:00.000Z</time>
|
|
</trkpt>
|
|
<trkpt lat="55.316028" lon="8.732838">
|
|
<ele>-21.840010</ele>
|
|
<time>2026-07-10T15:09:01.000Z</time>
|
|
</trkpt>
|
|
<trkpt lat="55.316013" lon="8.732927">
|
|
<ele>-21.826493</ele>
|
|
<time>2026-07-10T15:09:02.000Z</time>
|
|
</trkpt>
|
|
<trkpt lat="55.316000" lon="8.733016">
|
|
<ele>-21.813112</ele>
|
|
<time>2026-07-10T15:09:03.000Z</time>
|
|
</trkpt>
|
|
<trkpt lat="55.315990" lon="8.733107">
|
|
<ele>-21.799615</ele>
|
|
<time>2026-07-10T15:09:04.000Z</time>
|
|
</trkpt>
|
|
<trkpt lat="55.315976" lon="8.733200">
|
|
<ele>-21.785606</ele>
|
|
<time>2026-07-10T15:09:05.000Z</time>
|
|
</trkpt>
|
|
<trkpt lat="55.315963" lon="8.733295">
|
|
<ele>-21.771377</ele>
|
|
<time>2026-07-10T15:09:06.000Z</time>
|
|
</trkpt>
|
|
<trkpt lat="55.315948" lon="8.733392">
|
|
<ele>-21.756739</ele>
|
|
<time>2026-07-10T15:09:07.000Z</time>
|
|
</trkpt>
|
|
<trkpt lat="55.315933" lon="8.733490">
|
|
<ele>-21.741960</ele>
|
|
<time>2026-07-10T15:09:08.000Z</time>
|
|
</trkpt>
|
|
<trkpt lat="55.315918" lon="8.733587">
|
|
<ele>-21.727322</ele>
|
|
<time>2026-07-10T15:09:09.000Z</time>
|
|
</trkpt>
|
|
<trkpt lat="55.315907" lon="8.733682">
|
|
<ele>-21.713204</ele>
|
|
<time>2026-07-10T15:09:10.000Z</time>
|
|
</trkpt>
|
|
<trkpt lat="55.315895" lon="8.733774">
|
|
<ele>-21.699459</ele>
|
|
<time>2026-07-10T15:09:11.000Z</time>
|
|
</trkpt>
|
|
<trkpt lat="55.315879" lon="8.733867">
|
|
<ele>-21.685310</ele>
|
|
<time>2026-07-10T15:09:12.000Z</time>
|
|
</trkpt>
|
|
<trkpt lat="55.315865" lon="8.733962">
|
|
<ele>-21.671019</ele>
|
|
<time>2026-07-10T15:09:13.000Z</time>
|
|
</trkpt>
|
|
<trkpt lat="55.315853" lon="8.734053">
|
|
<ele>-21.657416</ele>
|
|
<time>2026-07-10T15:09:14.000Z</time>
|
|
</trkpt>
|
|
<trkpt lat="55.315838" lon="8.734142">
|
|
<ele>-21.643899</ele>
|
|
<time>2026-07-10T15:09:15.000Z</time>
|
|
</trkpt>
|
|
<trkpt lat="55.315826" lon="8.734232">
|
|
<ele>-21.630438</ele>
|
|
<time>2026-07-10T15:09:16.000Z</time>
|
|
</trkpt>
|
|
<trkpt lat="55.315812" lon="8.734327">
|
|
<ele>-21.616147</ele>
|
|
<time>2026-07-10T15:09:17.000Z</time>
|
|
</trkpt>
|
|
<trkpt lat="55.315799" lon="8.734422">
|
|
<ele>-21.601918</ele>
|
|
<time>2026-07-10T15:09:18.000Z</time>
|
|
</trkpt>
|
|
<trkpt lat="55.315785" lon="8.734516">
|
|
<ele>-21.587833</ele>
|
|
<time>2026-07-10T15:09:19.000Z</time>
|
|
</trkpt>
|
|
<trkpt lat="55.315771" lon="8.734610">
|
|
<ele>-21.573757</ele>
|
|
<time>2026-07-10T15:09:20.000Z</time>
|
|
</trkpt>
|
|
<trkpt lat="55.315754" lon="8.734704">
|
|
<ele>-21.559468</ele>
|
|
<time>2026-07-10T15:09:21.000Z</time>
|
|
</trkpt>
|
|
<trkpt lat="55.315742" lon="8.734801">
|
|
<ele>-21.545088</ele>
|
|
<time>2026-07-10T15:09:22.000Z</time>
|
|
</trkpt>
|
|
<trkpt lat="55.315727" lon="8.734896">
|
|
<ele>-21.530806</ele>
|
|
<time>2026-07-10T15:09:23.000Z</time>
|
|
</trkpt>
|
|
<trkpt lat="55.315712" lon="8.734991">
|
|
<ele>-21.516524</ele>
|
|
<time>2026-07-10T15:09:24.000Z</time>
|
|
</trkpt>
|
|
<trkpt lat="55.315700" lon="8.735083">
|
|
<ele>-21.502851</ele>
|
|
<time>2026-07-10T15:09:25.000Z</time>
|
|
</trkpt>
|
|
<trkpt lat="55.315685" lon="8.735177">
|
|
<ele>-21.488709</ele>
|
|
<time>2026-07-10T15:09:26.000Z</time>
|
|
</trkpt>
|
|
<trkpt lat="55.315669" lon="8.735274">
|
|
<ele>-21.474078</ele>
|
|
<time>2026-07-10T15:09:27.000Z</time>
|
|
</trkpt>
|
|
<trkpt lat="55.315654" lon="8.735370">
|
|
<ele>-21.459657</ele>
|
|
<time>2026-07-10T15:09:28.000Z</time>
|
|
</trkpt>
|
|
<trkpt lat="55.315639" lon="8.735467">
|
|
<ele>-21.445095</ele>
|
|
<time>2026-07-10T15:09:29.000Z</time>
|
|
</trkpt>
|
|
<trkpt lat="55.315624" lon="8.735563">
|
|
<ele>-21.430673</ele>
|
|
<time>2026-07-10T15:09:30.000Z</time>
|
|
</trkpt>
|
|
<trkpt lat="55.315609" lon="8.735661">
|
|
<ele>-21.415972</ele>
|
|
<time>2026-07-10T15:09:31.000Z</time>
|
|
</trkpt>
|
|
<trkpt lat="55.315597" lon="8.735756">
|
|
<ele>-21.401875</ele>
|
|
<time>2026-07-10T15:09:32.000Z</time>
|
|
</trkpt>
|
|
<trkpt lat="55.315583" lon="8.735851">
|
|
<ele>-21.387659</ele>
|
|
<time>2026-07-10T15:09:33.000Z</time>
|
|
</trkpt>
|
|
<trkpt lat="55.315570" lon="8.735946">
|
|
<ele>-21.373504</ele>
|
|
<time>2026-07-10T15:09:34.000Z</time>
|
|
</trkpt>
|
|
<trkpt lat="55.315555" lon="8.736040">
|
|
<ele>-21.359362</ele>
|
|
<time>2026-07-10T15:09:35.000Z</time>
|
|
</trkpt>
|
|
<trkpt lat="55.315540" lon="8.736133">
|
|
<ele>-21.345359</ele>
|
|
<time>2026-07-10T15:09:36.000Z</time>
|
|
</trkpt>
|
|
<trkpt lat="55.315526" lon="8.736228">
|
|
<ele>-21.331143</ele>
|
|
<time>2026-07-10T15:09:37.000Z</time>
|
|
</trkpt>
|
|
<trkpt lat="55.315514" lon="8.736322">
|
|
<ele>-21.317187</ele>
|
|
<time>2026-07-10T15:09:38.000Z</time>
|
|
</trkpt>
|
|
<trkpt lat="55.315503" lon="8.736418">
|
|
<ele>-21.303001</ele>
|
|
<time>2026-07-10T15:09:39.000Z</time>
|
|
</trkpt>
|
|
<trkpt lat="55.315490" lon="8.736512">
|
|
<ele>-21.288987</ele>
|
|
<time>2026-07-10T15:09:40.000Z</time>
|
|
</trkpt>
|
|
<trkpt lat="55.315475" lon="8.736608">
|
|
<ele>-21.274565</ele>
|
|
<time>2026-07-10T15:09:41.000Z</time>
|
|
</trkpt>
|
|
<trkpt lat="55.315461" lon="8.736703">
|
|
<ele>-21.260349</ele>
|
|
<time>2026-07-10T15:09:42.000Z</time>
|
|
</trkpt>
|
|
<trkpt lat="55.315449" lon="8.736796">
|
|
<ele>-21.246535</ele>
|
|
<time>2026-07-10T15:09:43.000Z</time>
|
|
</trkpt>
|
|
<trkpt lat="55.315437" lon="8.736887">
|
|
<ele>-21.233003</ele>
|
|
<time>2026-07-10T15:09:44.000Z</time>
|
|
</trkpt>
|
|
<trkpt lat="55.315421" lon="8.736980">
|
|
<ele>-21.218928</ele>
|
|
<time>2026-07-10T15:09:45.000Z</time>
|
|
</trkpt>
|
|
<trkpt lat="55.315407" lon="8.737075">
|
|
<ele>-21.204712</ele>
|
|
<time>2026-07-10T15:09:46.000Z</time>
|
|
</trkpt>
|
|
<trkpt lat="55.315396" lon="8.737171">
|
|
<ele>-21.190526</ele>
|
|
<time>2026-07-10T15:09:47.000Z</time>
|
|
</trkpt>
|
|
<trkpt lat="55.315384" lon="8.737265">
|
|
<ele>-21.176570</ele>
|
|
<time>2026-07-10T15:09:48.000Z</time>
|
|
</trkpt>
|
|
<trkpt lat="55.315373" lon="8.737360">
|
|
<ele>-21.162526</ele>
|
|
<time>2026-07-10T15:09:49.000Z</time>
|
|
</trkpt>
|
|
<trkpt lat="55.315362" lon="8.737455">
|
|
<ele>-21.148481</ele>
|
|
<time>2026-07-10T15:09:50.000Z</time>
|
|
</trkpt>
|
|
<trkpt lat="55.315350" lon="8.737552">
|
|
<ele>-21.129987</ele>
|
|
<time>2026-07-10T15:09:51.000Z</time>
|
|
</trkpt>
|
|
<trkpt lat="55.315339" lon="8.737647">
|
|
<ele>-21.108871</ele>
|
|
<time>2026-07-10T15:09:52.000Z</time>
|
|
</trkpt>
|
|
<trkpt lat="55.315326" lon="8.737744">
|
|
<ele>-21.087165</ele>
|
|
<time>2026-07-10T15:09:53.000Z</time>
|
|
</trkpt>
|
|
<trkpt lat="55.315312" lon="8.737839">
|
|
<ele>-21.065791</ele>
|
|
<time>2026-07-10T15:09:54.000Z</time>
|
|
</trkpt>
|
|
<trkpt lat="55.315301" lon="8.737934">
|
|
<ele>-21.044675</ele>
|
|
<time>2026-07-10T15:09:55.000Z</time>
|
|
</trkpt>
|
|
<trkpt lat="55.315289" lon="8.738033">
|
|
<ele>-21.022628</ele>
|
|
<time>2026-07-10T15:09:56.000Z</time>
|
|
</trkpt>
|
|
<trkpt lat="55.315278" lon="8.738130">
|
|
<ele>-21.001085</ele>
|
|
<time>2026-07-10T15:09:57.000Z</time>
|
|
</trkpt>
|
|
<trkpt lat="55.315266" lon="8.738226">
|
|
<ele>-20.979677</ele>
|
|
<time>2026-07-10T15:09:58.000Z</time>
|
|
</trkpt>
|
|
<trkpt lat="55.315254" lon="8.738321">
|
|
<ele>-20.958481</ele>
|
|
<time>2026-07-10T15:09:59.000Z</time>
|
|
</trkpt>
|
|
<trkpt lat="55.315239" lon="8.738413">
|
|
<ele>-20.937636</ele>
|
|
<time>2026-07-10T15:10:00.000Z</time>
|
|
</trkpt>
|
|
<trkpt lat="55.315228" lon="8.738503">
|
|
<ele>-20.917586</ele>
|
|
<time>2026-07-10T15:10:01.000Z</time>
|
|
</trkpt>
|
|
<trkpt lat="55.315217" lon="8.738592">
|
|
<ele>-20.897749</ele>
|
|
<time>2026-07-10T15:10:02.000Z</time>
|
|
</trkpt>
|
|
<trkpt lat="55.315205" lon="8.738681">
|
|
<ele>-20.877828</ele>
|
|
<time>2026-07-10T15:10:03.000Z</time>
|
|
</trkpt>
|
|
<trkpt lat="55.315195" lon="8.738768">
|
|
<ele>-20.858495</ele>
|
|
<time>2026-07-10T15:10:04.000Z</time>
|
|
</trkpt>
|
|
<trkpt lat="55.315186" lon="8.738852">
|
|
<ele>-20.839878</ele>
|
|
<time>2026-07-10T15:10:05.000Z</time>
|
|
</trkpt>
|
|
<trkpt lat="55.315175" lon="8.738936">
|
|
<ele>-20.821104</ele>
|
|
<time>2026-07-10T15:10:06.000Z</time>
|
|
</trkpt>
|
|
<trkpt lat="55.315163" lon="8.739021">
|
|
<ele>-20.802029</ele>
|
|
<time>2026-07-10T15:10:07.000Z</time>
|
|
</trkpt>
|
|
<trkpt lat="55.315153" lon="8.739104">
|
|
<ele>-20.783550</ele>
|
|
<time>2026-07-10T15:10:08.000Z</time>
|
|
</trkpt>
|
|
<trkpt lat="55.315144" lon="8.739185">
|
|
<ele>-20.765574</ele>
|
|
<time>2026-07-10T15:10:09.000Z</time>
|
|
</trkpt>
|
|
<trkpt lat="55.315134" lon="8.739265">
|
|
<ele>-20.747734</ele>
|
|
<time>2026-07-10T15:10:10.000Z</time>
|
|
</trkpt>
|
|
<trkpt lat="55.315125" lon="8.739347">
|
|
<ele>-20.729544</ele>
|
|
<time>2026-07-10T15:10:11.000Z</time>
|
|
</trkpt>
|
|
<trkpt lat="55.315114" lon="8.739428">
|
|
<ele>-20.711406</ele>
|
|
<time>2026-07-10T15:10:12.000Z</time>
|
|
</trkpt>
|
|
<trkpt lat="55.315103" lon="8.739510">
|
|
<ele>-20.693056</ele>
|
|
<time>2026-07-10T15:10:13.000Z</time>
|
|
</trkpt>
|
|
<trkpt lat="55.315096" lon="8.739590">
|
|
<ele>-20.675426</ele>
|
|
<time>2026-07-10T15:10:14.000Z</time>
|
|
</trkpt>
|
|
<trkpt lat="55.315087" lon="8.739671">
|
|
<ele>-20.657450</ele>
|
|
<time>2026-07-10T15:10:15.000Z</time>
|
|
</trkpt>
|
|
<trkpt lat="55.315077" lon="8.739753">
|
|
<ele>-20.639184</ele>
|
|
<time>2026-07-10T15:10:16.000Z</time>
|
|
</trkpt>
|
|
<trkpt lat="55.315069" lon="8.739834">
|
|
<ele>-20.621278</ele>
|
|
<time>2026-07-10T15:10:17.000Z</time>
|
|
</trkpt>
|
|
<trkpt lat="55.315060" lon="8.739910">
|
|
<ele>-20.604370</ele>
|
|
<time>2026-07-10T15:10:18.000Z</time>
|
|
</trkpt>
|
|
<trkpt lat="55.315049" lon="8.739985">
|
|
<ele>-20.587500</ele>
|
|
<time>2026-07-10T15:10:19.000Z</time>
|
|
</trkpt>
|
|
<trkpt lat="55.315038" lon="8.740056">
|
|
<ele>-20.571473</ele>
|
|
<time>2026-07-10T15:10:20.000Z</time>
|
|
</trkpt>
|
|
<trkpt lat="55.315031" lon="8.740127">
|
|
<ele>-20.555778</ele>
|
|
<time>2026-07-10T15:10:21.000Z</time>
|
|
</trkpt>
|
|
<trkpt lat="55.315023" lon="8.740195">
|
|
<ele>-20.540653</ele>
|
|
<time>2026-07-10T15:10:22.000Z</time>
|
|
</trkpt>
|
|
<trkpt lat="55.315016" lon="8.740264">
|
|
<ele>-20.525387</ele>
|
|
<time>2026-07-10T15:10:23.000Z</time>
|
|
</trkpt>
|
|
<trkpt lat="55.315007" lon="8.740335">
|
|
<ele>-20.509544</ele>
|
|
<time>2026-07-10T15:10:24.000Z</time>
|
|
</trkpt>
|
|
<trkpt lat="55.314998" lon="8.740401">
|
|
<ele>-20.494761</ele>
|
|
<time>2026-07-10T15:10:25.000Z</time>
|
|
</trkpt>
|
|
<trkpt lat="55.314993" lon="8.740466">
|
|
<ele>-20.480475</ele>
|
|
<time>2026-07-10T15:10:26.000Z</time>
|
|
</trkpt>
|
|
<trkpt lat="55.314985" lon="8.740531">
|
|
<ele>-20.465990</ele>
|
|
<time>2026-07-10T15:10:27.000Z</time>
|
|
</trkpt>
|
|
<trkpt lat="55.314976" lon="8.740597">
|
|
<ele>-20.451936</ele>
|
|
<time>2026-07-10T15:10:28.000Z</time>
|
|
</trkpt>
|
|
<trkpt lat="55.314966" lon="8.740663">
|
|
<ele>-20.441185</ele>
|
|
<time>2026-07-10T15:10:29.000Z</time>
|
|
</trkpt>
|
|
<trkpt lat="55.314957" lon="8.740730">
|
|
<ele>-20.430349</ele>
|
|
<time>2026-07-10T15:10:30.000Z</time>
|
|
</trkpt>
|
|
<trkpt lat="55.314947" lon="8.740800">
|
|
<ele>-20.418989</ele>
|
|
<time>2026-07-10T15:10:31.000Z</time>
|
|
</trkpt>
|
|
<trkpt lat="55.314938" lon="8.740870">
|
|
<ele>-20.407692</ele>
|
|
<time>2026-07-10T15:10:32.000Z</time>
|
|
</trkpt>
|
|
<trkpt lat="55.314928" lon="8.740940">
|
|
<ele>-20.396332</ele>
|
|
<time>2026-07-10T15:10:33.000Z</time>
|
|
</trkpt>
|
|
<trkpt lat="55.314921" lon="8.741008">
|
|
<ele>-20.385454</ele>
|
|
<time>2026-07-10T15:10:34.000Z</time>
|
|
</trkpt>
|
|
<trkpt lat="55.314915" lon="8.741076">
|
|
<ele>-20.374623</ele>
|
|
<time>2026-07-10T15:10:35.000Z</time>
|
|
</trkpt>
|
|
<trkpt lat="55.314906" lon="8.741148">
|
|
<ele>-20.363019</ele>
|
|
<time>2026-07-10T15:10:36.000Z</time>
|
|
</trkpt>
|
|
<trkpt lat="55.314900" lon="8.741223">
|
|
<ele>-20.351097</ele>
|
|
<time>2026-07-10T15:10:37.000Z</time>
|
|
</trkpt>
|
|
<trkpt lat="55.314890" lon="8.741300">
|
|
<ele>-20.338665</ele>
|
|
<time>2026-07-10T15:10:38.000Z</time>
|
|
</trkpt>
|
|
<trkpt lat="55.314881" lon="8.741381">
|
|
<ele>-20.325674</ele>
|
|
<time>2026-07-10T15:10:39.000Z</time>
|
|
</trkpt>
|
|
<trkpt lat="55.314871" lon="8.741464">
|
|
<ele>-20.312320</ele>
|
|
<time>2026-07-10T15:10:40.000Z</time>
|
|
</trkpt>
|
|
<trkpt lat="55.314862" lon="8.741545">
|
|
<ele>-20.299329</ele>
|
|
<time>2026-07-10T15:10:41.000Z</time>
|
|
</trkpt>
|
|
<trkpt lat="55.314851" lon="8.741625">
|
|
<ele>-20.286374</ele>
|
|
<time>2026-07-10T15:10:42.000Z</time>
|
|
</trkpt>
|
|
<trkpt lat="55.314844" lon="8.741702">
|
|
<ele>-20.274100</ele>
|
|
<time>2026-07-10T15:10:43.000Z</time>
|
|
</trkpt>
|
|
<trkpt lat="55.314834" lon="8.741779">
|
|
<ele>-20.261668</ele>
|
|
<time>2026-07-10T15:10:44.000Z</time>
|
|
</trkpt>
|
|
<trkpt lat="55.314820" lon="8.741857">
|
|
<ele>-20.248794</ele>
|
|
<time>2026-07-10T15:10:45.000Z</time>
|
|
</trkpt>
|
|
<trkpt lat="55.314810" lon="8.741936">
|
|
<ele>-20.236054</ele>
|
|
<time>2026-07-10T15:10:46.000Z</time>
|
|
</trkpt>
|
|
<trkpt lat="55.314802" lon="8.742013">
|
|
<ele>-20.223734</ele>
|
|
<time>2026-07-10T15:10:47.000Z</time>
|
|
</trkpt>
|
|
<trkpt lat="55.314793" lon="8.742091">
|
|
<ele>-20.211206</ele>
|
|
<time>2026-07-10T15:10:48.000Z</time>
|
|
</trkpt>
|
|
<trkpt lat="55.314783" lon="8.742168">
|
|
<ele>-20.198774</ele>
|
|
<time>2026-07-10T15:10:49.000Z</time>
|
|
</trkpt>
|
|
<trkpt lat="55.314775" lon="8.742241">
|
|
<ele>-20.187072</ele>
|
|
<time>2026-07-10T15:10:50.000Z</time>
|
|
</trkpt>
|
|
<trkpt lat="55.314768" lon="8.742314">
|
|
<ele>-20.175419</ele>
|
|
<time>2026-07-10T15:10:51.000Z</time>
|
|
</trkpt>
|
|
<trkpt lat="55.314760" lon="8.742387">
|
|
<ele>-20.163717</ele>
|
|
<time>2026-07-10T15:10:52.000Z</time>
|
|
</trkpt>
|
|
<trkpt lat="55.314752" lon="8.742456">
|
|
<ele>-20.152633</ele>
|
|
<time>2026-07-10T15:10:53.000Z</time>
|
|
</trkpt>
|
|
<trkpt lat="55.314744" lon="8.742525">
|
|
<ele>-20.141548</ele>
|
|
<time>2026-07-10T15:10:54.000Z</time>
|
|
</trkpt>
|
|
<trkpt lat="55.314733" lon="8.742593">
|
|
<ele>-20.130420</ele>
|
|
<time>2026-07-10T15:10:55.000Z</time>
|
|
</trkpt>
|
|
<trkpt lat="55.314726" lon="8.742658">
|
|
<ele>-20.120007</ele>
|
|
<time>2026-07-10T15:10:56.000Z</time>
|
|
</trkpt>
|
|
<trkpt lat="55.314718" lon="8.742720">
|
|
<ele>-20.110000</ele>
|
|
<time>2026-07-10T15:10:57.000Z</time>
|
|
</trkpt>
|
|
<trkpt lat="55.314711" lon="8.742781">
|
|
<ele>-20.100205</ele>
|
|
<time>2026-07-10T15:10:58.000Z</time>
|
|
</trkpt>
|
|
<trkpt lat="55.314708" lon="8.742842">
|
|
<ele>-20.090567</ele>
|
|
<time>2026-07-10T15:10:59.000Z</time>
|
|
</trkpt>
|
|
<trkpt lat="55.314703" lon="8.742901">
|
|
<ele>-20.081178</ele>
|
|
<time>2026-07-10T15:11:00.000Z</time>
|
|
</trkpt>
|
|
<trkpt lat="55.314696" lon="8.742954">
|
|
<ele>-20.072613</ele>
|
|
<time>2026-07-10T15:11:01.000Z</time>
|
|
</trkpt>
|
|
<trkpt lat="55.314692" lon="8.743004">
|
|
<ele>-20.064665</ele>
|
|
<time>2026-07-10T15:11:02.000Z</time>
|
|
</trkpt>
|
|
<trkpt lat="55.314687" lon="8.743055">
|
|
<ele>-20.056519</ele>
|
|
<time>2026-07-10T15:11:03.000Z</time>
|
|
</trkpt>
|
|
<trkpt lat="55.314681" lon="8.743099">
|
|
<ele>-20.049397</ele>
|
|
<time>2026-07-10T15:11:04.000Z</time>
|
|
</trkpt>
|
|
<trkpt lat="55.314675" lon="8.743142">
|
|
<ele>-20.042428</ele>
|
|
<time>2026-07-10T15:11:05.000Z</time>
|
|
</trkpt>
|
|
<trkpt lat="55.314665" lon="8.743189">
|
|
<ele>-20.034529</ele>
|
|
<time>2026-07-10T15:11:06.000Z</time>
|
|
</trkpt>
|
|
<trkpt lat="55.314658" lon="8.743241">
|
|
<ele>-20.026118</ele>
|
|
<time>2026-07-10T15:11:07.000Z</time>
|
|
</trkpt>
|
|
<trkpt lat="55.314654" lon="8.743289">
|
|
<ele>-20.018482</ele>
|
|
<time>2026-07-10T15:11:08.000Z</time>
|
|
</trkpt>
|
|
<trkpt lat="55.314649" lon="8.743339">
|
|
<ele>-20.010491</ele>
|
|
<time>2026-07-10T15:11:09.000Z</time>
|
|
</trkpt>
|
|
<trkpt lat="55.314644" lon="8.743384">
|
|
<ele>-20.003274</ele>
|
|
<time>2026-07-10T15:11:10.000Z</time>
|
|
</trkpt>
|
|
<trkpt lat="55.314643" lon="8.743428">
|
|
<ele>-19.996342</ele>
|
|
<time>2026-07-10T15:11:11.000Z</time>
|
|
</trkpt>
|
|
<trkpt lat="55.314638" lon="8.743476">
|
|
<ele>-19.988661</ele>
|
|
<time>2026-07-10T15:11:12.000Z</time>
|
|
</trkpt>
|
|
<trkpt lat="55.314630" lon="8.743524">
|
|
<ele>-19.980788</ele>
|
|
<time>2026-07-10T15:11:13.000Z</time>
|
|
</trkpt>
|
|
<trkpt lat="55.314623" lon="8.743574">
|
|
<ele>-19.972683</ele>
|
|
<time>2026-07-10T15:11:14.000Z</time>
|
|
</trkpt>
|
|
<trkpt lat="55.314616" lon="8.743617">
|
|
<ele>-19.965643</ele>
|
|
<time>2026-07-10T15:11:15.000Z</time>
|
|
</trkpt>
|
|
<trkpt lat="55.314614" lon="8.743648">
|
|
<ele>-19.960732</ele>
|
|
<time>2026-07-10T15:11:16.000Z</time>
|
|
</trkpt>
|
|
<trkpt lat="55.314623" lon="8.743689">
|
|
<ele>-19.958312</ele>
|
|
<time>2026-07-10T15:11:17.000Z</time>
|
|
</trkpt>
|
|
<trkpt lat="55.314629" lon="8.743705">
|
|
<ele>-19.960718</ele>
|
|
<time>2026-07-10T15:11:18.000Z</time>
|
|
</trkpt>
|
|
<trkpt lat="55.314645" lon="8.743698">
|
|
<ele>-19.964357</ele>
|
|
<time>2026-07-10T15:11:19.000Z</time>
|
|
</trkpt>
|
|
<trkpt lat="55.314649" lon="8.743678">
|
|
<ele>-19.967020</ele>
|
|
<time>2026-07-10T15:11:20.000Z</time>
|
|
</trkpt>
|
|
<trkpt lat="55.314655" lon="8.743654">
|
|
<ele>-19.970312</ele>
|
|
<time>2026-07-10T15:11:21.000Z</time>
|
|
</trkpt>
|
|
<trkpt lat="55.314661" lon="8.743596">
|
|
<ele>-19.977715</ele>
|
|
<time>2026-07-10T15:11:22.000Z</time>
|
|
</trkpt>
|
|
<trkpt lat="55.314667" lon="8.743560">
|
|
<ele>-19.982426</ele>
|
|
<time>2026-07-10T15:11:23.000Z</time>
|
|
</trkpt>
|
|
<trkpt lat="55.314672" lon="8.743498">
|
|
<ele>-19.990291</ele>
|
|
<time>2026-07-10T15:11:24.000Z</time>
|
|
</trkpt>
|
|
<trkpt lat="55.314675" lon="8.743451">
|
|
<ele>-19.996230</ele>
|
|
<time>2026-07-10T15:11:25.000Z</time>
|
|
</trkpt>
|
|
<trkpt lat="55.314679" lon="8.743401">
|
|
<ele>-20.002572</ele>
|
|
<time>2026-07-10T15:11:26.000Z</time>
|
|
</trkpt>
|
|
<trkpt lat="55.314683" lon="8.743350">
|
|
<ele>-20.009037</ele>
|
|
<time>2026-07-10T15:11:27.000Z</time>
|
|
</trkpt>
|
|
<trkpt lat="55.314688" lon="8.743299">
|
|
<ele>-20.015537</ele>
|
|
<time>2026-07-10T15:11:28.000Z</time>
|
|
</trkpt>
|
|
<trkpt lat="55.314696" lon="8.743251">
|
|
<ele>-20.021818</ele>
|
|
<time>2026-07-10T15:11:29.000Z</time>
|
|
</trkpt>
|
|
<trkpt lat="55.314704" lon="8.743215">
|
|
<ele>-20.026672</ele>
|
|
<time>2026-07-10T15:11:30.000Z</time>
|
|
</trkpt>
|
|
<trkpt lat="55.314717" lon="8.743195">
|
|
<ele>-20.030485</ele>
|
|
<time>2026-07-10T15:11:31.000Z</time>
|
|
</trkpt>
|
|
<trkpt lat="55.314739" lon="8.743184">
|
|
<ele>-20.035533</ele>
|
|
<time>2026-07-10T15:11:32.000Z</time>
|
|
</trkpt>
|
|
<trkpt lat="55.314767" lon="8.743181">
|
|
<ele>-20.041724</ele>
|
|
<time>2026-07-10T15:11:33.000Z</time>
|
|
</trkpt>
|
|
<trkpt lat="55.314799" lon="8.743182">
|
|
<ele>-20.048787</ele>
|
|
<time>2026-07-10T15:11:34.000Z</time>
|
|
</trkpt>
|
|
<trkpt lat="55.314833" lon="8.743184">
|
|
<ele>-20.056295</ele>
|
|
<time>2026-07-10T15:11:35.000Z</time>
|
|
</trkpt>
|
|
<trkpt lat="55.314867" lon="8.743189">
|
|
<ele>-20.063825</ele>
|
|
<time>2026-07-10T15:11:36.000Z</time>
|
|
</trkpt>
|
|
<trkpt lat="55.314902" lon="8.743196">
|
|
<ele>-20.071599</ele>
|
|
<time>2026-07-10T15:11:37.000Z</time>
|
|
</trkpt>
|
|
<trkpt lat="55.314937" lon="8.743202">
|
|
<ele>-20.079360</ele>
|
|
<time>2026-07-10T15:11:38.000Z</time>
|
|
</trkpt>
|
|
<trkpt lat="55.314975" lon="8.743209">
|
|
<ele>-20.087792</ele>
|
|
<time>2026-07-10T15:11:39.000Z</time>
|
|
</trkpt>
|
|
<trkpt lat="55.315015" lon="8.743216">
|
|
<ele>-20.096663</ele>
|
|
<time>2026-07-10T15:11:40.000Z</time>
|
|
</trkpt>
|
|
<trkpt lat="55.315061" lon="8.743222">
|
|
<ele>-20.106843</ele>
|
|
<time>2026-07-10T15:11:41.000Z</time>
|
|
</trkpt>
|
|
<trkpt lat="55.315107" lon="8.743228">
|
|
<ele>-20.117023</ele>
|
|
<time>2026-07-10T15:11:42.000Z</time>
|
|
</trkpt>
|
|
<trkpt lat="55.315154" lon="8.743236">
|
|
<ele>-20.127444</ele>
|
|
<time>2026-07-10T15:11:43.000Z</time>
|
|
</trkpt>
|
|
<trkpt lat="55.315202" lon="8.743247">
|
|
<ele>-20.138127</ele>
|
|
<time>2026-07-10T15:11:44.000Z</time>
|
|
</trkpt>
|
|
<trkpt lat="55.315247" lon="8.743259">
|
|
<ele>-20.148172</ele>
|
|
<time>2026-07-10T15:11:45.000Z</time>
|
|
</trkpt>
|
|
<trkpt lat="55.315292" lon="8.743269">
|
|
<ele>-20.158182</ele>
|
|
<time>2026-07-10T15:11:46.000Z</time>
|
|
</trkpt>
|
|
<trkpt lat="55.315341" lon="8.743278">
|
|
<ele>-20.169055</ele>
|
|
<time>2026-07-10T15:11:47.000Z</time>
|
|
</trkpt>
|
|
<trkpt lat="55.315389" lon="8.743288">
|
|
<ele>-20.179722</ele>
|
|
<time>2026-07-10T15:11:48.000Z</time>
|
|
</trkpt>
|
|
<trkpt lat="55.315435" lon="8.743298">
|
|
<ele>-20.189951</ele>
|
|
<time>2026-07-10T15:11:49.000Z</time>
|
|
</trkpt>
|
|
<trkpt lat="55.315479" lon="8.743308">
|
|
<ele>-20.199743</ele>
|
|
<time>2026-07-10T15:11:50.000Z</time>
|
|
</trkpt>
|
|
<trkpt lat="55.315519" lon="8.743319">
|
|
<ele>-20.208678</ele>
|
|
<time>2026-07-10T15:11:51.000Z</time>
|
|
</trkpt>
|
|
<trkpt lat="55.315559" lon="8.743328">
|
|
<ele>-20.217578</ele>
|
|
<time>2026-07-10T15:11:52.000Z</time>
|
|
</trkpt>
|
|
<trkpt lat="55.315597" lon="8.743333">
|
|
<ele>-20.225987</ele>
|
|
<time>2026-07-10T15:11:53.000Z</time>
|
|
</trkpt>
|
|
<trkpt lat="55.315634" lon="8.743338">
|
|
<ele>-20.234177</ele>
|
|
<time>2026-07-10T15:11:54.000Z</time>
|
|
</trkpt>
|
|
<trkpt lat="55.315670" lon="8.743340">
|
|
<ele>-20.242126</ele>
|
|
<time>2026-07-10T15:11:55.000Z</time>
|
|
</trkpt>
|
|
<trkpt lat="55.315705" lon="8.743343">
|
|
<ele>-20.249859</ele>
|
|
<time>2026-07-10T15:11:56.000Z</time>
|
|
</trkpt>
|
|
<trkpt lat="55.315735" lon="8.743345">
|
|
<ele>-20.256485</ele>
|
|
<time>2026-07-10T15:11:57.000Z</time>
|
|
</trkpt>
|
|
<trkpt lat="55.315763" lon="8.743346">
|
|
<ele>-20.262666</ele>
|
|
<time>2026-07-10T15:11:58.000Z</time>
|
|
</trkpt>
|
|
<trkpt lat="55.315793" lon="8.743351">
|
|
<ele>-20.269316</ele>
|
|
<time>2026-07-10T15:11:59.000Z</time>
|
|
</trkpt>
|
|
<trkpt lat="55.315825" lon="8.743361">
|
|
<ele>-20.276489</ele>
|
|
<time>2026-07-10T15:12:00.000Z</time>
|
|
</trkpt>
|
|
<trkpt lat="55.315863" lon="8.743377">
|
|
<ele>-20.285113</ele>
|
|
<time>2026-07-10T15:12:01.000Z</time>
|
|
</trkpt>
|
|
<trkpt lat="55.315896" lon="8.743389">
|
|
<ele>-20.292550</ele>
|
|
<time>2026-07-10T15:12:02.000Z</time>
|
|
</trkpt>
|
|
<trkpt lat="55.315923" lon="8.743398">
|
|
<ele>-20.298615</ele>
|
|
<time>2026-07-10T15:12:03.000Z</time>
|
|
</trkpt>
|
|
<trkpt lat="55.315946" lon="8.743409">
|
|
<ele>-20.303875</ele>
|
|
<time>2026-07-10T15:12:04.000Z</time>
|
|
</trkpt>
|
|
<trkpt lat="55.315976" lon="8.743418">
|
|
<ele>-20.310592</ele>
|
|
<time>2026-07-10T15:12:05.000Z</time>
|
|
</trkpt>
|
|
<trkpt lat="55.316005" lon="8.743421">
|
|
<ele>-20.317003</ele>
|
|
<time>2026-07-10T15:12:06.000Z</time>
|
|
</trkpt>
|
|
<trkpt lat="55.316031" lon="8.743427">
|
|
<ele>-20.322790</ele>
|
|
<time>2026-07-10T15:12:07.000Z</time>
|
|
</trkpt>
|
|
<trkpt lat="55.316056" lon="8.743438">
|
|
<ele>-20.328478</ele>
|
|
<time>2026-07-10T15:12:08.000Z</time>
|
|
</trkpt>
|
|
<trkpt lat="55.316085" lon="8.743460">
|
|
<ele>-20.335449</ele>
|
|
<time>2026-07-10T15:12:09.000Z</time>
|
|
</trkpt>
|
|
<trkpt lat="55.316109" lon="8.743495">
|
|
<ele>-20.342332</ele>
|
|
<time>2026-07-10T15:12:10.000Z</time>
|
|
</trkpt>
|
|
<trkpt lat="55.316124" lon="8.743556">
|
|
<ele>-20.350677</ele>
|
|
<time>2026-07-10T15:12:11.000Z</time>
|
|
</trkpt>
|
|
<trkpt lat="55.316143" lon="8.743623">
|
|
<ele>-20.366435</ele>
|
|
<time>2026-07-10T15:12:12.000Z</time>
|
|
</trkpt>
|
|
<trkpt lat="55.316165" lon="8.743686">
|
|
<ele>-20.384376</ele>
|
|
<time>2026-07-10T15:12:13.000Z</time>
|
|
</trkpt>
|
|
<trkpt lat="55.316179" lon="8.743739">
|
|
<ele>-20.398559</ele>
|
|
<time>2026-07-10T15:12:14.000Z</time>
|
|
</trkpt>
|
|
<trkpt lat="55.316196" lon="8.743790">
|
|
<ele>-20.412905</ele>
|
|
<time>2026-07-10T15:12:15.000Z</time>
|
|
</trkpt>
|
|
<trkpt lat="55.316208" lon="8.743843">
|
|
<ele>-20.426750</ele>
|
|
<time>2026-07-10T15:12:16.000Z</time>
|
|
</trkpt>
|
|
<trkpt lat="55.316226" lon="8.743910">
|
|
<ele>-20.444734</ele>
|
|
<time>2026-07-10T15:12:17.000Z</time>
|
|
</trkpt>
|
|
<trkpt lat="55.316251" lon="8.743989">
|
|
<ele>-20.466675</ele>
|
|
<time>2026-07-10T15:12:18.000Z</time>
|
|
</trkpt>
|
|
<trkpt lat="55.316281" lon="8.744075">
|
|
<ele>-20.491159</ele>
|
|
<time>2026-07-10T15:12:19.000Z</time>
|
|
</trkpt>
|
|
<trkpt lat="55.316311" lon="8.744162">
|
|
<ele>-20.515850</ele>
|
|
<time>2026-07-10T15:12:20.000Z</time>
|
|
</trkpt>
|
|
<trkpt lat="55.316339" lon="8.744249">
|
|
<ele>-20.540110</ele>
|
|
<time>2026-07-10T15:12:21.000Z</time>
|
|
</trkpt>
|
|
<trkpt lat="55.316369" lon="8.744334">
|
|
<ele>-20.564387</ele>
|
|
<time>2026-07-10T15:12:22.000Z</time>
|
|
</trkpt>
|
|
<trkpt lat="55.316399" lon="8.744417">
|
|
<ele>-20.588253</ele>
|
|
<time>2026-07-10T15:12:23.000Z</time>
|
|
</trkpt>
|
|
<trkpt lat="55.316430" lon="8.744503">
|
|
<ele>-20.612963</ele>
|
|
<time>2026-07-10T15:12:24.000Z</time>
|
|
</trkpt>
|
|
<trkpt lat="55.316460" lon="8.744589">
|
|
<ele>-20.637447</ele>
|
|
<time>2026-07-10T15:12:25.000Z</time>
|
|
</trkpt>
|
|
<trkpt lat="55.316491" lon="8.744676">
|
|
<ele>-20.662362</ele>
|
|
<time>2026-07-10T15:12:26.000Z</time>
|
|
</trkpt>
|
|
<trkpt lat="55.316523" lon="8.744765">
|
|
<ele>-20.687915</ele>
|
|
<time>2026-07-10T15:12:27.000Z</time>
|
|
</trkpt>
|
|
<trkpt lat="55.316557" lon="8.744847">
|
|
<ele>-20.712541</ele>
|
|
<time>2026-07-10T15:12:28.000Z</time>
|
|
</trkpt>
|
|
<trkpt lat="55.316590" lon="8.744935">
|
|
<ele>-20.738121</ele>
|
|
<time>2026-07-10T15:12:29.000Z</time>
|
|
</trkpt>
|
|
<trkpt lat="55.316621" lon="8.745024">
|
|
<ele>-20.763449</ele>
|
|
<time>2026-07-10T15:12:30.000Z</time>
|
|
</trkpt>
|
|
<trkpt lat="55.316650" lon="8.745112">
|
|
<ele>-20.788131</ele>
|
|
<time>2026-07-10T15:12:31.000Z</time>
|
|
</trkpt>
|
|
<trkpt lat="55.316678" lon="8.745194">
|
|
<ele>-20.811342</ele>
|
|
<time>2026-07-10T15:12:32.000Z</time>
|
|
</trkpt>
|
|
<trkpt lat="55.316709" lon="8.745275">
|
|
<ele>-20.835036</ele>
|
|
<time>2026-07-10T15:12:33.000Z</time>
|
|
</trkpt>
|
|
<trkpt lat="55.316739" lon="8.745358">
|
|
<ele>-20.858902</ele>
|
|
<time>2026-07-10T15:12:34.000Z</time>
|
|
</trkpt>
|
|
<trkpt lat="55.316770" lon="8.745447">
|
|
<ele>-20.884229</ele>
|
|
<time>2026-07-10T15:12:35.000Z</time>
|
|
</trkpt>
|
|
<trkpt lat="55.316799" lon="8.745538">
|
|
<ele>-20.909544</ele>
|
|
<time>2026-07-10T15:12:36.000Z</time>
|
|
</trkpt>
|
|
<trkpt lat="55.316826" lon="8.745634">
|
|
<ele>-20.935536</ele>
|
|
<time>2026-07-10T15:12:37.000Z</time>
|
|
</trkpt>
|
|
<trkpt lat="55.316852" lon="8.745727">
|
|
<ele>-20.960686</ele>
|
|
<time>2026-07-10T15:12:38.000Z</time>
|
|
</trkpt>
|
|
<trkpt lat="55.316880" lon="8.745817">
|
|
<ele>-20.985582</ele>
|
|
<time>2026-07-10T15:12:39.000Z</time>
|
|
</trkpt>
|
|
<trkpt lat="55.316911" lon="8.745908">
|
|
<ele>-21.011325</ele>
|
|
<time>2026-07-10T15:12:40.000Z</time>
|
|
</trkpt>
|
|
<trkpt lat="55.316941" lon="8.745999">
|
|
<ele>-21.036851</ele>
|
|
<time>2026-07-10T15:12:41.000Z</time>
|
|
</trkpt>
|
|
<trkpt lat="55.316973" lon="8.746093">
|
|
<ele>-21.063437</ele>
|
|
<time>2026-07-10T15:12:42.000Z</time>
|
|
</trkpt>
|
|
<trkpt lat="55.317006" lon="8.746186">
|
|
<ele>-21.090039</ele>
|
|
<time>2026-07-10T15:12:43.000Z</time>
|
|
</trkpt>
|
|
<trkpt lat="55.317035" lon="8.746276">
|
|
<ele>-21.115143</ele>
|
|
<time>2026-07-10T15:12:44.000Z</time>
|
|
</trkpt>
|
|
<trkpt lat="55.317061" lon="8.746355">
|
|
<ele>-21.142618</ele>
|
|
<time>2026-07-10T15:12:45.000Z</time>
|
|
</trkpt>
|
|
<trkpt lat="55.317097" lon="8.746469">
|
|
<ele>-21.184269</ele>
|
|
<time>2026-07-10T15:12:46.000Z</time>
|
|
</trkpt>
|
|
<trkpt lat="55.317130" lon="8.746561">
|
|
<ele>-21.219012</ele>
|
|
<time>2026-07-10T15:12:47.000Z</time>
|
|
</trkpt>
|
|
<trkpt lat="55.317171" lon="8.746641">
|
|
<ele>-21.253406</ele>
|
|
<time>2026-07-10T15:12:48.000Z</time>
|
|
</trkpt>
|
|
<trkpt lat="55.317219" lon="8.746694">
|
|
<ele>-21.285232</ele>
|
|
<time>2026-07-10T15:12:49.000Z</time>
|
|
</trkpt>
|
|
<trkpt lat="55.317273" lon="8.746716">
|
|
<ele>-21.316352</ele>
|
|
<time>2026-07-10T15:12:50.000Z</time>
|
|
</trkpt>
|
|
<trkpt lat="55.317331" lon="8.746726">
|
|
<ele>-21.349071</ele>
|
|
<time>2026-07-10T15:12:51.000Z</time>
|
|
</trkpt>
|
|
<trkpt lat="55.317390" lon="8.746740">
|
|
<ele>-21.382495</ele>
|
|
<time>2026-07-10T15:12:52.000Z</time>
|
|
</trkpt>
|
|
<trkpt lat="55.317444" lon="8.746756">
|
|
<ele>-21.413239</ele>
|
|
<time>2026-07-10T15:12:53.000Z</time>
|
|
</trkpt>
|
|
<trkpt lat="55.317495" lon="8.746770">
|
|
<ele>-21.442219</ele>
|
|
<time>2026-07-10T15:12:54.000Z</time>
|
|
</trkpt>
|
|
<trkpt lat="55.317536" lon="8.746785">
|
|
<ele>-21.465730</ele>
|
|
<time>2026-07-10T15:12:55.000Z</time>
|
|
</trkpt>
|
|
<trkpt lat="55.317562" lon="8.746813">
|
|
<ele>-21.482850</ele>
|
|
<time>2026-07-10T15:12:56.000Z</time>
|
|
</trkpt>
|
|
<trkpt lat="55.317571" lon="8.746863">
|
|
<ele>-21.499603</ele>
|
|
<time>2026-07-10T15:12:57.000Z</time>
|
|
</trkpt>
|
|
<trkpt lat="55.317560" lon="8.746925">
|
|
<ele>-21.520350</ele>
|
|
<time>2026-07-10T15:12:58.000Z</time>
|
|
</trkpt>
|
|
<trkpt lat="55.317541" lon="8.746993">
|
|
<ele>-21.544551</ele>
|
|
<time>2026-07-10T15:12:59.000Z</time>
|
|
</trkpt>
|
|
<trkpt lat="55.317523" lon="8.747062">
|
|
<ele>-21.568800</ele>
|
|
<time>2026-07-10T15:13:00.000Z</time>
|
|
</trkpt>
|
|
<trkpt lat="55.317505" lon="8.747127">
|
|
<ele>-21.591893</ele>
|
|
<time>2026-07-10T15:13:01.000Z</time>
|
|
</trkpt>
|
|
<trkpt lat="55.317488" lon="8.747193">
|
|
<ele>-21.615037</ele>
|
|
<time>2026-07-10T15:13:02.000Z</time>
|
|
</trkpt>
|
|
<trkpt lat="55.317469" lon="8.747258">
|
|
<ele>-21.638382</ele>
|
|
<time>2026-07-10T15:13:03.000Z</time>
|
|
</trkpt>
|
|
<trkpt lat="55.317451" lon="8.747320">
|
|
<ele>-21.660618</ele>
|
|
<time>2026-07-10T15:13:04.000Z</time>
|
|
</trkpt>
|
|
<trkpt lat="55.317435" lon="8.747385">
|
|
<ele>-21.683242</ele>
|
|
<time>2026-07-10T15:13:05.000Z</time>
|
|
</trkpt>
|
|
<trkpt lat="55.317417" lon="8.747446">
|
|
<ele>-21.705194</ele>
|
|
<time>2026-07-10T15:13:06.000Z</time>
|
|
</trkpt>
|
|
<trkpt lat="55.317405" lon="8.747504">
|
|
<ele>-21.724909</ele>
|
|
<time>2026-07-10T15:13:07.000Z</time>
|
|
</trkpt>
|
|
<trkpt lat="55.317403" lon="8.747555">
|
|
<ele>-21.741241</ele>
|
|
<time>2026-07-10T15:13:08.000Z</time>
|
|
</trkpt>
|
|
<trkpt lat="55.317409" lon="8.747603">
|
|
<ele>-21.756941</ele>
|
|
<time>2026-07-10T15:13:09.000Z</time>
|
|
</trkpt>
|
|
<trkpt lat="55.317427" lon="8.747647">
|
|
<ele>-21.774252</ele>
|
|
<time>2026-07-10T15:13:10.000Z</time>
|
|
</trkpt>
|
|
<trkpt lat="55.317453" lon="8.747686">
|
|
<ele>-21.793443</ele>
|
|
<time>2026-07-10T15:13:11.000Z</time>
|
|
</trkpt>
|
|
<trkpt lat="55.317487" lon="8.747721">
|
|
<ele>-21.815565</ele>
|
|
<time>2026-07-10T15:13:12.000Z</time>
|
|
</trkpt>
|
|
<trkpt lat="55.317524" lon="8.747756">
|
|
<ele>-21.839156</ele>
|
|
<time>2026-07-10T15:13:13.000Z</time>
|
|
</trkpt>
|
|
<trkpt lat="55.317566" lon="8.747790">
|
|
<ele>-21.865117</ele>
|
|
<time>2026-07-10T15:13:14.000Z</time>
|
|
</trkpt>
|
|
<trkpt lat="55.317607" lon="8.747828">
|
|
<ele>-21.891140</ele>
|
|
<time>2026-07-10T15:13:15.000Z</time>
|
|
</trkpt>
|
|
<trkpt lat="55.317650" lon="8.747870">
|
|
<ele>-21.918759</ele>
|
|
<time>2026-07-10T15:13:16.000Z</time>
|
|
</trkpt>
|
|
<trkpt lat="55.317693" lon="8.747913">
|
|
<ele>-21.946534</ele>
|
|
<time>2026-07-10T15:13:17.000Z</time>
|
|
</trkpt>
|
|
<trkpt lat="55.317737" lon="8.747955">
|
|
<ele>-21.974645</ele>
|
|
<time>2026-07-10T15:13:18.000Z</time>
|
|
</trkpt>
|
|
<trkpt lat="55.317781" lon="8.748001">
|
|
<ele>-22.003388</ele>
|
|
<time>2026-07-10T15:13:19.000Z</time>
|
|
</trkpt>
|
|
<trkpt lat="55.317827" lon="8.748046">
|
|
<ele>-22.032945</ele>
|
|
<time>2026-07-10T15:13:20.000Z</time>
|
|
</trkpt>
|
|
<trkpt lat="55.317873" lon="8.748091">
|
|
<ele>-22.062501</ele>
|
|
<time>2026-07-10T15:13:21.000Z</time>
|
|
</trkpt>
|
|
<trkpt lat="55.317919" lon="8.748134">
|
|
<ele>-22.091753</ele>
|
|
<time>2026-07-10T15:13:22.000Z</time>
|
|
</trkpt>
|
|
<trkpt lat="55.317969" lon="8.748180">
|
|
<ele>-22.123437</ele>
|
|
<time>2026-07-10T15:13:23.000Z</time>
|
|
</trkpt>
|
|
<trkpt lat="55.318017" lon="8.748224">
|
|
<ele>-22.147170</ele>
|
|
<time>2026-07-10T15:13:24.000Z</time>
|
|
</trkpt>
|
|
<trkpt lat="55.318064" lon="8.748273">
|
|
<ele>-22.169186</ele>
|
|
<time>2026-07-10T15:13:25.000Z</time>
|
|
</trkpt>
|
|
<trkpt lat="55.318112" lon="8.748321">
|
|
<ele>-22.191435</ele>
|
|
<time>2026-07-10T15:13:26.000Z</time>
|
|
</trkpt>
|
|
<trkpt lat="55.318158" lon="8.748369">
|
|
<ele>-22.212988</ele>
|
|
<time>2026-07-10T15:13:27.000Z</time>
|
|
</trkpt>
|
|
<trkpt lat="55.318208" lon="8.748420">
|
|
<ele>-22.236278</ele>
|
|
<time>2026-07-10T15:13:28.000Z</time>
|
|
</trkpt>
|
|
<trkpt lat="55.318259" lon="8.748473">
|
|
<ele>-22.260148</ele>
|
|
<time>2026-07-10T15:13:29.000Z</time>
|
|
</trkpt>
|
|
<trkpt lat="55.318312" lon="8.748524">
|
|
<ele>-22.284491</ele>
|
|
<time>2026-07-10T15:13:30.000Z</time>
|
|
</trkpt>
|
|
<trkpt lat="55.318365" lon="8.748573">
|
|
<ele>-22.308618</ele>
|
|
<time>2026-07-10T15:13:31.000Z</time>
|
|
</trkpt>
|
|
<trkpt lat="55.318415" lon="8.748621">
|
|
<ele>-22.331571</ele>
|
|
<time>2026-07-10T15:13:32.000Z</time>
|
|
</trkpt>
|
|
<trkpt lat="55.318463" lon="8.748669">
|
|
<ele>-22.353820</ele>
|
|
<time>2026-07-10T15:13:33.000Z</time>
|
|
</trkpt>
|
|
<trkpt lat="55.318509" lon="8.748717">
|
|
<ele>-22.375372</ele>
|
|
<time>2026-07-10T15:13:34.000Z</time>
|
|
</trkpt>
|
|
<trkpt lat="55.318559" lon="8.748764">
|
|
<ele>-22.398216</ele>
|
|
<time>2026-07-10T15:13:35.000Z</time>
|
|
</trkpt>
|
|
<trkpt lat="55.318608" lon="8.748813">
|
|
<ele>-22.420929</ele>
|
|
<time>2026-07-10T15:13:36.000Z</time>
|
|
</trkpt>
|
|
<trkpt lat="55.318656" lon="8.748861">
|
|
<ele>-22.443178</ele>
|
|
<time>2026-07-10T15:13:37.000Z</time>
|
|
</trkpt>
|
|
<trkpt lat="55.318708" lon="8.748908">
|
|
<ele>-22.466736</ele>
|
|
<time>2026-07-10T15:13:38.000Z</time>
|
|
</trkpt>
|
|
<trkpt lat="55.318757" lon="8.748956">
|
|
<ele>-22.489336</ele>
|
|
<time>2026-07-10T15:13:39.000Z</time>
|
|
</trkpt>
|
|
<trkpt lat="55.318807" lon="8.749004">
|
|
<ele>-22.512289</ele>
|
|
<time>2026-07-10T15:13:40.000Z</time>
|
|
</trkpt>
|
|
<trkpt lat="55.318856" lon="8.749050">
|
|
<ele>-22.534669</ele>
|
|
<time>2026-07-10T15:13:41.000Z</time>
|
|
</trkpt>
|
|
<trkpt lat="55.318907" lon="8.749096">
|
|
<ele>-22.557764</ele>
|
|
<time>2026-07-10T15:13:42.000Z</time>
|
|
</trkpt>
|
|
<trkpt lat="55.318960" lon="8.749144">
|
|
<ele>-22.581784</ele>
|
|
<time>2026-07-10T15:13:43.000Z</time>
|
|
</trkpt>
|
|
<trkpt lat="55.319011" lon="8.749191">
|
|
<ele>-22.604984</ele>
|
|
<time>2026-07-10T15:13:44.000Z</time>
|
|
</trkpt>
|
|
<trkpt lat="55.319063" lon="8.749241">
|
|
<ele>-22.628864</ele>
|
|
<time>2026-07-10T15:13:45.000Z</time>
|
|
</trkpt>
|
|
<trkpt lat="55.319110" lon="8.749290">
|
|
<ele>-22.650880</ele>
|
|
<time>2026-07-10T15:13:46.000Z</time>
|
|
</trkpt>
|
|
<trkpt lat="55.319159" lon="8.749336">
|
|
<ele>-22.673260</ele>
|
|
<time>2026-07-10T15:13:47.000Z</time>
|
|
</trkpt>
|
|
<trkpt lat="55.319208" lon="8.749380">
|
|
<ele>-22.695429</ele>
|
|
<time>2026-07-10T15:13:48.000Z</time>
|
|
</trkpt>
|
|
<trkpt lat="55.319257" lon="8.749421">
|
|
<ele>-22.717292</ele>
|
|
<time>2026-07-10T15:13:49.000Z</time>
|
|
</trkpt>
|
|
<trkpt lat="55.319307" lon="8.749467">
|
|
<ele>-22.740029</ele>
|
|
<time>2026-07-10T15:13:50.000Z</time>
|
|
</trkpt>
|
|
<trkpt lat="55.319357" lon="8.749514">
|
|
<ele>-22.762873</ele>
|
|
<time>2026-07-10T15:13:51.000Z</time>
|
|
</trkpt>
|
|
<trkpt lat="55.319408" lon="8.749563">
|
|
<ele>-22.786289</ele>
|
|
<time>2026-07-10T15:13:52.000Z</time>
|
|
</trkpt>
|
|
<trkpt lat="55.319459" lon="8.749612">
|
|
<ele>-22.809705</ele>
|
|
<time>2026-07-10T15:13:53.000Z</time>
|
|
</trkpt>
|
|
<trkpt lat="55.319505" lon="8.749660">
|
|
<ele>-22.831258</ele>
|
|
<time>2026-07-10T15:13:54.000Z</time>
|
|
</trkpt>
|
|
<trkpt lat="55.319556" lon="8.749707">
|
|
<ele>-22.854458</ele>
|
|
<time>2026-07-10T15:13:55.000Z</time>
|
|
</trkpt>
|
|
<trkpt lat="55.319604" lon="8.749750">
|
|
<ele>-22.857883</ele>
|
|
<time>2026-07-10T15:13:56.000Z</time>
|
|
</trkpt>
|
|
<trkpt lat="55.319649" lon="8.749791">
|
|
<ele>-22.860778</ele>
|
|
<time>2026-07-10T15:13:57.000Z</time>
|
|
</trkpt>
|
|
<trkpt lat="55.319694" lon="8.749834">
|
|
<ele>-22.863704</ele>
|
|
<time>2026-07-10T15:13:58.000Z</time>
|
|
</trkpt>
|
|
<trkpt lat="55.319738" lon="8.749877">
|
|
<ele>-22.866580</ele>
|
|
<time>2026-07-10T15:13:59.000Z</time>
|
|
</trkpt>
|
|
<trkpt lat="55.319782" lon="8.749917">
|
|
<ele>-22.869410</ele>
|
|
<time>2026-07-10T15:14:00.000Z</time>
|
|
</trkpt>
|
|
<trkpt lat="55.319822" lon="8.749954">
|
|
<ele>-22.871991</ele>
|
|
<time>2026-07-10T15:14:01.000Z</time>
|
|
</trkpt>
|
|
<trkpt lat="55.319862" lon="8.749991">
|
|
<ele>-22.874573</ele>
|
|
<time>2026-07-10T15:14:02.000Z</time>
|
|
</trkpt>
|
|
<trkpt lat="55.319898" lon="8.750022">
|
|
<ele>-22.876863</ele>
|
|
<time>2026-07-10T15:14:03.000Z</time>
|
|
</trkpt>
|
|
<trkpt lat="55.319934" lon="8.750045">
|
|
<ele>-22.879051</ele>
|
|
<time>2026-07-10T15:14:04.000Z</time>
|
|
</trkpt>
|
|
<trkpt lat="55.319969" lon="8.750061">
|
|
<ele>-22.881117</ele>
|
|
<time>2026-07-10T15:14:05.000Z</time>
|
|
</trkpt>
|
|
<trkpt lat="55.319996" lon="8.750071">
|
|
<ele>-22.882693</ele>
|
|
<time>2026-07-10T15:14:06.000Z</time>
|
|
</trkpt>
|
|
<trkpt lat="55.320027" lon="8.750079">
|
|
<ele>-22.884483</ele>
|
|
<time>2026-07-10T15:14:07.000Z</time>
|
|
</trkpt>
|
|
<trkpt lat="55.320058" lon="8.750090">
|
|
<ele>-22.886289</ele>
|
|
<time>2026-07-10T15:14:08.000Z</time>
|
|
</trkpt>
|
|
<trkpt lat="55.320087" lon="8.750101">
|
|
<ele>-22.887984</ele>
|
|
<time>2026-07-10T15:14:09.000Z</time>
|
|
</trkpt>
|
|
<trkpt lat="55.320115" lon="8.750120">
|
|
<ele>-22.889698</ele>
|
|
<time>2026-07-10T15:14:10.000Z</time>
|
|
</trkpt>
|
|
<trkpt lat="55.320145" lon="8.750144">
|
|
<ele>-22.891581</ele>
|
|
<time>2026-07-10T15:14:11.000Z</time>
|
|
</trkpt>
|
|
<trkpt lat="55.320172" lon="8.750172">
|
|
<ele>-22.893372</ele>
|
|
<time>2026-07-10T15:14:12.000Z</time>
|
|
</trkpt>
|
|
<trkpt lat="55.320202" lon="8.750208">
|
|
<ele>-22.895447</ele>
|
|
<time>2026-07-10T15:14:13.000Z</time>
|
|
</trkpt>
|
|
<trkpt lat="55.320232" lon="8.750253">
|
|
<ele>-22.897700</ele>
|
|
<time>2026-07-10T15:14:14.000Z</time>
|
|
</trkpt>
|
|
<trkpt lat="55.320264" lon="8.750300">
|
|
<ele>-22.900082</ele>
|
|
<time>2026-07-10T15:14:15.000Z</time>
|
|
</trkpt>
|
|
<trkpt lat="55.320298" lon="8.750349">
|
|
<ele>-22.902593</ele>
|
|
<time>2026-07-10T15:14:16.000Z</time>
|
|
</trkpt>
|
|
<trkpt lat="55.320332" lon="8.750398">
|
|
<ele>-22.905105</ele>
|
|
<time>2026-07-10T15:14:17.000Z</time>
|
|
</trkpt>
|
|
<trkpt lat="55.320367" lon="8.750451">
|
|
<ele>-22.907744</ele>
|
|
<time>2026-07-10T15:14:18.000Z</time>
|
|
</trkpt>
|
|
<trkpt lat="55.320402" lon="8.750507">
|
|
<ele>-22.910447</ele>
|
|
<time>2026-07-10T15:14:19.000Z</time>
|
|
</trkpt>
|
|
<trkpt lat="55.320440" lon="8.750566">
|
|
<ele>-22.913343</ele>
|
|
<time>2026-07-10T15:14:20.000Z</time>
|
|
</trkpt>
|
|
<trkpt lat="55.320474" lon="8.750622">
|
|
<ele>-22.916005</ele>
|
|
<time>2026-07-10T15:14:21.000Z</time>
|
|
</trkpt>
|
|
<trkpt lat="55.320510" lon="8.750679">
|
|
<ele>-22.918773</ele>
|
|
<time>2026-07-10T15:14:22.000Z</time>
|
|
</trkpt>
|
|
<trkpt lat="55.320548" lon="8.750735">
|
|
<ele>-22.921605</ele>
|
|
<time>2026-07-10T15:14:23.000Z</time>
|
|
</trkpt>
|
|
<trkpt lat="55.320583" lon="8.750792">
|
|
<ele>-22.924331</ele>
|
|
<time>2026-07-10T15:14:24.000Z</time>
|
|
</trkpt>
|
|
<trkpt lat="55.320619" lon="8.750849">
|
|
<ele>-22.927099</ele>
|
|
<time>2026-07-10T15:14:25.000Z</time>
|
|
</trkpt>
|
|
<trkpt lat="55.320651" lon="8.750900">
|
|
<ele>-22.929566</ele>
|
|
<time>2026-07-10T15:14:26.000Z</time>
|
|
</trkpt>
|
|
<trkpt lat="55.320696" lon="8.750974">
|
|
<ele>-22.933086</ele>
|
|
<time>2026-07-10T15:14:27.000Z</time>
|
|
</trkpt>
|
|
<trkpt lat="55.320735" lon="8.751039">
|
|
<ele>-22.936156</ele>
|
|
<time>2026-07-10T15:14:28.000Z</time>
|
|
</trkpt>
|
|
<trkpt lat="55.320773" lon="8.751103">
|
|
<ele>-22.939163</ele>
|
|
<time>2026-07-10T15:14:29.000Z</time>
|
|
</trkpt>
|
|
<trkpt lat="55.320811" lon="8.751165">
|
|
<ele>-22.942124</ele>
|
|
<time>2026-07-10T15:14:30.000Z</time>
|
|
</trkpt>
|
|
<trkpt lat="55.320856" lon="8.751234">
|
|
<ele>-22.945535</ele>
|
|
<time>2026-07-10T15:14:31.000Z</time>
|
|
</trkpt>
|
|
<trkpt lat="55.320900" lon="8.751302">
|
|
<ele>-22.948882</ele>
|
|
<time>2026-07-10T15:14:32.000Z</time>
|
|
</trkpt>
|
|
<trkpt lat="55.320942" lon="8.751369">
|
|
<ele>-22.952122</ele>
|
|
<time>2026-07-10T15:14:33.000Z</time>
|
|
</trkpt>
|
|
<trkpt lat="55.320985" lon="8.751436">
|
|
<ele>-22.955404</ele>
|
|
<time>2026-07-10T15:14:34.000Z</time>
|
|
</trkpt>
|
|
<trkpt lat="55.321029" lon="8.751501">
|
|
<ele>-22.962362</ele>
|
|
<time>2026-07-10T15:14:35.000Z</time>
|
|
</trkpt>
|
|
<trkpt lat="55.321067" lon="8.751562">
|
|
<ele>-22.975249</ele>
|
|
<time>2026-07-10T15:14:36.000Z</time>
|
|
</trkpt>
|
|
<trkpt lat="55.321112" lon="8.751633">
|
|
<ele>-22.990392</ele>
|
|
<time>2026-07-10T15:14:37.000Z</time>
|
|
</trkpt>
|
|
<trkpt lat="55.321161" lon="8.751692">
|
|
<ele>-23.005265</ele>
|
|
<time>2026-07-10T15:14:38.000Z</time>
|
|
</trkpt>
|
|
<trkpt lat="55.321209" lon="8.751747">
|
|
<ele>-23.019613</ele>
|
|
<time>2026-07-10T15:14:39.000Z</time>
|
|
</trkpt>
|
|
<trkpt lat="55.321251" lon="8.751805">
|
|
<ele>-23.032988</ele>
|
|
<time>2026-07-10T15:14:40.000Z</time>
|
|
</trkpt>
|
|
<trkpt lat="55.321298" lon="8.751874">
|
|
<ele>-23.048323</ele>
|
|
<time>2026-07-10T15:14:41.000Z</time>
|
|
</trkpt>
|
|
<trkpt lat="55.321342" lon="8.751939">
|
|
<ele>-23.062716</ele>
|
|
<time>2026-07-10T15:14:42.000Z</time>
|
|
</trkpt>
|
|
<trkpt lat="55.321384" lon="8.752002">
|
|
<ele>-23.076543</ele>
|
|
<time>2026-07-10T15:14:43.000Z</time>
|
|
</trkpt>
|
|
<trkpt lat="55.321427" lon="8.752060">
|
|
<ele>-23.090115</ele>
|
|
<time>2026-07-10T15:14:44.000Z</time>
|
|
</trkpt>
|
|
<trkpt lat="55.321472" lon="8.752118">
|
|
<ele>-23.104089</ele>
|
|
<time>2026-07-10T15:14:45.000Z</time>
|
|
</trkpt>
|
|
<trkpt lat="55.321511" lon="8.752178">
|
|
<ele>-23.117067</ele>
|
|
<time>2026-07-10T15:14:46.000Z</time>
|
|
</trkpt>
|
|
<trkpt lat="55.321548" lon="8.752239">
|
|
<ele>-23.129771</ele>
|
|
<time>2026-07-10T15:14:47.000Z</time>
|
|
</trkpt>
|
|
<trkpt lat="55.321593" lon="8.752311">
|
|
<ele>-23.145009</ele>
|
|
<time>2026-07-10T15:14:48.000Z</time>
|
|
</trkpt>
|
|
<trkpt lat="55.321632" lon="8.752377">
|
|
<ele>-23.158566</ele>
|
|
<time>2026-07-10T15:14:49.000Z</time>
|
|
</trkpt>
|
|
<trkpt lat="55.321674" lon="8.752442">
|
|
<ele>-23.172579</ele>
|
|
<time>2026-07-10T15:14:50.000Z</time>
|
|
</trkpt>
|
|
<trkpt lat="55.321715" lon="8.752504">
|
|
<ele>-23.186123</ele>
|
|
<time>2026-07-10T15:14:51.000Z</time>
|
|
</trkpt>
|
|
<trkpt lat="55.321759" lon="8.752563">
|
|
<ele>-23.199981</ele>
|
|
<time>2026-07-10T15:14:52.000Z</time>
|
|
</trkpt>
|
|
<trkpt lat="55.321805" lon="8.752623">
|
|
<ele>-23.214325</ele>
|
|
<time>2026-07-10T15:14:53.000Z</time>
|
|
</trkpt>
|
|
<trkpt lat="55.321850" lon="8.752685">
|
|
<ele>-23.228643</ele>
|
|
<time>2026-07-10T15:14:54.000Z</time>
|
|
</trkpt>
|
|
<trkpt lat="55.321892" lon="8.752743">
|
|
<ele>-23.242018</ele>
|
|
<time>2026-07-10T15:14:55.000Z</time>
|
|
</trkpt>
|
|
<trkpt lat="55.321936" lon="8.752799">
|
|
<ele>-23.255621</ele>
|
|
<time>2026-07-10T15:14:56.000Z</time>
|
|
</trkpt>
|
|
<trkpt lat="55.321984" lon="8.752861">
|
|
<ele>-23.270537</ele>
|
|
<time>2026-07-10T15:14:57.000Z</time>
|
|
</trkpt>
|
|
<trkpt lat="55.322029" lon="8.752921">
|
|
<ele>-23.284681</ele>
|
|
<time>2026-07-10T15:14:58.000Z</time>
|
|
</trkpt>
|
|
<trkpt lat="55.322071" lon="8.752983">
|
|
<ele>-23.298415</ele>
|
|
<time>2026-07-10T15:14:59.000Z</time>
|
|
</trkpt>
|
|
<trkpt lat="55.322113" lon="8.753042">
|
|
<ele>-23.311879</ele>
|
|
<time>2026-07-10T15:15:00.000Z</time>
|
|
</trkpt>
|
|
<trkpt lat="55.322156" lon="8.753095">
|
|
<ele>-23.325030</ele>
|
|
<time>2026-07-10T15:15:01.000Z</time>
|
|
</trkpt>
|
|
<trkpt lat="55.322199" lon="8.753144">
|
|
<ele>-23.337862</ele>
|
|
<time>2026-07-10T15:15:02.000Z</time>
|
|
</trkpt>
|
|
<trkpt lat="55.322237" lon="8.753194">
|
|
<ele>-23.349749</ele>
|
|
<time>2026-07-10T15:15:03.000Z</time>
|
|
</trkpt>
|
|
<trkpt lat="55.322275" lon="8.753245">
|
|
<ele>-23.361721</ele>
|
|
<time>2026-07-10T15:15:04.000Z</time>
|
|
</trkpt>
|
|
<trkpt lat="55.322312" lon="8.753297">
|
|
<ele>-23.373584</ele>
|
|
<time>2026-07-10T15:15:05.000Z</time>
|
|
</trkpt>
|
|
<trkpt lat="55.322345" lon="8.753353">
|
|
<ele>-23.385070</ele>
|
|
<time>2026-07-10T15:15:06.000Z</time>
|
|
</trkpt>
|
|
<trkpt lat="55.322369" lon="8.753414">
|
|
<ele>-23.395636</ele>
|
|
<time>2026-07-10T15:15:07.000Z</time>
|
|
</trkpt>
|
|
<trkpt lat="55.322382" lon="8.753481">
|
|
<ele>-23.405722</ele>
|
|
<time>2026-07-10T15:15:08.000Z</time>
|
|
</trkpt>
|
|
<trkpt lat="55.322388" lon="8.753554">
|
|
<ele>-23.404332</ele>
|
|
<time>2026-07-10T15:15:09.000Z</time>
|
|
</trkpt>
|
|
<trkpt lat="55.322388" lon="8.753631">
|
|
<ele>-23.399461</ele>
|
|
<time>2026-07-10T15:15:10.000Z</time>
|
|
</trkpt>
|
|
<trkpt lat="55.322387" lon="8.753711">
|
|
<ele>-23.394399</ele>
|
|
<time>2026-07-10T15:15:11.000Z</time>
|
|
</trkpt>
|
|
<trkpt lat="55.322382" lon="8.753792">
|
|
<ele>-23.389245</ele>
|
|
<time>2026-07-10T15:15:12.000Z</time>
|
|
</trkpt>
|
|
<trkpt lat="55.322375" lon="8.753873">
|
|
<ele>-23.384061</ele>
|
|
<time>2026-07-10T15:15:13.000Z</time>
|
|
</trkpt>
|
|
<trkpt lat="55.322370" lon="8.753953">
|
|
<ele>-23.378970</ele>
|
|
<time>2026-07-10T15:15:14.000Z</time>
|
|
</trkpt>
|
|
<trkpt lat="55.322363" lon="8.754032">
|
|
<ele>-23.373912</ele>
|
|
<time>2026-07-10T15:15:15.000Z</time>
|
|
</trkpt>
|
|
<trkpt lat="55.322355" lon="8.754115">
|
|
<ele>-23.368586</ele>
|
|
<time>2026-07-10T15:15:16.000Z</time>
|
|
</trkpt>
|
|
<trkpt lat="55.322346" lon="8.754203">
|
|
<ele>-23.362930</ele>
|
|
<time>2026-07-10T15:15:17.000Z</time>
|
|
</trkpt>
|
|
<trkpt lat="55.322335" lon="8.754288">
|
|
<ele>-23.357415</ele>
|
|
<time>2026-07-10T15:15:18.000Z</time>
|
|
</trkpt>
|
|
<trkpt lat="55.322325" lon="8.754374">
|
|
<ele>-23.351862</ele>
|
|
<time>2026-07-10T15:15:19.000Z</time>
|
|
</trkpt>
|
|
<trkpt lat="55.322317" lon="8.754459">
|
|
<ele>-23.346412</ele>
|
|
<time>2026-07-10T15:15:20.000Z</time>
|
|
</trkpt>
|
|
<trkpt lat="55.322309" lon="8.754544">
|
|
<ele>-23.340962</ele>
|
|
<time>2026-07-10T15:15:21.000Z</time>
|
|
</trkpt>
|
|
<trkpt lat="55.322301" lon="8.754628">
|
|
<ele>-23.335574</ele>
|
|
<time>2026-07-10T15:15:22.000Z</time>
|
|
</trkpt>
|
|
<trkpt lat="55.322290" lon="8.754710">
|
|
<ele>-23.330244</ele>
|
|
<time>2026-07-10T15:15:23.000Z</time>
|
|
</trkpt>
|
|
<trkpt lat="55.322282" lon="8.754789">
|
|
<ele>-23.325168</ele>
|
|
<time>2026-07-10T15:15:24.000Z</time>
|
|
</trkpt>
|
|
<trkpt lat="55.322271" lon="8.754865">
|
|
<ele>-23.320207</ele>
|
|
<time>2026-07-10T15:15:25.000Z</time>
|
|
</trkpt>
|
|
<trkpt lat="55.322264" lon="8.754944">
|
|
<ele>-23.315149</ele>
|
|
<time>2026-07-10T15:15:26.000Z</time>
|
|
</trkpt>
|
|
<trkpt lat="55.322256" lon="8.755028">
|
|
<ele>-23.309761</ele>
|
|
<time>2026-07-10T15:15:27.000Z</time>
|
|
</trkpt>
|
|
<trkpt lat="55.322246" lon="8.755106">
|
|
<ele>-23.304702</ele>
|
|
<time>2026-07-10T15:15:28.000Z</time>
|
|
</trkpt>
|
|
<trkpt lat="55.322235" lon="8.755177">
|
|
<ele>-23.300047</ele>
|
|
<time>2026-07-10T15:15:29.000Z</time>
|
|
</trkpt>
|
|
<trkpt lat="55.322236" lon="8.755241">
|
|
<ele>-23.295997</ele>
|
|
<time>2026-07-10T15:15:30.000Z</time>
|
|
</trkpt>
|
|
<trkpt lat="55.322240" lon="8.755296">
|
|
<ele>-23.292489</ele>
|
|
<time>2026-07-10T15:15:31.000Z</time>
|
|
</trkpt>
|
|
<trkpt lat="55.322248" lon="8.755350">
|
|
<ele>-23.288959</ele>
|
|
<time>2026-07-10T15:15:32.000Z</time>
|
|
</trkpt>
|
|
<trkpt lat="55.322267" lon="8.755395">
|
|
<ele>-23.285414</ele>
|
|
<time>2026-07-10T15:15:33.000Z</time>
|
|
</trkpt>
|
|
<trkpt lat="55.322286" lon="8.755438">
|
|
<ele>-23.281970</ele>
|
|
<time>2026-07-10T15:15:34.000Z</time>
|
|
</trkpt>
|
|
<trkpt lat="55.322306" lon="8.755483">
|
|
<ele>-23.278357</ele>
|
|
<time>2026-07-10T15:15:35.000Z</time>
|
|
</trkpt>
|
|
<trkpt lat="55.322328" lon="8.755531">
|
|
<ele>-23.274458</ele>
|
|
<time>2026-07-10T15:15:36.000Z</time>
|
|
</trkpt>
|
|
<trkpt lat="55.322344" lon="8.755588">
|
|
<ele>-23.270437</ele>
|
|
<time>2026-07-10T15:15:37.000Z</time>
|
|
</trkpt>
|
|
<trkpt lat="55.322349" lon="8.755648">
|
|
<ele>-23.266601</ele>
|
|
<time>2026-07-10T15:15:38.000Z</time>
|
|
</trkpt>
|
|
<trkpt lat="55.322341" lon="8.755710">
|
|
<ele>-23.262579</ele>
|
|
<time>2026-07-10T15:15:39.000Z</time>
|
|
</trkpt>
|
|
<trkpt lat="55.322322" lon="8.755782">
|
|
<ele>-23.257558</ele>
|
|
<time>2026-07-10T15:15:40.000Z</time>
|
|
</trkpt>
|
|
<trkpt lat="55.322300" lon="8.755857">
|
|
<ele>-23.252220</ele>
|
|
<time>2026-07-10T15:15:41.000Z</time>
|
|
</trkpt>
|
|
<trkpt lat="55.322276" lon="8.755935">
|
|
<ele>-23.246610</ele>
|
|
<time>2026-07-10T15:15:42.000Z</time>
|
|
</trkpt>
|
|
<trkpt lat="55.322255" lon="8.756011">
|
|
<ele>-23.241265</ele>
|
|
<time>2026-07-10T15:15:43.000Z</time>
|
|
</trkpt>
|
|
<trkpt lat="55.322234" lon="8.756088">
|
|
<ele>-23.235863</ele>
|
|
<time>2026-07-10T15:15:44.000Z</time>
|
|
</trkpt>
|
|
<trkpt lat="55.322214" lon="8.756166">
|
|
<ele>-23.230451</ele>
|
|
<time>2026-07-10T15:15:45.000Z</time>
|
|
</trkpt>
|
|
<trkpt lat="55.322192" lon="8.756245">
|
|
<ele>-23.224886</ele>
|
|
<time>2026-07-10T15:15:46.000Z</time>
|
|
</trkpt>
|
|
<trkpt lat="55.322173" lon="8.756323">
|
|
<ele>-23.219519</ele>
|
|
<time>2026-07-10T15:15:47.000Z</time>
|
|
</trkpt>
|
|
<trkpt lat="55.322154" lon="8.756400">
|
|
<ele>-23.214209</ele>
|
|
<time>2026-07-10T15:15:48.000Z</time>
|
|
</trkpt>
|
|
<trkpt lat="55.322134" lon="8.756476">
|
|
<ele>-23.208912</ele>
|
|
<time>2026-07-10T15:15:49.000Z</time>
|
|
</trkpt>
|
|
<trkpt lat="55.322111" lon="8.756552">
|
|
<ele>-23.197999</ele>
|
|
<time>2026-07-10T15:15:50.000Z</time>
|
|
</trkpt>
|
|
<trkpt lat="55.322089" lon="8.756632">
|
|
<ele>-23.185600</ele>
|
|
<time>2026-07-10T15:15:51.000Z</time>
|
|
</trkpt>
|
|
<trkpt lat="55.322070" lon="8.756714">
|
|
<ele>-23.173244</ele>
|
|
<time>2026-07-10T15:15:52.000Z</time>
|
|
</trkpt>
|
|
<trkpt lat="55.322051" lon="8.756793">
|
|
<ele>-23.161276</ele>
|
|
<time>2026-07-10T15:15:53.000Z</time>
|
|
</trkpt>
|
|
<trkpt lat="55.322034" lon="8.756860">
|
|
<ele>-23.151039</ele>
|
|
<time>2026-07-10T15:15:54.000Z</time>
|
|
</trkpt>
|
|
<trkpt lat="55.322018" lon="8.756924">
|
|
<ele>-23.141284</ele>
|
|
<time>2026-07-10T15:15:55.000Z</time>
|
|
</trkpt>
|
|
<trkpt lat="55.322012" lon="8.756976">
|
|
<ele>-23.133880</ele>
|
|
<time>2026-07-10T15:15:56.000Z</time>
|
|
</trkpt>
|
|
<trkpt lat="55.322021" lon="8.757024">
|
|
<ele>-23.126828</ele>
|
|
<time>2026-07-10T15:15:57.000Z</time>
|
|
</trkpt>
|
|
<trkpt lat="55.322038" lon="8.757065">
|
|
<ele>-23.119748</ele>
|
|
<time>2026-07-10T15:15:58.000Z</time>
|
|
</trkpt>
|
|
<trkpt lat="55.322068" lon="8.757097">
|
|
<ele>-23.111141</ele>
|
|
<time>2026-07-10T15:15:59.000Z</time>
|
|
</trkpt>
|
|
<trkpt lat="55.322100" lon="8.757128">
|
|
<ele>-23.102180</ele>
|
|
<time>2026-07-10T15:16:00.000Z</time>
|
|
</trkpt>
|
|
<trkpt lat="55.322133" lon="8.757159">
|
|
<ele>-23.093003</ele>
|
|
<time>2026-07-10T15:16:01.000Z</time>
|
|
</trkpt>
|
|
<trkpt lat="55.322165" lon="8.757190">
|
|
<ele>-23.084041</ele>
|
|
<time>2026-07-10T15:16:02.000Z</time>
|
|
</trkpt>
|
|
<trkpt lat="55.322198" lon="8.757221">
|
|
<ele>-23.074864</ele>
|
|
<time>2026-07-10T15:16:03.000Z</time>
|
|
</trkpt>
|
|
<trkpt lat="55.322226" lon="8.757256">
|
|
<ele>-23.066437</ele>
|
|
<time>2026-07-10T15:16:04.000Z</time>
|
|
</trkpt>
|
|
<trkpt lat="55.322246" lon="8.757298">
|
|
<ele>-23.058794</ele>
|
|
<time>2026-07-10T15:16:05.000Z</time>
|
|
</trkpt>
|
|
<trkpt lat="55.322254" lon="8.757351">
|
|
<ele>-23.051143</ele>
|
|
<time>2026-07-10T15:16:06.000Z</time>
|
|
</trkpt>
|
|
<trkpt lat="55.322251" lon="8.757410">
|
|
<ele>-23.042877</ele>
|
|
<time>2026-07-10T15:16:07.000Z</time>
|
|
</trkpt>
|
|
<trkpt lat="55.322239" lon="8.757473">
|
|
<ele>-23.033606</ele>
|
|
<time>2026-07-10T15:16:08.000Z</time>
|
|
</trkpt>
|
|
<trkpt lat="55.322226" lon="8.757535">
|
|
<ele>-23.024386</ele>
|
|
<time>2026-07-10T15:16:09.000Z</time>
|
|
</trkpt>
|
|
<trkpt lat="55.322207" lon="8.757600">
|
|
<ele>-23.014188</ele>
|
|
<time>2026-07-10T15:16:10.000Z</time>
|
|
</trkpt>
|
|
<trkpt lat="55.322189" lon="8.757668">
|
|
<ele>-23.003722</ele>
|
|
<time>2026-07-10T15:16:11.000Z</time>
|
|
</trkpt>
|
|
<trkpt lat="55.322173" lon="8.757736">
|
|
<ele>-22.993454</ele>
|
|
<time>2026-07-10T15:16:12.000Z</time>
|
|
</trkpt>
|
|
<trkpt lat="55.322156" lon="8.757805">
|
|
<ele>-22.982962</ele>
|
|
<time>2026-07-10T15:16:13.000Z</time>
|
|
</trkpt>
|
|
<trkpt lat="55.322143" lon="8.757875">
|
|
<ele>-22.972686</ele>
|
|
<time>2026-07-10T15:16:14.000Z</time>
|
|
</trkpt>
|
|
<trkpt lat="55.322128" lon="8.757945">
|
|
<ele>-22.962248</ele>
|
|
<time>2026-07-10T15:16:15.000Z</time>
|
|
</trkpt>
|
|
<trkpt lat="55.322113" lon="8.758015">
|
|
<ele>-22.951811</ele>
|
|
<time>2026-07-10T15:16:16.000Z</time>
|
|
</trkpt>
|
|
<trkpt lat="55.322097" lon="8.758085">
|
|
<ele>-22.941284</ele>
|
|
<time>2026-07-10T15:16:17.000Z</time>
|
|
</trkpt>
|
|
<trkpt lat="55.322081" lon="8.758153">
|
|
<ele>-22.931015</ele>
|
|
<time>2026-07-10T15:16:18.000Z</time>
|
|
</trkpt>
|
|
<trkpt lat="55.322062" lon="8.758224">
|
|
<ele>-22.920066</ele>
|
|
<time>2026-07-10T15:16:19.000Z</time>
|
|
</trkpt>
|
|
<trkpt lat="55.322043" lon="8.758296">
|
|
<ele>-22.908991</ele>
|
|
<time>2026-07-10T15:16:20.000Z</time>
|
|
</trkpt>
|
|
<trkpt lat="55.322025" lon="8.758373">
|
|
<ele>-22.897375</ele>
|
|
<time>2026-07-10T15:16:21.000Z</time>
|
|
</trkpt>
|
|
<trkpt lat="55.322009" lon="8.758448">
|
|
<ele>-22.886197</ele>
|
|
<time>2026-07-10T15:16:22.000Z</time>
|
|
</trkpt>
|
|
<trkpt lat="55.321993" lon="8.758523">
|
|
<ele>-22.875020</ele>
|
|
<time>2026-07-10T15:16:23.000Z</time>
|
|
</trkpt>
|
|
<trkpt lat="55.321974" lon="8.758603">
|
|
<ele>-22.862923</ele>
|
|
<time>2026-07-10T15:16:24.000Z</time>
|
|
</trkpt>
|
|
<trkpt lat="55.321956" lon="8.758680">
|
|
<ele>-22.851307</ele>
|
|
<time>2026-07-10T15:16:25.000Z</time>
|
|
</trkpt>
|
|
<trkpt lat="55.321940" lon="8.758756">
|
|
<ele>-22.839998</ele>
|
|
<time>2026-07-10T15:16:26.000Z</time>
|
|
</trkpt>
|
|
<trkpt lat="55.321922" lon="8.758830">
|
|
<ele>-22.828768</ele>
|
|
<time>2026-07-10T15:16:27.000Z</time>
|
|
</trkpt>
|
|
<trkpt lat="55.321906" lon="8.758900">
|
|
<ele>-22.818241</ele>
|
|
<time>2026-07-10T15:16:28.000Z</time>
|
|
</trkpt>
|
|
<trkpt lat="55.321890" lon="8.758971">
|
|
<ele>-22.807585</ele>
|
|
<time>2026-07-10T15:16:29.000Z</time>
|
|
</trkpt>
|
|
<trkpt lat="55.321872" lon="8.759045">
|
|
<ele>-22.796354</ele>
|
|
<time>2026-07-10T15:16:30.000Z</time>
|
|
</trkpt>
|
|
<trkpt lat="55.321857" lon="8.759122">
|
|
<ele>-22.784997</ele>
|
|
<time>2026-07-10T15:16:31.000Z</time>
|
|
</trkpt>
|
|
<trkpt lat="55.321843" lon="8.759204">
|
|
<ele>-22.773050</ele>
|
|
<time>2026-07-10T15:16:32.000Z</time>
|
|
</trkpt>
|
|
<trkpt lat="55.321831" lon="8.759287">
|
|
<ele>-22.753765</ele>
|
|
<time>2026-07-10T15:16:33.000Z</time>
|
|
</trkpt>
|
|
<trkpt lat="55.321820" lon="8.759374">
|
|
<ele>-22.725502</ele>
|
|
<time>2026-07-10T15:16:34.000Z</time>
|
|
</trkpt>
|
|
<trkpt lat="55.321810" lon="8.759462">
|
|
<ele>-22.697044</ele>
|
|
<time>2026-07-10T15:16:35.000Z</time>
|
|
</trkpt>
|
|
<trkpt lat="55.321803" lon="8.759550">
|
|
<ele>-22.668865</ele>
|
|
<time>2026-07-10T15:16:36.000Z</time>
|
|
</trkpt>
|
|
<trkpt lat="55.321799" lon="8.759634">
|
|
<ele>-22.642133</ele>
|
|
<time>2026-07-10T15:16:37.000Z</time>
|
|
</trkpt>
|
|
<trkpt lat="55.321794" lon="8.759720">
|
|
<ele>-22.614718</ele>
|
|
<time>2026-07-10T15:16:38.000Z</time>
|
|
</trkpt>
|
|
<trkpt lat="55.321787" lon="8.759799">
|
|
<ele>-22.589363</ele>
|
|
<time>2026-07-10T15:16:39.000Z</time>
|
|
</trkpt>
|
|
<trkpt lat="55.321779" lon="8.759873">
|
|
<ele>-22.565476</ele>
|
|
<time>2026-07-10T15:16:40.000Z</time>
|
|
</trkpt>
|
|
<trkpt lat="55.321774" lon="8.759942">
|
|
<ele>-22.543418</ele>
|
|
<time>2026-07-10T15:16:41.000Z</time>
|
|
</trkpt>
|
|
<trkpt lat="55.321771" lon="8.760008">
|
|
<ele>-22.522421</ele>
|
|
<time>2026-07-10T15:16:42.000Z</time>
|
|
</trkpt>
|
|
<trkpt lat="55.321765" lon="8.760070">
|
|
<ele>-22.502476</ele>
|
|
<time>2026-07-10T15:16:43.000Z</time>
|
|
</trkpt>
|
|
<trkpt lat="55.321760" lon="8.760123">
|
|
<ele>-22.485439</ele>
|
|
<time>2026-07-10T15:16:44.000Z</time>
|
|
</trkpt>
|
|
<trkpt lat="55.321753" lon="8.760167">
|
|
<ele>-22.470950</ele>
|
|
<time>2026-07-10T15:16:45.000Z</time>
|
|
</trkpt>
|
|
<trkpt lat="55.321765" lon="8.760227">
|
|
<ele>-22.450781</ele>
|
|
<time>2026-07-10T15:16:59.000Z</time>
|
|
</trkpt>
|
|
<trkpt lat="55.321816" lon="8.760225">
|
|
<ele>-22.422348</ele>
|
|
<time>2026-07-10T15:17:00.000Z</time>
|
|
</trkpt>
|
|
<trkpt lat="55.321831" lon="8.760200">
|
|
<ele>-22.410826</ele>
|
|
<time>2026-07-10T15:17:01.000Z</time>
|
|
</trkpt>
|
|
<trkpt lat="55.321848" lon="8.760172">
|
|
<ele>-22.397841</ele>
|
|
<time>2026-07-10T15:17:02.000Z</time>
|
|
</trkpt>
|
|
<trkpt lat="55.321865" lon="8.760141">
|
|
<ele>-22.384187</ele>
|
|
<time>2026-07-10T15:17:03.000Z</time>
|
|
</trkpt>
|
|
<trkpt lat="55.321881" lon="8.760109">
|
|
<ele>-22.370677</ele>
|
|
<time>2026-07-10T15:17:04.000Z</time>
|
|
</trkpt>
|
|
<trkpt lat="55.321895" lon="8.760084">
|
|
<ele>-22.359553</ele>
|
|
<time>2026-07-10T15:17:05.000Z</time>
|
|
</trkpt>
|
|
<trkpt lat="55.321905" lon="8.760078">
|
|
<ele>-22.353663</ele>
|
|
<time>2026-07-10T15:17:06.000Z</time>
|
|
</trkpt>
|
|
<trkpt lat="55.321913" lon="8.760092">
|
|
<ele>-22.347371</ele>
|
|
<time>2026-07-10T15:17:07.000Z</time>
|
|
</trkpt>
|
|
<trkpt lat="55.321918" lon="8.760119">
|
|
<ele>-22.338367</ele>
|
|
<time>2026-07-10T15:17:08.000Z</time>
|
|
</trkpt>
|
|
<trkpt lat="55.321918" lon="8.760149">
|
|
<ele>-22.328853</ele>
|
|
<time>2026-07-10T15:17:09.000Z</time>
|
|
</trkpt>
|
|
<trkpt lat="55.321916" lon="8.760183">
|
|
<ele>-22.318013</ele>
|
|
<time>2026-07-10T15:17:10.000Z</time>
|
|
</trkpt>
|
|
<trkpt lat="55.321909" lon="8.760222">
|
|
<ele>-22.305044</ele>
|
|
<time>2026-07-10T15:17:11.000Z</time>
|
|
</trkpt>
|
|
<trkpt lat="55.321900" lon="8.760265">
|
|
<ele>-22.290515</ele>
|
|
<time>2026-07-10T15:17:12.000Z</time>
|
|
</trkpt>
|
|
<trkpt lat="55.321887" lon="8.760311">
|
|
<ele>-22.274226</ele>
|
|
<time>2026-07-10T15:17:13.000Z</time>
|
|
</trkpt>
|
|
<trkpt lat="55.321870" lon="8.760358">
|
|
<ele>-22.256565</ele>
|
|
<time>2026-07-10T15:17:14.000Z</time>
|
|
</trkpt>
|
|
<trkpt lat="55.321845" lon="8.760402">
|
|
<ele>-22.236845</ele>
|
|
<time>2026-07-10T15:17:15.000Z</time>
|
|
</trkpt>
|
|
<trkpt lat="55.321814" lon="8.760442">
|
|
<ele>-22.215410</ele>
|
|
<time>2026-07-10T15:17:16.000Z</time>
|
|
</trkpt>
|
|
<trkpt lat="55.321784" lon="8.760480">
|
|
<ele>-22.194799</ele>
|
|
<time>2026-07-10T15:17:17.000Z</time>
|
|
</trkpt>
|
|
<trkpt lat="55.321753" lon="8.760518">
|
|
<ele>-22.173733</ele>
|
|
<time>2026-07-10T15:17:18.000Z</time>
|
|
</trkpt>
|
|
<trkpt lat="55.321724" lon="8.760557">
|
|
<ele>-22.153380</ele>
|
|
<time>2026-07-10T15:17:19.000Z</time>
|
|
</trkpt>
|
|
<trkpt lat="55.321698" lon="8.760590">
|
|
<ele>-22.135505</ele>
|
|
<time>2026-07-10T15:17:20.000Z</time>
|
|
</trkpt>
|
|
<trkpt lat="55.321668" lon="8.760607">
|
|
<ele>-22.117936</ele>
|
|
<time>2026-07-10T15:17:21.000Z</time>
|
|
</trkpt>
|
|
<trkpt lat="55.321633" lon="8.760598">
|
|
<ele>-22.098220</ele>
|
|
<time>2026-07-10T15:17:22.000Z</time>
|
|
</trkpt>
|
|
<trkpt lat="55.321606" lon="8.760581">
|
|
<ele>-22.082234</ele>
|
|
<time>2026-07-10T15:17:23.000Z</time>
|
|
</trkpt>
|
|
<trkpt lat="55.321581" lon="8.760570">
|
|
<ele>-22.067870</ele>
|
|
<time>2026-07-10T15:17:24.000Z</time>
|
|
</trkpt>
|
|
<trkpt lat="55.321562" lon="8.760577">
|
|
<ele>-22.057050</ele>
|
|
<time>2026-07-10T15:17:25.000Z</time>
|
|
</trkpt>
|
|
<trkpt lat="55.321547" lon="8.760600">
|
|
<ele>-22.045955</ele>
|
|
<time>2026-07-10T15:17:26.000Z</time>
|
|
</trkpt>
|
|
<trkpt lat="55.321546" lon="8.760630">
|
|
<ele>-22.036425</ele>
|
|
<time>2026-07-10T15:17:27.000Z</time>
|
|
</trkpt>
|
|
<trkpt lat="55.321552" lon="8.760652">
|
|
<ele>-22.028688</ele>
|
|
<time>2026-07-10T15:17:28.000Z</time>
|
|
</trkpt>
|
|
<trkpt lat="55.321564" lon="8.760664">
|
|
<ele>-22.020992</ele>
|
|
<time>2026-07-10T15:17:29.000Z</time>
|
|
</trkpt>
|
|
<trkpt lat="55.321580" lon="8.760675">
|
|
<ele>-22.011416</ele>
|
|
<time>2026-07-10T15:17:30.000Z</time>
|
|
</trkpt>
|
|
<trkpt lat="55.321596" lon="8.760695">
|
|
<ele>-22.000473</ele>
|
|
<time>2026-07-10T15:17:31.000Z</time>
|
|
</trkpt>
|
|
<trkpt lat="55.321612" lon="8.760728">
|
|
<ele>-21.986723</ele>
|
|
<time>2026-07-10T15:17:32.000Z</time>
|
|
</trkpt>
|
|
<trkpt lat="55.321625" lon="8.760780">
|
|
<ele>-21.968711</ele>
|
|
<time>2026-07-10T15:17:33.000Z</time>
|
|
</trkpt>
|
|
<trkpt lat="55.321641" lon="8.760837">
|
|
<ele>-21.948555</ele>
|
|
<time>2026-07-10T15:17:34.000Z</time>
|
|
</trkpt>
|
|
<trkpt lat="55.321658" lon="8.760894">
|
|
<ele>-21.928145</ele>
|
|
<time>2026-07-10T15:17:35.000Z</time>
|
|
</trkpt>
|
|
<trkpt lat="55.321683" lon="8.760946">
|
|
<ele>-21.906556</ele>
|
|
<time>2026-07-10T15:17:36.000Z</time>
|
|
</trkpt>
|
|
<trkpt lat="55.321712" lon="8.760989">
|
|
<ele>-21.885408</ele>
|
|
<time>2026-07-10T15:17:37.000Z</time>
|
|
</trkpt>
|
|
<trkpt lat="55.321745" lon="8.761023">
|
|
<ele>-21.864088</ele>
|
|
<time>2026-07-10T15:17:38.000Z</time>
|
|
</trkpt>
|
|
<trkpt lat="55.321783" lon="8.761045">
|
|
<ele>-21.841788</ele>
|
|
<time>2026-07-10T15:17:39.000Z</time>
|
|
</trkpt>
|
|
<trkpt lat="55.321818" lon="8.761054">
|
|
<ele>-21.822072</ele>
|
|
<time>2026-07-10T15:17:40.000Z</time>
|
|
</trkpt>
|
|
<trkpt lat="55.321855" lon="8.761050">
|
|
<ele>-21.801410</ele>
|
|
<time>2026-07-10T15:17:41.000Z</time>
|
|
</trkpt>
|
|
<trkpt lat="55.321889" lon="8.761044">
|
|
<ele>-21.782364</ele>
|
|
<time>2026-07-10T15:17:42.000Z</time>
|
|
</trkpt>
|
|
<trkpt lat="55.321925" lon="8.761041">
|
|
<ele>-21.763486</ele>
|
|
<time>2026-07-10T15:17:43.000Z</time>
|
|
</trkpt>
|
|
<trkpt lat="55.321961" lon="8.761054">
|
|
<ele>-21.754962</ele>
|
|
<time>2026-07-10T15:17:44.000Z</time>
|
|
</trkpt>
|
|
<trkpt lat="55.321992" lon="8.761081">
|
|
<ele>-21.746938</ele>
|
|
<time>2026-07-10T15:17:45.000Z</time>
|
|
</trkpt>
|
|
<trkpt lat="55.322022" lon="8.761113">
|
|
<ele>-21.738799</ele>
|
|
<time>2026-07-10T15:17:46.000Z</time>
|
|
</trkpt>
|
|
<trkpt lat="55.322052" lon="8.761145">
|
|
<ele>-21.730660</ele>
|
|
<time>2026-07-10T15:17:47.000Z</time>
|
|
</trkpt>
|
|
<trkpt lat="55.322082" lon="8.761178">
|
|
<ele>-21.722451</ele>
|
|
<time>2026-07-10T15:17:48.000Z</time>
|
|
</trkpt>
|
|
<trkpt lat="55.322115" lon="8.761218">
|
|
<ele>-21.713154</ele>
|
|
<time>2026-07-10T15:17:49.000Z</time>
|
|
</trkpt>
|
|
<trkpt lat="55.322148" lon="8.761258">
|
|
<ele>-21.703856</ele>
|
|
<time>2026-07-10T15:17:50.000Z</time>
|
|
</trkpt>
|
|
<trkpt lat="55.322181" lon="8.761300">
|
|
<ele>-21.694407</ele>
|
|
<time>2026-07-10T15:17:51.000Z</time>
|
|
</trkpt>
|
|
<trkpt lat="55.322218" lon="8.761348">
|
|
<ele>-21.683741</ele>
|
|
<time>2026-07-10T15:17:52.000Z</time>
|
|
</trkpt>
|
|
<trkpt lat="55.322253" lon="8.761402">
|
|
<ele>-21.672939</ele>
|
|
<time>2026-07-10T15:17:53.000Z</time>
|
|
</trkpt>
|
|
<trkpt lat="55.322290" lon="8.761457">
|
|
<ele>-21.661700</ele>
|
|
<time>2026-07-10T15:17:54.000Z</time>
|
|
</trkpt>
|
|
<trkpt lat="55.322325" lon="8.761511">
|
|
<ele>-21.650898</ele>
|
|
<time>2026-07-10T15:17:55.000Z</time>
|
|
</trkpt>
|
|
<trkpt lat="55.322361" lon="8.761564">
|
|
<ele>-21.640006</ele>
|
|
<time>2026-07-10T15:17:56.000Z</time>
|
|
</trkpt>
|
|
<trkpt lat="55.322393" lon="8.761620">
|
|
<ele>-21.629533</ele>
|
|
<time>2026-07-10T15:17:57.000Z</time>
|
|
</trkpt>
|
|
<trkpt lat="55.322424" lon="8.761684">
|
|
<ele>-21.618441</ele>
|
|
<time>2026-07-10T15:17:58.000Z</time>
|
|
</trkpt>
|
|
<trkpt lat="55.322452" lon="8.761747">
|
|
<ele>-21.607892</ele>
|
|
<time>2026-07-10T15:17:59.000Z</time>
|
|
</trkpt>
|
|
<trkpt lat="55.322479" lon="8.761813">
|
|
<ele>-21.597165</ele>
|
|
<time>2026-07-10T15:18:00.000Z</time>
|
|
</trkpt>
|
|
<trkpt lat="55.322510" lon="8.761878">
|
|
<ele>-21.585973</ele>
|
|
<time>2026-07-10T15:18:01.000Z</time>
|
|
</trkpt>
|
|
<trkpt lat="55.322540" lon="8.761943">
|
|
<ele>-21.574928</ele>
|
|
<time>2026-07-10T15:18:02.000Z</time>
|
|
</trkpt>
|
|
<trkpt lat="55.322572" lon="8.762008">
|
|
<ele>-21.563585</ele>
|
|
<time>2026-07-10T15:18:03.000Z</time>
|
|
</trkpt>
|
|
<trkpt lat="55.322606" lon="8.762076">
|
|
<ele>-21.551640</ele>
|
|
<time>2026-07-10T15:18:04.000Z</time>
|
|
</trkpt>
|
|
<trkpt lat="55.322639" lon="8.762144">
|
|
<ele>-21.539846</ele>
|
|
<time>2026-07-10T15:18:05.000Z</time>
|
|
</trkpt>
|
|
<trkpt lat="55.322669" lon="8.762211">
|
|
<ele>-21.528595</ele>
|
|
<time>2026-07-10T15:18:06.000Z</time>
|
|
</trkpt>
|
|
<trkpt lat="55.322696" lon="8.762270">
|
|
<ele>-21.518603</ele>
|
|
<time>2026-07-10T15:18:07.000Z</time>
|
|
</trkpt>
|
|
<trkpt lat="55.322727" lon="8.762345">
|
|
<ele>-21.506370</ele>
|
|
<time>2026-07-10T15:18:08.000Z</time>
|
|
</trkpt>
|
|
<trkpt lat="55.322757" lon="8.762418">
|
|
<ele>-21.494487</ele>
|
|
<time>2026-07-10T15:18:09.000Z</time>
|
|
</trkpt>
|
|
<trkpt lat="55.322783" lon="8.762487">
|
|
<ele>-21.483566</ele>
|
|
<time>2026-07-10T15:18:10.000Z</time>
|
|
</trkpt>
|
|
<trkpt lat="55.322806" lon="8.762559">
|
|
<ele>-21.472670</ele>
|
|
<time>2026-07-10T15:18:11.000Z</time>
|
|
</trkpt>
|
|
<trkpt lat="55.322829" lon="8.762632">
|
|
<ele>-21.461658</ele>
|
|
<time>2026-07-10T15:18:12.000Z</time>
|
|
</trkpt>
|
|
<trkpt lat="55.322857" lon="8.762710">
|
|
<ele>-21.449488</ele>
|
|
<time>2026-07-10T15:18:13.000Z</time>
|
|
</trkpt>
|
|
<trkpt lat="55.322883" lon="8.762781">
|
|
<ele>-21.438346</ele>
|
|
<time>2026-07-10T15:18:14.000Z</time>
|
|
</trkpt>
|
|
<trkpt lat="55.322909" lon="8.762847">
|
|
<ele>-21.427753</ele>
|
|
<time>2026-07-10T15:18:15.000Z</time>
|
|
</trkpt>
|
|
<trkpt lat="55.322935" lon="8.762915">
|
|
<ele>-21.416942</ele>
|
|
<time>2026-07-10T15:18:16.000Z</time>
|
|
</trkpt>
|
|
<trkpt lat="55.322959" lon="8.762983">
|
|
<ele>-21.406382</ele>
|
|
<time>2026-07-10T15:18:17.000Z</time>
|
|
</trkpt>
|
|
<trkpt lat="55.322985" lon="8.763050">
|
|
<ele>-21.395680</ele>
|
|
<time>2026-07-10T15:18:18.000Z</time>
|
|
</trkpt>
|
|
<trkpt lat="55.323012" lon="8.763120">
|
|
<ele>-21.384521</ele>
|
|
<time>2026-07-10T15:18:19.000Z</time>
|
|
</trkpt>
|
|
<trkpt lat="55.323038" lon="8.763184">
|
|
<ele>-21.374143</ele>
|
|
<time>2026-07-10T15:18:20.000Z</time>
|
|
</trkpt>
|
|
<trkpt lat="55.323063" lon="8.763253">
|
|
<ele>-21.363349</ele>
|
|
<time>2026-07-10T15:18:21.000Z</time>
|
|
</trkpt>
|
|
<trkpt lat="55.323090" lon="8.763316">
|
|
<ele>-21.352941</ele>
|
|
<time>2026-07-10T15:18:22.000Z</time>
|
|
</trkpt>
|
|
<trkpt lat="55.323119" lon="8.763374">
|
|
<ele>-21.342754</ele>
|
|
<time>2026-07-10T15:18:23.000Z</time>
|
|
</trkpt>
|
|
<trkpt lat="55.323151" lon="8.763430">
|
|
<ele>-21.332286</ele>
|
|
<time>2026-07-10T15:18:24.000Z</time>
|
|
</trkpt>
|
|
<trkpt lat="55.323182" lon="8.763482">
|
|
<ele>-21.322353</ele>
|
|
<time>2026-07-10T15:18:25.000Z</time>
|
|
</trkpt>
|
|
<trkpt lat="55.323213" lon="8.763525">
|
|
<ele>-21.313198</ele>
|
|
<time>2026-07-10T15:18:26.000Z</time>
|
|
</trkpt>
|
|
<trkpt lat="55.323247" lon="8.763557">
|
|
<ele>-21.304258</ele>
|
|
<time>2026-07-10T15:18:27.000Z</time>
|
|
</trkpt>
|
|
<trkpt lat="55.323281" lon="8.763582">
|
|
<ele>-21.295715</ele>
|
|
<time>2026-07-10T15:18:28.000Z</time>
|
|
</trkpt>
|
|
<trkpt lat="55.323322" lon="8.763603">
|
|
<ele>-21.285815</ele>
|
|
<time>2026-07-10T15:18:29.000Z</time>
|
|
</trkpt>
|
|
<trkpt lat="55.323363" lon="8.763619">
|
|
<ele>-21.276079</ele>
|
|
<time>2026-07-10T15:18:30.000Z</time>
|
|
</trkpt>
|
|
<trkpt lat="55.323406" lon="8.763637">
|
|
<ele>-21.265833</ele>
|
|
<time>2026-07-10T15:18:31.000Z</time>
|
|
</trkpt>
|
|
<trkpt lat="55.323448" lon="8.763653">
|
|
<ele>-21.255871</ele>
|
|
<time>2026-07-10T15:18:32.000Z</time>
|
|
</trkpt>
|
|
<trkpt lat="55.323495" lon="8.763667">
|
|
<ele>-21.244820</ele>
|
|
<time>2026-07-10T15:18:33.000Z</time>
|
|
</trkpt>
|
|
<trkpt lat="55.323540" lon="8.763680">
|
|
<ele>-21.234249</ele>
|
|
<time>2026-07-10T15:18:34.000Z</time>
|
|
</trkpt>
|
|
<trkpt lat="55.323584" lon="8.763691">
|
|
<ele>-21.223947</ele>
|
|
<time>2026-07-10T15:18:35.000Z</time>
|
|
</trkpt>
|
|
<trkpt lat="55.323632" lon="8.763706">
|
|
<ele>-21.212645</ele>
|
|
<time>2026-07-10T15:18:36.000Z</time>
|
|
</trkpt>
|
|
<trkpt lat="55.323677" lon="8.763721">
|
|
<ele>-21.202028</ele>
|
|
<time>2026-07-10T15:18:37.000Z</time>
|
|
</trkpt>
|
|
<trkpt lat="55.323718" lon="8.763739">
|
|
<ele>-21.192232</ele>
|
|
<time>2026-07-10T15:18:38.000Z</time>
|
|
</trkpt>
|
|
<trkpt lat="55.323757" lon="8.763762">
|
|
<ele>-21.182696</ele>
|
|
<time>2026-07-10T15:18:39.000Z</time>
|
|
</trkpt>
|
|
<trkpt lat="55.323800" lon="8.763789">
|
|
<ele>-21.172111</ele>
|
|
<time>2026-07-10T15:18:40.000Z</time>
|
|
</trkpt>
|
|
<trkpt lat="55.323846" lon="8.763814">
|
|
<ele>-21.160950</ele>
|
|
<time>2026-07-10T15:18:41.000Z</time>
|
|
</trkpt>
|
|
<trkpt lat="55.323890" lon="8.763833">
|
|
<ele>-21.150447</ele>
|
|
<time>2026-07-10T15:18:42.000Z</time>
|
|
</trkpt>
|
|
<trkpt lat="55.323937" lon="8.763850">
|
|
<ele>-21.139324</ele>
|
|
<time>2026-07-10T15:18:43.000Z</time>
|
|
</trkpt>
|
|
<trkpt lat="55.323983" lon="8.763864">
|
|
<ele>-21.128502</ele>
|
|
<time>2026-07-10T15:18:44.000Z</time>
|
|
</trkpt>
|
|
<trkpt lat="55.324032" lon="8.763878">
|
|
<ele>-21.116994</ele>
|
|
<time>2026-07-10T15:18:45.000Z</time>
|
|
</trkpt>
|
|
<trkpt lat="55.324080" lon="8.763889">
|
|
<ele>-21.105773</ele>
|
|
<time>2026-07-10T15:18:46.000Z</time>
|
|
</trkpt>
|
|
<trkpt lat="55.324132" lon="8.763901">
|
|
<ele>-21.093615</ele>
|
|
<time>2026-07-10T15:18:47.000Z</time>
|
|
</trkpt>
|
|
<trkpt lat="55.324179" lon="8.763911">
|
|
<ele>-21.082641</ele>
|
|
<time>2026-07-10T15:18:48.000Z</time>
|
|
</trkpt>
|
|
<trkpt lat="55.324227" lon="8.763923">
|
|
<ele>-21.071402</ele>
|
|
<time>2026-07-10T15:18:49.000Z</time>
|
|
</trkpt>
|
|
<trkpt lat="55.324273" lon="8.763935">
|
|
<ele>-21.060622</ele>
|
|
<time>2026-07-10T15:18:50.000Z</time>
|
|
</trkpt>
|
|
<trkpt lat="55.324319" lon="8.763947">
|
|
<ele>-21.049842</ele>
|
|
<time>2026-07-10T15:18:51.000Z</time>
|
|
</trkpt>
|
|
<trkpt lat="55.324363" lon="8.763959">
|
|
<ele>-21.039520</ele>
|
|
<time>2026-07-10T15:18:52.000Z</time>
|
|
</trkpt>
|
|
<trkpt lat="55.324407" lon="8.763970">
|
|
<ele>-21.029218</ele>
|
|
<time>2026-07-10T15:18:53.000Z</time>
|
|
</trkpt>
|
|
<trkpt lat="55.324449" lon="8.763977">
|
|
<ele>-21.019438</ele>
|
|
<time>2026-07-10T15:18:54.000Z</time>
|
|
</trkpt>
|
|
<trkpt lat="55.324488" lon="8.763986">
|
|
<ele>-21.010320</ele>
|
|
<time>2026-07-10T15:18:55.000Z</time>
|
|
</trkpt>
|
|
<trkpt lat="55.324533" lon="8.763997">
|
|
<ele>-20.999788</ele>
|
|
<time>2026-07-10T15:18:56.000Z</time>
|
|
</trkpt>
|
|
<trkpt lat="55.324578" lon="8.764003">
|
|
<ele>-20.989327</ele>
|
|
<time>2026-07-10T15:18:57.000Z</time>
|
|
</trkpt>
|
|
<trkpt lat="55.324624" lon="8.764008">
|
|
<ele>-20.978643</ele>
|
|
<time>2026-07-10T15:18:58.000Z</time>
|
|
</trkpt>
|
|
<trkpt lat="55.324670" lon="8.764012">
|
|
<ele>-20.967967</ele>
|
|
<time>2026-07-10T15:18:59.000Z</time>
|
|
</trkpt>
|
|
<trkpt lat="55.324714" lon="8.764020">
|
|
<ele>-20.957713</ele>
|
|
<time>2026-07-10T15:19:00.000Z</time>
|
|
</trkpt>
|
|
<trkpt lat="55.324756" lon="8.764032">
|
|
<ele>-20.947849</ele>
|
|
<time>2026-07-10T15:19:01.000Z</time>
|
|
</trkpt>
|
|
<trkpt lat="55.324793" lon="8.764043">
|
|
<ele>-20.939150</ele>
|
|
<time>2026-07-10T15:19:02.000Z</time>
|
|
</trkpt>
|
|
<trkpt lat="55.324832" lon="8.764054">
|
|
<ele>-20.929226</ele>
|
|
<time>2026-07-10T15:19:03.000Z</time>
|
|
</trkpt>
|
|
<trkpt lat="55.324870" lon="8.764065">
|
|
<ele>-20.892443</ele>
|
|
<time>2026-07-10T15:19:04.000Z</time>
|
|
</trkpt>
|
|
<trkpt lat="55.324912" lon="8.764078">
|
|
<ele>-20.851712</ele>
|
|
<time>2026-07-10T15:19:05.000Z</time>
|
|
</trkpt>
|
|
<trkpt lat="55.324949" lon="8.764087">
|
|
<ele>-20.816036</ele>
|
|
<time>2026-07-10T15:19:06.000Z</time>
|
|
</trkpt>
|
|
<trkpt lat="55.324992" lon="8.764094">
|
|
<ele>-20.774791</ele>
|
|
<time>2026-07-10T15:19:07.000Z</time>
|
|
</trkpt>
|
|
<trkpt lat="55.325036" lon="8.764099">
|
|
<ele>-20.732679</ele>
|
|
<time>2026-07-10T15:19:08.000Z</time>
|
|
</trkpt>
|
|
<trkpt lat="55.325080" lon="8.764104">
|
|
<ele>-20.690567</ele>
|
|
<time>2026-07-10T15:19:09.000Z</time>
|
|
</trkpt>
|
|
<trkpt lat="55.325119" lon="8.764112">
|
|
<ele>-20.653065</ele>
|
|
<time>2026-07-10T15:19:10.000Z</time>
|
|
</trkpt>
|
|
<trkpt lat="55.325158" lon="8.764126">
|
|
<ele>-20.615047</ele>
|
|
<time>2026-07-10T15:19:11.000Z</time>
|
|
</trkpt>
|
|
<trkpt lat="55.325191" lon="8.764144">
|
|
<ele>-20.582046</ele>
|
|
<time>2026-07-10T15:19:12.000Z</time>
|
|
</trkpt>
|
|
<trkpt lat="55.325221" lon="8.764172">
|
|
<ele>-20.549604</ele>
|
|
<time>2026-07-10T15:19:13.000Z</time>
|
|
</trkpt>
|
|
<trkpt lat="55.325242" lon="8.764203">
|
|
<ele>-20.523412</ele>
|
|
<time>2026-07-10T15:19:14.000Z</time>
|
|
</trkpt>
|
|
<trkpt lat="55.325260" lon="8.764227">
|
|
<ele>-20.501833</ele>
|
|
<time>2026-07-10T15:19:15.000Z</time>
|
|
</trkpt>
|
|
<trkpt lat="55.325274" lon="8.764238">
|
|
<ele>-20.487187</ele>
|
|
<time>2026-07-10T15:19:16.000Z</time>
|
|
</trkpt>
|
|
<trkpt lat="55.325311" lon="8.764237">
|
|
<ele>-20.451844</ele>
|
|
<time>2026-07-10T15:20:27.000Z</time>
|
|
</trkpt>
|
|
<trkpt lat="55.325348" lon="8.764225">
|
|
<ele>-20.415908</ele>
|
|
<time>2026-07-10T15:20:28.000Z</time>
|
|
</trkpt>
|
|
<trkpt lat="55.325364" lon="8.764216">
|
|
<ele>-20.399863</ele>
|
|
<time>2026-07-10T15:20:29.000Z</time>
|
|
</trkpt>
|
|
<trkpt lat="55.325384" lon="8.764204">
|
|
<ele>-20.379679</ele>
|
|
<time>2026-07-10T15:20:30.000Z</time>
|
|
</trkpt>
|
|
<trkpt lat="55.325401" lon="8.764187">
|
|
<ele>-20.360999</ele>
|
|
<time>2026-07-10T15:20:31.000Z</time>
|
|
</trkpt>
|
|
<trkpt lat="55.325412" lon="8.764167">
|
|
<ele>-20.345883</ele>
|
|
<time>2026-07-10T15:20:32.000Z</time>
|
|
</trkpt>
|
|
<trkpt lat="55.325423" lon="8.764145">
|
|
<ele>-20.329968</ele>
|
|
<time>2026-07-10T15:20:33.000Z</time>
|
|
</trkpt>
|
|
<trkpt lat="55.325433" lon="8.764130">
|
|
<ele>-20.317412</ele>
|
|
<time>2026-07-10T15:20:34.000Z</time>
|
|
</trkpt>
|
|
<trkpt lat="55.325445" lon="8.764120">
|
|
<ele>-20.304728</ele>
|
|
<time>2026-07-10T15:20:35.000Z</time>
|
|
</trkpt>
|
|
<trkpt lat="55.325454" lon="8.764113">
|
|
<ele>-20.295328</ele>
|
|
<time>2026-07-10T15:20:36.000Z</time>
|
|
</trkpt>
|
|
<trkpt lat="55.325465" lon="8.764103">
|
|
<ele>-20.283500</ele>
|
|
<time>2026-07-10T15:20:37.000Z</time>
|
|
</trkpt>
|
|
<trkpt lat="55.325478" lon="8.764095">
|
|
<ele>-20.270345</ele>
|
|
<time>2026-07-10T15:20:38.000Z</time>
|
|
</trkpt>
|
|
<trkpt lat="55.325499" lon="8.764088">
|
|
<ele>-20.249930</ele>
|
|
<time>2026-07-10T15:20:39.000Z</time>
|
|
</trkpt>
|
|
<trkpt lat="55.325521" lon="8.764083">
|
|
<ele>-20.228743</ele>
|
|
<time>2026-07-10T15:20:40.000Z</time>
|
|
</trkpt>
|
|
<trkpt lat="55.325540" lon="8.764076">
|
|
<ele>-20.210202</ele>
|
|
<time>2026-07-10T15:20:41.000Z</time>
|
|
</trkpt>
|
|
<trkpt lat="55.325565" lon="8.764070">
|
|
<ele>-20.186103</ele>
|
|
<time>2026-07-10T15:20:42.000Z</time>
|
|
</trkpt>
|
|
<trkpt lat="55.325591" lon="8.764073">
|
|
<ele>-20.161217</ele>
|
|
<time>2026-07-10T15:20:43.000Z</time>
|
|
</trkpt>
|
|
<trkpt lat="55.325618" lon="8.764079">
|
|
<ele>-20.135224</ele>
|
|
<time>2026-07-10T15:20:44.000Z</time>
|
|
</trkpt>
|
|
<trkpt lat="55.325648" lon="8.764082">
|
|
<ele>-20.106524</ele>
|
|
<time>2026-07-10T15:20:45.000Z</time>
|
|
</trkpt>
|
|
<trkpt lat="55.325670" lon="8.764083">
|
|
<ele>-20.085505</ele>
|
|
<time>2026-07-10T15:20:46.000Z</time>
|
|
</trkpt>
|
|
<trkpt lat="55.325697" lon="8.764085">
|
|
<ele>-20.059694</ele>
|
|
<time>2026-07-10T15:20:47.000Z</time>
|
|
</trkpt>
|
|
<trkpt lat="55.325721" lon="8.764086">
|
|
<ele>-20.036765</ele>
|
|
<time>2026-07-10T15:20:48.000Z</time>
|
|
</trkpt>
|
|
<trkpt lat="55.325746" lon="8.764089">
|
|
<ele>-20.012832</ele>
|
|
<time>2026-07-10T15:20:49.000Z</time>
|
|
</trkpt>
|
|
<trkpt lat="55.325764" lon="8.764088">
|
|
<ele>-19.995632</ele>
|
|
<time>2026-07-10T15:20:50.000Z</time>
|
|
</trkpt>
|
|
<trkpt lat="55.325785" lon="8.764085">
|
|
<ele>-19.975509</ele>
|
|
<time>2026-07-10T15:20:51.000Z</time>
|
|
</trkpt>
|
|
<trkpt lat="55.325808" lon="8.764085">
|
|
<ele>-19.953541</ele>
|
|
<time>2026-07-10T15:20:52.000Z</time>
|
|
</trkpt>
|
|
<trkpt lat="55.325828" lon="8.764084">
|
|
<ele>-19.934431</ele>
|
|
<time>2026-07-10T15:20:53.000Z</time>
|
|
</trkpt>
|
|
<trkpt lat="55.325845" lon="8.764083">
|
|
<ele>-19.918186</ele>
|
|
<time>2026-07-10T15:20:54.000Z</time>
|
|
</trkpt>
|
|
<trkpt lat="55.325864" lon="8.764083">
|
|
<ele>-19.900039</ele>
|
|
<time>2026-07-10T15:20:55.000Z</time>
|
|
</trkpt>
|
|
<trkpt lat="55.325884" lon="8.764085">
|
|
<ele>-19.880906</ele>
|
|
<time>2026-07-10T15:20:56.000Z</time>
|
|
</trkpt>
|
|
<trkpt lat="55.325910" lon="8.764085">
|
|
<ele>-19.856073</ele>
|
|
<time>2026-07-10T15:20:57.000Z</time>
|
|
</trkpt>
|
|
<trkpt lat="55.325930" lon="8.764084">
|
|
<ele>-19.836963</ele>
|
|
<time>2026-07-10T15:20:58.000Z</time>
|
|
</trkpt>
|
|
<trkpt lat="55.325953" lon="8.764082">
|
|
<ele>-19.814969</ele>
|
|
<time>2026-07-10T15:20:59.000Z</time>
|
|
</trkpt>
|
|
<trkpt lat="55.325977" lon="8.764082">
|
|
<ele>-19.792047</ele>
|
|
<time>2026-07-10T15:21:00.000Z</time>
|
|
</trkpt>
|
|
<trkpt lat="55.326002" lon="8.764083">
|
|
<ele>-19.768163</ele>
|
|
<time>2026-07-10T15:21:01.000Z</time>
|
|
</trkpt>
|
|
<trkpt lat="55.326025" lon="8.764086">
|
|
<ele>-19.746135</ele>
|
|
<time>2026-07-10T15:21:02.000Z</time>
|
|
</trkpt>
|
|
<trkpt lat="55.326048" lon="8.764089">
|
|
<ele>-19.724107</ele>
|
|
<time>2026-07-10T15:21:03.000Z</time>
|
|
</trkpt>
|
|
<trkpt lat="55.326071" lon="8.764089">
|
|
<ele>-19.702140</ele>
|
|
<time>2026-07-10T15:21:04.000Z</time>
|
|
</trkpt>
|
|
<trkpt lat="55.326099" lon="8.764088">
|
|
<ele>-19.675392</ele>
|
|
<time>2026-07-10T15:21:05.000Z</time>
|
|
</trkpt>
|
|
<trkpt lat="55.326125" lon="8.764085">
|
|
<ele>-19.650506</ele>
|
|
<time>2026-07-10T15:21:06.000Z</time>
|
|
</trkpt>
|
|
<trkpt lat="55.326148" lon="8.764085">
|
|
<ele>-19.628538</ele>
|
|
<time>2026-07-10T15:21:07.000Z</time>
|
|
</trkpt>
|
|
<trkpt lat="55.326169" lon="8.764087">
|
|
<ele>-19.608452</ele>
|
|
<time>2026-07-10T15:21:08.000Z</time>
|
|
</trkpt>
|
|
<trkpt lat="55.326187" lon="8.764088">
|
|
<ele>-19.591251</ele>
|
|
<time>2026-07-10T15:21:09.000Z</time>
|
|
</trkpt>
|
|
<trkpt lat="55.326204" lon="8.764086">
|
|
<ele>-19.574978</ele>
|
|
<time>2026-07-10T15:21:10.000Z</time>
|
|
</trkpt>
|
|
<trkpt lat="55.326225" lon="8.764083">
|
|
<ele>-19.554855</ele>
|
|
<time>2026-07-10T15:21:11.000Z</time>
|
|
</trkpt>
|
|
<trkpt lat="55.326242" lon="8.764074">
|
|
<ele>-19.537898</ele>
|
|
<time>2026-07-10T15:21:12.000Z</time>
|
|
</trkpt>
|
|
<trkpt lat="55.326260" lon="8.764061">
|
|
<ele>-19.519311</ele>
|
|
<time>2026-07-10T15:21:13.000Z</time>
|
|
</trkpt>
|
|
<trkpt lat="55.326279" lon="8.764050">
|
|
<ele>-19.500205</ele>
|
|
<time>2026-07-10T15:21:14.000Z</time>
|
|
</trkpt>
|
|
<trkpt lat="55.326300" lon="8.764035">
|
|
<ele>-19.478555</ele>
|
|
<time>2026-07-10T15:21:15.000Z</time>
|
|
</trkpt>
|
|
<trkpt lat="55.326320" lon="8.764022">
|
|
<ele>-19.458189</ele>
|
|
<time>2026-07-10T15:21:16.000Z</time>
|
|
</trkpt>
|
|
<trkpt lat="55.326337" lon="8.764011">
|
|
<ele>-19.440887</ele>
|
|
<time>2026-07-10T15:21:17.000Z</time>
|
|
</trkpt>
|
|
<trkpt lat="55.326362" lon="8.763999">
|
|
<ele>-19.416135</ele>
|
|
<time>2026-07-10T15:21:18.000Z</time>
|
|
</trkpt>
|
|
<trkpt lat="55.326386" lon="8.763988">
|
|
<ele>-19.392447</ele>
|
|
<time>2026-07-10T15:21:19.000Z</time>
|
|
</trkpt>
|
|
<trkpt lat="55.326406" lon="8.763976">
|
|
<ele>-19.372262</ele>
|
|
<time>2026-07-10T15:21:20.000Z</time>
|
|
</trkpt>
|
|
<trkpt lat="55.326429" lon="8.763967">
|
|
<ele>-19.349757</ele>
|
|
<time>2026-07-10T15:21:21.000Z</time>
|
|
</trkpt>
|
|
<trkpt lat="55.326451" lon="8.763955">
|
|
<ele>-19.327757</ele>
|
|
<time>2026-07-10T15:21:22.000Z</time>
|
|
</trkpt>
|
|
<trkpt lat="55.326471" lon="8.763944">
|
|
<ele>-19.307741</ele>
|
|
<time>2026-07-10T15:21:23.000Z</time>
|
|
</trkpt>
|
|
<trkpt lat="55.326488" lon="8.763933">
|
|
<ele>-19.290439</ele>
|
|
<time>2026-07-10T15:21:24.000Z</time>
|
|
</trkpt>
|
|
<trkpt lat="55.326503" lon="8.763926">
|
|
<ele>-19.275617</ele>
|
|
<time>2026-07-10T15:21:25.000Z</time>
|
|
</trkpt>
|
|
<trkpt lat="55.326520" lon="8.763917">
|
|
<ele>-19.258659</ele>
|
|
<time>2026-07-10T15:21:26.000Z</time>
|
|
</trkpt>
|
|
<trkpt lat="55.326538" lon="8.763915">
|
|
<ele>-19.241433</ele>
|
|
<time>2026-07-10T15:21:27.000Z</time>
|
|
</trkpt>
|
|
<trkpt lat="55.326554" lon="8.763913">
|
|
<ele>-19.226113</ele>
|
|
<time>2026-07-10T15:21:28.000Z</time>
|
|
</trkpt>
|
|
<trkpt lat="55.326578" lon="8.763901">
|
|
<ele>-19.208664</ele>
|
|
<time>2026-07-10T15:21:29.000Z</time>
|
|
</trkpt>
|
|
<trkpt lat="55.326602" lon="8.763889">
|
|
<ele>-19.199938</ele>
|
|
<time>2026-07-10T15:21:30.000Z</time>
|
|
</trkpt>
|
|
<trkpt lat="55.326628" lon="8.763879">
|
|
<ele>-19.190630</ele>
|
|
<time>2026-07-10T15:21:31.000Z</time>
|
|
</trkpt>
|
|
<trkpt lat="55.326656" lon="8.763862">
|
|
<ele>-19.180270</ele>
|
|
<time>2026-07-10T15:21:32.000Z</time>
|
|
</trkpt>
|
|
<trkpt lat="55.326680" lon="8.763852">
|
|
<ele>-19.171645</ele>
|
|
<time>2026-07-10T15:21:33.000Z</time>
|
|
</trkpt>
|
|
<trkpt lat="55.326701" lon="8.763846">
|
|
<ele>-19.164204</ele>
|
|
<time>2026-07-10T15:21:34.000Z</time>
|
|
</trkpt>
|
|
<trkpt lat="55.326715" lon="8.763845">
|
|
<ele>-19.159304</ele>
|
|
<time>2026-07-10T15:21:35.000Z</time>
|
|
</trkpt>
|
|
<trkpt lat="55.326738" lon="8.763838">
|
|
<ele>-19.151141</ele>
|
|
<time>2026-07-10T15:21:36.000Z</time>
|
|
</trkpt>
|
|
<trkpt lat="55.326756" lon="8.763834">
|
|
<ele>-19.144796</ele>
|
|
<time>2026-07-10T15:21:37.000Z</time>
|
|
</trkpt>
|
|
<trkpt lat="55.326776" lon="8.763833">
|
|
<ele>-19.137798</ele>
|
|
<time>2026-07-10T15:21:38.000Z</time>
|
|
</trkpt>
|
|
<trkpt lat="55.326798" lon="8.763830">
|
|
<ele>-19.130081</ele>
|
|
<time>2026-07-10T15:21:39.000Z</time>
|
|
</trkpt>
|
|
<trkpt lat="55.326830" lon="8.763821">
|
|
<ele>-19.118748</ele>
|
|
<time>2026-07-10T15:21:40.000Z</time>
|
|
</trkpt>
|
|
<trkpt lat="55.326852" lon="8.763813">
|
|
<ele>-19.110891</ele>
|
|
<time>2026-07-10T15:21:41.000Z</time>
|
|
</trkpt>
|
|
<trkpt lat="55.326874" lon="8.763807">
|
|
<ele>-19.103105</ele>
|
|
<time>2026-07-10T15:21:42.000Z</time>
|
|
</trkpt>
|
|
<trkpt lat="55.326889" lon="8.763801">
|
|
<ele>-19.097725</ele>
|
|
<time>2026-07-10T15:21:43.000Z</time>
|
|
</trkpt>
|
|
<trkpt lat="55.326906" lon="8.763793">
|
|
<ele>-19.091571</ele>
|
|
<time>2026-07-10T15:21:44.000Z</time>
|
|
</trkpt>
|
|
<trkpt lat="55.326930" lon="8.763781">
|
|
<ele>-19.082844</ele>
|
|
<time>2026-07-10T15:21:45.000Z</time>
|
|
</trkpt>
|
|
<trkpt lat="55.326951" lon="8.763765">
|
|
<ele>-19.074840</ele>
|
|
<time>2026-07-10T15:21:46.000Z</time>
|
|
</trkpt>
|
|
<trkpt lat="55.326968" lon="8.763751">
|
|
<ele>-19.068275</ele>
|
|
<time>2026-07-10T15:21:47.000Z</time>
|
|
</trkpt>
|
|
<trkpt lat="55.326987" lon="8.763741">
|
|
<ele>-19.061338</ele>
|
|
<time>2026-07-10T15:21:48.000Z</time>
|
|
</trkpt>
|
|
<trkpt lat="55.327008" lon="8.763732">
|
|
<ele>-19.053779</ele>
|
|
<time>2026-07-10T15:21:49.000Z</time>
|
|
</trkpt>
|
|
<trkpt lat="55.327025" lon="8.763722">
|
|
<ele>-19.047510</ele>
|
|
<time>2026-07-10T15:21:50.000Z</time>
|
|
</trkpt>
|
|
<trkpt lat="55.327048" lon="8.763707">
|
|
<ele>-19.038930</ele>
|
|
<time>2026-07-10T15:21:51.000Z</time>
|
|
</trkpt>
|
|
<trkpt lat="55.327075" lon="8.763688">
|
|
<ele>-19.028759</ele>
|
|
<time>2026-07-10T15:21:52.000Z</time>
|
|
</trkpt>
|
|
<trkpt lat="55.327101" lon="8.763668">
|
|
<ele>-19.018834</ele>
|
|
<time>2026-07-10T15:21:53.000Z</time>
|
|
</trkpt>
|
|
<trkpt lat="55.327128" lon="8.763642">
|
|
<ele>-19.008068</ele>
|
|
<time>2026-07-10T15:21:54.000Z</time>
|
|
</trkpt>
|
|
<trkpt lat="55.327156" lon="8.763618">
|
|
<ele>-18.997173</ele>
|
|
<time>2026-07-10T15:21:55.000Z</time>
|
|
</trkpt>
|
|
<trkpt lat="55.327186" lon="8.763596">
|
|
<ele>-18.985805</ele>
|
|
<time>2026-07-10T15:21:56.000Z</time>
|
|
</trkpt>
|
|
<trkpt lat="55.327220" lon="8.763579">
|
|
<ele>-18.973443</ele>
|
|
<time>2026-07-10T15:21:57.000Z</time>
|
|
</trkpt>
|
|
<trkpt lat="55.327251" lon="8.763565">
|
|
<ele>-18.962250</ele>
|
|
<time>2026-07-10T15:21:58.000Z</time>
|
|
</trkpt>
|
|
<trkpt lat="55.327276" lon="8.763546">
|
|
<ele>-18.952724</ele>
|
|
<time>2026-07-10T15:21:59.000Z</time>
|
|
</trkpt>
|
|
<trkpt lat="55.327298" lon="8.763530">
|
|
<ele>-18.944398</ele>
|
|
<time>2026-07-10T15:22:00.000Z</time>
|
|
</trkpt>
|
|
<trkpt lat="55.327320" lon="8.763515">
|
|
<ele>-18.936146</ele>
|
|
<time>2026-07-10T15:22:01.000Z</time>
|
|
</trkpt>
|
|
<trkpt lat="55.327354" lon="8.763494">
|
|
<ele>-18.923543</ele>
|
|
<time>2026-07-10T15:22:02.000Z</time>
|
|
</trkpt>
|
|
<trkpt lat="55.327379" lon="8.763467">
|
|
<ele>-18.913281</ele>
|
|
<time>2026-07-10T15:22:03.000Z</time>
|
|
</trkpt>
|
|
<trkpt lat="55.327402" lon="8.763449">
|
|
<ele>-18.904476</ele>
|
|
<time>2026-07-10T15:22:04.000Z</time>
|
|
</trkpt>
|
|
<trkpt lat="55.327425" lon="8.763433">
|
|
<ele>-18.895826</ele>
|
|
<time>2026-07-10T15:22:05.000Z</time>
|
|
</trkpt>
|
|
<trkpt lat="55.327446" lon="8.763417">
|
|
<ele>-18.887821</ele>
|
|
<time>2026-07-10T15:22:06.000Z</time>
|
|
</trkpt>
|
|
<trkpt lat="55.327462" lon="8.763405">
|
|
<ele>-18.881738</ele>
|
|
<time>2026-07-10T15:22:07.000Z</time>
|
|
</trkpt>
|
|
<trkpt lat="55.327474" lon="8.763402">
|
|
<ele>-18.877499</ele>
|
|
<time>2026-07-10T15:22:08.000Z</time>
|
|
</trkpt>
|
|
<trkpt lat="55.327477" lon="8.763402">
|
|
<ele>-18.876450</ele>
|
|
<time>2026-07-10T15:22:09.000Z</time>
|
|
</trkpt>
|
|
<trkpt lat="55.327479" lon="8.763402">
|
|
<ele>-18.875750</ele>
|
|
<time>2026-07-10T15:22:10.000Z</time>
|
|
</trkpt>
|
|
<trkpt lat="55.327480" lon="8.763402">
|
|
<ele>-18.875401</ele>
|
|
<time>2026-07-10T15:22:11.000Z</time>
|
|
</trkpt>
|
|
<trkpt lat="55.327480" lon="8.763402">
|
|
<ele>-18.875401</ele>
|
|
<time>2026-07-10T15:22:12.000Z</time>
|
|
</trkpt>
|
|
<trkpt lat="55.327494" lon="8.763399">
|
|
<ele>-18.870468</ele>
|
|
<time>2026-07-10T15:22:16.000Z</time>
|
|
</trkpt>
|
|
<trkpt lat="55.327536" lon="8.763386">
|
|
<ele>-18.855554</ele>
|
|
<time>2026-07-10T15:22:17.000Z</time>
|
|
</trkpt>
|
|
<trkpt lat="55.327548" lon="8.763375">
|
|
<ele>-18.850821</ele>
|
|
<time>2026-07-10T15:22:18.000Z</time>
|
|
</trkpt>
|
|
<trkpt lat="55.327560" lon="8.763364">
|
|
<ele>-18.846088</ele>
|
|
<time>2026-07-10T15:22:19.000Z</time>
|
|
</trkpt>
|
|
<trkpt lat="55.327572" lon="8.763352">
|
|
<ele>-18.841260</ele>
|
|
<time>2026-07-10T15:22:20.000Z</time>
|
|
</trkpt>
|
|
<trkpt lat="55.327588" lon="8.763342">
|
|
<ele>-18.835321</ele>
|
|
<time>2026-07-10T15:22:21.000Z</time>
|
|
</trkpt>
|
|
<trkpt lat="55.327609" lon="8.763332">
|
|
<ele>-18.827712</ele>
|
|
<time>2026-07-10T15:22:22.000Z</time>
|
|
</trkpt>
|
|
<trkpt lat="55.327629" lon="8.763319">
|
|
<ele>-18.820255</ele>
|
|
<time>2026-07-10T15:22:23.000Z</time>
|
|
</trkpt>
|
|
<trkpt lat="55.327646" lon="8.763312">
|
|
<ele>-18.814149</ele>
|
|
<time>2026-07-10T15:22:24.000Z</time>
|
|
</trkpt>
|
|
<trkpt lat="55.327664" lon="8.763305">
|
|
<ele>-18.807702</ele>
|
|
<time>2026-07-10T15:22:25.000Z</time>
|
|
</trkpt>
|
|
<trkpt lat="55.327678" lon="8.763298">
|
|
<ele>-18.802611</ele>
|
|
<time>2026-07-10T15:22:26.000Z</time>
|
|
</trkpt>
|
|
<trkpt lat="55.327688" lon="8.763292">
|
|
<ele>-18.798916</ele>
|
|
<time>2026-07-10T15:22:27.000Z</time>
|
|
</trkpt>
|
|
<trkpt lat="55.327699" lon="8.763280">
|
|
<ele>-18.794388</ele>
|
|
<time>2026-07-10T15:22:28.000Z</time>
|
|
</trkpt>
|
|
<trkpt lat="55.327702" lon="8.763277">
|
|
<ele>-18.793181</ele>
|
|
<time>2026-07-10T15:22:29.000Z</time>
|
|
</trkpt>
|
|
<trkpt lat="55.327781" lon="8.763170">
|
|
<ele>-18.758304</ele>
|
|
<time>2026-07-10T15:23:40.000Z</time>
|
|
</trkpt>
|
|
<trkpt lat="55.327782" lon="8.763153">
|
|
<ele>-18.754903</ele>
|
|
<time>2026-07-10T15:23:41.000Z</time>
|
|
</trkpt>
|
|
<trkpt lat="55.327782" lon="8.763144">
|
|
<ele>-18.753113</ele>
|
|
<time>2026-07-10T15:23:42.000Z</time>
|
|
</trkpt>
|
|
<trkpt lat="55.327780" lon="8.763124">
|
|
<ele>-18.749073</ele>
|
|
<time>2026-07-10T15:23:45.000Z</time>
|
|
</trkpt>
|
|
<trkpt lat="55.327773" lon="8.763074">
|
|
<ele>-18.738828</ele>
|
|
<time>2026-07-10T15:23:46.000Z</time>
|
|
</trkpt>
|
|
<trkpt lat="55.327771" lon="8.763063">
|
|
<ele>-18.736531</ele>
|
|
<time>2026-07-10T15:23:47.000Z</time>
|
|
</trkpt>
|
|
<trkpt lat="55.327766" lon="8.763042">
|
|
<ele>-18.732002</ele>
|
|
<time>2026-07-10T15:23:48.000Z</time>
|
|
</trkpt>
|
|
<trkpt lat="55.327766" lon="8.763026">
|
|
<ele>-18.728819</ele>
|
|
<time>2026-07-10T15:23:49.000Z</time>
|
|
</trkpt>
|
|
<trkpt lat="55.327766" lon="8.763013">
|
|
<ele>-18.726232</ele>
|
|
<time>2026-07-10T15:23:50.000Z</time>
|
|
</trkpt>
|
|
<trkpt lat="55.327785" lon="8.762900">
|
|
<ele>-18.702790</ele>
|
|
<time>2026-07-10T15:24:00.000Z</time>
|
|
</trkpt>
|
|
<trkpt lat="55.327790" lon="8.762877">
|
|
<ele>-18.697891</ele>
|
|
<time>2026-07-10T15:24:01.000Z</time>
|
|
</trkpt>
|
|
<trkpt lat="55.327795" lon="8.762861">
|
|
<ele>-18.694259</ele>
|
|
<time>2026-07-10T15:24:02.000Z</time>
|
|
</trkpt>
|
|
<trkpt lat="55.327800" lon="8.762852">
|
|
<ele>-18.691756</ele>
|
|
<time>2026-07-10T15:24:03.000Z</time>
|
|
</trkpt>
|
|
<trkpt lat="55.327811" lon="8.762834">
|
|
<ele>-18.686501</ele>
|
|
<time>2026-07-10T15:24:04.000Z</time>
|
|
</trkpt>
|
|
<trkpt lat="55.327818" lon="8.762825">
|
|
<ele>-18.683468</ele>
|
|
<time>2026-07-10T15:24:05.000Z</time>
|
|
</trkpt>
|
|
<trkpt lat="55.327823" lon="8.762816">
|
|
<ele>-18.680965</ele>
|
|
<time>2026-07-10T15:24:06.000Z</time>
|
|
</trkpt>
|
|
<trkpt lat="55.327824" lon="8.762815">
|
|
<ele>-18.680563</ele>
|
|
<time>2026-07-10T15:24:07.000Z</time>
|
|
</trkpt>
|
|
<trkpt lat="55.327848" lon="8.762791">
|
|
<ele>-18.670906</ele>
|
|
<time>2026-07-10T15:24:12.000Z</time>
|
|
</trkpt>
|
|
<trkpt lat="55.327910" lon="8.762730">
|
|
<ele>-18.646058</ele>
|
|
<time>2026-07-10T15:24:13.000Z</time>
|
|
</trkpt>
|
|
<trkpt lat="55.327916" lon="8.762724">
|
|
<ele>-18.643644</ele>
|
|
<time>2026-07-10T15:24:14.000Z</time>
|
|
</trkpt>
|
|
<trkpt lat="55.327934" lon="8.762714">
|
|
<ele>-18.637042</ele>
|
|
<time>2026-07-10T15:24:15.000Z</time>
|
|
</trkpt>
|
|
<trkpt lat="55.327944" lon="8.762708">
|
|
<ele>-18.633347</ele>
|
|
<time>2026-07-10T15:24:16.000Z</time>
|
|
</trkpt>
|
|
<trkpt lat="55.327951" lon="8.762704">
|
|
<ele>-18.630773</ele>
|
|
<time>2026-07-10T15:24:17.000Z</time>
|
|
</trkpt>
|
|
<trkpt lat="55.327968" lon="8.762692">
|
|
<ele>-18.624366</ele>
|
|
<time>2026-07-10T15:24:18.000Z</time>
|
|
</trkpt>
|
|
<trkpt lat="55.327978" lon="8.762681">
|
|
<ele>-18.620241</ele>
|
|
<time>2026-07-10T15:24:19.000Z</time>
|
|
</trkpt>
|
|
<trkpt lat="55.327983" lon="8.762675">
|
|
<ele>-18.618123</ele>
|
|
<time>2026-07-10T15:24:20.000Z</time>
|
|
</trkpt>
|
|
<trkpt lat="55.327993" lon="8.762669">
|
|
<ele>-18.614428</ele>
|
|
<time>2026-07-10T15:24:21.000Z</time>
|
|
</trkpt>
|
|
<trkpt lat="55.327995" lon="8.762669">
|
|
<ele>-18.613729</ele>
|
|
<time>2026-07-10T15:24:22.000Z</time>
|
|
</trkpt>
|
|
<trkpt lat="55.327995" lon="8.762669">
|
|
<ele>-18.613729</ele>
|
|
<time>2026-07-10T15:24:24.000Z</time>
|
|
</trkpt>
|
|
<trkpt lat="55.328084" lon="8.762592">
|
|
<ele>-18.583328</ele>
|
|
<time>2026-07-10T15:24:33.000Z</time>
|
|
</trkpt>
|
|
<trkpt lat="55.328097" lon="8.762576">
|
|
<ele>-18.583328</ele>
|
|
<time>2026-07-10T15:24:34.000Z</time>
|
|
</trkpt>
|
|
<trkpt lat="55.328104" lon="8.762570">
|
|
<ele>-18.583328</ele>
|
|
<time>2026-07-10T15:24:35.000Z</time>
|
|
</trkpt>
|
|
<trkpt lat="55.328112" lon="8.762565">
|
|
<ele>-18.583328</ele>
|
|
<time>2026-07-10T15:24:36.000Z</time>
|
|
</trkpt>
|
|
<trkpt lat="55.328122" lon="8.762557">
|
|
<ele>-18.583328</ele>
|
|
<time>2026-07-10T15:24:37.000Z</time>
|
|
</trkpt>
|
|
<trkpt lat="55.328127" lon="8.762547">
|
|
<ele>-18.583328</ele>
|
|
<time>2026-07-10T15:24:38.000Z</time>
|
|
</trkpt>
|
|
<trkpt lat="55.328135" lon="8.762534">
|
|
<ele>-18.583328</ele>
|
|
<time>2026-07-10T15:24:39.000Z</time>
|
|
</trkpt>
|
|
<trkpt lat="55.328143" lon="8.762524">
|
|
<ele>-18.583328</ele>
|
|
<time>2026-07-10T15:24:40.000Z</time>
|
|
</trkpt>
|
|
<trkpt lat="55.328154" lon="8.762511">
|
|
<ele>-18.583328</ele>
|
|
<time>2026-07-10T15:24:41.000Z</time>
|
|
</trkpt>
|
|
<trkpt lat="55.328160" lon="8.762495">
|
|
<ele>-18.583328</ele>
|
|
<time>2026-07-10T15:24:42.000Z</time>
|
|
</trkpt>
|
|
<trkpt lat="55.328163" lon="8.762461">
|
|
<ele>-18.583328</ele>
|
|
<time>2026-07-10T15:24:43.000Z</time>
|
|
</trkpt>
|
|
<trkpt lat="55.328163" lon="8.762418">
|
|
<ele>-18.583328</ele>
|
|
<time>2026-07-10T15:24:44.000Z</time>
|
|
</trkpt>
|
|
<trkpt lat="55.328163" lon="8.762375">
|
|
<ele>-18.583328</ele>
|
|
<time>2026-07-10T15:24:45.000Z</time>
|
|
</trkpt>
|
|
<trkpt lat="55.328163" lon="8.762356">
|
|
<ele>-18.583328</ele>
|
|
<time>2026-07-10T15:24:46.000Z</time>
|
|
</trkpt>
|
|
<trkpt lat="55.328163" lon="8.762326">
|
|
<ele>-18.583328</ele>
|
|
<time>2026-07-10T15:24:47.000Z</time>
|
|
</trkpt>
|
|
<trkpt lat="55.328163" lon="8.762297">
|
|
<ele>-18.583328</ele>
|
|
<time>2026-07-10T15:24:48.000Z</time>
|
|
</trkpt>
|
|
<trkpt lat="55.328163" lon="8.762284">
|
|
<ele>-18.583328</ele>
|
|
<time>2026-07-10T15:24:49.000Z</time>
|
|
</trkpt>
|
|
<trkpt lat="55.328163" lon="8.762248">
|
|
<ele>-18.583328</ele>
|
|
<time>2026-07-10T15:24:50.000Z</time>
|
|
</trkpt>
|
|
<trkpt lat="55.328163" lon="8.762233">
|
|
<ele>-18.583328</ele>
|
|
<time>2026-07-10T15:24:51.000Z</time>
|
|
</trkpt>
|
|
<trkpt lat="55.328163" lon="8.762230">
|
|
<ele>-18.583328</ele>
|
|
<time>2026-07-10T15:24:52.000Z</time>
|
|
</trkpt>
|
|
<trkpt lat="55.328171" lon="8.762208">
|
|
<ele>-18.583328</ele>
|
|
<time>2026-07-10T15:24:56.000Z</time>
|
|
</trkpt>
|
|
<trkpt lat="55.328194" lon="8.762146">
|
|
<ele>-18.583328</ele>
|
|
<time>2026-07-10T15:24:57.000Z</time>
|
|
</trkpt>
|
|
<trkpt lat="55.328197" lon="8.762139">
|
|
<ele>-18.583328</ele>
|
|
<time>2026-07-10T15:24:58.000Z</time>
|
|
</trkpt>
|
|
<trkpt lat="55.328206" lon="8.762122">
|
|
<ele>-18.583328</ele>
|
|
<time>2026-07-10T15:24:59.000Z</time>
|
|
</trkpt>
|
|
<trkpt lat="55.328211" lon="8.762112">
|
|
<ele>-18.583328</ele>
|
|
<time>2026-07-10T15:25:00.000Z</time>
|
|
</trkpt>
|
|
<trkpt lat="55.328217" lon="8.762104">
|
|
<ele>-18.583328</ele>
|
|
<time>2026-07-10T15:25:01.000Z</time>
|
|
</trkpt>
|
|
<trkpt lat="55.328219" lon="8.762099">
|
|
<ele>-18.583328</ele>
|
|
<time>2026-07-10T15:25:02.000Z</time>
|
|
</trkpt>
|
|
<trkpt lat="55.328228" lon="8.762087">
|
|
<ele>-18.583328</ele>
|
|
<time>2026-07-10T15:25:03.000Z</time>
|
|
</trkpt>
|
|
<trkpt lat="55.328228" lon="8.762087">
|
|
<ele>-18.583328</ele>
|
|
<time>2026-07-10T15:25:06.000Z</time>
|
|
</trkpt>
|
|
<trkpt lat="55.328238" lon="8.762068">
|
|
<ele>-18.583328</ele>
|
|
<time>2026-07-10T15:25:08.000Z</time>
|
|
</trkpt>
|
|
<trkpt lat="55.328264" lon="8.762018">
|
|
<ele>-18.583328</ele>
|
|
<time>2026-07-10T15:25:09.000Z</time>
|
|
</trkpt>
|
|
<trkpt lat="55.328268" lon="8.762012">
|
|
<ele>-18.583328</ele>
|
|
<time>2026-07-10T15:25:10.000Z</time>
|
|
</trkpt>
|
|
<trkpt lat="55.328280" lon="8.761997">
|
|
<ele>-18.583328</ele>
|
|
<time>2026-07-10T15:25:11.000Z</time>
|
|
</trkpt>
|
|
<trkpt lat="55.328286" lon="8.761987">
|
|
<ele>-18.583328</ele>
|
|
<time>2026-07-10T15:25:12.000Z</time>
|
|
</trkpt>
|
|
<trkpt lat="55.328289" lon="8.761982">
|
|
<ele>-18.583328</ele>
|
|
<time>2026-07-10T15:25:13.000Z</time>
|
|
</trkpt>
|
|
<trkpt lat="55.328289" lon="8.761982">
|
|
<ele>-18.583328</ele>
|
|
<time>2026-07-10T15:25:20.000Z</time>
|
|
</trkpt>
|
|
<trkpt lat="55.328307" lon="8.761948">
|
|
<ele>-18.583328</ele>
|
|
<time>2026-07-10T15:25:23.000Z</time>
|
|
</trkpt>
|
|
<trkpt lat="55.328354" lon="8.761856">
|
|
<ele>-18.583328</ele>
|
|
<time>2026-07-10T15:25:24.000Z</time>
|
|
</trkpt>
|
|
<trkpt lat="55.328356" lon="8.761848">
|
|
<ele>-18.583328</ele>
|
|
<time>2026-07-10T15:25:25.000Z</time>
|
|
</trkpt>
|
|
<trkpt lat="55.328363" lon="8.761826">
|
|
<ele>-18.583328</ele>
|
|
<time>2026-07-10T15:25:26.000Z</time>
|
|
</trkpt>
|
|
<trkpt lat="55.328365" lon="8.761813">
|
|
<ele>-18.583328</ele>
|
|
<time>2026-07-10T15:25:27.000Z</time>
|
|
</trkpt>
|
|
<trkpt lat="55.328365" lon="8.761813">
|
|
<ele>-18.583328</ele>
|
|
<time>2026-07-10T15:25:34.000Z</time>
|
|
</trkpt>
|
|
<trkpt lat="55.328365" lon="8.761781">
|
|
<ele>-18.583328</ele>
|
|
<time>2026-07-10T15:25:38.000Z</time>
|
|
</trkpt>
|
|
<trkpt lat="55.328362" lon="8.761648">
|
|
<ele>-18.583328</ele>
|
|
<time>2026-07-10T15:25:39.000Z</time>
|
|
</trkpt>
|
|
<trkpt lat="55.328362" lon="8.761640">
|
|
<ele>-18.583328</ele>
|
|
<time>2026-07-10T15:25:40.000Z</time>
|
|
</trkpt>
|
|
<trkpt lat="55.328361" lon="8.761629">
|
|
<ele>-18.583328</ele>
|
|
<time>2026-07-10T15:25:41.000Z</time>
|
|
</trkpt>
|
|
<trkpt lat="55.328358" lon="8.761630">
|
|
<ele>-18.583328</ele>
|
|
<time>2026-07-10T15:25:42.000Z</time>
|
|
</trkpt>
|
|
<trkpt lat="55.328350" lon="8.761591">
|
|
<ele>-18.583328</ele>
|
|
<time>2026-07-10T15:25:55.000Z</time>
|
|
</trkpt>
|
|
<trkpt lat="55.328326" lon="8.761472">
|
|
<ele>-18.583328</ele>
|
|
<time>2026-07-10T15:25:56.000Z</time>
|
|
</trkpt>
|
|
<trkpt lat="55.328323" lon="8.761454">
|
|
<ele>-18.583328</ele>
|
|
<time>2026-07-10T15:25:57.000Z</time>
|
|
</trkpt>
|
|
<trkpt lat="55.328323" lon="8.761437">
|
|
<ele>-18.583328</ele>
|
|
<time>2026-07-10T15:25:58.000Z</time>
|
|
</trkpt>
|
|
<trkpt lat="55.328323" lon="8.761419">
|
|
<ele>-18.583328</ele>
|
|
<time>2026-07-10T15:25:59.000Z</time>
|
|
</trkpt>
|
|
<trkpt lat="55.328322" lon="8.761399">
|
|
<ele>-18.583328</ele>
|
|
<time>2026-07-10T15:26:00.000Z</time>
|
|
</trkpt>
|
|
<trkpt lat="55.328321" lon="8.761378">
|
|
<ele>-18.583328</ele>
|
|
<time>2026-07-10T15:26:01.000Z</time>
|
|
</trkpt>
|
|
<trkpt lat="55.328324" lon="8.761359">
|
|
<ele>-18.583328</ele>
|
|
<time>2026-07-10T15:26:02.000Z</time>
|
|
</trkpt>
|
|
<trkpt lat="55.328328" lon="8.761341">
|
|
<ele>-18.583328</ele>
|
|
<time>2026-07-10T15:26:03.000Z</time>
|
|
</trkpt>
|
|
<trkpt lat="55.328332" lon="8.761324">
|
|
<ele>-18.583328</ele>
|
|
<time>2026-07-10T15:26:04.000Z</time>
|
|
</trkpt>
|
|
<trkpt lat="55.328335" lon="8.761307">
|
|
<ele>-18.583328</ele>
|
|
<time>2026-07-10T15:26:05.000Z</time>
|
|
</trkpt>
|
|
<trkpt lat="55.328335" lon="8.761291">
|
|
<ele>-18.583328</ele>
|
|
<time>2026-07-10T15:26:06.000Z</time>
|
|
</trkpt>
|
|
<trkpt lat="55.328335" lon="8.761280">
|
|
<ele>-18.583328</ele>
|
|
<time>2026-07-10T15:26:07.000Z</time>
|
|
</trkpt>
|
|
<trkpt lat="55.328335" lon="8.761280">
|
|
<ele>-18.583328</ele>
|
|
<time>2026-07-10T15:26:09.000Z</time>
|
|
</trkpt>
|
|
<trkpt lat="55.328333" lon="8.761258">
|
|
<ele>-18.583328</ele>
|
|
<time>2026-07-10T15:26:11.000Z</time>
|
|
</trkpt>
|
|
<trkpt lat="55.328326" lon="8.761191">
|
|
<ele>-18.583328</ele>
|
|
<time>2026-07-10T15:26:12.000Z</time>
|
|
</trkpt>
|
|
<trkpt lat="55.328323" lon="8.761176">
|
|
<ele>-18.583328</ele>
|
|
<time>2026-07-10T15:26:13.000Z</time>
|
|
</trkpt>
|
|
<trkpt lat="55.328322" lon="8.761163">
|
|
<ele>-18.583328</ele>
|
|
<time>2026-07-10T15:26:14.000Z</time>
|
|
</trkpt>
|
|
<trkpt lat="55.328320" lon="8.761153">
|
|
<ele>-18.583328</ele>
|
|
<time>2026-07-10T15:26:15.000Z</time>
|
|
</trkpt>
|
|
<trkpt lat="55.328314" lon="8.761134">
|
|
<ele>-18.583328</ele>
|
|
<time>2026-07-10T15:26:18.000Z</time>
|
|
</trkpt>
|
|
<trkpt lat="55.328299" lon="8.761082">
|
|
<ele>-18.583328</ele>
|
|
<time>2026-07-10T15:26:19.000Z</time>
|
|
</trkpt>
|
|
<trkpt lat="55.328295" lon="8.761065">
|
|
<ele>-18.583328</ele>
|
|
<time>2026-07-10T15:26:20.000Z</time>
|
|
</trkpt>
|
|
<trkpt lat="55.328289" lon="8.761045">
|
|
<ele>-18.583328</ele>
|
|
<time>2026-07-10T15:26:21.000Z</time>
|
|
</trkpt>
|
|
<trkpt lat="55.328289" lon="8.761033">
|
|
<ele>-18.583328</ele>
|
|
<time>2026-07-10T15:26:22.000Z</time>
|
|
</trkpt>
|
|
<trkpt lat="55.328289" lon="8.761033">
|
|
<ele>-18.583328</ele>
|
|
<time>2026-07-10T15:26:24.000Z</time>
|
|
</trkpt>
|
|
<trkpt lat="55.328289" lon="8.761033">
|
|
<ele>-18.583328</ele>
|
|
<time>2026-07-10T15:26:26.000Z</time>
|
|
</trkpt>
|
|
<trkpt lat="55.328289" lon="8.761033">
|
|
<ele>-18.583328</ele>
|
|
<time>2026-07-10T15:26:27.000Z</time>
|
|
</trkpt>
|
|
<trkpt lat="55.328289" lon="8.761033">
|
|
<ele>-18.583328</ele>
|
|
<time>2026-07-10T15:26:29.000Z</time>
|
|
</trkpt>
|
|
<trkpt lat="55.328289" lon="8.761033">
|
|
<ele>-18.583328</ele>
|
|
<time>2026-07-10T15:26:31.000Z</time>
|
|
</trkpt>
|
|
<trkpt lat="55.328270" lon="8.761001">
|
|
<ele>-18.583328</ele>
|
|
<time>2026-07-10T15:26:33.000Z</time>
|
|
</trkpt>
|
|
<trkpt lat="55.328222" lon="8.760922">
|
|
<ele>-18.583328</ele>
|
|
<time>2026-07-10T15:26:34.000Z</time>
|
|
</trkpt>
|
|
<trkpt lat="55.328215" lon="8.760919">
|
|
<ele>-18.583328</ele>
|
|
<time>2026-07-10T15:26:35.000Z</time>
|
|
</trkpt>
|
|
<trkpt lat="55.328207" lon="8.760917">
|
|
<ele>-18.583328</ele>
|
|
<time>2026-07-10T15:26:36.000Z</time>
|
|
</trkpt>
|
|
<trkpt lat="55.328201" lon="8.760915">
|
|
<ele>-18.583328</ele>
|
|
<time>2026-07-10T15:26:37.000Z</time>
|
|
</trkpt>
|
|
<trkpt lat="55.328201" lon="8.760915">
|
|
<ele>-18.583328</ele>
|
|
<time>2026-07-10T15:26:38.000Z</time>
|
|
</trkpt>
|
|
<trkpt lat="55.328201" lon="8.760915">
|
|
<ele>-18.583328</ele>
|
|
<time>2026-07-10T15:26:41.000Z</time>
|
|
</trkpt>
|
|
<trkpt lat="55.328201" lon="8.760915">
|
|
<ele>-18.583328</ele>
|
|
<time>2026-07-10T15:26:42.000Z</time>
|
|
</trkpt>
|
|
<trkpt lat="55.328201" lon="8.760915">
|
|
<ele>-18.583328</ele>
|
|
<time>2026-07-10T15:26:43.000Z</time>
|
|
</trkpt>
|
|
<trkpt lat="55.328201" lon="8.760915">
|
|
<ele>-18.583328</ele>
|
|
<time>2026-07-10T15:26:44.000Z</time>
|
|
</trkpt>
|
|
<trkpt lat="55.328201" lon="8.760915">
|
|
<ele>-18.583328</ele>
|
|
<time>2026-07-10T15:26:45.000Z</time>
|
|
</trkpt>
|
|
<trkpt lat="55.328174" lon="8.760908">
|
|
<ele>-18.583328</ele>
|
|
<time>2026-07-10T15:26:48.000Z</time>
|
|
</trkpt>
|
|
<trkpt lat="55.328106" lon="8.760890">
|
|
<ele>-18.583328</ele>
|
|
<time>2026-07-10T15:26:49.000Z</time>
|
|
</trkpt>
|
|
<trkpt lat="55.328106" lon="8.760889">
|
|
<ele>-18.583328</ele>
|
|
<time>2026-07-10T15:26:50.000Z</time>
|
|
</trkpt>
|
|
<trkpt lat="55.328106" lon="8.760885">
|
|
<ele>-18.583328</ele>
|
|
<time>2026-07-10T15:26:51.000Z</time>
|
|
</trkpt>
|
|
<trkpt lat="55.328106" lon="8.760883">
|
|
<ele>-18.583328</ele>
|
|
<time>2026-07-10T15:26:52.000Z</time>
|
|
</trkpt>
|
|
<trkpt lat="55.328065" lon="8.760906">
|
|
<ele>-18.583328</ele>
|
|
<time>2026-07-10T15:27:19.000Z</time>
|
|
</trkpt>
|
|
<trkpt lat="55.328054" lon="8.760908">
|
|
<ele>-18.583328</ele>
|
|
<time>2026-07-10T15:27:20.000Z</time>
|
|
</trkpt>
|
|
<trkpt lat="55.328043" lon="8.760911">
|
|
<ele>-18.583328</ele>
|
|
<time>2026-07-10T15:27:21.000Z</time>
|
|
</trkpt>
|
|
<trkpt lat="55.328036" lon="8.760916">
|
|
<ele>-18.583328</ele>
|
|
<time>2026-07-10T15:27:22.000Z</time>
|
|
</trkpt>
|
|
<trkpt lat="55.328030" lon="8.760919">
|
|
<ele>-18.583328</ele>
|
|
<time>2026-07-10T15:27:23.000Z</time>
|
|
</trkpt>
|
|
<trkpt lat="55.328019" lon="8.760925">
|
|
<ele>-18.583328</ele>
|
|
<time>2026-07-10T15:27:24.000Z</time>
|
|
</trkpt>
|
|
<trkpt lat="55.328009" lon="8.760930">
|
|
<ele>-18.583328</ele>
|
|
<time>2026-07-10T15:27:25.000Z</time>
|
|
</trkpt>
|
|
<trkpt lat="55.328003" lon="8.760935">
|
|
<ele>-18.583328</ele>
|
|
<time>2026-07-10T15:27:26.000Z</time>
|
|
</trkpt>
|
|
<trkpt lat="55.328003" lon="8.760935">
|
|
<ele>-18.583328</ele>
|
|
<time>2026-07-10T15:27:34.000Z</time>
|
|
</trkpt>
|
|
<trkpt lat="55.327976" lon="8.760942">
|
|
<ele>-18.583328</ele>
|
|
<time>2026-07-10T15:27:35.000Z</time>
|
|
</trkpt>
|
|
<trkpt lat="55.327906" lon="8.760960">
|
|
<ele>-18.583328</ele>
|
|
<time>2026-07-10T15:27:36.000Z</time>
|
|
</trkpt>
|
|
<trkpt lat="55.327900" lon="8.760963">
|
|
<ele>-18.583328</ele>
|
|
<time>2026-07-10T15:27:37.000Z</time>
|
|
</trkpt>
|
|
<trkpt lat="55.327894" lon="8.760975">
|
|
<ele>-18.583328</ele>
|
|
<time>2026-07-10T15:27:38.000Z</time>
|
|
</trkpt>
|
|
<trkpt lat="55.327888" lon="8.760982">
|
|
<ele>-18.583328</ele>
|
|
<time>2026-07-10T15:27:39.000Z</time>
|
|
</trkpt>
|
|
<trkpt lat="55.327888" lon="8.760982">
|
|
<ele>-18.583328</ele>
|
|
<time>2026-07-10T15:27:42.000Z</time>
|
|
</trkpt>
|
|
<trkpt lat="55.327847" lon="8.761144">
|
|
<ele>-18.583328</ele>
|
|
<time>2026-07-10T15:30:07.000Z</time>
|
|
</trkpt>
|
|
<trkpt lat="55.327847" lon="8.761164">
|
|
<ele>-18.583328</ele>
|
|
<time>2026-07-10T15:30:08.000Z</time>
|
|
</trkpt>
|
|
<trkpt lat="55.327847" lon="8.761181">
|
|
<ele>-18.583328</ele>
|
|
<time>2026-07-10T15:30:09.000Z</time>
|
|
</trkpt>
|
|
<trkpt lat="55.327847" lon="8.761208">
|
|
<ele>-18.583328</ele>
|
|
<time>2026-07-10T15:30:10.000Z</time>
|
|
</trkpt>
|
|
<trkpt lat="55.327847" lon="8.761225">
|
|
<ele>-18.583328</ele>
|
|
<time>2026-07-10T15:30:11.000Z</time>
|
|
</trkpt>
|
|
<trkpt lat="55.327847" lon="8.761238">
|
|
<ele>-18.583328</ele>
|
|
<time>2026-07-10T15:30:12.000Z</time>
|
|
</trkpt>
|
|
<trkpt lat="55.327845" lon="8.761264">
|
|
<ele>-18.583328</ele>
|
|
<time>2026-07-10T15:30:13.000Z</time>
|
|
</trkpt>
|
|
<trkpt lat="55.327843" lon="8.761285">
|
|
<ele>-18.583328</ele>
|
|
<time>2026-07-10T15:30:14.000Z</time>
|
|
</trkpt>
|
|
<trkpt lat="55.327843" lon="8.761301">
|
|
<ele>-18.583328</ele>
|
|
<time>2026-07-10T15:30:15.000Z</time>
|
|
</trkpt>
|
|
<trkpt lat="55.327842" lon="8.761321">
|
|
<ele>-18.583328</ele>
|
|
<time>2026-07-10T15:30:16.000Z</time>
|
|
</trkpt>
|
|
<trkpt lat="55.327839" lon="8.761336">
|
|
<ele>-18.583328</ele>
|
|
<time>2026-07-10T15:30:17.000Z</time>
|
|
</trkpt>
|
|
<trkpt lat="55.327839" lon="8.761348">
|
|
<ele>-18.583328</ele>
|
|
<time>2026-07-10T15:30:18.000Z</time>
|
|
</trkpt>
|
|
<trkpt lat="55.327845" lon="8.761366">
|
|
<ele>-18.583328</ele>
|
|
<time>2026-07-10T15:30:19.000Z</time>
|
|
</trkpt>
|
|
<trkpt lat="55.327850" lon="8.761375">
|
|
<ele>-18.583328</ele>
|
|
<time>2026-07-10T15:30:20.000Z</time>
|
|
</trkpt>
|
|
<trkpt lat="55.327849" lon="8.761400">
|
|
<ele>-18.583328</ele>
|
|
<time>2026-07-10T15:30:26.000Z</time>
|
|
</trkpt>
|
|
<trkpt lat="55.327846" lon="8.761465">
|
|
<ele>-18.583328</ele>
|
|
<time>2026-07-10T15:30:27.000Z</time>
|
|
</trkpt>
|
|
<trkpt lat="55.327843" lon="8.761478">
|
|
<ele>-18.583328</ele>
|
|
<time>2026-07-10T15:30:28.000Z</time>
|
|
</trkpt>
|
|
<trkpt lat="55.327843" lon="8.761496">
|
|
<ele>-18.583328</ele>
|
|
<time>2026-07-10T15:30:29.000Z</time>
|
|
</trkpt>
|
|
<trkpt lat="55.327843" lon="8.761511">
|
|
<ele>-18.583328</ele>
|
|
<time>2026-07-10T15:30:30.000Z</time>
|
|
</trkpt>
|
|
<trkpt lat="55.327843" lon="8.761525">
|
|
<ele>-18.583328</ele>
|
|
<time>2026-07-10T15:30:31.000Z</time>
|
|
</trkpt>
|
|
<trkpt lat="55.327843" lon="8.761538">
|
|
<ele>-18.583328</ele>
|
|
<time>2026-07-10T15:30:32.000Z</time>
|
|
</trkpt>
|
|
<trkpt lat="55.327847" lon="8.761555">
|
|
<ele>-18.583328</ele>
|
|
<time>2026-07-10T15:30:33.000Z</time>
|
|
</trkpt>
|
|
<trkpt lat="55.327847" lon="8.761567">
|
|
<ele>-18.583328</ele>
|
|
<time>2026-07-10T15:30:34.000Z</time>
|
|
</trkpt>
|
|
<trkpt lat="55.327847" lon="8.761602">
|
|
<ele>-18.583328</ele>
|
|
<time>2026-07-10T15:30:35.000Z</time>
|
|
</trkpt>
|
|
<trkpt lat="55.327850" lon="8.761616">
|
|
<ele>-18.583328</ele>
|
|
<time>2026-07-10T15:30:36.000Z</time>
|
|
</trkpt>
|
|
<trkpt lat="55.327860" lon="8.761636">
|
|
<ele>-18.583328</ele>
|
|
<time>2026-07-10T15:30:37.000Z</time>
|
|
</trkpt>
|
|
<trkpt lat="55.327867" lon="8.761650">
|
|
<ele>-18.583328</ele>
|
|
<time>2026-07-10T15:30:38.000Z</time>
|
|
</trkpt>
|
|
<trkpt lat="55.327873" lon="8.761663">
|
|
<ele>-18.583328</ele>
|
|
<time>2026-07-10T15:30:39.000Z</time>
|
|
</trkpt>
|
|
<trkpt lat="55.327874" lon="8.761686">
|
|
<ele>-18.583328</ele>
|
|
<time>2026-07-10T15:30:40.000Z</time>
|
|
</trkpt>
|
|
<trkpt lat="55.327879" lon="8.761700">
|
|
<ele>-18.583328</ele>
|
|
<time>2026-07-10T15:30:41.000Z</time>
|
|
</trkpt>
|
|
<trkpt lat="55.327884" lon="8.761711">
|
|
<ele>-18.583328</ele>
|
|
<time>2026-07-10T15:30:42.000Z</time>
|
|
</trkpt>
|
|
<trkpt lat="55.327888" lon="8.761723">
|
|
<ele>-18.583328</ele>
|
|
<time>2026-07-10T15:30:43.000Z</time>
|
|
</trkpt>
|
|
<trkpt lat="55.327888" lon="8.761723">
|
|
<ele>-18.583328</ele>
|
|
<time>2026-07-10T15:30:45.000Z</time>
|
|
</trkpt>
|
|
<trkpt lat="55.327896" lon="8.761738">
|
|
<ele>-18.583328</ele>
|
|
<time>2026-07-10T15:30:46.000Z</time>
|
|
</trkpt>
|
|
<trkpt lat="55.327917" lon="8.761776">
|
|
<ele>-18.583328</ele>
|
|
<time>2026-07-10T15:30:47.000Z</time>
|
|
</trkpt>
|
|
<trkpt lat="55.327924" lon="8.761780">
|
|
<ele>-18.583328</ele>
|
|
<time>2026-07-10T15:30:48.000Z</time>
|
|
</trkpt>
|
|
<trkpt lat="55.327932" lon="8.761793">
|
|
<ele>-18.583328</ele>
|
|
<time>2026-07-10T15:30:49.000Z</time>
|
|
</trkpt>
|
|
<trkpt lat="55.327934" lon="8.761802">
|
|
<ele>-18.583328</ele>
|
|
<time>2026-07-10T15:30:50.000Z</time>
|
|
</trkpt>
|
|
<trkpt lat="55.327934" lon="8.761804">
|
|
<ele>-18.583328</ele>
|
|
<time>2026-07-10T15:30:51.000Z</time>
|
|
</trkpt>
|
|
<trkpt lat="55.327934" lon="8.761804">
|
|
<ele>-18.583328</ele>
|
|
<time>2026-07-10T15:32:06.000Z</time>
|
|
</trkpt>
|
|
<trkpt lat="55.327938" lon="8.761812">
|
|
<ele>-18.583328</ele>
|
|
<time>2026-07-10T15:32:07.000Z</time>
|
|
</trkpt>
|
|
<trkpt lat="55.327973" lon="8.761895">
|
|
<ele>-18.583328</ele>
|
|
<time>2026-07-10T15:32:08.000Z</time>
|
|
</trkpt>
|
|
<trkpt lat="55.327976" lon="8.761908">
|
|
<ele>-18.583328</ele>
|
|
<time>2026-07-10T15:32:09.000Z</time>
|
|
</trkpt>
|
|
<trkpt lat="55.327980" lon="8.761931">
|
|
<ele>-18.583328</ele>
|
|
<time>2026-07-10T15:32:10.000Z</time>
|
|
</trkpt>
|
|
<trkpt lat="55.327981" lon="8.761945">
|
|
<ele>-18.583328</ele>
|
|
<time>2026-07-10T15:32:11.000Z</time>
|
|
</trkpt>
|
|
<trkpt lat="55.327987" lon="8.761952">
|
|
<ele>-18.583328</ele>
|
|
<time>2026-07-10T15:32:12.000Z</time>
|
|
</trkpt>
|
|
<trkpt lat="55.327991" lon="8.761969">
|
|
<ele>-18.583328</ele>
|
|
<time>2026-07-10T15:32:13.000Z</time>
|
|
</trkpt>
|
|
<trkpt lat="55.327991" lon="8.761984">
|
|
<ele>-18.583328</ele>
|
|
<time>2026-07-10T15:32:14.000Z</time>
|
|
</trkpt>
|
|
<trkpt lat="55.327991" lon="8.761993">
|
|
<ele>-18.583328</ele>
|
|
<time>2026-07-10T15:32:15.000Z</time>
|
|
</trkpt>
|
|
<trkpt lat="55.327999" lon="8.762022">
|
|
<ele>-18.583328</ele>
|
|
<time>2026-07-10T15:32:27.000Z</time>
|
|
</trkpt>
|
|
<trkpt lat="55.328020" lon="8.762091">
|
|
<ele>-18.583328</ele>
|
|
<time>2026-07-10T15:32:28.000Z</time>
|
|
</trkpt>
|
|
<trkpt lat="55.328026" lon="8.762089">
|
|
<ele>-18.583328</ele>
|
|
<time>2026-07-10T15:32:29.000Z</time>
|
|
</trkpt>
|
|
<trkpt lat="55.328040" lon="8.762083">
|
|
<ele>-18.583328</ele>
|
|
<time>2026-07-10T15:32:30.000Z</time>
|
|
</trkpt>
|
|
<trkpt lat="55.328050" lon="8.762083">
|
|
<ele>-18.583328</ele>
|
|
<time>2026-07-10T15:32:31.000Z</time>
|
|
</trkpt>
|
|
<trkpt lat="55.328057" lon="8.762082">
|
|
<ele>-18.583328</ele>
|
|
<time>2026-07-10T15:32:32.000Z</time>
|
|
</trkpt>
|
|
<trkpt lat="55.328074" lon="8.762080">
|
|
<ele>-18.583328</ele>
|
|
<time>2026-07-10T15:32:33.000Z</time>
|
|
</trkpt>
|
|
<trkpt lat="55.328086" lon="8.762080">
|
|
<ele>-18.583328</ele>
|
|
<time>2026-07-10T15:32:34.000Z</time>
|
|
</trkpt>
|
|
<trkpt lat="55.328097" lon="8.762081">
|
|
<ele>-18.583328</ele>
|
|
<time>2026-07-10T15:32:35.000Z</time>
|
|
</trkpt>
|
|
<trkpt lat="55.328105" lon="8.762085">
|
|
<ele>-18.583328</ele>
|
|
<time>2026-07-10T15:32:36.000Z</time>
|
|
</trkpt>
|
|
<trkpt lat="55.328117" lon="8.762089">
|
|
<ele>-18.583328</ele>
|
|
<time>2026-07-10T15:32:37.000Z</time>
|
|
</trkpt>
|
|
<trkpt lat="55.328127" lon="8.762092">
|
|
<ele>-18.583328</ele>
|
|
<time>2026-07-10T15:32:38.000Z</time>
|
|
</trkpt>
|
|
<trkpt lat="55.328132" lon="8.762105">
|
|
<ele>-18.583328</ele>
|
|
<time>2026-07-10T15:32:39.000Z</time>
|
|
</trkpt>
|
|
<trkpt lat="55.328139" lon="8.762117">
|
|
<ele>-18.583328</ele>
|
|
<time>2026-07-10T15:32:40.000Z</time>
|
|
</trkpt>
|
|
<trkpt lat="55.328146" lon="8.762127">
|
|
<ele>-18.583328</ele>
|
|
<time>2026-07-10T15:32:41.000Z</time>
|
|
</trkpt>
|
|
<trkpt lat="55.328154" lon="8.762135">
|
|
<ele>-18.583328</ele>
|
|
<time>2026-07-10T15:32:42.000Z</time>
|
|
</trkpt>
|
|
<trkpt lat="55.328157" lon="8.762153">
|
|
<ele>-18.583328</ele>
|
|
<time>2026-07-10T15:32:43.000Z</time>
|
|
</trkpt>
|
|
<trkpt lat="55.328152" lon="8.762189">
|
|
<ele>-18.583328</ele>
|
|
<time>2026-07-10T15:32:44.000Z</time>
|
|
</trkpt>
|
|
<trkpt lat="55.328152" lon="8.762206">
|
|
<ele>-18.583328</ele>
|
|
<time>2026-07-10T15:32:45.000Z</time>
|
|
</trkpt>
|
|
<trkpt lat="55.328159" lon="8.762211">
|
|
<ele>-18.583328</ele>
|
|
<time>2026-07-10T15:32:46.000Z</time>
|
|
</trkpt>
|
|
<trkpt lat="55.328170" lon="8.762214">
|
|
<ele>-18.583328</ele>
|
|
<time>2026-07-10T15:32:47.000Z</time>
|
|
</trkpt>
|
|
<trkpt lat="55.328181" lon="8.762214">
|
|
<ele>-18.583328</ele>
|
|
<time>2026-07-10T15:32:48.000Z</time>
|
|
</trkpt>
|
|
<trkpt lat="55.328192" lon="8.762215">
|
|
<ele>-18.583328</ele>
|
|
<time>2026-07-10T15:32:49.000Z</time>
|
|
</trkpt>
|
|
<trkpt lat="55.328205" lon="8.762219">
|
|
<ele>-18.583328</ele>
|
|
<time>2026-07-10T15:32:50.000Z</time>
|
|
</trkpt>
|
|
<trkpt lat="55.328216" lon="8.762221">
|
|
<ele>-18.583328</ele>
|
|
<time>2026-07-10T15:32:51.000Z</time>
|
|
</trkpt>
|
|
<trkpt lat="55.328225" lon="8.762221">
|
|
<ele>-18.583328</ele>
|
|
<time>2026-07-10T15:32:52.000Z</time>
|
|
</trkpt>
|
|
<trkpt lat="55.328234" lon="8.762220">
|
|
<ele>-18.583328</ele>
|
|
<time>2026-07-10T15:32:53.000Z</time>
|
|
</trkpt>
|
|
<trkpt lat="55.328244" lon="8.762221">
|
|
<ele>-18.583328</ele>
|
|
<time>2026-07-10T15:32:54.000Z</time>
|
|
</trkpt>
|
|
<trkpt lat="55.328257" lon="8.762224">
|
|
<ele>-18.583328</ele>
|
|
<time>2026-07-10T15:32:55.000Z</time>
|
|
</trkpt>
|
|
<trkpt lat="55.328264" lon="8.762225">
|
|
<ele>-18.583328</ele>
|
|
<time>2026-07-10T15:32:56.000Z</time>
|
|
</trkpt>
|
|
<trkpt lat="55.328270" lon="8.762227">
|
|
<ele>-18.583328</ele>
|
|
<time>2026-07-10T15:32:57.000Z</time>
|
|
</trkpt>
|
|
</trkseg>
|
|
</trk>
|
|
</gpx> |